<?xml version='1.0' encoding='UTF-8'?><gpx version="1.1" creator="JPX - https://github.com/jenetics/jpx" xmlns="http://www.topografix.com/GPX/1/1"><trk><trkseg><trkpt lat="46.2580359" lon="10.5083156"><ele>1245.0</ele><time>2026-04-25T07:45:24.574Z</time></trkpt><trkpt lat="46.2580714" lon="10.5084367"><ele>1245.0</ele><time>2026-04-25T07:45:26.565Z</time></trkpt><trkpt lat="46.2580536" lon="10.50856"><ele>1245.0</ele><time>2026-04-25T07:45:29.574Z</time></trkpt><trkpt lat="46.2580503" lon="10.5086519"><ele>1245.0</ele><time>2026-04-25T07:45:33.587Z</time></trkpt><trkpt lat="46.2579983" lon="10.5087127"><ele>1245.0</ele><time>2026-04-25T07:46:47.578Z</time></trkpt><trkpt lat="46.257964" lon="10.5087921"><ele>1245.0</ele><time>2026-04-25T07:46:49.581Z</time></trkpt><trkpt lat="46.2579505" lon="10.5089266"><ele>1245.0</ele><time>2026-04-25T07:46:51.582Z</time></trkpt><trkpt lat="46.2579812" lon="10.5090644"><ele>1245.0</ele><time>2026-04-25T07:46:53.577Z</time></trkpt><trkpt lat="46.2580461" lon="10.5091786"><ele>1245.0</ele><time>2026-04-25T07:46:55.58Z</time></trkpt><trkpt lat="46.2581139" lon="10.5092646"><ele>1245.0</ele><time>2026-04-25T07:46:57.618Z</time></trkpt><trkpt lat="46.2581945" lon="10.5093606"><ele>1245.0</ele><time>2026-04-25T07:46:59.568Z</time></trkpt><trkpt lat="46.258286" lon="10.5094919"><ele>1245.0</ele><time>2026-04-25T07:47:01.605Z</time></trkpt><trkpt lat="46.2583423" lon="10.5095784"><ele>1245.0</ele><time>2026-04-25T07:47:02.593Z</time></trkpt><trkpt lat="46.2583887" lon="10.5096474"><ele>1245.0</ele><time>2026-04-25T07:47:03.6Z</time></trkpt><trkpt lat="46.2584527" lon="10.509754"><ele>1245.0</ele><time>2026-04-25T07:47:05.601Z</time></trkpt><trkpt lat="46.2585221" lon="10.5098772"><ele>1245.0</ele><time>2026-04-25T07:47:07.608Z</time></trkpt><trkpt lat="46.2585591" lon="10.5099516"><ele>1245.0</ele><time>2026-04-25T07:47:08.55Z</time></trkpt><trkpt lat="46.2585956" lon="10.5100416"><ele>1245.0</ele><time>2026-04-25T07:47:09.579Z</time></trkpt><trkpt lat="46.2586198" lon="10.510128"><ele>1245.0</ele><time>2026-04-25T07:47:10.611Z</time></trkpt><trkpt lat="46.2586386" lon="10.5102926"><ele>1245.0</ele><time>2026-04-25T07:47:12.596Z</time></trkpt><trkpt lat="46.2586373" lon="10.5103859"><ele>1245.0</ele><time>2026-04-25T07:47:13.577Z</time></trkpt><trkpt lat="46.2586342" lon="10.5104946"><ele>1245.0</ele><time>2026-04-25T07:47:14.618Z</time></trkpt><trkpt lat="46.258626" lon="10.5106056"><ele>1245.0</ele><time>2026-04-25T07:47:15.611Z</time></trkpt><trkpt lat="46.2586111" lon="10.5107177"><ele>1245.3333333333333</ele><time>2026-04-25T07:47:16.589Z</time></trkpt><trkpt lat="46.2585914" lon="10.5108318"><ele>1245.6666666666667</ele><time>2026-04-25T07:47:17.588Z</time></trkpt><trkpt lat="46.2585664" lon="10.5109412"><ele>1246.0</ele><time>2026-04-25T07:47:18.57Z</time></trkpt><trkpt lat="46.2585335" lon="10.5110523"><ele>1246.3333333333335</ele><time>2026-04-25T07:47:19.601Z</time></trkpt><trkpt lat="46.2584979" lon="10.5111611"><ele>1246.6666666666667</ele><time>2026-04-25T07:47:20.614Z</time></trkpt><trkpt lat="46.2584555" lon="10.5112673"><ele>1247.0</ele><time>2026-04-25T07:47:21.609Z</time></trkpt><trkpt lat="46.2584075" lon="10.5113749"><ele>1247.1666666666667</ele><time>2026-04-25T07:47:22.608Z</time></trkpt><trkpt lat="46.2583559" lon="10.5114847"><ele>1247.3333333333335</ele><time>2026-04-25T07:47:23.62Z</time></trkpt><trkpt lat="46.2583077" lon="10.5115926"><ele>1247.5</ele><time>2026-04-25T07:47:24.591Z</time></trkpt><trkpt lat="46.2582597" lon="10.5117061"><ele>1247.6666666666667</ele><time>2026-04-25T07:47:25.598Z</time></trkpt><trkpt lat="46.2582128" lon="10.5118143"><ele>1247.8333333333333</ele><time>2026-04-25T07:47:26.599Z</time></trkpt><trkpt lat="46.2581703" lon="10.5119108"><ele>1248.0</ele><time>2026-04-25T07:47:27.601Z</time></trkpt><trkpt lat="46.2581247" lon="10.512009"><ele>1249.1666666666667</ele><time>2026-04-25T07:47:28.61Z</time></trkpt><trkpt lat="46.2580776" lon="10.5121081"><ele>1250.3333333333333</ele><time>2026-04-25T07:47:29.578Z</time></trkpt><trkpt lat="46.2580271" lon="10.5122162"><ele>1251.5</ele><time>2026-04-25T07:47:30.594Z</time></trkpt><trkpt lat="46.257977" lon="10.5123268"><ele>1252.6666666666665</ele><time>2026-04-25T07:47:31.611Z</time></trkpt><trkpt lat="46.2579297" lon="10.5124322"><ele>1253.8333333333333</ele><time>2026-04-25T07:47:32.583Z</time></trkpt><trkpt lat="46.257884" lon="10.5125311"><ele>1255.0</ele><time>2026-04-25T07:47:33.604Z</time></trkpt><trkpt lat="46.2578452" lon="10.5126169"><ele>1255.0</ele><time>2026-04-25T07:47:34.588Z</time></trkpt><trkpt lat="46.2578066" lon="10.5127038"><ele>1255.0</ele><time>2026-04-25T07:47:35.601Z</time></trkpt><trkpt lat="46.2577679" lon="10.5127872"><ele>1255.0</ele><time>2026-04-25T07:47:36.58Z</time></trkpt><trkpt lat="46.2577268" lon="10.5128747"><ele>1255.0</ele><time>2026-04-25T07:47:37.579Z</time></trkpt><trkpt lat="46.2576877" lon="10.5129616"><ele>1255.0</ele><time>2026-04-25T07:47:38.554Z</time></trkpt><trkpt lat="46.2576455" lon="10.5130584"><ele>1255.0</ele><time>2026-04-25T07:47:39.604Z</time></trkpt><trkpt lat="46.2576045" lon="10.5131504"><ele>1255.0</ele><time>2026-04-25T07:47:40.569Z</time></trkpt><trkpt lat="46.2575581" lon="10.5132514"><ele>1255.2</ele><time>2026-04-25T07:47:41.627Z</time></trkpt><trkpt lat="46.2575139" lon="10.5133514"><ele>1255.4</ele><time>2026-04-25T07:47:42.611Z</time></trkpt><trkpt lat="46.257469" lon="10.5134587"><ele>1255.6</ele><time>2026-04-25T07:47:43.599Z</time></trkpt><trkpt lat="46.2574208" lon="10.5135748"><ele>1255.8</ele><time>2026-04-25T07:47:44.612Z</time></trkpt><trkpt lat="46.2573693" lon="10.5136913"><ele>1256.0</ele><time>2026-04-25T07:47:45.603Z</time></trkpt><trkpt lat="46.2573129" lon="10.5138118"><ele>1255.6</ele><time>2026-04-25T07:47:46.599Z</time></trkpt><trkpt lat="46.2572553" lon="10.5139329"><ele>1255.1999999999998</ele><time>2026-04-25T07:47:47.581Z</time></trkpt><trkpt lat="46.2571942" lon="10.5140646"><ele>1254.8000000000002</ele><time>2026-04-25T07:47:48.615Z</time></trkpt><trkpt lat="46.257142" lon="10.5141884"><ele>1254.4</ele><time>2026-04-25T07:47:49.519Z</time></trkpt><trkpt lat="46.2570827" lon="10.5143309"><ele>1254.0</ele><time>2026-04-25T07:47:50.537Z</time></trkpt><trkpt lat="46.2570222" lon="10.5144682"><ele>1254.5</ele><time>2026-04-25T07:47:51.513Z</time></trkpt><trkpt lat="46.2569554" lon="10.5146137"><ele>1255.0</ele><time>2026-04-25T07:47:52.54Z</time></trkpt><trkpt lat="46.2568896" lon="10.514754"><ele>1255.5</ele><time>2026-04-25T07:47:53.542Z</time></trkpt><trkpt lat="46.2568278" lon="10.5148976"><ele>1256.0</ele><time>2026-04-25T07:47:54.544Z</time></trkpt><trkpt lat="46.2567641" lon="10.5150458"><ele>1256.0</ele><time>2026-04-25T07:47:55.541Z</time></trkpt><trkpt lat="46.2567016" lon="10.5151877"><ele>1256.0</ele><time>2026-04-25T07:47:56.527Z</time></trkpt><trkpt lat="46.2566378" lon="10.5153314"><ele>1256.0</ele><time>2026-04-25T07:47:57.556Z</time></trkpt><trkpt lat="46.2565722" lon="10.5154694"><ele>1256.0</ele><time>2026-04-25T07:47:58.546Z</time></trkpt><trkpt lat="46.2565052" lon="10.5156017"><ele>1256.75</ele><time>2026-04-25T07:47:59.525Z</time></trkpt><trkpt lat="46.2564307" lon="10.5157358"><ele>1257.5</ele><time>2026-04-25T07:48:00.531Z</time></trkpt><trkpt lat="46.2563525" lon="10.5158691"><ele>1258.25</ele><time>2026-04-25T07:48:01.545Z</time></trkpt><trkpt lat="46.2562783" lon="10.5159953"><ele>1259.0</ele><time>2026-04-25T07:48:02.538Z</time></trkpt><trkpt lat="46.2562061" lon="10.5161242"><ele>1259.75</ele><time>2026-04-25T07:48:03.547Z</time></trkpt><trkpt lat="46.2561284" lon="10.5162562"><ele>1260.5</ele><time>2026-04-25T07:48:04.562Z</time></trkpt><trkpt lat="46.2560522" lon="10.5163874"><ele>1261.25</ele><time>2026-04-25T07:48:05.554Z</time></trkpt><trkpt lat="46.2559765" lon="10.5165178"><ele>1262.0</ele><time>2026-04-25T07:48:06.536Z</time></trkpt><trkpt lat="46.2559062" lon="10.51665"><ele>1262.0</ele><time>2026-04-25T07:48:07.523Z</time></trkpt><trkpt lat="46.2558291" lon="10.5167861"><ele>1262.0</ele><time>2026-04-25T07:48:08.552Z</time></trkpt><trkpt lat="46.2557517" lon="10.5169127"><ele>1262.0</ele><time>2026-04-25T07:48:09.538Z</time></trkpt><trkpt lat="46.2556743" lon="10.517042"><ele>1262.0</ele><time>2026-04-25T07:48:10.566Z</time></trkpt><trkpt lat="46.2556044" lon="10.5171622"><ele>1262.4</ele><time>2026-04-25T07:48:11.549Z</time></trkpt><trkpt lat="46.2555356" lon="10.5172818"><ele>1262.8000000000002</ele><time>2026-04-25T07:48:12.549Z</time></trkpt><trkpt lat="46.2554668" lon="10.5174027"><ele>1263.2</ele><time>2026-04-25T07:48:13.569Z</time></trkpt><trkpt lat="46.2554045" lon="10.5175139"><ele>1263.6000000000001</ele><time>2026-04-25T07:48:14.546Z</time></trkpt><trkpt lat="46.2553366" lon="10.5176254"><ele>1264.0</ele><time>2026-04-25T07:48:15.545Z</time></trkpt><trkpt lat="46.2552749" lon="10.5177347"><ele>1264.0</ele><time>2026-04-25T07:48:16.555Z</time></trkpt><trkpt lat="46.2552193" lon="10.5178345"><ele>1264.0</ele><time>2026-04-25T07:48:17.543Z</time></trkpt><trkpt lat="46.2551704" lon="10.5179266"><ele>1264.0</ele><time>2026-04-25T07:48:18.549Z</time></trkpt><trkpt lat="46.2551229" lon="10.5179942"><ele>1264.0</ele><time>2026-04-25T07:48:19.533Z</time></trkpt><trkpt lat="46.2550623" lon="10.5180515"><ele>1264.0</ele><time>2026-04-25T07:48:20.526Z</time></trkpt><trkpt lat="46.2549901" lon="10.5180924"><ele>1264.0</ele><time>2026-04-25T07:48:21.569Z</time></trkpt><trkpt lat="46.2549178" lon="10.518112"><ele>1264.5</ele><time>2026-04-25T07:48:22.56Z</time></trkpt><trkpt lat="46.2548384" lon="10.5181223"><ele>1265.0</ele><time>2026-04-25T07:48:23.566Z</time></trkpt><trkpt lat="46.254775" lon="10.5181189"><ele>1265.5</ele><time>2026-04-25T07:48:24.542Z</time></trkpt><trkpt lat="46.254677" lon="10.5180999"><ele>1266.0</ele><time>2026-04-25T07:48:26.564Z</time></trkpt><trkpt lat="46.2546045" lon="10.5180858"><ele>1266.5</ele><time>2026-04-25T07:48:28.532Z</time></trkpt><trkpt lat="46.2545279" lon="10.5181106"><ele>1267.0</ele><time>2026-04-25T07:48:37.538Z</time></trkpt><trkpt lat="46.2544717" lon="10.5182016"><ele>1267.4</ele><time>2026-04-25T07:48:39.504Z</time></trkpt><trkpt lat="46.2544511" lon="10.5182916"><ele>1267.8000000000002</ele><time>2026-04-25T07:48:40.536Z</time></trkpt><trkpt lat="46.2544297" lon="10.518414"><ele>1268.2</ele><time>2026-04-25T07:48:41.54Z</time></trkpt><trkpt lat="46.2544109" lon="10.5185775"><ele>1268.6000000000001</ele><time>2026-04-25T07:48:42.558Z</time></trkpt><trkpt lat="46.254386" lon="10.5187537"><ele>1269.0</ele><time>2026-04-25T07:48:43.565Z</time></trkpt><trkpt lat="46.2543496" lon="10.5189373"><ele>1269.3333333333333</ele><time>2026-04-25T07:48:44.529Z</time></trkpt><trkpt lat="46.2543011" lon="10.5191424"><ele>1269.6666666666665</ele><time>2026-04-25T07:48:45.547Z</time></trkpt><trkpt lat="46.2542436" lon="10.5193543"><ele>1270.0</ele><time>2026-04-25T07:48:46.537Z</time></trkpt><trkpt lat="46.2541743" lon="10.5195705"><ele>1270.6666666666665</ele><time>2026-04-25T07:48:47.555Z</time></trkpt><trkpt lat="46.2540927" lon="10.519784"><ele>1271.3333333333333</ele><time>2026-04-25T07:48:48.552Z</time></trkpt><trkpt lat="46.2540033" lon="10.5199954"><ele>1272.0</ele><time>2026-04-25T07:48:49.517Z</time></trkpt><trkpt lat="46.253894" lon="10.5202268"><ele>1273.3333333333333</ele><time>2026-04-25T07:48:50.556Z</time></trkpt><trkpt lat="46.2537762" lon="10.5204321"><ele>1274.6666666666665</ele><time>2026-04-25T07:48:51.533Z</time></trkpt><trkpt lat="46.2536506" lon="10.5206417"><ele>1276.0</ele><time>2026-04-25T07:48:52.54Z</time></trkpt><trkpt lat="46.253522" lon="10.5208486"><ele>1276.0</ele><time>2026-04-25T07:48:53.536Z</time></trkpt><trkpt lat="46.2533973" lon="10.5210482"><ele>1276.0</ele><time>2026-04-25T07:48:54.556Z</time></trkpt><trkpt lat="46.2532871" lon="10.5212312"><ele>1276.0</ele><time>2026-04-25T07:48:55.539Z</time></trkpt><trkpt lat="46.2531756" lon="10.521413"><ele>1276.6666666666665</ele><time>2026-04-25T07:48:56.561Z</time></trkpt><trkpt lat="46.253074" lon="10.5215829"><ele>1277.3333333333333</ele><time>2026-04-25T07:48:57.544Z</time></trkpt><trkpt lat="46.252969" lon="10.5217591"><ele>1278.0</ele><time>2026-04-25T07:48:58.559Z</time></trkpt><trkpt lat="46.2528697" lon="10.5219234"><ele>1279.3333333333333</ele><time>2026-04-25T07:48:59.514Z</time></trkpt><trkpt lat="46.2527675" lon="10.5220948"><ele>1280.6666666666665</ele><time>2026-04-25T07:49:00.502Z</time></trkpt><trkpt lat="46.2526624" lon="10.5222704"><ele>1282.0</ele><time>2026-04-25T07:49:01.504Z</time></trkpt><trkpt lat="46.2525524" lon="10.5224441"><ele>1282.0</ele><time>2026-04-25T07:49:02.521Z</time></trkpt><trkpt lat="46.2524449" lon="10.5226245"><ele>1282.0</ele><time>2026-04-25T07:49:03.561Z</time></trkpt><trkpt lat="46.2523406" lon="10.5227943"><ele>1282.0</ele><time>2026-04-25T07:49:04.546Z</time></trkpt><trkpt lat="46.2522375" lon="10.5229659"><ele>1284.25</ele><time>2026-04-25T07:49:05.547Z</time></trkpt><trkpt lat="46.2521351" lon="10.5231376"><ele>1286.5</ele><time>2026-04-25T07:49:06.557Z</time></trkpt><trkpt lat="46.2520397" lon="10.5232956"><ele>1288.75</ele><time>2026-04-25T07:49:07.543Z</time></trkpt><trkpt lat="46.2519436" lon="10.5234522"><ele>1291.0</ele><time>2026-04-25T07:49:08.551Z</time></trkpt><trkpt lat="46.2518549" lon="10.5235962"><ele>1290.5</ele><time>2026-04-25T07:49:09.52Z</time></trkpt><trkpt lat="46.251764" lon="10.5237464"><ele>1290.0</ele><time>2026-04-25T07:49:10.533Z</time></trkpt><trkpt lat="46.251671" lon="10.5239019"><ele>1289.5</ele><time>2026-04-25T07:49:11.543Z</time></trkpt><trkpt lat="46.2515746" lon="10.5240568"><ele>1289.0</ele><time>2026-04-25T07:49:12.551Z</time></trkpt><trkpt lat="46.2514751" lon="10.5242133"><ele>1289.75</ele><time>2026-04-25T07:49:13.565Z</time></trkpt><trkpt lat="46.2513823" lon="10.5243686"><ele>1290.5</ele><time>2026-04-25T07:49:14.543Z</time></trkpt><trkpt lat="46.2512878" lon="10.5245236"><ele>1291.25</ele><time>2026-04-25T07:49:15.534Z</time></trkpt><trkpt lat="46.2511991" lon="10.5246897"><ele>1292.0</ele><time>2026-04-25T07:49:16.545Z</time></trkpt><trkpt lat="46.2511192" lon="10.5248614"><ele>1292.0</ele><time>2026-04-25T07:49:17.558Z</time></trkpt><trkpt lat="46.2510441" lon="10.5250319"><ele>1292.0</ele><time>2026-04-25T07:49:18.539Z</time></trkpt><trkpt lat="46.250976" lon="10.5252094"><ele>1292.0</ele><time>2026-04-25T07:49:19.54Z</time></trkpt><trkpt lat="46.250915" lon="10.5253852"><ele>1292.0</ele><time>2026-04-25T07:49:20.542Z</time></trkpt><trkpt lat="46.2508638" lon="10.5255607"><ele>1292.75</ele><time>2026-04-25T07:49:21.537Z</time></trkpt><trkpt lat="46.2508157" lon="10.5257297"><ele>1293.5</ele><time>2026-04-25T07:49:22.491Z</time></trkpt><trkpt lat="46.2507596" lon="10.5259143"><ele>1294.25</ele><time>2026-04-25T07:49:23.526Z</time></trkpt><trkpt lat="46.2507061" lon="10.5260824"><ele>1295.0</ele><time>2026-04-25T07:49:24.53Z</time></trkpt><trkpt lat="46.2506598" lon="10.526246"><ele>1296.0</ele><time>2026-04-25T07:49:25.531Z</time></trkpt><trkpt lat="46.2506156" lon="10.5264157"><ele>1297.0</ele><time>2026-04-25T07:49:26.538Z</time></trkpt><trkpt lat="46.2505675" lon="10.5266046"><ele>1298.0</ele><time>2026-04-25T07:49:27.541Z</time></trkpt><trkpt lat="46.2505091" lon="10.5268075"><ele>1299.0</ele><time>2026-04-25T07:49:28.545Z</time></trkpt><trkpt lat="46.2504426" lon="10.527031"><ele>1301.0</ele><time>2026-04-25T07:49:29.558Z</time></trkpt><trkpt lat="46.2503704" lon="10.5272605"><ele>1303.0</ele><time>2026-04-25T07:49:30.542Z</time></trkpt><trkpt lat="46.2503032" lon="10.5274795"><ele>1305.0</ele><time>2026-04-25T07:49:31.533Z</time></trkpt><trkpt lat="46.2502315" lon="10.5276963"><ele>1305.3333333333333</ele><time>2026-04-25T07:49:32.535Z</time></trkpt><trkpt lat="46.250147" lon="10.5279076"><ele>1305.6666666666665</ele><time>2026-04-25T07:49:33.546Z</time></trkpt><trkpt lat="46.2500545" lon="10.5280928"><ele>1306.0</ele><time>2026-04-25T07:49:34.521Z</time></trkpt><trkpt lat="46.2499406" lon="10.5282548"><ele>1306.0</ele><time>2026-04-25T07:49:35.543Z</time></trkpt><trkpt lat="46.2498213" lon="10.5283776"><ele>1306.0</ele><time>2026-04-25T07:49:36.543Z</time></trkpt><trkpt lat="46.2497116" lon="10.5284907"><ele>1306.0</ele><time>2026-04-25T07:49:37.537Z</time></trkpt><trkpt lat="46.2496068" lon="10.5286072"><ele>1306.0</ele><time>2026-04-25T07:49:38.532Z</time></trkpt><trkpt lat="46.2495217" lon="10.5287313"><ele>1307.0</ele><time>2026-04-25T07:49:39.544Z</time></trkpt><trkpt lat="46.2494633" lon="10.5288577"><ele>1308.0</ele><time>2026-04-25T07:49:40.52Z</time></trkpt><trkpt lat="46.2494247" lon="10.5290122"><ele>1309.0</ele><time>2026-04-25T07:49:41.531Z</time></trkpt><trkpt lat="46.2494104" lon="10.5291831"><ele>1310.0</ele><time>2026-04-25T07:49:42.541Z</time></trkpt><trkpt lat="46.249426" lon="10.5293449"><ele>1310.0</ele><time>2026-04-25T07:49:43.533Z</time></trkpt><trkpt lat="46.2494672" lon="10.529497"><ele>1310.0</ele><time>2026-04-25T07:49:44.533Z</time></trkpt><trkpt lat="46.249529" lon="10.5296343"><ele>1310.0</ele><time>2026-04-25T07:49:45.573Z</time></trkpt><trkpt lat="46.2496094" lon="10.5297426"><ele>1310.0</ele><time>2026-04-25T07:49:46.558Z</time></trkpt><trkpt lat="46.2497078" lon="10.5298352"><ele>1312.75</ele><time>2026-04-25T07:49:47.535Z</time></trkpt><trkpt lat="46.2498235" lon="10.5299131"><ele>1315.5</ele><time>2026-04-25T07:49:48.567Z</time></trkpt><trkpt lat="46.2499447" lon="10.5299642"><ele>1318.25</ele><time>2026-04-25T07:49:49.546Z</time></trkpt><trkpt lat="46.2500637" lon="10.52998"><ele>1321.0</ele><time>2026-04-25T07:49:50.539Z</time></trkpt><trkpt lat="46.2501795" lon="10.5299483"><ele>1321.0</ele><time>2026-04-25T07:49:51.555Z</time></trkpt><trkpt lat="46.2502816" lon="10.5298686"><ele>1321.0</ele><time>2026-04-25T07:49:52.553Z</time></trkpt><trkpt lat="46.2503693" lon="10.5297534"><ele>1321.0</ele><time>2026-04-25T07:49:53.526Z</time></trkpt><trkpt lat="46.2504622" lon="10.5295934"><ele>1321.0</ele><time>2026-04-25T07:49:54.565Z</time></trkpt><trkpt lat="46.2505521" lon="10.5294294"><ele>1324.6666666666665</ele><time>2026-04-25T07:49:55.547Z</time></trkpt><trkpt lat="46.2506433" lon="10.5292466"><ele>1328.3333333333333</ele><time>2026-04-25T07:49:56.541Z</time></trkpt><trkpt lat="46.2507423" lon="10.5290533"><ele>1332.0</ele><time>2026-04-25T07:49:57.555Z</time></trkpt><trkpt lat="46.2508495" lon="10.5288621"><ele>1328.0</ele><time>2026-04-25T07:49:58.545Z</time></trkpt><trkpt lat="46.2509546" lon="10.528664"><ele>1324.0</ele><time>2026-04-25T07:49:59.543Z</time></trkpt><trkpt lat="46.251057" lon="10.528457"><ele>1320.0</ele><time>2026-04-25T07:50:00.548Z</time></trkpt><trkpt lat="46.2511652" lon="10.5282285"><ele>1320.0</ele><time>2026-04-25T07:50:01.565Z</time></trkpt><trkpt lat="46.2512828" lon="10.5279967"><ele>1320.0</ele><time>2026-04-25T07:50:02.548Z</time></trkpt><trkpt lat="46.2514065" lon="10.5277731"><ele>1320.0</ele><time>2026-04-25T07:50:03.526Z</time></trkpt><trkpt lat="46.2515423" lon="10.5275621"><ele>1321.3333333333333</ele><time>2026-04-25T07:50:04.55Z</time></trkpt><trkpt lat="46.2516716" lon="10.527374"><ele>1322.6666666666665</ele><time>2026-04-25T07:50:05.564Z</time></trkpt><trkpt lat="46.2517867" lon="10.5271986"><ele>1324.0</ele><time>2026-04-25T07:50:06.552Z</time></trkpt><trkpt lat="46.2519036" lon="10.5270118"><ele>1324.0</ele><time>2026-04-25T07:50:07.572Z</time></trkpt><trkpt lat="46.2520209" lon="10.5268296"><ele>1324.0</ele><time>2026-04-25T07:50:08.537Z</time></trkpt><trkpt lat="46.2521551" lon="10.5266387"><ele>1324.0</ele><time>2026-04-25T07:50:09.553Z</time></trkpt><trkpt lat="46.2522937" lon="10.5264573"><ele>1327.0</ele><time>2026-04-25T07:50:10.541Z</time></trkpt><trkpt lat="46.2524478" lon="10.5262801"><ele>1330.0</ele><time>2026-04-25T07:50:11.549Z</time></trkpt><trkpt lat="46.2526029" lon="10.5261113"><ele>1333.0</ele><time>2026-04-25T07:50:12.544Z</time></trkpt><trkpt lat="46.2527648" lon="10.5259327"><ele>1333.0</ele><time>2026-04-25T07:50:13.554Z</time></trkpt><trkpt lat="46.2529238" lon="10.525752"><ele>1333.0</ele><time>2026-04-25T07:50:14.542Z</time></trkpt><trkpt lat="46.2530887" lon="10.5255653"><ele>1333.0</ele><time>2026-04-25T07:50:15.564Z</time></trkpt><trkpt lat="46.2532492" lon="10.5253824"><ele>1335.0</ele><time>2026-04-25T07:50:16.539Z</time></trkpt><trkpt lat="46.2534206" lon="10.5251882"><ele>1337.0</ele><time>2026-04-25T07:50:17.557Z</time></trkpt><trkpt lat="46.2535895" lon="10.5250091"><ele>1339.0</ele><time>2026-04-25T07:50:18.535Z</time></trkpt><trkpt lat="46.2537672" lon="10.524841"><ele>1339.0</ele><time>2026-04-25T07:50:19.544Z</time></trkpt><trkpt lat="46.2539333" lon="10.5247017"><ele>1339.0</ele><time>2026-04-25T07:50:20.551Z</time></trkpt><trkpt lat="46.2541043" lon="10.5245884"><ele>1339.0</ele><time>2026-04-25T07:50:21.567Z</time></trkpt><trkpt lat="46.2542706" lon="10.5245024"><ele>1338.6666666666665</ele><time>2026-04-25T07:50:22.548Z</time></trkpt><trkpt lat="46.2544485" lon="10.5244319"><ele>1338.3333333333333</ele><time>2026-04-25T07:50:23.56Z</time></trkpt><trkpt lat="46.2546324" lon="10.5243779"><ele>1338.0</ele><time>2026-04-25T07:50:24.548Z</time></trkpt><trkpt lat="46.2548123" lon="10.5243361"><ele>1342.3333333333333</ele><time>2026-04-25T07:50:25.537Z</time></trkpt><trkpt lat="46.2549995" lon="10.5242917"><ele>1346.6666666666665</ele><time>2026-04-25T07:50:26.534Z</time></trkpt><trkpt lat="46.255185" lon="10.5242485"><ele>1351.0</ele><time>2026-04-25T07:50:27.538Z</time></trkpt><trkpt lat="46.2553748" lon="10.5242112"><ele>1351.0</ele><time>2026-04-25T07:50:28.552Z</time></trkpt><trkpt lat="46.2555566" lon="10.5241735"><ele>1351.0</ele><time>2026-04-25T07:50:29.545Z</time></trkpt><trkpt lat="46.2557428" lon="10.5241337"><ele>1351.0</ele><time>2026-04-25T07:50:30.526Z</time></trkpt><trkpt lat="46.2559132" lon="10.524083"><ele>1357.3333333333333</ele><time>2026-04-25T07:50:31.518Z</time></trkpt><trkpt lat="46.2560803" lon="10.5240073"><ele>1363.6666666666667</ele><time>2026-04-25T07:50:32.556Z</time></trkpt><trkpt lat="46.2562307" lon="10.523899"><ele>1370.0</ele><time>2026-04-25T07:50:33.551Z</time></trkpt><trkpt lat="46.2563698" lon="10.5237585"><ele>1370.0</ele><time>2026-04-25T07:50:34.573Z</time></trkpt><trkpt lat="46.2564937" lon="10.5235961"><ele>1370.0</ele><time>2026-04-25T07:50:35.542Z</time></trkpt><trkpt lat="46.2566172" lon="10.5234112"><ele>1370.0</ele><time>2026-04-25T07:50:36.523Z</time></trkpt><trkpt lat="46.2567427" lon="10.5231921"><ele>1370.0</ele><time>2026-04-25T07:50:37.557Z</time></trkpt><trkpt lat="46.2568582" lon="10.5229646"><ele>1370.0</ele><time>2026-04-25T07:50:38.547Z</time></trkpt><trkpt lat="46.2569777" lon="10.5227273"><ele>1370.0</ele><time>2026-04-25T07:50:39.563Z</time></trkpt><trkpt lat="46.2571031" lon="10.5225181"><ele>1367.3333333333335</ele><time>2026-04-25T07:50:40.524Z</time></trkpt><trkpt lat="46.2572384" lon="10.5223358"><ele>1364.6666666666667</ele><time>2026-04-25T07:50:41.529Z</time></trkpt><trkpt lat="46.257365" lon="10.5221685"><ele>1362.0</ele><time>2026-04-25T07:50:42.564Z</time></trkpt><trkpt lat="46.2574708" lon="10.5220177"><ele>1362.0</ele><time>2026-04-25T07:50:43.567Z</time></trkpt><trkpt lat="46.2575434" lon="10.5218752"><ele>1362.0</ele><time>2026-04-25T07:50:44.533Z</time></trkpt><trkpt lat="46.2576055" lon="10.5217183"><ele>1362.0</ele><time>2026-04-25T07:50:45.557Z</time></trkpt><trkpt lat="46.2576694" lon="10.5215776"><ele>1362.0</ele><time>2026-04-25T07:50:46.533Z</time></trkpt><trkpt lat="46.2577638" lon="10.5214465"><ele>1362.0</ele><time>2026-04-25T07:50:47.548Z</time></trkpt><trkpt lat="46.2578689" lon="10.5213491"><ele>1362.0</ele><time>2026-04-25T07:50:48.555Z</time></trkpt><trkpt lat="46.2579606" lon="10.5212726"><ele>1362.0</ele><time>2026-04-25T07:50:49.554Z</time></trkpt><trkpt lat="46.2580389" lon="10.5212061"><ele>1362.0</ele><time>2026-04-25T07:50:50.542Z</time></trkpt><trkpt lat="46.2581176" lon="10.5211341"><ele>1362.0</ele><time>2026-04-25T07:50:51.543Z</time></trkpt><trkpt lat="46.2581865" lon="10.5210589"><ele>1364.6666666666667</ele><time>2026-04-25T07:50:52.537Z</time></trkpt><trkpt lat="46.2582451" lon="10.5209602"><ele>1367.3333333333333</ele><time>2026-04-25T07:50:53.544Z</time></trkpt><trkpt lat="46.2582952" lon="10.5208592"><ele>1370.0</ele><time>2026-04-25T07:50:54.528Z</time></trkpt><trkpt lat="46.2583408" lon="10.5207767"><ele>1372.6666666666665</ele><time>2026-04-25T07:50:55.541Z</time></trkpt><trkpt lat="46.2583827" lon="10.5207079"><ele>1375.3333333333333</ele><time>2026-04-25T07:50:56.549Z</time></trkpt><trkpt lat="46.2584702" lon="10.5206082"><ele>1378.0</ele><time>2026-04-25T07:50:58.557Z</time></trkpt><trkpt lat="46.2585832" lon="10.5206361"><ele>1378.0</ele><time>2026-04-25T07:51:00.535Z</time></trkpt><trkpt lat="46.2586227" lon="10.5207239"><ele>1378.0</ele><time>2026-04-25T07:51:01.545Z</time></trkpt><trkpt lat="46.258622" lon="10.5208311"><ele>1378.0</ele><time>2026-04-25T07:51:02.57Z</time></trkpt><trkpt lat="46.2585756" lon="10.5209109"><ele>1378.0</ele><time>2026-04-25T07:51:03.544Z</time></trkpt><trkpt lat="46.2585031" lon="10.5209544"><ele>1378.0</ele><time>2026-04-25T07:51:04.549Z</time></trkpt><trkpt lat="46.2584217" lon="10.5209938"><ele>1378.0</ele><time>2026-04-25T07:51:05.542Z</time></trkpt><trkpt lat="46.2583422" lon="10.5210488"><ele>1378.0</ele><time>2026-04-25T07:51:06.558Z</time></trkpt><trkpt lat="46.2582742" lon="10.5211391"><ele>1378.0</ele><time>2026-04-25T07:51:07.545Z</time></trkpt><trkpt lat="46.2582005" lon="10.5212768"><ele>1378.0</ele><time>2026-04-25T07:51:08.567Z</time></trkpt><trkpt lat="46.2581215" lon="10.5214297"><ele>1378.0</ele><time>2026-04-25T07:51:09.557Z</time></trkpt><trkpt lat="46.258031" lon="10.5216062"><ele>1381.3333333333333</ele><time>2026-04-25T07:51:10.555Z</time></trkpt><trkpt lat="46.2579178" lon="10.521792"><ele>1384.6666666666667</ele><time>2026-04-25T07:51:11.563Z</time></trkpt><trkpt lat="46.2577985" lon="10.521981"><ele>1388.0</ele><time>2026-04-25T07:51:12.545Z</time></trkpt><trkpt lat="46.2576937" lon="10.5221972"><ele>1388.0</ele><time>2026-04-25T07:51:13.559Z</time></trkpt><trkpt lat="46.2575986" lon="10.5224024"><ele>1388.0</ele><time>2026-04-25T07:51:14.542Z</time></trkpt><trkpt lat="46.2574997" lon="10.5225893"><ele>1388.0</ele><time>2026-04-25T07:51:15.537Z</time></trkpt><trkpt lat="46.2574041" lon="10.5227667"><ele>1383.5</ele><time>2026-04-25T07:51:16.558Z</time></trkpt><trkpt lat="46.2573218" lon="10.5229385"><ele>1379.0</ele><time>2026-04-25T07:51:17.545Z</time></trkpt><trkpt lat="46.2572509" lon="10.5230919"><ele>1374.5</ele><time>2026-04-25T07:51:18.539Z</time></trkpt><trkpt lat="46.2571925" lon="10.5232275"><ele>1370.0</ele><time>2026-04-25T07:51:19.542Z</time></trkpt><trkpt lat="46.2571499" lon="10.5233471"><ele>1370.0</ele><time>2026-04-25T07:51:20.518Z</time></trkpt><trkpt lat="46.2571082" lon="10.5234619"><ele>1370.0</ele><time>2026-04-25T07:51:21.556Z</time></trkpt><trkpt lat="46.2570702" lon="10.5235524"><ele>1370.0</ele><time>2026-04-25T07:51:22.553Z</time></trkpt><trkpt lat="46.257033" lon="10.5236284"><ele>1370.0</ele><time>2026-04-25T07:51:23.554Z</time></trkpt><trkpt lat="46.2569803" lon="10.5237538"><ele>1370.0</ele><time>2026-04-25T07:51:25.553Z</time></trkpt><trkpt lat="46.2569756" lon="10.5238789"><ele>1370.0</ele><time>2026-04-25T07:51:27.547Z</time></trkpt><trkpt lat="46.2570544" lon="10.523941"><ele>1370.0</ele><time>2026-04-25T07:51:29.521Z</time></trkpt><trkpt lat="46.2571489" lon="10.5238337"><ele>1370.0</ele><time>2026-04-25T07:51:31.559Z</time></trkpt><trkpt lat="46.2571708" lon="10.5237261"><ele>1370.0</ele><time>2026-04-25T07:51:32.548Z</time></trkpt><trkpt lat="46.2572053" lon="10.5235835"><ele>1370.0</ele><time>2026-04-25T07:51:33.54Z</time></trkpt><trkpt lat="46.2572595" lon="10.523429"><ele>1370.0</ele><time>2026-04-25T07:51:34.546Z</time></trkpt><trkpt lat="46.2573417" lon="10.5232792"><ele>1376.0</ele><time>2026-04-25T07:51:35.548Z</time></trkpt><trkpt lat="46.2574454" lon="10.523122"><ele>1382.0</ele><time>2026-04-25T07:51:36.531Z</time></trkpt><trkpt lat="46.2575673" lon="10.5229465"><ele>1388.0</ele><time>2026-04-25T07:51:37.557Z</time></trkpt><trkpt lat="46.2576927" lon="10.5227765"><ele>1388.0</ele><time>2026-04-25T07:51:38.56Z</time></trkpt><trkpt lat="46.2578194" lon="10.5226082"><ele>1388.0</ele><time>2026-04-25T07:51:39.532Z</time></trkpt><trkpt lat="46.257936" lon="10.5224451"><ele>1388.0</ele><time>2026-04-25T07:51:40.528Z</time></trkpt><trkpt lat="46.2580396" lon="10.5222878"><ele>1393.25</ele><time>2026-04-25T07:51:41.538Z</time></trkpt><trkpt lat="46.2581442" lon="10.5221365"><ele>1398.5</ele><time>2026-04-25T07:51:42.545Z</time></trkpt><trkpt lat="46.2582569" lon="10.5219968"><ele>1403.75</ele><time>2026-04-25T07:51:43.542Z</time></trkpt><trkpt lat="46.2583798" lon="10.5218746"><ele>1409.0</ele><time>2026-04-25T07:51:44.557Z</time></trkpt><trkpt lat="46.2585141" lon="10.5217741"><ele>1409.0</ele><time>2026-04-25T07:51:45.544Z</time></trkpt><trkpt lat="46.2586537" lon="10.5216803"><ele>1409.0</ele><time>2026-04-25T07:51:46.552Z</time></trkpt><trkpt lat="46.2587764" lon="10.5215678"><ele>1409.0</ele><time>2026-04-25T07:51:47.539Z</time></trkpt><trkpt lat="46.2589048" lon="10.5214359"><ele>1411.3333333333335</ele><time>2026-04-25T07:51:48.56Z</time></trkpt><trkpt lat="46.2590245" lon="10.5212905"><ele>1413.6666666666667</ele><time>2026-04-25T07:51:49.54Z</time></trkpt><trkpt lat="46.2591417" lon="10.5211389"><ele>1416.0</ele><time>2026-04-25T07:51:50.489Z</time></trkpt><trkpt lat="46.2592756" lon="10.5209841"><ele>1416.0</ele><time>2026-04-25T07:51:51.522Z</time></trkpt><trkpt lat="46.2594262" lon="10.5208404"><ele>1416.0</ele><time>2026-04-25T07:51:52.557Z</time></trkpt><trkpt lat="46.2595836" lon="10.5207179"><ele>1416.0</ele><time>2026-04-25T07:51:53.544Z</time></trkpt><trkpt lat="46.2597416" lon="10.5205974"><ele>1417.3333333333333</ele><time>2026-04-25T07:51:54.517Z</time></trkpt><trkpt lat="46.2599081" lon="10.5204713"><ele>1418.6666666666665</ele><time>2026-04-25T07:51:55.524Z</time></trkpt><trkpt lat="46.2600726" lon="10.5203521"><ele>1420.0</ele><time>2026-04-25T07:51:56.521Z</time></trkpt><trkpt lat="46.2602434" lon="10.5202504"><ele>1420.0</ele><time>2026-04-25T07:51:57.55Z</time></trkpt><trkpt lat="46.2604102" lon="10.5201947"><ele>1420.0</ele><time>2026-04-25T07:51:58.527Z</time></trkpt><trkpt lat="46.2605872" lon="10.5201609"><ele>1420.0</ele><time>2026-04-25T07:51:59.548Z</time></trkpt><trkpt lat="46.2607506" lon="10.5201472"><ele>1430.0</ele><time>2026-04-25T07:52:00.528Z</time></trkpt><trkpt lat="46.2609142" lon="10.5201549"><ele>1440.0</ele><time>2026-04-25T07:52:01.55Z</time></trkpt><trkpt lat="46.2610712" lon="10.5202024"><ele>1450.0</ele><time>2026-04-25T07:52:02.531Z</time></trkpt><trkpt lat="46.2612368" lon="10.5202844"><ele>1450.0</ele><time>2026-04-25T07:52:03.524Z</time></trkpt><trkpt lat="46.2614173" lon="10.520374"><ele>1450.0</ele><time>2026-04-25T07:52:04.529Z</time></trkpt><trkpt lat="46.2616041" lon="10.5204664"><ele>1450.0</ele><time>2026-04-25T07:52:05.548Z</time></trkpt><trkpt lat="46.2617954" lon="10.5205642"><ele>1456.0</ele><time>2026-04-25T07:52:06.545Z</time></trkpt><trkpt lat="46.2619818" lon="10.5206646"><ele>1462.0</ele><time>2026-04-25T07:52:07.556Z</time></trkpt><trkpt lat="46.2621678" lon="10.5207619"><ele>1468.0</ele><time>2026-04-25T07:52:08.549Z</time></trkpt><trkpt lat="46.2623501" lon="10.5208606"><ele>1468.0</ele><time>2026-04-25T07:52:09.544Z</time></trkpt><trkpt lat="46.2625149" lon="10.5209433"><ele>1468.0</ele><time>2026-04-25T07:52:10.545Z</time></trkpt><trkpt lat="46.2626694" lon="10.5210298"><ele>1468.0</ele><time>2026-04-25T07:52:11.556Z</time></trkpt><trkpt lat="46.2628194" lon="10.521111"><ele>1468.0</ele><time>2026-04-25T07:52:12.546Z</time></trkpt><trkpt lat="46.2629713" lon="10.521192"><ele>1468.0</ele><time>2026-04-25T07:52:13.559Z</time></trkpt><trkpt lat="46.2631191" lon="10.5212671"><ele>1468.0</ele><time>2026-04-25T07:52:14.571Z</time></trkpt><trkpt lat="46.2632635" lon="10.5213355"><ele>1473.0</ele><time>2026-04-25T07:52:15.56Z</time></trkpt><trkpt lat="46.263397" lon="10.5213992"><ele>1478.0</ele><time>2026-04-25T07:52:16.544Z</time></trkpt><trkpt lat="46.2635111" lon="10.5214538"><ele>1483.0</ele><time>2026-04-25T07:52:17.525Z</time></trkpt><trkpt lat="46.2636156" lon="10.5215104"><ele>1488.0</ele><time>2026-04-25T07:52:18.563Z</time></trkpt><trkpt lat="46.2636954" lon="10.5215584"><ele>1488.0</ele><time>2026-04-25T07:52:19.546Z</time></trkpt><trkpt lat="46.263767" lon="10.5216018"><ele>1488.0</ele><time>2026-04-25T07:52:20.565Z</time></trkpt><trkpt lat="46.2638326" lon="10.5216293"><ele>1488.0</ele><time>2026-04-25T07:52:21.566Z</time></trkpt><trkpt lat="46.2638952" lon="10.521653"><ele>1488.0</ele><time>2026-04-25T07:52:22.558Z</time></trkpt><trkpt lat="46.2640015" lon="10.5217043"><ele>1488.0</ele><time>2026-04-25T07:52:24.545Z</time></trkpt><trkpt lat="46.264055" lon="10.5218058"><ele>1488.0</ele><time>2026-04-25T07:52:26.559Z</time></trkpt><trkpt lat="46.2640031" lon="10.5218743"><ele>1488.0</ele><time>2026-04-25T07:52:28.535Z</time></trkpt><trkpt lat="46.2638829" lon="10.5217564"><ele>1488.0</ele><time>2026-04-25T07:52:30.554Z</time></trkpt><trkpt lat="46.2637953" lon="10.5216813"><ele>1488.0</ele><time>2026-04-25T07:52:31.539Z</time></trkpt><trkpt lat="46.2636782" lon="10.5216127"><ele>1488.0</ele><time>2026-04-25T07:52:32.55Z</time></trkpt><trkpt lat="46.2635165" lon="10.5215518"><ele>1488.0</ele><time>2026-04-25T07:52:33.559Z</time></trkpt><trkpt lat="46.2633372" lon="10.5215022"><ele>1488.0</ele><time>2026-04-25T07:52:34.56Z</time></trkpt><trkpt lat="46.263143" lon="10.5214544"><ele>1488.0</ele><time>2026-04-25T07:52:35.55Z</time></trkpt><trkpt lat="46.2629569" lon="10.5214033"><ele>1497.0</ele><time>2026-04-25T07:52:36.565Z</time></trkpt><trkpt lat="46.262788" lon="10.5213642"><ele>1506.0</ele><time>2026-04-25T07:52:37.561Z</time></trkpt><trkpt lat="46.2626204" lon="10.5213204"><ele>1515.0</ele><time>2026-04-25T07:52:38.553Z</time></trkpt><trkpt lat="46.2624631" lon="10.5212625"><ele>1506.75</ele><time>2026-04-25T07:52:39.572Z</time></trkpt><trkpt lat="46.2623145" lon="10.5211965"><ele>1498.5</ele><time>2026-04-25T07:52:40.547Z</time></trkpt><trkpt lat="46.2621693" lon="10.5211227"><ele>1490.25</ele><time>2026-04-25T07:52:41.563Z</time></trkpt><trkpt lat="46.2620355" lon="10.5210777"><ele>1482.0</ele><time>2026-04-25T07:52:42.539Z</time></trkpt><trkpt lat="46.2618949" lon="10.5210501"><ele>1482.0</ele><time>2026-04-25T07:52:43.559Z</time></trkpt><trkpt lat="46.2617725" lon="10.5210379"><ele>1482.0</ele><time>2026-04-25T07:52:44.527Z</time></trkpt><trkpt lat="46.2616414" lon="10.5210174"><ele>1482.0</ele><time>2026-04-25T07:52:45.548Z</time></trkpt><trkpt lat="46.2615185" lon="10.5209777"><ele>1482.0</ele><time>2026-04-25T07:52:46.539Z</time></trkpt><trkpt lat="46.2614094" lon="10.5209118"><ele>1483.8</ele><time>2026-04-25T07:52:47.553Z</time></trkpt><trkpt lat="46.2613077" lon="10.5208456"><ele>1485.6</ele><time>2026-04-25T07:52:48.556Z</time></trkpt><trkpt lat="46.2612098" lon="10.5208046"><ele>1487.3999999999999</ele><time>2026-04-25T07:52:49.534Z</time></trkpt><trkpt lat="46.2610987" lon="10.5207938"><ele>1489.1999999999998</ele><time>2026-04-25T07:52:50.552Z</time></trkpt><trkpt lat="46.2609855" lon="10.5208102"><ele>1491.0</ele><time>2026-04-25T07:52:51.54Z</time></trkpt><trkpt lat="46.2608641" lon="10.5208579"><ele>1491.0</ele><time>2026-04-25T07:52:52.509Z</time></trkpt><trkpt lat="46.2607297" lon="10.5209177"><ele>1491.0</ele><time>2026-04-25T07:52:53.517Z</time></trkpt><trkpt lat="46.2605933" lon="10.520976"><ele>1491.0</ele><time>2026-04-25T07:52:54.533Z</time></trkpt><trkpt lat="46.2604636" lon="10.5210236"><ele>1491.0</ele><time>2026-04-25T07:52:55.52Z</time></trkpt><trkpt lat="46.2603505" lon="10.5210718"><ele>1493.75</ele><time>2026-04-25T07:52:56.56Z</time></trkpt><trkpt lat="46.2602377" lon="10.5211421"><ele>1496.5</ele><time>2026-04-25T07:52:57.565Z</time></trkpt><trkpt lat="46.2601433" lon="10.5212305"><ele>1499.25</ele><time>2026-04-25T07:52:58.53Z</time></trkpt><trkpt lat="46.2600573" lon="10.5213396"><ele>1502.0</ele><time>2026-04-25T07:52:59.534Z</time></trkpt><trkpt lat="46.2599676" lon="10.5214792"><ele>1502.0</ele><time>2026-04-25T07:53:00.56Z</time></trkpt><trkpt lat="46.259879" lon="10.5216199"><ele>1502.0</ele><time>2026-04-25T07:53:01.541Z</time></trkpt><trkpt lat="46.2597864" lon="10.5217773"><ele>1502.0</ele><time>2026-04-25T07:53:02.547Z</time></trkpt><trkpt lat="46.259691" lon="10.5219487"><ele>1502.0</ele><time>2026-04-25T07:53:03.552Z</time></trkpt><trkpt lat="46.2595845" lon="10.5221298"><ele>1498.6666666666667</ele><time>2026-04-25T07:53:04.556Z</time></trkpt><trkpt lat="46.2594664" lon="10.5223045"><ele>1495.3333333333333</ele><time>2026-04-25T07:53:05.543Z</time></trkpt><trkpt lat="46.2593423" lon="10.5225133"><ele>1492.0</ele><time>2026-04-25T07:53:06.543Z</time></trkpt><trkpt lat="46.2592163" lon="10.5227177"><ele>1485.3333333333333</ele><time>2026-04-25T07:53:07.551Z</time></trkpt><trkpt lat="46.2591038" lon="10.5229074"><ele>1478.6666666666667</ele><time>2026-04-25T07:53:08.538Z</time></trkpt><trkpt lat="46.2590023" lon="10.5230768"><ele>1472.0</ele><time>2026-04-25T07:53:09.545Z</time></trkpt><trkpt lat="46.2589106" lon="10.5232183"><ele>1472.0</ele><time>2026-04-25T07:53:10.549Z</time></trkpt><trkpt lat="46.2588266" lon="10.5233516"><ele>1472.0</ele><time>2026-04-25T07:53:11.554Z</time></trkpt><trkpt lat="46.2587545" lon="10.5234842"><ele>1472.0</ele><time>2026-04-25T07:53:12.536Z</time></trkpt><trkpt lat="46.2586988" lon="10.5236413"><ele>1472.0</ele><time>2026-04-25T07:53:13.548Z</time></trkpt><trkpt lat="46.258659" lon="10.5238234"><ele>1479.6666666666667</ele><time>2026-04-25T07:53:14.56Z</time></trkpt><trkpt lat="46.2586409" lon="10.5240287"><ele>1487.3333333333333</ele><time>2026-04-25T07:53:15.543Z</time></trkpt><trkpt lat="46.2586297" lon="10.5242573"><ele>1495.0</ele><time>2026-04-25T07:53:16.56Z</time></trkpt><trkpt lat="46.2586055" lon="10.5244869"><ele>1500.5</ele><time>2026-04-25T07:53:17.548Z</time></trkpt><trkpt lat="46.2585653" lon="10.5246977"><ele>1506.0</ele><time>2026-04-25T07:53:18.569Z</time></trkpt><trkpt lat="46.2585262" lon="10.5248844"><ele>1511.5</ele><time>2026-04-25T07:53:19.554Z</time></trkpt><trkpt lat="46.2584911" lon="10.525069"><ele>1517.0</ele><time>2026-04-25T07:53:20.555Z</time></trkpt><trkpt lat="46.2584519" lon="10.5252455"><ele>1518.8</ele><time>2026-04-25T07:53:21.557Z</time></trkpt><trkpt lat="46.2584093" lon="10.5254085"><ele>1520.6</ele><time>2026-04-25T07:53:22.548Z</time></trkpt><trkpt lat="46.2583734" lon="10.5255646"><ele>1522.3999999999999</ele><time>2026-04-25T07:53:23.555Z</time></trkpt><trkpt lat="46.2583413" lon="10.5256991"><ele>1524.1999999999998</ele><time>2026-04-25T07:53:24.533Z</time></trkpt><trkpt lat="46.258332" lon="10.5258359"><ele>1526.0</ele><time>2026-04-25T07:53:25.558Z</time></trkpt><trkpt lat="46.2583518" lon="10.525969"><ele>1526.0</ele><time>2026-04-25T07:53:26.545Z</time></trkpt><trkpt lat="46.2583843" lon="10.5261136"><ele>1526.0</ele><time>2026-04-25T07:53:27.534Z</time></trkpt><trkpt lat="46.2584012" lon="10.5262655"><ele>1526.0</ele><time>2026-04-25T07:53:28.557Z</time></trkpt><trkpt lat="46.2584032" lon="10.526419"><ele>1526.0</ele><time>2026-04-25T07:53:29.572Z</time></trkpt><trkpt lat="46.258405" lon="10.5265589"><ele>1526.0</ele><time>2026-04-25T07:53:30.534Z</time></trkpt><trkpt lat="46.2584186" lon="10.5267023"><ele>1527.5</ele><time>2026-04-25T07:53:31.565Z</time></trkpt><trkpt lat="46.2584447" lon="10.5268213"><ele>1529.0</ele><time>2026-04-25T07:53:32.56Z</time></trkpt><trkpt lat="46.2584722" lon="10.5269225"><ele>1530.5</ele><time>2026-04-25T07:53:33.534Z</time></trkpt><trkpt lat="46.2584922" lon="10.5270281"><ele>1532.0</ele><time>2026-04-25T07:53:34.556Z</time></trkpt><trkpt lat="46.2584885" lon="10.5271212"><ele>1533.5</ele><time>2026-04-25T07:53:35.552Z</time></trkpt><trkpt lat="46.2584583" lon="10.527215"><ele>1535.0</ele><time>2026-04-25T07:53:36.553Z</time></trkpt><trkpt lat="46.2584012" lon="10.5272958"><ele>1539.75</ele><time>2026-04-25T07:53:37.558Z</time></trkpt><trkpt lat="46.2583196" lon="10.5273463"><ele>1544.5</ele><time>2026-04-25T07:53:38.56Z</time></trkpt><trkpt lat="46.2582156" lon="10.5273628"><ele>1549.25</ele><time>2026-04-25T07:53:39.545Z</time></trkpt><trkpt lat="46.258088" lon="10.5273364"><ele>1554.0</ele><time>2026-04-25T07:53:40.556Z</time></trkpt><trkpt lat="46.2579623" lon="10.5272954"><ele>1554.0</ele><time>2026-04-25T07:53:41.559Z</time></trkpt><trkpt lat="46.2578309" lon="10.5272688"><ele>1554.0</ele><time>2026-04-25T07:53:42.55Z</time></trkpt><trkpt lat="46.2576829" lon="10.527247"><ele>1554.0</ele><time>2026-04-25T07:53:43.549Z</time></trkpt><trkpt lat="46.2575323" lon="10.5272278"><ele>1554.0</ele><time>2026-04-25T07:53:44.561Z</time></trkpt><trkpt lat="46.2573936" lon="10.5272145"><ele>1552.25</ele><time>2026-04-25T07:53:45.544Z</time></trkpt><trkpt lat="46.2572502" lon="10.5272198"><ele>1550.5</ele><time>2026-04-25T07:53:46.527Z</time></trkpt><trkpt lat="46.2571052" lon="10.5272361"><ele>1548.75</ele><time>2026-04-25T07:53:47.567Z</time></trkpt><trkpt lat="46.2569782" lon="10.5272585"><ele>1547.0</ele><time>2026-04-25T07:53:48.557Z</time></trkpt><trkpt lat="46.2568606" lon="10.5272817"><ele>1546.9999999999998</ele><time>2026-04-25T07:53:49.557Z</time></trkpt><trkpt lat="46.256758" lon="10.5273067"><ele>1547.0</ele><time>2026-04-25T07:53:50.562Z</time></trkpt><trkpt lat="46.2566811" lon="10.5273338"><ele>1547.0</ele><time>2026-04-25T07:53:51.549Z</time></trkpt><trkpt lat="46.256622" lon="10.527371"><ele>1547.0</ele><time>2026-04-25T07:53:52.537Z</time></trkpt><trkpt lat="46.2565633" lon="10.5275275"><ele>1546.9999999999998</ele><time>2026-04-25T07:53:54.556Z</time></trkpt><trkpt lat="46.2565422" lon="10.5276242"><ele>1547.0</ele><time>2026-04-25T07:53:55.544Z</time></trkpt><trkpt lat="46.2565234" lon="10.5277145"><ele>1550.0</ele><time>2026-04-25T07:53:56.544Z</time></trkpt><trkpt lat="46.2564372" lon="10.5278681"><ele>1553.0</ele><time>2026-04-25T07:53:58.547Z</time></trkpt><trkpt lat="46.2563633" lon="10.5279429"><ele>1556.0</ele><time>2026-04-25T07:53:59.557Z</time></trkpt><trkpt lat="46.2562745" lon="10.5280101"><ele>1559.0</ele><time>2026-04-25T07:54:00.559Z</time></trkpt><trkpt lat="46.256181" lon="10.5280791"><ele>1562.0</ele><time>2026-04-25T07:54:01.545Z</time></trkpt><trkpt lat="46.2560863" lon="10.5281478"><ele>1562.0</ele><time>2026-04-25T07:54:02.515Z</time></trkpt><trkpt lat="46.2559822" lon="10.5282291"><ele>1562.0</ele><time>2026-04-25T07:54:03.532Z</time></trkpt><trkpt lat="46.2558783" lon="10.528283"><ele>1562.0</ele><time>2026-04-25T07:54:04.55Z</time></trkpt><trkpt lat="46.2557749" lon="10.5282849"><ele>1562.0</ele><time>2026-04-25T07:54:05.542Z</time></trkpt><trkpt lat="46.2556766" lon="10.5282546"><ele>1562.0</ele><time>2026-04-25T07:54:06.534Z</time></trkpt><trkpt lat="46.2555925" lon="10.5282153"><ele>1556.6</ele><time>2026-04-25T07:54:07.554Z</time></trkpt><trkpt lat="46.2555217" lon="10.5281987"><ele>1551.1999999999998</ele><time>2026-04-25T07:54:08.551Z</time></trkpt><trkpt lat="46.2554001" lon="10.5282961"><ele>1545.8</ele><time>2026-04-25T07:54:10.542Z</time></trkpt><trkpt lat="46.255336" lon="10.5283878"><ele>1540.4</ele><time>2026-04-25T07:54:11.55Z</time></trkpt><trkpt lat="46.2552745" lon="10.5284992"><ele>1535.0</ele><time>2026-04-25T07:54:12.55Z</time></trkpt><trkpt lat="46.2552234" lon="10.5286331"><ele>1541.4</ele><time>2026-04-25T07:54:13.552Z</time></trkpt><trkpt lat="46.2551767" lon="10.5287708"><ele>1547.8</ele><time>2026-04-25T07:54:14.552Z</time></trkpt><trkpt lat="46.2551336" lon="10.5289156"><ele>1554.1999999999998</ele><time>2026-04-25T07:54:15.537Z</time></trkpt><trkpt lat="46.2551088" lon="10.5290464"><ele>1560.6</ele><time>2026-04-25T07:54:16.553Z</time></trkpt><trkpt lat="46.2550842" lon="10.5291651"><ele>1567.0</ele><time>2026-04-25T07:54:17.554Z</time></trkpt><trkpt lat="46.2550465" lon="10.5292943"><ele>1567.0</ele><time>2026-04-25T07:54:18.55Z</time></trkpt><trkpt lat="46.2550067" lon="10.5294054"><ele>1567.0</ele><time>2026-04-25T07:54:19.56Z</time></trkpt><trkpt lat="46.2549336" lon="10.5294661"><ele>1567.0</ele><time>2026-04-25T07:54:20.554Z</time></trkpt><trkpt lat="46.2548412" lon="10.5295083"><ele>1567.0</ele><time>2026-04-25T07:54:21.55Z</time></trkpt><trkpt lat="46.2547424" lon="10.5295207"><ele>1567.0</ele><time>2026-04-25T07:54:22.504Z</time></trkpt><trkpt lat="46.2546473" lon="10.5295316"><ele>1566.0</ele><time>2026-04-25T07:54:23.524Z</time></trkpt><trkpt lat="46.2545566" lon="10.5295519"><ele>1565.0</ele><time>2026-04-25T07:54:24.542Z</time></trkpt><trkpt lat="46.2544644" lon="10.5296112"><ele>1564.0</ele><time>2026-04-25T07:54:25.539Z</time></trkpt><trkpt lat="46.2543919" lon="10.5297094"><ele>1563.0</ele><time>2026-04-25T07:54:26.557Z</time></trkpt><trkpt lat="46.2543268" lon="10.52984"><ele>1562.0</ele><time>2026-04-25T07:54:27.536Z</time></trkpt><trkpt lat="46.2542707" lon="10.5300135"><ele>1562.0</ele><time>2026-04-25T07:54:28.548Z</time></trkpt><trkpt lat="46.2542063" lon="10.530215"><ele>1562.0</ele><time>2026-04-25T07:54:29.541Z</time></trkpt><trkpt lat="46.2541299" lon="10.5304429"><ele>1562.0</ele><time>2026-04-25T07:54:30.567Z</time></trkpt><trkpt lat="46.2540613" lon="10.5306667"><ele>1558.3333333333333</ele><time>2026-04-25T07:54:31.524Z</time></trkpt><trkpt lat="46.2539951" lon="10.5309117"><ele>1554.6666666666665</ele><time>2026-04-25T07:54:32.549Z</time></trkpt><trkpt lat="46.2539377" lon="10.5311728"><ele>1551.0</ele><time>2026-04-25T07:54:33.557Z</time></trkpt><trkpt lat="46.2538774" lon="10.5314138"><ele>1551.0</ele><time>2026-04-25T07:54:34.566Z</time></trkpt><trkpt lat="46.2538161" lon="10.5316236"><ele>1551.0</ele><time>2026-04-25T07:54:35.546Z</time></trkpt><trkpt lat="46.2537574" lon="10.531808"><ele>1551.0</ele><time>2026-04-25T07:54:36.551Z</time></trkpt><trkpt lat="46.2537031" lon="10.5319958"><ele>1551.0</ele><time>2026-04-25T07:54:37.548Z</time></trkpt><trkpt lat="46.2536658" lon="10.5321932"><ele>1553.75</ele><time>2026-04-25T07:54:38.56Z</time></trkpt><trkpt lat="46.2536372" lon="10.532392"><ele>1556.5</ele><time>2026-04-25T07:54:39.524Z</time></trkpt><trkpt lat="46.2536019" lon="10.5325914"><ele>1559.25</ele><time>2026-04-25T07:54:40.535Z</time></trkpt><trkpt lat="46.2535616" lon="10.5328044"><ele>1562.0</ele><time>2026-04-25T07:54:41.55Z</time></trkpt><trkpt lat="46.2535268" lon="10.5330102"><ele>1563.5</ele><time>2026-04-25T07:54:42.536Z</time></trkpt><trkpt lat="46.2535012" lon="10.5331978"><ele>1565.0</ele><time>2026-04-25T07:54:43.521Z</time></trkpt><trkpt lat="46.2534746" lon="10.5333894"><ele>1566.5</ele><time>2026-04-25T07:54:44.561Z</time></trkpt><trkpt lat="46.2534499" lon="10.5335649"><ele>1568.0</ele><time>2026-04-25T07:54:45.548Z</time></trkpt><trkpt lat="46.2534364" lon="10.5337264"><ele>1569.6000000000001</ele><time>2026-04-25T07:54:46.56Z</time></trkpt><trkpt lat="46.2534504" lon="10.5338775"><ele>1571.2</ele><time>2026-04-25T07:54:47.553Z</time></trkpt><trkpt lat="46.2534857" lon="10.5340325"><ele>1572.8</ele><time>2026-04-25T07:54:48.557Z</time></trkpt><trkpt lat="46.2535207" lon="10.5341712"><ele>1574.4</ele><time>2026-04-25T07:54:49.542Z</time></trkpt><trkpt lat="46.253553" lon="10.5343043"><ele>1576.0</ele><time>2026-04-25T07:54:50.542Z</time></trkpt><trkpt lat="46.2535722" lon="10.5344317"><ele>1581.4</ele><time>2026-04-25T07:54:51.555Z</time></trkpt><trkpt lat="46.2535743" lon="10.5345575"><ele>1586.8</ele><time>2026-04-25T07:54:52.547Z</time></trkpt><trkpt lat="46.2535484" lon="10.5346801"><ele>1592.2</ele><time>2026-04-25T07:54:53.564Z</time></trkpt><trkpt lat="46.2534982" lon="10.5347925"><ele>1597.6000000000001</ele><time>2026-04-25T07:54:54.551Z</time></trkpt><trkpt lat="46.253417" lon="10.5349032"><ele>1603.0</ele><time>2026-04-25T07:54:55.568Z</time></trkpt><trkpt lat="46.2533214" lon="10.5350061"><ele>1603.0</ele><time>2026-04-25T07:54:56.555Z</time></trkpt><trkpt lat="46.2532181" lon="10.5351099"><ele>1603.0</ele><time>2026-04-25T07:54:57.546Z</time></trkpt><trkpt lat="46.2531086" lon="10.5352222"><ele>1603.0</ele><time>2026-04-25T07:54:58.546Z</time></trkpt><trkpt lat="46.2529968" lon="10.5353338"><ele>1603.0</ele><time>2026-04-25T07:54:59.554Z</time></trkpt><trkpt lat="46.2528953" lon="10.535436"><ele>1599.75</ele><time>2026-04-25T07:55:00.568Z</time></trkpt><trkpt lat="46.2527987" lon="10.5355445"><ele>1596.5</ele><time>2026-04-25T07:55:01.555Z</time></trkpt><trkpt lat="46.2527181" lon="10.5356631"><ele>1593.25</ele><time>2026-04-25T07:55:02.54Z</time></trkpt><trkpt lat="46.2526499" lon="10.5357829"><ele>1590.0</ele><time>2026-04-25T07:55:03.537Z</time></trkpt><trkpt lat="46.2526005" lon="10.5359217"><ele>1590.0</ele><time>2026-04-25T07:55:04.562Z</time></trkpt><trkpt lat="46.2525629" lon="10.53607"><ele>1590.0</ele><time>2026-04-25T07:55:05.569Z</time></trkpt><trkpt lat="46.2525497" lon="10.5362341"><ele>1590.0</ele><time>2026-04-25T07:55:06.557Z</time></trkpt><trkpt lat="46.2525318" lon="10.5364123"><ele>1590.0</ele><time>2026-04-25T07:55:07.556Z</time></trkpt><trkpt lat="46.2524963" lon="10.5365818"><ele>1587.0</ele><time>2026-04-25T07:55:08.56Z</time></trkpt><trkpt lat="46.2524324" lon="10.5367236"><ele>1584.0</ele><time>2026-04-25T07:55:09.536Z</time></trkpt><trkpt lat="46.2523657" lon="10.5368707"><ele>1581.0</ele><time>2026-04-25T07:55:10.566Z</time></trkpt><trkpt lat="46.2522931" lon="10.5369999"><ele>1578.0</ele><time>2026-04-25T07:55:11.556Z</time></trkpt><trkpt lat="46.252264" lon="10.5371418"><ele>1578.0</ele><time>2026-04-25T07:55:12.546Z</time></trkpt><trkpt lat="46.2522604" lon="10.5372794"><ele>1578.0</ele><time>2026-04-25T07:55:13.537Z</time></trkpt><trkpt lat="46.2522636" lon="10.5374227"><ele>1578.0</ele><time>2026-04-25T07:55:14.539Z</time></trkpt><trkpt lat="46.2522546" lon="10.5375732"><ele>1578.0</ele><time>2026-04-25T07:55:15.566Z</time></trkpt><trkpt lat="46.2522177" lon="10.5377087"><ele>1578.0</ele><time>2026-04-25T07:55:16.537Z</time></trkpt><trkpt lat="46.2521557" lon="10.5378343"><ele>1579.8333333333333</ele><time>2026-04-25T07:55:17.589Z</time></trkpt><trkpt lat="46.2520977" lon="10.5379447"><ele>1581.6666666666665</ele><time>2026-04-25T07:55:18.545Z</time></trkpt><trkpt lat="46.2520403" lon="10.5380504"><ele>1583.5</ele><time>2026-04-25T07:55:19.546Z</time></trkpt><trkpt lat="46.2520241" lon="10.5381594"><ele>1585.3333333333333</ele><time>2026-04-25T07:55:20.548Z</time></trkpt><trkpt lat="46.2520492" lon="10.5382692"><ele>1587.1666666666665</ele><time>2026-04-25T07:55:21.551Z</time></trkpt><trkpt lat="46.2521078" lon="10.5383772"><ele>1589.0</ele><time>2026-04-25T07:55:22.533Z</time></trkpt><trkpt lat="46.2521763" lon="10.5385053"><ele>1589.0</ele><time>2026-04-25T07:55:23.568Z</time></trkpt><trkpt lat="46.2522279" lon="10.5386359"><ele>1589.0</ele><time>2026-04-25T07:55:24.553Z</time></trkpt><trkpt lat="46.2522521" lon="10.538773"><ele>1589.0</ele><time>2026-04-25T07:55:25.532Z</time></trkpt><trkpt lat="46.2522435" lon="10.5389156"><ele>1589.0</ele><time>2026-04-25T07:55:26.548Z</time></trkpt><trkpt lat="46.2521999" lon="10.5390495"><ele>1589.0</ele><time>2026-04-25T07:55:27.547Z</time></trkpt><trkpt lat="46.2521326" lon="10.5391681"><ele>1590.6</ele><time>2026-04-25T07:55:28.566Z</time></trkpt><trkpt lat="46.2520558" lon="10.5392676"><ele>1592.2</ele><time>2026-04-25T07:55:29.557Z</time></trkpt><trkpt lat="46.2519772" lon="10.5393739"><ele>1593.8</ele><time>2026-04-25T07:55:30.545Z</time></trkpt><trkpt lat="46.2519224" lon="10.5395003"><ele>1595.3999999999999</ele><time>2026-04-25T07:55:31.551Z</time></trkpt><trkpt lat="46.2519006" lon="10.5396587"><ele>1597.0</ele><time>2026-04-25T07:55:32.543Z</time></trkpt><trkpt lat="46.2519008" lon="10.5398306"><ele>1597.5</ele><time>2026-04-25T07:55:33.541Z</time></trkpt><trkpt lat="46.2519279" lon="10.5400188"><ele>1598.0</ele><time>2026-04-25T07:55:34.578Z</time></trkpt><trkpt lat="46.2519741" lon="10.5402106"><ele>1598.5</ele><time>2026-04-25T07:55:35.55Z</time></trkpt><trkpt lat="46.2520332" lon="10.5404203"><ele>1599.0</ele><time>2026-04-25T07:55:36.554Z</time></trkpt><trkpt lat="46.2521012" lon="10.5406424"><ele>1599.0</ele><time>2026-04-25T07:55:37.564Z</time></trkpt><trkpt lat="46.2521696" lon="10.5408758"><ele>1599.0</ele><time>2026-04-25T07:55:38.549Z</time></trkpt><trkpt lat="46.2522526" lon="10.5411109"><ele>1599.0</ele><time>2026-04-25T07:55:39.565Z</time></trkpt><trkpt lat="46.2523376" lon="10.5413387"><ele>1607.0</ele><time>2026-04-25T07:55:40.565Z</time></trkpt><trkpt lat="46.2524143" lon="10.5415411"><ele>1615.0</ele><time>2026-04-25T07:55:41.552Z</time></trkpt><trkpt lat="46.2524816" lon="10.5417414"><ele>1623.0</ele><time>2026-04-25T07:55:42.554Z</time></trkpt><trkpt lat="46.2525392" lon="10.5419382"><ele>1622.75</ele><time>2026-04-25T07:55:43.556Z</time></trkpt><trkpt lat="46.2525807" lon="10.5421289"><ele>1622.5</ele><time>2026-04-25T07:55:44.503Z</time></trkpt><trkpt lat="46.2526126" lon="10.5423452"><ele>1622.25</ele><time>2026-04-25T07:55:45.546Z</time></trkpt><trkpt lat="46.252641" lon="10.5425582"><ele>1622.0</ele><time>2026-04-25T07:55:46.555Z</time></trkpt><trkpt lat="46.2526644" lon="10.5427681"><ele>1624.25</ele><time>2026-04-25T07:55:47.555Z</time></trkpt><trkpt lat="46.2526901" lon="10.5429834"><ele>1626.5</ele><time>2026-04-25T07:55:48.56Z</time></trkpt><trkpt lat="46.2527176" lon="10.5431872"><ele>1628.75</ele><time>2026-04-25T07:55:49.55Z</time></trkpt><trkpt lat="46.2527417" lon="10.5433736"><ele>1631.0</ele><time>2026-04-25T07:55:50.544Z</time></trkpt><trkpt lat="46.2527592" lon="10.5435456"><ele>1630.9999999999998</ele><time>2026-04-25T07:55:51.549Z</time></trkpt><trkpt lat="46.252779" lon="10.5436923"><ele>1631.0</ele><time>2026-04-25T07:55:52.534Z</time></trkpt><trkpt lat="46.252797" lon="10.5438235"><ele>1631.0</ele><time>2026-04-25T07:55:53.565Z</time></trkpt><trkpt lat="46.2528199" lon="10.5439424"><ele>1631.0</ele><time>2026-04-25T07:55:54.537Z</time></trkpt><trkpt lat="46.2528575" lon="10.544057"><ele>1630.9999999999998</ele><time>2026-04-25T07:55:55.572Z</time></trkpt><trkpt lat="46.2529072" lon="10.5441312"><ele>1631.0</ele><time>2026-04-25T07:55:56.553Z</time></trkpt><trkpt lat="46.2529721" lon="10.5441685"><ele>1631.4999999999998</ele><time>2026-04-25T07:55:57.555Z</time></trkpt><trkpt lat="46.2530575" lon="10.5441798"><ele>1632.0</ele><time>2026-04-25T07:55:58.542Z</time></trkpt><trkpt lat="46.2531353" lon="10.5441438"><ele>1632.5</ele><time>2026-04-25T07:55:59.545Z</time></trkpt><trkpt lat="46.2531991" lon="10.5440725"><ele>1633.0</ele><time>2026-04-25T07:56:00.544Z</time></trkpt><trkpt lat="46.2532412" lon="10.5439623"><ele>1633.4999999999998</ele><time>2026-04-25T07:56:01.531Z</time></trkpt><trkpt lat="46.2532574" lon="10.5438194"><ele>1634.0</ele><time>2026-04-25T07:56:02.546Z</time></trkpt><trkpt lat="46.2532495" lon="10.5436471"><ele>1640.6666666666665</ele><time>2026-04-25T07:56:03.531Z</time></trkpt><trkpt lat="46.2532353" lon="10.5434446"><ele>1647.3333333333335</ele><time>2026-04-25T07:56:04.544Z</time></trkpt><trkpt lat="46.2532241" lon="10.543208"><ele>1654.0</ele><time>2026-04-25T07:56:05.548Z</time></trkpt><trkpt lat="46.253216" lon="10.5429661"><ele>1653.6666666666667</ele><time>2026-04-25T07:56:06.533Z</time></trkpt><trkpt lat="46.2532166" lon="10.5427129"><ele>1653.3333333333335</ele><time>2026-04-25T07:56:07.55Z</time></trkpt><trkpt lat="46.2532326" lon="10.5424563"><ele>1653.0</ele><time>2026-04-25T07:56:08.58Z</time></trkpt><trkpt lat="46.2532573" lon="10.5422091"><ele>1653.5</ele><time>2026-04-25T07:56:09.542Z</time></trkpt><trkpt lat="46.2532893" lon="10.541972"><ele>1654.0</ele><time>2026-04-25T07:56:10.539Z</time></trkpt><trkpt lat="46.2533222" lon="10.5417635"><ele>1654.5</ele><time>2026-04-25T07:56:11.548Z</time></trkpt><trkpt lat="46.2533416" lon="10.5415981"><ele>1655.0</ele><time>2026-04-25T07:56:12.556Z</time></trkpt><trkpt lat="46.2533355" lon="10.5414432"><ele>1654.9999999999998</ele><time>2026-04-25T07:56:13.587Z</time></trkpt><trkpt lat="46.2533142" lon="10.5413252"><ele>1655.0</ele><time>2026-04-25T07:56:14.536Z</time></trkpt><trkpt lat="46.2532808" lon="10.5412211"><ele>1655.0</ele><time>2026-04-25T07:56:15.553Z</time></trkpt><trkpt lat="46.2532421" lon="10.541133"><ele>1655.0</ele><time>2026-04-25T07:56:16.574Z</time></trkpt><trkpt lat="46.2531872" lon="10.541008"><ele>1654.9999999999998</ele><time>2026-04-25T07:56:18.552Z</time></trkpt><trkpt lat="46.2531556" lon="10.5409004"><ele>1655.0</ele><time>2026-04-25T07:56:20.521Z</time></trkpt><trkpt lat="46.2532021" lon="10.5407546"><ele>1656.4</ele><time>2026-04-25T07:56:22.567Z</time></trkpt><trkpt lat="46.2532712" lon="10.5407169"><ele>1657.8</ele><time>2026-04-25T07:56:23.547Z</time></trkpt><trkpt lat="46.2533374" lon="10.5407414"><ele>1659.1999999999998</ele><time>2026-04-25T07:56:24.553Z</time></trkpt><trkpt lat="46.2534055" lon="10.5408329"><ele>1660.6</ele><time>2026-04-25T07:56:25.544Z</time></trkpt><trkpt lat="46.253453" lon="10.5409886"><ele>1662.0</ele><time>2026-04-25T07:56:26.56Z</time></trkpt><trkpt lat="46.2534928" lon="10.5411663"><ele>1660.25</ele><time>2026-04-25T07:56:27.57Z</time></trkpt><trkpt lat="46.2535333" lon="10.5413424"><ele>1658.5</ele><time>2026-04-25T07:56:28.566Z</time></trkpt><trkpt lat="46.2535884" lon="10.5415174"><ele>1656.75</ele><time>2026-04-25T07:56:29.542Z</time></trkpt><trkpt lat="46.2536305" lon="10.5417019"><ele>1655.0</ele><time>2026-04-25T07:56:30.546Z</time></trkpt><trkpt lat="46.2536652" lon="10.5418798"><ele>1655.0</ele><time>2026-04-25T07:56:31.538Z</time></trkpt><trkpt lat="46.2536919" lon="10.5420418"><ele>1655.0</ele><time>2026-04-25T07:56:32.53Z</time></trkpt><trkpt lat="46.2537254" lon="10.5421959"><ele>1655.0</ele><time>2026-04-25T07:56:33.56Z</time></trkpt><trkpt lat="46.2537787" lon="10.5423333"><ele>1655.0</ele><time>2026-04-25T07:56:34.572Z</time></trkpt><trkpt lat="46.2538302" lon="10.5424637"><ele>1655.0</ele><time>2026-04-25T07:56:35.541Z</time></trkpt><trkpt lat="46.2538633" lon="10.5426026"><ele>1654.8</ele><time>2026-04-25T07:56:36.539Z</time></trkpt><trkpt lat="46.2538656" lon="10.5427383"><ele>1654.6</ele><time>2026-04-25T07:56:37.544Z</time></trkpt><trkpt lat="46.2538409" lon="10.5428693"><ele>1654.4</ele><time>2026-04-25T07:56:38.567Z</time></trkpt><trkpt lat="46.2537982" lon="10.5430029"><ele>1654.2</ele><time>2026-04-25T07:56:39.559Z</time></trkpt><trkpt lat="46.253759" lon="10.5431149"><ele>1654.0</ele><time>2026-04-25T07:56:40.538Z</time></trkpt><trkpt lat="46.2537299" lon="10.5432422"><ele>1654.0</ele><time>2026-04-25T07:56:41.574Z</time></trkpt><trkpt lat="46.2537182" lon="10.5433621"><ele>1654.0</ele><time>2026-04-25T07:56:42.554Z</time></trkpt><trkpt lat="46.2537233" lon="10.5434819"><ele>1654.0</ele><time>2026-04-25T07:56:43.55Z</time></trkpt><trkpt lat="46.253748" lon="10.5436273"><ele>1654.0</ele><time>2026-04-25T07:56:44.552Z</time></trkpt><trkpt lat="46.2537989" lon="10.5437469"><ele>1654.0</ele><time>2026-04-25T07:56:45.534Z</time></trkpt><trkpt lat="46.2538803" lon="10.5438805"><ele>1665.3333333333335</ele><time>2026-04-25T07:56:46.568Z</time></trkpt><trkpt lat="46.2539817" lon="10.5440297"><ele>1676.6666666666665</ele><time>2026-04-25T07:56:47.545Z</time></trkpt><trkpt lat="46.2540857" lon="10.5441883"><ele>1688.0</ele><time>2026-04-25T07:56:48.558Z</time></trkpt><trkpt lat="46.2541831" lon="10.5443659"><ele>1687.0</ele><time>2026-04-25T07:56:49.55Z</time></trkpt><trkpt lat="46.2542485" lon="10.5445627"><ele>1686.0</ele><time>2026-04-25T07:56:50.562Z</time></trkpt><trkpt lat="46.2542881" lon="10.544761"><ele>1685.0</ele><time>2026-04-25T07:56:51.554Z</time></trkpt><trkpt lat="46.2542999" lon="10.5449463"><ele>1684.0</ele><time>2026-04-25T07:56:52.548Z</time></trkpt><trkpt lat="46.2543034" lon="10.5451196"><ele>1684.0</ele><time>2026-04-25T07:56:53.556Z</time></trkpt><trkpt lat="46.2543027" lon="10.5452753"><ele>1684.0</ele><time>2026-04-25T07:56:54.555Z</time></trkpt><trkpt lat="46.2543234" lon="10.5454156"><ele>1684.0</ele><time>2026-04-25T07:56:55.559Z</time></trkpt><trkpt lat="46.2543607" lon="10.5455314"><ele>1684.0</ele><time>2026-04-25T07:56:56.533Z</time></trkpt><trkpt lat="46.2544184" lon="10.5456412"><ele>1684.0</ele><time>2026-04-25T07:56:57.528Z</time></trkpt><trkpt lat="46.2544909" lon="10.5457716"><ele>1683.75</ele><time>2026-04-25T07:56:58.568Z</time></trkpt><trkpt lat="46.2545621" lon="10.5459152"><ele>1683.5</ele><time>2026-04-25T07:56:59.565Z</time></trkpt><trkpt lat="46.2546142" lon="10.5460811"><ele>1683.25</ele><time>2026-04-25T07:57:00.543Z</time></trkpt><trkpt lat="46.2546138" lon="10.5462537"><ele>1683.0</ele><time>2026-04-25T07:57:01.543Z</time></trkpt><trkpt lat="46.2545813" lon="10.546444"><ele>1683.0</ele><time>2026-04-25T07:57:02.537Z</time></trkpt><trkpt lat="46.2545386" lon="10.546625"><ele>1683.0</ele><time>2026-04-25T07:57:03.574Z</time></trkpt><trkpt lat="46.2545233" lon="10.5467957"><ele>1683.0</ele><time>2026-04-25T07:57:04.522Z</time></trkpt><trkpt lat="46.2545269" lon="10.5469973"><ele>1683.0</ele><time>2026-04-25T07:57:05.54Z</time></trkpt><trkpt lat="46.2545394" lon="10.5472239"><ele>1683.75</ele><time>2026-04-25T07:57:06.569Z</time></trkpt><trkpt lat="46.254567" lon="10.5474491"><ele>1684.5</ele><time>2026-04-25T07:57:07.542Z</time></trkpt><trkpt lat="46.2545835" lon="10.5476709"><ele>1685.25</ele><time>2026-04-25T07:57:08.567Z</time></trkpt><trkpt lat="46.2546055" lon="10.5478585"><ele>1686.0</ele><time>2026-04-25T07:57:09.557Z</time></trkpt><trkpt lat="46.2546353" lon="10.5480591"><ele>1686.75</ele><time>2026-04-25T07:57:10.564Z</time></trkpt><trkpt lat="46.2546602" lon="10.5482383"><ele>1687.5</ele><time>2026-04-25T07:57:11.534Z</time></trkpt><trkpt lat="46.254689" lon="10.5484205"><ele>1688.25</ele><time>2026-04-25T07:57:12.551Z</time></trkpt><trkpt lat="46.2547118" lon="10.5485934"><ele>1689.0</ele><time>2026-04-25T07:57:13.542Z</time></trkpt><trkpt lat="46.2547363" lon="10.5487697"><ele>1690.5</ele><time>2026-04-25T07:57:14.556Z</time></trkpt><trkpt lat="46.2547543" lon="10.5489402"><ele>1692.0</ele><time>2026-04-25T07:57:15.552Z</time></trkpt><trkpt lat="46.2547729" lon="10.5491088"><ele>1693.5</ele><time>2026-04-25T07:57:16.555Z</time></trkpt><trkpt lat="46.2547927" lon="10.5492791"><ele>1695.0</ele><time>2026-04-25T07:57:17.556Z</time></trkpt><trkpt lat="46.2548083" lon="10.5494506"><ele>1702.0</ele><time>2026-04-25T07:57:18.548Z</time></trkpt><trkpt lat="46.2548239" lon="10.5496299"><ele>1709.0</ele><time>2026-04-25T07:57:19.561Z</time></trkpt><trkpt lat="46.2548423" lon="10.5498079"><ele>1716.0</ele><time>2026-04-25T07:57:20.574Z</time></trkpt><trkpt lat="46.2548399" lon="10.5499785"><ele>1723.0</ele><time>2026-04-25T07:57:21.537Z</time></trkpt><trkpt lat="46.2548171" lon="10.550166"><ele>1719.0</ele><time>2026-04-25T07:57:22.552Z</time></trkpt><trkpt lat="46.2547775" lon="10.5503518"><ele>1715.0</ele><time>2026-04-25T07:57:23.571Z</time></trkpt><trkpt lat="46.2547328" lon="10.5505203"><ele>1711.0</ele><time>2026-04-25T07:57:24.552Z</time></trkpt><trkpt lat="46.254688" lon="10.5506885"><ele>1707.0</ele><time>2026-04-25T07:57:25.559Z</time></trkpt><trkpt lat="46.2546498" lon="10.5508612"><ele>1707.0</ele><time>2026-04-25T07:57:26.549Z</time></trkpt><trkpt lat="46.2546158" lon="10.5510343"><ele>1707.0</ele><time>2026-04-25T07:57:27.545Z</time></trkpt><trkpt lat="46.254592" lon="10.5512144"><ele>1707.0</ele><time>2026-04-25T07:57:28.579Z</time></trkpt><trkpt lat="46.2545763" lon="10.5513915"><ele>1707.0</ele><time>2026-04-25T07:57:29.563Z</time></trkpt><trkpt lat="46.2545766" lon="10.5515756"><ele>1708.5</ele><time>2026-04-25T07:57:30.53Z</time></trkpt><trkpt lat="46.2545904" lon="10.5517776"><ele>1710.0</ele><time>2026-04-25T07:57:31.556Z</time></trkpt><trkpt lat="46.2546058" lon="10.5519747"><ele>1711.5</ele><time>2026-04-25T07:57:32.532Z</time></trkpt><trkpt lat="46.2546164" lon="10.5521862"><ele>1713.0</ele><time>2026-04-25T07:57:33.551Z</time></trkpt><trkpt lat="46.2546277" lon="10.5523956"><ele>1713.25</ele><time>2026-04-25T07:57:34.549Z</time></trkpt><trkpt lat="46.2546391" lon="10.5525929"><ele>1713.5</ele><time>2026-04-25T07:57:35.574Z</time></trkpt><trkpt lat="46.2546492" lon="10.5527721"><ele>1713.75</ele><time>2026-04-25T07:57:36.558Z</time></trkpt><trkpt lat="46.2546614" lon="10.5529474"><ele>1714.0</ele><time>2026-04-25T07:57:37.552Z</time></trkpt><trkpt lat="46.2546727" lon="10.5531201"><ele>1714.25</ele><time>2026-04-25T07:57:38.541Z</time></trkpt><trkpt lat="46.2546882" lon="10.553296"><ele>1714.5</ele><time>2026-04-25T07:57:39.554Z</time></trkpt><trkpt lat="46.2547162" lon="10.5534469"><ele>1714.75</ele><time>2026-04-25T07:57:40.529Z</time></trkpt><trkpt lat="46.254768" lon="10.5535801"><ele>1715.0</ele><time>2026-04-25T07:57:41.553Z</time></trkpt><trkpt lat="46.2548503" lon="10.5536973"><ele>1717.75</ele><time>2026-04-25T07:57:42.573Z</time></trkpt><trkpt lat="46.2549493" lon="10.5538225"><ele>1720.5</ele><time>2026-04-25T07:57:43.556Z</time></trkpt><trkpt lat="46.2550521" lon="10.5539528"><ele>1723.25</ele><time>2026-04-25T07:57:44.557Z</time></trkpt><trkpt lat="46.2551592" lon="10.5540716"><ele>1726.0</ele><time>2026-04-25T07:57:45.539Z</time></trkpt><trkpt lat="46.255276" lon="10.5541746"><ele>1726.0</ele><time>2026-04-25T07:57:46.557Z</time></trkpt><trkpt lat="46.2553988" lon="10.5542475"><ele>1726.0</ele><time>2026-04-25T07:57:47.547Z</time></trkpt><trkpt lat="46.2555293" lon="10.5543176"><ele>1726.0</ele><time>2026-04-25T07:57:48.556Z</time></trkpt><trkpt lat="46.2556609" lon="10.5544047"><ele>1726.0</ele><time>2026-04-25T07:57:49.569Z</time></trkpt><trkpt lat="46.2557686" lon="10.5545254"><ele>1732.0</ele><time>2026-04-25T07:57:50.584Z</time></trkpt><trkpt lat="46.2558543" lon="10.5546748"><ele>1738.0</ele><time>2026-04-25T07:57:51.542Z</time></trkpt><trkpt lat="46.2559297" lon="10.5548579"><ele>1744.0</ele><time>2026-04-25T07:57:52.556Z</time></trkpt><trkpt lat="46.2559933" lon="10.5550408"><ele>1750.0</ele><time>2026-04-25T07:57:53.55Z</time></trkpt><trkpt lat="46.2560514" lon="10.5552204"><ele>1748.25</ele><time>2026-04-25T07:57:54.544Z</time></trkpt><trkpt lat="46.2561053" lon="10.5553977"><ele>1746.5</ele><time>2026-04-25T07:57:55.543Z</time></trkpt><trkpt lat="46.2561498" lon="10.5555745"><ele>1744.75</ele><time>2026-04-25T07:57:56.538Z</time></trkpt><trkpt lat="46.2561926" lon="10.555756"><ele>1743.0</ele><time>2026-04-25T07:57:57.557Z</time></trkpt><trkpt lat="46.2562339" lon="10.5559244"><ele>1743.0</ele><time>2026-04-25T07:57:58.536Z</time></trkpt><trkpt lat="46.2562762" lon="10.5560963"><ele>1743.0000000000002</ele><time>2026-04-25T07:57:59.564Z</time></trkpt><trkpt lat="46.2563122" lon="10.556248"><ele>1743.0000000000002</ele><time>2026-04-25T07:58:00.529Z</time></trkpt><trkpt lat="46.256346" lon="10.5564008"><ele>1743.0</ele><time>2026-04-25T07:58:01.561Z</time></trkpt><trkpt lat="46.2563773" lon="10.5565398"><ele>1743.0</ele><time>2026-04-25T07:58:02.557Z</time></trkpt><trkpt lat="46.2564069" lon="10.5566736"><ele>1741.6000000000001</ele><time>2026-04-25T07:58:03.542Z</time></trkpt><trkpt lat="46.2564387" lon="10.5568119"><ele>1740.2000000000003</ele><time>2026-04-25T07:58:04.546Z</time></trkpt><trkpt lat="46.2564702" lon="10.5569515"><ele>1738.8</ele><time>2026-04-25T07:58:05.55Z</time></trkpt><trkpt lat="46.2565018" lon="10.5571"><ele>1737.4</ele><time>2026-04-25T07:58:06.574Z</time></trkpt><trkpt lat="46.2565326" lon="10.5572442"><ele>1736.0</ele><time>2026-04-25T07:58:07.538Z</time></trkpt><trkpt lat="46.2565655" lon="10.5574032"><ele>1743.0</ele><time>2026-04-25T07:58:08.557Z</time></trkpt><trkpt lat="46.2565978" lon="10.5575655"><ele>1750.0</ele><time>2026-04-25T07:58:09.561Z</time></trkpt><trkpt lat="46.2566219" lon="10.5577264"><ele>1757.0</ele><time>2026-04-25T07:58:10.534Z</time></trkpt><trkpt lat="46.256643" lon="10.5578953"><ele>1764.0</ele><time>2026-04-25T07:58:11.536Z</time></trkpt><trkpt lat="46.2566627" lon="10.5580657"><ele>1764.0</ele><time>2026-04-25T07:58:12.535Z</time></trkpt><trkpt lat="46.2566818" lon="10.5582401"><ele>1764.0</ele><time>2026-04-25T07:58:13.547Z</time></trkpt><trkpt lat="46.2566997" lon="10.5584196"><ele>1764.0</ele><time>2026-04-25T07:58:14.559Z</time></trkpt><trkpt lat="46.2567147" lon="10.5586015"><ele>1764.0</ele><time>2026-04-25T07:58:15.565Z</time></trkpt><trkpt lat="46.2567246" lon="10.5587849"><ele>1764.25</ele><time>2026-04-25T07:58:16.547Z</time></trkpt><trkpt lat="46.256733" lon="10.558973"><ele>1764.5</ele><time>2026-04-25T07:58:17.549Z</time></trkpt><trkpt lat="46.2567417" lon="10.5591629"><ele>1764.75</ele><time>2026-04-25T07:58:18.559Z</time></trkpt><trkpt lat="46.2567475" lon="10.5593541"><ele>1765.0</ele><time>2026-04-25T07:58:19.555Z</time></trkpt><trkpt lat="46.256746" lon="10.5595354"><ele>1765.5</ele><time>2026-04-25T07:58:20.499Z</time></trkpt><trkpt lat="46.2567379" lon="10.5597326"><ele>1766.0</ele><time>2026-04-25T07:58:21.53Z</time></trkpt><trkpt lat="46.2567285" lon="10.5599232"><ele>1766.5</ele><time>2026-04-25T07:58:22.545Z</time></trkpt><trkpt lat="46.2567161" lon="10.5601063"><ele>1767.0</ele><time>2026-04-25T07:58:23.524Z</time></trkpt><trkpt lat="46.2567061" lon="10.560299"><ele>1768.25</ele><time>2026-04-25T07:58:24.55Z</time></trkpt><trkpt lat="46.2567046" lon="10.5604855"><ele>1769.5</ele><time>2026-04-25T07:58:25.556Z</time></trkpt><trkpt lat="46.2567105" lon="10.5606633"><ele>1770.75</ele><time>2026-04-25T07:58:26.54Z</time></trkpt><trkpt lat="46.2567282" lon="10.560842"><ele>1772.0</ele><time>2026-04-25T07:58:27.562Z</time></trkpt><trkpt lat="46.2567567" lon="10.5610134"><ele>1772.0</ele><time>2026-04-25T07:58:28.564Z</time></trkpt><trkpt lat="46.2568007" lon="10.5611873"><ele>1772.0</ele><time>2026-04-25T07:58:29.554Z</time></trkpt><trkpt lat="46.2568568" lon="10.5613687"><ele>1772.0</ele><time>2026-04-25T07:58:30.561Z</time></trkpt><trkpt lat="46.2569149" lon="10.5615428"><ele>1772.0</ele><time>2026-04-25T07:58:31.534Z</time></trkpt><trkpt lat="46.2569792" lon="10.561727"><ele>1774.25</ele><time>2026-04-25T07:58:32.556Z</time></trkpt><trkpt lat="46.2570425" lon="10.5619012"><ele>1776.5</ele><time>2026-04-25T07:58:33.545Z</time></trkpt><trkpt lat="46.2571042" lon="10.5620676"><ele>1778.75</ele><time>2026-04-25T07:58:34.562Z</time></trkpt><trkpt lat="46.257159" lon="10.5622196"><ele>1781.0</ele><time>2026-04-25T07:58:35.561Z</time></trkpt><trkpt lat="46.2572079" lon="10.5623542"><ele>1782.1999999999998</ele><time>2026-04-25T07:58:36.555Z</time></trkpt><trkpt lat="46.2572511" lon="10.5624822"><ele>1783.3999999999999</ele><time>2026-04-25T07:58:37.577Z</time></trkpt><trkpt lat="46.2572991" lon="10.5626056"><ele>1784.6</ele><time>2026-04-25T07:58:38.536Z</time></trkpt><trkpt lat="46.2573531" lon="10.5627484"><ele>1785.8</ele><time>2026-04-25T07:58:39.547Z</time></trkpt><trkpt lat="46.2573903" lon="10.5629123"><ele>1787.0</ele><time>2026-04-25T07:58:40.562Z</time></trkpt><trkpt lat="46.2573933" lon="10.5630781"><ele>1787.25</ele><time>2026-04-25T07:58:41.538Z</time></trkpt><trkpt lat="46.2573553" lon="10.563227"><ele>1787.5</ele><time>2026-04-25T07:58:42.563Z</time></trkpt><trkpt lat="46.2572667" lon="10.5633326"><ele>1787.75</ele><time>2026-04-25T07:58:43.57Z</time></trkpt><trkpt lat="46.2571558" lon="10.5633946"><ele>1788.0</ele><time>2026-04-25T07:58:44.555Z</time></trkpt><trkpt lat="46.2570238" lon="10.5634165"><ele>1789.75</ele><time>2026-04-25T07:58:45.573Z</time></trkpt><trkpt lat="46.2568953" lon="10.5633945"><ele>1791.5</ele><time>2026-04-25T07:58:46.555Z</time></trkpt><trkpt lat="46.2567781" lon="10.5633234"><ele>1793.25</ele><time>2026-04-25T07:58:47.543Z</time></trkpt><trkpt lat="46.2566664" lon="10.5631947"><ele>1795.0</ele><time>2026-04-25T07:58:48.55Z</time></trkpt><trkpt lat="46.2565745" lon="10.5630391"><ele>1795.0</ele><time>2026-04-25T07:58:49.553Z</time></trkpt><trkpt lat="46.2565073" lon="10.5628785"><ele>1795.0</ele><time>2026-04-25T07:58:50.538Z</time></trkpt><trkpt lat="46.2564864" lon="10.5627545"><ele>1795.0</ele><time>2026-04-25T07:58:51.562Z</time></trkpt><trkpt lat="46.2564609" lon="10.5626418"><ele>1795.0</ele><time>2026-04-25T07:58:52.551Z</time></trkpt><trkpt lat="46.2564264" lon="10.5625453"><ele>1795.0</ele><time>2026-04-25T07:58:53.54Z</time></trkpt><trkpt lat="46.2563393" lon="10.5624484"><ele>1795.25</ele><time>2026-04-25T07:58:55.555Z</time></trkpt><trkpt lat="46.2561884" lon="10.5624265"><ele>1795.5</ele><time>2026-04-25T07:58:57.575Z</time></trkpt><trkpt lat="46.2560884" lon="10.5624527"><ele>1795.75</ele><time>2026-04-25T07:58:58.556Z</time></trkpt><trkpt lat="46.2559939" lon="10.5625178"><ele>1796.0</ele><time>2026-04-25T07:58:59.548Z</time></trkpt><trkpt lat="46.2559043" lon="10.5626135"><ele>1796.0</ele><time>2026-04-25T07:59:00.529Z</time></trkpt><trkpt lat="46.2558104" lon="10.5627398"><ele>1796.0</ele><time>2026-04-25T07:59:01.513Z</time></trkpt><trkpt lat="46.2557048" lon="10.562902"><ele>1796.0</ele><time>2026-04-25T07:59:02.558Z</time></trkpt><trkpt lat="46.2556047" lon="10.5630675"><ele>1796.0</ele><time>2026-04-25T07:59:03.537Z</time></trkpt><trkpt lat="46.2555116" lon="10.5632412"><ele>1794.75</ele><time>2026-04-25T07:59:04.565Z</time></trkpt><trkpt lat="46.2554167" lon="10.5634619"><ele>1793.5</ele><time>2026-04-25T07:59:05.886Z</time></trkpt><trkpt lat="46.2553672" lon="10.5635792"><ele>1792.25</ele><time>2026-04-25T07:59:06.599Z</time></trkpt><trkpt lat="46.2553107" lon="10.5637427"><ele>1791.0</ele><time>2026-04-25T07:59:07.609Z</time></trkpt><trkpt lat="46.255262" lon="10.56391"><ele>1794.0</ele><time>2026-04-25T07:59:08.611Z</time></trkpt><trkpt lat="46.2552178" lon="10.5640783"><ele>1797.0</ele><time>2026-04-25T07:59:09.598Z</time></trkpt><trkpt lat="46.2551813" lon="10.5642588"><ele>1800.0</ele><time>2026-04-25T07:59:10.621Z</time></trkpt><trkpt lat="46.2551504" lon="10.5644494"><ele>1803.0</ele><time>2026-04-25T07:59:11.644Z</time></trkpt><trkpt lat="46.2551255" lon="10.5646379"><ele>1805.25</ele><time>2026-04-25T07:59:12.62Z</time></trkpt><trkpt lat="46.2551065" lon="10.5648334"><ele>1807.5</ele><time>2026-04-25T07:59:13.603Z</time></trkpt><trkpt lat="46.2551004" lon="10.5650359"><ele>1809.75</ele><time>2026-04-25T07:59:14.619Z</time></trkpt><trkpt lat="46.2551056" lon="10.5652428"><ele>1812.0</ele><time>2026-04-25T07:59:15.638Z</time></trkpt><trkpt lat="46.2551255" lon="10.5654384"><ele>1812.25</ele><time>2026-04-25T07:59:16.606Z</time></trkpt><trkpt lat="46.2551659" lon="10.5656329"><ele>1812.5</ele><time>2026-04-25T07:59:17.622Z</time></trkpt><trkpt lat="46.2552174" lon="10.5658107"><ele>1812.75</ele><time>2026-04-25T07:59:18.623Z</time></trkpt><trkpt lat="46.2552526" lon="10.5659901"><ele>1813.0</ele><time>2026-04-25T07:59:19.619Z</time></trkpt><trkpt lat="46.2553184" lon="10.5661926"><ele>1813.0</ele><time>2026-04-25T07:59:20.618Z</time></trkpt><trkpt lat="46.255401" lon="10.5664337"><ele>1813.0</ele><time>2026-04-25T07:59:21.627Z</time></trkpt><trkpt lat="46.2554949" lon="10.5666593"><ele>1813.0</ele><time>2026-04-25T07:59:22.613Z</time></trkpt><trkpt lat="46.2556399" lon="10.5668865"><ele>1817.3333333333335</ele><time>2026-04-25T07:59:23.621Z</time></trkpt><trkpt lat="46.2557654" lon="10.5670902"><ele>1821.6666666666665</ele><time>2026-04-25T07:59:24.601Z</time></trkpt><trkpt lat="46.2558792" lon="10.5672862"><ele>1826.0</ele><time>2026-04-25T07:59:25.611Z</time></trkpt><trkpt lat="46.2559741" lon="10.5674611"><ele>1826.0</ele><time>2026-04-25T07:59:26.618Z</time></trkpt><trkpt lat="46.2560557" lon="10.5676184"><ele>1826.0</ele><time>2026-04-25T07:59:27.606Z</time></trkpt><trkpt lat="46.2561324" lon="10.5677722"><ele>1826.0</ele><time>2026-04-25T07:59:28.617Z</time></trkpt><trkpt lat="46.2562077" lon="10.5679245"><ele>1826.0</ele><time>2026-04-25T07:59:29.619Z</time></trkpt><trkpt lat="46.2562798" lon="10.5680891"><ele>1827.25</ele><time>2026-04-25T07:59:30.619Z</time></trkpt><trkpt lat="46.2563386" lon="10.5682673"><ele>1828.5</ele><time>2026-04-25T07:59:31.599Z</time></trkpt><trkpt lat="46.2563952" lon="10.5684616"><ele>1829.75</ele><time>2026-04-25T07:59:32.605Z</time></trkpt><trkpt lat="46.2564497" lon="10.568665"><ele>1831.0</ele><time>2026-04-25T07:59:33.63Z</time></trkpt><trkpt lat="46.2564985" lon="10.5688511"><ele>1832.75</ele><time>2026-04-25T07:59:34.621Z</time></trkpt><trkpt lat="46.2565367" lon="10.5690237"><ele>1834.5</ele><time>2026-04-25T07:59:35.619Z</time></trkpt><trkpt lat="46.2565699" lon="10.5691833"><ele>1836.25</ele><time>2026-04-25T07:59:36.617Z</time></trkpt><trkpt lat="46.2565965" lon="10.569343"><ele>1838.0</ele><time>2026-04-25T07:59:37.63Z</time></trkpt><trkpt lat="46.2566135" lon="10.5694845"><ele>1838.8000000000002</ele><time>2026-04-25T07:59:38.597Z</time></trkpt><trkpt lat="46.256628" lon="10.5696198"><ele>1839.6000000000001</ele><time>2026-04-25T07:59:39.601Z</time></trkpt><trkpt lat="46.2566397" lon="10.5697458"><ele>1840.3999999999999</ele><time>2026-04-25T07:59:40.584Z</time></trkpt><trkpt lat="46.2566496" lon="10.5698793"><ele>1841.1999999999998</ele><time>2026-04-25T07:59:41.601Z</time></trkpt><trkpt lat="46.2566643" lon="10.5700141"><ele>1842.0</ele><time>2026-04-25T07:59:42.609Z</time></trkpt><trkpt lat="46.2566827" lon="10.5701506"><ele>1842.0</ele><time>2026-04-25T07:59:43.622Z</time></trkpt><trkpt lat="46.2567055" lon="10.570282"><ele>1841.9999999999998</ele><time>2026-04-25T07:59:44.596Z</time></trkpt><trkpt lat="46.2567373" lon="10.5704248"><ele>1841.9999999999998</ele><time>2026-04-25T07:59:45.647Z</time></trkpt><trkpt lat="46.2567707" lon="10.5705555"><ele>1842.0</ele><time>2026-04-25T07:59:46.603Z</time></trkpt><trkpt lat="46.2568056" lon="10.5706935"><ele>1842.0</ele><time>2026-04-25T07:59:47.634Z</time></trkpt><trkpt lat="46.2568337" lon="10.5708142"><ele>1842.5</ele><time>2026-04-25T07:59:48.611Z</time></trkpt><trkpt lat="46.2568582" lon="10.5709239"><ele>1843.0</ele><time>2026-04-25T07:59:49.619Z</time></trkpt><trkpt lat="46.256878" lon="10.5710263"><ele>1843.5</ele><time>2026-04-25T07:59:50.612Z</time></trkpt><trkpt lat="46.2568947" lon="10.5711252"><ele>1844.0</ele><time>2026-04-25T07:59:51.624Z</time></trkpt><trkpt lat="46.2569109" lon="10.5712843"><ele>1844.5</ele><time>2026-04-25T07:59:53.61Z</time></trkpt><trkpt lat="46.2569173" lon="10.5714051"><ele>1845.0</ele><time>2026-04-25T07:59:55.552Z</time></trkpt><trkpt lat="46.2569249" lon="10.571549"><ele>1845.5</ele><time>2026-04-25T07:59:57.528Z</time></trkpt><trkpt lat="46.2569262" lon="10.5717338"><ele>1846.0</ele><time>2026-04-25T07:59:59.576Z</time></trkpt><trkpt lat="46.2569232" lon="10.5718249"><ele>1846.5</ele><time>2026-04-25T08:00:00.529Z</time></trkpt><trkpt lat="46.2569218" lon="10.5719308"><ele>1847.0</ele><time>2026-04-25T08:00:01.521Z</time></trkpt><trkpt lat="46.2569205" lon="10.5720516"><ele>1847.5</ele><time>2026-04-25T08:00:02.56Z</time></trkpt><trkpt lat="46.2569221" lon="10.5721896"><ele>1848.0</ele><time>2026-04-25T08:00:03.553Z</time></trkpt><trkpt lat="46.2569276" lon="10.5723669"><ele>1848.25</ele><time>2026-04-25T08:00:04.577Z</time></trkpt><trkpt lat="46.2569353" lon="10.5725545"><ele>1848.5</ele><time>2026-04-25T08:00:05.539Z</time></trkpt><trkpt lat="46.2569423" lon="10.5727726"><ele>1848.75</ele><time>2026-04-25T08:00:06.538Z</time></trkpt><trkpt lat="46.2569503" lon="10.5730045"><ele>1849.0</ele><time>2026-04-25T08:00:07.565Z</time></trkpt><trkpt lat="46.2569606" lon="10.5732249"><ele>1849.75</ele><time>2026-04-25T08:00:08.541Z</time></trkpt><trkpt lat="46.2569754" lon="10.5734412"><ele>1850.5</ele><time>2026-04-25T08:00:09.566Z</time></trkpt><trkpt lat="46.256994" lon="10.573653"><ele>1851.25</ele><time>2026-04-25T08:00:10.543Z</time></trkpt><trkpt lat="46.2570107" lon="10.5738588"><ele>1852.0</ele><time>2026-04-25T08:00:11.558Z</time></trkpt><trkpt lat="46.2570315" lon="10.5740712"><ele>1853.6666666666667</ele><time>2026-04-25T08:00:12.558Z</time></trkpt><trkpt lat="46.2570564" lon="10.5742937"><ele>1855.3333333333335</ele><time>2026-04-25T08:00:13.551Z</time></trkpt><trkpt lat="46.2570827" lon="10.574544"><ele>1857.0</ele><time>2026-04-25T08:00:14.55Z</time></trkpt><trkpt lat="46.2571039" lon="10.5748083"><ele>1858.0</ele><time>2026-04-25T08:00:15.564Z</time></trkpt><trkpt lat="46.2571198" lon="10.5750567"><ele>1859.0</ele><time>2026-04-25T08:00:16.569Z</time></trkpt><trkpt lat="46.2571337" lon="10.5752647"><ele>1860.0</ele><time>2026-04-25T08:00:17.554Z</time></trkpt><trkpt lat="46.2571496" lon="10.5754558"><ele>1860.75</ele><time>2026-04-25T08:00:18.53Z</time></trkpt><trkpt lat="46.2571688" lon="10.5756496"><ele>1861.5</ele><time>2026-04-25T08:00:19.553Z</time></trkpt><trkpt lat="46.257183" lon="10.5758366"><ele>1862.25</ele><time>2026-04-25T08:00:20.566Z</time></trkpt><trkpt lat="46.2571969" lon="10.5760168"><ele>1863.0</ele><time>2026-04-25T08:00:21.568Z</time></trkpt><trkpt lat="46.2572116" lon="10.5762038"><ele>1864.2</ele><time>2026-04-25T08:00:22.556Z</time></trkpt><trkpt lat="46.2572284" lon="10.5763888"><ele>1865.4</ele><time>2026-04-25T08:00:23.564Z</time></trkpt><trkpt lat="46.257244" lon="10.5765572"><ele>1866.6000000000001</ele><time>2026-04-25T08:00:24.554Z</time></trkpt><trkpt lat="46.2572564" lon="10.5767103"><ele>1867.8000000000002</ele><time>2026-04-25T08:00:25.558Z</time></trkpt><trkpt lat="46.2572668" lon="10.57684"><ele>1869.0</ele><time>2026-04-25T08:00:26.535Z</time></trkpt><trkpt lat="46.257278" lon="10.5769589"><ele>1870.2</ele><time>2026-04-25T08:00:27.554Z</time></trkpt><trkpt lat="46.2572895" lon="10.5770759"><ele>1871.4</ele><time>2026-04-25T08:00:28.553Z</time></trkpt><trkpt lat="46.2572993" lon="10.5771951"><ele>1872.6</ele><time>2026-04-25T08:00:29.556Z</time></trkpt><trkpt lat="46.2573077" lon="10.5773276"><ele>1873.8</ele><time>2026-04-25T08:00:30.558Z</time></trkpt><trkpt lat="46.2573152" lon="10.5774609"><ele>1875.0</ele><time>2026-04-25T08:00:31.532Z</time></trkpt><trkpt lat="46.2573276" lon="10.5776136"><ele>1875.0</ele><time>2026-04-25T08:00:32.555Z</time></trkpt><trkpt lat="46.257341" lon="10.5777698"><ele>1875.0</ele><time>2026-04-25T08:00:33.577Z</time></trkpt><trkpt lat="46.2573547" lon="10.5779268"><ele>1875.0</ele><time>2026-04-25T08:00:34.562Z</time></trkpt><trkpt lat="46.2573696" lon="10.578085"><ele>1875.0</ele><time>2026-04-25T08:00:35.573Z</time></trkpt><trkpt lat="46.257385" lon="10.5782465"><ele>1875.0</ele><time>2026-04-25T08:00:36.546Z</time></trkpt><trkpt lat="46.2574036" lon="10.5784185"><ele>1876.0</ele><time>2026-04-25T08:00:37.562Z</time></trkpt><trkpt lat="46.2574208" lon="10.5785884"><ele>1877.0</ele><time>2026-04-25T08:00:38.541Z</time></trkpt><trkpt lat="46.257437" lon="10.5787533"><ele>1878.0</ele><time>2026-04-25T08:00:39.549Z</time></trkpt><trkpt lat="46.2574503" lon="10.578917"><ele>1879.0</ele><time>2026-04-25T08:00:40.554Z</time></trkpt><trkpt lat="46.2574657" lon="10.5790738"><ele>1879.0</ele><time>2026-04-25T08:00:41.534Z</time></trkpt><trkpt lat="46.2574824" lon="10.579244"><ele>1879.0</ele><time>2026-04-25T08:00:42.559Z</time></trkpt><trkpt lat="46.2575015" lon="10.579425"><ele>1879.0</ele><time>2026-04-25T08:00:43.586Z</time></trkpt><trkpt lat="46.2575214" lon="10.5796126"><ele>1879.0</ele><time>2026-04-25T08:00:44.577Z</time></trkpt><trkpt lat="46.2575398" lon="10.5798062"><ele>1879.0</ele><time>2026-04-25T08:00:45.577Z</time></trkpt><trkpt lat="46.257557" lon="10.5799917"><ele>1879.0</ele><time>2026-04-25T08:00:46.519Z</time></trkpt><trkpt lat="46.2575791" lon="10.5802014"><ele>1879.0</ele><time>2026-04-25T08:00:47.562Z</time></trkpt><trkpt lat="46.2576017" lon="10.5804018"><ele>1879.0</ele><time>2026-04-25T08:00:48.555Z</time></trkpt><trkpt lat="46.2576224" lon="10.580611"><ele>1879.6666666666667</ele><time>2026-04-25T08:00:49.557Z</time></trkpt><trkpt lat="46.257643" lon="10.5808205"><ele>1880.3333333333335</ele><time>2026-04-25T08:00:50.568Z</time></trkpt><trkpt lat="46.2576599" lon="10.5810296"><ele>1881.0</ele><time>2026-04-25T08:00:51.535Z</time></trkpt><trkpt lat="46.2576809" lon="10.5812587"><ele>1881.25</ele><time>2026-04-25T08:00:52.577Z</time></trkpt><trkpt lat="46.2577029" lon="10.5814674"><ele>1881.5</ele><time>2026-04-25T08:00:53.553Z</time></trkpt><trkpt lat="46.2577279" lon="10.5816588"><ele>1881.75</ele><time>2026-04-25T08:00:54.547Z</time></trkpt><trkpt lat="46.2577587" lon="10.5818403"><ele>1882.0</ele><time>2026-04-25T08:00:55.555Z</time></trkpt><trkpt lat="46.2578043" lon="10.5820206"><ele>1882.5</ele><time>2026-04-25T08:00:56.573Z</time></trkpt><trkpt lat="46.2578544" lon="10.5821887"><ele>1883.0</ele><time>2026-04-25T08:00:57.537Z</time></trkpt><trkpt lat="46.2579199" lon="10.5823688"><ele>1883.5</ele><time>2026-04-25T08:00:58.591Z</time></trkpt><trkpt lat="46.2579873" lon="10.5825215"><ele>1884.0</ele><time>2026-04-25T08:00:59.561Z</time></trkpt><trkpt lat="46.2580634" lon="10.5826672"><ele>1883.5</ele><time>2026-04-25T08:01:00.527Z</time></trkpt><trkpt lat="46.2581441" lon="10.5828252"><ele>1883.0</ele><time>2026-04-25T08:01:01.527Z</time></trkpt><trkpt lat="46.2582278" lon="10.5829856"><ele>1882.5</ele><time>2026-04-25T08:01:02.547Z</time></trkpt><trkpt lat="46.2583173" lon="10.5831485"><ele>1882.0</ele><time>2026-04-25T08:01:03.554Z</time></trkpt><trkpt lat="46.2584066" lon="10.5833085"><ele>1882.0</ele><time>2026-04-25T08:01:04.561Z</time></trkpt><trkpt lat="46.2584971" lon="10.5834696"><ele>1882.0</ele><time>2026-04-25T08:01:05.565Z</time></trkpt><trkpt lat="46.2585854" lon="10.5836241"><ele>1882.0</ele><time>2026-04-25T08:01:06.561Z</time></trkpt><trkpt lat="46.2586687" lon="10.5837792"><ele>1882.0</ele><time>2026-04-25T08:01:07.575Z</time></trkpt><trkpt lat="46.2587411" lon="10.5839144"><ele>1882.0</ele><time>2026-04-25T08:01:08.5Z</time></trkpt><trkpt lat="46.2588241" lon="10.5840672"><ele>1882.0</ele><time>2026-04-25T08:01:09.541Z</time></trkpt><trkpt lat="46.2588995" lon="10.5842068"><ele>1882.0</ele><time>2026-04-25T08:01:10.568Z</time></trkpt><trkpt lat="46.2589719" lon="10.584336"><ele>1882.0</ele><time>2026-04-25T08:01:11.543Z</time></trkpt><trkpt lat="46.2590509" lon="10.584463"><ele>1881.0</ele><time>2026-04-25T08:01:12.553Z</time></trkpt><trkpt lat="46.2591336" lon="10.5845979"><ele>1880.0</ele><time>2026-04-25T08:01:13.553Z</time></trkpt><trkpt lat="46.2592163" lon="10.5847346"><ele>1879.0</ele><time>2026-04-25T08:01:14.558Z</time></trkpt><trkpt lat="46.2593001" lon="10.5848715"><ele>1878.0</ele><time>2026-04-25T08:01:15.533Z</time></trkpt><trkpt lat="46.2593938" lon="10.5850169"><ele>1878.0</ele><time>2026-04-25T08:01:16.562Z</time></trkpt><trkpt lat="46.2594838" lon="10.5851529"><ele>1878.0</ele><time>2026-04-25T08:01:17.546Z</time></trkpt><trkpt lat="46.2595691" lon="10.5852923"><ele>1878.0</ele><time>2026-04-25T08:01:18.546Z</time></trkpt><trkpt lat="46.2596424" lon="10.5854368"><ele>1878.0</ele><time>2026-04-25T08:01:19.548Z</time></trkpt><trkpt lat="46.259708" lon="10.5855835"><ele>1878.25</ele><time>2026-04-25T08:01:20.542Z</time></trkpt><trkpt lat="46.2597691" lon="10.5857385"><ele>1878.5</ele><time>2026-04-25T08:01:21.553Z</time></trkpt><trkpt lat="46.2598242" lon="10.5858956"><ele>1878.75</ele><time>2026-04-25T08:01:22.559Z</time></trkpt><trkpt lat="46.2598759" lon="10.5860594"><ele>1879.0</ele><time>2026-04-25T08:01:23.573Z</time></trkpt><trkpt lat="46.2599213" lon="10.5862261"><ele>1877.5</ele><time>2026-04-25T08:01:24.567Z</time></trkpt><trkpt lat="46.2599674" lon="10.5863898"><ele>1876.0</ele><time>2026-04-25T08:01:25.536Z</time></trkpt><trkpt lat="46.2600168" lon="10.5865623"><ele>1874.5</ele><time>2026-04-25T08:01:26.546Z</time></trkpt><trkpt lat="46.2600682" lon="10.5867409"><ele>1873.0</ele><time>2026-04-25T08:01:27.573Z</time></trkpt><trkpt lat="46.2601149" lon="10.5869185"><ele>1871.75</ele><time>2026-04-25T08:01:28.575Z</time></trkpt><trkpt lat="46.2601591" lon="10.5870942"><ele>1870.5</ele><time>2026-04-25T08:01:29.563Z</time></trkpt><trkpt lat="46.2602013" lon="10.5872693"><ele>1869.25</ele><time>2026-04-25T08:01:30.538Z</time></trkpt><trkpt lat="46.2602478" lon="10.5874533"><ele>1868.0</ele><time>2026-04-25T08:01:31.562Z</time></trkpt><trkpt lat="46.2602972" lon="10.5876342"><ele>1868.0</ele><time>2026-04-25T08:01:32.566Z</time></trkpt><trkpt lat="46.2603462" lon="10.5878159"><ele>1868.0</ele><time>2026-04-25T08:01:33.565Z</time></trkpt><trkpt lat="46.2603944" lon="10.5879959"><ele>1868.0</ele><time>2026-04-25T08:01:34.553Z</time></trkpt><trkpt lat="46.2604403" lon="10.5881817"><ele>1868.0</ele><time>2026-04-25T08:01:35.548Z</time></trkpt><trkpt lat="46.2604821" lon="10.5883752"><ele>1866.5</ele><time>2026-04-25T08:01:36.57Z</time></trkpt><trkpt lat="46.2605174" lon="10.5885655"><ele>1865.0</ele><time>2026-04-25T08:01:37.553Z</time></trkpt><trkpt lat="46.2605477" lon="10.5887533"><ele>1863.5</ele><time>2026-04-25T08:01:38.512Z</time></trkpt><trkpt lat="46.2605768" lon="10.5889576"><ele>1862.0</ele><time>2026-04-25T08:01:39.551Z</time></trkpt><trkpt lat="46.2605959" lon="10.5891542"><ele>1860.5</ele><time>2026-04-25T08:01:40.557Z</time></trkpt><trkpt lat="46.2606091" lon="10.5893539"><ele>1859.0</ele><time>2026-04-25T08:01:41.573Z</time></trkpt><trkpt lat="46.260619" lon="10.5895456"><ele>1857.5</ele><time>2026-04-25T08:01:42.545Z</time></trkpt><trkpt lat="46.2606291" lon="10.5897452"><ele>1856.0</ele><time>2026-04-25T08:01:43.557Z</time></trkpt><trkpt lat="46.2606376" lon="10.5899533"><ele>1858.75</ele><time>2026-04-25T08:01:44.584Z</time></trkpt><trkpt lat="46.260645" lon="10.5901521"><ele>1861.5</ele><time>2026-04-25T08:01:45.547Z</time></trkpt><trkpt lat="46.2606508" lon="10.5903602"><ele>1864.25</ele><time>2026-04-25T08:01:46.563Z</time></trkpt><trkpt lat="46.2606582" lon="10.5905611"><ele>1867.0</ele><time>2026-04-25T08:01:47.574Z</time></trkpt><trkpt lat="46.2606663" lon="10.5907561"><ele>1867.0</ele><time>2026-04-25T08:01:48.561Z</time></trkpt><trkpt lat="46.260674" lon="10.5909538"><ele>1867.0</ele><time>2026-04-25T08:01:49.566Z</time></trkpt><trkpt lat="46.2606816" lon="10.5911445"><ele>1867.0</ele><time>2026-04-25T08:01:50.534Z</time></trkpt><trkpt lat="46.2606877" lon="10.5913428"><ele>1867.0</ele><time>2026-04-25T08:01:51.549Z</time></trkpt><trkpt lat="46.2606933" lon="10.5915354"><ele>1865.0</ele><time>2026-04-25T08:01:52.565Z</time></trkpt><trkpt lat="46.2606993" lon="10.5917158"><ele>1863.0</ele><time>2026-04-25T08:01:53.549Z</time></trkpt><trkpt lat="46.2607088" lon="10.5918974"><ele>1861.0</ele><time>2026-04-25T08:01:54.586Z</time></trkpt><trkpt lat="46.260725" lon="10.5920646"><ele>1859.0</ele><time>2026-04-25T08:01:55.571Z</time></trkpt><trkpt lat="46.2607505" lon="10.5922235"><ele>1857.0</ele><time>2026-04-25T08:01:56.546Z</time></trkpt><trkpt lat="46.260791" lon="10.5923821"><ele>1855.0</ele><time>2026-04-25T08:01:57.559Z</time></trkpt><trkpt lat="46.2608516" lon="10.5925316"><ele>1853.0</ele><time>2026-04-25T08:01:58.556Z</time></trkpt><trkpt lat="46.2609414" lon="10.592676"><ele>1851.0</ele><time>2026-04-25T08:01:59.566Z</time></trkpt><trkpt lat="46.2610537" lon="10.592795"><ele>1850.5</ele><time>2026-04-25T08:02:00.516Z</time></trkpt><trkpt lat="46.2611793" lon="10.592878"><ele>1850.0</ele><time>2026-04-25T08:02:01.546Z</time></trkpt><trkpt lat="46.2613158" lon="10.5929332"><ele>1849.5</ele><time>2026-04-25T08:02:02.56Z</time></trkpt><trkpt lat="46.2614585" lon="10.5929749"><ele>1849.0</ele><time>2026-04-25T08:02:03.562Z</time></trkpt><trkpt lat="46.261585" lon="10.5930215"><ele>1849.0</ele><time>2026-04-25T08:02:04.551Z</time></trkpt><trkpt lat="46.2617169" lon="10.5931012"><ele>1849.0</ele><time>2026-04-25T08:02:05.55Z</time></trkpt><trkpt lat="46.2618375" lon="10.5932295"><ele>1849.0</ele><time>2026-04-25T08:02:06.55Z</time></trkpt><trkpt lat="46.2618951" lon="10.5933684"><ele>1849.0</ele><time>2026-04-25T08:02:07.585Z</time></trkpt><trkpt lat="46.2619184" lon="10.5935412"><ele>1850.0</ele><time>2026-04-25T08:02:08.545Z</time></trkpt><trkpt lat="46.2619093" lon="10.5937576"><ele>1851.0</ele><time>2026-04-25T08:02:09.565Z</time></trkpt><trkpt lat="46.2618525" lon="10.5939636"><ele>1852.0</ele><time>2026-04-25T08:02:10.523Z</time></trkpt><trkpt lat="46.2617455" lon="10.5941668"><ele>1852.0</ele><time>2026-04-25T08:02:11.548Z</time></trkpt><trkpt lat="46.26161" lon="10.594341"><ele>1852.0</ele><time>2026-04-25T08:02:12.559Z</time></trkpt><trkpt lat="46.2614601" lon="10.5944828"><ele>1852.0</ele><time>2026-04-25T08:02:13.584Z</time></trkpt><trkpt lat="46.2613317" lon="10.5945785"><ele>1849.6</ele><time>2026-04-25T08:02:14.546Z</time></trkpt><trkpt lat="46.2612457" lon="10.5946402"><ele>1847.1999999999998</ele><time>2026-04-25T08:02:15.549Z</time></trkpt><trkpt lat="46.2611893" lon="10.5947133"><ele>1844.8</ele><time>2026-04-25T08:02:16.542Z</time></trkpt><trkpt lat="46.2611462" lon="10.5948126"><ele>1842.4</ele><time>2026-04-25T08:02:17.57Z</time></trkpt><trkpt lat="46.2611083" lon="10.5949268"><ele>1840.0</ele><time>2026-04-25T08:02:18.544Z</time></trkpt><trkpt lat="46.2610628" lon="10.5950735"><ele>1840.0</ele><time>2026-04-25T08:02:19.559Z</time></trkpt><trkpt lat="46.2610176" lon="10.5952483"><ele>1840.0</ele><time>2026-04-25T08:02:20.576Z</time></trkpt><trkpt lat="46.2609818" lon="10.5954312"><ele>1840.0</ele><time>2026-04-25T08:02:21.559Z</time></trkpt><trkpt lat="46.2609697" lon="10.5956135"><ele>1840.0</ele><time>2026-04-25T08:02:22.573Z</time></trkpt><trkpt lat="46.2609916" lon="10.5957796"><ele>1840.0</ele><time>2026-04-25T08:02:23.559Z</time></trkpt><trkpt lat="46.2610482" lon="10.5959535"><ele>1840.0</ele><time>2026-04-25T08:02:24.572Z</time></trkpt><trkpt lat="46.2611377" lon="10.5961238"><ele>1840.0</ele><time>2026-04-25T08:02:25.544Z</time></trkpt><trkpt lat="46.2612402" lon="10.5962963"><ele>1840.0</ele><time>2026-04-25T08:02:26.559Z</time></trkpt><trkpt lat="46.2613138" lon="10.5964609"><ele>1839.0</ele><time>2026-04-25T08:02:27.584Z</time></trkpt><trkpt lat="46.2613658" lon="10.596647"><ele>1838.0</ele><time>2026-04-25T08:02:28.561Z</time></trkpt><trkpt lat="46.2613961" lon="10.5968662"><ele>1837.0</ele><time>2026-04-25T08:02:29.557Z</time></trkpt><trkpt lat="46.2613832" lon="10.5970476"><ele>1836.0</ele><time>2026-04-25T08:02:30.54Z</time></trkpt><trkpt lat="46.2613269" lon="10.5972431"><ele>1834.6666666666665</ele><time>2026-04-25T08:02:31.566Z</time></trkpt><trkpt lat="46.2612398" lon="10.5974248"><ele>1833.3333333333333</ele><time>2026-04-25T08:02:32.552Z</time></trkpt><trkpt lat="46.2610945" lon="10.597657"><ele>1832.0</ele><time>2026-04-25T08:02:33.942Z</time></trkpt><trkpt lat="46.2609864" lon="10.5978449"><ele>1831.5</ele><time>2026-04-25T08:02:35.601Z</time></trkpt><trkpt lat="46.2609437" lon="10.598009"><ele>1831.0</ele><time>2026-04-25T08:02:36.615Z</time></trkpt><trkpt lat="46.260943" lon="10.5981601"><ele>1830.5</ele><time>2026-04-25T08:02:37.627Z</time></trkpt><trkpt lat="46.2609757" lon="10.5982865"><ele>1830.0</ele><time>2026-04-25T08:02:38.611Z</time></trkpt><trkpt lat="46.2610375" lon="10.5985007"><ele>1829.0</ele><time>2026-04-25T08:02:39.623Z</time></trkpt><trkpt lat="46.2610814" lon="10.5987261"><ele>1828.0</ele><time>2026-04-25T08:02:40.58Z</time></trkpt><trkpt lat="46.261105" lon="10.5990039"><ele>1827.0</ele><time>2026-04-25T08:02:41.625Z</time></trkpt><trkpt lat="46.2610973" lon="10.5992754"><ele>1826.25</ele><time>2026-04-25T08:02:42.621Z</time></trkpt><trkpt lat="46.2610689" lon="10.5995062"><ele>1825.5</ele><time>2026-04-25T08:02:43.61Z</time></trkpt><trkpt lat="46.2610296" lon="10.5996978"><ele>1824.75</ele><time>2026-04-25T08:02:44.616Z</time></trkpt><trkpt lat="46.2609949" lon="10.5998598"><ele>1824.0</ele><time>2026-04-25T08:02:45.615Z</time></trkpt><trkpt lat="46.2609678" lon="10.600022"><ele>1824.0</ele><time>2026-04-25T08:02:46.609Z</time></trkpt><trkpt lat="46.2609486" lon="10.6001917"><ele>1824.0</ele><time>2026-04-25T08:02:47.622Z</time></trkpt><trkpt lat="46.260956" lon="10.6003345"><ele>1824.0</ele><time>2026-04-25T08:02:48.607Z</time></trkpt><trkpt lat="46.260992" lon="10.600463"><ele>1824.0</ele><time>2026-04-25T08:02:49.555Z</time></trkpt><trkpt lat="46.2610666" lon="10.6006006"><ele>1824.0</ele><time>2026-04-25T08:02:50.576Z</time></trkpt><trkpt lat="46.2611362" lon="10.6007482"><ele>1822.75</ele><time>2026-04-25T08:02:51.553Z</time></trkpt><trkpt lat="46.261197" lon="10.6009298"><ele>1821.5</ele><time>2026-04-25T08:02:52.561Z</time></trkpt><trkpt lat="46.2612356" lon="10.6011104"><ele>1820.25</ele><time>2026-04-25T08:02:53.564Z</time></trkpt><trkpt lat="46.2612282" lon="10.6013213"><ele>1819.0</ele><time>2026-04-25T08:02:54.561Z</time></trkpt><trkpt lat="46.2611678" lon="10.6015872"><ele>1818.6666666666667</ele><time>2026-04-25T08:02:55.585Z</time></trkpt><trkpt lat="46.2610999" lon="10.6018468"><ele>1818.3333333333335</ele><time>2026-04-25T08:02:56.565Z</time></trkpt><trkpt lat="46.2610395" lon="10.6021132"><ele>1818.0</ele><time>2026-04-25T08:02:57.572Z</time></trkpt><trkpt lat="46.2609881" lon="10.6023513"><ele>1819.0</ele><time>2026-04-25T08:02:58.532Z</time></trkpt><trkpt lat="46.2609393" lon="10.6025869"><ele>1820.0</ele><time>2026-04-25T08:02:59.571Z</time></trkpt><trkpt lat="46.2608911" lon="10.6027964"><ele>1821.0</ele><time>2026-04-25T08:03:00.542Z</time></trkpt><trkpt lat="46.2608461" lon="10.6030132"><ele>1821.6666666666665</ele><time>2026-04-25T08:03:01.548Z</time></trkpt><trkpt lat="46.2608092" lon="10.6032428"><ele>1822.3333333333333</ele><time>2026-04-25T08:03:02.543Z</time></trkpt><trkpt lat="46.26077" lon="10.6034967"><ele>1823.0</ele><time>2026-04-25T08:03:03.563Z</time></trkpt><trkpt lat="46.2607275" lon="10.6037438"><ele>1823.0</ele><time>2026-04-25T08:03:04.566Z</time></trkpt><trkpt lat="46.2606853" lon="10.6039761"><ele>1823.0</ele><time>2026-04-25T08:03:05.561Z</time></trkpt><trkpt lat="46.2606469" lon="10.6041862"><ele>1823.0</ele><time>2026-04-25T08:03:06.559Z</time></trkpt><trkpt lat="46.2606104" lon="10.6043918"><ele>1817.5</ele><time>2026-04-25T08:03:07.564Z</time></trkpt><trkpt lat="46.2605795" lon="10.6045941"><ele>1812.0</ele><time>2026-04-25T08:03:08.567Z</time></trkpt><trkpt lat="46.260548" lon="10.6047865"><ele>1806.5</ele><time>2026-04-25T08:03:09.542Z</time></trkpt><trkpt lat="46.2605132" lon="10.6049801"><ele>1801.0</ele><time>2026-04-25T08:03:10.559Z</time></trkpt><trkpt lat="46.260478" lon="10.6051634"><ele>1801.0</ele><time>2026-04-25T08:03:11.574Z</time></trkpt><trkpt lat="46.2604446" lon="10.6053436"><ele>1801.0</ele><time>2026-04-25T08:03:12.587Z</time></trkpt><trkpt lat="46.2604197" lon="10.6055239"><ele>1801.0</ele><time>2026-04-25T08:03:13.551Z</time></trkpt><trkpt lat="46.2603999" lon="10.6057232"><ele>1801.0</ele><time>2026-04-25T08:03:14.554Z</time></trkpt><trkpt lat="46.2603883" lon="10.6059334"><ele>1801.0</ele><time>2026-04-25T08:03:15.552Z</time></trkpt><trkpt lat="46.2603836" lon="10.6061513"><ele>1801.0</ele><time>2026-04-25T08:03:16.57Z</time></trkpt><trkpt lat="46.2603865" lon="10.6063543"><ele>1801.0</ele><time>2026-04-25T08:03:17.543Z</time></trkpt><trkpt lat="46.2603934" lon="10.6065585"><ele>1801.0</ele><time>2026-04-25T08:03:18.551Z</time></trkpt><trkpt lat="46.2604003" lon="10.6067544"><ele>1800.75</ele><time>2026-04-25T08:03:19.558Z</time></trkpt><trkpt lat="46.2604062" lon="10.6069391"><ele>1800.5</ele><time>2026-04-25T08:03:20.554Z</time></trkpt><trkpt lat="46.2604143" lon="10.6071331"><ele>1800.25</ele><time>2026-04-25T08:03:21.584Z</time></trkpt><trkpt lat="46.2604256" lon="10.6073248"><ele>1800.0</ele><time>2026-04-25T08:03:22.578Z</time></trkpt><trkpt lat="46.2604467" lon="10.607519"><ele>1799.0</ele><time>2026-04-25T08:03:23.58Z</time></trkpt><trkpt lat="46.2604831" lon="10.6076975"><ele>1798.0</ele><time>2026-04-25T08:03:24.549Z</time></trkpt><trkpt lat="46.2605401" lon="10.6078694"><ele>1797.0</ele><time>2026-04-25T08:03:25.568Z</time></trkpt><trkpt lat="46.2606153" lon="10.6080288"><ele>1796.0</ele><time>2026-04-25T08:03:26.558Z</time></trkpt><trkpt lat="46.2607099" lon="10.6081916"><ele>1794.0</ele><time>2026-04-25T08:03:27.573Z</time></trkpt><trkpt lat="46.2608144" lon="10.6083589"><ele>1792.0</ele><time>2026-04-25T08:03:28.594Z</time></trkpt><trkpt lat="46.2609151" lon="10.6085241"><ele>1790.0</ele><time>2026-04-25T08:03:29.542Z</time></trkpt><trkpt lat="46.2610229" lon="10.6087002"><ele>1790.0</ele><time>2026-04-25T08:03:30.54Z</time></trkpt><trkpt lat="46.26113" lon="10.6088756"><ele>1790.0</ele><time>2026-04-25T08:03:31.549Z</time></trkpt><trkpt lat="46.2612286" lon="10.6090508"><ele>1790.0</ele><time>2026-04-25T08:03:32.567Z</time></trkpt><trkpt lat="46.2613015" lon="10.6092314"><ele>1790.0</ele><time>2026-04-25T08:03:33.565Z</time></trkpt><trkpt lat="46.2613505" lon="10.6094266"><ele>1790.0</ele><time>2026-04-25T08:03:34.555Z</time></trkpt><trkpt lat="46.2613813" lon="10.6096306"><ele>1790.0</ele><time>2026-04-25T08:03:35.56Z</time></trkpt><trkpt lat="46.2614127" lon="10.6098172"><ele>1790.0</ele><time>2026-04-25T08:03:36.556Z</time></trkpt><trkpt lat="46.2614604" lon="10.609982"><ele>1789.5</ele><time>2026-04-25T08:03:37.558Z</time></trkpt><trkpt lat="46.2615215" lon="10.6101313"><ele>1789.0</ele><time>2026-04-25T08:03:38.563Z</time></trkpt><trkpt lat="46.2615889" lon="10.6102731"><ele>1788.5</ele><time>2026-04-25T08:03:39.549Z</time></trkpt><trkpt lat="46.2616602" lon="10.6104213"><ele>1788.0</ele><time>2026-04-25T08:03:40.56Z</time></trkpt><trkpt lat="46.2617344" lon="10.6105669"><ele>1788.0</ele><time>2026-04-25T08:03:41.56Z</time></trkpt><trkpt lat="46.2618147" lon="10.6107152"><ele>1788.0</ele><time>2026-04-25T08:03:42.586Z</time></trkpt><trkpt lat="46.2619032" lon="10.6108501"><ele>1788.0</ele><time>2026-04-25T08:03:43.558Z</time></trkpt><trkpt lat="46.2620143" lon="10.6109807"><ele>1788.0</ele><time>2026-04-25T08:03:44.587Z</time></trkpt><trkpt lat="46.2621301" lon="10.6110908"><ele>1787.25</ele><time>2026-04-25T08:03:45.573Z</time></trkpt><trkpt lat="46.2622551" lon="10.611181"><ele>1786.5</ele><time>2026-04-25T08:03:46.553Z</time></trkpt><trkpt lat="46.2623967" lon="10.6112613"><ele>1785.75</ele><time>2026-04-25T08:03:47.563Z</time></trkpt><trkpt lat="46.2625371" lon="10.6113377"><ele>1785.0</ele><time>2026-04-25T08:03:48.558Z</time></trkpt><trkpt lat="46.2626761" lon="10.6114204"><ele>1785.0</ele><time>2026-04-25T08:03:49.57Z</time></trkpt><trkpt lat="46.2628035" lon="10.6114995"><ele>1785.0</ele><time>2026-04-25T08:03:50.541Z</time></trkpt><trkpt lat="46.262933" lon="10.6115768"><ele>1785.0</ele><time>2026-04-25T08:03:51.564Z</time></trkpt><trkpt lat="46.2630539" lon="10.6116418"><ele>1785.0</ele><time>2026-04-25T08:03:52.568Z</time></trkpt><trkpt lat="46.2631727" lon="10.6116938"><ele>1784.0</ele><time>2026-04-25T08:03:53.565Z</time></trkpt><trkpt lat="46.2632937" lon="10.6117321"><ele>1783.0</ele><time>2026-04-25T08:03:54.555Z</time></trkpt><trkpt lat="46.2634179" lon="10.6117594"><ele>1782.0</ele><time>2026-04-25T08:03:55.561Z</time></trkpt><trkpt lat="46.2635423" lon="10.6117821"><ele>1781.0</ele><time>2026-04-25T08:03:56.57Z</time></trkpt><trkpt lat="46.2636624" lon="10.6118025"><ele>1781.0</ele><time>2026-04-25T08:03:57.547Z</time></trkpt><trkpt lat="46.2637844" lon="10.611825"><ele>1781.0</ele><time>2026-04-25T08:03:58.552Z</time></trkpt><trkpt lat="46.2639083" lon="10.6118469"><ele>1781.0</ele><time>2026-04-25T08:03:59.583Z</time></trkpt><trkpt lat="46.2640261" lon="10.6118651"><ele>1781.0</ele><time>2026-04-25T08:04:00.56Z</time></trkpt><trkpt lat="46.2641506" lon="10.6118943"><ele>1782.0</ele><time>2026-04-25T08:04:01.577Z</time></trkpt><trkpt lat="46.2642649" lon="10.6119528"><ele>1783.0</ele><time>2026-04-25T08:04:02.553Z</time></trkpt><trkpt lat="46.2643878" lon="10.6120535"><ele>1784.0</ele><time>2026-04-25T08:04:03.559Z</time></trkpt><trkpt lat="46.2645106" lon="10.6121984"><ele>1785.0</ele><time>2026-04-25T08:04:04.556Z</time></trkpt><trkpt lat="46.264625" lon="10.6123863"><ele>1782.3333333333335</ele><time>2026-04-25T08:04:05.569Z</time></trkpt><trkpt lat="46.2647194" lon="10.6126101"><ele>1779.6666666666667</ele><time>2026-04-25T08:04:06.57Z</time></trkpt><trkpt lat="46.2647943" lon="10.6128602"><ele>1777.0</ele><time>2026-04-25T08:04:07.566Z</time></trkpt><trkpt lat="46.2648598" lon="10.613121"><ele>1777.0</ele><time>2026-04-25T08:04:08.564Z</time></trkpt><trkpt lat="46.2649199" lon="10.6133763"><ele>1777.0</ele><time>2026-04-25T08:04:09.546Z</time></trkpt><trkpt lat="46.2649829" lon="10.6136343"><ele>1777.0</ele><time>2026-04-25T08:04:10.55Z</time></trkpt><trkpt lat="46.2650502" lon="10.6138701"><ele>1773.6666666666667</ele><time>2026-04-25T08:04:11.546Z</time></trkpt><trkpt lat="46.2651232" lon="10.6140912"><ele>1770.3333333333335</ele><time>2026-04-25T08:04:12.562Z</time></trkpt><trkpt lat="46.2651983" lon="10.6143009"><ele>1767.0</ele><time>2026-04-25T08:04:13.567Z</time></trkpt><trkpt lat="46.2652698" lon="10.6144957"><ele>1763.5</ele><time>2026-04-25T08:04:14.562Z</time></trkpt><trkpt lat="46.2653356" lon="10.6146687"><ele>1760.0</ele><time>2026-04-25T08:04:15.551Z</time></trkpt><trkpt lat="46.2653938" lon="10.6148207"><ele>1756.5</ele><time>2026-04-25T08:04:16.556Z</time></trkpt><trkpt lat="46.2654529" lon="10.6149502"><ele>1753.0</ele><time>2026-04-25T08:04:17.565Z</time></trkpt><trkpt lat="46.2655207" lon="10.6150398"><ele>1753.0</ele><time>2026-04-25T08:04:18.567Z</time></trkpt><trkpt lat="46.2656043" lon="10.6150817"><ele>1753.0000000000002</ele><time>2026-04-25T08:04:19.582Z</time></trkpt><trkpt lat="46.2656917" lon="10.6150645"><ele>1753.0000000000002</ele><time>2026-04-25T08:04:20.551Z</time></trkpt><trkpt lat="46.2657917" lon="10.6149948"><ele>1753.0</ele><time>2026-04-25T08:04:21.558Z</time></trkpt><trkpt lat="46.2658865" lon="10.6148875"><ele>1753.0</ele><time>2026-04-25T08:04:22.569Z</time></trkpt><trkpt lat="46.2659797" lon="10.6147786"><ele>1756.0</ele><time>2026-04-25T08:04:23.544Z</time></trkpt><trkpt lat="46.2660896" lon="10.6146845"><ele>1759.0</ele><time>2026-04-25T08:04:24.572Z</time></trkpt><trkpt lat="46.2662067" lon="10.6146182"><ele>1762.0</ele><time>2026-04-25T08:04:25.565Z</time></trkpt><trkpt lat="46.2663195" lon="10.6145882"><ele>1765.0</ele><time>2026-04-25T08:04:26.558Z</time></trkpt><trkpt lat="46.2664202" lon="10.6146072"><ele>1764.4</ele><time>2026-04-25T08:04:27.566Z</time></trkpt><trkpt lat="46.2664977" lon="10.6146778"><ele>1763.8</ele><time>2026-04-25T08:04:28.566Z</time></trkpt><trkpt lat="46.2665699" lon="10.6147689"><ele>1763.1999999999998</ele><time>2026-04-25T08:04:29.574Z</time></trkpt><trkpt lat="46.2666419" lon="10.6148645"><ele>1762.6</ele><time>2026-04-25T08:04:30.557Z</time></trkpt><trkpt lat="46.2667141" lon="10.6149596"><ele>1762.0</ele><time>2026-04-25T08:04:31.554Z</time></trkpt><trkpt lat="46.2667863" lon="10.6150503"><ele>1762.0000000000002</ele><time>2026-04-25T08:04:32.56Z</time></trkpt><trkpt lat="46.2668591" lon="10.61513"><ele>1762.0</ele><time>2026-04-25T08:04:33.545Z</time></trkpt><trkpt lat="46.2669352" lon="10.6151825"><ele>1762.0</ele><time>2026-04-25T08:04:34.556Z</time></trkpt><trkpt lat="46.2670075" lon="10.6151849"><ele>1762.0</ele><time>2026-04-25T08:04:35.57Z</time></trkpt><trkpt lat="46.2670691" lon="10.6151347"><ele>1762.0000000000002</ele><time>2026-04-25T08:04:36.572Z</time></trkpt><trkpt lat="46.2671353" lon="10.6150535"><ele>1762.0</ele><time>2026-04-25T08:04:37.543Z</time></trkpt><trkpt lat="46.2672174" lon="10.614978"><ele>1760.1999999999998</ele><time>2026-04-25T08:04:38.536Z</time></trkpt><trkpt lat="46.2673196" lon="10.6149482"><ele>1758.3999999999999</ele><time>2026-04-25T08:04:39.545Z</time></trkpt><trkpt lat="46.2674166" lon="10.6149805"><ele>1756.6000000000001</ele><time>2026-04-25T08:04:40.56Z</time></trkpt><trkpt lat="46.267502" lon="10.6150603"><ele>1754.8000000000002</ele><time>2026-04-25T08:04:41.55Z</time></trkpt><trkpt lat="46.2675753" lon="10.6151497"><ele>1753.0</ele><time>2026-04-25T08:04:42.542Z</time></trkpt><trkpt lat="46.2676448" lon="10.6152299"><ele>1753.0000000000002</ele><time>2026-04-25T08:04:43.558Z</time></trkpt><trkpt lat="46.2677119" lon="10.6152775"><ele>1753.0</ele><time>2026-04-25T08:04:44.571Z</time></trkpt><trkpt lat="46.2677833" lon="10.6152907"><ele>1753.0</ele><time>2026-04-25T08:04:45.552Z</time></trkpt><trkpt lat="46.2678669" lon="10.6152732"><ele>1753.0</ele><time>2026-04-25T08:04:46.567Z</time></trkpt><trkpt lat="46.2679571" lon="10.6152408"><ele>1753.0000000000002</ele><time>2026-04-25T08:04:47.559Z</time></trkpt><trkpt lat="46.2680506" lon="10.6152"><ele>1753.0</ele><time>2026-04-25T08:04:48.544Z</time></trkpt><trkpt lat="46.2681529" lon="10.6151485"><ele>1751.8000000000002</ele><time>2026-04-25T08:04:49.573Z</time></trkpt><trkpt lat="46.2682482" lon="10.6151001"><ele>1750.6000000000001</ele><time>2026-04-25T08:04:50.542Z</time></trkpt><trkpt lat="46.2683376" lon="10.6150705"><ele>1749.3999999999999</ele><time>2026-04-25T08:04:51.555Z</time></trkpt><trkpt lat="46.2684314" lon="10.6150849"><ele>1748.1999999999998</ele><time>2026-04-25T08:04:52.587Z</time></trkpt><trkpt lat="46.2685445" lon="10.6151812"><ele>1747.0</ele><time>2026-04-25T08:04:53.918Z</time></trkpt><trkpt lat="46.2685849" lon="10.6153879"><ele>1744.6666666666667</ele><time>2026-04-25T08:04:55.593Z</time></trkpt><trkpt lat="46.2685803" lon="10.6155272"><ele>1742.3333333333335</ele><time>2026-04-25T08:04:56.615Z</time></trkpt><trkpt lat="46.2685395" lon="10.6156173"><ele>1740.0</ele><time>2026-04-25T08:04:57.598Z</time></trkpt><trkpt lat="46.2684888" lon="10.6157145"><ele>1737.6666666666665</ele><time>2026-04-25T08:04:58.611Z</time></trkpt><trkpt lat="46.268446" lon="10.6158258"><ele>1735.3333333333333</ele><time>2026-04-25T08:04:59.627Z</time></trkpt><trkpt lat="46.2684067" lon="10.6159458"><ele>1733.0</ele><time>2026-04-25T08:05:00.579Z</time></trkpt><trkpt lat="46.2683608" lon="10.616076"><ele>1734.6000000000001</ele><time>2026-04-25T08:05:01.582Z</time></trkpt><trkpt lat="46.2683178" lon="10.6162022"><ele>1736.2000000000003</ele><time>2026-04-25T08:05:02.606Z</time></trkpt><trkpt lat="46.2682772" lon="10.6163324"><ele>1737.8</ele><time>2026-04-25T08:05:03.623Z</time></trkpt><trkpt lat="46.2682464" lon="10.6164803"><ele>1739.4</ele><time>2026-04-25T08:05:04.622Z</time></trkpt><trkpt lat="46.2682175" lon="10.6166615"><ele>1741.0</ele><time>2026-04-25T08:05:05.632Z</time></trkpt><trkpt lat="46.2681762" lon="10.6168906"><ele>1741.6666666666667</ele><time>2026-04-25T08:05:06.606Z</time></trkpt><trkpt lat="46.2681348" lon="10.6171085"><ele>1742.3333333333335</ele><time>2026-04-25T08:05:07.601Z</time></trkpt><trkpt lat="46.268084" lon="10.6173193"><ele>1743.0</ele><time>2026-04-25T08:05:08.589Z</time></trkpt><trkpt lat="46.2680248" lon="10.6175242"><ele>1728.5</ele><time>2026-04-25T08:05:09.64Z</time></trkpt><trkpt lat="46.2679744" lon="10.6176966"><ele>1714.0</ele><time>2026-04-25T08:05:10.631Z</time></trkpt><trkpt lat="46.2679686" lon="10.6178445"><ele>1699.5</ele><time>2026-04-25T08:05:12.607Z</time></trkpt><trkpt lat="46.268039" lon="10.6180026"><ele>1685.0</ele><time>2026-04-25T08:05:14.612Z</time></trkpt><trkpt lat="46.268084" lon="10.6181145"><ele>1685.0</ele><time>2026-04-25T08:05:15.635Z</time></trkpt><trkpt lat="46.2681143" lon="10.6182397"><ele>1685.0</ele><time>2026-04-25T08:05:16.626Z</time></trkpt><trkpt lat="46.2681093" lon="10.6183732"><ele>1685.0</ele><time>2026-04-25T08:05:17.61Z</time></trkpt><trkpt lat="46.2680729" lon="10.6185095"><ele>1685.0</ele><time>2026-04-25T08:05:18.625Z</time></trkpt><trkpt lat="46.268038" lon="10.6186485"><ele>1685.0</ele><time>2026-04-25T08:05:19.624Z</time></trkpt><trkpt lat="46.2680167" lon="10.6187963"><ele>1684.6</ele><time>2026-04-25T08:05:20.617Z</time></trkpt><trkpt lat="46.2680041" lon="10.618942"><ele>1684.2</ele><time>2026-04-25T08:05:21.625Z</time></trkpt><trkpt lat="46.2679965" lon="10.6190798"><ele>1683.8000000000002</ele><time>2026-04-25T08:05:22.603Z</time></trkpt><trkpt lat="46.2679959" lon="10.6192129"><ele>1683.4</ele><time>2026-04-25T08:05:23.607Z</time></trkpt><trkpt lat="46.2680183" lon="10.619339"><ele>1683.0</ele><time>2026-04-25T08:05:24.61Z</time></trkpt><trkpt lat="46.2680508" lon="10.6195013"><ele>1683.0</ele><time>2026-04-25T08:05:25.58Z</time></trkpt><trkpt lat="46.2680891" lon="10.6196763"><ele>1683.0</ele><time>2026-04-25T08:05:26.629Z</time></trkpt><trkpt lat="46.2681094" lon="10.6198041"><ele>1683.0</ele><time>2026-04-25T08:05:27.605Z</time></trkpt><trkpt lat="46.2681552" lon="10.6199398"><ele>1683.0</ele><time>2026-04-25T08:05:29.607Z</time></trkpt><trkpt lat="46.2682595" lon="10.6200056"><ele>1683.0</ele><time>2026-04-25T08:05:31.619Z</time></trkpt><trkpt lat="46.2683413" lon="10.6200129"><ele>1686.2</ele><time>2026-04-25T08:05:32.611Z</time></trkpt><trkpt lat="46.2684258" lon="10.6200073"><ele>1689.4</ele><time>2026-04-25T08:05:33.61Z</time></trkpt><trkpt lat="46.2685411" lon="10.619976"><ele>1692.6000000000001</ele><time>2026-04-25T08:05:34.612Z</time></trkpt><trkpt lat="46.268656" lon="10.6199392"><ele>1695.8000000000002</ele><time>2026-04-25T08:05:35.651Z</time></trkpt><trkpt lat="46.2687465" lon="10.6199017"><ele>1699.0</ele><time>2026-04-25T08:05:36.622Z</time></trkpt><trkpt lat="46.268843" lon="10.6198768"><ele>1699.6</ele><time>2026-04-25T08:05:37.599Z</time></trkpt><trkpt lat="46.2689465" lon="10.6198746"><ele>1700.2</ele><time>2026-04-25T08:05:38.631Z</time></trkpt><trkpt lat="46.2690401" lon="10.6198619"><ele>1700.8</ele><time>2026-04-25T08:05:39.614Z</time></trkpt><trkpt lat="46.2691326" lon="10.6198248"><ele>1701.3999999999999</ele><time>2026-04-25T08:05:40.594Z</time></trkpt><trkpt lat="46.2692344" lon="10.6197839"><ele>1702.0</ele><time>2026-04-25T08:05:41.616Z</time></trkpt><trkpt lat="46.2693351" lon="10.6197617"><ele>1702.0</ele><time>2026-04-25T08:05:42.606Z</time></trkpt><trkpt lat="46.2694391" lon="10.6197531"><ele>1702.0</ele><time>2026-04-25T08:05:43.649Z</time></trkpt><trkpt lat="46.2695276" lon="10.6197536"><ele>1702.0</ele><time>2026-04-25T08:05:44.613Z</time></trkpt><trkpt lat="46.269619" lon="10.6197556"><ele>1702.0</ele><time>2026-04-25T08:05:45.614Z</time></trkpt><trkpt lat="46.2697213" lon="10.6197642"><ele>1702.0</ele><time>2026-04-25T08:05:46.623Z</time></trkpt><trkpt lat="46.269847" lon="10.6197661"><ele>1706.6666666666667</ele><time>2026-04-25T08:05:47.612Z</time></trkpt><trkpt lat="46.2699421" lon="10.6197642"><ele>1711.3333333333335</ele><time>2026-04-25T08:05:48.593Z</time></trkpt><trkpt lat="46.2700226" lon="10.6197481"><ele>1716.0</ele><time>2026-04-25T08:05:50.6Z</time></trkpt><trkpt lat="46.269943" lon="10.6197184"><ele>1720.6666666666665</ele><time>2026-04-25T08:05:53.578Z</time></trkpt><trkpt lat="46.2699525" lon="10.6195785"><ele>1725.3333333333333</ele><time>2026-04-25T08:05:54.617Z</time></trkpt><trkpt lat="46.2698983" lon="10.6194874"><ele>1730.0</ele><time>2026-04-25T08:05:55.619Z</time></trkpt><trkpt lat="46.2698259" lon="10.6196274"><ele>1716.0</ele><time>2026-04-25T08:05:57.609Z</time></trkpt><trkpt lat="46.2696831" lon="10.6200681"><ele>1702.0</ele><time>2026-04-25T08:05:58.612Z</time></trkpt><trkpt lat="46.2696104" lon="10.6202974"><ele>1697.75</ele><time>2026-04-25T08:05:59.635Z</time></trkpt><trkpt lat="46.2695498" lon="10.6204698"><ele>1693.5</ele><time>2026-04-25T08:06:00.615Z</time></trkpt><trkpt lat="46.269492" lon="10.6206444"><ele>1689.25</ele><time>2026-04-25T08:06:01.613Z</time></trkpt><trkpt lat="46.2694627" lon="10.6208178"><ele>1685.0</ele><time>2026-04-25T08:06:02.587Z</time></trkpt><trkpt lat="46.2694805" lon="10.6210298"><ele>1683.75</ele><time>2026-04-25T08:06:03.623Z</time></trkpt><trkpt lat="46.2695152" lon="10.6212126"><ele>1682.5</ele><time>2026-04-25T08:06:04.626Z</time></trkpt><trkpt lat="46.2695567" lon="10.6213742"><ele>1681.25</ele><time>2026-04-25T08:06:05.624Z</time></trkpt><trkpt lat="46.2695937" lon="10.6215336"><ele>1680.0</ele><time>2026-04-25T08:06:06.633Z</time></trkpt><trkpt lat="46.2696241" lon="10.6216834"><ele>1680.0</ele><time>2026-04-25T08:06:07.625Z</time></trkpt><trkpt lat="46.2696678" lon="10.6218346"><ele>1680.0</ele><time>2026-04-25T08:06:08.637Z</time></trkpt><trkpt lat="46.2697421" lon="10.6219536"><ele>1680.0</ele><time>2026-04-25T08:06:09.628Z</time></trkpt><trkpt lat="46.2698332" lon="10.6220255"><ele>1680.0</ele><time>2026-04-25T08:06:10.615Z</time></trkpt><trkpt lat="46.2699281" lon="10.6220981"><ele>1680.0</ele><time>2026-04-25T08:06:11.622Z</time></trkpt><trkpt lat="46.2700162" lon="10.6221892"><ele>1687.25</ele><time>2026-04-25T08:06:12.605Z</time></trkpt><trkpt lat="46.2700936" lon="10.6223143"><ele>1694.5</ele><time>2026-04-25T08:06:13.617Z</time></trkpt><trkpt lat="46.2701486" lon="10.6224688"><ele>1701.75</ele><time>2026-04-25T08:06:14.627Z</time></trkpt><trkpt lat="46.2701825" lon="10.622641"><ele>1709.0</ele><time>2026-04-25T08:06:15.6Z</time></trkpt><trkpt lat="46.2702231" lon="10.6228207"><ele>1709.0</ele><time>2026-04-25T08:06:16.62Z</time></trkpt><trkpt lat="46.2702636" lon="10.6230102"><ele>1709.0</ele><time>2026-04-25T08:06:17.616Z</time></trkpt><trkpt lat="46.2703157" lon="10.6231904"><ele>1709.0</ele><time>2026-04-25T08:06:18.619Z</time></trkpt><trkpt lat="46.2703729" lon="10.6233744"><ele>1709.0</ele><time>2026-04-25T08:06:19.607Z</time></trkpt><trkpt lat="46.2704369" lon="10.6235642"><ele>1713.0</ele><time>2026-04-25T08:06:20.596Z</time></trkpt><trkpt lat="46.2705077" lon="10.6237573"><ele>1717.0</ele><time>2026-04-25T08:06:21.615Z</time></trkpt><trkpt lat="46.2705803" lon="10.6239512"><ele>1721.0</ele><time>2026-04-25T08:06:22.621Z</time></trkpt><trkpt lat="46.2706538" lon="10.6241266"><ele>1725.0</ele><time>2026-04-25T08:06:23.59Z</time></trkpt><trkpt lat="46.270726" lon="10.6243112"><ele>1718.75</ele><time>2026-04-25T08:06:24.599Z</time></trkpt><trkpt lat="46.2708031" lon="10.6244923"><ele>1712.5</ele><time>2026-04-25T08:06:25.638Z</time></trkpt><trkpt lat="46.2708819" lon="10.624656"><ele>1706.25</ele><time>2026-04-25T08:06:26.63Z</time></trkpt><trkpt lat="46.2709616" lon="10.6248144"><ele>1700.0</ele><time>2026-04-25T08:06:27.607Z</time></trkpt><trkpt lat="46.2710432" lon="10.62497"><ele>1700.0</ele><time>2026-04-25T08:06:28.581Z</time></trkpt><trkpt lat="46.271133" lon="10.6251287"><ele>1700.0</ele><time>2026-04-25T08:06:29.609Z</time></trkpt><trkpt lat="46.2712286" lon="10.6252826"><ele>1700.0</ele><time>2026-04-25T08:06:30.631Z</time></trkpt><trkpt lat="46.2713205" lon="10.6254345"><ele>1700.0</ele><time>2026-04-25T08:06:31.607Z</time></trkpt><trkpt lat="46.2714157" lon="10.6255868"><ele>1696.5</ele><time>2026-04-25T08:06:32.592Z</time></trkpt><trkpt lat="46.2715113" lon="10.6257507"><ele>1693.0</ele><time>2026-04-25T08:06:33.619Z</time></trkpt><trkpt lat="46.2716016" lon="10.6258962"><ele>1689.5</ele><time>2026-04-25T08:06:34.605Z</time></trkpt><trkpt lat="46.2716894" lon="10.6260432"><ele>1686.0</ele><time>2026-04-25T08:06:35.605Z</time></trkpt><trkpt lat="46.2717781" lon="10.6261956"><ele>1686.0</ele><time>2026-04-25T08:06:36.64Z</time></trkpt><trkpt lat="46.2718565" lon="10.6263337"><ele>1686.0</ele><time>2026-04-25T08:06:37.602Z</time></trkpt><trkpt lat="46.2719262" lon="10.6264897"><ele>1686.0</ele><time>2026-04-25T08:06:38.61Z</time></trkpt><trkpt lat="46.271979" lon="10.6266612"><ele>1686.0</ele><time>2026-04-25T08:06:39.631Z</time></trkpt><trkpt lat="46.2720256" lon="10.6268266"><ele>1689.75</ele><time>2026-04-25T08:06:40.6Z</time></trkpt><trkpt lat="46.2720912" lon="10.6269893"><ele>1693.5</ele><time>2026-04-25T08:06:41.616Z</time></trkpt><trkpt lat="46.2721731" lon="10.6271307"><ele>1697.25</ele><time>2026-04-25T08:06:42.637Z</time></trkpt><trkpt lat="46.2722657" lon="10.6272528"><ele>1701.0</ele><time>2026-04-25T08:06:43.626Z</time></trkpt><trkpt lat="46.2723622" lon="10.6273748"><ele>1701.0</ele><time>2026-04-25T08:06:44.601Z</time></trkpt><trkpt lat="46.2724683" lon="10.6274933"><ele>1701.0</ele><time>2026-04-25T08:06:45.622Z</time></trkpt><trkpt lat="46.2725716" lon="10.6275908"><ele>1701.0</ele><time>2026-04-25T08:06:46.613Z</time></trkpt><trkpt lat="46.2726748" lon="10.6276927"><ele>1701.0</ele><time>2026-04-25T08:06:47.623Z</time></trkpt><trkpt lat="46.2727714" lon="10.6278021"><ele>1691.5</ele><time>2026-04-25T08:06:48.612Z</time></trkpt><trkpt lat="46.2728516" lon="10.6279476"><ele>1682.0</ele><time>2026-04-25T08:06:49.626Z</time></trkpt><trkpt lat="46.272893" lon="10.628134"><ele>1672.5</ele><time>2026-04-25T08:06:50.616Z</time></trkpt><trkpt lat="46.2729232" lon="10.6283153"><ele>1663.0</ele><time>2026-04-25T08:06:51.629Z</time></trkpt><trkpt lat="46.2729572" lon="10.6284854"><ele>1665.0</ele><time>2026-04-25T08:06:52.601Z</time></trkpt><trkpt lat="46.2730062" lon="10.6286539"><ele>1667.0</ele><time>2026-04-25T08:06:53.637Z</time></trkpt><trkpt lat="46.2730661" lon="10.6288013"><ele>1669.0</ele><time>2026-04-25T08:06:54.586Z</time></trkpt><trkpt lat="46.2731451" lon="10.6289622"><ele>1671.0</ele><time>2026-04-25T08:06:55.63Z</time></trkpt><trkpt lat="46.2732292" lon="10.6291103"><ele>1671.0</ele><time>2026-04-25T08:06:56.613Z</time></trkpt><trkpt lat="46.2733166" lon="10.6292706"><ele>1671.0</ele><time>2026-04-25T08:06:57.613Z</time></trkpt><trkpt lat="46.2734061" lon="10.6294418"><ele>1671.0</ele><time>2026-04-25T08:06:58.626Z</time></trkpt><trkpt lat="46.2734957" lon="10.629613"><ele>1671.0</ele><time>2026-04-25T08:06:59.622Z</time></trkpt><trkpt lat="46.2735815" lon="10.6298028"><ele>1661.3333333333335</ele><time>2026-04-25T08:07:00.617Z</time></trkpt><trkpt lat="46.2736736" lon="10.6299855"><ele>1651.6666666666667</ele><time>2026-04-25T08:07:01.625Z</time></trkpt><trkpt lat="46.2737596" lon="10.6301904"><ele>1642.0</ele><time>2026-04-25T08:07:02.634Z</time></trkpt><trkpt lat="46.2738479" lon="10.6303778"><ele>1646.0</ele><time>2026-04-25T08:07:03.606Z</time></trkpt><trkpt lat="46.2739457" lon="10.6305584"><ele>1650.0</ele><time>2026-04-25T08:07:04.625Z</time></trkpt><trkpt lat="46.2740397" lon="10.6307242"><ele>1654.0</ele><time>2026-04-25T08:07:05.595Z</time></trkpt><trkpt lat="46.2741376" lon="10.6308907"><ele>1654.0</ele><time>2026-04-25T08:07:06.62Z</time></trkpt><trkpt lat="46.2742232" lon="10.6310639"><ele>1654.0</ele><time>2026-04-25T08:07:07.624Z</time></trkpt><trkpt lat="46.274296" lon="10.6312472"><ele>1654.0</ele><time>2026-04-25T08:07:08.635Z</time></trkpt><trkpt lat="46.2743604" lon="10.631424"><ele>1654.0</ele><time>2026-04-25T08:07:09.611Z</time></trkpt><trkpt lat="46.2744319" lon="10.6315953"><ele>1649.0</ele><time>2026-04-25T08:07:10.589Z</time></trkpt><trkpt lat="46.274521" lon="10.6317712"><ele>1644.0</ele><time>2026-04-25T08:07:11.628Z</time></trkpt><trkpt lat="46.2746072" lon="10.6319409"><ele>1639.0</ele><time>2026-04-25T08:07:12.613Z</time></trkpt><trkpt lat="46.2746913" lon="10.6321114"><ele>1634.0</ele><time>2026-04-25T08:07:13.566Z</time></trkpt><trkpt lat="46.2747737" lon="10.6322807"><ele>1634.0</ele><time>2026-04-25T08:07:14.572Z</time></trkpt><trkpt lat="46.2748575" lon="10.6324498"><ele>1634.0</ele><time>2026-04-25T08:07:15.574Z</time></trkpt><trkpt lat="46.2749461" lon="10.6326097"><ele>1634.0</ele><time>2026-04-25T08:07:16.564Z</time></trkpt><trkpt lat="46.2750414" lon="10.6327753"><ele>1634.0</ele><time>2026-04-25T08:07:17.577Z</time></trkpt><trkpt lat="46.2751354" lon="10.6329412"><ele>1621.3333333333333</ele><time>2026-04-25T08:07:18.554Z</time></trkpt><trkpt lat="46.2752304" lon="10.6331171"><ele>1608.6666666666665</ele><time>2026-04-25T08:07:19.561Z</time></trkpt><trkpt lat="46.275327" lon="10.6333009"><ele>1596.0</ele><time>2026-04-25T08:07:20.582Z</time></trkpt><trkpt lat="46.2754244" lon="10.6334812"><ele>1602.6666666666665</ele><time>2026-04-25T08:07:21.576Z</time></trkpt><trkpt lat="46.2755223" lon="10.6336611"><ele>1609.3333333333333</ele><time>2026-04-25T08:07:22.566Z</time></trkpt><trkpt lat="46.2756186" lon="10.6338459"><ele>1616.0</ele><time>2026-04-25T08:07:23.561Z</time></trkpt><trkpt lat="46.2757175" lon="10.6340327"><ele>1616.0</ele><time>2026-04-25T08:07:24.559Z</time></trkpt><trkpt lat="46.2758205" lon="10.6342269"><ele>1616.0</ele><time>2026-04-25T08:07:25.585Z</time></trkpt><trkpt lat="46.2759215" lon="10.634412"><ele>1616.0</ele><time>2026-04-25T08:07:26.566Z</time></trkpt><trkpt lat="46.2760252" lon="10.6345979"><ele>1605.6666666666665</ele><time>2026-04-25T08:07:27.555Z</time></trkpt><trkpt lat="46.2761326" lon="10.6347898"><ele>1595.3333333333335</ele><time>2026-04-25T08:07:28.569Z</time></trkpt><trkpt lat="46.276235" lon="10.6349825"><ele>1585.0</ele><time>2026-04-25T08:07:29.572Z</time></trkpt><trkpt lat="46.2763383" lon="10.6351755"><ele>1591.6666666666667</ele><time>2026-04-25T08:07:30.572Z</time></trkpt><trkpt lat="46.2764409" lon="10.6353652"><ele>1598.3333333333335</ele><time>2026-04-25T08:07:31.559Z</time></trkpt><trkpt lat="46.2765467" lon="10.6355584"><ele>1605.0</ele><time>2026-04-25T08:07:32.565Z</time></trkpt><trkpt lat="46.276656" lon="10.6357462"><ele>1605.0</ele><time>2026-04-25T08:07:33.56Z</time></trkpt><trkpt lat="46.2767622" lon="10.6359415"><ele>1605.0</ele><time>2026-04-25T08:07:34.57Z</time></trkpt><trkpt lat="46.2768645" lon="10.6361271"><ele>1605.0</ele><time>2026-04-25T08:07:35.561Z</time></trkpt><trkpt lat="46.2769697" lon="10.6363198"><ele>1609.6666666666665</ele><time>2026-04-25T08:07:36.582Z</time></trkpt><trkpt lat="46.2770689" lon="10.6364937"><ele>1614.3333333333333</ele><time>2026-04-25T08:07:37.548Z</time></trkpt><trkpt lat="46.2771755" lon="10.6366575"><ele>1619.0</ele><time>2026-04-25T08:07:38.56Z</time></trkpt><trkpt lat="46.2772903" lon="10.6368057"><ele>1619.0</ele><time>2026-04-25T08:07:39.565Z</time></trkpt><trkpt lat="46.277401" lon="10.6369328"><ele>1619.0</ele><time>2026-04-25T08:07:40.562Z</time></trkpt><trkpt lat="46.2774926" lon="10.6370413"><ele>1619.0</ele><time>2026-04-25T08:07:41.568Z</time></trkpt><trkpt lat="46.2775613" lon="10.6371516"><ele>1619.0</ele><time>2026-04-25T08:07:42.559Z</time></trkpt><trkpt lat="46.2776177" lon="10.6372726"><ele>1611.2</ele><time>2026-04-25T08:07:43.55Z</time></trkpt><trkpt lat="46.2776714" lon="10.6374007"><ele>1603.4</ele><time>2026-04-25T08:07:44.562Z</time></trkpt><trkpt lat="46.2777306" lon="10.6375326"><ele>1595.6</ele><time>2026-04-25T08:07:45.581Z</time></trkpt><trkpt lat="46.2777972" lon="10.6376493"><ele>1587.8</ele><time>2026-04-25T08:07:46.555Z</time></trkpt><trkpt lat="46.2778734" lon="10.637751"><ele>1580.0</ele><time>2026-04-25T08:07:47.569Z</time></trkpt><trkpt lat="46.2779563" lon="10.6378403"><ele>1581.9999999999998</ele><time>2026-04-25T08:07:48.574Z</time></trkpt><trkpt lat="46.2780327" lon="10.6379279"><ele>1584.0</ele><time>2026-04-25T08:07:49.569Z</time></trkpt><trkpt lat="46.2781043" lon="10.6380144"><ele>1586.0</ele><time>2026-04-25T08:07:50.554Z</time></trkpt><trkpt lat="46.278173" lon="10.6380895"><ele>1588.0</ele><time>2026-04-25T08:07:51.558Z</time></trkpt><trkpt lat="46.2782379" lon="10.6381618"><ele>1589.9999999999998</ele><time>2026-04-25T08:07:52.545Z</time></trkpt><trkpt lat="46.2783004" lon="10.6382331"><ele>1592.0</ele><time>2026-04-25T08:07:53.56Z</time></trkpt><trkpt lat="46.2783539" lon="10.6382988"><ele>1592.0</ele><time>2026-04-25T08:07:54.567Z</time></trkpt><trkpt lat="46.2784035" lon="10.63836"><ele>1592.0</ele><time>2026-04-25T08:07:55.555Z</time></trkpt><trkpt lat="46.2784852" lon="10.6384765"><ele>1592.0</ele><time>2026-04-25T08:07:57.549Z</time></trkpt><trkpt lat="46.2785645" lon="10.6385893"><ele>1592.0</ele><time>2026-04-25T08:07:59.558Z</time></trkpt><trkpt lat="46.2786323" lon="10.6387003"><ele>1592.0</ele><time>2026-04-25T08:08:01.553Z</time></trkpt><trkpt lat="46.2786815" lon="10.6388093"><ele>1585.1999999999998</ele><time>2026-04-25T08:08:03.584Z</time></trkpt><trkpt lat="46.2787181" lon="10.6389163"><ele>1578.4</ele><time>2026-04-25T08:08:05.552Z</time></trkpt><trkpt lat="46.2787451" lon="10.6390245"><ele>1571.6</ele><time>2026-04-25T08:08:07.55Z</time></trkpt><trkpt lat="46.2787696" lon="10.6391529"><ele>1564.8000000000002</ele><time>2026-04-25T08:08:09.555Z</time></trkpt><trkpt lat="46.2787921" lon="10.639303"><ele>1558.0</ele><time>2026-04-25T08:08:11.555Z</time></trkpt><trkpt lat="46.2788023" lon="10.6394586"><ele>1554.2</ele><time>2026-04-25T08:08:13.574Z</time></trkpt><trkpt lat="46.2788128" lon="10.6395992"><ele>1550.4</ele><time>2026-04-25T08:08:15.55Z</time></trkpt><trkpt lat="46.278822" lon="10.6396939"><ele>1546.6000000000001</ele><time>2026-04-25T08:08:17.548Z</time></trkpt><trkpt lat="46.2788491" lon="10.6398396"><ele>1542.8000000000002</ele><time>2026-04-25T08:08:20.566Z</time></trkpt><trkpt lat="46.2788819" lon="10.6399705"><ele>1539.0</ele><time>2026-04-25T08:08:22.56Z</time></trkpt><trkpt lat="46.2789208" lon="10.6400956"><ele>1543.2</ele><time>2026-04-25T08:08:24.586Z</time></trkpt><trkpt lat="46.2789706" lon="10.6402203"><ele>1547.4</ele><time>2026-04-25T08:08:26.576Z</time></trkpt><trkpt lat="46.2790432" lon="10.6403303"><ele>1551.6</ele><time>2026-04-25T08:08:28.579Z</time></trkpt><trkpt lat="46.2791192" lon="10.6404451"><ele>1555.8</ele><time>2026-04-25T08:08:30.567Z</time></trkpt><trkpt lat="46.2792206" lon="10.6405555"><ele>1560.0</ele><time>2026-04-25T08:08:32.563Z</time></trkpt><trkpt lat="46.2792798" lon="10.6406119"><ele>1560.0</ele><time>2026-04-25T08:08:33.553Z</time></trkpt><trkpt lat="46.2793448" lon="10.6406683"><ele>1560.0</ele><time>2026-04-25T08:08:34.585Z</time></trkpt><trkpt lat="46.2794097" lon="10.6407239"><ele>1560.0</ele><time>2026-04-25T08:08:35.564Z</time></trkpt><trkpt lat="46.279472" lon="10.6407951"><ele>1560.0</ele><time>2026-04-25T08:08:36.565Z</time></trkpt><trkpt lat="46.2795277" lon="10.6408837"><ele>1560.0</ele><time>2026-04-25T08:08:37.562Z</time></trkpt><trkpt lat="46.2795686" lon="10.6409932"><ele>1560.0</ele><time>2026-04-25T08:08:38.579Z</time></trkpt><trkpt lat="46.2795964" lon="10.6411173"><ele>1555.2</ele><time>2026-04-25T08:08:39.556Z</time></trkpt><trkpt lat="46.279609" lon="10.6412481"><ele>1550.4</ele><time>2026-04-25T08:08:40.545Z</time></trkpt><trkpt lat="46.2796144" lon="10.6413877"><ele>1545.6</ele><time>2026-04-25T08:08:41.572Z</time></trkpt><trkpt lat="46.27962" lon="10.6415126"><ele>1540.8</ele><time>2026-04-25T08:08:42.566Z</time></trkpt><trkpt lat="46.2796553" lon="10.6416293"><ele>1536.0</ele><time>2026-04-25T08:08:43.554Z</time></trkpt><trkpt lat="46.2797148" lon="10.6417237"><ele>1540.8</ele><time>2026-04-25T08:08:44.571Z</time></trkpt><trkpt lat="46.2797918" lon="10.6418167"><ele>1545.6</ele><time>2026-04-25T08:08:45.556Z</time></trkpt><trkpt lat="46.2798741" lon="10.6419048"><ele>1550.4</ele><time>2026-04-25T08:08:46.578Z</time></trkpt><trkpt lat="46.2799496" lon="10.6419872"><ele>1555.2</ele><time>2026-04-25T08:08:47.555Z</time></trkpt><trkpt lat="46.2800054" lon="10.6420727"><ele>1560.0</ele><time>2026-04-25T08:08:48.553Z</time></trkpt><trkpt lat="46.2800434" lon="10.6421701"><ele>1560.0</ele><time>2026-04-25T08:08:49.57Z</time></trkpt><trkpt lat="46.2800391" lon="10.6422771"><ele>1560.0</ele><time>2026-04-25T08:08:50.549Z</time></trkpt><trkpt lat="46.2800014" lon="10.6423714"><ele>1560.0</ele><time>2026-04-25T08:08:51.55Z</time></trkpt><trkpt lat="46.2799358" lon="10.6424388"><ele>1560.0</ele><time>2026-04-25T08:08:52.569Z</time></trkpt><trkpt lat="46.2798559" lon="10.6424716"><ele>1560.0</ele><time>2026-04-25T08:08:53.557Z</time></trkpt><trkpt lat="46.2797699" lon="10.6424809"><ele>1560.0</ele><time>2026-04-25T08:08:54.559Z</time></trkpt><trkpt lat="46.2796836" lon="10.6425097"><ele>1553.2</ele><time>2026-04-25T08:08:55.568Z</time></trkpt><trkpt lat="46.2796012" lon="10.6425609"><ele>1546.4</ele><time>2026-04-25T08:08:56.553Z</time></trkpt><trkpt lat="46.2795143" lon="10.6426262"><ele>1539.6</ele><time>2026-04-25T08:08:57.577Z</time></trkpt><trkpt lat="46.279422" lon="10.6427035"><ele>1532.8</ele><time>2026-04-25T08:08:58.557Z</time></trkpt><trkpt lat="46.2793371" lon="10.6427908"><ele>1526.0</ele><time>2026-04-25T08:08:59.563Z</time></trkpt><trkpt lat="46.2792772" lon="10.6428988"><ele>1526.0</ele><time>2026-04-25T08:09:00.572Z</time></trkpt><trkpt lat="46.27925" lon="10.6430234"><ele>1526.0</ele><time>2026-04-25T08:09:01.573Z</time></trkpt><trkpt lat="46.279247" lon="10.6431701"><ele>1526.0</ele><time>2026-04-25T08:09:02.547Z</time></trkpt><trkpt lat="46.2792599" lon="10.6433259"><ele>1526.0</ele><time>2026-04-25T08:09:03.556Z</time></trkpt><trkpt lat="46.2792988" lon="10.6434709"><ele>1526.0</ele><time>2026-04-25T08:09:04.567Z</time></trkpt><trkpt lat="46.279361" lon="10.6435963"><ele>1523.1999999999998</ele><time>2026-04-25T08:09:05.551Z</time></trkpt><trkpt lat="46.2794442" lon="10.6436964"><ele>1520.3999999999999</ele><time>2026-04-25T08:09:06.552Z</time></trkpt><trkpt lat="46.27954" lon="10.6437908"><ele>1517.6</ele><time>2026-04-25T08:09:07.589Z</time></trkpt><trkpt lat="46.2796175" lon="10.6439"><ele>1514.8</ele><time>2026-04-25T08:09:08.558Z</time></trkpt><trkpt lat="46.2796809" lon="10.6440405"><ele>1512.0</ele><time>2026-04-25T08:09:09.583Z</time></trkpt><trkpt lat="46.2797209" lon="10.6441946"><ele>1512.0</ele><time>2026-04-25T08:09:10.56Z</time></trkpt><trkpt lat="46.2797544" lon="10.6443596"><ele>1512.0</ele><time>2026-04-25T08:09:11.554Z</time></trkpt><trkpt lat="46.2797809" lon="10.6445344"><ele>1512.0</ele><time>2026-04-25T08:09:12.567Z</time></trkpt><trkpt lat="46.2797893" lon="10.6447045"><ele>1512.0</ele><time>2026-04-25T08:09:13.552Z</time></trkpt><trkpt lat="46.2797724" lon="10.6448745"><ele>1509.5</ele><time>2026-04-25T08:09:14.545Z</time></trkpt><trkpt lat="46.2797317" lon="10.6450426"><ele>1507.0</ele><time>2026-04-25T08:09:15.582Z</time></trkpt><trkpt lat="46.2797078" lon="10.6451901"><ele>1504.5</ele><time>2026-04-25T08:09:16.568Z</time></trkpt><trkpt lat="46.2797153" lon="10.6453453"><ele>1502.0</ele><time>2026-04-25T08:09:17.585Z</time></trkpt><trkpt lat="46.2797481" lon="10.6455053"><ele>1511.25</ele><time>2026-04-25T08:09:18.569Z</time></trkpt><trkpt lat="46.2797957" lon="10.6456821"><ele>1520.5</ele><time>2026-04-25T08:09:19.573Z</time></trkpt><trkpt lat="46.2798427" lon="10.6458668"><ele>1529.75</ele><time>2026-04-25T08:09:20.562Z</time></trkpt><trkpt lat="46.2798772" lon="10.6460568"><ele>1539.0</ele><time>2026-04-25T08:09:21.569Z</time></trkpt><trkpt lat="46.2799144" lon="10.646305"><ele>1539.0</ele><time>2026-04-25T08:09:22.924Z</time></trkpt><trkpt lat="46.2799381" lon="10.646585"><ele>1539.0</ele><time>2026-04-25T08:09:24.622Z</time></trkpt><trkpt lat="46.2799233" lon="10.6467607"><ele>1539.0</ele><time>2026-04-25T08:09:25.645Z</time></trkpt><trkpt lat="46.2798984" lon="10.6469119"><ele>1539.0</ele><time>2026-04-25T08:09:26.614Z</time></trkpt><trkpt lat="46.2798797" lon="10.6470592"><ele>1536.4</ele><time>2026-04-25T08:09:27.628Z</time></trkpt><trkpt lat="46.2798883" lon="10.6471978"><ele>1533.8000000000002</ele><time>2026-04-25T08:09:28.603Z</time></trkpt><trkpt lat="46.2799343" lon="10.6473408"><ele>1531.1999999999998</ele><time>2026-04-25T08:09:29.613Z</time></trkpt><trkpt lat="46.2799911" lon="10.6474928"><ele>1528.6</ele><time>2026-04-25T08:09:30.633Z</time></trkpt><trkpt lat="46.2800347" lon="10.6476589"><ele>1526.0</ele><time>2026-04-25T08:09:31.615Z</time></trkpt><trkpt lat="46.2800633" lon="10.6478473"><ele>1520.6666666666667</ele><time>2026-04-25T08:09:32.6Z</time></trkpt><trkpt lat="46.2800848" lon="10.6480734"><ele>1515.3333333333333</ele><time>2026-04-25T08:09:33.595Z</time></trkpt><trkpt lat="46.2801098" lon="10.6483148"><ele>1510.0</ele><time>2026-04-25T08:09:34.622Z</time></trkpt><trkpt lat="46.2801423" lon="10.648545"><ele>1507.0</ele><time>2026-04-25T08:09:35.635Z</time></trkpt><trkpt lat="46.2801708" lon="10.6487644"><ele>1504.0</ele><time>2026-04-25T08:09:36.614Z</time></trkpt><trkpt lat="46.2801977" lon="10.6489856"><ele>1501.0</ele><time>2026-04-25T08:09:37.615Z</time></trkpt><trkpt lat="46.2802236" lon="10.6492061"><ele>1501.0</ele><time>2026-04-25T08:09:38.621Z</time></trkpt><trkpt lat="46.2802493" lon="10.6494195"><ele>1501.0</ele><time>2026-04-25T08:09:39.636Z</time></trkpt><trkpt lat="46.2802714" lon="10.64961"><ele>1501.0</ele><time>2026-04-25T08:09:40.609Z</time></trkpt><trkpt lat="46.2802857" lon="10.649805"><ele>1501.0</ele><time>2026-04-25T08:09:41.63Z</time></trkpt><trkpt lat="46.2802915" lon="10.6499832"><ele>1499.0</ele><time>2026-04-25T08:09:42.607Z</time></trkpt><trkpt lat="46.2802903" lon="10.6501677"><ele>1497.0</ele><time>2026-04-25T08:09:43.615Z</time></trkpt><trkpt lat="46.2802708" lon="10.650352"><ele>1495.0</ele><time>2026-04-25T08:09:44.648Z</time></trkpt><trkpt lat="46.2802422" lon="10.6505253"><ele>1493.0</ele><time>2026-04-25T08:09:45.653Z</time></trkpt><trkpt lat="46.2802259" lon="10.6506883"><ele>1491.4</ele><time>2026-04-25T08:09:46.621Z</time></trkpt><trkpt lat="46.2802293" lon="10.6508487"><ele>1489.8000000000002</ele><time>2026-04-25T08:09:47.617Z</time></trkpt><trkpt lat="46.2802627" lon="10.6510012"><ele>1488.2</ele><time>2026-04-25T08:09:48.62Z</time></trkpt><trkpt lat="46.28032" lon="10.651141"><ele>1486.6</ele><time>2026-04-25T08:09:49.645Z</time></trkpt><trkpt lat="46.2803783" lon="10.6512727"><ele>1485.0</ele><time>2026-04-25T08:09:50.634Z</time></trkpt><trkpt lat="46.2804207" lon="10.6514244"><ele>1482.2</ele><time>2026-04-25T08:09:51.648Z</time></trkpt><trkpt lat="46.2804365" lon="10.6515813"><ele>1479.4</ele><time>2026-04-25T08:09:52.632Z</time></trkpt><trkpt lat="46.2804457" lon="10.651737"><ele>1476.6</ele><time>2026-04-25T08:09:53.583Z</time></trkpt><trkpt lat="46.2804637" lon="10.6518884"><ele>1473.8</ele><time>2026-04-25T08:09:54.571Z</time></trkpt><trkpt lat="46.2805052" lon="10.6520237"><ele>1471.0</ele><time>2026-04-25T08:09:55.552Z</time></trkpt><trkpt lat="46.2805754" lon="10.652154"><ele>1473.4</ele><time>2026-04-25T08:09:56.586Z</time></trkpt><trkpt lat="46.2806352" lon="10.6522852"><ele>1475.8</ele><time>2026-04-25T08:09:57.57Z</time></trkpt><trkpt lat="46.2806636" lon="10.6524293"><ele>1478.2</ele><time>2026-04-25T08:09:58.564Z</time></trkpt><trkpt lat="46.2806788" lon="10.6525864"><ele>1480.6000000000001</ele><time>2026-04-25T08:09:59.56Z</time></trkpt><trkpt lat="46.280691" lon="10.6527491"><ele>1483.0</ele><time>2026-04-25T08:10:00.577Z</time></trkpt><trkpt lat="46.2807121" lon="10.6529067"><ele>1483.0</ele><time>2026-04-25T08:10:01.576Z</time></trkpt><trkpt lat="46.2807596" lon="10.6530464"><ele>1483.0</ele><time>2026-04-25T08:10:02.563Z</time></trkpt><trkpt lat="46.2808553" lon="10.6531997"><ele>1483.0</ele><time>2026-04-25T08:10:03.892Z</time></trkpt><trkpt lat="46.2810141" lon="10.6533426"><ele>1483.0</ele><time>2026-04-25T08:10:05.633Z</time></trkpt><trkpt lat="46.2810787" lon="10.6534569"><ele>1483.0</ele><time>2026-04-25T08:10:06.623Z</time></trkpt><trkpt lat="46.2811063" lon="10.6535945"><ele>1483.0</ele><time>2026-04-25T08:10:07.612Z</time></trkpt><trkpt lat="46.281105" lon="10.6537395"><ele>1483.0</ele><time>2026-04-25T08:10:08.616Z</time></trkpt><trkpt lat="46.2810878" lon="10.6538901"><ele>1483.0</ele><time>2026-04-25T08:10:09.625Z</time></trkpt><trkpt lat="46.2810806" lon="10.654035"><ele>1483.0</ele><time>2026-04-25T08:10:10.602Z</time></trkpt><trkpt lat="46.2810906" lon="10.6541869"><ele>1479.4</ele><time>2026-04-25T08:10:11.629Z</time></trkpt><trkpt lat="46.2811101" lon="10.6543362"><ele>1475.8000000000002</ele><time>2026-04-25T08:10:12.626Z</time></trkpt><trkpt lat="46.2811374" lon="10.6544848"><ele>1472.2</ele><time>2026-04-25T08:10:13.638Z</time></trkpt><trkpt lat="46.2811693" lon="10.6546227"><ele>1468.6</ele><time>2026-04-25T08:10:14.59Z</time></trkpt><trkpt lat="46.2812093" lon="10.654768"><ele>1465.0</ele><time>2026-04-25T08:10:15.633Z</time></trkpt><trkpt lat="46.2812678" lon="10.6548818"><ele>1467.8</ele><time>2026-04-25T08:10:16.602Z</time></trkpt><trkpt lat="46.2813494" lon="10.6549673"><ele>1470.6</ele><time>2026-04-25T08:10:17.613Z</time></trkpt><trkpt lat="46.2814479" lon="10.6550217"><ele>1473.4</ele><time>2026-04-25T08:10:18.638Z</time></trkpt><trkpt lat="46.2815575" lon="10.655056"><ele>1476.2</ele><time>2026-04-25T08:10:19.631Z</time></trkpt><trkpt lat="46.2816693" lon="10.6550937"><ele>1479.0</ele><time>2026-04-25T08:10:20.633Z</time></trkpt><trkpt lat="46.2817715" lon="10.6551326"><ele>1479.0</ele><time>2026-04-25T08:10:21.559Z</time></trkpt><trkpt lat="46.2818844" lon="10.6551753"><ele>1479.0</ele><time>2026-04-25T08:10:22.569Z</time></trkpt><trkpt lat="46.2820892" lon="10.6552478"><ele>1479.0</ele><time>2026-04-25T08:10:24.603Z</time></trkpt><trkpt lat="46.2821667" lon="10.6552979"><ele>1479.0</ele><time>2026-04-25T08:10:25.611Z</time></trkpt><trkpt lat="46.2822197" lon="10.655377"><ele>1472.6</ele><time>2026-04-25T08:10:26.598Z</time></trkpt><trkpt lat="46.2822356" lon="10.6554911"><ele>1466.2</ele><time>2026-04-25T08:10:27.59Z</time></trkpt><trkpt lat="46.2822359" lon="10.6556533"><ele>1459.8</ele><time>2026-04-25T08:10:28.622Z</time></trkpt><trkpt lat="46.2822166" lon="10.6558094"><ele>1453.3999999999999</ele><time>2026-04-25T08:10:29.603Z</time></trkpt><trkpt lat="46.2821797" lon="10.6559687"><ele>1447.0</ele><time>2026-04-25T08:10:30.598Z</time></trkpt><trkpt lat="46.2821567" lon="10.6561238"><ele>1442.75</ele><time>2026-04-25T08:10:31.614Z</time></trkpt><trkpt lat="46.2821305" lon="10.6563027"><ele>1438.5</ele><time>2026-04-25T08:10:32.635Z</time></trkpt><trkpt lat="46.2820993" lon="10.6564822"><ele>1434.25</ele><time>2026-04-25T08:10:33.626Z</time></trkpt><trkpt lat="46.2821019" lon="10.6566693"><ele>1430.0</ele><time>2026-04-25T08:10:34.636Z</time></trkpt><trkpt lat="46.282112" lon="10.6568463"><ele>1427.2</ele><time>2026-04-25T08:10:35.646Z</time></trkpt><trkpt lat="46.2821401" lon="10.6570026"><ele>1424.4</ele><time>2026-04-25T08:10:36.623Z</time></trkpt><trkpt lat="46.2821824" lon="10.6571604"><ele>1421.6</ele><time>2026-04-25T08:10:37.649Z</time></trkpt><trkpt lat="46.2822272" lon="10.6572954"><ele>1418.8</ele><time>2026-04-25T08:10:38.613Z</time></trkpt><trkpt lat="46.2822721" lon="10.6574335"><ele>1416.0</ele><time>2026-04-25T08:10:39.613Z</time></trkpt><trkpt lat="46.2823147" lon="10.6575661"><ele>1418.0</ele><time>2026-04-25T08:10:40.59Z</time></trkpt><trkpt lat="46.2823695" lon="10.6576923"><ele>1420.0</ele><time>2026-04-25T08:10:41.629Z</time></trkpt><trkpt lat="46.2824339" lon="10.6577952"><ele>1422.0</ele><time>2026-04-25T08:10:42.628Z</time></trkpt><trkpt lat="46.2825112" lon="10.6578699"><ele>1424.0</ele><time>2026-04-25T08:10:43.606Z</time></trkpt><trkpt lat="46.2826008" lon="10.6579101"><ele>1426.0</ele><time>2026-04-25T08:10:44.599Z</time></trkpt><trkpt lat="46.2826996" lon="10.6579218"><ele>1426.0</ele><time>2026-04-25T08:10:45.608Z</time></trkpt><trkpt lat="46.2828073" lon="10.6579187"><ele>1426.0</ele><time>2026-04-25T08:10:46.617Z</time></trkpt><trkpt lat="46.2829162" lon="10.6579148"><ele>1426.0</ele><time>2026-04-25T08:10:47.644Z</time></trkpt><trkpt lat="46.2830176" lon="10.6579071"><ele>1426.0</ele><time>2026-04-25T08:10:48.627Z</time></trkpt><trkpt lat="46.2831217" lon="10.6578961"><ele>1426.0</ele><time>2026-04-25T08:10:49.629Z</time></trkpt><trkpt lat="46.283224" lon="10.6578847"><ele>1432.0</ele><time>2026-04-25T08:10:50.626Z</time></trkpt><trkpt lat="46.2833262" lon="10.6578855"><ele>1438.0</ele><time>2026-04-25T08:10:51.636Z</time></trkpt><trkpt lat="46.2834235" lon="10.6579151"><ele>1444.0</ele><time>2026-04-25T08:10:52.631Z</time></trkpt><trkpt lat="46.2835076" lon="10.6579839"><ele>1450.0</ele><time>2026-04-25T08:10:53.604Z</time></trkpt><trkpt lat="46.2835704" lon="10.6581026"><ele>1456.0</ele><time>2026-04-25T08:10:54.624Z</time></trkpt><trkpt lat="46.283609" lon="10.6582569"><ele>1456.0</ele><time>2026-04-25T08:10:55.632Z</time></trkpt><trkpt lat="46.2836315" lon="10.6584306"><ele>1456.0</ele><time>2026-04-25T08:10:56.615Z</time></trkpt><trkpt lat="46.2836486" lon="10.6586132"><ele>1456.0</ele><time>2026-04-25T08:10:57.62Z</time></trkpt><trkpt lat="46.2836567" lon="10.6587827"><ele>1456.0</ele><time>2026-04-25T08:10:58.612Z</time></trkpt><trkpt lat="46.2836503" lon="10.6589484"><ele>1447.8</ele><time>2026-04-25T08:10:59.628Z</time></trkpt><trkpt lat="46.2836322" lon="10.659109"><ele>1439.6</ele><time>2026-04-25T08:11:00.636Z</time></trkpt><trkpt lat="46.2836197" lon="10.6592676"><ele>1431.4</ele><time>2026-04-25T08:11:01.639Z</time></trkpt><trkpt lat="46.2836173" lon="10.659423"><ele>1423.2</ele><time>2026-04-25T08:11:02.619Z</time></trkpt><trkpt lat="46.2836247" lon="10.6595849"><ele>1415.0</ele><time>2026-04-25T08:11:03.653Z</time></trkpt><trkpt lat="46.2836408" lon="10.6597367"><ele>1413.0</ele><time>2026-04-25T08:11:04.629Z</time></trkpt><trkpt lat="46.2836682" lon="10.6598895"><ele>1411.0</ele><time>2026-04-25T08:11:05.623Z</time></trkpt><trkpt lat="46.2837084" lon="10.6600365"><ele>1409.0</ele><time>2026-04-25T08:11:06.618Z</time></trkpt><trkpt lat="46.2837566" lon="10.6601755"><ele>1407.0</ele><time>2026-04-25T08:11:07.607Z</time></trkpt><trkpt lat="46.2838223" lon="10.6603206"><ele>1405.0</ele><time>2026-04-25T08:11:08.615Z</time></trkpt><trkpt lat="46.2839002" lon="10.6604672"><ele>1411.0</ele><time>2026-04-25T08:11:09.611Z</time></trkpt><trkpt lat="46.2839827" lon="10.6606136"><ele>1417.0</ele><time>2026-04-25T08:11:10.642Z</time></trkpt><trkpt lat="46.2840563" lon="10.6607425"><ele>1423.0</ele><time>2026-04-25T08:11:11.616Z</time></trkpt><trkpt lat="46.2841318" lon="10.6608726"><ele>1429.0</ele><time>2026-04-25T08:11:12.618Z</time></trkpt><trkpt lat="46.2842057" lon="10.6610007"><ele>1422.4</ele><time>2026-04-25T08:11:13.617Z</time></trkpt><trkpt lat="46.2842744" lon="10.6611181"><ele>1415.8000000000002</ele><time>2026-04-25T08:11:14.604Z</time></trkpt><trkpt lat="46.2843418" lon="10.66122"><ele>1409.1999999999998</ele><time>2026-04-25T08:11:15.605Z</time></trkpt><trkpt lat="46.2844229" lon="10.6612867"><ele>1402.6</ele><time>2026-04-25T08:11:16.632Z</time></trkpt><trkpt lat="46.2845114" lon="10.6613133"><ele>1396.0</ele><time>2026-04-25T08:11:17.634Z</time></trkpt><trkpt lat="46.2846001" lon="10.6613061"><ele>1396.0</ele><time>2026-04-25T08:11:18.61Z</time></trkpt><trkpt lat="46.2846914" lon="10.6613015"><ele>1396.0</ele><time>2026-04-25T08:11:19.619Z</time></trkpt><trkpt lat="46.2847804" lon="10.6613386"><ele>1396.0</ele><time>2026-04-25T08:11:20.644Z</time></trkpt><trkpt lat="46.284846" lon="10.66142"><ele>1396.0</ele><time>2026-04-25T08:11:21.606Z</time></trkpt><trkpt lat="46.2848857" lon="10.6615392"><ele>1396.0</ele><time>2026-04-25T08:11:22.623Z</time></trkpt><trkpt lat="46.2848973" lon="10.6616679"><ele>1397.8</ele><time>2026-04-25T08:11:23.63Z</time></trkpt><trkpt lat="46.2849058" lon="10.6617932"><ele>1399.6</ele><time>2026-04-25T08:11:24.632Z</time></trkpt><trkpt lat="46.2849271" lon="10.661911"><ele>1401.4</ele><time>2026-04-25T08:11:25.62Z</time></trkpt><trkpt lat="46.2849681" lon="10.6620332"><ele>1403.2</ele><time>2026-04-25T08:11:26.634Z</time></trkpt><trkpt lat="46.2850264" lon="10.662155"><ele>1405.0</ele><time>2026-04-25T08:11:27.613Z</time></trkpt><trkpt lat="46.2851027" lon="10.6622896"><ele>1405.0</ele><time>2026-04-25T08:11:28.64Z</time></trkpt><trkpt lat="46.2851764" lon="10.6624431"><ele>1405.0</ele><time>2026-04-25T08:11:29.647Z</time></trkpt><trkpt lat="46.2852474" lon="10.6625984"><ele>1405.0</ele><time>2026-04-25T08:11:30.624Z</time></trkpt><trkpt lat="46.285316" lon="10.662744"><ele>1405.0</ele><time>2026-04-25T08:11:31.604Z</time></trkpt><trkpt lat="46.2853915" lon="10.6628871"><ele>1406.75</ele><time>2026-04-25T08:11:32.633Z</time></trkpt><trkpt lat="46.2854727" lon="10.6630091"><ele>1408.5</ele><time>2026-04-25T08:11:33.626Z</time></trkpt><trkpt lat="46.285564" lon="10.6631173"><ele>1410.25</ele><time>2026-04-25T08:11:34.644Z</time></trkpt><trkpt lat="46.2856571" lon="10.6632158"><ele>1412.0</ele><time>2026-04-25T08:11:35.646Z</time></trkpt><trkpt lat="46.2857371" lon="10.6633255"><ele>1412.0</ele><time>2026-04-25T08:11:36.628Z</time></trkpt><trkpt lat="46.2858074" lon="10.6634528"><ele>1412.0</ele><time>2026-04-25T08:11:37.607Z</time></trkpt><trkpt lat="46.2858734" lon="10.663591"><ele>1412.0</ele><time>2026-04-25T08:11:38.616Z</time></trkpt><trkpt lat="46.2859333" lon="10.6637274"><ele>1412.0</ele><time>2026-04-25T08:11:39.598Z</time></trkpt><trkpt lat="46.285992" lon="10.6638665"><ele>1405.1999999999998</ele><time>2026-04-25T08:11:40.607Z</time></trkpt><trkpt lat="46.2860494" lon="10.6640095"><ele>1398.4</ele><time>2026-04-25T08:11:41.632Z</time></trkpt><trkpt lat="46.2861042" lon="10.6641442"><ele>1391.6</ele><time>2026-04-25T08:11:42.606Z</time></trkpt><trkpt lat="46.28616" lon="10.6642855"><ele>1384.8000000000002</ele><time>2026-04-25T08:11:43.637Z</time></trkpt><trkpt lat="46.2862149" lon="10.6644187"><ele>1378.0</ele><time>2026-04-25T08:11:44.631Z</time></trkpt><trkpt lat="46.2862811" lon="10.664533"><ele>1379.2</ele><time>2026-04-25T08:11:45.619Z</time></trkpt><trkpt lat="46.2863654" lon="10.6646145"><ele>1380.4</ele><time>2026-04-25T08:11:46.617Z</time></trkpt><trkpt lat="46.2864594" lon="10.6646627"><ele>1381.6000000000001</ele><time>2026-04-25T08:11:47.608Z</time></trkpt><trkpt lat="46.28656" lon="10.6646806"><ele>1382.8000000000002</ele><time>2026-04-25T08:11:48.626Z</time></trkpt><trkpt lat="46.2866579" lon="10.664682"><ele>1384.0</ele><time>2026-04-25T08:11:49.623Z</time></trkpt><trkpt lat="46.2867532" lon="10.664689"><ele>1384.0</ele><time>2026-04-25T08:11:50.599Z</time></trkpt><trkpt lat="46.286845" lon="10.6647287"><ele>1384.0</ele><time>2026-04-25T08:11:51.606Z</time></trkpt><trkpt lat="46.2869193" lon="10.6648096"><ele>1384.0</ele><time>2026-04-25T08:11:52.596Z</time></trkpt><trkpt lat="46.2869669" lon="10.6649319"><ele>1384.0</ele><time>2026-04-25T08:11:53.614Z</time></trkpt><trkpt lat="46.286986" lon="10.6650742"><ele>1384.0</ele><time>2026-04-25T08:11:54.61Z</time></trkpt><trkpt lat="46.2869907" lon="10.6652263"><ele>1379.8000000000002</ele><time>2026-04-25T08:11:55.605Z</time></trkpt><trkpt lat="46.286996" lon="10.6653944"><ele>1375.6000000000001</ele><time>2026-04-25T08:11:56.643Z</time></trkpt><trkpt lat="46.2870108" lon="10.6655486"><ele>1371.4</ele><time>2026-04-25T08:11:57.616Z</time></trkpt><trkpt lat="46.2870431" lon="10.6657025"><ele>1367.2</ele><time>2026-04-25T08:11:58.635Z</time></trkpt><trkpt lat="46.287094" lon="10.6658412"><ele>1363.0</ele><time>2026-04-25T08:11:59.638Z</time></trkpt><trkpt lat="46.2871544" lon="10.6659644"><ele>1363.0</ele><time>2026-04-25T08:12:00.612Z</time></trkpt><trkpt lat="46.2872284" lon="10.6660949"><ele>1363.0</ele><time>2026-04-25T08:12:01.651Z</time></trkpt><trkpt lat="46.2873006" lon="10.6662184"><ele>1363.0</ele><time>2026-04-25T08:12:02.611Z</time></trkpt><trkpt lat="46.2873763" lon="10.6663514"><ele>1363.0</ele><time>2026-04-25T08:12:03.614Z</time></trkpt><trkpt lat="46.2874517" lon="10.6664799"><ele>1365.4</ele><time>2026-04-25T08:12:04.61Z</time></trkpt><trkpt lat="46.2875355" lon="10.6665973"><ele>1367.8000000000002</ele><time>2026-04-25T08:12:05.63Z</time></trkpt><trkpt lat="46.287629" lon="10.6666907"><ele>1370.2</ele><time>2026-04-25T08:12:06.644Z</time></trkpt><trkpt lat="46.2877269" lon="10.6667618"><ele>1372.6</ele><time>2026-04-25T08:12:07.634Z</time></trkpt><trkpt lat="46.2878254" lon="10.666828"><ele>1375.0</ele><time>2026-04-25T08:12:08.618Z</time></trkpt><trkpt lat="46.2879214" lon="10.6669134"><ele>1377.0</ele><time>2026-04-25T08:12:09.641Z</time></trkpt><trkpt lat="46.2880008" lon="10.6670263"><ele>1379.0</ele><time>2026-04-25T08:12:10.622Z</time></trkpt><trkpt lat="46.2880657" lon="10.667175"><ele>1381.0</ele><time>2026-04-25T08:12:11.634Z</time></trkpt><trkpt lat="46.288107" lon="10.6673353"><ele>1383.0</ele><time>2026-04-25T08:12:12.616Z</time></trkpt><trkpt lat="46.2881383" lon="10.6675029"><ele>1383.0</ele><time>2026-04-25T08:12:13.635Z</time></trkpt><trkpt lat="46.2881635" lon="10.6676617"><ele>1383.0</ele><time>2026-04-25T08:12:14.608Z</time></trkpt><trkpt lat="46.288192" lon="10.6678253"><ele>1383.0</ele><time>2026-04-25T08:12:15.634Z</time></trkpt><trkpt lat="46.288228" lon="10.6679798"><ele>1383.0</ele><time>2026-04-25T08:12:16.64Z</time></trkpt><trkpt lat="46.2882749" lon="10.6681227"><ele>1377.75</ele><time>2026-04-25T08:12:17.643Z</time></trkpt><trkpt lat="46.2883346" lon="10.6682483"><ele>1372.5</ele><time>2026-04-25T08:12:18.61Z</time></trkpt><trkpt lat="46.2884181" lon="10.668354"><ele>1367.25</ele><time>2026-04-25T08:12:19.614Z</time></trkpt><trkpt lat="46.2885229" lon="10.6684357"><ele>1362.0</ele><time>2026-04-25T08:12:20.625Z</time></trkpt><trkpt lat="46.2886198" lon="10.6685245"><ele>1355.75</ele><time>2026-04-25T08:12:21.613Z</time></trkpt><trkpt lat="46.2886927" lon="10.6686491"><ele>1349.5</ele><time>2026-04-25T08:12:22.613Z</time></trkpt><trkpt lat="46.2887356" lon="10.6688018"><ele>1343.25</ele><time>2026-04-25T08:12:23.623Z</time></trkpt><trkpt lat="46.2887531" lon="10.6689714"><ele>1337.0</ele><time>2026-04-25T08:12:24.659Z</time></trkpt><trkpt lat="46.2887691" lon="10.6691281"><ele>1337.0</ele><time>2026-04-25T08:12:25.619Z</time></trkpt><trkpt lat="46.2888014" lon="10.6692827"><ele>1337.0</ele><time>2026-04-25T08:12:26.615Z</time></trkpt><trkpt lat="46.288851" lon="10.6694293"><ele>1337.0</ele><time>2026-04-25T08:12:27.64Z</time></trkpt><trkpt lat="46.2889114" lon="10.6695689"><ele>1337.0</ele><time>2026-04-25T08:12:28.632Z</time></trkpt><trkpt lat="46.2889826" lon="10.6697194"><ele>1334.75</ele><time>2026-04-25T08:12:29.663Z</time></trkpt><trkpt lat="46.289051" lon="10.6698612"><ele>1332.5</ele><time>2026-04-25T08:12:30.621Z</time></trkpt><trkpt lat="46.2891235" lon="10.6700017"><ele>1330.25</ele><time>2026-04-25T08:12:31.603Z</time></trkpt><trkpt lat="46.2891999" lon="10.6701462"><ele>1328.0</ele><time>2026-04-25T08:12:32.634Z</time></trkpt><trkpt lat="46.2892746" lon="10.6702897"><ele>1328.0</ele><time>2026-04-25T08:12:33.638Z</time></trkpt><trkpt lat="46.2893482" lon="10.6704336"><ele>1328.0</ele><time>2026-04-25T08:12:34.635Z</time></trkpt><trkpt lat="46.2894209" lon="10.6705773"><ele>1328.0</ele><time>2026-04-25T08:12:35.618Z</time></trkpt><trkpt lat="46.2894943" lon="10.6707261"><ele>1328.0</ele><time>2026-04-25T08:12:36.615Z</time></trkpt><trkpt lat="46.2895627" lon="10.6708795"><ele>1328.0</ele><time>2026-04-25T08:12:37.603Z</time></trkpt><trkpt lat="46.2896289" lon="10.6710485"><ele>1328.0</ele><time>2026-04-25T08:12:38.641Z</time></trkpt><trkpt lat="46.2896848" lon="10.6712186"><ele>1328.0</ele><time>2026-04-25T08:12:39.639Z</time></trkpt><trkpt lat="46.2897343" lon="10.671395"><ele>1328.0</ele><time>2026-04-25T08:12:40.634Z</time></trkpt><trkpt lat="46.289777" lon="10.6715703"><ele>1329.0</ele><time>2026-04-25T08:12:41.622Z</time></trkpt><trkpt lat="46.2898158" lon="10.6717423"><ele>1330.0</ele><time>2026-04-25T08:12:42.6Z</time></trkpt><trkpt lat="46.2898549" lon="10.6719155"><ele>1331.0</ele><time>2026-04-25T08:12:43.619Z</time></trkpt><trkpt lat="46.2898923" lon="10.6720798"><ele>1332.0</ele><time>2026-04-25T08:12:44.629Z</time></trkpt><trkpt lat="46.2899283" lon="10.6722357"><ele>1332.0</ele><time>2026-04-25T08:12:45.61Z</time></trkpt><trkpt lat="46.2899648" lon="10.6723919"><ele>1332.0</ele><time>2026-04-25T08:12:46.633Z</time></trkpt><trkpt lat="46.290009" lon="10.6725303"><ele>1332.0</ele><time>2026-04-25T08:12:47.645Z</time></trkpt><trkpt lat="46.2900716" lon="10.6726423"><ele>1332.0</ele><time>2026-04-25T08:12:48.634Z</time></trkpt><trkpt lat="46.2901486" lon="10.6727262"><ele>1332.0</ele><time>2026-04-25T08:12:49.638Z</time></trkpt><trkpt lat="46.290229" lon="10.6727855"><ele>1328.6666666666667</ele><time>2026-04-25T08:12:50.622Z</time></trkpt><trkpt lat="46.2903126" lon="10.672844"><ele>1325.3333333333333</ele><time>2026-04-25T08:12:51.65Z</time></trkpt><trkpt lat="46.2903875" lon="10.6729147"><ele>1322.0</ele><time>2026-04-25T08:12:52.645Z</time></trkpt><trkpt lat="46.290446" lon="10.6730046"><ele>1318.6666666666665</ele><time>2026-04-25T08:12:53.616Z</time></trkpt><trkpt lat="46.2904923" lon="10.6731001"><ele>1315.3333333333333</ele><time>2026-04-25T08:12:54.646Z</time></trkpt><trkpt lat="46.290522" lon="10.6731905"><ele>1312.0</ele><time>2026-04-25T08:12:55.597Z</time></trkpt><trkpt lat="46.2905374" lon="10.6732986"><ele>1312.0</ele><time>2026-04-25T08:12:56.634Z</time></trkpt><trkpt lat="46.2905361" lon="10.6734242"><ele>1312.0</ele><time>2026-04-25T08:12:57.645Z</time></trkpt><trkpt lat="46.2905402" lon="10.6735654"><ele>1312.0</ele><time>2026-04-25T08:12:58.639Z</time></trkpt><trkpt lat="46.2905675" lon="10.6737306"><ele>1312.0</ele><time>2026-04-25T08:12:59.644Z</time></trkpt><trkpt lat="46.2906016" lon="10.6738866"><ele>1312.0</ele><time>2026-04-25T08:13:00.616Z</time></trkpt><trkpt lat="46.2906378" lon="10.674045"><ele>1312.3999999999999</ele><time>2026-04-25T08:13:01.62Z</time></trkpt><trkpt lat="46.290671" lon="10.6741976"><ele>1312.8</ele><time>2026-04-25T08:13:02.595Z</time></trkpt><trkpt lat="46.2907033" lon="10.6743534"><ele>1313.2</ele><time>2026-04-25T08:13:03.607Z</time></trkpt><trkpt lat="46.2907418" lon="10.6745088"><ele>1313.6</ele><time>2026-04-25T08:13:04.633Z</time></trkpt><trkpt lat="46.290794" lon="10.6746472"><ele>1314.0</ele><time>2026-04-25T08:13:05.621Z</time></trkpt><trkpt lat="46.2908662" lon="10.67477"><ele>1314.0</ele><time>2026-04-25T08:13:06.621Z</time></trkpt><trkpt lat="46.2909442" lon="10.6748866"><ele>1314.0</ele><time>2026-04-25T08:13:07.604Z</time></trkpt><trkpt lat="46.2910164" lon="10.6750258"><ele>1314.0</ele><time>2026-04-25T08:13:08.627Z</time></trkpt><trkpt lat="46.2910715" lon="10.6751949"><ele>1314.0</ele><time>2026-04-25T08:13:09.633Z</time></trkpt><trkpt lat="46.2911066" lon="10.6753758"><ele>1308.3333333333333</ele><time>2026-04-25T08:13:10.573Z</time></trkpt><trkpt lat="46.2911363" lon="10.67558"><ele>1302.6666666666665</ele><time>2026-04-25T08:13:11.586Z</time></trkpt><trkpt lat="46.291176" lon="10.6757727"><ele>1297.0</ele><time>2026-04-25T08:13:12.578Z</time></trkpt><trkpt lat="46.2912352" lon="10.676025"><ele>1289.6666666666665</ele><time>2026-04-25T08:13:13.903Z</time></trkpt><trkpt lat="46.2913309" lon="10.6763404"><ele>1282.3333333333333</ele><time>2026-04-25T08:13:15.632Z</time></trkpt><trkpt lat="46.2913852" lon="10.6765137"><ele>1275.0</ele><time>2026-04-25T08:13:16.638Z</time></trkpt><trkpt lat="46.2914369" lon="10.6766739"><ele>1282.0</ele><time>2026-04-25T08:13:17.605Z</time></trkpt><trkpt lat="46.2914902" lon="10.6768467"><ele>1289.0</ele><time>2026-04-25T08:13:18.623Z</time></trkpt><trkpt lat="46.2915445" lon="10.6770202"><ele>1296.0</ele><time>2026-04-25T08:13:19.639Z</time></trkpt><trkpt lat="46.2916005" lon="10.6771967"><ele>1303.0</ele><time>2026-04-25T08:13:20.658Z</time></trkpt><trkpt lat="46.2916549" lon="10.6773653"><ele>1303.0</ele><time>2026-04-25T08:13:21.635Z</time></trkpt><trkpt lat="46.291708" lon="10.6775237"><ele>1303.0</ele><time>2026-04-25T08:13:22.565Z</time></trkpt><trkpt lat="46.2917651" lon="10.6776924"><ele>1303.0</ele><time>2026-04-25T08:13:23.579Z</time></trkpt><trkpt lat="46.2918265" lon="10.6778513"><ele>1303.0</ele><time>2026-04-25T08:13:24.582Z</time></trkpt><trkpt lat="46.2918941" lon="10.6779978"><ele>1297.5</ele><time>2026-04-25T08:13:25.579Z</time></trkpt><trkpt lat="46.2919683" lon="10.6781366"><ele>1292.0</ele><time>2026-04-25T08:13:26.556Z</time></trkpt><trkpt lat="46.2920407" lon="10.6782775"><ele>1286.5</ele><time>2026-04-25T08:13:27.544Z</time></trkpt><trkpt lat="46.2921047" lon="10.6784222"><ele>1281.0</ele><time>2026-04-25T08:13:28.588Z</time></trkpt><trkpt lat="46.2921616" lon="10.6785558"><ele>1284.1999999999998</ele><time>2026-04-25T08:13:29.571Z</time></trkpt><trkpt lat="46.2922251" lon="10.6786726"><ele>1287.3999999999999</ele><time>2026-04-25T08:13:30.564Z</time></trkpt><trkpt lat="46.2923023" lon="10.6787714"><ele>1290.6</ele><time>2026-04-25T08:13:31.571Z</time></trkpt><trkpt lat="46.2923899" lon="10.6788523"><ele>1293.8</ele><time>2026-04-25T08:13:32.567Z</time></trkpt><trkpt lat="46.2924784" lon="10.6789327"><ele>1297.0</ele><time>2026-04-25T08:13:33.573Z</time></trkpt><trkpt lat="46.2925532" lon="10.6790304"><ele>1297.0</ele><time>2026-04-25T08:13:34.57Z</time></trkpt><trkpt lat="46.2926125" lon="10.6791522"><ele>1297.0</ele><time>2026-04-25T08:13:35.573Z</time></trkpt><trkpt lat="46.2926553" lon="10.6792822"><ele>1297.0</ele><time>2026-04-25T08:13:36.586Z</time></trkpt><trkpt lat="46.2926892" lon="10.6794051"><ele>1297.0</ele><time>2026-04-25T08:13:37.583Z</time></trkpt><trkpt lat="46.2927211" lon="10.6795217"><ele>1297.0</ele><time>2026-04-25T08:13:38.582Z</time></trkpt><trkpt lat="46.2927491" lon="10.679636"><ele>1292.6666666666665</ele><time>2026-04-25T08:13:39.601Z</time></trkpt><trkpt lat="46.2927746" lon="10.6797528"><ele>1288.3333333333333</ele><time>2026-04-25T08:13:40.585Z</time></trkpt><trkpt lat="46.2928055" lon="10.6798677"><ele>1284.0</ele><time>2026-04-25T08:13:41.582Z</time></trkpt><trkpt lat="46.2928404" lon="10.6799831"><ele>1279.6666666666667</ele><time>2026-04-25T08:13:42.57Z</time></trkpt><trkpt lat="46.2928835" lon="10.6801022"><ele>1275.3333333333335</ele><time>2026-04-25T08:13:43.588Z</time></trkpt><trkpt lat="46.2929387" lon="10.6802082"><ele>1271.0</ele><time>2026-04-25T08:13:44.567Z</time></trkpt><trkpt lat="46.2930086" lon="10.6803038"><ele>1273.6</ele><time>2026-04-25T08:13:45.55Z</time></trkpt><trkpt lat="46.2930868" lon="10.6803959"><ele>1276.1999999999998</ele><time>2026-04-25T08:13:46.575Z</time></trkpt><trkpt lat="46.2931698" lon="10.680481"><ele>1278.8000000000002</ele><time>2026-04-25T08:13:47.574Z</time></trkpt><trkpt lat="46.2932518" lon="10.6805652"><ele>1281.4</ele><time>2026-04-25T08:13:48.556Z</time></trkpt><trkpt lat="46.2933335" lon="10.6806591"><ele>1284.0</ele><time>2026-04-25T08:13:49.578Z</time></trkpt><trkpt lat="46.2933935" lon="10.6807622"><ele>1284.0</ele><time>2026-04-25T08:13:50.543Z</time></trkpt><trkpt lat="46.2934439" lon="10.6808944"><ele>1284.0</ele><time>2026-04-25T08:13:51.566Z</time></trkpt><trkpt lat="46.2934664" lon="10.6810395"><ele>1284.0</ele><time>2026-04-25T08:13:52.568Z</time></trkpt><trkpt lat="46.2934755" lon="10.6811761"><ele>1284.0</ele><time>2026-04-25T08:13:53.587Z</time></trkpt><trkpt lat="46.2934938" lon="10.6812966"><ele>1284.0</ele><time>2026-04-25T08:13:54.559Z</time></trkpt><trkpt lat="46.293525" lon="10.6813982"><ele>1280.1666666666667</ele><time>2026-04-25T08:13:55.55Z</time></trkpt><trkpt lat="46.293576" lon="10.6814752"><ele>1276.3333333333333</ele><time>2026-04-25T08:13:56.586Z</time></trkpt><trkpt lat="46.2936393" lon="10.6815222"><ele>1272.5</ele><time>2026-04-25T08:13:57.574Z</time></trkpt><trkpt lat="46.2937199" lon="10.6815517"><ele>1268.6666666666665</ele><time>2026-04-25T08:13:58.572Z</time></trkpt><trkpt lat="46.2937937" lon="10.6815978"><ele>1264.8333333333333</ele><time>2026-04-25T08:13:59.59Z</time></trkpt><trkpt lat="46.2938535" lon="10.6816693"><ele>1261.0</ele><time>2026-04-25T08:14:00.562Z</time></trkpt><trkpt lat="46.2938901" lon="10.6817787"><ele>1261.0</ele><time>2026-04-25T08:14:01.555Z</time></trkpt><trkpt lat="46.2938977" lon="10.6819038"><ele>1261.0</ele><time>2026-04-25T08:14:02.567Z</time></trkpt><trkpt lat="46.293887" lon="10.6820247"><ele>1261.0</ele><time>2026-04-25T08:14:03.548Z</time></trkpt><trkpt lat="46.2938702" lon="10.6821424"><ele>1261.0</ele><time>2026-04-25T08:14:04.582Z</time></trkpt><trkpt lat="46.2938868" lon="10.6823445"><ele>1261.0</ele><time>2026-04-25T08:14:06.572Z</time></trkpt><trkpt lat="46.2939262" lon="10.682465"><ele>1260.8</ele><time>2026-04-25T08:14:07.581Z</time></trkpt><trkpt lat="46.2939837" lon="10.682593"><ele>1260.6</ele><time>2026-04-25T08:14:08.594Z</time></trkpt><trkpt lat="46.2940445" lon="10.6827202"><ele>1260.4</ele><time>2026-04-25T08:14:09.583Z</time></trkpt><trkpt lat="46.2941009" lon="10.6828489"><ele>1260.2</ele><time>2026-04-25T08:14:10.561Z</time></trkpt><trkpt lat="46.2941579" lon="10.6829833"><ele>1260.0</ele><time>2026-04-25T08:14:11.6Z</time></trkpt><trkpt lat="46.294212" lon="10.6831042"><ele>1260.0</ele><time>2026-04-25T08:14:12.577Z</time></trkpt><trkpt lat="46.2942626" lon="10.6832218"><ele>1260.0</ele><time>2026-04-25T08:14:13.559Z</time></trkpt><trkpt lat="46.2943153" lon="10.6833411"><ele>1260.0</ele><time>2026-04-25T08:14:14.587Z</time></trkpt><trkpt lat="46.2943655" lon="10.683455"><ele>1260.0</ele><time>2026-04-25T08:14:15.574Z</time></trkpt><trkpt lat="46.2944139" lon="10.6835739"><ele>1260.0</ele><time>2026-04-25T08:14:16.592Z</time></trkpt><trkpt lat="46.2944516" lon="10.6836922"><ele>1258.5</ele><time>2026-04-25T08:14:17.578Z</time></trkpt><trkpt lat="46.2944839" lon="10.6838174"><ele>1257.0</ele><time>2026-04-25T08:14:18.582Z</time></trkpt><trkpt lat="46.2945048" lon="10.6839469"><ele>1255.5</ele><time>2026-04-25T08:14:19.584Z</time></trkpt><trkpt lat="46.2945199" lon="10.6840805"><ele>1254.0</ele><time>2026-04-25T08:14:20.602Z</time></trkpt><trkpt lat="46.2945252" lon="10.6841947"><ele>1252.5</ele><time>2026-04-25T08:14:21.56Z</time></trkpt><trkpt lat="46.2945258" lon="10.6843032"><ele>1251.0</ele><time>2026-04-25T08:14:22.575Z</time></trkpt><trkpt lat="46.2945243" lon="10.6844031"><ele>1251.3999999999999</ele><time>2026-04-25T08:14:23.578Z</time></trkpt><trkpt lat="46.2945237" lon="10.6845065"><ele>1251.8</ele><time>2026-04-25T08:14:24.593Z</time></trkpt><trkpt lat="46.294521" lon="10.6846638"><ele>1252.1999999999998</ele><time>2026-04-25T08:14:26.533Z</time></trkpt><trkpt lat="46.2945173" lon="10.6848159"><ele>1252.6</ele><time>2026-04-25T08:14:28.58Z</time></trkpt><trkpt lat="46.2945148" lon="10.6849884"><ele>1253.0</ele><time>2026-04-25T08:14:30.573Z</time></trkpt><trkpt lat="46.294515" lon="10.6850908"><ele>1252.4</ele><time>2026-04-25T08:14:31.596Z</time></trkpt><trkpt lat="46.2945127" lon="10.6852652"><ele>1251.8</ele><time>2026-04-25T08:14:33.561Z</time></trkpt><trkpt lat="46.2945137" lon="10.6854164"><ele>1251.2</ele><time>2026-04-25T08:14:35.568Z</time></trkpt><trkpt lat="46.2945234" lon="10.6855687"><ele>1250.6</ele><time>2026-04-25T08:14:37.55Z</time></trkpt><trkpt lat="46.2945486" lon="10.6857341"><ele>1250.0</ele><time>2026-04-25T08:14:39.592Z</time></trkpt><trkpt lat="46.2945708" lon="10.6858286"><ele>1250.0</ele><time>2026-04-25T08:14:40.54Z</time></trkpt><trkpt lat="46.2946024" lon="10.6859367"><ele>1250.0</ele><time>2026-04-25T08:14:41.57Z</time></trkpt><trkpt lat="46.2946414" lon="10.6860455"><ele>1250.0</ele><time>2026-04-25T08:14:42.586Z</time></trkpt><trkpt lat="46.2946865" lon="10.6861435"><ele>1250.0</ele><time>2026-04-25T08:14:43.568Z</time></trkpt><trkpt lat="46.2947367" lon="10.6862282"><ele>1250.0</ele><time>2026-04-25T08:14:44.573Z</time></trkpt><trkpt lat="46.29479" lon="10.6863057"><ele>1250.0</ele><time>2026-04-25T08:14:45.559Z</time></trkpt><trkpt lat="46.2948547" lon="10.6863687"><ele>1251.0</ele><time>2026-04-25T08:14:46.582Z</time></trkpt><trkpt lat="46.2949194" lon="10.6864206"><ele>1252.0</ele><time>2026-04-25T08:14:47.567Z</time></trkpt><trkpt lat="46.2949868" lon="10.6864729"><ele>1253.0</ele><time>2026-04-25T08:14:48.568Z</time></trkpt><trkpt lat="46.2950532" lon="10.6865303"><ele>1254.0</ele><time>2026-04-25T08:14:49.599Z</time></trkpt><trkpt lat="46.2951195" lon="10.6865836"><ele>1255.0</ele><time>2026-04-25T08:14:50.565Z</time></trkpt><trkpt lat="46.2951953" lon="10.686647"><ele>1256.0</ele><time>2026-04-25T08:14:51.578Z</time></trkpt><trkpt lat="46.2952719" lon="10.6867083"><ele>1256.0</ele><time>2026-04-25T08:14:52.556Z</time></trkpt><trkpt lat="46.2953478" lon="10.6867663"><ele>1256.0</ele><time>2026-04-25T08:14:53.553Z</time></trkpt><trkpt lat="46.2954175" lon="10.686828"><ele>1256.0</ele><time>2026-04-25T08:14:54.565Z</time></trkpt><trkpt lat="46.2954739" lon="10.6869078"><ele>1256.0</ele><time>2026-04-25T08:14:55.588Z</time></trkpt><trkpt lat="46.2955218" lon="10.6869969"><ele>1256.0</ele><time>2026-04-25T08:14:56.582Z</time></trkpt><trkpt lat="46.295568" lon="10.6871076"><ele>1256.0</ele><time>2026-04-25T08:14:57.563Z</time></trkpt><trkpt lat="46.2956236" lon="10.6872376"><ele>1256.75</ele><time>2026-04-25T08:14:58.586Z</time></trkpt><trkpt lat="46.2956864" lon="10.6873684"><ele>1257.5</ele><time>2026-04-25T08:14:59.568Z</time></trkpt><trkpt lat="46.2957676" lon="10.6875157"><ele>1258.25</ele><time>2026-04-25T08:15:00.576Z</time></trkpt><trkpt lat="46.2958829" lon="10.6877035"><ele>1259.0</ele><time>2026-04-25T08:15:01.947Z</time></trkpt><trkpt lat="46.2960497" lon="10.6879062"><ele>1258.2</ele><time>2026-04-25T08:15:03.617Z</time></trkpt><trkpt lat="46.2961396" lon="10.6880168"><ele>1257.4</ele><time>2026-04-25T08:15:04.628Z</time></trkpt><trkpt lat="46.2962262" lon="10.6881258"><ele>1256.6</ele><time>2026-04-25T08:15:05.642Z</time></trkpt><trkpt lat="46.296301" lon="10.6882269"><ele>1255.8</ele><time>2026-04-25T08:15:06.637Z</time></trkpt><trkpt lat="46.2963679" lon="10.6883294"><ele>1255.0</ele><time>2026-04-25T08:15:07.617Z</time></trkpt><trkpt lat="46.2964315" lon="10.68844"><ele>1255.0</ele><time>2026-04-25T08:15:08.633Z</time></trkpt><trkpt lat="46.2964886" lon="10.6885521"><ele>1255.0</ele><time>2026-04-25T08:15:09.636Z</time></trkpt><trkpt lat="46.2965447" lon="10.6886721"><ele>1255.0</ele><time>2026-04-25T08:15:10.639Z</time></trkpt><trkpt lat="46.2965993" lon="10.6887953"><ele>1255.0</ele><time>2026-04-25T08:15:11.609Z</time></trkpt><trkpt lat="46.296653" lon="10.6889338"><ele>1255.0</ele><time>2026-04-25T08:15:12.613Z</time></trkpt><trkpt lat="46.2967039" lon="10.6890844"><ele>1252.5</ele><time>2026-04-25T08:15:13.632Z</time></trkpt><trkpt lat="46.2967631" lon="10.6892306"><ele>1250.0</ele><time>2026-04-25T08:15:14.633Z</time></trkpt><trkpt lat="46.2968218" lon="10.6893829"><ele>1247.5</ele><time>2026-04-25T08:15:15.634Z</time></trkpt><trkpt lat="46.2968831" lon="10.6895376"><ele>1245.0</ele><time>2026-04-25T08:15:16.622Z</time></trkpt><trkpt lat="46.2969466" lon="10.6897037"><ele>1240.25</ele><time>2026-04-25T08:15:17.64Z</time></trkpt><trkpt lat="46.2970097" lon="10.689866"><ele>1235.5</ele><time>2026-04-25T08:15:18.619Z</time></trkpt><trkpt lat="46.2970735" lon="10.69003"><ele>1230.75</ele><time>2026-04-25T08:15:19.631Z</time></trkpt><trkpt lat="46.2971332" lon="10.6901878"><ele>1226.0</ele><time>2026-04-25T08:15:20.644Z</time></trkpt><trkpt lat="46.2971772" lon="10.6903501"><ele>1224.0</ele><time>2026-04-25T08:15:21.636Z</time></trkpt><trkpt lat="46.2972206" lon="10.6905013"><ele>1222.0</ele><time>2026-04-25T08:15:22.625Z</time></trkpt><trkpt lat="46.2972502" lon="10.6906722"><ele>1220.0</ele><time>2026-04-25T08:15:23.643Z</time></trkpt><trkpt lat="46.2972592" lon="10.6908475"><ele>1218.0</ele><time>2026-04-25T08:15:24.646Z</time></trkpt><trkpt lat="46.2972464" lon="10.691025"><ele>1217.5</ele><time>2026-04-25T08:15:25.641Z</time></trkpt><trkpt lat="46.2972143" lon="10.6911984"><ele>1217.0</ele><time>2026-04-25T08:15:26.639Z</time></trkpt><trkpt lat="46.2971669" lon="10.6913574"><ele>1216.5</ele><time>2026-04-25T08:15:27.614Z</time></trkpt><trkpt lat="46.2971078" lon="10.6915069"><ele>1216.0</ele><time>2026-04-25T08:15:28.613Z</time></trkpt><trkpt lat="46.2970421" lon="10.6916492"><ele>1216.0</ele><time>2026-04-25T08:15:29.64Z</time></trkpt><trkpt lat="46.2969807" lon="10.6917805"><ele>1216.0</ele><time>2026-04-25T08:15:30.621Z</time></trkpt><trkpt lat="46.2969225" lon="10.6919215"><ele>1216.0</ele><time>2026-04-25T08:15:31.652Z</time></trkpt><trkpt lat="46.2968781" lon="10.6920618"><ele>1216.0</ele><time>2026-04-25T08:15:32.633Z</time></trkpt><trkpt lat="46.2968488" lon="10.6922199"><ele>1216.0</ele><time>2026-04-25T08:15:33.618Z</time></trkpt><trkpt lat="46.29684" lon="10.6924037"><ele>1215.75</ele><time>2026-04-25T08:15:34.647Z</time></trkpt><trkpt lat="46.2968483" lon="10.6925907"><ele>1215.5</ele><time>2026-04-25T08:15:35.624Z</time></trkpt><trkpt lat="46.2968658" lon="10.692784"><ele>1215.25</ele><time>2026-04-25T08:15:36.614Z</time></trkpt><trkpt lat="46.2968856" lon="10.6929754"><ele>1215.0</ele><time>2026-04-25T08:15:37.619Z</time></trkpt><trkpt lat="46.2969055" lon="10.6931697"><ele>1213.5</ele><time>2026-04-25T08:15:38.632Z</time></trkpt><trkpt lat="46.2969246" lon="10.6933577"><ele>1212.0</ele><time>2026-04-25T08:15:39.615Z</time></trkpt><trkpt lat="46.2969428" lon="10.6935465"><ele>1210.5</ele><time>2026-04-25T08:15:40.613Z</time></trkpt><trkpt lat="46.2969616" lon="10.6937323"><ele>1209.0</ele><time>2026-04-25T08:15:41.597Z</time></trkpt><trkpt lat="46.2969827" lon="10.6939243"><ele>1207.8</ele><time>2026-04-25T08:15:42.635Z</time></trkpt><trkpt lat="46.2970044" lon="10.694101"><ele>1206.6000000000001</ele><time>2026-04-25T08:15:43.621Z</time></trkpt><trkpt lat="46.2970298" lon="10.6942691"><ele>1205.4</ele><time>2026-04-25T08:15:44.62Z</time></trkpt><trkpt lat="46.2970574" lon="10.6944194"><ele>1204.2</ele><time>2026-04-25T08:15:45.63Z</time></trkpt><trkpt lat="46.2970886" lon="10.6945556"><ele>1203.0</ele><time>2026-04-25T08:15:46.608Z</time></trkpt><trkpt lat="46.2971233" lon="10.6947056"><ele>1203.2</ele><time>2026-04-25T08:15:47.635Z</time></trkpt><trkpt lat="46.2971589" lon="10.6948418"><ele>1203.4</ele><time>2026-04-25T08:15:48.581Z</time></trkpt><trkpt lat="46.2972023" lon="10.6949802"><ele>1203.6000000000001</ele><time>2026-04-25T08:15:49.579Z</time></trkpt><trkpt lat="46.2972458" lon="10.6951115"><ele>1203.8</ele><time>2026-04-25T08:15:50.551Z</time></trkpt><trkpt lat="46.2972956" lon="10.6952503"><ele>1204.0</ele><time>2026-04-25T08:15:51.57Z</time></trkpt><trkpt lat="46.2973505" lon="10.6953854"><ele>1204.0</ele><time>2026-04-25T08:15:52.592Z</time></trkpt><trkpt lat="46.2974101" lon="10.6955148"><ele>1204.0</ele><time>2026-04-25T08:15:53.564Z</time></trkpt><trkpt lat="46.2974754" lon="10.6956472"><ele>1204.0</ele><time>2026-04-25T08:15:54.582Z</time></trkpt><trkpt lat="46.2975363" lon="10.6957693"><ele>1204.0</ele><time>2026-04-25T08:15:55.551Z</time></trkpt><trkpt lat="46.2976017" lon="10.6958931"><ele>1204.0</ele><time>2026-04-25T08:15:56.582Z</time></trkpt><trkpt lat="46.2976654" lon="10.6960085"><ele>1200.5</ele><time>2026-04-25T08:15:57.563Z</time></trkpt><trkpt lat="46.2977344" lon="10.6961336"><ele>1197.0</ele><time>2026-04-25T08:15:58.58Z</time></trkpt><trkpt lat="46.2978054" lon="10.6962625"><ele>1193.5</ele><time>2026-04-25T08:15:59.598Z</time></trkpt><trkpt lat="46.2978785" lon="10.696392"><ele>1190.0</ele><time>2026-04-25T08:16:00.581Z</time></trkpt><trkpt lat="46.297961" lon="10.6965231"><ele>1190.0</ele><time>2026-04-25T08:16:01.566Z</time></trkpt><trkpt lat="46.2980533" lon="10.6966585"><ele>1190.0</ele><time>2026-04-25T08:16:02.577Z</time></trkpt><trkpt lat="46.2981538" lon="10.6967947"><ele>1190.0</ele><time>2026-04-25T08:16:03.596Z</time></trkpt><trkpt lat="46.2982523" lon="10.6969135"><ele>1190.0</ele><time>2026-04-25T08:16:04.569Z</time></trkpt><trkpt lat="46.2983539" lon="10.6970245"><ele>1189.75</ele><time>2026-04-25T08:16:05.553Z</time></trkpt><trkpt lat="46.2984514" lon="10.6971342"><ele>1189.5</ele><time>2026-04-25T08:16:06.559Z</time></trkpt><trkpt lat="46.2985519" lon="10.6972426"><ele>1189.25</ele><time>2026-04-25T08:16:07.59Z</time></trkpt><trkpt lat="46.2986464" lon="10.6973451"><ele>1189.0</ele><time>2026-04-25T08:16:08.585Z</time></trkpt><trkpt lat="46.2987391" lon="10.6974507"><ele>1189.0</ele><time>2026-04-25T08:16:09.595Z</time></trkpt><trkpt lat="46.2988242" lon="10.6975503"><ele>1189.0</ele><time>2026-04-25T08:16:10.579Z</time></trkpt><trkpt lat="46.2989105" lon="10.6976479"><ele>1189.0</ele><time>2026-04-25T08:16:11.582Z</time></trkpt><trkpt lat="46.2989951" lon="10.6977416"><ele>1189.0</ele><time>2026-04-25T08:16:12.568Z</time></trkpt><trkpt lat="46.2990824" lon="10.6978403"><ele>1189.0</ele><time>2026-04-25T08:16:13.572Z</time></trkpt><trkpt lat="46.2991611" lon="10.6979429"><ele>1187.8</ele><time>2026-04-25T08:16:14.567Z</time></trkpt><trkpt lat="46.2992311" lon="10.6980589"><ele>1186.6000000000001</ele><time>2026-04-25T08:16:15.564Z</time></trkpt><trkpt lat="46.2992989" lon="10.6981876"><ele>1185.4</ele><time>2026-04-25T08:16:16.583Z</time></trkpt><trkpt lat="46.29936" lon="10.6983235"><ele>1184.2</ele><time>2026-04-25T08:16:17.571Z</time></trkpt><trkpt lat="46.2994177" lon="10.6984611"><ele>1183.0</ele><time>2026-04-25T08:16:18.579Z</time></trkpt><trkpt lat="46.2994604" lon="10.6986028"><ele>1181.2</ele><time>2026-04-25T08:16:19.565Z</time></trkpt><trkpt lat="46.2994996" lon="10.6987467"><ele>1179.4</ele><time>2026-04-25T08:16:20.584Z</time></trkpt><trkpt lat="46.2995291" lon="10.6988932"><ele>1177.6000000000001</ele><time>2026-04-25T08:16:21.583Z</time></trkpt><trkpt lat="46.2995511" lon="10.6990351"><ele>1175.8</ele><time>2026-04-25T08:16:22.58Z</time></trkpt><trkpt lat="46.2995613" lon="10.6991878"><ele>1174.0</ele><time>2026-04-25T08:16:23.584Z</time></trkpt><trkpt lat="46.2995665" lon="10.6993338"><ele>1172.0</ele><time>2026-04-25T08:16:24.567Z</time></trkpt><trkpt lat="46.2995601" lon="10.6994798"><ele>1170.0</ele><time>2026-04-25T08:16:25.59Z</time></trkpt><trkpt lat="46.2995511" lon="10.6996233"><ele>1168.0</ele><time>2026-04-25T08:16:26.582Z</time></trkpt><trkpt lat="46.2995419" lon="10.6997619"><ele>1166.0</ele><time>2026-04-25T08:16:27.556Z</time></trkpt><trkpt lat="46.2995294" lon="10.6999154"><ele>1164.0</ele><time>2026-04-25T08:16:28.6Z</time></trkpt><trkpt lat="46.2995095" lon="10.700059"><ele>1164.0</ele><time>2026-04-25T08:16:29.568Z</time></trkpt><trkpt lat="46.2994882" lon="10.7002101"><ele>1164.0</ele><time>2026-04-25T08:16:30.565Z</time></trkpt><trkpt lat="46.2994684" lon="10.7003586"><ele>1164.0</ele><time>2026-04-25T08:16:31.563Z</time></trkpt><trkpt lat="46.2994515" lon="10.7004992"><ele>1164.0</ele><time>2026-04-25T08:16:32.542Z</time></trkpt><trkpt lat="46.2994408" lon="10.7006322"><ele>1164.0</ele><time>2026-04-25T08:16:33.532Z</time></trkpt><trkpt lat="46.299424" lon="10.7007671"><ele>1162.3333333333333</ele><time>2026-04-25T08:16:34.565Z</time></trkpt><trkpt lat="46.2994125" lon="10.7008992"><ele>1160.6666666666667</ele><time>2026-04-25T08:16:35.571Z</time></trkpt><trkpt lat="46.2994118" lon="10.7010299"><ele>1159.0</ele><time>2026-04-25T08:16:36.578Z</time></trkpt><trkpt lat="46.299441" lon="10.7011404"><ele>1157.3333333333335</ele><time>2026-04-25T08:16:37.573Z</time></trkpt><trkpt lat="46.2994961" lon="10.7012474"><ele>1155.6666666666667</ele><time>2026-04-25T08:16:38.587Z</time></trkpt><trkpt lat="46.2995579" lon="10.701342"><ele>1154.0</ele><time>2026-04-25T08:16:39.58Z</time></trkpt><trkpt lat="46.2996209" lon="10.7014326"><ele>1152.6666666666667</ele><time>2026-04-25T08:16:40.571Z</time></trkpt><trkpt lat="46.2996638" lon="10.7015385"><ele>1151.3333333333335</ele><time>2026-04-25T08:16:41.565Z</time></trkpt><trkpt lat="46.29968" lon="10.7016544"><ele>1150.0</ele><time>2026-04-25T08:16:42.568Z</time></trkpt><trkpt lat="46.2996651" lon="10.7017738"><ele>1148.6666666666667</ele><time>2026-04-25T08:16:43.573Z</time></trkpt><trkpt lat="46.2996275" lon="10.7018918"><ele>1147.3333333333333</ele><time>2026-04-25T08:16:44.581Z</time></trkpt><trkpt lat="46.2995799" lon="10.7020088"><ele>1146.0</ele><time>2026-04-25T08:16:45.58Z</time></trkpt><trkpt lat="46.2995331" lon="10.7021243"><ele>1144.3999999999999</ele><time>2026-04-25T08:16:46.587Z</time></trkpt><trkpt lat="46.2994998" lon="10.7022492"><ele>1142.8</ele><time>2026-04-25T08:16:47.58Z</time></trkpt><trkpt lat="46.2994738" lon="10.7023803"><ele>1141.1999999999998</ele><time>2026-04-25T08:16:48.583Z</time></trkpt><trkpt lat="46.2994667" lon="10.7025139"><ele>1139.6</ele><time>2026-04-25T08:16:49.587Z</time></trkpt><trkpt lat="46.2994843" lon="10.7026515"><ele>1138.0</ele><time>2026-04-25T08:16:50.59Z</time></trkpt><trkpt lat="46.2995277" lon="10.7028005"><ele>1142.3333333333333</ele><time>2026-04-25T08:16:51.575Z</time></trkpt><trkpt lat="46.2995963" lon="10.7029759"><ele>1146.6666666666667</ele><time>2026-04-25T08:16:52.576Z</time></trkpt><trkpt lat="46.2996811" lon="10.7031686"><ele>1151.0</ele><time>2026-04-25T08:16:53.58Z</time></trkpt><trkpt lat="46.2997748" lon="10.7033776"><ele>1145.0</ele><time>2026-04-25T08:16:54.59Z</time></trkpt><trkpt lat="46.299869" lon="10.7035993"><ele>1139.0</ele><time>2026-04-25T08:16:55.584Z</time></trkpt><trkpt lat="46.2999719" lon="10.7038196"><ele>1133.0</ele><time>2026-04-25T08:16:56.567Z</time></trkpt><trkpt lat="46.3000816" lon="10.7040515"><ele>1133.0</ele><time>2026-04-25T08:16:57.564Z</time></trkpt><trkpt lat="46.3001959" lon="10.7042957"><ele>1133.0</ele><time>2026-04-25T08:16:58.572Z</time></trkpt><trkpt lat="46.3003002" lon="10.7045442"><ele>1133.0</ele><time>2026-04-25T08:16:59.57Z</time></trkpt><trkpt lat="46.3003949" lon="10.7047944"><ele>1128.3333333333335</ele><time>2026-04-25T08:17:00.57Z</time></trkpt><trkpt lat="46.3004833" lon="10.7050364"><ele>1123.6666666666667</ele><time>2026-04-25T08:17:01.56Z</time></trkpt><trkpt lat="46.3005625" lon="10.7052705"><ele>1119.0</ele><time>2026-04-25T08:17:02.533Z</time></trkpt><trkpt lat="46.3006374" lon="10.7055206"><ele>1124.0</ele><time>2026-04-25T08:17:03.566Z</time></trkpt><trkpt lat="46.3007059" lon="10.7057653"><ele>1129.0</ele><time>2026-04-25T08:17:04.563Z</time></trkpt><trkpt lat="46.3007689" lon="10.7060144"><ele>1134.0</ele><time>2026-04-25T08:17:05.571Z</time></trkpt><trkpt lat="46.3008323" lon="10.706267"><ele>1134.0</ele><time>2026-04-25T08:17:06.578Z</time></trkpt><trkpt lat="46.3008978" lon="10.7065205"><ele>1134.0</ele><time>2026-04-25T08:17:07.601Z</time></trkpt><trkpt lat="46.3009615" lon="10.7067695"><ele>1134.0</ele><time>2026-04-25T08:17:08.586Z</time></trkpt><trkpt lat="46.3010233" lon="10.707014"><ele>1128.3333333333333</ele><time>2026-04-25T08:17:09.572Z</time></trkpt><trkpt lat="46.3010873" lon="10.7072664"><ele>1122.6666666666665</ele><time>2026-04-25T08:17:10.573Z</time></trkpt><trkpt lat="46.30115" lon="10.7075188"><ele>1117.0</ele><time>2026-04-25T08:17:11.572Z</time></trkpt><trkpt lat="46.3012126" lon="10.7077677"><ele>1112.0</ele><time>2026-04-25T08:17:12.588Z</time></trkpt><trkpt lat="46.3012735" lon="10.7079999"><ele>1107.0</ele><time>2026-04-25T08:17:13.565Z</time></trkpt><trkpt lat="46.3013345" lon="10.708235"><ele>1102.0</ele><time>2026-04-25T08:17:14.563Z</time></trkpt><trkpt lat="46.301393" lon="10.7084638"><ele>1109.0</ele><time>2026-04-25T08:17:15.552Z</time></trkpt><trkpt lat="46.301454" lon="10.7086994"><ele>1116.0</ele><time>2026-04-25T08:17:16.589Z</time></trkpt><trkpt lat="46.3015103" lon="10.7089197"><ele>1123.0</ele><time>2026-04-25T08:17:17.574Z</time></trkpt><trkpt lat="46.3015692" lon="10.7091419"><ele>1123.0</ele><time>2026-04-25T08:17:18.598Z</time></trkpt><trkpt lat="46.3016285" lon="10.7093482"><ele>1123.0</ele><time>2026-04-25T08:17:19.582Z</time></trkpt><trkpt lat="46.301686" lon="10.7095498"><ele>1123.0</ele><time>2026-04-25T08:17:20.574Z</time></trkpt><trkpt lat="46.3017408" lon="10.7097452"><ele>1117.25</ele><time>2026-04-25T08:17:21.568Z</time></trkpt><trkpt lat="46.3017964" lon="10.7099354"><ele>1111.5</ele><time>2026-04-25T08:17:22.573Z</time></trkpt><trkpt lat="46.3018592" lon="10.7101225"><ele>1105.75</ele><time>2026-04-25T08:17:23.57Z</time></trkpt><trkpt lat="46.3019361" lon="10.7103032"><ele>1100.0</ele><time>2026-04-25T08:17:24.583Z</time></trkpt><trkpt lat="46.3020288" lon="10.7104848"><ele>1096.0</ele><time>2026-04-25T08:17:25.602Z</time></trkpt><trkpt lat="46.3021252" lon="10.7106594"><ele>1092.0</ele><time>2026-04-25T08:17:26.559Z</time></trkpt><trkpt lat="46.3022351" lon="10.7108532"><ele>1088.0</ele><time>2026-04-25T08:17:27.595Z</time></trkpt><trkpt lat="46.3023409" lon="10.7110292"><ele>1091.6666666666667</ele><time>2026-04-25T08:17:28.573Z</time></trkpt><trkpt lat="46.3024457" lon="10.71121"><ele>1095.3333333333333</ele><time>2026-04-25T08:17:29.561Z</time></trkpt><trkpt lat="46.3025573" lon="10.7114064"><ele>1099.0</ele><time>2026-04-25T08:17:30.59Z</time></trkpt><trkpt lat="46.3026666" lon="10.7116008"><ele>1099.0</ele><time>2026-04-25T08:17:31.588Z</time></trkpt><trkpt lat="46.3027762" lon="10.7117892"><ele>1099.0</ele><time>2026-04-25T08:17:32.589Z</time></trkpt><trkpt lat="46.3028807" lon="10.7119757"><ele>1099.0</ele><time>2026-04-25T08:17:33.595Z</time></trkpt><trkpt lat="46.302983" lon="10.7121482"><ele>1103.6666666666665</ele><time>2026-04-25T08:17:34.577Z</time></trkpt><trkpt lat="46.3030789" lon="10.7123158"><ele>1108.3333333333333</ele><time>2026-04-25T08:17:35.554Z</time></trkpt><trkpt lat="46.3031739" lon="10.7124938"><ele>1113.0</ele><time>2026-04-25T08:17:36.58Z</time></trkpt><trkpt lat="46.3032612" lon="10.7126751"><ele>1105.3333333333333</ele><time>2026-04-25T08:17:37.584Z</time></trkpt><trkpt lat="46.3033369" lon="10.712858"><ele>1097.6666666666665</ele><time>2026-04-25T08:17:38.572Z</time></trkpt><trkpt lat="46.3034053" lon="10.7130596"><ele>1090.0</ele><time>2026-04-25T08:17:39.578Z</time></trkpt><trkpt lat="46.30346" lon="10.7132763"><ele>1090.0</ele><time>2026-04-25T08:17:40.568Z</time></trkpt><trkpt lat="46.3035057" lon="10.7135196"><ele>1090.0</ele><time>2026-04-25T08:17:41.585Z</time></trkpt><trkpt lat="46.3035423" lon="10.7137616"><ele>1090.0</ele><time>2026-04-25T08:17:42.573Z</time></trkpt><trkpt lat="46.3035781" lon="10.7140063"><ele>1084.0</ele><time>2026-04-25T08:17:43.584Z</time></trkpt><trkpt lat="46.3036202" lon="10.7142477"><ele>1078.0</ele><time>2026-04-25T08:17:44.6Z</time></trkpt><trkpt lat="46.3036536" lon="10.7144741"><ele>1072.0</ele><time>2026-04-25T08:17:45.566Z</time></trkpt><trkpt lat="46.3036911" lon="10.714707"><ele>1072.0</ele><time>2026-04-25T08:17:46.575Z</time></trkpt><trkpt lat="46.3037318" lon="10.7149316"><ele>1072.0</ele><time>2026-04-25T08:17:47.573Z</time></trkpt><trkpt lat="46.3037681" lon="10.7151565"><ele>1072.0</ele><time>2026-04-25T08:17:48.58Z</time></trkpt><trkpt lat="46.3038021" lon="10.7153695"><ele>1072.0</ele><time>2026-04-25T08:17:49.582Z</time></trkpt><trkpt lat="46.3038329" lon="10.7155753"><ele>1072.0</ele><time>2026-04-25T08:17:50.565Z</time></trkpt><trkpt lat="46.3038658" lon="10.7157825"><ele>1072.0</ele><time>2026-04-25T08:17:51.581Z</time></trkpt><trkpt lat="46.3038996" lon="10.7159728"><ele>1072.0</ele><time>2026-04-25T08:17:52.573Z</time></trkpt><trkpt lat="46.3039285" lon="10.716159"><ele>1072.25</ele><time>2026-04-25T08:17:53.565Z</time></trkpt><trkpt lat="46.303957" lon="10.7163502"><ele>1072.5</ele><time>2026-04-25T08:17:54.568Z</time></trkpt><trkpt lat="46.3039893" lon="10.7165449"><ele>1072.75</ele><time>2026-04-25T08:17:55.581Z</time></trkpt><trkpt lat="46.3040211" lon="10.7167349"><ele>1073.0</ele><time>2026-04-25T08:17:56.537Z</time></trkpt><trkpt lat="46.3040613" lon="10.7169439"><ele>1073.0</ele><time>2026-04-25T08:17:57.565Z</time></trkpt><trkpt lat="46.3041118" lon="10.7171495"><ele>1073.0</ele><time>2026-04-25T08:17:58.55Z</time></trkpt><trkpt lat="46.3041759" lon="10.7173622"><ele>1073.0</ele><time>2026-04-25T08:17:59.564Z</time></trkpt><trkpt lat="46.3042463" lon="10.7175788"><ele>1069.6666666666667</ele><time>2026-04-25T08:18:00.572Z</time></trkpt><trkpt lat="46.3043185" lon="10.7177901"><ele>1066.3333333333333</ele><time>2026-04-25T08:18:01.579Z</time></trkpt><trkpt lat="46.3043888" lon="10.7179931"><ele>1063.0</ele><time>2026-04-25T08:18:02.584Z</time></trkpt><trkpt lat="46.304455" lon="10.7181894"><ele>1063.0</ele><time>2026-04-25T08:18:03.566Z</time></trkpt><trkpt lat="46.3045211" lon="10.7183886"><ele>1063.0</ele><time>2026-04-25T08:18:04.558Z</time></trkpt><trkpt lat="46.3045872" lon="10.7185967"><ele>1063.0</ele><time>2026-04-25T08:18:05.58Z</time></trkpt><trkpt lat="46.3046513" lon="10.7187962"><ele>1064.0</ele><time>2026-04-25T08:18:06.56Z</time></trkpt><trkpt lat="46.3047197" lon="10.7189914"><ele>1065.0</ele><time>2026-04-25T08:18:07.584Z</time></trkpt><trkpt lat="46.3047808" lon="10.7191781"><ele>1066.0</ele><time>2026-04-25T08:18:08.564Z</time></trkpt><trkpt lat="46.3048433" lon="10.7193686"><ele>1067.0</ele><time>2026-04-25T08:18:09.59Z</time></trkpt><trkpt lat="46.3049052" lon="10.7195505"><ele>1067.0</ele><time>2026-04-25T08:18:10.58Z</time></trkpt><trkpt lat="46.3049681" lon="10.7197338"><ele>1067.0</ele><time>2026-04-25T08:18:11.592Z</time></trkpt><trkpt lat="46.3050271" lon="10.7199177"><ele>1067.0</ele><time>2026-04-25T08:18:12.561Z</time></trkpt><trkpt lat="46.3050836" lon="10.7201088"><ele>1067.0</ele><time>2026-04-25T08:18:13.577Z</time></trkpt><trkpt lat="46.3051396" lon="10.7202996"><ele>1065.5</ele><time>2026-04-25T08:18:14.571Z</time></trkpt><trkpt lat="46.3052004" lon="10.7204889"><ele>1064.0</ele><time>2026-04-25T08:18:15.562Z</time></trkpt><trkpt lat="46.305275" lon="10.7206809"><ele>1062.5</ele><time>2026-04-25T08:18:16.589Z</time></trkpt><trkpt lat="46.3053555" lon="10.7208599"><ele>1061.0</ele><time>2026-04-25T08:18:17.564Z</time></trkpt><trkpt lat="46.3054504" lon="10.7210481"><ele>1059.6666666666667</ele><time>2026-04-25T08:18:18.579Z</time></trkpt><trkpt lat="46.3055537" lon="10.7212343"><ele>1058.3333333333333</ele><time>2026-04-25T08:18:19.555Z</time></trkpt><trkpt lat="46.3056613" lon="10.7214363"><ele>1057.0</ele><time>2026-04-25T08:18:20.579Z</time></trkpt><trkpt lat="46.3057666" lon="10.7216374"><ele>1056.3333333333333</ele><time>2026-04-25T08:18:21.558Z</time></trkpt><trkpt lat="46.3058735" lon="10.7218476"><ele>1055.6666666666667</ele><time>2026-04-25T08:18:22.567Z</time></trkpt><trkpt lat="46.3059798" lon="10.7220535"><ele>1055.0</ele><time>2026-04-25T08:18:23.562Z</time></trkpt><trkpt lat="46.3060871" lon="10.722261"><ele>1053.0</ele><time>2026-04-25T08:18:24.569Z</time></trkpt><trkpt lat="46.3061895" lon="10.7224546"><ele>1051.0</ele><time>2026-04-25T08:18:25.574Z</time></trkpt><trkpt lat="46.3062893" lon="10.7226442"><ele>1049.0</ele><time>2026-04-25T08:18:26.603Z</time></trkpt><trkpt lat="46.3063794" lon="10.7228161"><ele>1049.0</ele><time>2026-04-25T08:18:27.575Z</time></trkpt><trkpt lat="46.3064687" lon="10.7229882"><ele>1049.0</ele><time>2026-04-25T08:18:28.563Z</time></trkpt><trkpt lat="46.3065571" lon="10.7231636"><ele>1049.0</ele><time>2026-04-25T08:18:29.573Z</time></trkpt><trkpt lat="46.3066446" lon="10.7233376"><ele>1049.0</ele><time>2026-04-25T08:18:30.59Z</time></trkpt><trkpt lat="46.3067275" lon="10.7235007"><ele>1045.0</ele><time>2026-04-25T08:18:31.554Z</time></trkpt><trkpt lat="46.3068181" lon="10.723674"><ele>1041.0</ele><time>2026-04-25T08:18:32.579Z</time></trkpt><trkpt lat="46.306902" lon="10.7238375"><ele>1037.0</ele><time>2026-04-25T08:18:33.572Z</time></trkpt><trkpt lat="46.3069782" lon="10.7240015"><ele>1033.0</ele><time>2026-04-25T08:18:34.57Z</time></trkpt><trkpt lat="46.3070398" lon="10.7241851"><ele>1033.0</ele><time>2026-04-25T08:18:35.591Z</time></trkpt><trkpt lat="46.3070839" lon="10.7243746"><ele>1033.0</ele><time>2026-04-25T08:18:36.569Z</time></trkpt><trkpt lat="46.3071304" lon="10.7245716"><ele>1033.0</ele><time>2026-04-25T08:18:37.578Z</time></trkpt><trkpt lat="46.307192" lon="10.7247475"><ele>1033.0</ele><time>2026-04-25T08:18:38.564Z</time></trkpt><trkpt lat="46.307267" lon="10.7249142"><ele>1032.25</ele><time>2026-04-25T08:18:39.575Z</time></trkpt><trkpt lat="46.3073503" lon="10.7250649"><ele>1031.5</ele><time>2026-04-25T08:18:40.567Z</time></trkpt><trkpt lat="46.3074396" lon="10.7252104"><ele>1030.75</ele><time>2026-04-25T08:18:41.575Z</time></trkpt><trkpt lat="46.3075156" lon="10.7253632"><ele>1030.0</ele><time>2026-04-25T08:18:42.562Z</time></trkpt><trkpt lat="46.30758" lon="10.7255376"><ele>1030.0</ele><time>2026-04-25T08:18:43.571Z</time></trkpt><trkpt lat="46.3076263" lon="10.7257257"><ele>1030.0</ele><time>2026-04-25T08:18:44.57Z</time></trkpt><trkpt lat="46.3076558" lon="10.7259266"><ele>1030.0</ele><time>2026-04-25T08:18:45.58Z</time></trkpt><trkpt lat="46.3076626" lon="10.7261189"><ele>1030.0</ele><time>2026-04-25T08:18:46.553Z</time></trkpt><trkpt lat="46.3076458" lon="10.72631"><ele>1027.75</ele><time>2026-04-25T08:18:47.576Z</time></trkpt><trkpt lat="46.3076223" lon="10.7264826"><ele>1025.5</ele><time>2026-04-25T08:18:48.557Z</time></trkpt><trkpt lat="46.3076045" lon="10.7266584"><ele>1023.25</ele><time>2026-04-25T08:18:49.568Z</time></trkpt><trkpt lat="46.3076054" lon="10.7268214"><ele>1021.0</ele><time>2026-04-25T08:18:50.587Z</time></trkpt><trkpt lat="46.307637" lon="10.7269864"><ele>1019.5</ele><time>2026-04-25T08:18:51.589Z</time></trkpt><trkpt lat="46.3076948" lon="10.7271495"><ele>1018.0</ele><time>2026-04-25T08:18:52.588Z</time></trkpt><trkpt lat="46.3077705" lon="10.727303"><ele>1016.5</ele><time>2026-04-25T08:18:53.56Z</time></trkpt><trkpt lat="46.3078549" lon="10.7274676"><ele>1015.0</ele><time>2026-04-25T08:18:54.574Z</time></trkpt><trkpt lat="46.3079366" lon="10.7276262"><ele>1015.25</ele><time>2026-04-25T08:18:55.595Z</time></trkpt><trkpt lat="46.3080093" lon="10.7277696"><ele>1015.5</ele><time>2026-04-25T08:18:56.578Z</time></trkpt><trkpt lat="46.3080728" lon="10.7279119"><ele>1015.75</ele><time>2026-04-25T08:18:57.576Z</time></trkpt><trkpt lat="46.3081254" lon="10.7280572"><ele>1016.0</ele><time>2026-04-25T08:18:58.594Z</time></trkpt><trkpt lat="46.3081559" lon="10.728207"><ele>1016.8</ele><time>2026-04-25T08:18:59.57Z</time></trkpt><trkpt lat="46.3081784" lon="10.7283605"><ele>1017.5999999999999</ele><time>2026-04-25T08:19:00.558Z</time></trkpt><trkpt lat="46.3081989" lon="10.7285124"><ele>1018.4</ele><time>2026-04-25T08:19:01.593Z</time></trkpt><trkpt lat="46.3082147" lon="10.7286435"><ele>1019.2</ele><time>2026-04-25T08:19:02.575Z</time></trkpt><trkpt lat="46.3082333" lon="10.7287731"><ele>1020.0</ele><time>2026-04-25T08:19:03.588Z</time></trkpt><trkpt lat="46.3082595" lon="10.7288934"><ele>1016.6</ele><time>2026-04-25T08:19:04.577Z</time></trkpt><trkpt lat="46.308299" lon="10.7290083"><ele>1013.2</ele><time>2026-04-25T08:19:05.568Z</time></trkpt><trkpt lat="46.3083575" lon="10.7291121"><ele>1009.8</ele><time>2026-04-25T08:19:06.57Z</time></trkpt><trkpt lat="46.308432" lon="10.7291934"><ele>1006.4</ele><time>2026-04-25T08:19:07.556Z</time></trkpt><trkpt lat="46.3085174" lon="10.729261"><ele>1003.0</ele><time>2026-04-25T08:19:08.557Z</time></trkpt><trkpt lat="46.3086002" lon="10.729325"><ele>1001.4999999999999</ele><time>2026-04-25T08:19:09.565Z</time></trkpt><trkpt lat="46.3086707" lon="10.7293939"><ele>1000.0</ele><time>2026-04-25T08:19:10.596Z</time></trkpt><trkpt lat="46.308723" lon="10.7294684"><ele>998.5</ele><time>2026-04-25T08:19:11.543Z</time></trkpt><trkpt lat="46.3087797" lon="10.729548"><ele>997.0</ele><time>2026-04-25T08:19:12.566Z</time></trkpt><trkpt lat="46.3088429" lon="10.7296143"><ele>995.4999999999999</ele><time>2026-04-25T08:19:13.568Z</time></trkpt><trkpt lat="46.3089198" lon="10.7296492"><ele>994.0</ele><time>2026-04-25T08:19:14.561Z</time></trkpt><trkpt lat="46.3090028" lon="10.7296461"><ele>993.2</ele><time>2026-04-25T08:19:15.582Z</time></trkpt><trkpt lat="46.3090996" lon="10.7296153"><ele>992.4000000000001</ele><time>2026-04-25T08:19:16.571Z</time></trkpt><trkpt lat="46.3092089" lon="10.7295899"><ele>991.6</ele><time>2026-04-25T08:19:17.586Z</time></trkpt><trkpt lat="46.3093173" lon="10.7295852"><ele>990.8</ele><time>2026-04-25T08:19:18.585Z</time></trkpt><trkpt lat="46.309424" lon="10.7296225"><ele>990.0</ele><time>2026-04-25T08:19:19.587Z</time></trkpt><trkpt lat="46.3095215" lon="10.7296409"><ele>990.0</ele><time>2026-04-25T08:19:20.581Z</time></trkpt><trkpt lat="46.3096132" lon="10.7296581"><ele>990.0</ele><time>2026-04-25T08:19:21.572Z</time></trkpt><trkpt lat="46.309707" lon="10.729671"><ele>990.0</ele><time>2026-04-25T08:19:22.594Z</time></trkpt><trkpt lat="46.3097949" lon="10.7296944"><ele>990.0</ele><time>2026-04-25T08:19:23.594Z</time></trkpt><trkpt lat="46.3098839" lon="10.7297266"><ele>990.0</ele><time>2026-04-25T08:19:24.581Z</time></trkpt><trkpt lat="46.3099738" lon="10.7297725"><ele>989.6</ele><time>2026-04-25T08:19:25.59Z</time></trkpt><trkpt lat="46.3100617" lon="10.7298306"><ele>989.2</ele><time>2026-04-25T08:19:26.601Z</time></trkpt><trkpt lat="46.3101428" lon="10.7299003"><ele>988.8</ele><time>2026-04-25T08:19:27.572Z</time></trkpt><trkpt lat="46.310226" lon="10.7299923"><ele>988.4</ele><time>2026-04-25T08:19:28.588Z</time></trkpt><trkpt lat="46.3102939" lon="10.730097"><ele>988.0</ele><time>2026-04-25T08:19:29.576Z</time></trkpt><trkpt lat="46.3103596" lon="10.730206"><ele>986.5999999999999</ele><time>2026-04-25T08:19:30.565Z</time></trkpt><trkpt lat="46.3104186" lon="10.730328"><ele>985.1999999999999</ele><time>2026-04-25T08:19:31.558Z</time></trkpt><trkpt lat="46.3104774" lon="10.7304573"><ele>983.8</ele><time>2026-04-25T08:19:32.569Z</time></trkpt><trkpt lat="46.3105351" lon="10.7305935"><ele>982.4</ele><time>2026-04-25T08:19:33.581Z</time></trkpt><trkpt lat="46.3105913" lon="10.730728"><ele>981.0</ele><time>2026-04-25T08:19:34.566Z</time></trkpt><trkpt lat="46.3106477" lon="10.7308743"><ele>980.1999999999999</ele><time>2026-04-25T08:19:35.603Z</time></trkpt><trkpt lat="46.3106948" lon="10.7310154"><ele>979.3999999999999</ele><time>2026-04-25T08:19:36.574Z</time></trkpt><trkpt lat="46.3107447" lon="10.7311615"><ele>978.6</ele><time>2026-04-25T08:19:37.584Z</time></trkpt><trkpt lat="46.3107948" lon="10.7313058"><ele>977.8</ele><time>2026-04-25T08:19:38.591Z</time></trkpt><trkpt lat="46.3108428" lon="10.7314466"><ele>977.0</ele><time>2026-04-25T08:19:39.57Z</time></trkpt><trkpt lat="46.3108937" lon="10.7315906"><ele>976.6</ele><time>2026-04-25T08:19:40.572Z</time></trkpt><trkpt lat="46.3109447" lon="10.7317357"><ele>976.2</ele><time>2026-04-25T08:19:41.573Z</time></trkpt><trkpt lat="46.3109937" lon="10.7318841"><ele>975.8</ele><time>2026-04-25T08:19:42.58Z</time></trkpt><trkpt lat="46.3110412" lon="10.7320243"><ele>975.4</ele><time>2026-04-25T08:19:43.553Z</time></trkpt><trkpt lat="46.3110916" lon="10.7321693"><ele>975.0</ele><time>2026-04-25T08:19:44.598Z</time></trkpt><trkpt lat="46.3111381" lon="10.7323003"><ele>974.4</ele><time>2026-04-25T08:19:45.565Z</time></trkpt><trkpt lat="46.3111856" lon="10.732437"><ele>973.8</ele><time>2026-04-25T08:19:46.588Z</time></trkpt><trkpt lat="46.3112291" lon="10.7325685"><ele>973.2</ele><time>2026-04-25T08:19:47.569Z</time></trkpt><trkpt lat="46.3112802" lon="10.7327091"><ele>972.6</ele><time>2026-04-25T08:19:48.581Z</time></trkpt><trkpt lat="46.3113332" lon="10.7328468"><ele>972.0</ele><time>2026-04-25T08:19:49.589Z</time></trkpt><trkpt lat="46.3113829" lon="10.7329812"><ele>970.6</ele><time>2026-04-25T08:19:50.574Z</time></trkpt><trkpt lat="46.3114303" lon="10.7331168"><ele>969.2</ele><time>2026-04-25T08:19:51.584Z</time></trkpt><trkpt lat="46.3114764" lon="10.7332484"><ele>967.8</ele><time>2026-04-25T08:19:52.557Z</time></trkpt><trkpt lat="46.3115261" lon="10.7333865"><ele>966.4</ele><time>2026-04-25T08:19:53.584Z</time></trkpt><trkpt lat="46.3115715" lon="10.7335174"><ele>965.0</ele><time>2026-04-25T08:19:54.552Z</time></trkpt><trkpt lat="46.3116208" lon="10.7336624"><ele>964.8</ele><time>2026-04-25T08:19:55.592Z</time></trkpt><trkpt lat="46.3116722" lon="10.7338035"><ele>964.6</ele><time>2026-04-25T08:19:56.595Z</time></trkpt><trkpt lat="46.311723" lon="10.7339418"><ele>964.4000000000001</ele><time>2026-04-25T08:19:57.569Z</time></trkpt><trkpt lat="46.3117763" lon="10.7340836"><ele>964.2</ele><time>2026-04-25T08:19:58.558Z</time></trkpt><trkpt lat="46.3118301" lon="10.7342296"><ele>964.0</ele><time>2026-04-25T08:19:59.557Z</time></trkpt><trkpt lat="46.3118845" lon="10.7343785"><ele>963.75</ele><time>2026-04-25T08:20:00.58Z</time></trkpt><trkpt lat="46.3119368" lon="10.7345203"><ele>963.5</ele><time>2026-04-25T08:20:01.554Z</time></trkpt><trkpt lat="46.3119895" lon="10.7346694"><ele>963.25</ele><time>2026-04-25T08:20:02.559Z</time></trkpt><trkpt lat="46.312044" lon="10.7348221"><ele>963.0</ele><time>2026-04-25T08:20:03.578Z</time></trkpt><trkpt lat="46.3120954" lon="10.7349774"><ele>963.0</ele><time>2026-04-25T08:20:04.579Z</time></trkpt><trkpt lat="46.3121522" lon="10.7351294"><ele>963.0</ele><time>2026-04-25T08:20:05.585Z</time></trkpt><trkpt lat="46.3122068" lon="10.7352796"><ele>963.0</ele><time>2026-04-25T08:20:06.583Z</time></trkpt><trkpt lat="46.3122605" lon="10.7354306"><ele>963.0</ele><time>2026-04-25T08:20:07.568Z</time></trkpt><trkpt lat="46.3123189" lon="10.7355891"><ele>961.75</ele><time>2026-04-25T08:20:08.583Z</time></trkpt><trkpt lat="46.3123735" lon="10.7357479"><ele>960.5</ele><time>2026-04-25T08:20:09.578Z</time></trkpt><trkpt lat="46.3124304" lon="10.7359115"><ele>959.25</ele><time>2026-04-25T08:20:10.58Z</time></trkpt><trkpt lat="46.3124875" lon="10.7360789"><ele>958.0</ele><time>2026-04-25T08:20:11.599Z</time></trkpt><trkpt lat="46.3125439" lon="10.7362359"><ele>957.5</ele><time>2026-04-25T08:20:12.57Z</time></trkpt><trkpt lat="46.3126017" lon="10.7363962"><ele>957.0</ele><time>2026-04-25T08:20:13.592Z</time></trkpt><trkpt lat="46.3126553" lon="10.7365481"><ele>956.5</ele><time>2026-04-25T08:20:14.582Z</time></trkpt><trkpt lat="46.3127102" lon="10.7367011"><ele>956.0</ele><time>2026-04-25T08:20:15.581Z</time></trkpt><trkpt lat="46.3127638" lon="10.7368527"><ele>956.25</ele><time>2026-04-25T08:20:16.571Z</time></trkpt><trkpt lat="46.3128176" lon="10.7370067"><ele>956.5</ele><time>2026-04-25T08:20:17.585Z</time></trkpt><trkpt lat="46.3128635" lon="10.7371577"><ele>956.75</ele><time>2026-04-25T08:20:18.575Z</time></trkpt><trkpt lat="46.3128948" lon="10.7373153"><ele>957.0</ele><time>2026-04-25T08:20:19.571Z</time></trkpt><trkpt lat="46.3129066" lon="10.7374791"><ele>957.0</ele><time>2026-04-25T08:20:20.575Z</time></trkpt><trkpt lat="46.3128993" lon="10.7376429"><ele>957.0</ele><time>2026-04-25T08:20:21.558Z</time></trkpt><trkpt lat="46.3128633" lon="10.7378187"><ele>957.0</ele><time>2026-04-25T08:20:22.58Z</time></trkpt><trkpt lat="46.3128063" lon="10.737988"><ele>957.0</ele><time>2026-04-25T08:20:23.574Z</time></trkpt><trkpt lat="46.3127241" lon="10.7381583"><ele>956.75</ele><time>2026-04-25T08:20:24.59Z</time></trkpt><trkpt lat="46.3126424" lon="10.738316"><ele>956.5</ele><time>2026-04-25T08:20:25.588Z</time></trkpt><trkpt lat="46.3125621" lon="10.738468"><ele>956.25</ele><time>2026-04-25T08:20:26.574Z</time></trkpt><trkpt lat="46.3124843" lon="10.7386241"><ele>956.0</ele><time>2026-04-25T08:20:27.589Z</time></trkpt><trkpt lat="46.3124093" lon="10.7387803"><ele>955.75</ele><time>2026-04-25T08:20:28.587Z</time></trkpt><trkpt lat="46.3123369" lon="10.7389293"><ele>955.5</ele><time>2026-04-25T08:20:29.571Z</time></trkpt><trkpt lat="46.3122633" lon="10.7390874"><ele>955.25</ele><time>2026-04-25T08:20:30.576Z</time></trkpt><trkpt lat="46.3121906" lon="10.7392497"><ele>955.0</ele><time>2026-04-25T08:20:31.571Z</time></trkpt><trkpt lat="46.3121239" lon="10.7394194"><ele>954.75</ele><time>2026-04-25T08:20:32.545Z</time></trkpt><trkpt lat="46.3120605" lon="10.739611"><ele>954.5</ele><time>2026-04-25T08:20:33.576Z</time></trkpt><trkpt lat="46.3120132" lon="10.7397996"><ele>954.25</ele><time>2026-04-25T08:20:34.577Z</time></trkpt><trkpt lat="46.3119789" lon="10.7399899"><ele>954.0</ele><time>2026-04-25T08:20:35.574Z</time></trkpt><trkpt lat="46.3119508" lon="10.7401795"><ele>953.25</ele><time>2026-04-25T08:20:36.587Z</time></trkpt><trkpt lat="46.3119293" lon="10.7403529"><ele>952.5</ele><time>2026-04-25T08:20:37.551Z</time></trkpt><trkpt lat="46.3119072" lon="10.7405331"><ele>951.75</ele><time>2026-04-25T08:20:38.586Z</time></trkpt><trkpt lat="46.3118841" lon="10.7407046"><ele>951.0</ele><time>2026-04-25T08:20:39.574Z</time></trkpt><trkpt lat="46.311858" lon="10.7408774"><ele>951.0</ele><time>2026-04-25T08:20:40.601Z</time></trkpt><trkpt lat="46.311835" lon="10.7410473"><ele>951.0</ele><time>2026-04-25T08:20:41.574Z</time></trkpt><trkpt lat="46.3118102" lon="10.7412248"><ele>951.0</ele><time>2026-04-25T08:20:42.597Z</time></trkpt><trkpt lat="46.3117764" lon="10.7413978"><ele>951.0</ele><time>2026-04-25T08:20:43.583Z</time></trkpt><trkpt lat="46.3117296" lon="10.7415693"><ele>951.25</ele><time>2026-04-25T08:20:44.583Z</time></trkpt><trkpt lat="46.3116669" lon="10.7417348"><ele>951.5</ele><time>2026-04-25T08:20:45.587Z</time></trkpt><trkpt lat="46.3116033" lon="10.7419039"><ele>951.75</ele><time>2026-04-25T08:20:46.582Z</time></trkpt><trkpt lat="46.311532" lon="10.7420818"><ele>952.0</ele><time>2026-04-25T08:20:47.595Z</time></trkpt><trkpt lat="46.3114648" lon="10.7422639"><ele>950.25</ele><time>2026-04-25T08:20:48.584Z</time></trkpt><trkpt lat="46.3113977" lon="10.742445"><ele>948.5</ele><time>2026-04-25T08:20:49.579Z</time></trkpt><trkpt lat="46.3113342" lon="10.7426214"><ele>946.75</ele><time>2026-04-25T08:20:50.583Z</time></trkpt><trkpt lat="46.3112752" lon="10.7427831"><ele>945.0</ele><time>2026-04-25T08:20:51.578Z</time></trkpt><trkpt lat="46.3112202" lon="10.7429304"><ele>945.0</ele><time>2026-04-25T08:20:52.566Z</time></trkpt><trkpt lat="46.3111638" lon="10.7430721"><ele>945.0</ele><time>2026-04-25T08:20:53.58Z</time></trkpt><trkpt lat="46.3111082" lon="10.7432014"><ele>945.0</ele><time>2026-04-25T08:20:54.586Z</time></trkpt><trkpt lat="46.3110509" lon="10.7433268"><ele>945.0</ele><time>2026-04-25T08:20:55.6Z</time></trkpt><trkpt lat="46.3109931" lon="10.7434387"><ele>945.0</ele><time>2026-04-25T08:20:56.574Z</time></trkpt><trkpt lat="46.3109323" lon="10.7435467"><ele>945.6</ele><time>2026-04-25T08:20:57.581Z</time></trkpt><trkpt lat="46.3108713" lon="10.7436463"><ele>946.2</ele><time>2026-04-25T08:20:58.583Z</time></trkpt><trkpt lat="46.3108147" lon="10.7437502"><ele>946.8</ele><time>2026-04-25T08:20:59.581Z</time></trkpt><trkpt lat="46.3107625" lon="10.7438707"><ele>947.4</ele><time>2026-04-25T08:21:00.597Z</time></trkpt><trkpt lat="46.3107206" lon="10.7440089"><ele>948.0</ele><time>2026-04-25T08:21:01.573Z</time></trkpt><trkpt lat="46.3106983" lon="10.7441653"><ele>948.0</ele><time>2026-04-25T08:21:02.573Z</time></trkpt><trkpt lat="46.3106874" lon="10.7443388"><ele>948.0</ele><time>2026-04-25T08:21:03.584Z</time></trkpt><trkpt lat="46.3106965" lon="10.7444999"><ele>948.0</ele><time>2026-04-25T08:21:04.568Z</time></trkpt><trkpt lat="46.3107131" lon="10.744657"><ele>948.0</ele><time>2026-04-25T08:21:05.561Z</time></trkpt><trkpt lat="46.3107262" lon="10.744796"><ele>948.0</ele><time>2026-04-25T08:21:06.573Z</time></trkpt><trkpt lat="46.3107309" lon="10.7449129"><ele>948.5</ele><time>2026-04-25T08:21:07.583Z</time></trkpt><trkpt lat="46.3107086" lon="10.7450588"><ele>949.0</ele><time>2026-04-25T08:21:09.566Z</time></trkpt><trkpt lat="46.3106893" lon="10.7451666"><ele>949.5</ele><time>2026-04-25T08:21:12.558Z</time></trkpt><trkpt lat="46.3106503" lon="10.7452549"><ele>950.0</ele><time>2026-04-25T08:21:16.561Z</time></trkpt><trkpt lat="46.310644" lon="10.7453557"><ele>950.5</ele><time>2026-04-25T08:22:40.567Z</time></trkpt><trkpt lat="46.310671" lon="10.745458"><ele>951.0</ele><time>2026-04-25T08:22:43.567Z</time></trkpt><trkpt lat="46.3106811" lon="10.7456147"><ele>951.0</ele><time>2026-04-25T08:22:45.599Z</time></trkpt><trkpt lat="46.3106743" lon="10.7458019"><ele>950.9999999999999</ele><time>2026-04-25T08:22:47.574Z</time></trkpt><trkpt lat="46.3106648" lon="10.7459026"><ele>950.9999999999999</ele><time>2026-04-25T08:22:48.583Z</time></trkpt><trkpt lat="46.3106594" lon="10.7460224"><ele>951.0</ele><time>2026-04-25T08:22:49.587Z</time></trkpt><trkpt lat="46.3106554" lon="10.7461435"><ele>951.0</ele><time>2026-04-25T08:22:50.574Z</time></trkpt><trkpt lat="46.3106537" lon="10.7462797"><ele>951.0</ele><time>2026-04-25T08:22:51.589Z</time></trkpt><trkpt lat="46.3106428" lon="10.7464018"><ele>951.0</ele><time>2026-04-25T08:22:52.585Z</time></trkpt><trkpt lat="46.310631" lon="10.7465107"><ele>951.0</ele><time>2026-04-25T08:22:53.579Z</time></trkpt><trkpt lat="46.3106231" lon="10.7466256"><ele>951.0</ele><time>2026-04-25T08:22:54.595Z</time></trkpt><trkpt lat="46.3106135" lon="10.7467431"><ele>951.0</ele><time>2026-04-25T08:22:55.6Z</time></trkpt><trkpt lat="46.3106054" lon="10.7468714"><ele>951.0</ele><time>2026-04-25T08:22:56.606Z</time></trkpt><trkpt lat="46.3106052" lon="10.7470259"><ele>951.0</ele><time>2026-04-25T08:22:57.589Z</time></trkpt><trkpt lat="46.3106196" lon="10.7471772"><ele>951.0</ele><time>2026-04-25T08:22:58.571Z</time></trkpt><trkpt lat="46.3106467" lon="10.747335"><ele>951.0</ele><time>2026-04-25T08:22:59.582Z</time></trkpt><trkpt lat="46.3106713" lon="10.747498"><ele>951.0</ele><time>2026-04-25T08:23:00.575Z</time></trkpt><trkpt lat="46.3106975" lon="10.7476739"><ele>950.25</ele><time>2026-04-25T08:23:01.578Z</time></trkpt><trkpt lat="46.3107305" lon="10.7478535"><ele>949.5</ele><time>2026-04-25T08:23:02.592Z</time></trkpt><trkpt lat="46.3107683" lon="10.7480305"><ele>948.75</ele><time>2026-04-25T08:23:03.575Z</time></trkpt><trkpt lat="46.310818" lon="10.7482071"><ele>948.0</ele><time>2026-04-25T08:23:04.558Z</time></trkpt><trkpt lat="46.3108843" lon="10.7483974"><ele>945.0</ele><time>2026-04-25T08:23:05.589Z</time></trkpt><trkpt lat="46.310979" lon="10.7486478"><ele>942.0</ele><time>2026-04-25T08:23:06.921Z</time></trkpt><trkpt lat="46.3111191" lon="10.7489745"><ele>942.0</ele><time>2026-04-25T08:23:08.649Z</time></trkpt><trkpt lat="46.3111957" lon="10.7491571"><ele>942.0</ele><time>2026-04-25T08:23:09.635Z</time></trkpt><trkpt lat="46.3112665" lon="10.7493485"><ele>942.0</ele><time>2026-04-25T08:23:10.641Z</time></trkpt><trkpt lat="46.3113254" lon="10.7495478"><ele>942.0</ele><time>2026-04-25T08:23:11.635Z</time></trkpt><trkpt lat="46.3113677" lon="10.7497538"><ele>940.0</ele><time>2026-04-25T08:23:12.614Z</time></trkpt><trkpt lat="46.3113947" lon="10.7499751"><ele>938.0</ele><time>2026-04-25T08:23:13.644Z</time></trkpt><trkpt lat="46.3114096" lon="10.7501916"><ele>936.0</ele><time>2026-04-25T08:23:14.645Z</time></trkpt><trkpt lat="46.3114169" lon="10.7504113"><ele>940.3333333333333</ele><time>2026-04-25T08:23:15.637Z</time></trkpt><trkpt lat="46.3114203" lon="10.7506366"><ele>944.6666666666666</ele><time>2026-04-25T08:23:16.631Z</time></trkpt><trkpt lat="46.3114217" lon="10.7508658"><ele>949.0</ele><time>2026-04-25T08:23:17.622Z</time></trkpt><trkpt lat="46.311423" lon="10.7510988"><ele>950.0</ele><time>2026-04-25T08:23:18.642Z</time></trkpt><trkpt lat="46.311425" lon="10.7513167"><ele>951.0</ele><time>2026-04-25T08:23:19.635Z</time></trkpt><trkpt lat="46.311429" lon="10.7515372"><ele>952.0</ele><time>2026-04-25T08:23:20.651Z</time></trkpt><trkpt lat="46.3114319" lon="10.7517504"><ele>951.3333333333333</ele><time>2026-04-25T08:23:21.612Z</time></trkpt><trkpt lat="46.3114331" lon="10.7519725"><ele>950.6666666666667</ele><time>2026-04-25T08:23:22.58Z</time></trkpt><trkpt lat="46.3114351" lon="10.7522037"><ele>950.0</ele><time>2026-04-25T08:23:23.577Z</time></trkpt><trkpt lat="46.311438" lon="10.7524364"><ele>950.0</ele><time>2026-04-25T08:23:24.566Z</time></trkpt><trkpt lat="46.311444" lon="10.7526684"><ele>950.0</ele><time>2026-04-25T08:23:25.583Z</time></trkpt><trkpt lat="46.3114481" lon="10.7528966"><ele>950.0</ele><time>2026-04-25T08:23:26.59Z</time></trkpt><trkpt lat="46.3114509" lon="10.7531239"><ele>949.75</ele><time>2026-04-25T08:23:27.598Z</time></trkpt><trkpt lat="46.3114544" lon="10.7533355"><ele>949.5</ele><time>2026-04-25T08:23:28.557Z</time></trkpt><trkpt lat="46.3114566" lon="10.7535556"><ele>949.25</ele><time>2026-04-25T08:23:29.572Z</time></trkpt><trkpt lat="46.3114553" lon="10.7537681"><ele>949.0</ele><time>2026-04-25T08:23:30.58Z</time></trkpt><trkpt lat="46.3114467" lon="10.7539913"><ele>948.3333333333333</ele><time>2026-04-25T08:23:31.603Z</time></trkpt><trkpt lat="46.3114314" lon="10.7542011"><ele>947.6666666666667</ele><time>2026-04-25T08:23:32.56Z</time></trkpt><trkpt lat="46.3114133" lon="10.7544308"><ele>947.0</ele><time>2026-04-25T08:23:33.585Z</time></trkpt><trkpt lat="46.3113852" lon="10.7546588"><ele>941.6666666666667</ele><time>2026-04-25T08:23:34.59Z</time></trkpt><trkpt lat="46.3113546" lon="10.7548811"><ele>936.3333333333333</ele><time>2026-04-25T08:23:35.587Z</time></trkpt><trkpt lat="46.3113253" lon="10.7550989"><ele>931.0</ele><time>2026-04-25T08:23:36.582Z</time></trkpt><trkpt lat="46.3112926" lon="10.755316"><ele>930.3333333333333</ele><time>2026-04-25T08:23:37.567Z</time></trkpt><trkpt lat="46.3112595" lon="10.755541"><ele>929.6666666666667</ele><time>2026-04-25T08:23:38.591Z</time></trkpt><trkpt lat="46.3112283" lon="10.7557539"><ele>929.0</ele><time>2026-04-25T08:23:39.555Z</time></trkpt><trkpt lat="46.3111988" lon="10.7559763"><ele>929.25</ele><time>2026-04-25T08:23:40.577Z</time></trkpt><trkpt lat="46.3111783" lon="10.7561834"><ele>929.5</ele><time>2026-04-25T08:23:41.569Z</time></trkpt><trkpt lat="46.311171" lon="10.7563819"><ele>929.75</ele><time>2026-04-25T08:23:42.565Z</time></trkpt><trkpt lat="46.3111717" lon="10.756585"><ele>930.0</ele><time>2026-04-25T08:23:43.582Z</time></trkpt><trkpt lat="46.3111847" lon="10.7567797"><ele>929.25</ele><time>2026-04-25T08:23:44.575Z</time></trkpt><trkpt lat="46.311203" lon="10.7569789"><ele>928.5</ele><time>2026-04-25T08:23:45.568Z</time></trkpt><trkpt lat="46.3112213" lon="10.7571939"><ele>927.75</ele><time>2026-04-25T08:23:46.606Z</time></trkpt><trkpt lat="46.3112401" lon="10.7573952"><ele>927.0</ele><time>2026-04-25T08:23:47.569Z</time></trkpt><trkpt lat="46.3112606" lon="10.7576073"><ele>926.75</ele><time>2026-04-25T08:23:48.589Z</time></trkpt><trkpt lat="46.3112809" lon="10.7578072"><ele>926.5</ele><time>2026-04-25T08:23:49.589Z</time></trkpt><trkpt lat="46.3113034" lon="10.7579942"><ele>926.25</ele><time>2026-04-25T08:23:50.582Z</time></trkpt><trkpt lat="46.3113266" lon="10.7581828"><ele>926.0</ele><time>2026-04-25T08:23:51.576Z</time></trkpt><trkpt lat="46.3113498" lon="10.7583807"><ele>926.0</ele><time>2026-04-25T08:23:52.591Z</time></trkpt><trkpt lat="46.3113724" lon="10.7585698"><ele>926.0</ele><time>2026-04-25T08:23:53.581Z</time></trkpt><trkpt lat="46.311391" lon="10.758762"><ele>926.0</ele><time>2026-04-25T08:23:54.573Z</time></trkpt><trkpt lat="46.3114119" lon="10.7589637"><ele>926.0</ele><time>2026-04-25T08:23:55.567Z</time></trkpt><trkpt lat="46.3114348" lon="10.7591737"><ele>927.75</ele><time>2026-04-25T08:23:56.586Z</time></trkpt><trkpt lat="46.3114602" lon="10.7593794"><ele>929.5</ele><time>2026-04-25T08:23:57.589Z</time></trkpt><trkpt lat="46.3114846" lon="10.7595904"><ele>931.25</ele><time>2026-04-25T08:23:58.577Z</time></trkpt><trkpt lat="46.3115112" lon="10.7598102"><ele>933.0</ele><time>2026-04-25T08:23:59.58Z</time></trkpt><trkpt lat="46.3115364" lon="10.7600314"><ele>931.0</ele><time>2026-04-25T08:24:00.597Z</time></trkpt><trkpt lat="46.31156" lon="10.760245"><ele>929.0</ele><time>2026-04-25T08:24:01.58Z</time></trkpt><trkpt lat="46.3115903" lon="10.7604614"><ele>927.0</ele><time>2026-04-25T08:24:02.572Z</time></trkpt><trkpt lat="46.3116255" lon="10.76068"><ele>927.0</ele><time>2026-04-25T08:24:03.583Z</time></trkpt><trkpt lat="46.3116704" lon="10.7608875"><ele>927.0</ele><time>2026-04-25T08:24:04.585Z</time></trkpt><trkpt lat="46.3117336" lon="10.7610914"><ele>927.0</ele><time>2026-04-25T08:24:05.587Z</time></trkpt><trkpt lat="46.3118025" lon="10.7612863"><ele>925.6666666666667</ele><time>2026-04-25T08:24:06.577Z</time></trkpt><trkpt lat="46.3118797" lon="10.7614804"><ele>924.3333333333334</ele><time>2026-04-25T08:24:07.589Z</time></trkpt><trkpt lat="46.3119558" lon="10.7616765"><ele>923.0</ele><time>2026-04-25T08:24:08.584Z</time></trkpt><trkpt lat="46.3120293" lon="10.7618834"><ele>921.6666666666667</ele><time>2026-04-25T08:24:09.586Z</time></trkpt><trkpt lat="46.3120963" lon="10.7621125"><ele>920.3333333333333</ele><time>2026-04-25T08:24:10.598Z</time></trkpt><trkpt lat="46.3121497" lon="10.7623657"><ele>919.0</ele><time>2026-04-25T08:24:11.617Z</time></trkpt><trkpt lat="46.3121863" lon="10.7626183"><ele>919.0</ele><time>2026-04-25T08:24:12.553Z</time></trkpt><trkpt lat="46.3122101" lon="10.7629111"><ele>919.0</ele><time>2026-04-25T08:24:13.584Z</time></trkpt><trkpt lat="46.3122077" lon="10.763209"><ele>919.0</ele><time>2026-04-25T08:24:14.587Z</time></trkpt><trkpt lat="46.3121835" lon="10.7634961"><ele>918.6666666666666</ele><time>2026-04-25T08:24:15.56Z</time></trkpt><trkpt lat="46.3121561" lon="10.7638031"><ele>918.3333333333333</ele><time>2026-04-25T08:24:16.579Z</time></trkpt><trkpt lat="46.3121363" lon="10.7641057"><ele>918.0</ele><time>2026-04-25T08:24:17.588Z</time></trkpt><trkpt lat="46.3121255" lon="10.7644095"><ele>918.0</ele><time>2026-04-25T08:24:18.585Z</time></trkpt><trkpt lat="46.3121234" lon="10.7647224"><ele>918.0</ele><time>2026-04-25T08:24:19.582Z</time></trkpt><trkpt lat="46.3121229" lon="10.7650456"><ele>918.0</ele><time>2026-04-25T08:24:20.602Z</time></trkpt><trkpt lat="46.3121158" lon="10.7653601"><ele>918.0</ele><time>2026-04-25T08:24:21.585Z</time></trkpt><trkpt lat="46.3121058" lon="10.7656737"><ele>918.0</ele><time>2026-04-25T08:24:22.569Z</time></trkpt><trkpt lat="46.3120934" lon="10.7659886"><ele>918.0</ele><time>2026-04-25T08:24:23.566Z</time></trkpt><trkpt lat="46.3120807" lon="10.7663105"><ele>917.6666666666667</ele><time>2026-04-25T08:24:24.589Z</time></trkpt><trkpt lat="46.3120636" lon="10.7666206"><ele>917.3333333333334</ele><time>2026-04-25T08:24:25.592Z</time></trkpt><trkpt lat="46.3120511" lon="10.7669268"><ele>917.0</ele><time>2026-04-25T08:24:26.585Z</time></trkpt><trkpt lat="46.3120522" lon="10.7672251"><ele>917.0</ele><time>2026-04-25T08:24:27.573Z</time></trkpt><trkpt lat="46.3120698" lon="10.7675278"><ele>917.0</ele><time>2026-04-25T08:24:28.574Z</time></trkpt><trkpt lat="46.3121142" lon="10.7678208"><ele>917.0</ele><time>2026-04-25T08:24:29.59Z</time></trkpt><trkpt lat="46.312181" lon="10.7681032"><ele>920.3333333333334</ele><time>2026-04-25T08:24:30.594Z</time></trkpt><trkpt lat="46.3122639" lon="10.76838"><ele>923.6666666666667</ele><time>2026-04-25T08:24:31.595Z</time></trkpt><trkpt lat="46.3123428" lon="10.7686542"><ele>927.0</ele><time>2026-04-25T08:24:32.589Z</time></trkpt><trkpt lat="46.3124276" lon="10.7689296"><ele>927.0</ele><time>2026-04-25T08:24:33.599Z</time></trkpt><trkpt lat="46.312509" lon="10.7691905"><ele>927.0</ele><time>2026-04-25T08:24:34.548Z</time></trkpt><trkpt lat="46.3125885" lon="10.7694804"><ele>927.0</ele><time>2026-04-25T08:24:35.583Z</time></trkpt><trkpt lat="46.3126491" lon="10.7697695"><ele>925.3333333333333</ele><time>2026-04-25T08:24:36.574Z</time></trkpt><trkpt lat="46.3126888" lon="10.7700698"><ele>923.6666666666666</ele><time>2026-04-25T08:24:37.58Z</time></trkpt><trkpt lat="46.3127022" lon="10.7703728"><ele>922.0</ele><time>2026-04-25T08:24:38.57Z</time></trkpt><trkpt lat="46.312694" lon="10.7706886"><ele>921.6666666666666</ele><time>2026-04-25T08:24:39.591Z</time></trkpt><trkpt lat="46.3126654" lon="10.7709966"><ele>921.3333333333333</ele><time>2026-04-25T08:24:40.595Z</time></trkpt><trkpt lat="46.3126141" lon="10.771288"><ele>921.0</ele><time>2026-04-25T08:24:41.586Z</time></trkpt><trkpt lat="46.3125452" lon="10.7715649"><ele>921.0</ele><time>2026-04-25T08:24:42.598Z</time></trkpt><trkpt lat="46.3124738" lon="10.7718188"><ele>921.0</ele><time>2026-04-25T08:24:43.599Z</time></trkpt><trkpt lat="46.3124048" lon="10.7720604"><ele>921.0</ele><time>2026-04-25T08:24:44.575Z</time></trkpt><trkpt lat="46.3123349" lon="10.7723052"><ele>922.3333333333333</ele><time>2026-04-25T08:24:45.579Z</time></trkpt><trkpt lat="46.3122649" lon="10.7725481"><ele>923.6666666666666</ele><time>2026-04-25T08:24:46.575Z</time></trkpt><trkpt lat="46.3121952" lon="10.7727925"><ele>925.0</ele><time>2026-04-25T08:24:47.577Z</time></trkpt><trkpt lat="46.3121261" lon="10.7730355"><ele>922.3333333333333</ele><time>2026-04-25T08:24:48.579Z</time></trkpt><trkpt lat="46.3120581" lon="10.7732849"><ele>919.6666666666667</ele><time>2026-04-25T08:24:49.598Z</time></trkpt><trkpt lat="46.3119989" lon="10.7735328"><ele>917.0</ele><time>2026-04-25T08:24:50.593Z</time></trkpt><trkpt lat="46.3119484" lon="10.7737895"><ele>917.0</ele><time>2026-04-25T08:24:51.587Z</time></trkpt><trkpt lat="46.3119151" lon="10.7740449"><ele>917.0</ele><time>2026-04-25T08:24:52.572Z</time></trkpt><trkpt lat="46.3118957" lon="10.7743231"><ele>917.0</ele><time>2026-04-25T08:24:53.601Z</time></trkpt><trkpt lat="46.3118916" lon="10.7745996"><ele>916.6666666666667</ele><time>2026-04-25T08:24:54.616Z</time></trkpt><trkpt lat="46.3119112" lon="10.7748538"><ele>916.3333333333333</ele><time>2026-04-25T08:24:55.597Z</time></trkpt><trkpt lat="46.3119571" lon="10.7751039"><ele>916.0</ele><time>2026-04-25T08:24:56.586Z</time></trkpt><trkpt lat="46.3120221" lon="10.7753507"><ele>915.3333333333333</ele><time>2026-04-25T08:24:57.583Z</time></trkpt><trkpt lat="46.3120996" lon="10.7755996"><ele>914.6666666666667</ele><time>2026-04-25T08:24:58.588Z</time></trkpt><trkpt lat="46.3121888" lon="10.7758394"><ele>914.0</ele><time>2026-04-25T08:24:59.564Z</time></trkpt><trkpt lat="46.3122869" lon="10.7761013"><ele>915.0</ele><time>2026-04-25T08:25:00.604Z</time></trkpt><trkpt lat="46.3123876" lon="10.7763491"><ele>916.0</ele><time>2026-04-25T08:25:01.589Z</time></trkpt><trkpt lat="46.3124826" lon="10.7765905"><ele>917.0</ele><time>2026-04-25T08:25:02.549Z</time></trkpt><trkpt lat="46.312583" lon="10.776856"><ele>917.0</ele><time>2026-04-25T08:25:03.576Z</time></trkpt><trkpt lat="46.3126795" lon="10.7771108"><ele>917.0</ele><time>2026-04-25T08:25:04.585Z</time></trkpt><trkpt lat="46.3127847" lon="10.7773599"><ele>917.0</ele><time>2026-04-25T08:25:05.606Z</time></trkpt><trkpt lat="46.3129004" lon="10.7775806"><ele>916.3333333333334</ele><time>2026-04-25T08:25:06.582Z</time></trkpt><trkpt lat="46.3130406" lon="10.777791"><ele>915.6666666666667</ele><time>2026-04-25T08:25:07.596Z</time></trkpt><trkpt lat="46.3131929" lon="10.777979"><ele>915.0</ele><time>2026-04-25T08:25:08.592Z</time></trkpt><trkpt lat="46.313355" lon="10.7781466"><ele>915.0</ele><time>2026-04-25T08:25:09.575Z</time></trkpt><trkpt lat="46.313524" lon="10.778313"><ele>915.0</ele><time>2026-04-25T08:25:10.603Z</time></trkpt><trkpt lat="46.3136866" lon="10.7784628"><ele>915.0</ele><time>2026-04-25T08:25:11.583Z</time></trkpt><trkpt lat="46.3138467" lon="10.7786221"><ele>916.6666666666667</ele><time>2026-04-25T08:25:12.593Z</time></trkpt><trkpt lat="46.3140051" lon="10.7787763"><ele>918.3333333333334</ele><time>2026-04-25T08:25:13.582Z</time></trkpt><trkpt lat="46.3141593" lon="10.778929"><ele>920.0</ele><time>2026-04-25T08:25:14.569Z</time></trkpt><trkpt lat="46.3143225" lon="10.7790883"><ele>920.0</ele><time>2026-04-25T08:25:15.611Z</time></trkpt><trkpt lat="46.3144679" lon="10.7792387"><ele>920.0</ele><time>2026-04-25T08:25:16.585Z</time></trkpt><trkpt lat="46.3146149" lon="10.7793837"><ele>920.0</ele><time>2026-04-25T08:25:17.573Z</time></trkpt><trkpt lat="46.3147658" lon="10.779527"><ele>920.3333333333334</ele><time>2026-04-25T08:25:18.6Z</time></trkpt><trkpt lat="46.3149012" lon="10.7796578"><ele>920.6666666666667</ele><time>2026-04-25T08:25:19.569Z</time></trkpt><trkpt lat="46.315041" lon="10.7797949"><ele>921.0</ele><time>2026-04-25T08:25:20.596Z</time></trkpt><trkpt lat="46.3151724" lon="10.7799268"><ele>921.0</ele><time>2026-04-25T08:25:21.561Z</time></trkpt><trkpt lat="46.3153122" lon="10.7800755"><ele>921.0</ele><time>2026-04-25T08:25:22.586Z</time></trkpt><trkpt lat="46.3154461" lon="10.7802319"><ele>921.0</ele><time>2026-04-25T08:25:23.587Z</time></trkpt><trkpt lat="46.3155676" lon="10.7803998"><ele>922.0</ele><time>2026-04-25T08:25:24.582Z</time></trkpt><trkpt lat="46.3156807" lon="10.7805871"><ele>923.0</ele><time>2026-04-25T08:25:25.592Z</time></trkpt><trkpt lat="46.3157838" lon="10.7807901"><ele>924.0</ele><time>2026-04-25T08:25:26.583Z</time></trkpt><trkpt lat="46.3158798" lon="10.7810116"><ele>922.6666666666667</ele><time>2026-04-25T08:25:27.594Z</time></trkpt><trkpt lat="46.3159648" lon="10.7812442"><ele>921.3333333333334</ele><time>2026-04-25T08:25:28.59Z</time></trkpt><trkpt lat="46.3160384" lon="10.7814802"><ele>920.0</ele><time>2026-04-25T08:25:29.576Z</time></trkpt><trkpt lat="46.3161001" lon="10.7817344"><ele>918.3333333333334</ele><time>2026-04-25T08:25:30.59Z</time></trkpt><trkpt lat="46.3161459" lon="10.7819868"><ele>916.6666666666667</ele><time>2026-04-25T08:25:31.564Z</time></trkpt><trkpt lat="46.3161753" lon="10.78226"><ele>915.0</ele><time>2026-04-25T08:25:32.596Z</time></trkpt><trkpt lat="46.3161875" lon="10.7825273"><ele>915.6666666666667</ele><time>2026-04-25T08:25:33.575Z</time></trkpt><trkpt lat="46.3161912" lon="10.7828146"><ele>916.3333333333334</ele><time>2026-04-25T08:25:34.604Z</time></trkpt><trkpt lat="46.3161813" lon="10.7830935"><ele>917.0</ele><time>2026-04-25T08:25:35.603Z</time></trkpt><trkpt lat="46.3161641" lon="10.7833687"><ele>916.3333333333334</ele><time>2026-04-25T08:25:36.586Z</time></trkpt><trkpt lat="46.3161436" lon="10.7836403"><ele>915.6666666666667</ele><time>2026-04-25T08:25:37.562Z</time></trkpt><trkpt lat="46.3161271" lon="10.7839136"><ele>915.0</ele><time>2026-04-25T08:25:38.557Z</time></trkpt><trkpt lat="46.3161122" lon="10.7841946"><ele>915.3333333333333</ele><time>2026-04-25T08:25:39.575Z</time></trkpt><trkpt lat="46.3160902" lon="10.7844639"><ele>915.6666666666666</ele><time>2026-04-25T08:25:40.56Z</time></trkpt><trkpt lat="46.316058" lon="10.7847265"><ele>916.0</ele><time>2026-04-25T08:25:41.535Z</time></trkpt><trkpt lat="46.3160039" lon="10.7849913"><ele>917.6666666666666</ele><time>2026-04-25T08:25:42.546Z</time></trkpt><trkpt lat="46.3159319" lon="10.7852517"><ele>919.3333333333333</ele><time>2026-04-25T08:25:43.567Z</time></trkpt><trkpt lat="46.3158409" lon="10.7854963"><ele>921.0</ele><time>2026-04-25T08:25:44.565Z</time></trkpt><trkpt lat="46.3157315" lon="10.7857232"><ele>921.0</ele><time>2026-04-25T08:25:45.569Z</time></trkpt><trkpt lat="46.3156079" lon="10.7859347"><ele>921.0</ele><time>2026-04-25T08:25:46.589Z</time></trkpt><trkpt lat="46.3154949" lon="10.7861234"><ele>921.0</ele><time>2026-04-25T08:25:47.542Z</time></trkpt><trkpt lat="46.3153853" lon="10.7863342"><ele>918.6666666666667</ele><time>2026-04-25T08:25:48.571Z</time></trkpt><trkpt lat="46.3153004" lon="10.786551"><ele>916.3333333333334</ele><time>2026-04-25T08:25:49.558Z</time></trkpt><trkpt lat="46.3152304" lon="10.786798"><ele>914.0</ele><time>2026-04-25T08:25:50.584Z</time></trkpt><trkpt lat="46.3151786" lon="10.7870428"><ele>914.0</ele><time>2026-04-25T08:25:51.542Z</time></trkpt><trkpt lat="46.3151525" lon="10.7873066"><ele>914.0</ele><time>2026-04-25T08:25:52.564Z</time></trkpt><trkpt lat="46.3151454" lon="10.7875755"><ele>914.0</ele><time>2026-04-25T08:25:53.586Z</time></trkpt><trkpt lat="46.3151465" lon="10.7878434"><ele>914.0</ele><time>2026-04-25T08:25:54.596Z</time></trkpt><trkpt lat="46.3151477" lon="10.7881028"><ele>914.0</ele><time>2026-04-25T08:25:55.585Z</time></trkpt><trkpt lat="46.315154" lon="10.7883527"><ele>914.0</ele><time>2026-04-25T08:25:56.563Z</time></trkpt><trkpt lat="46.3151652" lon="10.7885953"><ele>911.0</ele><time>2026-04-25T08:25:57.557Z</time></trkpt><trkpt lat="46.3151876" lon="10.78884"><ele>908.0</ele><time>2026-04-25T08:25:58.581Z</time></trkpt><trkpt lat="46.315221" lon="10.7890806"><ele>905.0</ele><time>2026-04-25T08:25:59.584Z</time></trkpt><trkpt lat="46.3152617" lon="10.7893199"><ele>903.6666666666667</ele><time>2026-04-25T08:26:00.591Z</time></trkpt><trkpt lat="46.3153109" lon="10.7895465"><ele>902.3333333333333</ele><time>2026-04-25T08:26:01.597Z</time></trkpt><trkpt lat="46.3153683" lon="10.7897513"><ele>901.0</ele><time>2026-04-25T08:26:02.579Z</time></trkpt><trkpt lat="46.315432" lon="10.7899508"><ele>901.0</ele><time>2026-04-25T08:26:03.574Z</time></trkpt><trkpt lat="46.3155118" lon="10.7901529"><ele>901.0</ele><time>2026-04-25T08:26:04.59Z</time></trkpt><trkpt lat="46.3155931" lon="10.7903556"><ele>901.0</ele><time>2026-04-25T08:26:05.601Z</time></trkpt><trkpt lat="46.3156779" lon="10.7905547"><ele>906.0</ele><time>2026-04-25T08:26:06.573Z</time></trkpt><trkpt lat="46.3157627" lon="10.79076"><ele>911.0</ele><time>2026-04-25T08:26:07.577Z</time></trkpt><trkpt lat="46.3158398" lon="10.7909552"><ele>916.0</ele><time>2026-04-25T08:26:08.578Z</time></trkpt><trkpt lat="46.315916" lon="10.7911598"><ele>916.0</ele><time>2026-04-25T08:26:09.594Z</time></trkpt><trkpt lat="46.3159804" lon="10.7913613"><ele>916.0</ele><time>2026-04-25T08:26:10.584Z</time></trkpt><trkpt lat="46.3160392" lon="10.7915816"><ele>916.0</ele><time>2026-04-25T08:26:11.581Z</time></trkpt><trkpt lat="46.3160865" lon="10.791806"><ele>914.0</ele><time>2026-04-25T08:26:12.568Z</time></trkpt><trkpt lat="46.3161251" lon="10.7920349"><ele>912.0</ele><time>2026-04-25T08:26:13.56Z</time></trkpt><trkpt lat="46.3161564" lon="10.7922634"><ele>910.0</ele><time>2026-04-25T08:26:14.593Z</time></trkpt><trkpt lat="46.3161877" lon="10.7924665"><ele>910.0</ele><time>2026-04-25T08:26:15.561Z</time></trkpt><trkpt lat="46.3162225" lon="10.79267"><ele>910.0</ele><time>2026-04-25T08:26:16.585Z</time></trkpt><trkpt lat="46.3162708" lon="10.7928653"><ele>910.0</ele><time>2026-04-25T08:26:17.59Z</time></trkpt><trkpt lat="46.3163319" lon="10.7930643"><ele>910.0</ele><time>2026-04-25T08:26:18.616Z</time></trkpt><trkpt lat="46.3164017" lon="10.7932549"><ele>913.0</ele><time>2026-04-25T08:26:19.606Z</time></trkpt><trkpt lat="46.3164777" lon="10.7934462"><ele>916.0</ele><time>2026-04-25T08:26:20.602Z</time></trkpt><trkpt lat="46.3165603" lon="10.7936344"><ele>919.0</ele><time>2026-04-25T08:26:21.588Z</time></trkpt><trkpt lat="46.3166493" lon="10.7938283"><ele>919.0</ele><time>2026-04-25T08:26:22.593Z</time></trkpt><trkpt lat="46.3167357" lon="10.7940239"><ele>919.0</ele><time>2026-04-25T08:26:23.59Z</time></trkpt><trkpt lat="46.3168246" lon="10.7942194"><ele>919.0</ele><time>2026-04-25T08:26:24.588Z</time></trkpt><trkpt lat="46.3169085" lon="10.7944047"><ele>916.25</ele><time>2026-04-25T08:26:25.563Z</time></trkpt><trkpt lat="46.316999" lon="10.7945829"><ele>913.5</ele><time>2026-04-25T08:26:26.572Z</time></trkpt><trkpt lat="46.3170838" lon="10.7947571"><ele>910.75</ele><time>2026-04-25T08:26:27.584Z</time></trkpt><trkpt lat="46.317158" lon="10.7949287"><ele>908.0</ele><time>2026-04-25T08:26:28.58Z</time></trkpt><trkpt lat="46.3172178" lon="10.7951009"><ele>915.5</ele><time>2026-04-25T08:26:29.593Z</time></trkpt><trkpt lat="46.3172665" lon="10.7952774"><ele>923.0</ele><time>2026-04-25T08:26:30.608Z</time></trkpt><trkpt lat="46.3173043" lon="10.7954478"><ele>930.5</ele><time>2026-04-25T08:26:31.589Z</time></trkpt><trkpt lat="46.3173366" lon="10.795617"><ele>938.0</ele><time>2026-04-25T08:26:32.589Z</time></trkpt><trkpt lat="46.3173543" lon="10.7957909"><ele>938.0</ele><time>2026-04-25T08:26:33.585Z</time></trkpt><trkpt lat="46.3173624" lon="10.795967"><ele>938.0</ele><time>2026-04-25T08:26:34.58Z</time></trkpt><trkpt lat="46.3173676" lon="10.7961533"><ele>938.0</ele><time>2026-04-25T08:26:35.591Z</time></trkpt><trkpt lat="46.3173717" lon="10.7963398"><ele>938.0</ele><time>2026-04-25T08:26:36.585Z</time></trkpt><trkpt lat="46.3173728" lon="10.7965189"><ele>937.0</ele><time>2026-04-25T08:26:37.57Z</time></trkpt><trkpt lat="46.3173786" lon="10.7966861"><ele>936.0</ele><time>2026-04-25T08:26:38.566Z</time></trkpt><trkpt lat="46.3173782" lon="10.7968507"><ele>935.0</ele><time>2026-04-25T08:26:39.582Z</time></trkpt><trkpt lat="46.3173666" lon="10.7969968"><ele>934.0</ele><time>2026-04-25T08:26:40.551Z</time></trkpt><trkpt lat="46.3173464" lon="10.7971443"><ele>933.0</ele><time>2026-04-25T08:26:41.577Z</time></trkpt><trkpt lat="46.3173162" lon="10.7972826"><ele>932.5999999999999</ele><time>2026-04-25T08:26:42.585Z</time></trkpt><trkpt lat="46.3172816" lon="10.7974116"><ele>932.1999999999999</ele><time>2026-04-25T08:26:43.595Z</time></trkpt><trkpt lat="46.3172405" lon="10.7975325"><ele>931.8</ele><time>2026-04-25T08:26:44.599Z</time></trkpt><trkpt lat="46.3171918" lon="10.7976537"><ele>931.4</ele><time>2026-04-25T08:26:45.565Z</time></trkpt><trkpt lat="46.3171291" lon="10.7977851"><ele>931.0</ele><time>2026-04-25T08:26:46.583Z</time></trkpt><trkpt lat="46.3170628" lon="10.7979168"><ele>928.1999999999999</ele><time>2026-04-25T08:26:47.588Z</time></trkpt><trkpt lat="46.3169949" lon="10.7980356"><ele>925.3999999999999</ele><time>2026-04-25T08:26:48.582Z</time></trkpt><trkpt lat="46.3169264" lon="10.7981423"><ele>922.6</ele><time>2026-04-25T08:26:49.571Z</time></trkpt><trkpt lat="46.3168529" lon="10.7982414"><ele>919.8</ele><time>2026-04-25T08:26:50.589Z</time></trkpt><trkpt lat="46.3167849" lon="10.7983461"><ele>917.0</ele><time>2026-04-25T08:26:51.579Z</time></trkpt><trkpt lat="46.3167006" lon="10.7984713"><ele>915.75</ele><time>2026-04-25T08:26:52.582Z</time></trkpt><trkpt lat="46.3166001" lon="10.7985976"><ele>914.5</ele><time>2026-04-25T08:26:53.584Z</time></trkpt><trkpt lat="46.3165016" lon="10.798722"><ele>913.25</ele><time>2026-04-25T08:26:54.566Z</time></trkpt><trkpt lat="46.3164035" lon="10.7988532"><ele>912.0</ele><time>2026-04-25T08:26:55.588Z</time></trkpt><trkpt lat="46.3163106" lon="10.7989767"><ele>912.0</ele><time>2026-04-25T08:26:56.592Z</time></trkpt><trkpt lat="46.3162247" lon="10.7991003"><ele>912.0</ele><time>2026-04-25T08:26:57.575Z</time></trkpt><trkpt lat="46.3161376" lon="10.7992345"><ele>912.0</ele><time>2026-04-25T08:26:58.58Z</time></trkpt><trkpt lat="46.316053" lon="10.7993867"><ele>912.0</ele><time>2026-04-25T08:26:59.596Z</time></trkpt><trkpt lat="46.3159731" lon="10.7995477"><ele>913.25</ele><time>2026-04-25T08:27:00.596Z</time></trkpt><trkpt lat="46.3158974" lon="10.7997123"><ele>914.5</ele><time>2026-04-25T08:27:01.618Z</time></trkpt><trkpt lat="46.3158363" lon="10.7998625"><ele>915.75</ele><time>2026-04-25T08:27:02.57Z</time></trkpt><trkpt lat="46.3157799" lon="10.8000149"><ele>917.0</ele><time>2026-04-25T08:27:03.562Z</time></trkpt><trkpt lat="46.3157312" lon="10.8001685"><ele>917.0</ele><time>2026-04-25T08:27:04.581Z</time></trkpt><trkpt lat="46.3156946" lon="10.8003314"><ele>917.0</ele><time>2026-04-25T08:27:05.58Z</time></trkpt><trkpt lat="46.3156634" lon="10.8005079"><ele>917.0</ele><time>2026-04-25T08:27:06.587Z</time></trkpt><trkpt lat="46.3156458" lon="10.8006782"><ele>917.0</ele><time>2026-04-25T08:27:07.568Z</time></trkpt><trkpt lat="46.3156382" lon="10.8008548"><ele>917.25</ele><time>2026-04-25T08:27:08.57Z</time></trkpt><trkpt lat="46.3156453" lon="10.8010376"><ele>917.5</ele><time>2026-04-25T08:27:09.569Z</time></trkpt><trkpt lat="46.3156625" lon="10.8012287"><ele>917.75</ele><time>2026-04-25T08:27:10.572Z</time></trkpt><trkpt lat="46.3156795" lon="10.8014145"><ele>918.0</ele><time>2026-04-25T08:27:11.595Z</time></trkpt><trkpt lat="46.315693" lon="10.8015671"><ele>918.0</ele><time>2026-04-25T08:27:12.575Z</time></trkpt><trkpt lat="46.3157024" lon="10.8017122"><ele>918.0</ele><time>2026-04-25T08:27:13.574Z</time></trkpt><trkpt lat="46.3157146" lon="10.8018472"><ele>918.0</ele><time>2026-04-25T08:27:14.614Z</time></trkpt><trkpt lat="46.3157299" lon="10.8019684"><ele>918.0</ele><time>2026-04-25T08:27:15.58Z</time></trkpt><trkpt lat="46.3157429" lon="10.8020978"><ele>918.0</ele><time>2026-04-25T08:27:16.6Z</time></trkpt><trkpt lat="46.3157547" lon="10.8022311"><ele>918.2</ele><time>2026-04-25T08:27:17.587Z</time></trkpt><trkpt lat="46.3157673" lon="10.8023786"><ele>918.4</ele><time>2026-04-25T08:27:18.59Z</time></trkpt><trkpt lat="46.3157797" lon="10.8025372"><ele>918.6000000000001</ele><time>2026-04-25T08:27:19.596Z</time></trkpt><trkpt lat="46.3157916" lon="10.8026869"><ele>918.8000000000001</ele><time>2026-04-25T08:27:20.575Z</time></trkpt><trkpt lat="46.3157984" lon="10.8028427"><ele>919.0</ele><time>2026-04-25T08:27:21.602Z</time></trkpt><trkpt lat="46.3158074" lon="10.8029991"><ele>917.75</ele><time>2026-04-25T08:27:22.586Z</time></trkpt><trkpt lat="46.3158201" lon="10.8031743"><ele>916.5</ele><time>2026-04-25T08:27:23.596Z</time></trkpt><trkpt lat="46.3158355" lon="10.8033493"><ele>915.25</ele><time>2026-04-25T08:27:24.589Z</time></trkpt><trkpt lat="46.3158535" lon="10.8035326"><ele>914.0</ele><time>2026-04-25T08:27:25.563Z</time></trkpt><trkpt lat="46.3158779" lon="10.8037331"><ele>912.25</ele><time>2026-04-25T08:27:26.582Z</time></trkpt><trkpt lat="46.3159097" lon="10.8039287"><ele>910.5</ele><time>2026-04-25T08:27:27.591Z</time></trkpt><trkpt lat="46.3159499" lon="10.8041247"><ele>908.75</ele><time>2026-04-25T08:27:28.591Z</time></trkpt><trkpt lat="46.3159942" lon="10.8043179"><ele>907.0</ele><time>2026-04-25T08:27:29.593Z</time></trkpt><trkpt lat="46.3160418" lon="10.8045116"><ele>905.25</ele><time>2026-04-25T08:27:30.595Z</time></trkpt><trkpt lat="46.3160915" lon="10.8046947"><ele>903.5</ele><time>2026-04-25T08:27:31.592Z</time></trkpt><trkpt lat="46.3161414" lon="10.8048652"><ele>901.75</ele><time>2026-04-25T08:27:32.606Z</time></trkpt><trkpt lat="46.3161979" lon="10.8050295"><ele>900.0</ele><time>2026-04-25T08:27:33.588Z</time></trkpt><trkpt lat="46.316264" lon="10.8051863"><ele>900.75</ele><time>2026-04-25T08:27:34.571Z</time></trkpt><trkpt lat="46.3163413" lon="10.8053378"><ele>901.5</ele><time>2026-04-25T08:27:35.582Z</time></trkpt><trkpt lat="46.3164288" lon="10.8054928"><ele>902.25</ele><time>2026-04-25T08:27:36.602Z</time></trkpt><trkpt lat="46.3165176" lon="10.8056429"><ele>903.0</ele><time>2026-04-25T08:27:37.572Z</time></trkpt><trkpt lat="46.3166169" lon="10.8058036"><ele>903.0</ele><time>2026-04-25T08:27:38.594Z</time></trkpt><trkpt lat="46.3167102" lon="10.8059581"><ele>903.0</ele><time>2026-04-25T08:27:39.565Z</time></trkpt><trkpt lat="46.3168066" lon="10.8061194"><ele>903.0</ele><time>2026-04-25T08:27:40.583Z</time></trkpt><trkpt lat="46.3168978" lon="10.8062693"><ele>903.0</ele><time>2026-04-25T08:27:41.575Z</time></trkpt><trkpt lat="46.3169862" lon="10.8064158"><ele>900.5</ele><time>2026-04-25T08:27:42.553Z</time></trkpt><trkpt lat="46.3170749" lon="10.8065597"><ele>898.0</ele><time>2026-04-25T08:27:43.581Z</time></trkpt><trkpt lat="46.3171611" lon="10.8066948"><ele>895.5</ele><time>2026-04-25T08:27:44.546Z</time></trkpt><trkpt lat="46.3172546" lon="10.8068457"><ele>893.0</ele><time>2026-04-25T08:27:45.58Z</time></trkpt><trkpt lat="46.3173478" lon="10.8069993"><ele>892.6666666666667</ele><time>2026-04-25T08:27:46.566Z</time></trkpt><trkpt lat="46.3174491" lon="10.8071581"><ele>892.3333333333333</ele><time>2026-04-25T08:27:47.59Z</time></trkpt><trkpt lat="46.3175455" lon="10.8073214"><ele>892.0</ele><time>2026-04-25T08:27:48.582Z</time></trkpt><trkpt lat="46.317636" lon="10.8074984"><ele>889.75</ele><time>2026-04-25T08:27:49.584Z</time></trkpt><trkpt lat="46.3177206" lon="10.807679"><ele>887.5</ele><time>2026-04-25T08:27:50.59Z</time></trkpt><trkpt lat="46.3177934" lon="10.8078548"><ele>885.25</ele><time>2026-04-25T08:27:51.582Z</time></trkpt><trkpt lat="46.3178633" lon="10.8080232"><ele>883.0</ele><time>2026-04-25T08:27:52.588Z</time></trkpt><trkpt lat="46.3179206" lon="10.8081769"><ele>883.0</ele><time>2026-04-25T08:27:53.582Z</time></trkpt><trkpt lat="46.317971" lon="10.8083173"><ele>883.0</ele><time>2026-04-25T08:27:54.565Z</time></trkpt><trkpt lat="46.3180134" lon="10.8084529"><ele>883.0</ele><time>2026-04-25T08:27:55.594Z</time></trkpt><trkpt lat="46.3180513" lon="10.8085772"><ele>883.0</ele><time>2026-04-25T08:27:56.596Z</time></trkpt><trkpt lat="46.3180813" lon="10.8086951"><ele>883.0</ele><time>2026-04-25T08:27:57.602Z</time></trkpt><trkpt lat="46.3180983" lon="10.808805"><ele>884.9999999999999</ele><time>2026-04-25T08:27:58.573Z</time></trkpt><trkpt lat="46.3180951" lon="10.8089149"><ele>887.0</ele><time>2026-04-25T08:27:59.604Z</time></trkpt><trkpt lat="46.318083" lon="10.8090262"><ele>889.0</ele><time>2026-04-25T08:28:00.599Z</time></trkpt><trkpt lat="46.3180794" lon="10.8091387"><ele>891.0</ele><time>2026-04-25T08:28:01.607Z</time></trkpt><trkpt lat="46.3180947" lon="10.8092475"><ele>892.9999999999999</ele><time>2026-04-25T08:28:02.589Z</time></trkpt><trkpt lat="46.3181419" lon="10.8093469"><ele>895.0</ele><time>2026-04-25T08:28:03.604Z</time></trkpt><trkpt lat="46.3182139" lon="10.8094528"><ele>895.0</ele><time>2026-04-25T08:28:04.584Z</time></trkpt><trkpt lat="46.3183016" lon="10.80959"><ele>895.0</ele><time>2026-04-25T08:28:05.596Z</time></trkpt><trkpt lat="46.3183659" lon="10.8097667"><ele>895.0</ele><time>2026-04-25T08:28:06.585Z</time></trkpt><trkpt lat="46.3184029" lon="10.8099668"><ele>895.0</ele><time>2026-04-25T08:28:07.568Z</time></trkpt><trkpt lat="46.3184285" lon="10.8101747"><ele>891.25</ele><time>2026-04-25T08:28:08.588Z</time></trkpt><trkpt lat="46.31846" lon="10.8103646"><ele>887.5</ele><time>2026-04-25T08:28:09.594Z</time></trkpt><trkpt lat="46.3184946" lon="10.8105393"><ele>883.75</ele><time>2026-04-25T08:28:10.595Z</time></trkpt><trkpt lat="46.318536" lon="10.8107039"><ele>880.0</ele><time>2026-04-25T08:28:11.589Z</time></trkpt><trkpt lat="46.3185884" lon="10.8108587"><ele>877.75</ele><time>2026-04-25T08:28:12.596Z</time></trkpt><trkpt lat="46.3186463" lon="10.8110097"><ele>875.5</ele><time>2026-04-25T08:28:13.573Z</time></trkpt><trkpt lat="46.3187097" lon="10.8111671"><ele>873.25</ele><time>2026-04-25T08:28:14.572Z</time></trkpt><trkpt lat="46.318776" lon="10.811331"><ele>871.0</ele><time>2026-04-25T08:28:15.587Z</time></trkpt><trkpt lat="46.3188399" lon="10.8115031"><ele>876.25</ele><time>2026-04-25T08:28:16.576Z</time></trkpt><trkpt lat="46.3189024" lon="10.8116797"><ele>881.5</ele><time>2026-04-25T08:28:17.584Z</time></trkpt><trkpt lat="46.3189554" lon="10.8118655"><ele>886.75</ele><time>2026-04-25T08:28:18.588Z</time></trkpt><trkpt lat="46.3189956" lon="10.8120479"><ele>892.0</ele><time>2026-04-25T08:28:19.568Z</time></trkpt><trkpt lat="46.3190268" lon="10.8122339"><ele>892.0</ele><time>2026-04-25T08:28:20.569Z</time></trkpt><trkpt lat="46.3190526" lon="10.812422"><ele>892.0</ele><time>2026-04-25T08:28:21.602Z</time></trkpt><trkpt lat="46.319072" lon="10.8125898"><ele>892.0</ele><time>2026-04-25T08:28:22.577Z</time></trkpt><trkpt lat="46.3190915" lon="10.8127509"><ele>892.0</ele><time>2026-04-25T08:28:23.602Z</time></trkpt><trkpt lat="46.3191073" lon="10.8128926"><ele>889.9999999999999</ele><time>2026-04-25T08:28:24.571Z</time></trkpt><trkpt lat="46.3191228" lon="10.8130375"><ele>888.0</ele><time>2026-04-25T08:28:25.567Z</time></trkpt><trkpt lat="46.3191386" lon="10.8131698"><ele>886.0</ele><time>2026-04-25T08:28:26.533Z</time></trkpt><trkpt lat="46.319156" lon="10.8132953"><ele>884.0</ele><time>2026-04-25T08:28:27.567Z</time></trkpt><trkpt lat="46.3191712" lon="10.8134047"><ele>881.9999999999999</ele><time>2026-04-25T08:28:28.584Z</time></trkpt><trkpt lat="46.3191854" lon="10.8135009"><ele>880.0</ele><time>2026-04-25T08:28:29.569Z</time></trkpt><trkpt lat="46.3192043" lon="10.8136475"><ele>878.6666666666666</ele><time>2026-04-25T08:28:31.597Z</time></trkpt><trkpt lat="46.3192246" lon="10.8137543"><ele>877.3333333333333</ele><time>2026-04-25T08:28:33.576Z</time></trkpt><trkpt lat="46.3192488" lon="10.8138483"><ele>876.0</ele><time>2026-04-25T08:28:35.589Z</time></trkpt><trkpt lat="46.3192818" lon="10.8139337"><ele>874.6666666666667</ele><time>2026-04-25T08:30:23.536Z</time></trkpt><trkpt lat="46.3193398" lon="10.8140901"><ele>873.3333333333334</ele><time>2026-04-25T08:30:25.567Z</time></trkpt><trkpt lat="46.3193868" lon="10.8142148"><ele>872.0</ele><time>2026-04-25T08:30:26.581Z</time></trkpt><trkpt lat="46.3194443" lon="10.8143541"><ele>868.75</ele><time>2026-04-25T08:30:27.565Z</time></trkpt><trkpt lat="46.3195096" lon="10.8145044"><ele>865.5</ele><time>2026-04-25T08:30:28.576Z</time></trkpt><trkpt lat="46.3195772" lon="10.8146649"><ele>862.25</ele><time>2026-04-25T08:30:29.594Z</time></trkpt><trkpt lat="46.31964" lon="10.8148358"><ele>859.0</ele><time>2026-04-25T08:30:30.609Z</time></trkpt><trkpt lat="46.3197006" lon="10.8150115"><ele>864.75</ele><time>2026-04-25T08:30:31.596Z</time></trkpt><trkpt lat="46.3197534" lon="10.8151731"><ele>870.5</ele><time>2026-04-25T08:30:32.545Z</time></trkpt><trkpt lat="46.3197907" lon="10.8153573"><ele>876.25</ele><time>2026-04-25T08:30:33.61Z</time></trkpt><trkpt lat="46.3198034" lon="10.8155245"><ele>882.0</ele><time>2026-04-25T08:30:34.59Z</time></trkpt><trkpt lat="46.3198076" lon="10.8156938"><ele>882.0</ele><time>2026-04-25T08:30:35.579Z</time></trkpt><trkpt lat="46.319807" lon="10.8158529"><ele>882.0</ele><time>2026-04-25T08:30:36.572Z</time></trkpt><trkpt lat="46.3198067" lon="10.816011"><ele>882.0</ele><time>2026-04-25T08:30:37.603Z</time></trkpt><trkpt lat="46.3198045" lon="10.8161773"><ele>882.0</ele><time>2026-04-25T08:30:38.59Z</time></trkpt><trkpt lat="46.3198048" lon="10.8163612"><ele>881.25</ele><time>2026-04-25T08:30:39.59Z</time></trkpt><trkpt lat="46.3198075" lon="10.81654"><ele>880.5</ele><time>2026-04-25T08:30:40.56Z</time></trkpt><trkpt lat="46.3198128" lon="10.8167226"><ele>879.75</ele><time>2026-04-25T08:30:41.595Z</time></trkpt><trkpt lat="46.3198171" lon="10.8168853"><ele>879.0</ele><time>2026-04-25T08:30:42.587Z</time></trkpt><trkpt lat="46.3198169" lon="10.8170421"><ele>879.0</ele><time>2026-04-25T08:30:43.594Z</time></trkpt><trkpt lat="46.3198139" lon="10.8172022"><ele>879.0000000000001</ele><time>2026-04-25T08:30:44.587Z</time></trkpt><trkpt lat="46.3198026" lon="10.8173647"><ele>879.0000000000001</ele><time>2026-04-25T08:30:45.599Z</time></trkpt><trkpt lat="46.3197885" lon="10.8175177"><ele>879.0</ele><time>2026-04-25T08:30:46.605Z</time></trkpt><trkpt lat="46.3197842" lon="10.8176566"><ele>879.0</ele><time>2026-04-25T08:30:47.578Z</time></trkpt><trkpt lat="46.3198079" lon="10.8178177"><ele>877.0</ele><time>2026-04-25T08:30:48.61Z</time></trkpt><trkpt lat="46.3198454" lon="10.8179937"><ele>875.0</ele><time>2026-04-25T08:30:49.611Z</time></trkpt><trkpt lat="46.3198814" lon="10.8181801"><ele>873.0</ele><time>2026-04-25T08:30:50.598Z</time></trkpt><trkpt lat="46.3199194" lon="10.8183776"><ele>871.0</ele><time>2026-04-25T08:30:51.591Z</time></trkpt><trkpt lat="46.3199507" lon="10.8185949"><ele>869.3333333333333</ele><time>2026-04-25T08:30:52.609Z</time></trkpt><trkpt lat="46.3199725" lon="10.8188315"><ele>867.6666666666667</ele><time>2026-04-25T08:30:53.609Z</time></trkpt><trkpt lat="46.3199928" lon="10.8190827"><ele>866.0</ele><time>2026-04-25T08:30:54.587Z</time></trkpt><trkpt lat="46.3200107" lon="10.8193398"><ele>862.6666666666667</ele><time>2026-04-25T08:30:55.57Z</time></trkpt><trkpt lat="46.320033" lon="10.8195866"><ele>859.3333333333333</ele><time>2026-04-25T08:30:56.591Z</time></trkpt><trkpt lat="46.3200696" lon="10.8198237"><ele>856.0</ele><time>2026-04-25T08:30:57.596Z</time></trkpt><trkpt lat="46.3201171" lon="10.8200626"><ele>852.6666666666666</ele><time>2026-04-25T08:30:58.603Z</time></trkpt><trkpt lat="46.3201628" lon="10.8202919"><ele>849.3333333333333</ele><time>2026-04-25T08:30:59.548Z</time></trkpt><trkpt lat="46.3202178" lon="10.8205521"><ele>846.0</ele><time>2026-04-25T08:31:00.561Z</time></trkpt><trkpt lat="46.3202786" lon="10.8208286"><ele>843.3333333333333</ele><time>2026-04-25T08:31:01.601Z</time></trkpt><trkpt lat="46.3203389" lon="10.8210998"><ele>840.6666666666666</ele><time>2026-04-25T08:31:02.586Z</time></trkpt><trkpt lat="46.3203999" lon="10.8213748"><ele>838.0</ele><time>2026-04-25T08:31:03.576Z</time></trkpt><trkpt lat="46.320461" lon="10.8216538"><ele>837.0</ele><time>2026-04-25T08:31:04.59Z</time></trkpt><trkpt lat="46.3205179" lon="10.8219337"><ele>836.0</ele><time>2026-04-25T08:31:05.6Z</time></trkpt><trkpt lat="46.3205639" lon="10.822212"><ele>835.0</ele><time>2026-04-25T08:31:06.6Z</time></trkpt><trkpt lat="46.3205963" lon="10.822504"><ele>834.3333333333333</ele><time>2026-04-25T08:31:07.615Z</time></trkpt><trkpt lat="46.3206043" lon="10.8227928"><ele>833.6666666666667</ele><time>2026-04-25T08:31:08.601Z</time></trkpt><trkpt lat="46.3205912" lon="10.8230791"><ele>833.0</ele><time>2026-04-25T08:31:09.576Z</time></trkpt><trkpt lat="46.3205609" lon="10.8233642"><ele>833.6666666666667</ele><time>2026-04-25T08:31:10.544Z</time></trkpt><trkpt lat="46.3205079" lon="10.8236576"><ele>834.3333333333333</ele><time>2026-04-25T08:31:11.558Z</time></trkpt><trkpt lat="46.3204324" lon="10.8239411"><ele>835.0</ele><time>2026-04-25T08:31:12.58Z</time></trkpt><trkpt lat="46.320342" lon="10.8242033"><ele>836.0</ele><time>2026-04-25T08:31:13.555Z</time></trkpt><trkpt lat="46.3202296" lon="10.8244636"><ele>837.0</ele><time>2026-04-25T08:31:14.579Z</time></trkpt><trkpt lat="46.3201012" lon="10.8247029"><ele>838.0</ele><time>2026-04-25T08:31:15.594Z</time></trkpt><trkpt lat="46.3199612" lon="10.8249224"><ele>838.0</ele><time>2026-04-25T08:31:16.585Z</time></trkpt><trkpt lat="46.3198129" lon="10.8251297"><ele>838.0</ele><time>2026-04-25T08:31:17.579Z</time></trkpt><trkpt lat="46.3196598" lon="10.8253309"><ele>838.0</ele><time>2026-04-25T08:31:18.595Z</time></trkpt><trkpt lat="46.3195144" lon="10.8255362"><ele>835.3333333333333</ele><time>2026-04-25T08:31:19.588Z</time></trkpt><trkpt lat="46.3193827" lon="10.825744"><ele>832.6666666666667</ele><time>2026-04-25T08:31:20.56Z</time></trkpt><trkpt lat="46.3192582" lon="10.8259788"><ele>830.0</ele><time>2026-04-25T08:31:21.571Z</time></trkpt><trkpt lat="46.3191565" lon="10.8262247"><ele>830.0</ele><time>2026-04-25T08:31:22.57Z</time></trkpt><trkpt lat="46.3190682" lon="10.8264878"><ele>830.0</ele><time>2026-04-25T08:31:23.61Z</time></trkpt><trkpt lat="46.3190047" lon="10.8267428"><ele>830.0</ele><time>2026-04-25T08:31:24.61Z</time></trkpt><trkpt lat="46.3189557" lon="10.8270006"><ele>831.3333333333334</ele><time>2026-04-25T08:31:25.612Z</time></trkpt><trkpt lat="46.3189237" lon="10.8272549"><ele>832.6666666666667</ele><time>2026-04-25T08:31:26.578Z</time></trkpt><trkpt lat="46.3189102" lon="10.8275309"><ele>834.0</ele><time>2026-04-25T08:31:27.602Z</time></trkpt><trkpt lat="46.3189116" lon="10.8278033"><ele>833.6666666666667</ele><time>2026-04-25T08:31:28.588Z</time></trkpt><trkpt lat="46.3189249" lon="10.8280839"><ele>833.3333333333334</ele><time>2026-04-25T08:31:29.591Z</time></trkpt><trkpt lat="46.3189544" lon="10.8283651"><ele>833.0</ele><time>2026-04-25T08:31:30.602Z</time></trkpt><trkpt lat="46.3189922" lon="10.8286411"><ele>833.0</ele><time>2026-04-25T08:31:31.589Z</time></trkpt><trkpt lat="46.319036" lon="10.828919"><ele>833.0</ele><time>2026-04-25T08:31:32.578Z</time></trkpt><trkpt lat="46.3190828" lon="10.8292147"><ele>833.0</ele><time>2026-04-25T08:31:33.608Z</time></trkpt><trkpt lat="46.3191275" lon="10.8294995"><ele>830.0</ele><time>2026-04-25T08:31:34.591Z</time></trkpt><trkpt lat="46.3191716" lon="10.8297869"><ele>827.0</ele><time>2026-04-25T08:31:35.601Z</time></trkpt><trkpt lat="46.3192177" lon="10.830076"><ele>824.0</ele><time>2026-04-25T08:31:36.612Z</time></trkpt><trkpt lat="46.3192608" lon="10.8303617"><ele>823.6666666666667</ele><time>2026-04-25T08:31:37.606Z</time></trkpt><trkpt lat="46.319306" lon="10.8306493"><ele>823.3333333333333</ele><time>2026-04-25T08:31:38.614Z</time></trkpt><trkpt lat="46.3193465" lon="10.8309437"><ele>823.0</ele><time>2026-04-25T08:31:39.617Z</time></trkpt><trkpt lat="46.3193877" lon="10.8312326"><ele>820.5</ele><time>2026-04-25T08:31:40.593Z</time></trkpt><trkpt lat="46.3194373" lon="10.831543"><ele>818.0</ele><time>2026-04-25T08:31:41.596Z</time></trkpt><trkpt lat="46.3194989" lon="10.8318661"><ele>817.0</ele><time>2026-04-25T08:31:42.603Z</time></trkpt><trkpt lat="46.3195712" lon="10.832204"><ele>816.0</ele><time>2026-04-25T08:31:43.617Z</time></trkpt><trkpt lat="46.3196521" lon="10.8325337"><ele>819.0</ele><time>2026-04-25T08:31:44.581Z</time></trkpt><trkpt lat="46.3197489" lon="10.8328796"><ele>822.0</ele><time>2026-04-25T08:31:45.588Z</time></trkpt><trkpt lat="46.3198531" lon="10.833225"><ele>818.5</ele><time>2026-04-25T08:31:46.586Z</time></trkpt><trkpt lat="46.319956" lon="10.8335549"><ele>815.0</ele><time>2026-04-25T08:31:47.572Z</time></trkpt><trkpt lat="46.3200603" lon="10.8338809"><ele>815.0</ele><time>2026-04-25T08:31:48.592Z</time></trkpt><trkpt lat="46.3201595" lon="10.8341859"><ele>815.0</ele><time>2026-04-25T08:31:49.613Z</time></trkpt><trkpt lat="46.3202514" lon="10.8344625"><ele>815.0</ele><time>2026-04-25T08:31:50.586Z</time></trkpt><trkpt lat="46.3203423" lon="10.8347463"><ele>814.3333333333334</ele><time>2026-04-25T08:31:51.592Z</time></trkpt><trkpt lat="46.3204349" lon="10.8350292"><ele>813.6666666666667</ele><time>2026-04-25T08:31:52.604Z</time></trkpt><trkpt lat="46.3205248" lon="10.8352994"><ele>813.0</ele><time>2026-04-25T08:31:53.622Z</time></trkpt><trkpt lat="46.3206065" lon="10.8355418"><ele>812.6666666666667</ele><time>2026-04-25T08:31:54.596Z</time></trkpt><trkpt lat="46.3206862" lon="10.8357752"><ele>812.3333333333334</ele><time>2026-04-25T08:31:55.607Z</time></trkpt><trkpt lat="46.320757" lon="10.8359869"><ele>812.0</ele><time>2026-04-25T08:31:56.597Z</time></trkpt><trkpt lat="46.3208182" lon="10.8361919"><ele>812.0</ele><time>2026-04-25T08:31:57.578Z</time></trkpt><trkpt lat="46.3208578" lon="10.8364181"><ele>812.0</ele><time>2026-04-25T08:31:58.588Z</time></trkpt><trkpt lat="46.3208756" lon="10.836662"><ele>812.0</ele><time>2026-04-25T08:31:59.597Z</time></trkpt><trkpt lat="46.3208816" lon="10.8369287"><ele>812.0</ele><time>2026-04-25T08:32:00.63Z</time></trkpt><trkpt lat="46.3208808" lon="10.8371739"><ele>812.0</ele><time>2026-04-25T08:32:01.591Z</time></trkpt><trkpt lat="46.3208773" lon="10.8374315"><ele>812.0</ele><time>2026-04-25T08:32:02.611Z</time></trkpt><trkpt lat="46.3208766" lon="10.8376649"><ele>811.5</ele><time>2026-04-25T08:32:03.592Z</time></trkpt><trkpt lat="46.3208895" lon="10.83788"><ele>811.0</ele><time>2026-04-25T08:32:04.603Z</time></trkpt><trkpt lat="46.3209143" lon="10.8380714"><ele>810.5</ele><time>2026-04-25T08:32:05.604Z</time></trkpt><trkpt lat="46.3209343" lon="10.838246"><ele>810.0</ele><time>2026-04-25T08:32:06.59Z</time></trkpt><trkpt lat="46.3209444" lon="10.8384373"><ele>809.5</ele><time>2026-04-25T08:32:07.611Z</time></trkpt><trkpt lat="46.3209297" lon="10.838627"><ele>809.0</ele><time>2026-04-25T08:32:08.596Z</time></trkpt><trkpt lat="46.3208997" lon="10.8388289"><ele>808.5</ele><time>2026-04-25T08:32:09.592Z</time></trkpt><trkpt lat="46.3208683" lon="10.8390424"><ele>808.0</ele><time>2026-04-25T08:32:10.586Z</time></trkpt><trkpt lat="46.3208428" lon="10.8392737"><ele>808.0</ele><time>2026-04-25T08:32:11.595Z</time></trkpt><trkpt lat="46.3208213" lon="10.8395207"><ele>808.0</ele><time>2026-04-25T08:32:12.597Z</time></trkpt><trkpt lat="46.3208135" lon="10.8397844"><ele>808.0</ele><time>2026-04-25T08:32:13.611Z</time></trkpt><trkpt lat="46.3208114" lon="10.8400662"><ele>807.3333333333333</ele><time>2026-04-25T08:32:14.608Z</time></trkpt><trkpt lat="46.3208171" lon="10.8403502"><ele>806.6666666666667</ele><time>2026-04-25T08:32:15.593Z</time></trkpt><trkpt lat="46.3208275" lon="10.840651"><ele>806.0</ele><time>2026-04-25T08:32:16.609Z</time></trkpt><trkpt lat="46.3208379" lon="10.8409594"><ele>805.3333333333334</ele><time>2026-04-25T08:32:17.598Z</time></trkpt><trkpt lat="46.3208469" lon="10.8412677"><ele>804.6666666666667</ele><time>2026-04-25T08:32:18.574Z</time></trkpt><trkpt lat="46.3208611" lon="10.8416073"><ele>804.0</ele><time>2026-04-25T08:32:19.615Z</time></trkpt><trkpt lat="46.3208726" lon="10.8419342"><ele>803.5</ele><time>2026-04-25T08:32:20.615Z</time></trkpt><trkpt lat="46.3208823" lon="10.8422571"><ele>803.0</ele><time>2026-04-25T08:32:21.608Z</time></trkpt><trkpt lat="46.3208937" lon="10.8425856"><ele>802.0</ele><time>2026-04-25T08:32:22.589Z</time></trkpt><trkpt lat="46.320902" lon="10.8429288"><ele>801.0</ele><time>2026-04-25T08:32:23.606Z</time></trkpt><trkpt lat="46.320909" lon="10.843267"><ele>800.5</ele><time>2026-04-25T08:32:24.593Z</time></trkpt><trkpt lat="46.3209202" lon="10.8436095"><ele>800.0</ele><time>2026-04-25T08:32:25.592Z</time></trkpt><trkpt lat="46.3209512" lon="10.8439509"><ele>800.0</ele><time>2026-04-25T08:32:26.599Z</time></trkpt><trkpt lat="46.3210008" lon="10.8442819"><ele>800.0</ele><time>2026-04-25T08:32:27.594Z</time></trkpt><trkpt lat="46.321071" lon="10.844604"><ele>799.5</ele><time>2026-04-25T08:32:28.594Z</time></trkpt><trkpt lat="46.321159" lon="10.84491"><ele>799.0</ele><time>2026-04-25T08:32:29.573Z</time></trkpt><trkpt lat="46.3212724" lon="10.8452201"><ele>799.0</ele><time>2026-04-25T08:32:30.604Z</time></trkpt><trkpt lat="46.3213944" lon="10.8455075"><ele>799.0</ele><time>2026-04-25T08:32:31.601Z</time></trkpt><trkpt lat="46.3215241" lon="10.8457741"><ele>797.5</ele><time>2026-04-25T08:32:32.557Z</time></trkpt><trkpt lat="46.321668" lon="10.8460502"><ele>796.0</ele><time>2026-04-25T08:32:33.585Z</time></trkpt><trkpt lat="46.3218161" lon="10.8463249"><ele>796.0</ele><time>2026-04-25T08:32:34.602Z</time></trkpt><trkpt lat="46.3219594" lon="10.846595"><ele>796.0</ele><time>2026-04-25T08:32:35.59Z</time></trkpt><trkpt lat="46.3220987" lon="10.8468624"><ele>796.0</ele><time>2026-04-25T08:32:36.556Z</time></trkpt><trkpt lat="46.3222501" lon="10.8471471"><ele>796.0</ele><time>2026-04-25T08:32:37.583Z</time></trkpt><trkpt lat="46.3223954" lon="10.8474191"><ele>794.5</ele><time>2026-04-25T08:32:38.559Z</time></trkpt><trkpt lat="46.3225518" lon="10.8477152"><ele>793.0</ele><time>2026-04-25T08:32:39.609Z</time></trkpt><trkpt lat="46.3227055" lon="10.8479973"><ele>793.0</ele><time>2026-04-25T08:32:40.633Z</time></trkpt><trkpt lat="46.3228403" lon="10.8482522"><ele>793.0</ele><time>2026-04-25T08:32:41.572Z</time></trkpt><trkpt lat="46.322984" lon="10.8485223"><ele>795.6666666666666</ele><time>2026-04-25T08:32:42.613Z</time></trkpt><trkpt lat="46.3231124" lon="10.8487693"><ele>798.3333333333333</ele><time>2026-04-25T08:32:43.608Z</time></trkpt><trkpt lat="46.323238" lon="10.8490107"><ele>801.0</ele><time>2026-04-25T08:32:44.606Z</time></trkpt><trkpt lat="46.3233608" lon="10.8492444"><ele>798.3333333333333</ele><time>2026-04-25T08:32:45.599Z</time></trkpt><trkpt lat="46.3234701" lon="10.8494841"><ele>795.6666666666666</ele><time>2026-04-25T08:32:46.597Z</time></trkpt><trkpt lat="46.3235656" lon="10.8497338"><ele>793.0</ele><time>2026-04-25T08:32:47.58Z</time></trkpt><trkpt lat="46.323644" lon="10.8500067"><ele>791.6666666666666</ele><time>2026-04-25T08:32:48.589Z</time></trkpt><trkpt lat="46.3237036" lon="10.8502883"><ele>790.3333333333333</ele><time>2026-04-25T08:32:49.564Z</time></trkpt><trkpt lat="46.323746" lon="10.8506009"><ele>789.0</ele><time>2026-04-25T08:32:50.616Z</time></trkpt><trkpt lat="46.3237628" lon="10.8508956"><ele>789.3333333333333</ele><time>2026-04-25T08:32:51.594Z</time></trkpt><trkpt lat="46.3237553" lon="10.851201"><ele>789.6666666666666</ele><time>2026-04-25T08:32:52.6Z</time></trkpt><trkpt lat="46.3237276" lon="10.8515035"><ele>790.0</ele><time>2026-04-25T08:32:53.602Z</time></trkpt><trkpt lat="46.3236923" lon="10.851803"><ele>790.0</ele><time>2026-04-25T08:32:54.596Z</time></trkpt><trkpt lat="46.3236532" lon="10.8521059"><ele>790.0</ele><time>2026-04-25T08:32:55.606Z</time></trkpt><trkpt lat="46.3236199" lon="10.8524091"><ele>790.0</ele><time>2026-04-25T08:32:56.598Z</time></trkpt><trkpt lat="46.3236036" lon="10.8527098"><ele>789.3333333333333</ele><time>2026-04-25T08:32:57.58Z</time></trkpt><trkpt lat="46.323604" lon="10.8530171"><ele>788.6666666666667</ele><time>2026-04-25T08:32:58.578Z</time></trkpt><trkpt lat="46.3236215" lon="10.8533355"><ele>788.0</ele><time>2026-04-25T08:32:59.619Z</time></trkpt><trkpt lat="46.3236528" lon="10.8536405"><ele>788.0</ele><time>2026-04-25T08:33:00.611Z</time></trkpt><trkpt lat="46.3236901" lon="10.8539384"><ele>788.0</ele><time>2026-04-25T08:33:01.603Z</time></trkpt><trkpt lat="46.3237292" lon="10.8542354"><ele>788.0</ele><time>2026-04-25T08:33:02.574Z</time></trkpt><trkpt lat="46.3237606" lon="10.8545439"><ele>788.3333333333334</ele><time>2026-04-25T08:33:03.585Z</time></trkpt><trkpt lat="46.3237843" lon="10.8548479"><ele>788.6666666666667</ele><time>2026-04-25T08:33:04.57Z</time></trkpt><trkpt lat="46.3237963" lon="10.8551628"><ele>789.0</ele><time>2026-04-25T08:33:05.586Z</time></trkpt><trkpt lat="46.3238024" lon="10.8554793"><ele>789.0</ele><time>2026-04-25T08:33:06.599Z</time></trkpt><trkpt lat="46.3238043" lon="10.8557964"><ele>789.0</ele><time>2026-04-25T08:33:07.6Z</time></trkpt><trkpt lat="46.3238047" lon="10.8561157"><ele>789.0</ele><time>2026-04-25T08:33:08.592Z</time></trkpt><trkpt lat="46.3238027" lon="10.8564397"><ele>789.6666666666667</ele><time>2026-04-25T08:33:09.596Z</time></trkpt><trkpt lat="46.323798" lon="10.8567615"><ele>790.3333333333334</ele><time>2026-04-25T08:33:10.597Z</time></trkpt><trkpt lat="46.3237967" lon="10.8570817"><ele>791.0</ele><time>2026-04-25T08:33:11.598Z</time></trkpt><trkpt lat="46.3237957" lon="10.8574062"><ele>789.3333333333334</ele><time>2026-04-25T08:33:12.627Z</time></trkpt><trkpt lat="46.3237958" lon="10.8577077"><ele>787.6666666666667</ele><time>2026-04-25T08:33:13.592Z</time></trkpt><trkpt lat="46.3237942" lon="10.8580148"><ele>786.0</ele><time>2026-04-25T08:33:14.609Z</time></trkpt><trkpt lat="46.3238005" lon="10.8582946"><ele>785.6666666666667</ele><time>2026-04-25T08:33:15.601Z</time></trkpt><trkpt lat="46.3238167" lon="10.8585662"><ele>785.3333333333334</ele><time>2026-04-25T08:33:16.599Z</time></trkpt><trkpt lat="46.3238569" lon="10.8588456"><ele>785.0</ele><time>2026-04-25T08:33:17.616Z</time></trkpt><trkpt lat="46.323921" lon="10.8591165"><ele>786.0</ele><time>2026-04-25T08:33:18.627Z</time></trkpt><trkpt lat="46.324006" lon="10.8593704"><ele>787.0</ele><time>2026-04-25T08:33:19.606Z</time></trkpt><trkpt lat="46.3241167" lon="10.8596088"><ele>788.0</ele><time>2026-04-25T08:33:20.601Z</time></trkpt><trkpt lat="46.3242501" lon="10.8598301"><ele>788.0</ele><time>2026-04-25T08:33:21.611Z</time></trkpt><trkpt lat="46.3243952" lon="10.8600269"><ele>788.0</ele><time>2026-04-25T08:33:22.603Z</time></trkpt><trkpt lat="46.3245467" lon="10.8602215"><ele>788.0</ele><time>2026-04-25T08:33:23.602Z</time></trkpt><trkpt lat="46.3247033" lon="10.8604185"><ele>788.3333333333334</ele><time>2026-04-25T08:33:24.607Z</time></trkpt><trkpt lat="46.3248603" lon="10.8606184"><ele>788.6666666666667</ele><time>2026-04-25T08:33:25.586Z</time></trkpt><trkpt lat="46.3250245" lon="10.8608338"><ele>789.0</ele><time>2026-04-25T08:33:26.606Z</time></trkpt><trkpt lat="46.325189" lon="10.861049"><ele>788.6666666666667</ele><time>2026-04-25T08:33:27.632Z</time></trkpt><trkpt lat="46.3253507" lon="10.8612555"><ele>788.3333333333334</ele><time>2026-04-25T08:33:28.608Z</time></trkpt><trkpt lat="46.3255126" lon="10.8614648"><ele>788.0</ele><time>2026-04-25T08:33:29.595Z</time></trkpt><trkpt lat="46.3256751" lon="10.8616751"><ele>788.3333333333334</ele><time>2026-04-25T08:33:30.58Z</time></trkpt><trkpt lat="46.3258433" lon="10.8618948"><ele>788.6666666666667</ele><time>2026-04-25T08:33:31.609Z</time></trkpt><trkpt lat="46.326005" lon="10.8621022"><ele>789.0</ele><time>2026-04-25T08:33:32.581Z</time></trkpt><trkpt lat="46.3261788" lon="10.8623265"><ele>789.0</ele><time>2026-04-25T08:33:33.617Z</time></trkpt><trkpt lat="46.326339" lon="10.8625398"><ele>789.0</ele><time>2026-04-25T08:33:34.579Z</time></trkpt><trkpt lat="46.3265081" lon="10.862781"><ele>788.0</ele><time>2026-04-25T08:33:35.61Z</time></trkpt><trkpt lat="46.3266636" lon="10.8630239"><ele>787.0</ele><time>2026-04-25T08:33:36.601Z</time></trkpt><trkpt lat="46.3268029" lon="10.8632716"><ele>786.0</ele><time>2026-04-25T08:33:37.581Z</time></trkpt><trkpt lat="46.3269279" lon="10.8635301"><ele>786.0</ele><time>2026-04-25T08:33:38.564Z</time></trkpt><trkpt lat="46.3270459" lon="10.8638201"><ele>786.0</ele><time>2026-04-25T08:33:39.613Z</time></trkpt><trkpt lat="46.3271404" lon="10.8640958"><ele>786.0</ele><time>2026-04-25T08:33:40.569Z</time></trkpt><trkpt lat="46.3272289" lon="10.8643972"><ele>784.0</ele><time>2026-04-25T08:33:41.608Z</time></trkpt><trkpt lat="46.3273009" lon="10.8646907"><ele>782.0</ele><time>2026-04-25T08:33:42.608Z</time></trkpt><trkpt lat="46.3273629" lon="10.8649816"><ele>780.0</ele><time>2026-04-25T08:33:43.592Z</time></trkpt><trkpt lat="46.3274095" lon="10.8652658"><ele>780.0</ele><time>2026-04-25T08:33:44.577Z</time></trkpt><trkpt lat="46.3274424" lon="10.8655325"><ele>780.0</ele><time>2026-04-25T08:33:45.594Z</time></trkpt><trkpt lat="46.3274617" lon="10.8657645"><ele>780.0</ele><time>2026-04-25T08:33:46.598Z</time></trkpt><trkpt lat="46.3274688" lon="10.8659837"><ele>779.75</ele><time>2026-04-25T08:33:47.619Z</time></trkpt><trkpt lat="46.3274759" lon="10.8661877"><ele>779.5</ele><time>2026-04-25T08:33:48.609Z</time></trkpt><trkpt lat="46.3274761" lon="10.8663885"><ele>779.25</ele><time>2026-04-25T08:33:49.631Z</time></trkpt><trkpt lat="46.32747" lon="10.8665711"><ele>779.0</ele><time>2026-04-25T08:33:50.594Z</time></trkpt><trkpt lat="46.3274602" lon="10.8667554"><ele>778.0</ele><time>2026-04-25T08:33:51.607Z</time></trkpt><trkpt lat="46.3274505" lon="10.8669348"><ele>777.0</ele><time>2026-04-25T08:33:52.619Z</time></trkpt><trkpt lat="46.3274413" lon="10.8671084"><ele>776.0</ele><time>2026-04-25T08:33:53.606Z</time></trkpt><trkpt lat="46.3274332" lon="10.8672863"><ele>775.0</ele><time>2026-04-25T08:33:54.591Z</time></trkpt><trkpt lat="46.3274252" lon="10.8674763"><ele>774.0</ele><time>2026-04-25T08:33:55.607Z</time></trkpt><trkpt lat="46.3274141" lon="10.8676617"><ele>773.0</ele><time>2026-04-25T08:33:56.603Z</time></trkpt><trkpt lat="46.3274012" lon="10.8678438"><ele>772.0</ele><time>2026-04-25T08:33:57.595Z</time></trkpt><trkpt lat="46.3273934" lon="10.86802"><ele>771.0</ele><time>2026-04-25T08:33:58.601Z</time></trkpt><trkpt lat="46.3273959" lon="10.8681989"><ele>771.0</ele><time>2026-04-25T08:33:59.607Z</time></trkpt><trkpt lat="46.3274094" lon="10.8683903"><ele>771.0</ele><time>2026-04-25T08:34:00.61Z</time></trkpt><trkpt lat="46.3274303" lon="10.868594"><ele>771.0</ele><time>2026-04-25T08:34:01.611Z</time></trkpt><trkpt lat="46.327455" lon="10.86881"><ele>771.0</ele><time>2026-04-25T08:34:02.611Z</time></trkpt><trkpt lat="46.3274908" lon="10.8690218"><ele>771.0</ele><time>2026-04-25T08:34:03.578Z</time></trkpt><trkpt lat="46.3275379" lon="10.8692501"><ele>771.0</ele><time>2026-04-25T08:34:04.613Z</time></trkpt><trkpt lat="46.3275916" lon="10.8694571"><ele>771.0</ele><time>2026-04-25T08:34:05.597Z</time></trkpt><trkpt lat="46.3276514" lon="10.8696583"><ele>770.75</ele><time>2026-04-25T08:34:06.601Z</time></trkpt><trkpt lat="46.3277158" lon="10.8698481"><ele>770.5</ele><time>2026-04-25T08:34:07.604Z</time></trkpt><trkpt lat="46.3277878" lon="10.8700362"><ele>770.25</ele><time>2026-04-25T08:34:08.616Z</time></trkpt><trkpt lat="46.3278595" lon="10.8702143"><ele>770.0</ele><time>2026-04-25T08:34:09.589Z</time></trkpt><trkpt lat="46.3279335" lon="10.8703961"><ele>769.5</ele><time>2026-04-25T08:34:10.609Z</time></trkpt><trkpt lat="46.3279995" lon="10.8705622"><ele>769.0</ele><time>2026-04-25T08:34:11.612Z</time></trkpt><trkpt lat="46.3280578" lon="10.8707088"><ele>768.5</ele><time>2026-04-25T08:34:12.602Z</time></trkpt><trkpt lat="46.3281109" lon="10.8708435"><ele>768.0</ele><time>2026-04-25T08:34:13.596Z</time></trkpt><trkpt lat="46.3281567" lon="10.8709636"><ele>767.3333333333334</ele><time>2026-04-25T08:34:14.61Z</time></trkpt><trkpt lat="46.3281802" lon="10.8710731"><ele>766.6666666666666</ele><time>2026-04-25T08:34:15.599Z</time></trkpt><trkpt lat="46.3281814" lon="10.8711715"><ele>766.0</ele><time>2026-04-25T08:34:16.602Z</time></trkpt><trkpt lat="46.3281622" lon="10.8712596"><ele>765.3333333333333</ele><time>2026-04-25T08:34:17.587Z</time></trkpt><trkpt lat="46.3280719" lon="10.8713823"><ele>764.6666666666666</ele><time>2026-04-25T08:34:19.607Z</time></trkpt><trkpt lat="46.3280177" lon="10.8714311"><ele>764.0</ele><time>2026-04-25T08:34:20.6Z</time></trkpt><trkpt lat="46.3279798" lon="10.8715589"><ele>764.0</ele><time>2026-04-25T08:34:22.603Z</time></trkpt><trkpt lat="46.3279839" lon="10.8716568"><ele>764.0</ele><time>2026-04-25T08:34:23.599Z</time></trkpt><trkpt lat="46.3280182" lon="10.8717458"><ele>764.0</ele><time>2026-04-25T08:34:24.582Z</time></trkpt><trkpt lat="46.3280762" lon="10.8718393"><ele>764.0</ele><time>2026-04-25T08:34:25.609Z</time></trkpt><trkpt lat="46.3281335" lon="10.8719447"><ele>764.0</ele><time>2026-04-25T08:34:26.569Z</time></trkpt><trkpt lat="46.3281786" lon="10.8720889"><ele>764.0</ele><time>2026-04-25T08:34:27.595Z</time></trkpt><trkpt lat="46.3281952" lon="10.8722534"><ele>762.75</ele><time>2026-04-25T08:34:28.6Z</time></trkpt><trkpt lat="46.3281798" lon="10.8724282"><ele>761.5</ele><time>2026-04-25T08:34:29.6Z</time></trkpt><trkpt lat="46.3281354" lon="10.8726143"><ele>760.25</ele><time>2026-04-25T08:34:30.61Z</time></trkpt><trkpt lat="46.3280643" lon="10.8727979"><ele>759.0</ele><time>2026-04-25T08:34:31.613Z</time></trkpt><trkpt lat="46.3279872" lon="10.8729703"><ele>759.0</ele><time>2026-04-25T08:34:32.577Z</time></trkpt><trkpt lat="46.3279029" lon="10.8731593"><ele>759.0</ele><time>2026-04-25T08:34:33.599Z</time></trkpt><trkpt lat="46.3278155" lon="10.8733465"><ele>759.0</ele><time>2026-04-25T08:34:34.579Z</time></trkpt><trkpt lat="46.3277226" lon="10.8735528"><ele>758.3333333333334</ele><time>2026-04-25T08:34:35.609Z</time></trkpt><trkpt lat="46.3276395" lon="10.8737586"><ele>757.6666666666667</ele><time>2026-04-25T08:34:36.606Z</time></trkpt><trkpt lat="46.3275674" lon="10.8739857"><ele>757.0</ele><time>2026-04-25T08:34:37.62Z</time></trkpt><trkpt lat="46.3275154" lon="10.8742228"><ele>757.0</ele><time>2026-04-25T08:34:38.612Z</time></trkpt><trkpt lat="46.32749" lon="10.8744602"><ele>757.0</ele><time>2026-04-25T08:34:39.559Z</time></trkpt><trkpt lat="46.3274842" lon="10.8747262"><ele>757.0</ele><time>2026-04-25T08:34:40.584Z</time></trkpt><trkpt lat="46.3275033" lon="10.8749925"><ele>757.0</ele><time>2026-04-25T08:34:41.597Z</time></trkpt><trkpt lat="46.3275429" lon="10.8752456"><ele>757.0</ele><time>2026-04-25T08:34:42.564Z</time></trkpt><trkpt lat="46.3276052" lon="10.8755043"><ele>757.0</ele><time>2026-04-25T08:34:43.593Z</time></trkpt><trkpt lat="46.327682" lon="10.8757383"><ele>756.6666666666667</ele><time>2026-04-25T08:34:44.571Z</time></trkpt><trkpt lat="46.3277749" lon="10.8759791"><ele>756.3333333333334</ele><time>2026-04-25T08:34:45.598Z</time></trkpt><trkpt lat="46.3278776" lon="10.8762029"><ele>756.0</ele><time>2026-04-25T08:34:46.598Z</time></trkpt><trkpt lat="46.3279978" lon="10.8764086"><ele>754.0</ele><time>2026-04-25T08:34:47.597Z</time></trkpt><trkpt lat="46.3281408" lon="10.8765893"><ele>752.0</ele><time>2026-04-25T08:34:48.599Z</time></trkpt><trkpt lat="46.3283034" lon="10.8767472"><ele>750.0</ele><time>2026-04-25T08:34:49.605Z</time></trkpt><trkpt lat="46.3284786" lon="10.8768831"><ele>750.0</ele><time>2026-04-25T08:34:50.604Z</time></trkpt><trkpt lat="46.3286551" lon="10.8770146"><ele>750.0</ele><time>2026-04-25T08:34:51.602Z</time></trkpt><trkpt lat="46.32883" lon="10.8771443"><ele>750.0</ele><time>2026-04-25T08:34:52.59Z</time></trkpt><trkpt lat="46.3290128" lon="10.8772797"><ele>749.6666666666666</ele><time>2026-04-25T08:34:53.605Z</time></trkpt><trkpt lat="46.3291859" lon="10.8774108"><ele>749.3333333333333</ele><time>2026-04-25T08:34:54.595Z</time></trkpt><trkpt lat="46.3293543" lon="10.8775335"><ele>749.0</ele><time>2026-04-25T08:34:55.599Z</time></trkpt><trkpt lat="46.3295175" lon="10.8776571"><ele>748.6666666666666</ele><time>2026-04-25T08:34:56.618Z</time></trkpt><trkpt lat="46.329677" lon="10.8777773"><ele>748.3333333333334</ele><time>2026-04-25T08:34:57.611Z</time></trkpt><trkpt lat="46.3298383" lon="10.8779044"><ele>748.0</ele><time>2026-04-25T08:34:58.634Z</time></trkpt><trkpt lat="46.3299944" lon="10.8780227"><ele>748.0</ele><time>2026-04-25T08:34:59.608Z</time></trkpt><trkpt lat="46.3301558" lon="10.8781481"><ele>748.0</ele><time>2026-04-25T08:35:00.609Z</time></trkpt><trkpt lat="46.3303176" lon="10.8782672"><ele>748.0</ele><time>2026-04-25T08:35:01.597Z</time></trkpt><trkpt lat="46.3304749" lon="10.8783966"><ele>748.0</ele><time>2026-04-25T08:35:02.58Z</time></trkpt><trkpt lat="46.3306304" lon="10.878552"><ele>748.0</ele><time>2026-04-25T08:35:03.628Z</time></trkpt><trkpt lat="46.3307657" lon="10.8787321"><ele>748.0</ele><time>2026-04-25T08:35:04.613Z</time></trkpt><trkpt lat="46.3308823" lon="10.8789368"><ele>748.0</ele><time>2026-04-25T08:35:05.588Z</time></trkpt><trkpt lat="46.3309858" lon="10.8791803"><ele>748.0</ele><time>2026-04-25T08:35:06.599Z</time></trkpt><trkpt lat="46.3310647" lon="10.8794387"><ele>748.0</ele><time>2026-04-25T08:35:07.578Z</time></trkpt><trkpt lat="46.3311229" lon="10.8797192"><ele>747.3333333333334</ele><time>2026-04-25T08:35:08.607Z</time></trkpt><trkpt lat="46.3311618" lon="10.8799945"><ele>746.6666666666666</ele><time>2026-04-25T08:35:09.605Z</time></trkpt><trkpt lat="46.3311982" lon="10.8802703"><ele>746.0</ele><time>2026-04-25T08:35:10.615Z</time></trkpt><trkpt lat="46.3312295" lon="10.8805328"><ele>745.3333333333333</ele><time>2026-04-25T08:35:11.594Z</time></trkpt><trkpt lat="46.3312645" lon="10.8807921"><ele>744.6666666666666</ele><time>2026-04-25T08:35:12.565Z</time></trkpt><trkpt lat="46.3313019" lon="10.8810577"><ele>744.0</ele><time>2026-04-25T08:35:13.575Z</time></trkpt><trkpt lat="46.3313379" lon="10.8813172"><ele>743.3333333333334</ele><time>2026-04-25T08:35:14.579Z</time></trkpt><trkpt lat="46.3313782" lon="10.8815719"><ele>742.6666666666667</ele><time>2026-04-25T08:35:15.583Z</time></trkpt><trkpt lat="46.331415" lon="10.8818248"><ele>742.0</ele><time>2026-04-25T08:35:16.58Z</time></trkpt><trkpt lat="46.3314486" lon="10.8820874"><ele>742.0</ele><time>2026-04-25T08:35:17.602Z</time></trkpt><trkpt lat="46.3314846" lon="10.8823409"><ele>742.0</ele><time>2026-04-25T08:35:18.594Z</time></trkpt><trkpt lat="46.3315225" lon="10.8826006"><ele>742.0</ele><time>2026-04-25T08:35:19.608Z</time></trkpt><trkpt lat="46.331558" lon="10.8828527"><ele>742.6666666666667</ele><time>2026-04-25T08:35:20.591Z</time></trkpt><trkpt lat="46.3315961" lon="10.8831147"><ele>743.3333333333334</ele><time>2026-04-25T08:35:21.604Z</time></trkpt><trkpt lat="46.3316328" lon="10.8833768"><ele>744.0</ele><time>2026-04-25T08:35:22.613Z</time></trkpt><trkpt lat="46.3316679" lon="10.8836288"><ele>742.3333333333334</ele><time>2026-04-25T08:35:23.584Z</time></trkpt><trkpt lat="46.331709" lon="10.8838891"><ele>740.6666666666667</ele><time>2026-04-25T08:35:24.588Z</time></trkpt><trkpt lat="46.3317542" lon="10.8841584"><ele>739.0</ele><time>2026-04-25T08:35:25.629Z</time></trkpt><trkpt lat="46.3318018" lon="10.8844104"><ele>738.6666666666667</ele><time>2026-04-25T08:35:26.62Z</time></trkpt><trkpt lat="46.3318539" lon="10.884656"><ele>738.3333333333334</ele><time>2026-04-25T08:35:27.584Z</time></trkpt><trkpt lat="46.3319134" lon="10.8849058"><ele>738.0</ele><time>2026-04-25T08:35:28.583Z</time></trkpt><trkpt lat="46.3319794" lon="10.8851589"><ele>738.6666666666666</ele><time>2026-04-25T08:35:29.571Z</time></trkpt><trkpt lat="46.3320545" lon="10.8854163"><ele>739.3333333333333</ele><time>2026-04-25T08:35:30.595Z</time></trkpt><trkpt lat="46.3321342" lon="10.885671"><ele>740.0</ele><time>2026-04-25T08:35:31.611Z</time></trkpt><trkpt lat="46.332213" lon="10.8859096"><ele>739.6666666666666</ele><time>2026-04-25T08:35:32.576Z</time></trkpt><trkpt lat="46.3323013" lon="10.8861628"><ele>739.3333333333334</ele><time>2026-04-25T08:35:33.617Z</time></trkpt><trkpt lat="46.3323849" lon="10.8863914"><ele>739.0</ele><time>2026-04-25T08:35:34.577Z</time></trkpt><trkpt lat="46.3324813" lon="10.8866371"><ele>737.6666666666667</ele><time>2026-04-25T08:35:35.61Z</time></trkpt><trkpt lat="46.3325787" lon="10.8868817"><ele>736.3333333333334</ele><time>2026-04-25T08:35:36.634Z</time></trkpt><trkpt lat="46.33267" lon="10.8871144"><ele>735.0</ele><time>2026-04-25T08:35:37.596Z</time></trkpt><trkpt lat="46.3327708" lon="10.8873584"><ele>735.3333333333334</ele><time>2026-04-25T08:35:38.608Z</time></trkpt><trkpt lat="46.3328728" lon="10.8876089"><ele>735.6666666666667</ele><time>2026-04-25T08:35:39.622Z</time></trkpt><trkpt lat="46.3329723" lon="10.8878629"><ele>736.0</ele><time>2026-04-25T08:35:40.64Z</time></trkpt><trkpt lat="46.3330599" lon="10.8880973"><ele>735.3333333333334</ele><time>2026-04-25T08:35:41.576Z</time></trkpt><trkpt lat="46.3331586" lon="10.8883511"><ele>734.6666666666666</ele><time>2026-04-25T08:35:42.586Z</time></trkpt><trkpt lat="46.3332597" lon="10.8886069"><ele>734.0</ele><time>2026-04-25T08:35:43.609Z</time></trkpt><trkpt lat="46.3333558" lon="10.8888472"><ele>733.6666666666666</ele><time>2026-04-25T08:35:44.578Z</time></trkpt><trkpt lat="46.3334575" lon="10.8891082"><ele>733.3333333333334</ele><time>2026-04-25T08:35:45.618Z</time></trkpt><trkpt lat="46.3335574" lon="10.8893541"><ele>733.0</ele><time>2026-04-25T08:35:46.592Z</time></trkpt><trkpt lat="46.3336642" lon="10.8896106"><ele>733.0</ele><time>2026-04-25T08:35:47.615Z</time></trkpt><trkpt lat="46.333767" lon="10.8898622"><ele>733.0</ele><time>2026-04-25T08:35:48.601Z</time></trkpt><trkpt lat="46.3338778" lon="10.890128"><ele>733.0</ele><time>2026-04-25T08:35:49.621Z</time></trkpt><trkpt lat="46.3339898" lon="10.8903765"><ele>733.0</ele><time>2026-04-25T08:35:50.597Z</time></trkpt><trkpt lat="46.3341095" lon="10.8906284"><ele>733.0</ele><time>2026-04-25T08:35:51.601Z</time></trkpt><trkpt lat="46.3342324" lon="10.8908689"><ele>733.0</ele><time>2026-04-25T08:35:52.579Z</time></trkpt><trkpt lat="46.3343681" lon="10.8911168"><ele>733.0</ele><time>2026-04-25T08:35:53.606Z</time></trkpt><trkpt lat="46.3345083" lon="10.8913569"><ele>733.0</ele><time>2026-04-25T08:35:54.624Z</time></trkpt><trkpt lat="46.3346525" lon="10.8915818"><ele>733.0</ele><time>2026-04-25T08:35:55.609Z</time></trkpt><trkpt lat="46.3347992" lon="10.8917967"><ele>732.0</ele><time>2026-04-25T08:35:56.587Z</time></trkpt><trkpt lat="46.3349532" lon="10.8920162"><ele>731.0</ele><time>2026-04-25T08:35:57.597Z</time></trkpt><trkpt lat="46.3351074" lon="10.8922337"><ele>730.0</ele><time>2026-04-25T08:35:58.602Z</time></trkpt><trkpt lat="46.3352654" lon="10.8924525"><ele>729.3333333333334</ele><time>2026-04-25T08:35:59.611Z</time></trkpt><trkpt lat="46.3354202" lon="10.8926714"><ele>728.6666666666666</ele><time>2026-04-25T08:36:00.606Z</time></trkpt><trkpt lat="46.3355751" lon="10.892891"><ele>728.0</ele><time>2026-04-25T08:36:01.599Z</time></trkpt><trkpt lat="46.335733" lon="10.8931105"><ele>728.0</ele><time>2026-04-25T08:36:02.578Z</time></trkpt><trkpt lat="46.3359006" lon="10.8933457"><ele>728.0</ele><time>2026-04-25T08:36:03.596Z</time></trkpt><trkpt lat="46.336071" lon="10.8935776"><ele>727.5</ele><time>2026-04-25T08:36:04.589Z</time></trkpt><trkpt lat="46.3362442" lon="10.8938213"><ele>727.0</ele><time>2026-04-25T08:36:05.594Z</time></trkpt><trkpt lat="46.3364215" lon="10.8940738"><ele>726.5</ele><time>2026-04-25T08:36:06.615Z</time></trkpt><trkpt lat="46.3365991" lon="10.89432"><ele>726.0</ele><time>2026-04-25T08:36:07.615Z</time></trkpt><trkpt lat="46.3367681" lon="10.8945543"><ele>726.0</ele><time>2026-04-25T08:36:08.577Z</time></trkpt><trkpt lat="46.3369467" lon="10.8948059"><ele>726.0</ele><time>2026-04-25T08:36:09.591Z</time></trkpt><trkpt lat="46.3371263" lon="10.8950537"><ele>726.0</ele><time>2026-04-25T08:36:10.607Z</time></trkpt><trkpt lat="46.3372964" lon="10.8952903"><ele>726.0</ele><time>2026-04-25T08:36:11.59Z</time></trkpt><trkpt lat="46.3374656" lon="10.8955246"><ele>726.0</ele><time>2026-04-25T08:36:12.601Z</time></trkpt><trkpt lat="46.3376286" lon="10.895748"><ele>726.0</ele><time>2026-04-25T08:36:13.618Z</time></trkpt><trkpt lat="46.3377774" lon="10.8959555"><ele>726.0</ele><time>2026-04-25T08:36:14.604Z</time></trkpt><trkpt lat="46.3379172" lon="10.8961566"><ele>726.3333333333334</ele><time>2026-04-25T08:36:15.605Z</time></trkpt><trkpt lat="46.3380553" lon="10.8963449"><ele>726.6666666666667</ele><time>2026-04-25T08:36:16.59Z</time></trkpt><trkpt lat="46.3381934" lon="10.8965375"><ele>727.0</ele><time>2026-04-25T08:36:17.599Z</time></trkpt><trkpt lat="46.338326" lon="10.8967264"><ele>726.0</ele><time>2026-04-25T08:36:18.59Z</time></trkpt><trkpt lat="46.3384604" lon="10.8969219"><ele>725.0</ele><time>2026-04-25T08:36:19.607Z</time></trkpt><trkpt lat="46.3385832" lon="10.8971061"><ele>724.0</ele><time>2026-04-25T08:36:20.576Z</time></trkpt><trkpt lat="46.3387084" lon="10.8973025"><ele>724.0</ele><time>2026-04-25T08:36:21.601Z</time></trkpt><trkpt lat="46.338822" lon="10.897483"><ele>724.0</ele><time>2026-04-25T08:36:22.567Z</time></trkpt><trkpt lat="46.3389423" lon="10.8976765"><ele>724.0</ele><time>2026-04-25T08:36:23.603Z</time></trkpt><trkpt lat="46.3390542" lon="10.8978565"><ele>723.3333333333334</ele><time>2026-04-25T08:36:24.568Z</time></trkpt><trkpt lat="46.3391698" lon="10.8980543"><ele>722.6666666666666</ele><time>2026-04-25T08:36:25.604Z</time></trkpt><trkpt lat="46.3392842" lon="10.8982502"><ele>722.0</ele><time>2026-04-25T08:36:26.618Z</time></trkpt><trkpt lat="46.3393995" lon="10.8984418"><ele>722.3333333333333</ele><time>2026-04-25T08:36:27.614Z</time></trkpt><trkpt lat="46.3395117" lon="10.8986478"><ele>722.6666666666666</ele><time>2026-04-25T08:36:28.619Z</time></trkpt><trkpt lat="46.3396221" lon="10.8988612"><ele>723.0</ele><time>2026-04-25T08:36:29.61Z</time></trkpt><trkpt lat="46.3397362" lon="10.8990833"><ele>723.0</ele><time>2026-04-25T08:36:30.627Z</time></trkpt><trkpt lat="46.3398494" lon="10.8993071"><ele>723.0</ele><time>2026-04-25T08:36:31.611Z</time></trkpt><trkpt lat="46.3399693" lon="10.8995421"><ele>723.0</ele><time>2026-04-25T08:36:32.621Z</time></trkpt><trkpt lat="46.3400867" lon="10.8997878"><ele>723.0</ele><time>2026-04-25T08:36:33.599Z</time></trkpt><trkpt lat="46.3402061" lon="10.9000533"><ele>723.0</ele><time>2026-04-25T08:36:34.601Z</time></trkpt><trkpt lat="46.3403245" lon="10.9003223"><ele>723.0</ele><time>2026-04-25T08:36:35.588Z</time></trkpt><trkpt lat="46.3404457" lon="10.9006031"><ele>722.0</ele><time>2026-04-25T08:36:36.585Z</time></trkpt><trkpt lat="46.3405729" lon="10.9008972"><ele>721.0</ele><time>2026-04-25T08:36:37.606Z</time></trkpt><trkpt lat="46.340699" lon="10.9011867"><ele>720.0</ele><time>2026-04-25T08:36:38.582Z</time></trkpt><trkpt lat="46.3408356" lon="10.9014931"><ele>719.0</ele><time>2026-04-25T08:36:39.598Z</time></trkpt><trkpt lat="46.3409775" lon="10.9018056"><ele>718.0</ele><time>2026-04-25T08:36:40.616Z</time></trkpt><trkpt lat="46.341113" lon="10.9021037"><ele>717.0</ele><time>2026-04-25T08:36:41.58Z</time></trkpt><trkpt lat="46.3412574" lon="10.9024151"><ele>716.0</ele><time>2026-04-25T08:36:42.606Z</time></trkpt><trkpt lat="46.3414053" lon="10.9027232"><ele>715.0</ele><time>2026-04-25T08:36:43.613Z</time></trkpt><trkpt lat="46.3415472" lon="10.9030144"><ele>715.0</ele><time>2026-04-25T08:36:44.568Z</time></trkpt><trkpt lat="46.341704" lon="10.9033252"><ele>715.0</ele><time>2026-04-25T08:36:45.613Z</time></trkpt><trkpt lat="46.3418525" lon="10.9036135"><ele>715.0</ele><time>2026-04-25T08:36:46.594Z</time></trkpt><trkpt lat="46.3420072" lon="10.9039004"><ele>715.0</ele><time>2026-04-25T08:36:47.583Z</time></trkpt><trkpt lat="46.3421736" lon="10.9041906"><ele>713.5</ele><time>2026-04-25T08:36:48.61Z</time></trkpt><trkpt lat="46.3423357" lon="10.9044652"><ele>712.0</ele><time>2026-04-25T08:36:49.598Z</time></trkpt><trkpt lat="46.3425034" lon="10.9047369"><ele>712.0</ele><time>2026-04-25T08:36:50.599Z</time></trkpt><trkpt lat="46.342676" lon="10.9050091"><ele>712.0</ele><time>2026-04-25T08:36:51.598Z</time></trkpt><trkpt lat="46.3428484" lon="10.9052734"><ele>712.0</ele><time>2026-04-25T08:36:52.578Z</time></trkpt><trkpt lat="46.3430336" lon="10.9055402"><ele>712.0</ele><time>2026-04-25T08:36:53.594Z</time></trkpt><trkpt lat="46.343217" lon="10.9057935"><ele>711.5</ele><time>2026-04-25T08:36:54.581Z</time></trkpt><trkpt lat="46.3434066" lon="10.9060487"><ele>711.0</ele><time>2026-04-25T08:36:55.588Z</time></trkpt><trkpt lat="46.3435999" lon="10.9063006"><ele>711.0</ele><time>2026-04-25T08:36:56.609Z</time></trkpt><trkpt lat="46.3437906" lon="10.906537"><ele>711.0</ele><time>2026-04-25T08:36:57.6Z</time></trkpt><trkpt lat="46.3439811" lon="10.9067654"><ele>710.5</ele><time>2026-04-25T08:36:58.577Z</time></trkpt><trkpt lat="46.3441897" lon="10.9070001"><ele>710.0</ele><time>2026-04-25T08:36:59.63Z</time></trkpt><trkpt lat="46.3443805" lon="10.9072126"><ele>710.0</ele><time>2026-04-25T08:37:00.6Z</time></trkpt><trkpt lat="46.344586" lon="10.907431"><ele>710.0</ele><time>2026-04-25T08:37:01.629Z</time></trkpt><trkpt lat="46.3447796" lon="10.9076306"><ele>709.0</ele><time>2026-04-25T08:37:02.609Z</time></trkpt><trkpt lat="46.3449715" lon="10.9078274"><ele>708.0</ele><time>2026-04-25T08:37:03.587Z</time></trkpt><trkpt lat="46.345164" lon="10.9080315"><ele>708.0</ele><time>2026-04-25T08:37:04.578Z</time></trkpt><trkpt lat="46.3453594" lon="10.9082437"><ele>708.0</ele><time>2026-04-25T08:37:05.6Z</time></trkpt><trkpt lat="46.3455459" lon="10.9084568"><ele>709.0</ele><time>2026-04-25T08:37:06.589Z</time></trkpt><trkpt lat="46.3457361" lon="10.9086747"><ele>710.0</ele><time>2026-04-25T08:37:07.61Z</time></trkpt><trkpt lat="46.3459194" lon="10.9088925"><ele>710.0</ele><time>2026-04-25T08:37:08.608Z</time></trkpt><trkpt lat="46.3461023" lon="10.9091117"><ele>710.0</ele><time>2026-04-25T08:37:09.604Z</time></trkpt><trkpt lat="46.3462857" lon="10.9093326"><ele>709.0</ele><time>2026-04-25T08:37:10.612Z</time></trkpt><trkpt lat="46.3464625" lon="10.9095607"><ele>708.0</ele><time>2026-04-25T08:37:11.61Z</time></trkpt><trkpt lat="46.3466263" lon="10.9097891"><ele>708.0</ele><time>2026-04-25T08:37:12.582Z</time></trkpt><trkpt lat="46.3467899" lon="10.9100316"><ele>708.0</ele><time>2026-04-25T08:37:13.566Z</time></trkpt><trkpt lat="46.3469596" lon="10.9102851"><ele>708.0</ele><time>2026-04-25T08:37:14.6Z</time></trkpt><trkpt lat="46.3471236" lon="10.9105353"><ele>708.0</ele><time>2026-04-25T08:37:15.604Z</time></trkpt><trkpt lat="46.3472783" lon="10.9107773"><ele>707.5</ele><time>2026-04-25T08:37:16.606Z</time></trkpt><trkpt lat="46.3474278" lon="10.9110233"><ele>707.0</ele><time>2026-04-25T08:37:17.613Z</time></trkpt><trkpt lat="46.347574" lon="10.9112734"><ele>707.0</ele><time>2026-04-25T08:37:18.603Z</time></trkpt><trkpt lat="46.3477187" lon="10.9115319"><ele>707.0</ele><time>2026-04-25T08:37:19.609Z</time></trkpt><trkpt lat="46.3478587" lon="10.9117892"><ele>706.6666666666666</ele><time>2026-04-25T08:37:20.6Z</time></trkpt><trkpt lat="46.3479951" lon="10.9120401"><ele>706.3333333333334</ele><time>2026-04-25T08:37:21.595Z</time></trkpt><trkpt lat="46.3481292" lon="10.9122806"><ele>706.0</ele><time>2026-04-25T08:37:22.595Z</time></trkpt><trkpt lat="46.3482594" lon="10.9125089"><ele>705.6666666666667</ele><time>2026-04-25T08:37:23.61Z</time></trkpt><trkpt lat="46.3483845" lon="10.9127241"><ele>705.3333333333334</ele><time>2026-04-25T08:37:24.6Z</time></trkpt><trkpt lat="46.3485114" lon="10.9129425"><ele>705.0</ele><time>2026-04-25T08:37:25.618Z</time></trkpt><trkpt lat="46.3486352" lon="10.9131605"><ele>705.0</ele><time>2026-04-25T08:37:26.596Z</time></trkpt><trkpt lat="46.348763" lon="10.913386"><ele>705.0</ele><time>2026-04-25T08:37:27.605Z</time></trkpt><trkpt lat="46.3488895" lon="10.9136073"><ele>705.0</ele><time>2026-04-25T08:37:28.588Z</time></trkpt><trkpt lat="46.3490146" lon="10.9138315"><ele>705.0</ele><time>2026-04-25T08:37:29.594Z</time></trkpt><trkpt lat="46.3491383" lon="10.9140501"><ele>705.0</ele><time>2026-04-25T08:37:30.593Z</time></trkpt><trkpt lat="46.3492617" lon="10.9142741"><ele>705.0</ele><time>2026-04-25T08:37:31.622Z</time></trkpt><trkpt lat="46.349377" lon="10.9144801"><ele>705.0</ele><time>2026-04-25T08:37:32.572Z</time></trkpt><trkpt lat="46.3494996" lon="10.9146953"><ele>705.0</ele><time>2026-04-25T08:37:33.595Z</time></trkpt><trkpt lat="46.3496107" lon="10.9148947"><ele>705.0</ele><time>2026-04-25T08:37:34.59Z</time></trkpt><trkpt lat="46.3497217" lon="10.9150892"><ele>707.3333333333334</ele><time>2026-04-25T08:37:35.624Z</time></trkpt><trkpt lat="46.3498234" lon="10.9152733"><ele>709.6666666666667</ele><time>2026-04-25T08:37:36.621Z</time></trkpt><trkpt lat="46.3499245" lon="10.9154502"><ele>712.0</ele><time>2026-04-25T08:37:37.601Z</time></trkpt><trkpt lat="46.3500313" lon="10.9156372"><ele>712.0</ele><time>2026-04-25T08:37:38.614Z</time></trkpt><trkpt lat="46.3501332" lon="10.915825"><ele>712.0</ele><time>2026-04-25T08:37:39.588Z</time></trkpt><trkpt lat="46.35024" lon="10.9160225"><ele>712.0</ele><time>2026-04-25T08:37:40.596Z</time></trkpt><trkpt lat="46.3503461" lon="10.9162162"><ele>712.6666666666667</ele><time>2026-04-25T08:37:41.597Z</time></trkpt><trkpt lat="46.3504504" lon="10.916392"><ele>713.3333333333334</ele><time>2026-04-25T08:37:42.566Z</time></trkpt><trkpt lat="46.3505611" lon="10.91657"><ele>714.0</ele><time>2026-04-25T08:37:43.608Z</time></trkpt><trkpt lat="46.350663" lon="10.9167385"><ele>714.0</ele><time>2026-04-25T08:37:44.602Z</time></trkpt><trkpt lat="46.3507641" lon="10.9169054"><ele>714.0</ele><time>2026-04-25T08:37:45.597Z</time></trkpt><trkpt lat="46.3508771" lon="10.9170801"><ele>714.0</ele><time>2026-04-25T08:37:46.628Z</time></trkpt><trkpt lat="46.3510286" lon="10.9173061"><ele>714.6666666666666</ele><time>2026-04-25T08:37:47.978Z</time></trkpt><trkpt lat="46.3512029" lon="10.9175842"><ele>715.3333333333333</ele><time>2026-04-25T08:37:49.64Z</time></trkpt><trkpt lat="46.3513167" lon="10.9177549"><ele>716.0</ele><time>2026-04-25T08:37:50.653Z</time></trkpt><trkpt lat="46.3514217" lon="10.9179211"><ele>716.0</ele><time>2026-04-25T08:37:51.639Z</time></trkpt><trkpt lat="46.351515" lon="10.9180896"><ele>716.0</ele><time>2026-04-25T08:37:52.641Z</time></trkpt><trkpt lat="46.351617" lon="10.9182566"><ele>716.0</ele><time>2026-04-25T08:37:53.618Z</time></trkpt><trkpt lat="46.3517133" lon="10.9184125"><ele>716.0</ele><time>2026-04-25T08:37:54.624Z</time></trkpt><trkpt lat="46.3518575" lon="10.9186629"><ele>716.0</ele><time>2026-04-25T08:37:55.605Z</time></trkpt><trkpt lat="46.351978" lon="10.9188229"><ele>716.0</ele><time>2026-04-25T08:37:56.627Z</time></trkpt><trkpt lat="46.3521068" lon="10.9189896"><ele>716.0</ele><time>2026-04-25T08:37:57.659Z</time></trkpt><trkpt lat="46.3522364" lon="10.9191505"><ele>714.0</ele><time>2026-04-25T08:37:58.642Z</time></trkpt><trkpt lat="46.3523625" lon="10.9193202"><ele>712.0</ele><time>2026-04-25T08:37:59.657Z</time></trkpt><trkpt lat="46.3524795" lon="10.9194787"><ele>710.0</ele><time>2026-04-25T08:38:00.651Z</time></trkpt><trkpt lat="46.3525973" lon="10.9196404"><ele>710.0</ele><time>2026-04-25T08:38:01.663Z</time></trkpt><trkpt lat="46.3527074" lon="10.9197961"><ele>710.0</ele><time>2026-04-25T08:38:02.634Z</time></trkpt><trkpt lat="46.3528326" lon="10.9199648"><ele>710.0</ele><time>2026-04-25T08:38:03.66Z</time></trkpt><trkpt lat="46.3529551" lon="10.9201395"><ele>709.0</ele><time>2026-04-25T08:38:04.69Z</time></trkpt><trkpt lat="46.3530667" lon="10.9202972"><ele>708.0</ele><time>2026-04-25T08:38:05.594Z</time></trkpt><trkpt lat="46.3531959" lon="10.9204846"><ele>707.0</ele><time>2026-04-25T08:38:06.633Z</time></trkpt><trkpt lat="46.3533217" lon="10.9206604"><ele>707.0</ele><time>2026-04-25T08:38:07.587Z</time></trkpt><trkpt lat="46.3534575" lon="10.9208473"><ele>707.0</ele><time>2026-04-25T08:38:08.616Z</time></trkpt><trkpt lat="46.3535864" lon="10.9210224"><ele>707.0</ele><time>2026-04-25T08:38:09.616Z</time></trkpt><trkpt lat="46.353715" lon="10.9212024"><ele>704.6666666666666</ele><time>2026-04-25T08:38:10.633Z</time></trkpt><trkpt lat="46.3538378" lon="10.9213785"><ele>702.3333333333334</ele><time>2026-04-25T08:38:11.609Z</time></trkpt><trkpt lat="46.3539757" lon="10.9215714"><ele>700.0</ele><time>2026-04-25T08:38:12.629Z</time></trkpt><trkpt lat="46.3541158" lon="10.9217671"><ele>697.0</ele><time>2026-04-25T08:38:13.622Z</time></trkpt><trkpt lat="46.3542569" lon="10.9219622"><ele>694.0</ele><time>2026-04-25T08:38:14.571Z</time></trkpt><trkpt lat="46.3544111" lon="10.9221801"><ele>691.0</ele><time>2026-04-25T08:38:15.569Z</time></trkpt><trkpt lat="46.3545763" lon="10.9224089"><ele>691.5</ele><time>2026-04-25T08:38:16.599Z</time></trkpt><trkpt lat="46.3547446" lon="10.922638"><ele>692.0</ele><time>2026-04-25T08:38:17.609Z</time></trkpt><trkpt lat="46.3549121" lon="10.9228652"><ele>692.0</ele><time>2026-04-25T08:38:18.61Z</time></trkpt><trkpt lat="46.3550761" lon="10.9230914"><ele>692.0</ele><time>2026-04-25T08:38:19.587Z</time></trkpt><trkpt lat="46.3552467" lon="10.9233327"><ele>690.0</ele><time>2026-04-25T08:38:20.599Z</time></trkpt><trkpt lat="46.3554138" lon="10.9235801"><ele>688.0</ele><time>2026-04-25T08:38:21.607Z</time></trkpt><trkpt lat="46.3555748" lon="10.9238238"><ele>688.0</ele><time>2026-04-25T08:38:22.592Z</time></trkpt><trkpt lat="46.3557423" lon="10.9240671"><ele>688.0</ele><time>2026-04-25T08:38:23.599Z</time></trkpt><trkpt lat="46.3559075" lon="10.9243072"><ele>687.0</ele><time>2026-04-25T08:38:24.582Z</time></trkpt><trkpt lat="46.3560758" lon="10.92455"><ele>686.0</ele><time>2026-04-25T08:38:25.581Z</time></trkpt><trkpt lat="46.3562488" lon="10.9247967"><ele>693.5</ele><time>2026-04-25T08:38:26.615Z</time></trkpt><trkpt lat="46.3564156" lon="10.9250344"><ele>701.0</ele><time>2026-04-25T08:38:27.61Z</time></trkpt><trkpt lat="46.3565862" lon="10.9252725"><ele>701.5</ele><time>2026-04-25T08:38:28.62Z</time></trkpt><trkpt lat="46.3567497" lon="10.9255111"><ele>702.0</ele><time>2026-04-25T08:38:29.598Z</time></trkpt><trkpt lat="46.356915" lon="10.9257526"><ele>699.5</ele><time>2026-04-25T08:38:30.599Z</time></trkpt><trkpt lat="46.3570805" lon="10.9259874"><ele>697.0</ele><time>2026-04-25T08:38:31.587Z</time></trkpt><trkpt lat="46.357243" lon="10.92622"><ele>700.6666666666667</ele><time>2026-04-25T08:38:32.604Z</time></trkpt><trkpt lat="46.357393" lon="10.9264359"><ele>704.3333333333334</ele><time>2026-04-25T08:38:33.598Z</time></trkpt><trkpt lat="46.357549" lon="10.9266487"><ele>708.0</ele><time>2026-04-25T08:38:34.614Z</time></trkpt><trkpt lat="46.3576987" lon="10.9268576"><ele>708.0</ele><time>2026-04-25T08:38:35.599Z</time></trkpt><trkpt lat="46.357855" lon="10.9270772"><ele>708.0</ele><time>2026-04-25T08:38:36.626Z</time></trkpt><trkpt lat="46.358" lon="10.9272784"><ele>708.0</ele><time>2026-04-25T08:38:37.592Z</time></trkpt><trkpt lat="46.3581583" lon="10.927496"><ele>709.5</ele><time>2026-04-25T08:38:38.65Z</time></trkpt><trkpt lat="46.358356" lon="10.9277708"><ele>711.0</ele><time>2026-04-25T08:38:39.969Z</time></trkpt><trkpt lat="46.3586179" lon="10.9281426"><ele>711.0</ele><time>2026-04-25T08:38:41.639Z</time></trkpt><trkpt lat="46.3587672" lon="10.928355"><ele>711.0</ele><time>2026-04-25T08:38:42.658Z</time></trkpt><trkpt lat="46.3588999" lon="10.9285406"><ele>711.0</ele><time>2026-04-25T08:38:43.636Z</time></trkpt><trkpt lat="46.3590424" lon="10.9287505"><ele>711.6666666666666</ele><time>2026-04-25T08:38:44.651Z</time></trkpt><trkpt lat="46.3591618" lon="10.9289408"><ele>712.3333333333333</ele><time>2026-04-25T08:38:45.636Z</time></trkpt><trkpt lat="46.3592766" lon="10.9291548"><ele>713.0</ele><time>2026-04-25T08:38:46.643Z</time></trkpt><trkpt lat="46.3593905" lon="10.9293691"><ele>715.0</ele><time>2026-04-25T08:38:47.634Z</time></trkpt><trkpt lat="46.3595064" lon="10.9295971"><ele>717.0</ele><time>2026-04-25T08:38:48.662Z</time></trkpt><trkpt lat="46.3596199" lon="10.9298187"><ele>719.0</ele><time>2026-04-25T08:38:49.663Z</time></trkpt><trkpt lat="46.3597319" lon="10.9300348"><ele>716.3333333333333</ele><time>2026-04-25T08:38:50.629Z</time></trkpt><trkpt lat="46.3598525" lon="10.9302672"><ele>713.6666666666666</ele><time>2026-04-25T08:38:51.659Z</time></trkpt><trkpt lat="46.3599673" lon="10.9304902"><ele>711.0</ele><time>2026-04-25T08:38:52.628Z</time></trkpt><trkpt lat="46.3600817" lon="10.9307172"><ele>708.0</ele><time>2026-04-25T08:38:53.601Z</time></trkpt><trkpt lat="46.3602031" lon="10.930952"><ele>705.0</ele><time>2026-04-25T08:38:54.609Z</time></trkpt><trkpt lat="46.3603197" lon="10.9311734"><ele>702.0</ele><time>2026-04-25T08:38:55.617Z</time></trkpt><trkpt lat="46.3604294" lon="10.9313804"><ele>701.0</ele><time>2026-04-25T08:38:56.612Z</time></trkpt><trkpt lat="46.360544" lon="10.9315822"><ele>700.0</ele><time>2026-04-25T08:38:57.623Z</time></trkpt><trkpt lat="46.3606647" lon="10.9317618"><ele>699.0</ele><time>2026-04-25T08:38:58.616Z</time></trkpt><trkpt lat="46.3607979" lon="10.9319248"><ele>699.0</ele><time>2026-04-25T08:38:59.609Z</time></trkpt><trkpt lat="46.3609472" lon="10.9320752"><ele>699.0</ele><time>2026-04-25T08:39:00.603Z</time></trkpt><trkpt lat="46.3611118" lon="10.9322215"><ele>699.0</ele><time>2026-04-25T08:39:01.627Z</time></trkpt><trkpt lat="46.3612743" lon="10.9323629"><ele>698.0</ele><time>2026-04-25T08:39:02.615Z</time></trkpt><trkpt lat="46.3614341" lon="10.9325027"><ele>697.0</ele><time>2026-04-25T08:39:03.616Z</time></trkpt><trkpt lat="46.3615892" lon="10.9326391"><ele>696.0</ele><time>2026-04-25T08:39:04.625Z</time></trkpt><trkpt lat="46.3617403" lon="10.9327707"><ele>696.0</ele><time>2026-04-25T08:39:05.611Z</time></trkpt><trkpt lat="46.3619" lon="10.9329031"><ele>696.0</ele><time>2026-04-25T08:39:06.617Z</time></trkpt><trkpt lat="46.3620633" lon="10.9330418"><ele>696.0</ele><time>2026-04-25T08:39:07.611Z</time></trkpt><trkpt lat="46.3622283" lon="10.9331852"><ele>695.3333333333334</ele><time>2026-04-25T08:39:08.594Z</time></trkpt><trkpt lat="46.3623932" lon="10.9333334"><ele>694.6666666666667</ele><time>2026-04-25T08:39:09.593Z</time></trkpt><trkpt lat="46.3625594" lon="10.9334782"><ele>694.0</ele><time>2026-04-25T08:39:10.619Z</time></trkpt><trkpt lat="46.3627124" lon="10.9336111"><ele>694.0</ele><time>2026-04-25T08:39:11.61Z</time></trkpt><trkpt lat="46.362852" lon="10.9337368"><ele>694.0</ele><time>2026-04-25T08:39:12.561Z</time></trkpt><trkpt lat="46.3629987" lon="10.9338673"><ele>694.0</ele><time>2026-04-25T08:39:13.577Z</time></trkpt><trkpt lat="46.3631446" lon="10.9339944"><ele>694.3333333333334</ele><time>2026-04-25T08:39:14.608Z</time></trkpt><trkpt lat="46.3632809" lon="10.9341057"><ele>694.6666666666666</ele><time>2026-04-25T08:39:15.578Z</time></trkpt><trkpt lat="46.3634225" lon="10.9342224"><ele>695.0</ele><time>2026-04-25T08:39:16.613Z</time></trkpt><trkpt lat="46.3635518" lon="10.934334"><ele>695.0</ele><time>2026-04-25T08:39:17.603Z</time></trkpt><trkpt lat="46.3636768" lon="10.9344472"><ele>695.0</ele><time>2026-04-25T08:39:18.59Z</time></trkpt><trkpt lat="46.3638039" lon="10.9345697"><ele>695.0</ele><time>2026-04-25T08:39:19.594Z</time></trkpt><trkpt lat="46.3639249" lon="10.9347006"><ele>695.3333333333333</ele><time>2026-04-25T08:39:20.591Z</time></trkpt><trkpt lat="46.3640483" lon="10.9348499"><ele>695.6666666666666</ele><time>2026-04-25T08:39:21.618Z</time></trkpt><trkpt lat="46.3641658" lon="10.9350091"><ele>696.0</ele><time>2026-04-25T08:39:22.598Z</time></trkpt><trkpt lat="46.3642816" lon="10.9351835"><ele>696.0</ele><time>2026-04-25T08:39:23.624Z</time></trkpt><trkpt lat="46.3643783" lon="10.9353499"><ele>696.0</ele><time>2026-04-25T08:39:24.582Z</time></trkpt><trkpt lat="46.3644686" lon="10.935528"><ele>696.0</ele><time>2026-04-25T08:39:25.617Z</time></trkpt><trkpt lat="46.3645428" lon="10.9357069"><ele>696.0</ele><time>2026-04-25T08:39:26.606Z</time></trkpt><trkpt lat="46.3646167" lon="10.9358978"><ele>697.25</ele><time>2026-04-25T08:39:27.618Z</time></trkpt><trkpt lat="46.3646852" lon="10.9360899"><ele>698.5</ele><time>2026-04-25T08:39:28.59Z</time></trkpt><trkpt lat="46.3647488" lon="10.9362801"><ele>699.75</ele><time>2026-04-25T08:39:29.606Z</time></trkpt><trkpt lat="46.3648022" lon="10.9364482"><ele>701.0</ele><time>2026-04-25T08:39:30.613Z</time></trkpt><trkpt lat="46.364852" lon="10.9365889"><ele>701.0</ele><time>2026-04-25T08:39:31.614Z</time></trkpt><trkpt lat="46.364895" lon="10.9367147"><ele>701.0</ele><time>2026-04-25T08:39:32.615Z</time></trkpt><trkpt lat="46.3649341" lon="10.9368381"><ele>701.0</ele><time>2026-04-25T08:39:33.613Z</time></trkpt><trkpt lat="46.3649757" lon="10.9369829"><ele>701.0</ele><time>2026-04-25T08:39:34.615Z</time></trkpt><trkpt lat="46.3650339" lon="10.937159"><ele>701.0</ele><time>2026-04-25T08:39:35.592Z</time></trkpt><trkpt lat="46.365101" lon="10.9373717"><ele>699.0</ele><time>2026-04-25T08:39:36.582Z</time></trkpt><trkpt lat="46.3651752" lon="10.9376171"><ele>697.0</ele><time>2026-04-25T08:39:37.591Z</time></trkpt><trkpt lat="46.3652574" lon="10.9378731"><ele>695.0</ele><time>2026-04-25T08:39:38.583Z</time></trkpt><trkpt lat="46.3653392" lon="10.9381289"><ele>695.0</ele><time>2026-04-25T08:39:39.59Z</time></trkpt><trkpt lat="46.3654125" lon="10.9383653"><ele>695.0</ele><time>2026-04-25T08:39:40.588Z</time></trkpt><trkpt lat="46.3654846" lon="10.9385922"><ele>695.0</ele><time>2026-04-25T08:39:41.59Z</time></trkpt><trkpt lat="46.3655603" lon="10.9388234"><ele>696.3333333333333</ele><time>2026-04-25T08:39:42.609Z</time></trkpt><trkpt lat="46.3656405" lon="10.9390648"><ele>697.6666666666666</ele><time>2026-04-25T08:39:43.619Z</time></trkpt><trkpt lat="46.365719" lon="10.9393047"><ele>699.0</ele><time>2026-04-25T08:39:44.602Z</time></trkpt><trkpt lat="46.3657916" lon="10.9395456"><ele>699.0</ele><time>2026-04-25T08:39:45.604Z</time></trkpt><trkpt lat="46.3658507" lon="10.9397718"><ele>699.0</ele><time>2026-04-25T08:39:46.566Z</time></trkpt><trkpt lat="46.3659084" lon="10.9400204"><ele>699.0</ele><time>2026-04-25T08:39:47.591Z</time></trkpt><trkpt lat="46.3659537" lon="10.9402691"><ele>699.0</ele><time>2026-04-25T08:39:48.586Z</time></trkpt><trkpt lat="46.3659936" lon="10.9405274"><ele>699.0</ele><time>2026-04-25T08:39:49.613Z</time></trkpt><trkpt lat="46.3660218" lon="10.9407766"><ele>699.0</ele><time>2026-04-25T08:39:50.611Z</time></trkpt><trkpt lat="46.3660443" lon="10.9410148"><ele>696.3333333333334</ele><time>2026-04-25T08:39:51.616Z</time></trkpt><trkpt lat="46.3660618" lon="10.9412402"><ele>693.6666666666667</ele><time>2026-04-25T08:39:52.585Z</time></trkpt><trkpt lat="46.3660801" lon="10.9414865"><ele>691.0</ele><time>2026-04-25T08:39:53.6Z</time></trkpt><trkpt lat="46.3661015" lon="10.9417394"><ele>689.3333333333334</ele><time>2026-04-25T08:39:54.613Z</time></trkpt><trkpt lat="46.3661239" lon="10.9419996"><ele>687.6666666666666</ele><time>2026-04-25T08:39:55.613Z</time></trkpt><trkpt lat="46.366145" lon="10.9422624"><ele>686.0</ele><time>2026-04-25T08:39:56.59Z</time></trkpt><trkpt lat="46.3661663" lon="10.9425333"><ele>685.6666666666666</ele><time>2026-04-25T08:39:57.583Z</time></trkpt><trkpt lat="46.3661914" lon="10.9428184"><ele>685.3333333333334</ele><time>2026-04-25T08:39:58.612Z</time></trkpt><trkpt lat="46.3662156" lon="10.9430984"><ele>685.0</ele><time>2026-04-25T08:39:59.599Z</time></trkpt><trkpt lat="46.3662407" lon="10.9433788"><ele>684.3333333333334</ele><time>2026-04-25T08:40:00.579Z</time></trkpt><trkpt lat="46.3662653" lon="10.9436759"><ele>683.6666666666666</ele><time>2026-04-25T08:40:01.603Z</time></trkpt><trkpt lat="46.3662905" lon="10.9439638"><ele>683.0</ele><time>2026-04-25T08:40:02.597Z</time></trkpt><trkpt lat="46.3663137" lon="10.9442548"><ele>682.6666666666666</ele><time>2026-04-25T08:40:03.61Z</time></trkpt><trkpt lat="46.3663368" lon="10.9445293"><ele>682.3333333333334</ele><time>2026-04-25T08:40:04.604Z</time></trkpt><trkpt lat="46.3663596" lon="10.9448008"><ele>682.0</ele><time>2026-04-25T08:40:05.588Z</time></trkpt><trkpt lat="46.3663807" lon="10.9450868"><ele>686.3333333333334</ele><time>2026-04-25T08:40:06.618Z</time></trkpt><trkpt lat="46.3664021" lon="10.9453524"><ele>690.6666666666666</ele><time>2026-04-25T08:40:07.593Z</time></trkpt><trkpt lat="46.3664256" lon="10.945634"><ele>695.0</ele><time>2026-04-25T08:40:08.614Z</time></trkpt><trkpt lat="46.3664482" lon="10.9459012"><ele>695.0</ele><time>2026-04-25T08:40:09.592Z</time></trkpt><trkpt lat="46.3664833" lon="10.9461693"><ele>695.0</ele><time>2026-04-25T08:40:10.612Z</time></trkpt><trkpt lat="46.3665302" lon="10.9464295"><ele>695.0</ele><time>2026-04-25T08:40:11.6Z</time></trkpt><trkpt lat="46.3665885" lon="10.9466915"><ele>691.6666666666666</ele><time>2026-04-25T08:40:12.609Z</time></trkpt><trkpt lat="46.3666528" lon="10.9469517"><ele>688.3333333333334</ele><time>2026-04-25T08:40:13.611Z</time></trkpt><trkpt lat="46.3667173" lon="10.947204"><ele>685.0</ele><time>2026-04-25T08:40:14.611Z</time></trkpt><trkpt lat="46.3667851" lon="10.9474459"><ele>679.0</ele><time>2026-04-25T08:40:15.619Z</time></trkpt><trkpt lat="46.3668647" lon="10.9476498"><ele>673.0</ele><time>2026-04-25T08:40:16.594Z</time></trkpt><trkpt lat="46.3669661" lon="10.9478365"><ele>667.0</ele><time>2026-04-25T08:40:17.623Z</time></trkpt><trkpt lat="46.3670828" lon="10.9479895"><ele>673.0</ele><time>2026-04-25T08:40:18.607Z</time></trkpt><trkpt lat="46.3672164" lon="10.9481123"><ele>679.0</ele><time>2026-04-25T08:40:19.594Z</time></trkpt><trkpt lat="46.3673642" lon="10.9481983"><ele>685.0</ele><time>2026-04-25T08:40:20.554Z</time></trkpt><trkpt lat="46.3675333" lon="10.9482537"><ele>685.0</ele><time>2026-04-25T08:40:21.586Z</time></trkpt><trkpt lat="46.3676985" lon="10.9482724"><ele>685.0</ele><time>2026-04-25T08:40:22.573Z</time></trkpt><trkpt lat="46.367869" lon="10.9482723"><ele>685.0</ele><time>2026-04-25T08:40:23.621Z</time></trkpt><trkpt lat="46.3680383" lon="10.9482617"><ele>687.0</ele><time>2026-04-25T08:40:24.624Z</time></trkpt><trkpt lat="46.3681975" lon="10.9482625"><ele>689.0</ele><time>2026-04-25T08:40:25.612Z</time></trkpt><trkpt lat="46.368351" lon="10.9482883"><ele>691.0</ele><time>2026-04-25T08:40:26.604Z</time></trkpt><trkpt lat="46.3685091" lon="10.9483521"><ele>688.3333333333334</ele><time>2026-04-25T08:40:27.614Z</time></trkpt><trkpt lat="46.3686614" lon="10.9484544"><ele>685.6666666666666</ele><time>2026-04-25T08:40:28.589Z</time></trkpt><trkpt lat="46.3688134" lon="10.9485979"><ele>683.0</ele><time>2026-04-25T08:40:29.596Z</time></trkpt><trkpt lat="46.3689684" lon="10.9487732"><ele>683.0</ele><time>2026-04-25T08:40:30.608Z</time></trkpt><trkpt lat="46.3691252" lon="10.9489588"><ele>683.0</ele><time>2026-04-25T08:40:31.593Z</time></trkpt><trkpt lat="46.3692955" lon="10.9491489"><ele>683.0</ele><time>2026-04-25T08:40:32.618Z</time></trkpt><trkpt lat="46.3694483" lon="10.9493213"><ele>681.3333333333333</ele><time>2026-04-25T08:40:33.597Z</time></trkpt><trkpt lat="46.3696022" lon="10.9494966"><ele>679.6666666666666</ele><time>2026-04-25T08:40:34.615Z</time></trkpt><trkpt lat="46.3697523" lon="10.9496657"><ele>678.0</ele><time>2026-04-25T08:40:35.598Z</time></trkpt><trkpt lat="46.3699094" lon="10.9498435"><ele>678.0</ele><time>2026-04-25T08:40:36.592Z</time></trkpt><trkpt lat="46.370072" lon="10.9500274"><ele>678.0</ele><time>2026-04-25T08:40:37.619Z</time></trkpt><trkpt lat="46.3702206" lon="10.9501986"><ele>678.0</ele><time>2026-04-25T08:40:38.604Z</time></trkpt><trkpt lat="46.3703633" lon="10.9503716"><ele>678.3333333333334</ele><time>2026-04-25T08:40:39.61Z</time></trkpt><trkpt lat="46.3704946" lon="10.9505442"><ele>678.6666666666667</ele><time>2026-04-25T08:40:40.593Z</time></trkpt><trkpt lat="46.3706269" lon="10.9507369"><ele>679.0</ele><time>2026-04-25T08:40:41.602Z</time></trkpt><trkpt lat="46.3707546" lon="10.9509391"><ele>674.6666666666667</ele><time>2026-04-25T08:40:42.608Z</time></trkpt><trkpt lat="46.3708845" lon="10.951155"><ele>670.3333333333334</ele><time>2026-04-25T08:40:43.631Z</time></trkpt><trkpt lat="46.3710087" lon="10.9513566"><ele>666.0</ele><time>2026-04-25T08:40:44.616Z</time></trkpt><trkpt lat="46.3711241" lon="10.951542"><ele>667.0</ele><time>2026-04-25T08:40:45.577Z</time></trkpt><trkpt lat="46.3712438" lon="10.9517316"><ele>668.0</ele><time>2026-04-25T08:40:46.61Z</time></trkpt><trkpt lat="46.3713595" lon="10.9519129"><ele>669.0</ele><time>2026-04-25T08:40:47.607Z</time></trkpt><trkpt lat="46.3714729" lon="10.9520939"><ele>669.0</ele><time>2026-04-25T08:40:48.595Z</time></trkpt><trkpt lat="46.37159" lon="10.9522797"><ele>669.0</ele><time>2026-04-25T08:40:49.594Z</time></trkpt><trkpt lat="46.3717101" lon="10.9524643"><ele>669.0</ele><time>2026-04-25T08:40:50.589Z</time></trkpt><trkpt lat="46.3718297" lon="10.9526544"><ele>667.3333333333334</ele><time>2026-04-25T08:40:51.611Z</time></trkpt><trkpt lat="46.3719332" lon="10.9528463"><ele>665.6666666666667</ele><time>2026-04-25T08:40:52.603Z</time></trkpt><trkpt lat="46.3720181" lon="10.9530462"><ele>664.0</ele><time>2026-04-25T08:40:53.591Z</time></trkpt><trkpt lat="46.3721069" lon="10.9532582"><ele>666.3333333333334</ele><time>2026-04-25T08:40:54.61Z</time></trkpt><trkpt lat="46.3721938" lon="10.9534721"><ele>668.6666666666666</ele><time>2026-04-25T08:40:55.604Z</time></trkpt><trkpt lat="46.372283" lon="10.9536845"><ele>671.0</ele><time>2026-04-25T08:40:56.579Z</time></trkpt><trkpt lat="46.3723881" lon="10.9539021"><ele>671.0</ele><time>2026-04-25T08:40:57.607Z</time></trkpt><trkpt lat="46.3725031" lon="10.9540987"><ele>671.0</ele><time>2026-04-25T08:40:58.595Z</time></trkpt><trkpt lat="46.3726339" lon="10.9542763"><ele>671.0</ele><time>2026-04-25T08:40:59.594Z</time></trkpt><trkpt lat="46.3727804" lon="10.954445"><ele>673.0</ele><time>2026-04-25T08:41:00.623Z</time></trkpt><trkpt lat="46.3729173" lon="10.9545995"><ele>675.0</ele><time>2026-04-25T08:41:01.588Z</time></trkpt><trkpt lat="46.3730623" lon="10.9547745"><ele>677.0</ele><time>2026-04-25T08:41:02.629Z</time></trkpt><trkpt lat="46.3731917" lon="10.9549468"><ele>673.3333333333333</ele><time>2026-04-25T08:41:03.594Z</time></trkpt><trkpt lat="46.373327" lon="10.9551403"><ele>669.6666666666666</ele><time>2026-04-25T08:41:04.615Z</time></trkpt><trkpt lat="46.3734509" lon="10.9553364"><ele>666.0</ele><time>2026-04-25T08:41:05.602Z</time></trkpt><trkpt lat="46.3735659" lon="10.9555487"><ele>666.0</ele><time>2026-04-25T08:41:06.606Z</time></trkpt><trkpt lat="46.3736699" lon="10.9557665"><ele>666.0</ele><time>2026-04-25T08:41:07.595Z</time></trkpt><trkpt lat="46.3737706" lon="10.956003"><ele>666.0</ele><time>2026-04-25T08:41:08.629Z</time></trkpt><trkpt lat="46.373859" lon="10.9562369"><ele>669.3333333333334</ele><time>2026-04-25T08:41:09.601Z</time></trkpt><trkpt lat="46.3739445" lon="10.9564884"><ele>672.6666666666667</ele><time>2026-04-25T08:41:10.619Z</time></trkpt><trkpt lat="46.3740168" lon="10.9567409"><ele>676.0</ele><time>2026-04-25T08:41:11.602Z</time></trkpt><trkpt lat="46.374082" lon="10.9570024"><ele>676.0</ele><time>2026-04-25T08:41:12.6Z</time></trkpt><trkpt lat="46.3741373" lon="10.9572803"><ele>676.0</ele><time>2026-04-25T08:41:13.609Z</time></trkpt><trkpt lat="46.3741859" lon="10.957557"><ele>676.0</ele><time>2026-04-25T08:41:14.609Z</time></trkpt><trkpt lat="46.3742274" lon="10.9578396"><ele>675.0</ele><time>2026-04-25T08:41:15.607Z</time></trkpt><trkpt lat="46.3742649" lon="10.9581154"><ele>674.0</ele><time>2026-04-25T08:41:16.605Z</time></trkpt><trkpt lat="46.3743012" lon="10.9583763"><ele>673.0</ele><time>2026-04-25T08:41:17.6Z</time></trkpt><trkpt lat="46.3743336" lon="10.9586331"><ele>671.3333333333334</ele><time>2026-04-25T08:41:18.628Z</time></trkpt><trkpt lat="46.3743528" lon="10.958868"><ele>669.6666666666666</ele><time>2026-04-25T08:41:19.617Z</time></trkpt><trkpt lat="46.374349" lon="10.9590812"><ele>668.0</ele><time>2026-04-25T08:41:20.579Z</time></trkpt><trkpt lat="46.3743401" lon="10.9592943"><ele>666.0</ele><time>2026-04-25T08:41:21.613Z</time></trkpt><trkpt lat="46.3743406" lon="10.9594824"><ele>664.0</ele><time>2026-04-25T08:41:22.618Z</time></trkpt><trkpt lat="46.3743707" lon="10.9596475"><ele>662.0</ele><time>2026-04-25T08:41:23.617Z</time></trkpt><trkpt lat="46.3744418" lon="10.9597711"><ele>660.0</ele><time>2026-04-25T08:41:24.59Z</time></trkpt><trkpt lat="46.3745452" lon="10.9598754"><ele>660.0</ele><time>2026-04-25T08:41:25.6Z</time></trkpt><trkpt lat="46.3746763" lon="10.9599257"><ele>660.0</ele><time>2026-04-25T08:41:26.61Z</time></trkpt><trkpt lat="46.3748242" lon="10.9599309"><ele>660.0</ele><time>2026-04-25T08:41:27.618Z</time></trkpt><trkpt lat="46.3749731" lon="10.9599138"><ele>660.0</ele><time>2026-04-25T08:41:28.607Z</time></trkpt><trkpt lat="46.3751136" lon="10.9599157"><ele>660.0</ele><time>2026-04-25T08:41:29.575Z</time></trkpt><trkpt lat="46.3752621" lon="10.9599562"><ele>660.0</ele><time>2026-04-25T08:41:30.613Z</time></trkpt><trkpt lat="46.3753975" lon="10.9600533"><ele>660.0</ele><time>2026-04-25T08:41:31.611Z</time></trkpt><trkpt lat="46.3755112" lon="10.9601887"><ele>660.0</ele><time>2026-04-25T08:41:32.607Z</time></trkpt><trkpt lat="46.3756013" lon="10.9603511"><ele>662.25</ele><time>2026-04-25T08:41:33.606Z</time></trkpt><trkpt lat="46.3756841" lon="10.9605246"><ele>664.5</ele><time>2026-04-25T08:41:34.626Z</time></trkpt><trkpt lat="46.3757627" lon="10.9607004"><ele>666.75</ele><time>2026-04-25T08:41:35.61Z</time></trkpt><trkpt lat="46.3758386" lon="10.9608852"><ele>669.0</ele><time>2026-04-25T08:41:36.594Z</time></trkpt><trkpt lat="46.3759135" lon="10.961088"><ele>669.0</ele><time>2026-04-25T08:41:37.617Z</time></trkpt><trkpt lat="46.3759787" lon="10.9612927"><ele>669.0</ele><time>2026-04-25T08:41:38.603Z</time></trkpt><trkpt lat="46.3760488" lon="10.9615076"><ele>669.0</ele><time>2026-04-25T08:41:39.62Z</time></trkpt><trkpt lat="46.3761148" lon="10.9617153"><ele>665.6666666666666</ele><time>2026-04-25T08:41:40.611Z</time></trkpt><trkpt lat="46.3761831" lon="10.9619194"><ele>662.3333333333333</ele><time>2026-04-25T08:41:41.587Z</time></trkpt><trkpt lat="46.3762542" lon="10.9621296"><ele>659.0</ele><time>2026-04-25T08:41:42.602Z</time></trkpt><trkpt lat="46.3763283" lon="10.9623342"><ele>665.0</ele><time>2026-04-25T08:41:43.621Z</time></trkpt><trkpt lat="46.3764034" lon="10.962527"><ele>671.0</ele><time>2026-04-25T08:41:44.573Z</time></trkpt><trkpt lat="46.3764842" lon="10.9627353"><ele>677.0</ele><time>2026-04-25T08:41:45.577Z</time></trkpt><trkpt lat="46.3765673" lon="10.9629538"><ele>677.0</ele><time>2026-04-25T08:41:46.603Z</time></trkpt><trkpt lat="46.3766519" lon="10.9631798"><ele>677.0</ele><time>2026-04-25T08:41:47.607Z</time></trkpt><trkpt lat="46.3767467" lon="10.9634253"><ele>677.0</ele><time>2026-04-25T08:41:48.622Z</time></trkpt><trkpt lat="46.3768314" lon="10.9636591"><ele>670.0</ele><time>2026-04-25T08:41:49.603Z</time></trkpt><trkpt lat="46.3769186" lon="10.9638904"><ele>663.0</ele><time>2026-04-25T08:41:50.621Z</time></trkpt><trkpt lat="46.3770045" lon="10.9640877"><ele>656.0</ele><time>2026-04-25T08:41:51.585Z</time></trkpt><trkpt lat="46.3771086" lon="10.9642795"><ele>660.3333333333333</ele><time>2026-04-25T08:41:52.593Z</time></trkpt><trkpt lat="46.3772271" lon="10.9644606"><ele>664.6666666666666</ele><time>2026-04-25T08:41:53.62Z</time></trkpt><trkpt lat="46.377335" lon="10.9646355"><ele>669.0</ele><time>2026-04-25T08:41:54.603Z</time></trkpt><trkpt lat="46.3774326" lon="10.9648275"><ele>666.0</ele><time>2026-04-25T08:41:55.607Z</time></trkpt><trkpt lat="46.37751" lon="10.9650412"><ele>663.0</ele><time>2026-04-25T08:41:56.581Z</time></trkpt><trkpt lat="46.3775767" lon="10.9652868"><ele>660.0</ele><time>2026-04-25T08:41:57.619Z</time></trkpt><trkpt lat="46.377637" lon="10.9655207"><ele>660.0</ele><time>2026-04-25T08:41:58.629Z</time></trkpt><trkpt lat="46.3776901" lon="10.9657401"><ele>660.0</ele><time>2026-04-25T08:41:59.608Z</time></trkpt><trkpt lat="46.3777262" lon="10.965962"><ele>660.0</ele><time>2026-04-25T08:42:00.613Z</time></trkpt><trkpt lat="46.3777493" lon="10.9661904"><ele>656.6666666666666</ele><time>2026-04-25T08:42:01.63Z</time></trkpt><trkpt lat="46.3777724" lon="10.9664115"><ele>653.3333333333333</ele><time>2026-04-25T08:42:02.594Z</time></trkpt><trkpt lat="46.377813" lon="10.9666429"><ele>650.0</ele><time>2026-04-25T08:42:03.608Z</time></trkpt><trkpt lat="46.3778736" lon="10.9668558"><ele>653.6666666666666</ele><time>2026-04-25T08:42:04.607Z</time></trkpt><trkpt lat="46.3779549" lon="10.9670495"><ele>657.3333333333334</ele><time>2026-04-25T08:42:05.592Z</time></trkpt><trkpt lat="46.3780576" lon="10.9672303"><ele>661.0</ele><time>2026-04-25T08:42:06.611Z</time></trkpt><trkpt lat="46.3781747" lon="10.9673858"><ele>661.0</ele><time>2026-04-25T08:42:07.611Z</time></trkpt><trkpt lat="46.3783099" lon="10.9675258"><ele>661.0</ele><time>2026-04-25T08:42:08.609Z</time></trkpt><trkpt lat="46.3784667" lon="10.9676368"><ele>661.0</ele><time>2026-04-25T08:42:09.602Z</time></trkpt><trkpt lat="46.3786345" lon="10.9677134"><ele>658.3333333333334</ele><time>2026-04-25T08:42:10.599Z</time></trkpt><trkpt lat="46.3788129" lon="10.967763"><ele>655.6666666666666</ele><time>2026-04-25T08:42:11.575Z</time></trkpt><trkpt lat="46.3789851" lon="10.9678003"><ele>653.0</ele><time>2026-04-25T08:42:12.567Z</time></trkpt><trkpt lat="46.3791608" lon="10.9678366"><ele>653.0</ele><time>2026-04-25T08:42:13.588Z</time></trkpt><trkpt lat="46.3793333" lon="10.9678656"><ele>653.0</ele><time>2026-04-25T08:42:14.587Z</time></trkpt><trkpt lat="46.3795078" lon="10.9679026"><ele>653.0</ele><time>2026-04-25T08:42:15.613Z</time></trkpt><trkpt lat="46.3796719" lon="10.9679436"><ele>653.3333333333333</ele><time>2026-04-25T08:42:16.606Z</time></trkpt><trkpt lat="46.3798365" lon="10.9679881"><ele>653.6666666666666</ele><time>2026-04-25T08:42:17.625Z</time></trkpt><trkpt lat="46.3799862" lon="10.9680329"><ele>654.0</ele><time>2026-04-25T08:42:18.607Z</time></trkpt><trkpt lat="46.3801296" lon="10.9680909"><ele>654.0</ele><time>2026-04-25T08:42:19.588Z</time></trkpt><trkpt lat="46.3802732" lon="10.9681842"><ele>654.0</ele><time>2026-04-25T08:42:20.595Z</time></trkpt><trkpt lat="46.3804049" lon="10.9683103"><ele>654.0</ele><time>2026-04-25T08:42:21.625Z</time></trkpt><trkpt lat="46.3805262" lon="10.9684611"><ele>654.6666666666666</ele><time>2026-04-25T08:42:22.615Z</time></trkpt><trkpt lat="46.3806466" lon="10.968628"><ele>655.3333333333333</ele><time>2026-04-25T08:42:23.606Z</time></trkpt><trkpt lat="46.3807647" lon="10.9687967"><ele>656.0</ele><time>2026-04-25T08:42:24.603Z</time></trkpt><trkpt lat="46.3808868" lon="10.9689691"><ele>656.0</ele><time>2026-04-25T08:42:25.605Z</time></trkpt><trkpt lat="46.3810064" lon="10.9691479"><ele>656.0</ele><time>2026-04-25T08:42:26.608Z</time></trkpt><trkpt lat="46.3811251" lon="10.9693273"><ele>656.0</ele><time>2026-04-25T08:42:27.6Z</time></trkpt><trkpt lat="46.3812374" lon="10.9695263"><ele>655.3333333333333</ele><time>2026-04-25T08:42:28.604Z</time></trkpt><trkpt lat="46.381348" lon="10.9697251"><ele>654.6666666666666</ele><time>2026-04-25T08:42:29.608Z</time></trkpt><trkpt lat="46.3814604" lon="10.9699258"><ele>654.0</ele><time>2026-04-25T08:42:30.603Z</time></trkpt><trkpt lat="46.3815729" lon="10.9701327"><ele>654.0</ele><time>2026-04-25T08:42:31.62Z</time></trkpt><trkpt lat="46.3816751" lon="10.9703313"><ele>654.0</ele><time>2026-04-25T08:42:32.613Z</time></trkpt><trkpt lat="46.3817711" lon="10.9705155"><ele>654.0</ele><time>2026-04-25T08:42:33.603Z</time></trkpt><trkpt lat="46.3818694" lon="10.9706924"><ele>649.3333333333334</ele><time>2026-04-25T08:42:34.614Z</time></trkpt><trkpt lat="46.3819685" lon="10.9708727"><ele>644.6666666666667</ele><time>2026-04-25T08:42:35.605Z</time></trkpt><trkpt lat="46.382072" lon="10.9710627"><ele>640.0</ele><time>2026-04-25T08:42:36.614Z</time></trkpt><trkpt lat="46.3821727" lon="10.9712603"><ele>644.0</ele><time>2026-04-25T08:42:37.602Z</time></trkpt><trkpt lat="46.3822834" lon="10.9714622"><ele>648.0</ele><time>2026-04-25T08:42:38.599Z</time></trkpt><trkpt lat="46.382398" lon="10.9716729"><ele>652.0</ele><time>2026-04-25T08:42:39.63Z</time></trkpt><trkpt lat="46.382497" lon="10.9718642"><ele>652.0</ele><time>2026-04-25T08:42:40.602Z</time></trkpt><trkpt lat="46.3825958" lon="10.9720513"><ele>652.0</ele><time>2026-04-25T08:42:41.603Z</time></trkpt><trkpt lat="46.3826929" lon="10.9722342"><ele>652.0</ele><time>2026-04-25T08:42:42.62Z</time></trkpt><trkpt lat="46.3827772" lon="10.9724208"><ele>650.0</ele><time>2026-04-25T08:42:43.604Z</time></trkpt><trkpt lat="46.3828459" lon="10.9726254"><ele>648.0</ele><time>2026-04-25T08:42:44.601Z</time></trkpt><trkpt lat="46.38289" lon="10.9728508"><ele>646.0</ele><time>2026-04-25T08:42:45.617Z</time></trkpt><trkpt lat="46.3829118" lon="10.9730777"><ele>646.0</ele><time>2026-04-25T08:42:46.6Z</time></trkpt><trkpt lat="46.3829078" lon="10.9733102"><ele>646.0</ele><time>2026-04-25T08:42:47.588Z</time></trkpt><trkpt lat="46.3828765" lon="10.9735447"><ele>646.0</ele><time>2026-04-25T08:42:48.621Z</time></trkpt><trkpt lat="46.3828371" lon="10.9737477"><ele>645.5</ele><time>2026-04-25T08:42:49.59Z</time></trkpt><trkpt lat="46.3828205" lon="10.9739431"><ele>645.0</ele><time>2026-04-25T08:42:50.6Z</time></trkpt><trkpt lat="46.3828419" lon="10.9741167"><ele>644.5</ele><time>2026-04-25T08:42:51.609Z</time></trkpt><trkpt lat="46.3829002" lon="10.9742533"><ele>644.0</ele><time>2026-04-25T08:42:52.611Z</time></trkpt><trkpt lat="46.3829753" lon="10.9743843"><ele>643.4000000000001</ele><time>2026-04-25T08:42:53.612Z</time></trkpt><trkpt lat="46.3830381" lon="10.9745187"><ele>642.8</ele><time>2026-04-25T08:42:54.604Z</time></trkpt><trkpt lat="46.383062" lon="10.9746628"><ele>642.2</ele><time>2026-04-25T08:42:55.608Z</time></trkpt><trkpt lat="46.3830315" lon="10.9748215"><ele>641.5999999999999</ele><time>2026-04-25T08:42:56.623Z</time></trkpt><trkpt lat="46.3829791" lon="10.9749663"><ele>641.0</ele><time>2026-04-25T08:42:57.623Z</time></trkpt><trkpt lat="46.3829302" lon="10.9751166"><ele>639.0</ele><time>2026-04-25T08:42:58.589Z</time></trkpt><trkpt lat="46.3828956" lon="10.9752881"><ele>637.0</ele><time>2026-04-25T08:42:59.619Z</time></trkpt><trkpt lat="46.3828879" lon="10.9754716"><ele>635.0</ele><time>2026-04-25T08:43:00.607Z</time></trkpt><trkpt lat="46.3829055" lon="10.975667"><ele>633.0</ele><time>2026-04-25T08:43:01.61Z</time></trkpt><trkpt lat="46.3829596" lon="10.9758663"><ele>637.25</ele><time>2026-04-25T08:43:02.643Z</time></trkpt><trkpt lat="46.3830356" lon="10.976021"><ele>641.5</ele><time>2026-04-25T08:43:03.608Z</time></trkpt><trkpt lat="46.3831361" lon="10.9761613"><ele>645.75</ele><time>2026-04-25T08:43:04.61Z</time></trkpt><trkpt lat="46.3832474" lon="10.9762912"><ele>650.0</ele><time>2026-04-25T08:43:05.601Z</time></trkpt><trkpt lat="46.3833584" lon="10.9764249"><ele>650.0</ele><time>2026-04-25T08:43:06.611Z</time></trkpt><trkpt lat="46.3834514" lon="10.9765686"><ele>650.0</ele><time>2026-04-25T08:43:07.609Z</time></trkpt><trkpt lat="46.3835393" lon="10.9767071"><ele>650.0</ele><time>2026-04-25T08:43:08.602Z</time></trkpt><trkpt lat="46.3836289" lon="10.9768288"><ele>650.0</ele><time>2026-04-25T08:43:09.605Z</time></trkpt><trkpt lat="46.383722" lon="10.9769083"><ele>648.75</ele><time>2026-04-25T08:43:10.602Z</time></trkpt><trkpt lat="46.3838397" lon="10.9769255"><ele>647.5</ele><time>2026-04-25T08:43:11.576Z</time></trkpt><trkpt lat="46.3839678" lon="10.9769059"><ele>646.25</ele><time>2026-04-25T08:43:12.612Z</time></trkpt><trkpt lat="46.3841026" lon="10.9768773"><ele>645.0</ele><time>2026-04-25T08:43:13.615Z</time></trkpt><trkpt lat="46.3842179" lon="10.9768915"><ele>645.0</ele><time>2026-04-25T08:43:14.602Z</time></trkpt><trkpt lat="46.3843326" lon="10.9769501"><ele>645.0</ele><time>2026-04-25T08:43:15.603Z</time></trkpt><trkpt lat="46.3844431" lon="10.9770624"><ele>645.0</ele><time>2026-04-25T08:43:16.592Z</time></trkpt><trkpt lat="46.3845536" lon="10.9771993"><ele>645.0</ele><time>2026-04-25T08:43:17.596Z</time></trkpt><trkpt lat="46.384671" lon="10.9773507"><ele>643.0</ele><time>2026-04-25T08:43:18.59Z</time></trkpt><trkpt lat="46.3848002" lon="10.9775061"><ele>641.0</ele><time>2026-04-25T08:43:19.602Z</time></trkpt><trkpt lat="46.3849357" lon="10.9776565"><ele>639.0</ele><time>2026-04-25T08:43:20.587Z</time></trkpt><trkpt lat="46.3850863" lon="10.9778243"><ele>639.0</ele><time>2026-04-25T08:43:21.637Z</time></trkpt><trkpt lat="46.3852264" lon="10.9779788"><ele>639.0</ele><time>2026-04-25T08:43:22.586Z</time></trkpt><trkpt lat="46.3853706" lon="10.9781367"><ele>639.0</ele><time>2026-04-25T08:43:23.618Z</time></trkpt><trkpt lat="46.3855015" lon="10.9782759"><ele>640.25</ele><time>2026-04-25T08:43:24.622Z</time></trkpt><trkpt lat="46.3856239" lon="10.9784062"><ele>641.5</ele><time>2026-04-25T08:43:25.614Z</time></trkpt><trkpt lat="46.385741" lon="10.9785291"><ele>642.75</ele><time>2026-04-25T08:43:26.598Z</time></trkpt><trkpt lat="46.3858573" lon="10.9786499"><ele>644.0</ele><time>2026-04-25T08:43:27.611Z</time></trkpt><trkpt lat="46.3859726" lon="10.978773"><ele>644.0</ele><time>2026-04-25T08:43:28.609Z</time></trkpt><trkpt lat="46.3860893" lon="10.9789101"><ele>644.0</ele><time>2026-04-25T08:43:29.622Z</time></trkpt><trkpt lat="46.3861944" lon="10.9790554"><ele>644.0</ele><time>2026-04-25T08:43:30.628Z</time></trkpt><trkpt lat="46.3862785" lon="10.9792099"><ele>644.0</ele><time>2026-04-25T08:43:31.626Z</time></trkpt><trkpt lat="46.3863359" lon="10.9793792"><ele>647.25</ele><time>2026-04-25T08:43:32.624Z</time></trkpt><trkpt lat="46.3863755" lon="10.9795575"><ele>650.5</ele><time>2026-04-25T08:43:33.611Z</time></trkpt><trkpt lat="46.3864196" lon="10.9797453"><ele>653.75</ele><time>2026-04-25T08:43:34.614Z</time></trkpt><trkpt lat="46.3864679" lon="10.9799327"><ele>657.0</ele><time>2026-04-25T08:43:35.586Z</time></trkpt><trkpt lat="46.3865211" lon="10.9801334"><ele>657.0</ele><time>2026-04-25T08:43:36.603Z</time></trkpt><trkpt lat="46.3865828" lon="10.9803117"><ele>657.0</ele><time>2026-04-25T08:43:37.566Z</time></trkpt><trkpt lat="46.3866512" lon="10.9804826"><ele>657.0</ele><time>2026-04-25T08:43:38.576Z</time></trkpt><trkpt lat="46.386724" lon="10.9806332"><ele>657.0</ele><time>2026-04-25T08:43:39.604Z</time></trkpt><trkpt lat="46.3867913" lon="10.9807617"><ele>654.4000000000001</ele><time>2026-04-25T08:43:40.582Z</time></trkpt><trkpt lat="46.3868637" lon="10.9808917"><ele>651.8000000000001</ele><time>2026-04-25T08:43:41.586Z</time></trkpt><trkpt lat="46.3869285" lon="10.9810266"><ele>649.2</ele><time>2026-04-25T08:43:42.613Z</time></trkpt><trkpt lat="46.3869867" lon="10.9811617"><ele>646.6</ele><time>2026-04-25T08:43:43.632Z</time></trkpt><trkpt lat="46.3870383" lon="10.9812926"><ele>644.0</ele><time>2026-04-25T08:43:44.609Z</time></trkpt><trkpt lat="46.3870852" lon="10.981441"><ele>644.0</ele><time>2026-04-25T08:43:45.607Z</time></trkpt><trkpt lat="46.3871291" lon="10.9816041"><ele>644.0</ele><time>2026-04-25T08:43:46.626Z</time></trkpt><trkpt lat="46.3871699" lon="10.9817739"><ele>644.0</ele><time>2026-04-25T08:43:47.605Z</time></trkpt><trkpt lat="46.3872111" lon="10.9819503"><ele>644.0</ele><time>2026-04-25T08:43:48.592Z</time></trkpt><trkpt lat="46.3872597" lon="10.9821336"><ele>644.75</ele><time>2026-04-25T08:43:49.603Z</time></trkpt><trkpt lat="46.3873131" lon="10.9823173"><ele>645.5</ele><time>2026-04-25T08:43:50.589Z</time></trkpt><trkpt lat="46.3873663" lon="10.9825127"><ele>646.25</ele><time>2026-04-25T08:43:51.6Z</time></trkpt><trkpt lat="46.3874249" lon="10.9827156"><ele>647.0</ele><time>2026-04-25T08:43:52.607Z</time></trkpt><trkpt lat="46.3874864" lon="10.9829242"><ele>647.0</ele><time>2026-04-25T08:43:53.611Z</time></trkpt><trkpt lat="46.3875506" lon="10.9831392"><ele>647.0</ele><time>2026-04-25T08:43:54.614Z</time></trkpt><trkpt lat="46.3876148" lon="10.983358"><ele>647.0</ele><time>2026-04-25T08:43:55.622Z</time></trkpt><trkpt lat="46.3876727" lon="10.9835742"><ele>643.3333333333333</ele><time>2026-04-25T08:43:56.594Z</time></trkpt><trkpt lat="46.3877318" lon="10.9838059"><ele>639.6666666666666</ele><time>2026-04-25T08:43:57.625Z</time></trkpt><trkpt lat="46.3877748" lon="10.984036"><ele>636.0</ele><time>2026-04-25T08:43:58.612Z</time></trkpt><trkpt lat="46.3878111" lon="10.9842685"><ele>631.6666666666666</ele><time>2026-04-25T08:43:59.624Z</time></trkpt><trkpt lat="46.3878398" lon="10.9844887"><ele>627.3333333333333</ele><time>2026-04-25T08:44:00.622Z</time></trkpt><trkpt lat="46.3878655" lon="10.9847004"><ele>623.0</ele><time>2026-04-25T08:44:01.611Z</time></trkpt><trkpt lat="46.3878921" lon="10.9849104"><ele>620.75</ele><time>2026-04-25T08:44:02.61Z</time></trkpt><trkpt lat="46.3879262" lon="10.9851098"><ele>618.5</ele><time>2026-04-25T08:44:03.61Z</time></trkpt><trkpt lat="46.3879765" lon="10.9853023"><ele>616.25</ele><time>2026-04-25T08:44:04.63Z</time></trkpt><trkpt lat="46.3880475" lon="10.9854814"><ele>614.0</ele><time>2026-04-25T08:44:05.626Z</time></trkpt><trkpt lat="46.3881362" lon="10.9856408"><ele>619.25</ele><time>2026-04-25T08:44:06.623Z</time></trkpt><trkpt lat="46.3882289" lon="10.9857938"><ele>624.5</ele><time>2026-04-25T08:44:07.639Z</time></trkpt><trkpt lat="46.3882937" lon="10.9859595"><ele>629.75</ele><time>2026-04-25T08:44:08.6Z</time></trkpt><trkpt lat="46.3883298" lon="10.9861521"><ele>635.0</ele><time>2026-04-25T08:44:09.605Z</time></trkpt><trkpt lat="46.3883477" lon="10.9863584"><ele>635.0</ele><time>2026-04-25T08:44:10.636Z</time></trkpt><trkpt lat="46.3883597" lon="10.9865618"><ele>635.0</ele><time>2026-04-25T08:44:11.621Z</time></trkpt><trkpt lat="46.3884047" lon="10.9867488"><ele>635.0</ele><time>2026-04-25T08:44:12.607Z</time></trkpt><trkpt lat="46.3884661" lon="10.9869272"><ele>635.0</ele><time>2026-04-25T08:44:13.61Z</time></trkpt><trkpt lat="46.3885274" lon="10.9871112"><ele>632.75</ele><time>2026-04-25T08:44:14.6Z</time></trkpt><trkpt lat="46.3885823" lon="10.9873069"><ele>630.5</ele><time>2026-04-25T08:44:15.6Z</time></trkpt><trkpt lat="46.3886123" lon="10.9875092"><ele>628.25</ele><time>2026-04-25T08:44:16.607Z</time></trkpt><trkpt lat="46.3886204" lon="10.9877156"><ele>626.0</ele><time>2026-04-25T08:44:17.638Z</time></trkpt><trkpt lat="46.3886338" lon="10.9879063"><ele>625.25</ele><time>2026-04-25T08:44:18.612Z</time></trkpt><trkpt lat="46.3886467" lon="10.9880911"><ele>624.5</ele><time>2026-04-25T08:44:19.619Z</time></trkpt><trkpt lat="46.3886666" lon="10.9882708"><ele>623.75</ele><time>2026-04-25T08:44:20.603Z</time></trkpt><trkpt lat="46.3886986" lon="10.9884415"><ele>623.0</ele><time>2026-04-25T08:44:21.608Z</time></trkpt><trkpt lat="46.3887381" lon="10.9886135"><ele>623.5</ele><time>2026-04-25T08:44:22.609Z</time></trkpt><trkpt lat="46.3887871" lon="10.988786"><ele>624.0</ele><time>2026-04-25T08:44:23.617Z</time></trkpt><trkpt lat="46.3888436" lon="10.9889507"><ele>624.5</ele><time>2026-04-25T08:44:24.583Z</time></trkpt><trkpt lat="46.3889157" lon="10.9891157"><ele>625.0</ele><time>2026-04-25T08:44:25.614Z</time></trkpt><trkpt lat="46.3889982" lon="10.9892667"><ele>625.0</ele><time>2026-04-25T08:44:26.598Z</time></trkpt><trkpt lat="46.3890865" lon="10.9894201"><ele>625.0</ele><time>2026-04-25T08:44:27.629Z</time></trkpt><trkpt lat="46.3891758" lon="10.989568"><ele>625.0</ele><time>2026-04-25T08:44:28.609Z</time></trkpt><trkpt lat="46.389256" lon="10.989737"><ele>625.0</ele><time>2026-04-25T08:44:29.58Z</time></trkpt><trkpt lat="46.3893326" lon="10.989929"><ele>622.0</ele><time>2026-04-25T08:44:30.593Z</time></trkpt><trkpt lat="46.3893891" lon="10.9901395"><ele>619.0</ele><time>2026-04-25T08:44:31.608Z</time></trkpt><trkpt lat="46.3894332" lon="10.9903576"><ele>616.0</ele><time>2026-04-25T08:44:32.617Z</time></trkpt><trkpt lat="46.3894631" lon="10.9905657"><ele>616.0</ele><time>2026-04-25T08:44:33.594Z</time></trkpt><trkpt lat="46.3894862" lon="10.9907731"><ele>616.0</ele><time>2026-04-25T08:44:34.602Z</time></trkpt><trkpt lat="46.38951" lon="10.9909804"><ele>616.0</ele><time>2026-04-25T08:44:35.616Z</time></trkpt><trkpt lat="46.3895351" lon="10.9911906"><ele>616.0</ele><time>2026-04-25T08:44:36.623Z</time></trkpt><trkpt lat="46.3895551" lon="10.9913942"><ele>611.0</ele><time>2026-04-25T08:44:37.562Z</time></trkpt><trkpt lat="46.3895816" lon="10.9916217"><ele>606.0</ele><time>2026-04-25T08:44:38.612Z</time></trkpt><trkpt lat="46.3896135" lon="10.9918328"><ele>601.0</ele><time>2026-04-25T08:44:39.593Z</time></trkpt><trkpt lat="46.3896653" lon="10.992047"><ele>605.3333333333334</ele><time>2026-04-25T08:44:40.594Z</time></trkpt><trkpt lat="46.3897455" lon="10.9922504"><ele>609.6666666666666</ele><time>2026-04-25T08:44:41.614Z</time></trkpt><trkpt lat="46.3898446" lon="10.9924326"><ele>614.0</ele><time>2026-04-25T08:44:42.6Z</time></trkpt><trkpt lat="46.3899494" lon="10.9926139"><ele>614.0</ele><time>2026-04-25T08:44:43.582Z</time></trkpt><trkpt lat="46.3900334" lon="10.9928121"><ele>614.0</ele><time>2026-04-25T08:44:44.568Z</time></trkpt><trkpt lat="46.3901033" lon="10.9930343"><ele>614.0</ele><time>2026-04-25T08:44:45.585Z</time></trkpt><trkpt lat="46.3901584" lon="10.9932639"><ele>608.3333333333333</ele><time>2026-04-25T08:44:46.603Z</time></trkpt><trkpt lat="46.3902143" lon="10.993485"><ele>602.6666666666666</ele><time>2026-04-25T08:44:47.597Z</time></trkpt><trkpt lat="46.39027" lon="10.9937085"><ele>597.0</ele><time>2026-04-25T08:44:48.62Z</time></trkpt><trkpt lat="46.3903323" lon="10.9939225"><ele>597.0</ele><time>2026-04-25T08:44:49.596Z</time></trkpt><trkpt lat="46.3904077" lon="10.9941337"><ele>597.0</ele><time>2026-04-25T08:44:50.603Z</time></trkpt><trkpt lat="46.3904885" lon="10.9943321"><ele>597.0</ele><time>2026-04-25T08:44:51.613Z</time></trkpt><trkpt lat="46.3905693" lon="10.9945158"><ele>598.0</ele><time>2026-04-25T08:44:52.616Z</time></trkpt><trkpt lat="46.390651" lon="10.9946892"><ele>599.0</ele><time>2026-04-25T08:44:53.592Z</time></trkpt><trkpt lat="46.3907391" lon="10.9948781"><ele>600.0</ele><time>2026-04-25T08:44:54.619Z</time></trkpt><trkpt lat="46.3908193" lon="10.9950663"><ele>600.0</ele><time>2026-04-25T08:44:55.63Z</time></trkpt><trkpt lat="46.39089" lon="10.9952477"><ele>600.0</ele><time>2026-04-25T08:44:56.622Z</time></trkpt><trkpt lat="46.3909592" lon="10.9954321"><ele>600.0</ele><time>2026-04-25T08:44:57.608Z</time></trkpt><trkpt lat="46.3910247" lon="10.995621"><ele>600.0</ele><time>2026-04-25T08:44:58.604Z</time></trkpt><trkpt lat="46.3911003" lon="10.9958187"><ele>596.3333333333334</ele><time>2026-04-25T08:44:59.594Z</time></trkpt><trkpt lat="46.3911757" lon="10.9960266"><ele>592.6666666666667</ele><time>2026-04-25T08:45:00.616Z</time></trkpt><trkpt lat="46.3912493" lon="10.9962356"><ele>589.0</ele><time>2026-04-25T08:45:01.622Z</time></trkpt><trkpt lat="46.3913202" lon="10.9964368"><ele>594.3333333333334</ele><time>2026-04-25T08:45:02.612Z</time></trkpt><trkpt lat="46.3913919" lon="10.9966415"><ele>599.6666666666666</ele><time>2026-04-25T08:45:03.605Z</time></trkpt><trkpt lat="46.3914684" lon="10.9968457"><ele>605.0</ele><time>2026-04-25T08:45:04.6Z</time></trkpt><trkpt lat="46.3915494" lon="10.9970522"><ele>605.0</ele><time>2026-04-25T08:45:05.604Z</time></trkpt><trkpt lat="46.3916323" lon="10.9972629"><ele>605.0</ele><time>2026-04-25T08:45:06.62Z</time></trkpt><trkpt lat="46.3917097" lon="10.9974742"><ele>605.0</ele><time>2026-04-25T08:45:07.617Z</time></trkpt><trkpt lat="46.3917828" lon="10.9976938"><ele>600.0</ele><time>2026-04-25T08:45:08.631Z</time></trkpt><trkpt lat="46.3918555" lon="10.9979046"><ele>595.0</ele><time>2026-04-25T08:45:09.618Z</time></trkpt><trkpt lat="46.3919348" lon="10.9981208"><ele>590.0</ele><time>2026-04-25T08:45:10.633Z</time></trkpt><trkpt lat="46.3920185" lon="10.9983167"><ele>594.6666666666666</ele><time>2026-04-25T08:45:11.601Z</time></trkpt><trkpt lat="46.3921151" lon="10.9985129"><ele>599.3333333333334</ele><time>2026-04-25T08:45:12.616Z</time></trkpt><trkpt lat="46.3922203" lon="10.9986887"><ele>604.0</ele><time>2026-04-25T08:45:13.599Z</time></trkpt><trkpt lat="46.3923377" lon="10.9988581"><ele>604.0</ele><time>2026-04-25T08:45:14.599Z</time></trkpt><trkpt lat="46.392471" lon="10.999022"><ele>604.0</ele><time>2026-04-25T08:45:15.633Z</time></trkpt><trkpt lat="46.3926043" lon="10.9991644"><ele>604.0</ele><time>2026-04-25T08:45:16.604Z</time></trkpt><trkpt lat="46.3927502" lon="10.9993013"><ele>605.0</ele><time>2026-04-25T08:45:17.623Z</time></trkpt><trkpt lat="46.3928967" lon="10.9994338"><ele>606.0</ele><time>2026-04-25T08:45:18.635Z</time></trkpt><trkpt lat="46.3930379" lon="10.9995729"><ele>607.0</ele><time>2026-04-25T08:45:19.607Z</time></trkpt><trkpt lat="46.3931746" lon="10.9997278"><ele>607.0</ele><time>2026-04-25T08:45:20.589Z</time></trkpt><trkpt lat="46.3933059" lon="10.9998975"><ele>607.0</ele><time>2026-04-25T08:45:21.588Z</time></trkpt><trkpt lat="46.3934402" lon="11.0000777"><ele>607.0</ele><time>2026-04-25T08:45:22.613Z</time></trkpt><trkpt lat="46.3935645" lon="11.000262"><ele>607.0</ele><time>2026-04-25T08:45:23.604Z</time></trkpt><trkpt lat="46.3936707" lon="11.0004673"><ele>607.0</ele><time>2026-04-25T08:45:24.593Z</time></trkpt><trkpt lat="46.3937437" lon="11.0007053"><ele>607.0</ele><time>2026-04-25T08:45:25.613Z</time></trkpt><trkpt lat="46.3938051" lon="11.0009391"><ele>613.0</ele><time>2026-04-25T08:45:26.602Z</time></trkpt><trkpt lat="46.3938733" lon="11.0011552"><ele>619.0</ele><time>2026-04-25T08:45:27.563Z</time></trkpt><trkpt lat="46.3939667" lon="11.0013682"><ele>625.0</ele><time>2026-04-25T08:45:28.607Z</time></trkpt><trkpt lat="46.394072" lon="11.0015455"><ele>618.0</ele><time>2026-04-25T08:45:29.617Z</time></trkpt><trkpt lat="46.3941919" lon="11.0016987"><ele>611.0</ele><time>2026-04-25T08:45:30.589Z</time></trkpt><trkpt lat="46.394313" lon="11.0018648"><ele>604.0</ele><time>2026-04-25T08:45:31.602Z</time></trkpt><trkpt lat="46.3944232" lon="11.0020498"><ele>604.0</ele><time>2026-04-25T08:45:32.616Z</time></trkpt><trkpt lat="46.3945086" lon="11.002259"><ele>604.0</ele><time>2026-04-25T08:45:33.635Z</time></trkpt><trkpt lat="46.3945745" lon="11.0024811"><ele>604.0</ele><time>2026-04-25T08:45:34.615Z</time></trkpt><trkpt lat="46.3946275" lon="11.0027185"><ele>605.3333333333334</ele><time>2026-04-25T08:45:35.62Z</time></trkpt><trkpt lat="46.3946785" lon="11.0029543"><ele>606.6666666666666</ele><time>2026-04-25T08:45:36.621Z</time></trkpt><trkpt lat="46.3947272" lon="11.0031933"><ele>608.0</ele><time>2026-04-25T08:45:37.618Z</time></trkpt><trkpt lat="46.3947698" lon="11.0034332"><ele>608.0</ele><time>2026-04-25T08:45:38.614Z</time></trkpt><trkpt lat="46.3947918" lon="11.0036737"><ele>608.0</ele><time>2026-04-25T08:45:39.591Z</time></trkpt><trkpt lat="46.3947787" lon="11.0039262"><ele>608.0</ele><time>2026-04-25T08:45:40.609Z</time></trkpt><trkpt lat="46.3947328" lon="11.0041766"><ele>608.0</ele><time>2026-04-25T08:45:41.62Z</time></trkpt><trkpt lat="46.3946782" lon="11.0044146"><ele>608.0</ele><time>2026-04-25T08:45:42.596Z</time></trkpt><trkpt lat="46.3946297" lon="11.0046566"><ele>608.0</ele><time>2026-04-25T08:45:43.607Z</time></trkpt><trkpt lat="46.3946007" lon="11.0049034"><ele>595.3333333333333</ele><time>2026-04-25T08:45:44.641Z</time></trkpt><trkpt lat="46.3945916" lon="11.005145"><ele>582.6666666666666</ele><time>2026-04-25T08:45:45.617Z</time></trkpt><trkpt lat="46.3945874" lon="11.005396"><ele>570.0</ele><time>2026-04-25T08:45:46.588Z</time></trkpt><trkpt lat="46.3945878" lon="11.0056685"><ele>568.3333333333334</ele><time>2026-04-25T08:45:47.626Z</time></trkpt><trkpt lat="46.3945967" lon="11.0059044"><ele>566.6666666666667</ele><time>2026-04-25T08:45:48.574Z</time></trkpt><trkpt lat="46.3946174" lon="11.0061571"><ele>565.0</ele><time>2026-04-25T08:45:49.611Z</time></trkpt><trkpt lat="46.3946618" lon="11.0063822"><ele>576.3333333333334</ele><time>2026-04-25T08:45:50.602Z</time></trkpt><trkpt lat="46.3947244" lon="11.0066142"><ele>587.6666666666666</ele><time>2026-04-25T08:45:51.598Z</time></trkpt><trkpt lat="46.3947889" lon="11.0068548"><ele>599.0</ele><time>2026-04-25T08:45:52.617Z</time></trkpt><trkpt lat="46.394854" lon="11.0070966"><ele>599.0</ele><time>2026-04-25T08:45:53.628Z</time></trkpt><trkpt lat="46.394915" lon="11.0073301"><ele>599.0</ele><time>2026-04-25T08:45:54.615Z</time></trkpt><trkpt lat="46.3949586" lon="11.0075771"><ele>599.0</ele><time>2026-04-25T08:45:55.627Z</time></trkpt><trkpt lat="46.3949743" lon="11.0078011"><ele>598.6666666666666</ele><time>2026-04-25T08:45:56.56Z</time></trkpt><trkpt lat="46.3949614" lon="11.0080579"><ele>598.3333333333334</ele><time>2026-04-25T08:45:57.604Z</time></trkpt><trkpt lat="46.3949228" lon="11.0083094"><ele>598.0</ele><time>2026-04-25T08:45:58.62Z</time></trkpt><trkpt lat="46.3948668" lon="11.0085489"><ele>598.0</ele><time>2026-04-25T08:45:59.604Z</time></trkpt><trkpt lat="46.3948072" lon="11.0087924"><ele>598.0</ele><time>2026-04-25T08:46:00.606Z</time></trkpt><trkpt lat="46.3947484" lon="11.0090375"><ele>598.0</ele><time>2026-04-25T08:46:01.608Z</time></trkpt><trkpt lat="46.3946933" lon="11.0092819"><ele>593.0</ele><time>2026-04-25T08:46:02.588Z</time></trkpt><trkpt lat="46.3946309" lon="11.0095399"><ele>588.0</ele><time>2026-04-25T08:46:03.617Z</time></trkpt><trkpt lat="46.3945565" lon="11.0097806"><ele>583.0</ele><time>2026-04-25T08:46:04.625Z</time></trkpt><trkpt lat="46.394466" lon="11.0100096"><ele>583.0</ele><time>2026-04-25T08:46:05.628Z</time></trkpt><trkpt lat="46.3943704" lon="11.0102263"><ele>583.0</ele><time>2026-04-25T08:46:06.614Z</time></trkpt><trkpt lat="46.3942712" lon="11.0104496"><ele>583.0</ele><time>2026-04-25T08:46:07.613Z</time></trkpt><trkpt lat="46.3941781" lon="11.0106651"><ele>587.3333333333334</ele><time>2026-04-25T08:46:08.623Z</time></trkpt><trkpt lat="46.3940923" lon="11.0108661"><ele>591.6666666666666</ele><time>2026-04-25T08:46:09.599Z</time></trkpt><trkpt lat="46.3940128" lon="11.0110682"><ele>596.0</ele><time>2026-04-25T08:46:10.608Z</time></trkpt><trkpt lat="46.3939515" lon="11.0112694"><ele>596.0</ele><time>2026-04-25T08:46:11.615Z</time></trkpt><trkpt lat="46.3939052" lon="11.0114725"><ele>596.0</ele><time>2026-04-25T08:46:12.612Z</time></trkpt><trkpt lat="46.3938651" lon="11.0116751"><ele>596.0</ele><time>2026-04-25T08:46:13.623Z</time></trkpt><trkpt lat="46.3938291" lon="11.0118698"><ele>596.0</ele><time>2026-04-25T08:46:14.618Z</time></trkpt><trkpt lat="46.3938005" lon="11.0120537"><ele>595.2</ele><time>2026-04-25T08:46:15.614Z</time></trkpt><trkpt lat="46.393773" lon="11.0122257"><ele>594.4000000000001</ele><time>2026-04-25T08:46:16.626Z</time></trkpt><trkpt lat="46.3937462" lon="11.0123784"><ele>593.6</ele><time>2026-04-25T08:46:17.594Z</time></trkpt><trkpt lat="46.3937201" lon="11.0125219"><ele>592.8000000000001</ele><time>2026-04-25T08:46:18.614Z</time></trkpt><trkpt lat="46.3936958" lon="11.012661"><ele>592.0</ele><time>2026-04-25T08:46:19.605Z</time></trkpt><trkpt lat="46.3936722" lon="11.0127867"><ele>592.0</ele><time>2026-04-25T08:46:20.599Z</time></trkpt><trkpt lat="46.3936448" lon="11.0129042"><ele>592.0</ele><time>2026-04-25T08:46:21.625Z</time></trkpt><trkpt lat="46.3936097" lon="11.013"><ele>592.0</ele><time>2026-04-25T08:46:22.609Z</time></trkpt><trkpt lat="46.3935547" lon="11.0130774"><ele>592.0</ele><time>2026-04-25T08:46:23.616Z</time></trkpt><trkpt lat="46.3934813" lon="11.0131288"><ele>592.0</ele><time>2026-04-25T08:46:24.585Z</time></trkpt><trkpt lat="46.393389" lon="11.0131614"><ele>592.0</ele><time>2026-04-25T08:46:25.593Z</time></trkpt><trkpt lat="46.3932851" lon="11.0131746"><ele>592.0</ele><time>2026-04-25T08:46:26.565Z</time></trkpt><trkpt lat="46.3931569" lon="11.013182"><ele>592.0</ele><time>2026-04-25T08:46:27.618Z</time></trkpt><trkpt lat="46.393036" lon="11.0132022"><ele>592.0</ele><time>2026-04-25T08:46:28.623Z</time></trkpt><trkpt lat="46.3929035" lon="11.0132232"><ele>592.0</ele><time>2026-04-25T08:46:29.585Z</time></trkpt><trkpt lat="46.3927596" lon="11.0132293"><ele>599.6666666666667</ele><time>2026-04-25T08:46:30.598Z</time></trkpt><trkpt lat="46.3926078" lon="11.0132087"><ele>607.3333333333334</ele><time>2026-04-25T08:46:31.619Z</time></trkpt><trkpt lat="46.392454" lon="11.0131639"><ele>615.0</ele><time>2026-04-25T08:46:32.625Z</time></trkpt><trkpt lat="46.3923054" lon="11.0131095"><ele>623.0</ele><time>2026-04-25T08:46:33.584Z</time></trkpt><trkpt lat="46.3921358" lon="11.0130675"><ele>631.0</ele><time>2026-04-25T08:46:34.61Z</time></trkpt><trkpt lat="46.3919692" lon="11.0130558"><ele>639.0</ele><time>2026-04-25T08:46:35.596Z</time></trkpt><trkpt lat="46.3917998" lon="11.0130804"><ele>639.0</ele><time>2026-04-25T08:46:36.601Z</time></trkpt><trkpt lat="46.391646" lon="11.0131202"><ele>639.0</ele><time>2026-04-25T08:46:37.586Z</time></trkpt><trkpt lat="46.3915096" lon="11.0131577"><ele>639.0</ele><time>2026-04-25T08:46:38.588Z</time></trkpt><trkpt lat="46.3913991" lon="11.0131857"><ele>639.0</ele><time>2026-04-25T08:46:39.591Z</time></trkpt><trkpt lat="46.3913082" lon="11.013219"><ele>640.6</ele><time>2026-04-25T08:46:40.607Z</time></trkpt><trkpt lat="46.3912376" lon="11.013276"><ele>642.2</ele><time>2026-04-25T08:46:41.567Z</time></trkpt><trkpt lat="46.3911783" lon="11.0133723"><ele>643.8000000000001</ele><time>2026-04-25T08:46:42.615Z</time></trkpt><trkpt lat="46.3911438" lon="11.0135087"><ele>645.4</ele><time>2026-04-25T08:46:43.609Z</time></trkpt><trkpt lat="46.3911211" lon="11.0136822"><ele>647.0</ele><time>2026-04-25T08:46:44.616Z</time></trkpt><trkpt lat="46.3910995" lon="11.013858"><ele>647.0</ele><time>2026-04-25T08:46:45.597Z</time></trkpt><trkpt lat="46.3910776" lon="11.0140332"><ele>647.0</ele><time>2026-04-25T08:46:46.624Z</time></trkpt><trkpt lat="46.3910565" lon="11.0142013"><ele>647.0</ele><time>2026-04-25T08:46:47.628Z</time></trkpt><trkpt lat="46.3910489" lon="11.014367"><ele>647.0</ele><time>2026-04-25T08:46:48.601Z</time></trkpt><trkpt lat="46.391068" lon="11.0145452"><ele>646.5</ele><time>2026-04-25T08:46:49.632Z</time></trkpt><trkpt lat="46.3911197" lon="11.0147097"><ele>646.0</ele><time>2026-04-25T08:46:50.61Z</time></trkpt><trkpt lat="46.3912073" lon="11.0148637"><ele>645.5</ele><time>2026-04-25T08:46:51.628Z</time></trkpt><trkpt lat="46.3913143" lon="11.0150095"><ele>645.0</ele><time>2026-04-25T08:46:52.616Z</time></trkpt><trkpt lat="46.3914301" lon="11.015149"><ele>637.5</ele><time>2026-04-25T08:46:53.594Z</time></trkpt><trkpt lat="46.3915266" lon="11.0152888"><ele>630.0</ele><time>2026-04-25T08:46:54.553Z</time></trkpt><trkpt lat="46.3915977" lon="11.0154455"><ele>622.5</ele><time>2026-04-25T08:46:55.56Z</time></trkpt><trkpt lat="46.3916278" lon="11.0156198"><ele>615.0</ele><time>2026-04-25T08:46:56.572Z</time></trkpt><trkpt lat="46.3916151" lon="11.0157922"><ele>618.25</ele><time>2026-04-25T08:46:57.557Z</time></trkpt><trkpt lat="46.3915621" lon="11.0159664"><ele>621.5</ele><time>2026-04-25T08:46:58.578Z</time></trkpt><trkpt lat="46.3914763" lon="11.0161178"><ele>624.75</ele><time>2026-04-25T08:46:59.592Z</time></trkpt><trkpt lat="46.3913804" lon="11.0162589"><ele>628.0</ele><time>2026-04-25T08:47:00.573Z</time></trkpt><trkpt lat="46.3912865" lon="11.0164209"><ele>635.75</ele><time>2026-04-25T08:47:01.606Z</time></trkpt><trkpt lat="46.3912095" lon="11.0166009"><ele>643.5</ele><time>2026-04-25T08:47:02.582Z</time></trkpt><trkpt lat="46.3911483" lon="11.0168111"><ele>651.25</ele><time>2026-04-25T08:47:03.61Z</time></trkpt><trkpt lat="46.391115" lon="11.0170024"><ele>659.0</ele><time>2026-04-25T08:47:04.611Z</time></trkpt><trkpt lat="46.3910977" lon="11.0171943"><ele>659.0</ele><time>2026-04-25T08:47:05.602Z</time></trkpt><trkpt lat="46.3910731" lon="11.0173912"><ele>659.0</ele><time>2026-04-25T08:47:06.62Z</time></trkpt><trkpt lat="46.3910223" lon="11.0175634"><ele>659.0</ele><time>2026-04-25T08:47:07.602Z</time></trkpt><trkpt lat="46.3909334" lon="11.0177007"><ele>659.0</ele><time>2026-04-25T08:47:08.601Z</time></trkpt><trkpt lat="46.3908152" lon="11.017816"><ele>655.6666666666666</ele><time>2026-04-25T08:47:09.603Z</time></trkpt><trkpt lat="46.3906765" lon="11.0179257"><ele>652.3333333333334</ele><time>2026-04-25T08:47:10.602Z</time></trkpt><trkpt lat="46.3905497" lon="11.0180492"><ele>649.0</ele><time>2026-04-25T08:47:11.595Z</time></trkpt><trkpt lat="46.3904385" lon="11.0182116"><ele>657.6666666666667</ele><time>2026-04-25T08:47:12.6Z</time></trkpt><trkpt lat="46.3903551" lon="11.0184039"><ele>666.3333333333334</ele><time>2026-04-25T08:47:13.597Z</time></trkpt><trkpt lat="46.3902963" lon="11.01863"><ele>675.0</ele><time>2026-04-25T08:47:14.614Z</time></trkpt><trkpt lat="46.3902494" lon="11.018847"><ele>675.0</ele><time>2026-04-25T08:47:15.588Z</time></trkpt><trkpt lat="46.3901884" lon="11.0190875"><ele>675.0</ele><time>2026-04-25T08:47:16.611Z</time></trkpt><trkpt lat="46.3901052" lon="11.0193194"><ele>675.0</ele><time>2026-04-25T08:47:17.606Z</time></trkpt><trkpt lat="46.3900072" lon="11.0195302"><ele>670.6666666666666</ele><time>2026-04-25T08:47:18.599Z</time></trkpt><trkpt lat="46.3899058" lon="11.0197228"><ele>666.3333333333333</ele><time>2026-04-25T08:47:19.598Z</time></trkpt><trkpt lat="46.3898147" lon="11.0199059"><ele>662.0</ele><time>2026-04-25T08:47:20.61Z</time></trkpt><trkpt lat="46.3897385" lon="11.0200875"><ele>659.25</ele><time>2026-04-25T08:47:21.62Z</time></trkpt><trkpt lat="46.3896908" lon="11.0202685"><ele>656.5</ele><time>2026-04-25T08:47:22.59Z</time></trkpt><trkpt lat="46.389684" lon="11.0204538"><ele>653.75</ele><time>2026-04-25T08:47:23.6Z</time></trkpt><trkpt lat="46.3897153" lon="11.0206335"><ele>651.0</ele><time>2026-04-25T08:47:24.596Z</time></trkpt><trkpt lat="46.3897765" lon="11.020813"><ele>650.0</ele><time>2026-04-25T08:47:25.599Z</time></trkpt><trkpt lat="46.3898375" lon="11.02099"><ele>649.0</ele><time>2026-04-25T08:47:26.603Z</time></trkpt><trkpt lat="46.3898828" lon="11.0211652"><ele>648.0</ele><time>2026-04-25T08:47:27.58Z</time></trkpt><trkpt lat="46.3898896" lon="11.0213585"><ele>647.0</ele><time>2026-04-25T08:47:28.586Z</time></trkpt><trkpt lat="46.3898578" lon="11.0215595"><ele>648.0</ele><time>2026-04-25T08:47:29.621Z</time></trkpt><trkpt lat="46.3898053" lon="11.0217741"><ele>649.0</ele><time>2026-04-25T08:47:30.603Z</time></trkpt><trkpt lat="46.3897463" lon="11.0220027"><ele>650.0</ele><time>2026-04-25T08:47:31.612Z</time></trkpt><trkpt lat="46.3896911" lon="11.0222307"><ele>655.0</ele><time>2026-04-25T08:47:32.613Z</time></trkpt><trkpt lat="46.3896251" lon="11.0224246"><ele>660.0</ele><time>2026-04-25T08:47:33.608Z</time></trkpt><trkpt lat="46.3895374" lon="11.0225737"><ele>665.0</ele><time>2026-04-25T08:47:34.582Z</time></trkpt><trkpt lat="46.3894058" lon="11.0226929"><ele>670.0</ele><time>2026-04-25T08:47:35.589Z</time></trkpt><trkpt lat="46.3892613" lon="11.0227939"><ele>670.0</ele><time>2026-04-25T08:47:36.613Z</time></trkpt><trkpt lat="46.3891327" lon="11.0229082"><ele>670.0</ele><time>2026-04-25T08:47:37.6Z</time></trkpt><trkpt lat="46.3890324" lon="11.0230295"><ele>670.0</ele><time>2026-04-25T08:47:38.593Z</time></trkpt><trkpt lat="46.3889696" lon="11.0231859"><ele>670.0</ele><time>2026-04-25T08:47:39.603Z</time></trkpt><trkpt lat="46.3889636" lon="11.0233604"><ele>667.25</ele><time>2026-04-25T08:47:40.6Z</time></trkpt><trkpt lat="46.388964" lon="11.0235592"><ele>664.5</ele><time>2026-04-25T08:47:41.605Z</time></trkpt><trkpt lat="46.3889507" lon="11.0237544"><ele>661.75</ele><time>2026-04-25T08:47:42.583Z</time></trkpt><trkpt lat="46.3889182" lon="11.0239462"><ele>659.0</ele><time>2026-04-25T08:47:43.599Z</time></trkpt><trkpt lat="46.3888583" lon="11.0241312"><ele>665.6666666666666</ele><time>2026-04-25T08:47:44.61Z</time></trkpt><trkpt lat="46.3887827" lon="11.0243081"><ele>672.3333333333334</ele><time>2026-04-25T08:47:45.607Z</time></trkpt><trkpt lat="46.3886811" lon="11.0244859"><ele>679.0</ele><time>2026-04-25T08:47:46.639Z</time></trkpt><trkpt lat="46.388585" lon="11.0246567"><ele>679.0</ele><time>2026-04-25T08:47:47.614Z</time></trkpt><trkpt lat="46.3884857" lon="11.0248228"><ele>679.0</ele><time>2026-04-25T08:47:48.609Z</time></trkpt><trkpt lat="46.3884012" lon="11.0249886"><ele>679.0</ele><time>2026-04-25T08:47:49.621Z</time></trkpt><trkpt lat="46.3883374" lon="11.0251719"><ele>679.0</ele><time>2026-04-25T08:47:50.617Z</time></trkpt><trkpt lat="46.3883044" lon="11.0253618"><ele>676.0</ele><time>2026-04-25T08:47:51.601Z</time></trkpt><trkpt lat="46.3882786" lon="11.0255753"><ele>673.0</ele><time>2026-04-25T08:47:52.612Z</time></trkpt><trkpt lat="46.388257" lon="11.0257851"><ele>670.0</ele><time>2026-04-25T08:47:53.592Z</time></trkpt><trkpt lat="46.3882346" lon="11.0260036"><ele>667.0</ele><time>2026-04-25T08:47:54.609Z</time></trkpt><trkpt lat="46.3881857" lon="11.0262263"><ele>664.6666666666667</ele><time>2026-04-25T08:47:55.637Z</time></trkpt><trkpt lat="46.3881083" lon="11.0264207"><ele>662.3333333333334</ele><time>2026-04-25T08:47:56.605Z</time></trkpt><trkpt lat="46.3880202" lon="11.0266058"><ele>660.0</ele><time>2026-04-25T08:47:57.605Z</time></trkpt><trkpt lat="46.3879305" lon="11.0267849"><ele>667.6666666666666</ele><time>2026-04-25T08:47:58.592Z</time></trkpt><trkpt lat="46.3878645" lon="11.0269747"><ele>675.3333333333333</ele><time>2026-04-25T08:47:59.594Z</time></trkpt><trkpt lat="46.3878205" lon="11.0271851"><ele>683.0</ele><time>2026-04-25T08:48:00.592Z</time></trkpt><trkpt lat="46.3878013" lon="11.0274202"><ele>682.3333333333333</ele><time>2026-04-25T08:48:01.611Z</time></trkpt><trkpt lat="46.3877934" lon="11.0276532"><ele>681.6666666666666</ele><time>2026-04-25T08:48:02.587Z</time></trkpt><trkpt lat="46.3877802" lon="11.0278913"><ele>681.0</ele><time>2026-04-25T08:48:03.587Z</time></trkpt><trkpt lat="46.3877434" lon="11.028126"><ele>681.6666666666666</ele><time>2026-04-25T08:48:04.604Z</time></trkpt><trkpt lat="46.3876826" lon="11.0283471"><ele>682.3333333333333</ele><time>2026-04-25T08:48:05.597Z</time></trkpt><trkpt lat="46.387618" lon="11.0285711"><ele>683.0</ele><time>2026-04-25T08:48:06.606Z</time></trkpt><trkpt lat="46.387564" lon="11.0287887"><ele>683.0</ele><time>2026-04-25T08:48:07.618Z</time></trkpt><trkpt lat="46.3875246" lon="11.0289958"><ele>683.0</ele><time>2026-04-25T08:48:08.607Z</time></trkpt><trkpt lat="46.3875149" lon="11.0292062"><ele>683.0</ele><time>2026-04-25T08:48:09.614Z</time></trkpt><trkpt lat="46.3875143" lon="11.0294212"><ele>683.0</ele><time>2026-04-25T08:48:10.602Z</time></trkpt><trkpt lat="46.3875091" lon="11.0296454"><ele>680.0</ele><time>2026-04-25T08:48:11.608Z</time></trkpt><trkpt lat="46.3874979" lon="11.0298715"><ele>677.0</ele><time>2026-04-25T08:48:12.595Z</time></trkpt><trkpt lat="46.3874916" lon="11.0301056"><ele>674.0</ele><time>2026-04-25T08:48:13.609Z</time></trkpt><trkpt lat="46.3874993" lon="11.0303294"><ele>672.75</ele><time>2026-04-25T08:48:14.617Z</time></trkpt><trkpt lat="46.387518" lon="11.0305386"><ele>671.5</ele><time>2026-04-25T08:48:15.609Z</time></trkpt><trkpt lat="46.3875438" lon="11.0307251"><ele>670.25</ele><time>2026-04-25T08:48:16.606Z</time></trkpt><trkpt lat="46.3875637" lon="11.0309003"><ele>669.0</ele><time>2026-04-25T08:48:17.596Z</time></trkpt><trkpt lat="46.3875638" lon="11.0310678"><ele>668.0</ele><time>2026-04-25T08:48:18.609Z</time></trkpt><trkpt lat="46.3875321" lon="11.0312116"><ele>667.0</ele><time>2026-04-25T08:48:19.603Z</time></trkpt><trkpt lat="46.3874643" lon="11.0313508"><ele>666.0</ele><time>2026-04-25T08:48:20.601Z</time></trkpt><trkpt lat="46.3873706" lon="11.0314497"><ele>665.0</ele><time>2026-04-25T08:48:21.602Z</time></trkpt><trkpt lat="46.3872585" lon="11.0314977"><ele>668.0</ele><time>2026-04-25T08:48:22.623Z</time></trkpt><trkpt lat="46.3871305" lon="11.0314791"><ele>671.0</ele><time>2026-04-25T08:48:23.614Z</time></trkpt><trkpt lat="46.3869952" lon="11.0313918"><ele>674.0</ele><time>2026-04-25T08:48:24.609Z</time></trkpt><trkpt lat="46.3868641" lon="11.0312878"><ele>677.0</ele><time>2026-04-25T08:48:25.607Z</time></trkpt><trkpt lat="46.3867181" lon="11.0311837"><ele>677.0</ele><time>2026-04-25T08:48:26.617Z</time></trkpt><trkpt lat="46.3865678" lon="11.0311162"><ele>677.0</ele><time>2026-04-25T08:48:27.606Z</time></trkpt><trkpt lat="46.3864053" lon="11.0310847"><ele>677.0</ele><time>2026-04-25T08:48:28.609Z</time></trkpt><trkpt lat="46.3862317" lon="11.0310695"><ele>678.6666666666666</ele><time>2026-04-25T08:48:29.602Z</time></trkpt><trkpt lat="46.3860597" lon="11.0310426"><ele>680.3333333333334</ele><time>2026-04-25T08:48:30.61Z</time></trkpt><trkpt lat="46.385898" lon="11.0310219"><ele>682.0</ele><time>2026-04-25T08:48:31.622Z</time></trkpt><trkpt lat="46.3857468" lon="11.0310306"><ele>682.0</ele><time>2026-04-25T08:48:32.614Z</time></trkpt><trkpt lat="46.3856136" lon="11.0310785"><ele>682.0</ele><time>2026-04-25T08:48:33.598Z</time></trkpt><trkpt lat="46.3854951" lon="11.0311601"><ele>682.0</ele><time>2026-04-25T08:48:34.619Z</time></trkpt><trkpt lat="46.3853807" lon="11.0312637"><ele>682.0</ele><time>2026-04-25T08:48:35.618Z</time></trkpt><trkpt lat="46.3852704" lon="11.0313681"><ele>678.25</ele><time>2026-04-25T08:48:36.619Z</time></trkpt><trkpt lat="46.3851427" lon="11.0314511"><ele>674.5</ele><time>2026-04-25T08:48:37.616Z</time></trkpt><trkpt lat="46.3850148" lon="11.0315173"><ele>670.75</ele><time>2026-04-25T08:48:38.628Z</time></trkpt><trkpt lat="46.3848858" lon="11.0315781"><ele>667.0</ele><time>2026-04-25T08:48:39.612Z</time></trkpt><trkpt lat="46.3847535" lon="11.0316429"><ele>681.0</ele><time>2026-04-25T08:48:40.605Z</time></trkpt><trkpt lat="46.3846267" lon="11.0317348"><ele>695.0</ele><time>2026-04-25T08:48:41.609Z</time></trkpt><trkpt lat="46.3845005" lon="11.0318609"><ele>709.0</ele><time>2026-04-25T08:48:42.621Z</time></trkpt><trkpt lat="46.3843857" lon="11.0319953"><ele>723.0</ele><time>2026-04-25T08:48:43.604Z</time></trkpt><trkpt lat="46.3842858" lon="11.0321334"><ele>723.0</ele><time>2026-04-25T08:48:44.566Z</time></trkpt><trkpt lat="46.3842132" lon="11.0322981"><ele>723.0</ele><time>2026-04-25T08:48:45.622Z</time></trkpt><trkpt lat="46.3841678" lon="11.0324512"><ele>723.0</ele><time>2026-04-25T08:48:46.625Z</time></trkpt><trkpt lat="46.3841371" lon="11.032601"><ele>723.0</ele><time>2026-04-25T08:48:47.621Z</time></trkpt><trkpt lat="46.3841134" lon="11.0327426"><ele>716.3333333333334</ele><time>2026-04-25T08:48:48.594Z</time></trkpt><trkpt lat="46.3840982" lon="11.0328665"><ele>709.6666666666666</ele><time>2026-04-25T08:48:49.607Z</time></trkpt><trkpt lat="46.384082" lon="11.0329794"><ele>703.0</ele><time>2026-04-25T08:48:50.618Z</time></trkpt><trkpt lat="46.3840671" lon="11.0330686"><ele>696.3333333333333</ele><time>2026-04-25T08:48:51.617Z</time></trkpt><trkpt lat="46.3840441" lon="11.0332041"><ele>689.6666666666666</ele><time>2026-04-25T08:48:53.621Z</time></trkpt><trkpt lat="46.3840517" lon="11.0333234"><ele>683.0</ele><time>2026-04-25T08:50:41.6Z</time></trkpt><trkpt lat="46.3840753" lon="11.0335118"><ele>683.0</ele><time>2026-04-25T08:50:43.615Z</time></trkpt><trkpt lat="46.3840929" lon="11.0336187"><ele>683.0</ele><time>2026-04-25T08:50:44.615Z</time></trkpt><trkpt lat="46.384119" lon="11.0337349"><ele>683.0</ele><time>2026-04-25T08:50:45.593Z</time></trkpt><trkpt lat="46.3841647" lon="11.0338564"><ele>683.0</ele><time>2026-04-25T08:50:46.59Z</time></trkpt><trkpt lat="46.3842242" lon="11.0339728"><ele>683.0</ele><time>2026-04-25T08:50:47.585Z</time></trkpt><trkpt lat="46.3842828" lon="11.0340886"><ele>682.4</ele><time>2026-04-25T08:50:48.616Z</time></trkpt><trkpt lat="46.3843527" lon="11.0341992"><ele>681.8</ele><time>2026-04-25T08:50:49.614Z</time></trkpt><trkpt lat="46.3844234" lon="11.0343135"><ele>681.2</ele><time>2026-04-25T08:50:50.588Z</time></trkpt><trkpt lat="46.3844952" lon="11.0344356"><ele>680.6</ele><time>2026-04-25T08:50:51.604Z</time></trkpt><trkpt lat="46.3845649" lon="11.0345606"><ele>680.0</ele><time>2026-04-25T08:50:52.611Z</time></trkpt><trkpt lat="46.3846253" lon="11.0346886"><ele>680.0</ele><time>2026-04-25T08:50:53.61Z</time></trkpt><trkpt lat="46.3846654" lon="11.0348164"><ele>680.0</ele><time>2026-04-25T08:50:54.621Z</time></trkpt><trkpt lat="46.3846801" lon="11.0349423"><ele>680.0</ele><time>2026-04-25T08:50:55.594Z</time></trkpt><trkpt lat="46.384667" lon="11.0350729"><ele>680.0</ele><time>2026-04-25T08:50:56.623Z</time></trkpt><trkpt lat="46.3846309" lon="11.0351917"><ele>680.0</ele><time>2026-04-25T08:50:57.615Z</time></trkpt><trkpt lat="46.3845677" lon="11.0353003"><ele>679.0</ele><time>2026-04-25T08:50:58.601Z</time></trkpt><trkpt lat="46.3844869" lon="11.0354043"><ele>678.0</ele><time>2026-04-25T08:50:59.622Z</time></trkpt><trkpt lat="46.3843834" lon="11.0355001"><ele>677.0</ele><time>2026-04-25T08:51:00.609Z</time></trkpt><trkpt lat="46.3842691" lon="11.0356087"><ele>676.0</ele><time>2026-04-25T08:51:01.611Z</time></trkpt><trkpt lat="46.3841498" lon="11.0357354"><ele>673.5</ele><time>2026-04-25T08:51:02.619Z</time></trkpt><trkpt lat="46.3840271" lon="11.0358564"><ele>671.0</ele><time>2026-04-25T08:51:03.6Z</time></trkpt><trkpt lat="46.3839107" lon="11.0359659"><ele>668.5</ele><time>2026-04-25T08:51:04.606Z</time></trkpt><trkpt lat="46.3837851" lon="11.0360745"><ele>666.0</ele><time>2026-04-25T08:51:05.626Z</time></trkpt><trkpt lat="46.3836586" lon="11.0361506"><ele>666.0</ele><time>2026-04-25T08:51:06.611Z</time></trkpt><trkpt lat="46.3835278" lon="11.0361847"><ele>666.0</ele><time>2026-04-25T08:51:07.602Z</time></trkpt><trkpt lat="46.3833885" lon="11.0361711"><ele>666.0</ele><time>2026-04-25T08:51:08.618Z</time></trkpt><trkpt lat="46.3832484" lon="11.0361389"><ele>666.0</ele><time>2026-04-25T08:51:09.618Z</time></trkpt><trkpt lat="46.3831058" lon="11.0360992"><ele>669.0</ele><time>2026-04-25T08:51:10.635Z</time></trkpt><trkpt lat="46.3829711" lon="11.0360869"><ele>672.0</ele><time>2026-04-25T08:51:11.605Z</time></trkpt><trkpt lat="46.3828314" lon="11.0360976"><ele>675.0</ele><time>2026-04-25T08:51:12.606Z</time></trkpt><trkpt lat="46.3827054" lon="11.0361428"><ele>678.0</ele><time>2026-04-25T08:51:13.608Z</time></trkpt><trkpt lat="46.3825826" lon="11.036211"><ele>678.0</ele><time>2026-04-25T08:51:14.616Z</time></trkpt><trkpt lat="46.3824568" lon="11.0362803"><ele>678.0</ele><time>2026-04-25T08:51:15.622Z</time></trkpt><trkpt lat="46.3823256" lon="11.0363135"><ele>678.0</ele><time>2026-04-25T08:51:16.617Z</time></trkpt><trkpt lat="46.3821934" lon="11.0363144"><ele>678.0</ele><time>2026-04-25T08:51:17.598Z</time></trkpt><trkpt lat="46.3820462" lon="11.0362781"><ele>677.3333333333334</ele><time>2026-04-25T08:51:18.624Z</time></trkpt><trkpt lat="46.3818943" lon="11.0362073"><ele>676.6666666666667</ele><time>2026-04-25T08:51:19.609Z</time></trkpt><trkpt lat="46.3817344" lon="11.0361225"><ele>676.0</ele><time>2026-04-25T08:51:20.601Z</time></trkpt><trkpt lat="46.3815743" lon="11.0360512"><ele>676.0</ele><time>2026-04-25T08:51:21.642Z</time></trkpt><trkpt lat="46.3814274" lon="11.035992"><ele>676.0</ele><time>2026-04-25T08:51:22.627Z</time></trkpt><trkpt lat="46.3812754" lon="11.0359484"><ele>676.0</ele><time>2026-04-25T08:51:23.625Z</time></trkpt><trkpt lat="46.3811171" lon="11.0359078"><ele>671.0</ele><time>2026-04-25T08:51:24.613Z</time></trkpt><trkpt lat="46.3809536" lon="11.0358635"><ele>666.0</ele><time>2026-04-25T08:51:25.612Z</time></trkpt><trkpt lat="46.3807795" lon="11.0358269"><ele>661.0</ele><time>2026-04-25T08:51:26.618Z</time></trkpt><trkpt lat="46.3806006" lon="11.0357979"><ele>669.3333333333334</ele><time>2026-04-25T08:51:27.613Z</time></trkpt><trkpt lat="46.3804212" lon="11.0357746"><ele>677.6666666666666</ele><time>2026-04-25T08:51:28.617Z</time></trkpt><trkpt lat="46.3802345" lon="11.0357467"><ele>686.0</ele><time>2026-04-25T08:51:29.612Z</time></trkpt><trkpt lat="46.3800424" lon="11.0356963"><ele>686.0</ele><time>2026-04-25T08:51:30.603Z</time></trkpt><trkpt lat="46.3798307" lon="11.0356218"><ele>686.0</ele><time>2026-04-25T08:51:31.634Z</time></trkpt><trkpt lat="46.379628" lon="11.0355537"><ele>686.0</ele><time>2026-04-25T08:51:32.597Z</time></trkpt><trkpt lat="46.3794242" lon="11.0355103"><ele>684.0</ele><time>2026-04-25T08:51:33.596Z</time></trkpt><trkpt lat="46.3792201" lon="11.0354804"><ele>682.0</ele><time>2026-04-25T08:51:34.612Z</time></trkpt><trkpt lat="46.3790241" lon="11.0354409"><ele>680.0</ele><time>2026-04-25T08:51:35.632Z</time></trkpt><trkpt lat="46.3788456" lon="11.0353867"><ele>672.0</ele><time>2026-04-25T08:51:36.611Z</time></trkpt><trkpt lat="46.3785968" lon="11.0352729"><ele>664.0</ele><time>2026-04-25T08:51:37.984Z</time></trkpt><trkpt lat="46.3783293" lon="11.0350676"><ele>667.3333333333334</ele><time>2026-04-25T08:51:39.685Z</time></trkpt><trkpt lat="46.3781634" lon="11.0349567"><ele>670.6666666666666</ele><time>2026-04-25T08:51:40.676Z</time></trkpt><trkpt lat="46.3779936" lon="11.0348575"><ele>674.0</ele><time>2026-04-25T08:51:41.667Z</time></trkpt><trkpt lat="46.3778207" lon="11.0347734"><ele>674.0</ele><time>2026-04-25T08:51:42.641Z</time></trkpt><trkpt lat="46.3776324" lon="11.0346962"><ele>674.0</ele><time>2026-04-25T08:51:43.683Z</time></trkpt><trkpt lat="46.3774518" lon="11.0346276"><ele>674.0</ele><time>2026-04-25T08:51:44.672Z</time></trkpt><trkpt lat="46.3772723" lon="11.0345586"><ele>672.3333333333333</ele><time>2026-04-25T08:51:45.681Z</time></trkpt><trkpt lat="46.3770968" lon="11.0344935"><ele>670.6666666666666</ele><time>2026-04-25T08:51:46.658Z</time></trkpt><trkpt lat="46.3769088" lon="11.0344278"><ele>669.0</ele><time>2026-04-25T08:51:47.675Z</time></trkpt><trkpt lat="46.3767225" lon="11.0343568"><ele>669.0</ele><time>2026-04-25T08:51:48.669Z</time></trkpt><trkpt lat="46.376529" lon="11.0342826"><ele>669.0</ele><time>2026-04-25T08:51:49.693Z</time></trkpt><trkpt lat="46.3763463" lon="11.0342264"><ele>669.0</ele><time>2026-04-25T08:51:50.67Z</time></trkpt><trkpt lat="46.376168" lon="11.0341907"><ele>672.0</ele><time>2026-04-25T08:51:51.677Z</time></trkpt><trkpt lat="46.3760005" lon="11.0341674"><ele>675.0</ele><time>2026-04-25T08:51:52.668Z</time></trkpt><trkpt lat="46.3758323" lon="11.0341504"><ele>678.0</ele><time>2026-04-25T08:51:53.653Z</time></trkpt><trkpt lat="46.3756597" lon="11.0341295"><ele>675.3333333333334</ele><time>2026-04-25T08:51:54.668Z</time></trkpt><trkpt lat="46.3754993" lon="11.0340999"><ele>672.6666666666667</ele><time>2026-04-25T08:51:55.62Z</time></trkpt><trkpt lat="46.375332" lon="11.0340576"><ele>670.0</ele><time>2026-04-25T08:51:56.61Z</time></trkpt><trkpt lat="46.3751664" lon="11.0340062"><ele>670.0</ele><time>2026-04-25T08:51:57.596Z</time></trkpt><trkpt lat="46.3749975" lon="11.0339584"><ele>670.0</ele><time>2026-04-25T08:51:58.588Z</time></trkpt><trkpt lat="46.3748257" lon="11.0339162"><ele>670.0</ele><time>2026-04-25T08:51:59.622Z</time></trkpt><trkpt lat="46.3746659" lon="11.0338814"><ele>669.25</ele><time>2026-04-25T08:52:00.619Z</time></trkpt><trkpt lat="46.3745144" lon="11.0338372"><ele>668.5</ele><time>2026-04-25T08:52:01.638Z</time></trkpt><trkpt lat="46.3743795" lon="11.0337883"><ele>667.75</ele><time>2026-04-25T08:52:02.619Z</time></trkpt><trkpt lat="46.3742565" lon="11.0337381"><ele>667.0</ele><time>2026-04-25T08:52:03.575Z</time></trkpt><trkpt lat="46.374091" lon="11.0336516"><ele>667.0</ele><time>2026-04-25T08:52:04.891Z</time></trkpt><trkpt lat="46.3739035" lon="11.0334753"><ele>667.0</ele><time>2026-04-25T08:52:06.647Z</time></trkpt><trkpt lat="46.3737994" lon="11.0333588"><ele>667.0</ele><time>2026-04-25T08:52:07.649Z</time></trkpt><trkpt lat="46.3736988" lon="11.0332448"><ele>668.75</ele><time>2026-04-25T08:52:08.625Z</time></trkpt><trkpt lat="46.3736001" lon="11.0331398"><ele>670.5</ele><time>2026-04-25T08:52:09.637Z</time></trkpt><trkpt lat="46.3735015" lon="11.0330459"><ele>672.25</ele><time>2026-04-25T08:52:10.673Z</time></trkpt><trkpt lat="46.3734026" lon="11.0329758"><ele>674.0</ele><time>2026-04-25T08:52:11.686Z</time></trkpt><trkpt lat="46.3732956" lon="11.0329423"><ele>674.0</ele><time>2026-04-25T08:52:12.673Z</time></trkpt><trkpt lat="46.3731855" lon="11.0329484"><ele>674.0</ele><time>2026-04-25T08:52:13.647Z</time></trkpt><trkpt lat="46.3730573" lon="11.0329709"><ele>674.0</ele><time>2026-04-25T08:52:14.674Z</time></trkpt><trkpt lat="46.3729147" lon="11.0329858"><ele>674.0</ele><time>2026-04-25T08:52:15.68Z</time></trkpt><trkpt lat="46.3727781" lon="11.0329991"><ele>673.5</ele><time>2026-04-25T08:52:16.664Z</time></trkpt><trkpt lat="46.3726391" lon="11.0330172"><ele>673.0</ele><time>2026-04-25T08:52:17.692Z</time></trkpt><trkpt lat="46.3725106" lon="11.0330359"><ele>672.5</ele><time>2026-04-25T08:52:18.668Z</time></trkpt><trkpt lat="46.3723831" lon="11.0330505"><ele>672.0</ele><time>2026-04-25T08:52:19.66Z</time></trkpt><trkpt lat="46.372254" lon="11.0330577"><ele>670.75</ele><time>2026-04-25T08:52:20.687Z</time></trkpt><trkpt lat="46.3721352" lon="11.0330534"><ele>669.5</ele><time>2026-04-25T08:52:21.655Z</time></trkpt><trkpt lat="46.3720146" lon="11.0330434"><ele>668.25</ele><time>2026-04-25T08:52:22.668Z</time></trkpt><trkpt lat="46.371894" lon="11.0330322"><ele>667.0</ele><time>2026-04-25T08:52:23.692Z</time></trkpt><trkpt lat="46.3717728" lon="11.0330198"><ele>667.0</ele><time>2026-04-25T08:52:24.662Z</time></trkpt><trkpt lat="46.3716363" lon="11.0330002"><ele>667.0</ele><time>2026-04-25T08:52:25.683Z</time></trkpt><trkpt lat="46.3714992" lon="11.0329712"><ele>667.0</ele><time>2026-04-25T08:52:26.655Z</time></trkpt><trkpt lat="46.3713462" lon="11.0329353"><ele>667.0</ele><time>2026-04-25T08:52:27.678Z</time></trkpt><trkpt lat="46.3712022" lon="11.0329034"><ele>663.5</ele><time>2026-04-25T08:52:28.674Z</time></trkpt><trkpt lat="46.3710592" lon="11.0328766"><ele>660.0</ele><time>2026-04-25T08:52:29.678Z</time></trkpt><trkpt lat="46.370925" lon="11.032853"><ele>656.5</ele><time>2026-04-25T08:52:30.648Z</time></trkpt><trkpt lat="46.3707876" lon="11.0328339"><ele>653.0</ele><time>2026-04-25T08:52:31.654Z</time></trkpt><trkpt lat="46.3706488" lon="11.0328297"><ele>655.25</ele><time>2026-04-25T08:52:32.672Z</time></trkpt><trkpt lat="46.3705105" lon="11.0328446"><ele>657.5</ele><time>2026-04-25T08:52:33.67Z</time></trkpt><trkpt lat="46.370376" lon="11.0328855"><ele>659.75</ele><time>2026-04-25T08:52:34.648Z</time></trkpt><trkpt lat="46.3702402" lon="11.0329576"><ele>662.0</ele><time>2026-04-25T08:52:35.654Z</time></trkpt><trkpt lat="46.3701156" lon="11.0330546"><ele>662.0</ele><time>2026-04-25T08:52:36.654Z</time></trkpt><trkpt lat="46.3700011" lon="11.033173"><ele>662.0</ele><time>2026-04-25T08:52:37.675Z</time></trkpt><trkpt lat="46.3699008" lon="11.0332903"><ele>662.0</ele><time>2026-04-25T08:52:38.647Z</time></trkpt><trkpt lat="46.3697992" lon="11.0334145"><ele>662.0</ele><time>2026-04-25T08:52:39.677Z</time></trkpt><trkpt lat="46.3697052" lon="11.0335308"><ele>659.5</ele><time>2026-04-25T08:52:40.669Z</time></trkpt><trkpt lat="46.3696139" lon="11.0336443"><ele>657.0</ele><time>2026-04-25T08:52:41.655Z</time></trkpt><trkpt lat="46.3695207" lon="11.0337579"><ele>654.5</ele><time>2026-04-25T08:52:42.672Z</time></trkpt><trkpt lat="46.3694282" lon="11.0338683"><ele>652.0</ele><time>2026-04-25T08:52:43.668Z</time></trkpt><trkpt lat="46.3693354" lon="11.0339795"><ele>652.0</ele><time>2026-04-25T08:52:44.649Z</time></trkpt><trkpt lat="46.3692367" lon="11.0340975"><ele>652.0</ele><time>2026-04-25T08:52:45.668Z</time></trkpt><trkpt lat="46.3691381" lon="11.0342147"><ele>652.0</ele><time>2026-04-25T08:52:46.666Z</time></trkpt><trkpt lat="46.3690347" lon="11.0343275"><ele>652.0</ele><time>2026-04-25T08:52:47.671Z</time></trkpt><trkpt lat="46.3689287" lon="11.0344322"><ele>651.0</ele><time>2026-04-25T08:52:48.674Z</time></trkpt><trkpt lat="46.3688258" lon="11.0345265"><ele>650.0</ele><time>2026-04-25T08:52:49.664Z</time></trkpt><trkpt lat="46.3687288" lon="11.0346132"><ele>649.0</ele><time>2026-04-25T08:52:50.669Z</time></trkpt><trkpt lat="46.3686414" lon="11.0346881"><ele>648.0</ele><time>2026-04-25T08:52:51.675Z</time></trkpt><trkpt lat="46.3685595" lon="11.0347541"><ele>647.0</ele><time>2026-04-25T08:52:52.654Z</time></trkpt><trkpt lat="46.3684792" lon="11.0348143"><ele>647.0</ele><time>2026-04-25T08:52:53.651Z</time></trkpt><trkpt lat="46.3683975" lon="11.0348727"><ele>647.0</ele><time>2026-04-25T08:52:54.671Z</time></trkpt><trkpt lat="46.368315" lon="11.0349272"><ele>647.0</ele><time>2026-04-25T08:52:55.649Z</time></trkpt><trkpt lat="46.3682241" lon="11.0349818"><ele>647.0</ele><time>2026-04-25T08:52:56.672Z</time></trkpt><trkpt lat="46.3681321" lon="11.0350301"><ele>647.0</ele><time>2026-04-25T08:52:57.676Z</time></trkpt><trkpt lat="46.3680388" lon="11.035072"><ele>648.2</ele><time>2026-04-25T08:52:58.649Z</time></trkpt><trkpt lat="46.3679338" lon="11.0351139"><ele>649.4000000000001</ele><time>2026-04-25T08:52:59.682Z</time></trkpt><trkpt lat="46.3678266" lon="11.0351555"><ele>650.5999999999999</ele><time>2026-04-25T08:53:00.671Z</time></trkpt><trkpt lat="46.3677109" lon="11.0352077"><ele>651.8</ele><time>2026-04-25T08:53:01.707Z</time></trkpt><trkpt lat="46.3676106" lon="11.0352543"><ele>653.0</ele><time>2026-04-25T08:53:02.662Z</time></trkpt><trkpt lat="46.3675137" lon="11.0353002"><ele>653.0</ele><time>2026-04-25T08:53:03.658Z</time></trkpt><trkpt lat="46.3674152" lon="11.0353514"><ele>653.0</ele><time>2026-04-25T08:53:04.675Z</time></trkpt><trkpt lat="46.367315" lon="11.0354084"><ele>653.0</ele><time>2026-04-25T08:53:05.66Z</time></trkpt><trkpt lat="46.3672088" lon="11.0354672"><ele>653.0</ele><time>2026-04-25T08:53:06.648Z</time></trkpt><trkpt lat="46.3670926" lon="11.0355257"><ele>653.0</ele><time>2026-04-25T08:53:07.671Z</time></trkpt><trkpt lat="46.3669836" lon="11.0355755"><ele>653.8</ele><time>2026-04-25T08:53:08.683Z</time></trkpt><trkpt lat="46.366886" lon="11.035609"><ele>654.5999999999999</ele><time>2026-04-25T08:53:09.676Z</time></trkpt><trkpt lat="46.3667969" lon="11.035623"><ele>655.4000000000001</ele><time>2026-04-25T08:53:10.658Z</time></trkpt><trkpt lat="46.3667049" lon="11.0356324"><ele>656.2</ele><time>2026-04-25T08:53:11.666Z</time></trkpt><trkpt lat="46.3666076" lon="11.0356415"><ele>657.0</ele><time>2026-04-25T08:53:12.665Z</time></trkpt><trkpt lat="46.3665055" lon="11.0356546"><ele>657.0</ele><time>2026-04-25T08:53:13.641Z</time></trkpt><trkpt lat="46.3664061" lon="11.0356674"><ele>657.0</ele><time>2026-04-25T08:53:14.67Z</time></trkpt><trkpt lat="46.3663095" lon="11.0356791"><ele>657.0</ele><time>2026-04-25T08:53:15.649Z</time></trkpt><trkpt lat="46.3662069" lon="11.0356923"><ele>657.0</ele><time>2026-04-25T08:53:16.688Z</time></trkpt><trkpt lat="46.3661097" lon="11.0357071"><ele>657.0</ele><time>2026-04-25T08:53:17.679Z</time></trkpt><trkpt lat="46.3660134" lon="11.0357245"><ele>657.2</ele><time>2026-04-25T08:53:18.663Z</time></trkpt><trkpt lat="46.3659245" lon="11.0357461"><ele>657.4000000000001</ele><time>2026-04-25T08:53:19.671Z</time></trkpt><trkpt lat="46.3658418" lon="11.0357741"><ele>657.5999999999999</ele><time>2026-04-25T08:53:20.661Z</time></trkpt><trkpt lat="46.3657551" lon="11.0358097"><ele>657.8</ele><time>2026-04-25T08:53:21.666Z</time></trkpt><trkpt lat="46.3656629" lon="11.035849"><ele>658.0</ele><time>2026-04-25T08:53:22.688Z</time></trkpt><trkpt lat="46.3655648" lon="11.0358773"><ele>658.0</ele><time>2026-04-25T08:53:23.68Z</time></trkpt><trkpt lat="46.3654629" lon="11.0358921"><ele>658.0</ele><time>2026-04-25T08:53:24.661Z</time></trkpt><trkpt lat="46.3653631" lon="11.0358903"><ele>658.0</ele><time>2026-04-25T08:53:25.677Z</time></trkpt><trkpt lat="46.3652747" lon="11.0358784"><ele>658.0</ele><time>2026-04-25T08:53:26.647Z</time></trkpt><trkpt lat="46.3651932" lon="11.0358603"><ele>658.0</ele><time>2026-04-25T08:53:27.663Z</time></trkpt><trkpt lat="46.3651264" lon="11.0358445"><ele>658.0</ele><time>2026-04-25T08:53:28.666Z</time></trkpt><trkpt lat="46.3650509" lon="11.0358225"><ele>658.0</ele><time>2026-04-25T08:53:30.688Z</time></trkpt><trkpt lat="46.3649642" lon="11.0357708"><ele>658.0</ele><time>2026-04-25T08:53:33.633Z</time></trkpt><trkpt lat="46.3648881" lon="11.0356797"><ele>658.0</ele><time>2026-04-25T08:53:35.667Z</time></trkpt><trkpt lat="46.3648381" lon="11.0355697"><ele>658.0</ele><time>2026-04-25T08:53:37.679Z</time></trkpt><trkpt lat="46.3647948" lon="11.0354468"><ele>658.0</ele><time>2026-04-25T08:53:39.676Z</time></trkpt><trkpt lat="46.3647217" lon="11.0352957"><ele>657.5</ele><time>2026-04-25T08:53:41.688Z</time></trkpt><trkpt lat="46.3646797" lon="11.0352194"><ele>657.0</ele><time>2026-04-25T08:53:42.647Z</time></trkpt><trkpt lat="46.3646334" lon="11.0351248"><ele>656.5</ele><time>2026-04-25T08:53:44.691Z</time></trkpt><trkpt lat="46.3645974" lon="11.0350458"><ele>656.0</ele><time>2026-04-25T08:53:55.68Z</time></trkpt><trkpt lat="46.3645556" lon="11.0349733"><ele>655.5</ele><time>2026-04-25T08:53:57.634Z</time></trkpt><trkpt lat="46.3644805" lon="11.0348414"><ele>655.0</ele><time>2026-04-25T08:53:59.688Z</time></trkpt><trkpt lat="46.3644385" lon="11.0347698"><ele>655.0</ele><time>2026-04-25T08:54:00.659Z</time></trkpt><trkpt lat="46.3643948" lon="11.0346963"><ele>655.0</ele><time>2026-04-25T08:54:01.69Z</time></trkpt><trkpt lat="46.364311" lon="11.0345677"><ele>655.0</ele><time>2026-04-25T08:54:03.651Z</time></trkpt><trkpt lat="46.3642641" lon="11.0344928"><ele>655.0</ele><time>2026-04-25T08:54:04.67Z</time></trkpt><trkpt lat="46.364215" lon="11.0344152"><ele>655.0</ele><time>2026-04-25T08:54:05.667Z</time></trkpt><trkpt lat="46.3641616" lon="11.034328"><ele>655.0</ele><time>2026-04-25T08:54:06.698Z</time></trkpt><trkpt lat="46.3641083" lon="11.0342438"><ele>655.0</ele><time>2026-04-25T08:54:07.677Z</time></trkpt><trkpt lat="46.3640614" lon="11.0341731"><ele>655.0</ele><time>2026-04-25T08:54:08.665Z</time></trkpt><trkpt lat="46.3639984" lon="11.0340712"><ele>655.0</ele><time>2026-04-25T08:54:10.669Z</time></trkpt><trkpt lat="46.3639497" lon="11.0340063"><ele>655.0</ele><time>2026-04-25T08:54:12.661Z</time></trkpt><trkpt lat="46.3638853" lon="11.033941"><ele>655.0</ele><time>2026-04-25T08:54:15.661Z</time></trkpt><trkpt lat="46.3638278" lon="11.0338945"><ele>655.0</ele><time>2026-04-25T08:54:17.675Z</time></trkpt><trkpt lat="46.3637578" lon="11.0338325"><ele>656.0</ele><time>2026-04-25T08:54:19.674Z</time></trkpt><trkpt lat="46.3636705" lon="11.0337554"><ele>657.0</ele><time>2026-04-25T08:54:21.666Z</time></trkpt><trkpt lat="46.3635693" lon="11.0336645"><ele>658.0</ele><time>2026-04-25T08:54:23.653Z</time></trkpt><trkpt lat="46.3635089" lon="11.0336121"><ele>659.0</ele><time>2026-04-25T08:54:24.671Z</time></trkpt><trkpt lat="46.3634476" lon="11.0335583"><ele>660.0</ele><time>2026-04-25T08:54:25.673Z</time></trkpt><trkpt lat="46.3633847" lon="11.0335021"><ele>661.0</ele><time>2026-04-25T08:54:26.673Z</time></trkpt><trkpt lat="46.3633186" lon="11.0334429"><ele>661.0</ele><time>2026-04-25T08:54:27.668Z</time></trkpt><trkpt lat="46.3632467" lon="11.0333813"><ele>661.0</ele><time>2026-04-25T08:54:28.676Z</time></trkpt><trkpt lat="46.3631687" lon="11.0333189"><ele>661.0</ele><time>2026-04-25T08:54:29.68Z</time></trkpt><trkpt lat="46.3630986" lon="11.0332511"><ele>661.0</ele><time>2026-04-25T08:54:30.658Z</time></trkpt><trkpt lat="46.3630276" lon="11.0331793"><ele>661.0</ele><time>2026-04-25T08:54:31.665Z</time></trkpt><trkpt lat="46.3629494" lon="11.0331083"><ele>661.0</ele><time>2026-04-25T08:54:32.667Z</time></trkpt><trkpt lat="46.3628616" lon="11.0330354"><ele>660.5999999999999</ele><time>2026-04-25T08:54:33.678Z</time></trkpt><trkpt lat="46.3627744" lon="11.0329605"><ele>660.2</ele><time>2026-04-25T08:54:34.687Z</time></trkpt><trkpt lat="46.3626873" lon="11.0328824"><ele>659.8</ele><time>2026-04-25T08:54:35.642Z</time></trkpt><trkpt lat="46.3625904" lon="11.0327923"><ele>659.4000000000001</ele><time>2026-04-25T08:54:36.673Z</time></trkpt><trkpt lat="46.362491" lon="11.0327074"><ele>659.0</ele><time>2026-04-25T08:54:37.686Z</time></trkpt><trkpt lat="46.3623934" lon="11.0326234"><ele>659.0</ele><time>2026-04-25T08:54:38.675Z</time></trkpt><trkpt lat="46.362295" lon="11.0325354"><ele>659.0</ele><time>2026-04-25T08:54:39.667Z</time></trkpt><trkpt lat="46.3621965" lon="11.0324419"><ele>659.0</ele><time>2026-04-25T08:54:40.664Z</time></trkpt><trkpt lat="46.3620946" lon="11.0323434"><ele>659.0</ele><time>2026-04-25T08:54:41.687Z</time></trkpt><trkpt lat="46.3619918" lon="11.032251"><ele>659.0</ele><time>2026-04-25T08:54:42.687Z</time></trkpt><trkpt lat="46.36189" lon="11.0321627"><ele>659.0</ele><time>2026-04-25T08:54:43.654Z</time></trkpt><trkpt lat="46.3617836" lon="11.0320758"><ele>659.0</ele><time>2026-04-25T08:54:44.639Z</time></trkpt><trkpt lat="46.3616653" lon="11.031992"><ele>659.0</ele><time>2026-04-25T08:54:45.695Z</time></trkpt><trkpt lat="46.3615501" lon="11.0319197"><ele>659.0</ele><time>2026-04-25T08:54:46.69Z</time></trkpt><trkpt lat="46.361437" lon="11.0318569"><ele>659.0</ele><time>2026-04-25T08:54:47.646Z</time></trkpt><trkpt lat="46.3613206" lon="11.031795"><ele>659.0</ele><time>2026-04-25T08:54:48.656Z</time></trkpt><trkpt lat="46.3612083" lon="11.0317406"><ele>659.0</ele><time>2026-04-25T08:54:49.673Z</time></trkpt><trkpt lat="46.3610931" lon="11.0316893"><ele>659.5</ele><time>2026-04-25T08:54:50.665Z</time></trkpt><trkpt lat="46.3609683" lon="11.0316279"><ele>660.0</ele><time>2026-04-25T08:54:51.687Z</time></trkpt><trkpt lat="46.3608536" lon="11.0315667"><ele>660.5</ele><time>2026-04-25T08:54:52.651Z</time></trkpt><trkpt lat="46.360739" lon="11.0315073"><ele>661.0</ele><time>2026-04-25T08:54:53.675Z</time></trkpt><trkpt lat="46.3606306" lon="11.0314531"><ele>661.0</ele><time>2026-04-25T08:54:54.699Z</time></trkpt><trkpt lat="46.3605344" lon="11.031405"><ele>661.0</ele><time>2026-04-25T08:54:55.637Z</time></trkpt><trkpt lat="46.3604281" lon="11.0313517"><ele>661.0</ele><time>2026-04-25T08:54:56.681Z</time></trkpt><trkpt lat="46.3603206" lon="11.0312972"><ele>661.0</ele><time>2026-04-25T08:54:57.67Z</time></trkpt><trkpt lat="46.3602052" lon="11.031236"><ele>660.0</ele><time>2026-04-25T08:54:58.687Z</time></trkpt><trkpt lat="46.3600911" lon="11.0311771"><ele>659.0</ele><time>2026-04-25T08:54:59.645Z</time></trkpt><trkpt lat="46.3599645" lon="11.0311129"><ele>658.0</ele><time>2026-04-25T08:55:00.662Z</time></trkpt><trkpt lat="46.3598356" lon="11.0310466"><ele>657.0</ele><time>2026-04-25T08:55:01.673Z</time></trkpt><trkpt lat="46.3597094" lon="11.0309799"><ele>657.0</ele><time>2026-04-25T08:55:02.651Z</time></trkpt><trkpt lat="46.3595768" lon="11.0309118"><ele>657.0</ele><time>2026-04-25T08:55:03.664Z</time></trkpt><trkpt lat="46.3594425" lon="11.0308475"><ele>657.0</ele><time>2026-04-25T08:55:04.672Z</time></trkpt><trkpt lat="46.3593105" lon="11.0307867"><ele>657.0</ele><time>2026-04-25T08:55:05.656Z</time></trkpt><trkpt lat="46.359174" lon="11.0307205"><ele>658.25</ele><time>2026-04-25T08:55:06.668Z</time></trkpt><trkpt lat="46.3590392" lon="11.0306487"><ele>659.5</ele><time>2026-04-25T08:55:07.677Z</time></trkpt><trkpt lat="46.3589056" lon="11.0305771"><ele>660.75</ele><time>2026-04-25T08:55:08.679Z</time></trkpt><trkpt lat="46.3587732" lon="11.0305088"><ele>662.0</ele><time>2026-04-25T08:55:09.674Z</time></trkpt><trkpt lat="46.3586408" lon="11.0304387"><ele>662.0</ele><time>2026-04-25T08:55:10.678Z</time></trkpt><trkpt lat="46.3585077" lon="11.0303727"><ele>662.0</ele><time>2026-04-25T08:55:11.691Z</time></trkpt><trkpt lat="46.3583786" lon="11.0303139"><ele>662.0</ele><time>2026-04-25T08:55:12.665Z</time></trkpt><trkpt lat="46.3582501" lon="11.0302474"><ele>662.0</ele><time>2026-04-25T08:55:13.646Z</time></trkpt><trkpt lat="46.3581137" lon="11.0301755"><ele>662.25</ele><time>2026-04-25T08:55:14.659Z</time></trkpt><trkpt lat="46.3579771" lon="11.0300989"><ele>662.5</ele><time>2026-04-25T08:55:15.666Z</time></trkpt><trkpt lat="46.3578442" lon="11.0300171"><ele>662.75</ele><time>2026-04-25T08:55:16.661Z</time></trkpt><trkpt lat="46.357708" lon="11.0299268"><ele>663.0</ele><time>2026-04-25T08:55:17.676Z</time></trkpt><trkpt lat="46.3575787" lon="11.0298326"><ele>663.0</ele><time>2026-04-25T08:55:18.652Z</time></trkpt><trkpt lat="46.3574504" lon="11.0297274"><ele>663.0</ele><time>2026-04-25T08:55:19.652Z</time></trkpt><trkpt lat="46.3573233" lon="11.0296138"><ele>663.0</ele><time>2026-04-25T08:55:20.666Z</time></trkpt><trkpt lat="46.3571992" lon="11.0294937"><ele>663.0</ele><time>2026-04-25T08:55:21.674Z</time></trkpt><trkpt lat="46.3570785" lon="11.0293704"><ele>662.5</ele><time>2026-04-25T08:55:22.654Z</time></trkpt><trkpt lat="46.3569604" lon="11.0292455"><ele>662.0</ele><time>2026-04-25T08:55:23.656Z</time></trkpt><trkpt lat="46.3568495" lon="11.029126"><ele>661.5</ele><time>2026-04-25T08:55:24.668Z</time></trkpt><trkpt lat="46.3567479" lon="11.029015"><ele>661.0</ele><time>2026-04-25T08:55:25.67Z</time></trkpt><trkpt lat="46.3566527" lon="11.0289082"><ele>661.0</ele><time>2026-04-25T08:55:26.674Z</time></trkpt><trkpt lat="46.3565655" lon="11.0288131"><ele>661.0</ele><time>2026-04-25T08:55:27.666Z</time></trkpt><trkpt lat="46.3564852" lon="11.0287303"><ele>661.0</ele><time>2026-04-25T08:55:28.65Z</time></trkpt><trkpt lat="46.3564104" lon="11.0286485"><ele>661.0</ele><time>2026-04-25T08:55:29.666Z</time></trkpt><trkpt lat="46.3563552" lon="11.0285579"><ele>661.0</ele><time>2026-04-25T08:55:30.664Z</time></trkpt><trkpt lat="46.3563168" lon="11.0284553"><ele>661.1666666666667</ele><time>2026-04-25T08:55:31.666Z</time></trkpt><trkpt lat="46.3562752" lon="11.0283627"><ele>661.3333333333334</ele><time>2026-04-25T08:55:32.646Z</time></trkpt><trkpt lat="46.3562183" lon="11.0282906"><ele>661.5</ele><time>2026-04-25T08:55:33.633Z</time></trkpt><trkpt lat="46.3561388" lon="11.0282507"><ele>661.6666666666666</ele><time>2026-04-25T08:55:34.697Z</time></trkpt><trkpt lat="46.3560549" lon="11.0282165"><ele>661.8333333333333</ele><time>2026-04-25T08:55:35.664Z</time></trkpt><trkpt lat="46.3559628" lon="11.0281429"><ele>662.0</ele><time>2026-04-25T08:55:36.669Z</time></trkpt><trkpt lat="46.3558646" lon="11.0280423"><ele>662.25</ele><time>2026-04-25T08:55:37.676Z</time></trkpt><trkpt lat="46.3557592" lon="11.0279312"><ele>662.5</ele><time>2026-04-25T08:55:38.656Z</time></trkpt><trkpt lat="46.3556468" lon="11.0278088"><ele>662.75</ele><time>2026-04-25T08:55:39.666Z</time></trkpt><trkpt lat="46.3555452" lon="11.0276976"><ele>663.0</ele><time>2026-04-25T08:55:40.659Z</time></trkpt><trkpt lat="46.355444" lon="11.0275994"><ele>663.25</ele><time>2026-04-25T08:55:41.657Z</time></trkpt><trkpt lat="46.355335" lon="11.0275106"><ele>663.5</ele><time>2026-04-25T08:55:42.661Z</time></trkpt><trkpt lat="46.3552178" lon="11.0274335"><ele>663.75</ele><time>2026-04-25T08:55:43.652Z</time></trkpt><trkpt lat="46.3550892" lon="11.0273712"><ele>664.0</ele><time>2026-04-25T08:55:44.646Z</time></trkpt><trkpt lat="46.3549525" lon="11.0273244"><ele>664.0</ele><time>2026-04-25T08:55:45.665Z</time></trkpt><trkpt lat="46.3548069" lon="11.0272923"><ele>664.0</ele><time>2026-04-25T08:55:46.686Z</time></trkpt><trkpt lat="46.3546614" lon="11.027275"><ele>664.0</ele><time>2026-04-25T08:55:47.661Z</time></trkpt><trkpt lat="46.3545043" lon="11.0272673"><ele>664.75</ele><time>2026-04-25T08:55:48.675Z</time></trkpt><trkpt lat="46.3543558" lon="11.0272618"><ele>665.5</ele><time>2026-04-25T08:55:49.667Z</time></trkpt><trkpt lat="46.3542142" lon="11.0272536"><ele>666.25</ele><time>2026-04-25T08:55:50.665Z</time></trkpt><trkpt lat="46.354074" lon="11.0272466"><ele>667.0</ele><time>2026-04-25T08:55:51.679Z</time></trkpt><trkpt lat="46.3539339" lon="11.0272406"><ele>667.5</ele><time>2026-04-25T08:55:52.689Z</time></trkpt><trkpt lat="46.3537937" lon="11.0272356"><ele>668.0</ele><time>2026-04-25T08:55:53.674Z</time></trkpt><trkpt lat="46.3536464" lon="11.0272302"><ele>668.5</ele><time>2026-04-25T08:55:54.68Z</time></trkpt><trkpt lat="46.3535026" lon="11.0272214"><ele>669.0</ele><time>2026-04-25T08:55:55.65Z</time></trkpt><trkpt lat="46.3533553" lon="11.0272138"><ele>669.0</ele><time>2026-04-25T08:55:56.632Z</time></trkpt><trkpt lat="46.3532049" lon="11.027206"><ele>669.0</ele><time>2026-04-25T08:55:57.623Z</time></trkpt><trkpt lat="46.3530581" lon="11.0271958"><ele>669.0</ele><time>2026-04-25T08:55:58.611Z</time></trkpt><trkpt lat="46.3529161" lon="11.0271829"><ele>669.0</ele><time>2026-04-25T08:55:59.621Z</time></trkpt><trkpt lat="46.3527788" lon="11.0271747"><ele>669.75</ele><time>2026-04-25T08:56:00.618Z</time></trkpt><trkpt lat="46.352642" lon="11.0271694"><ele>670.5</ele><time>2026-04-25T08:56:01.604Z</time></trkpt><trkpt lat="46.3524993" lon="11.0271629"><ele>671.25</ele><time>2026-04-25T08:56:02.61Z</time></trkpt><trkpt lat="46.3523547" lon="11.0271535"><ele>672.0</ele><time>2026-04-25T08:56:03.602Z</time></trkpt><trkpt lat="46.3522052" lon="11.0271415"><ele>672.0</ele><time>2026-04-25T08:56:04.606Z</time></trkpt><trkpt lat="46.3520527" lon="11.0271287"><ele>672.0</ele><time>2026-04-25T08:56:05.619Z</time></trkpt><trkpt lat="46.3518996" lon="11.0271187"><ele>672.0</ele><time>2026-04-25T08:56:06.623Z</time></trkpt><trkpt lat="46.3517457" lon="11.0271103"><ele>672.0</ele><time>2026-04-25T08:56:07.629Z</time></trkpt><trkpt lat="46.3515989" lon="11.0271057"><ele>672.0</ele><time>2026-04-25T08:56:08.622Z</time></trkpt><trkpt lat="46.3514604" lon="11.0270906"><ele>672.0</ele><time>2026-04-25T08:56:09.596Z</time></trkpt><trkpt lat="46.3513124" lon="11.0270839"><ele>672.0</ele><time>2026-04-25T08:56:10.609Z</time></trkpt><trkpt lat="46.3511614" lon="11.0270739"><ele>671.75</ele><time>2026-04-25T08:56:11.639Z</time></trkpt><trkpt lat="46.3510137" lon="11.0270689"><ele>671.5</ele><time>2026-04-25T08:56:12.636Z</time></trkpt><trkpt lat="46.3508728" lon="11.0270622"><ele>671.25</ele><time>2026-04-25T08:56:13.594Z</time></trkpt><trkpt lat="46.3507218" lon="11.0270535"><ele>671.0</ele><time>2026-04-25T08:56:14.611Z</time></trkpt><trkpt lat="46.3505692" lon="11.0270448"><ele>671.3333333333333</ele><time>2026-04-25T08:56:15.619Z</time></trkpt><trkpt lat="46.3504118" lon="11.0270412"><ele>671.6666666666666</ele><time>2026-04-25T08:56:16.631Z</time></trkpt><trkpt lat="46.3502586" lon="11.0270378"><ele>672.0</ele><time>2026-04-25T08:56:17.61Z</time></trkpt><trkpt lat="46.350098" lon="11.0270285"><ele>672.0</ele><time>2026-04-25T08:56:18.63Z</time></trkpt><trkpt lat="46.3499444" lon="11.0270159"><ele>672.0</ele><time>2026-04-25T08:56:19.608Z</time></trkpt><trkpt lat="46.3497846" lon="11.0270015"><ele>672.0</ele><time>2026-04-25T08:56:20.62Z</time></trkpt><trkpt lat="46.3496256" lon="11.0269935"><ele>672.3333333333334</ele><time>2026-04-25T08:56:21.61Z</time></trkpt><trkpt lat="46.3494639" lon="11.0269807"><ele>672.6666666666667</ele><time>2026-04-25T08:56:22.628Z</time></trkpt><trkpt lat="46.3493084" lon="11.0269724"><ele>673.0</ele><time>2026-04-25T08:56:23.599Z</time></trkpt><trkpt lat="46.3491442" lon="11.026964"><ele>673.0</ele><time>2026-04-25T08:56:24.626Z</time></trkpt><trkpt lat="46.3489836" lon="11.0269576"><ele>673.0</ele><time>2026-04-25T08:56:25.613Z</time></trkpt><trkpt lat="46.3488294" lon="11.0269466"><ele>673.0</ele><time>2026-04-25T08:56:26.574Z</time></trkpt><trkpt lat="46.34866" lon="11.0269326"><ele>674.0</ele><time>2026-04-25T08:56:27.609Z</time></trkpt><trkpt lat="46.3484844" lon="11.0269226"><ele>675.0</ele><time>2026-04-25T08:56:28.623Z</time></trkpt><trkpt lat="46.3482995" lon="11.0269121"><ele>676.0</ele><time>2026-04-25T08:56:29.623Z</time></trkpt><trkpt lat="46.3481105" lon="11.0269012"><ele>676.0</ele><time>2026-04-25T08:56:30.623Z</time></trkpt><trkpt lat="46.3479218" lon="11.0268926"><ele>676.0</ele><time>2026-04-25T08:56:31.602Z</time></trkpt><trkpt lat="46.3477301" lon="11.0268818"><ele>676.0</ele><time>2026-04-25T08:56:32.603Z</time></trkpt><trkpt lat="46.347532" lon="11.0268671"><ele>676.0</ele><time>2026-04-25T08:56:33.62Z</time></trkpt><trkpt lat="46.3473396" lon="11.0268509"><ele>676.0</ele><time>2026-04-25T08:56:34.623Z</time></trkpt><trkpt lat="46.3471502" lon="11.0268353"><ele>676.0</ele><time>2026-04-25T08:56:35.601Z</time></trkpt><trkpt lat="46.3469529" lon="11.0268197"><ele>675.6666666666667</ele><time>2026-04-25T08:56:36.606Z</time></trkpt><trkpt lat="46.3467589" lon="11.0268061"><ele>675.3333333333334</ele><time>2026-04-25T08:56:37.592Z</time></trkpt><trkpt lat="46.3465543" lon="11.0267978"><ele>675.0</ele><time>2026-04-25T08:56:38.626Z</time></trkpt><trkpt lat="46.3463623" lon="11.0267912"><ele>675.0</ele><time>2026-04-25T08:56:39.602Z</time></trkpt><trkpt lat="46.346164" lon="11.0267837"><ele>675.0</ele><time>2026-04-25T08:56:40.586Z</time></trkpt><trkpt lat="46.3459668" lon="11.0267749"><ele>675.0</ele><time>2026-04-25T08:56:41.59Z</time></trkpt><trkpt lat="46.3457582" lon="11.0267596"><ele>675.0</ele><time>2026-04-25T08:56:42.634Z</time></trkpt><trkpt lat="46.3455691" lon="11.0267503"><ele>675.0</ele><time>2026-04-25T08:56:43.611Z</time></trkpt><trkpt lat="46.3453831" lon="11.0267391"><ele>675.0</ele><time>2026-04-25T08:56:44.618Z</time></trkpt><trkpt lat="46.3452052" lon="11.0267287"><ele>675.3333333333334</ele><time>2026-04-25T08:56:45.616Z</time></trkpt><trkpt lat="46.345025" lon="11.0267152"><ele>675.6666666666667</ele><time>2026-04-25T08:56:46.627Z</time></trkpt><trkpt lat="46.3448456" lon="11.0266984"><ele>676.0</ele><time>2026-04-25T08:56:47.609Z</time></trkpt><trkpt lat="46.3446665" lon="11.0266778"><ele>676.3333333333334</ele><time>2026-04-25T08:56:48.597Z</time></trkpt><trkpt lat="46.3444815" lon="11.0266582"><ele>676.6666666666666</ele><time>2026-04-25T08:56:49.605Z</time></trkpt><trkpt lat="46.3443035" lon="11.0266421"><ele>677.0</ele><time>2026-04-25T08:56:50.623Z</time></trkpt><trkpt lat="46.3441405" lon="11.0266236"><ele>677.0</ele><time>2026-04-25T08:56:51.617Z</time></trkpt><trkpt lat="46.3439866" lon="11.0266082"><ele>677.0</ele><time>2026-04-25T08:56:52.597Z</time></trkpt><trkpt lat="46.3438307" lon="11.0265951"><ele>677.0</ele><time>2026-04-25T08:56:53.609Z</time></trkpt><trkpt lat="46.3436741" lon="11.0265822"><ele>677.0</ele><time>2026-04-25T08:56:54.607Z</time></trkpt><trkpt lat="46.3435065" lon="11.0265714"><ele>677.0</ele><time>2026-04-25T08:56:55.632Z</time></trkpt><trkpt lat="46.3433442" lon="11.0265653"><ele>677.0</ele><time>2026-04-25T08:56:56.604Z</time></trkpt><trkpt lat="46.3431718" lon="11.0265617"><ele>676.6666666666666</ele><time>2026-04-25T08:56:57.61Z</time></trkpt><trkpt lat="46.3429945" lon="11.0265624"><ele>676.3333333333334</ele><time>2026-04-25T08:56:58.629Z</time></trkpt><trkpt lat="46.3428178" lon="11.0265642"><ele>676.0</ele><time>2026-04-25T08:56:59.626Z</time></trkpt><trkpt lat="46.3426417" lon="11.026564"><ele>676.0</ele><time>2026-04-25T08:57:00.611Z</time></trkpt><trkpt lat="46.3424584" lon="11.0265585"><ele>676.0</ele><time>2026-04-25T08:57:01.607Z</time></trkpt><trkpt lat="46.3422679" lon="11.0265553"><ele>676.0</ele><time>2026-04-25T08:57:02.623Z</time></trkpt><trkpt lat="46.3420774" lon="11.026555"><ele>677.0</ele><time>2026-04-25T08:57:03.613Z</time></trkpt><trkpt lat="46.3418839" lon="11.0265556"><ele>678.0</ele><time>2026-04-25T08:57:04.617Z</time></trkpt><trkpt lat="46.3416895" lon="11.0265534"><ele>679.0</ele><time>2026-04-25T08:57:05.624Z</time></trkpt><trkpt lat="46.3415" lon="11.0265566"><ele>681.3333333333334</ele><time>2026-04-25T08:57:06.61Z</time></trkpt><trkpt lat="46.3413074" lon="11.0265635"><ele>683.6666666666666</ele><time>2026-04-25T08:57:07.625Z</time></trkpt><trkpt lat="46.341119" lon="11.0265739"><ele>686.0</ele><time>2026-04-25T08:57:08.611Z</time></trkpt><trkpt lat="46.3409264" lon="11.0265851"><ele>686.0</ele><time>2026-04-25T08:57:09.616Z</time></trkpt><trkpt lat="46.3407347" lon="11.0265982"><ele>686.0</ele><time>2026-04-25T08:57:10.623Z</time></trkpt><trkpt lat="46.3405432" lon="11.0266191"><ele>686.0</ele><time>2026-04-25T08:57:11.628Z</time></trkpt><trkpt lat="46.3403585" lon="11.0266436"><ele>683.3333333333333</ele><time>2026-04-25T08:57:12.597Z</time></trkpt><trkpt lat="46.3401663" lon="11.0266674"><ele>680.6666666666666</ele><time>2026-04-25T08:57:13.6Z</time></trkpt><trkpt lat="46.3399707" lon="11.0266938"><ele>678.0</ele><time>2026-04-25T08:57:14.618Z</time></trkpt><trkpt lat="46.3397788" lon="11.0267179"><ele>680.3333333333334</ele><time>2026-04-25T08:57:15.612Z</time></trkpt><trkpt lat="46.3395883" lon="11.0267437"><ele>682.6666666666667</ele><time>2026-04-25T08:57:16.612Z</time></trkpt><trkpt lat="46.339399" lon="11.0267706"><ele>685.0</ele><time>2026-04-25T08:57:17.608Z</time></trkpt><trkpt lat="46.339206" lon="11.0267995"><ele>685.0</ele><time>2026-04-25T08:57:18.615Z</time></trkpt><trkpt lat="46.3390112" lon="11.0268261"><ele>685.0</ele><time>2026-04-25T08:57:19.615Z</time></trkpt><trkpt lat="46.3388097" lon="11.0268477"><ele>685.0</ele><time>2026-04-25T08:57:20.615Z</time></trkpt><trkpt lat="46.3386043" lon="11.0268718"><ele>686.0</ele><time>2026-04-25T08:57:21.619Z</time></trkpt><trkpt lat="46.3384051" lon="11.0268962"><ele>687.0</ele><time>2026-04-25T08:57:22.605Z</time></trkpt><trkpt lat="46.3381968" lon="11.0269297"><ele>688.0</ele><time>2026-04-25T08:57:23.611Z</time></trkpt><trkpt lat="46.3379917" lon="11.026959"><ele>688.0</ele><time>2026-04-25T08:57:24.619Z</time></trkpt><trkpt lat="46.3377994" lon="11.0269832"><ele>688.0</ele><time>2026-04-25T08:57:25.612Z</time></trkpt><trkpt lat="46.3376181" lon="11.0269981"><ele>688.0</ele><time>2026-04-25T08:57:26.592Z</time></trkpt><trkpt lat="46.337435" lon="11.0270029"><ele>688.0</ele><time>2026-04-25T08:57:27.61Z</time></trkpt><trkpt lat="46.3372545" lon="11.026982"><ele>688.0</ele><time>2026-04-25T08:57:28.62Z</time></trkpt><trkpt lat="46.3370758" lon="11.0269434"><ele>688.0</ele><time>2026-04-25T08:57:29.613Z</time></trkpt><trkpt lat="46.336894" lon="11.0268899"><ele>686.3333333333334</ele><time>2026-04-25T08:57:30.624Z</time></trkpt><trkpt lat="46.3367186" lon="11.0268321"><ele>684.6666666666666</ele><time>2026-04-25T08:57:31.619Z</time></trkpt><trkpt lat="46.3365515" lon="11.0267811"><ele>683.0</ele><time>2026-04-25T08:57:32.62Z</time></trkpt><trkpt lat="46.3363863" lon="11.026733"><ele>683.0</ele><time>2026-04-25T08:57:33.611Z</time></trkpt><trkpt lat="46.3362244" lon="11.0266882"><ele>683.0</ele><time>2026-04-25T08:57:34.62Z</time></trkpt><trkpt lat="46.3360638" lon="11.0266427"><ele>683.0</ele><time>2026-04-25T08:57:35.643Z</time></trkpt><trkpt lat="46.3359138" lon="11.0265955"><ele>682.75</ele><time>2026-04-25T08:57:36.624Z</time></trkpt><trkpt lat="46.3357666" lon="11.0265517"><ele>682.5</ele><time>2026-04-25T08:57:37.611Z</time></trkpt><trkpt lat="46.3356216" lon="11.0265092"><ele>682.25</ele><time>2026-04-25T08:57:38.62Z</time></trkpt><trkpt lat="46.3354848" lon="11.0264714"><ele>682.0</ele><time>2026-04-25T08:57:39.597Z</time></trkpt><trkpt lat="46.3353489" lon="11.0264328"><ele>682.0</ele><time>2026-04-25T08:57:40.599Z</time></trkpt><trkpt lat="46.3352156" lon="11.0263974"><ele>682.0</ele><time>2026-04-25T08:57:41.599Z</time></trkpt><trkpt lat="46.3350817" lon="11.0263551"><ele>682.0</ele><time>2026-04-25T08:57:42.629Z</time></trkpt><trkpt lat="46.3349565" lon="11.0263172"><ele>682.0</ele><time>2026-04-25T08:57:43.613Z</time></trkpt><trkpt lat="46.3348227" lon="11.0262832"><ele>680.75</ele><time>2026-04-25T08:57:44.604Z</time></trkpt><trkpt lat="46.3346847" lon="11.0262368"><ele>679.5</ele><time>2026-04-25T08:57:45.622Z</time></trkpt><trkpt lat="46.3345405" lon="11.0261909"><ele>678.25</ele><time>2026-04-25T08:57:46.622Z</time></trkpt><trkpt lat="46.3343971" lon="11.0261481"><ele>677.0</ele><time>2026-04-25T08:57:47.623Z</time></trkpt><trkpt lat="46.334258" lon="11.0261068"><ele>677.0</ele><time>2026-04-25T08:57:48.624Z</time></trkpt><trkpt lat="46.3341242" lon="11.0260674"><ele>677.0</ele><time>2026-04-25T08:57:49.625Z</time></trkpt><trkpt lat="46.3339997" lon="11.0260339"><ele>677.0</ele><time>2026-04-25T08:57:50.601Z</time></trkpt><trkpt lat="46.3338708" lon="11.0259948"><ele>677.0</ele><time>2026-04-25T08:57:51.61Z</time></trkpt><trkpt lat="46.3337459" lon="11.0259576"><ele>677.0</ele><time>2026-04-25T08:57:52.637Z</time></trkpt><trkpt lat="46.3336285" lon="11.0259182"><ele>677.0</ele><time>2026-04-25T08:57:53.634Z</time></trkpt><trkpt lat="46.3335135" lon="11.0258851"><ele>677.0</ele><time>2026-04-25T08:57:54.611Z</time></trkpt><trkpt lat="46.3333976" lon="11.0258525"><ele>677.0</ele><time>2026-04-25T08:57:55.616Z</time></trkpt><trkpt lat="46.333281" lon="11.0258209"><ele>678.0</ele><time>2026-04-25T08:57:56.632Z</time></trkpt><trkpt lat="46.3331626" lon="11.0257884"><ele>679.0</ele><time>2026-04-25T08:57:57.621Z</time></trkpt><trkpt lat="46.3330386" lon="11.0257513"><ele>680.0</ele><time>2026-04-25T08:57:58.609Z</time></trkpt><trkpt lat="46.3329035" lon="11.0257172"><ele>681.0</ele><time>2026-04-25T08:57:59.631Z</time></trkpt><trkpt lat="46.3327755" lon="11.025683"><ele>678.75</ele><time>2026-04-25T08:58:00.622Z</time></trkpt><trkpt lat="46.332654" lon="11.0256484"><ele>676.5</ele><time>2026-04-25T08:58:01.61Z</time></trkpt><trkpt lat="46.3325344" lon="11.0256184"><ele>674.25</ele><time>2026-04-25T08:58:02.62Z</time></trkpt><trkpt lat="46.3324161" lon="11.0255893"><ele>672.0</ele><time>2026-04-25T08:58:03.61Z</time></trkpt><trkpt lat="46.3322966" lon="11.0255564"><ele>671.0</ele><time>2026-04-25T08:58:04.621Z</time></trkpt><trkpt lat="46.3321837" lon="11.0255166"><ele>670.0</ele><time>2026-04-25T08:58:05.628Z</time></trkpt><trkpt lat="46.3320691" lon="11.0254806"><ele>669.0</ele><time>2026-04-25T08:58:06.617Z</time></trkpt><trkpt lat="46.3319523" lon="11.0254466"><ele>668.0</ele><time>2026-04-25T08:58:07.626Z</time></trkpt><trkpt lat="46.3318392" lon="11.0254115"><ele>668.0</ele><time>2026-04-25T08:58:08.617Z</time></trkpt><trkpt lat="46.3317192" lon="11.0253782"><ele>668.0</ele><time>2026-04-25T08:58:09.607Z</time></trkpt><trkpt lat="46.3315577" lon="11.0253414"><ele>668.0</ele><time>2026-04-25T08:58:10.944Z</time></trkpt><trkpt lat="46.3313285" lon="11.0252533"><ele>666.75</ele><time>2026-04-25T08:58:12.666Z</time></trkpt><trkpt lat="46.3311916" lon="11.0252153"><ele>665.5</ele><time>2026-04-25T08:58:13.664Z</time></trkpt><trkpt lat="46.3310507" lon="11.0251789"><ele>664.25</ele><time>2026-04-25T08:58:14.677Z</time></trkpt><trkpt lat="46.3309132" lon="11.0251441"><ele>663.0</ele><time>2026-04-25T08:58:15.671Z</time></trkpt><trkpt lat="46.3307797" lon="11.0251073"><ele>663.0</ele><time>2026-04-25T08:58:16.669Z</time></trkpt><trkpt lat="46.3306473" lon="11.0250704"><ele>663.0</ele><time>2026-04-25T08:58:17.672Z</time></trkpt><trkpt lat="46.3305149" lon="11.0250317"><ele>663.0</ele><time>2026-04-25T08:58:18.701Z</time></trkpt><trkpt lat="46.3303944" lon="11.0249815"><ele>663.0</ele><time>2026-04-25T08:58:19.679Z</time></trkpt><trkpt lat="46.3302733" lon="11.0249201"><ele>662.25</ele><time>2026-04-25T08:58:20.671Z</time></trkpt><trkpt lat="46.3301566" lon="11.0248529"><ele>661.5</ele><time>2026-04-25T08:58:21.66Z</time></trkpt><trkpt lat="46.3300401" lon="11.0247781"><ele>660.75</ele><time>2026-04-25T08:58:22.665Z</time></trkpt><trkpt lat="46.3299273" lon="11.0246953"><ele>660.0</ele><time>2026-04-25T08:58:23.675Z</time></trkpt><trkpt lat="46.3298121" lon="11.0246024"><ele>658.5</ele><time>2026-04-25T08:58:24.68Z</time></trkpt><trkpt lat="46.3296972" lon="11.0245009"><ele>657.0</ele><time>2026-04-25T08:58:25.655Z</time></trkpt><trkpt lat="46.3295758" lon="11.0243808"><ele>655.5</ele><time>2026-04-25T08:58:26.664Z</time></trkpt><trkpt lat="46.329456" lon="11.0242566"><ele>654.0</ele><time>2026-04-25T08:58:27.677Z</time></trkpt><trkpt lat="46.3293347" lon="11.0241454"><ele>654.0</ele><time>2026-04-25T08:58:28.672Z</time></trkpt><trkpt lat="46.3292305" lon="11.024027"><ele>654.0</ele><time>2026-04-25T08:58:29.683Z</time></trkpt><trkpt lat="46.3291314" lon="11.0239182"><ele>654.0</ele><time>2026-04-25T08:58:30.667Z</time></trkpt><trkpt lat="46.3290387" lon="11.0238153"><ele>654.0</ele><time>2026-04-25T08:58:31.65Z</time></trkpt><trkpt lat="46.3289449" lon="11.0237125"><ele>653.4000000000001</ele><time>2026-04-25T08:58:32.667Z</time></trkpt><trkpt lat="46.3288579" lon="11.0236184"><ele>652.8</ele><time>2026-04-25T08:58:33.66Z</time></trkpt><trkpt lat="46.3287707" lon="11.0235222"><ele>652.2</ele><time>2026-04-25T08:58:34.671Z</time></trkpt><trkpt lat="46.3286839" lon="11.0234242"><ele>651.5999999999999</ele><time>2026-04-25T08:58:35.674Z</time></trkpt><trkpt lat="46.3285893" lon="11.0233294"><ele>651.0</ele><time>2026-04-25T08:58:36.682Z</time></trkpt><trkpt lat="46.3284886" lon="11.0232461"><ele>651.0</ele><time>2026-04-25T08:58:37.677Z</time></trkpt><trkpt lat="46.3283826" lon="11.0231762"><ele>651.0</ele><time>2026-04-25T08:58:38.68Z</time></trkpt><trkpt lat="46.3282683" lon="11.0231277"><ele>651.0</ele><time>2026-04-25T08:58:39.675Z</time></trkpt><trkpt lat="46.3281515" lon="11.0230983"><ele>651.0</ele><time>2026-04-25T08:58:40.645Z</time></trkpt><trkpt lat="46.3280289" lon="11.0230711"><ele>648.75</ele><time>2026-04-25T08:58:41.666Z</time></trkpt><trkpt lat="46.327909" lon="11.0230456"><ele>646.5</ele><time>2026-04-25T08:58:42.677Z</time></trkpt><trkpt lat="46.3277916" lon="11.0230203"><ele>644.25</ele><time>2026-04-25T08:58:43.682Z</time></trkpt><trkpt lat="46.3276763" lon="11.0229969"><ele>642.0</ele><time>2026-04-25T08:58:44.651Z</time></trkpt><trkpt lat="46.3275543" lon="11.0229734"><ele>642.0</ele><time>2026-04-25T08:58:45.694Z</time></trkpt><trkpt lat="46.3274442" lon="11.0229515"><ele>642.0</ele><time>2026-04-25T08:58:46.65Z</time></trkpt><trkpt lat="46.3273249" lon="11.0229251"><ele>642.0</ele><time>2026-04-25T08:58:47.69Z</time></trkpt><trkpt lat="46.3272152" lon="11.0229043"><ele>642.0</ele><time>2026-04-25T08:58:48.65Z</time></trkpt><trkpt lat="46.3270982" lon="11.0228883"><ele>641.0</ele><time>2026-04-25T08:58:49.668Z</time></trkpt><trkpt lat="46.3269843" lon="11.0228713"><ele>640.0</ele><time>2026-04-25T08:58:50.665Z</time></trkpt><trkpt lat="46.3268698" lon="11.0228526"><ele>639.0</ele><time>2026-04-25T08:58:51.679Z</time></trkpt><trkpt lat="46.3267575" lon="11.0228301"><ele>638.0</ele><time>2026-04-25T08:58:52.684Z</time></trkpt><trkpt lat="46.3266432" lon="11.0228148"><ele>638.0</ele><time>2026-04-25T08:58:53.689Z</time></trkpt><trkpt lat="46.3265347" lon="11.0228006"><ele>638.0</ele><time>2026-04-25T08:58:54.674Z</time></trkpt><trkpt lat="46.3264354" lon="11.0227703"><ele>638.0</ele><time>2026-04-25T08:58:55.638Z</time></trkpt><trkpt lat="46.3263399" lon="11.0227056"><ele>638.0</ele><time>2026-04-25T08:58:56.649Z</time></trkpt><trkpt lat="46.3262568" lon="11.0226195"><ele>638.0</ele><time>2026-04-25T08:58:57.648Z</time></trkpt><trkpt lat="46.3261786" lon="11.0225245"><ele>636.1999999999999</ele><time>2026-04-25T08:58:58.653Z</time></trkpt><trkpt lat="46.3260962" lon="11.0224382"><ele>634.4</ele><time>2026-04-25T08:58:59.672Z</time></trkpt><trkpt lat="46.3260094" lon="11.0223644"><ele>632.5999999999999</ele><time>2026-04-25T08:59:00.672Z</time></trkpt><trkpt lat="46.3259177" lon="11.0223036"><ele>630.8</ele><time>2026-04-25T08:59:01.667Z</time></trkpt><trkpt lat="46.3258184" lon="11.0222611"><ele>629.0</ele><time>2026-04-25T08:59:02.685Z</time></trkpt><trkpt lat="46.3257218" lon="11.0222309"><ele>629.0</ele><time>2026-04-25T08:59:03.675Z</time></trkpt><trkpt lat="46.325626" lon="11.022208"><ele>629.0</ele><time>2026-04-25T08:59:04.66Z</time></trkpt><trkpt lat="46.3255316" lon="11.0221893"><ele>629.0</ele><time>2026-04-25T08:59:05.688Z</time></trkpt><trkpt lat="46.325453" lon="11.022172"><ele>629.0</ele><time>2026-04-25T08:59:06.664Z</time></trkpt><trkpt lat="46.3253855" lon="11.0221569"><ele>629.0</ele><time>2026-04-25T08:59:07.652Z</time></trkpt><trkpt lat="46.3252825" lon="11.0221249"><ele>629.0</ele><time>2026-04-25T08:59:09.659Z</time></trkpt><trkpt lat="46.3252175" lon="11.0220694"><ele>628.8333333333333</ele><time>2026-04-25T08:59:11.688Z</time></trkpt><trkpt lat="46.3251859" lon="11.0219578"><ele>628.6666666666666</ele><time>2026-04-25T08:59:14.651Z</time></trkpt><trkpt lat="46.3252113" lon="11.0217964"><ele>628.5</ele><time>2026-04-25T08:59:17.659Z</time></trkpt><trkpt lat="46.3252401" lon="11.02171"><ele>628.3333333333334</ele><time>2026-04-25T08:59:18.679Z</time></trkpt><trkpt lat="46.3252725" lon="11.0216191"><ele>628.1666666666667</ele><time>2026-04-25T08:59:19.662Z</time></trkpt><trkpt lat="46.3253027" lon="11.0215269"><ele>628.0</ele><time>2026-04-25T08:59:20.669Z</time></trkpt><trkpt lat="46.3253332" lon="11.0214223"><ele>628.0</ele><time>2026-04-25T08:59:21.683Z</time></trkpt><trkpt lat="46.3253576" lon="11.0213121"><ele>628.0</ele><time>2026-04-25T08:59:22.639Z</time></trkpt><trkpt lat="46.3253712" lon="11.0211848"><ele>628.0</ele><time>2026-04-25T08:59:23.651Z</time></trkpt><trkpt lat="46.3253669" lon="11.0210501"><ele>628.0</ele><time>2026-04-25T08:59:24.676Z</time></trkpt><trkpt lat="46.3253454" lon="11.0209231"><ele>628.0</ele><time>2026-04-25T08:59:25.672Z</time></trkpt><trkpt lat="46.3253086" lon="11.0208064"><ele>628.0</ele><time>2026-04-25T08:59:26.659Z</time></trkpt><trkpt lat="46.3252583" lon="11.0207055"><ele>629.3333333333334</ele><time>2026-04-25T08:59:27.685Z</time></trkpt><trkpt lat="46.3252022" lon="11.0206186"><ele>630.6666666666667</ele><time>2026-04-25T08:59:28.67Z</time></trkpt><trkpt lat="46.3251411" lon="11.0205344"><ele>632.0</ele><time>2026-04-25T08:59:29.657Z</time></trkpt><trkpt lat="46.3250755" lon="11.0204484"><ele>633.3333333333334</ele><time>2026-04-25T08:59:30.658Z</time></trkpt><trkpt lat="46.3250072" lon="11.0203575"><ele>634.6666666666666</ele><time>2026-04-25T08:59:31.679Z</time></trkpt><trkpt lat="46.3249379" lon="11.0202623"><ele>636.0</ele><time>2026-04-25T08:59:32.66Z</time></trkpt><trkpt lat="46.3248646" lon="11.0201523"><ele>636.0</ele><time>2026-04-25T08:59:33.652Z</time></trkpt><trkpt lat="46.3247954" lon="11.0200262"><ele>636.0</ele><time>2026-04-25T08:59:34.66Z</time></trkpt><trkpt lat="46.3247244" lon="11.0198845"><ele>636.0</ele><time>2026-04-25T08:59:35.669Z</time></trkpt><trkpt lat="46.324651" lon="11.0197305"><ele>636.0</ele><time>2026-04-25T08:59:36.676Z</time></trkpt><trkpt lat="46.3245815" lon="11.0195879"><ele>636.0</ele><time>2026-04-25T08:59:37.684Z</time></trkpt><trkpt lat="46.324517" lon="11.0194631"><ele>636.0</ele><time>2026-04-25T08:59:38.678Z</time></trkpt><trkpt lat="46.3244513" lon="11.0193489"><ele>636.0</ele><time>2026-04-25T08:59:39.654Z</time></trkpt><trkpt lat="46.3243757" lon="11.0192317"><ele>636.0</ele><time>2026-04-25T08:59:40.662Z</time></trkpt><trkpt lat="46.3242931" lon="11.0191182"><ele>636.0</ele><time>2026-04-25T08:59:41.681Z</time></trkpt><trkpt lat="46.3242078" lon="11.0190073"><ele>635.5</ele><time>2026-04-25T08:59:42.67Z</time></trkpt><trkpt lat="46.3241181" lon="11.0188945"><ele>635.0</ele><time>2026-04-25T08:59:43.673Z</time></trkpt><trkpt lat="46.3240317" lon="11.0187754"><ele>634.5</ele><time>2026-04-25T08:59:44.659Z</time></trkpt><trkpt lat="46.3239425" lon="11.0186555"><ele>634.0</ele><time>2026-04-25T08:59:45.659Z</time></trkpt><trkpt lat="46.3238505" lon="11.0185367"><ele>634.0</ele><time>2026-04-25T08:59:46.658Z</time></trkpt><trkpt lat="46.3237613" lon="11.0184115"><ele>634.0</ele><time>2026-04-25T08:59:47.662Z</time></trkpt><trkpt lat="46.3236796" lon="11.0182808"><ele>634.0</ele><time>2026-04-25T08:59:48.674Z</time></trkpt><trkpt lat="46.3236094" lon="11.0181513"><ele>634.0</ele><time>2026-04-25T08:59:49.682Z</time></trkpt><trkpt lat="46.3235453" lon="11.0180178"><ele>635.0</ele><time>2026-04-25T08:59:50.695Z</time></trkpt><trkpt lat="46.3234819" lon="11.0178775"><ele>636.0</ele><time>2026-04-25T08:59:51.683Z</time></trkpt><trkpt lat="46.3234178" lon="11.0177245"><ele>637.0</ele><time>2026-04-25T08:59:52.696Z</time></trkpt><trkpt lat="46.3233563" lon="11.0175668"><ele>638.0</ele><time>2026-04-25T08:59:53.686Z</time></trkpt><trkpt lat="46.3232991" lon="11.0174075"><ele>638.75</ele><time>2026-04-25T08:59:54.664Z</time></trkpt><trkpt lat="46.323239" lon="11.0172429"><ele>639.5</ele><time>2026-04-25T08:59:55.659Z</time></trkpt><trkpt lat="46.3231787" lon="11.0170783"><ele>640.25</ele><time>2026-04-25T08:59:56.653Z</time></trkpt><trkpt lat="46.3231181" lon="11.0169087"><ele>641.0</ele><time>2026-04-25T08:59:57.68Z</time></trkpt><trkpt lat="46.3230583" lon="11.0167481"><ele>638.75</ele><time>2026-04-25T08:59:58.675Z</time></trkpt><trkpt lat="46.3230011" lon="11.0165904"><ele>636.5</ele><time>2026-04-25T08:59:59.675Z</time></trkpt><trkpt lat="46.3229485" lon="11.016442"><ele>634.25</ele><time>2026-04-25T09:00:00.636Z</time></trkpt><trkpt lat="46.3228959" lon="11.0162807"><ele>632.0</ele><time>2026-04-25T09:00:01.662Z</time></trkpt><trkpt lat="46.3228519" lon="11.0161183"><ele>632.0</ele><time>2026-04-25T09:00:02.672Z</time></trkpt><trkpt lat="46.3228164" lon="11.0159536"><ele>632.0</ele><time>2026-04-25T09:00:03.678Z</time></trkpt><trkpt lat="46.3227852" lon="11.0157954"><ele>632.0</ele><time>2026-04-25T09:00:04.678Z</time></trkpt><trkpt lat="46.322758" lon="11.0156528"><ele>632.0</ele><time>2026-04-25T09:00:05.665Z</time></trkpt><trkpt lat="46.3227421" lon="11.0155181"><ele>632.0</ele><time>2026-04-25T09:00:06.668Z</time></trkpt><trkpt lat="46.3227446" lon="11.0153909"><ele>632.2</ele><time>2026-04-25T09:00:07.684Z</time></trkpt><trkpt lat="46.322769" lon="11.0152707"><ele>632.4000000000001</ele><time>2026-04-25T09:00:08.682Z</time></trkpt><trkpt lat="46.3228179" lon="11.0151561"><ele>632.5999999999999</ele><time>2026-04-25T09:00:09.677Z</time></trkpt><trkpt lat="46.3228874" lon="11.0150524"><ele>632.8</ele><time>2026-04-25T09:00:10.676Z</time></trkpt><trkpt lat="46.3229735" lon="11.0149625"><ele>633.0</ele><time>2026-04-25T09:00:11.685Z</time></trkpt><trkpt lat="46.3230689" lon="11.0148867"><ele>633.0</ele><time>2026-04-25T09:00:12.667Z</time></trkpt><trkpt lat="46.3231726" lon="11.0148214"><ele>633.0</ele><time>2026-04-25T09:00:13.648Z</time></trkpt><trkpt lat="46.3232862" lon="11.0147533"><ele>633.0</ele><time>2026-04-25T09:00:14.671Z</time></trkpt><trkpt lat="46.3234013" lon="11.0146817"><ele>633.0</ele><time>2026-04-25T09:00:15.675Z</time></trkpt><trkpt lat="46.3235163" lon="11.0146063"><ele>633.0</ele><time>2026-04-25T09:00:16.645Z</time></trkpt><trkpt lat="46.3236374" lon="11.014507"><ele>633.0</ele><time>2026-04-25T09:00:17.676Z</time></trkpt><trkpt lat="46.3237461" lon="11.0143812"><ele>633.0</ele><time>2026-04-25T09:00:18.678Z</time></trkpt><trkpt lat="46.3238441" lon="11.0142317"><ele>633.0</ele><time>2026-04-25T09:00:19.654Z</time></trkpt><trkpt lat="46.3239433" lon="11.0140693"><ele>639.0</ele><time>2026-04-25T09:00:20.655Z</time></trkpt><trkpt lat="46.324048" lon="11.0139038"><ele>645.0</ele><time>2026-04-25T09:00:21.677Z</time></trkpt><trkpt lat="46.3241437" lon="11.0137552"><ele>651.0</ele><time>2026-04-25T09:00:22.658Z</time></trkpt><trkpt lat="46.3242319" lon="11.013618"><ele>657.0</ele><time>2026-04-25T09:00:23.673Z</time></trkpt><trkpt lat="46.324313" lon="11.0134963"><ele>657.0</ele><time>2026-04-25T09:00:24.685Z</time></trkpt><trkpt lat="46.3243859" lon="11.0133777"><ele>657.0</ele><time>2026-04-25T09:00:25.657Z</time></trkpt><trkpt lat="46.3244538" lon="11.0132461"><ele>657.0</ele><time>2026-04-25T09:00:26.657Z</time></trkpt><trkpt lat="46.3245157" lon="11.0131012"><ele>657.0</ele><time>2026-04-25T09:00:27.66Z</time></trkpt><trkpt lat="46.3245717" lon="11.0129398"><ele>654.8</ele><time>2026-04-25T09:00:28.681Z</time></trkpt><trkpt lat="46.3246142" lon="11.0127787"><ele>652.6</ele><time>2026-04-25T09:00:29.654Z</time></trkpt><trkpt lat="46.3246496" lon="11.0126187"><ele>650.4</ele><time>2026-04-25T09:00:30.689Z</time></trkpt><trkpt lat="46.3246778" lon="11.0124776"><ele>648.1999999999999</ele><time>2026-04-25T09:00:31.662Z</time></trkpt><trkpt lat="46.3247052" lon="11.0123369"><ele>646.0</ele><time>2026-04-25T09:00:32.672Z</time></trkpt><trkpt lat="46.3247392" lon="11.0122059"><ele>646.0</ele><time>2026-04-25T09:00:33.688Z</time></trkpt><trkpt lat="46.3247887" lon="11.0120956"><ele>646.0</ele><time>2026-04-25T09:00:34.688Z</time></trkpt><trkpt lat="46.32486" lon="11.0120085"><ele>646.0</ele><time>2026-04-25T09:00:35.651Z</time></trkpt><trkpt lat="46.324951" lon="11.0119427"><ele>646.0</ele><time>2026-04-25T09:00:36.682Z</time></trkpt><trkpt lat="46.3250482" lon="11.0119121"><ele>646.0</ele><time>2026-04-25T09:00:37.687Z</time></trkpt><trkpt lat="46.3251368" lon="11.0118949"><ele>646.0</ele><time>2026-04-25T09:00:38.627Z</time></trkpt><trkpt lat="46.3252391" lon="11.011881"><ele>646.0</ele><time>2026-04-25T09:00:39.646Z</time></trkpt><trkpt lat="46.3253471" lon="11.0118648"><ele>646.0</ele><time>2026-04-25T09:00:40.667Z</time></trkpt><trkpt lat="46.3254543" lon="11.0118461"><ele>646.0</ele><time>2026-04-25T09:00:41.687Z</time></trkpt><trkpt lat="46.3255486" lon="11.0118187"><ele>646.0</ele><time>2026-04-25T09:00:42.656Z</time></trkpt><trkpt lat="46.3256494" lon="11.0117683"><ele>647.5999999999999</ele><time>2026-04-25T09:00:43.669Z</time></trkpt><trkpt lat="46.3257459" lon="11.0116902"><ele>649.2</ele><time>2026-04-25T09:00:44.682Z</time></trkpt><trkpt lat="46.3258299" lon="11.0116016"><ele>650.8</ele><time>2026-04-25T09:00:45.674Z</time></trkpt><trkpt lat="46.3258943" lon="11.0115169"><ele>652.4000000000001</ele><time>2026-04-25T09:00:46.603Z</time></trkpt><trkpt lat="46.3259284" lon="11.0114145"><ele>654.0</ele><time>2026-04-25T09:00:47.613Z</time></trkpt><trkpt lat="46.3259338" lon="11.0113023"><ele>654.0</ele><time>2026-04-25T09:00:48.634Z</time></trkpt><trkpt lat="46.3259103" lon="11.0111821"><ele>654.0</ele><time>2026-04-25T09:00:49.617Z</time></trkpt><trkpt lat="46.3258676" lon="11.0110473"><ele>654.0</ele><time>2026-04-25T09:00:50.637Z</time></trkpt><trkpt lat="46.3258299" lon="11.0109079"><ele>654.0</ele><time>2026-04-25T09:00:51.634Z</time></trkpt><trkpt lat="46.3257934" lon="11.0107695"><ele>654.0</ele><time>2026-04-25T09:00:52.634Z</time></trkpt><trkpt lat="46.3257686" lon="11.0106219"><ele>653.6</ele><time>2026-04-25T09:00:53.611Z</time></trkpt><trkpt lat="46.3257599" lon="11.0104822"><ele>653.2</ele><time>2026-04-25T09:00:54.597Z</time></trkpt><trkpt lat="46.3257646" lon="11.0103223"><ele>652.8000000000001</ele><time>2026-04-25T09:00:55.629Z</time></trkpt><trkpt lat="46.3257795" lon="11.0101557"><ele>652.4000000000001</ele><time>2026-04-25T09:00:56.62Z</time></trkpt><trkpt lat="46.3257996" lon="11.0099778"><ele>652.0</ele><time>2026-04-25T09:00:57.618Z</time></trkpt><trkpt lat="46.3258228" lon="11.0098031"><ele>652.0</ele><time>2026-04-25T09:00:58.609Z</time></trkpt><trkpt lat="46.325846" lon="11.0096313"><ele>652.0</ele><time>2026-04-25T09:00:59.638Z</time></trkpt><trkpt lat="46.3258628" lon="11.0094737"><ele>652.0</ele><time>2026-04-25T09:01:00.597Z</time></trkpt><trkpt lat="46.3258672" lon="11.0093074"><ele>652.0</ele><time>2026-04-25T09:01:01.589Z</time></trkpt><trkpt lat="46.3258547" lon="11.0091262"><ele>654.25</ele><time>2026-04-25T09:01:02.619Z</time></trkpt><trkpt lat="46.3258345" lon="11.0089518"><ele>656.5</ele><time>2026-04-25T09:01:03.617Z</time></trkpt><trkpt lat="46.3258086" lon="11.0087629"><ele>658.75</ele><time>2026-04-25T09:01:04.609Z</time></trkpt><trkpt lat="46.3257838" lon="11.0085753"><ele>661.0</ele><time>2026-04-25T09:01:05.622Z</time></trkpt><trkpt lat="46.3257564" lon="11.0083872"><ele>662.0</ele><time>2026-04-25T09:01:06.63Z</time></trkpt><trkpt lat="46.3257312" lon="11.0081999"><ele>663.0</ele><time>2026-04-25T09:01:07.621Z</time></trkpt><trkpt lat="46.3257088" lon="11.0080191"><ele>664.0</ele><time>2026-04-25T09:01:08.586Z</time></trkpt><trkpt lat="46.3256867" lon="11.0078321"><ele>665.0</ele><time>2026-04-25T09:01:09.635Z</time></trkpt><trkpt lat="46.3256653" lon="11.0076732"><ele>665.0</ele><time>2026-04-25T09:01:10.603Z</time></trkpt><trkpt lat="46.3256494" lon="11.0075272"><ele>665.0</ele><time>2026-04-25T09:01:11.604Z</time></trkpt><trkpt lat="46.3256311" lon="11.0073953"><ele>665.0</ele><time>2026-04-25T09:01:12.609Z</time></trkpt><trkpt lat="46.325613" lon="11.007272"><ele>665.0</ele><time>2026-04-25T09:01:13.613Z</time></trkpt><trkpt lat="46.3255949" lon="11.0071563"><ele>665.0</ele><time>2026-04-25T09:01:14.629Z</time></trkpt><trkpt lat="46.3255776" lon="11.0070514"><ele>665.0</ele><time>2026-04-25T09:01:15.628Z</time></trkpt><trkpt lat="46.3255534" lon="11.0069566"><ele>664.1666666666666</ele><time>2026-04-25T09:01:16.625Z</time></trkpt><trkpt lat="46.3255213" lon="11.0068772"><ele>663.3333333333333</ele><time>2026-04-25T09:01:17.622Z</time></trkpt><trkpt lat="46.3254311" lon="11.006767"><ele>662.5</ele><time>2026-04-25T09:01:19.606Z</time></trkpt><trkpt lat="46.325338" lon="11.0067278"><ele>661.6666666666666</ele><time>2026-04-25T09:01:21.609Z</time></trkpt><trkpt lat="46.325254" lon="11.0067137"><ele>660.8333333333334</ele><time>2026-04-25T09:01:24.62Z</time></trkpt><trkpt lat="46.3252036" lon="11.0066539"><ele>660.0</ele><time>2026-04-25T09:01:28.605Z</time></trkpt><trkpt lat="46.3252563" lon="11.0065689"><ele>660.0</ele><time>2026-04-25T09:01:32.616Z</time></trkpt><trkpt lat="46.3253635" lon="11.006592"><ele>660.0</ele><time>2026-04-25T09:01:35.608Z</time></trkpt><trkpt lat="46.325449" lon="11.0066579"><ele>660.0</ele><time>2026-04-25T09:01:37.632Z</time></trkpt><trkpt lat="46.3254915" lon="11.0067584"><ele>638.0</ele><time>2026-04-25T09:01:39.628Z</time></trkpt><trkpt lat="46.3255184" lon="11.0068483"><ele>638.0</ele><time>2026-04-25T09:01:42.601Z</time></trkpt></trkseg><trkseg><trkpt lat="46.3255423" lon="11.0069271"><ele>643.4</ele><time>2026-04-25T09:15:35.59Z</time></trkpt><trkpt lat="46.325571" lon="11.0071128"><ele>648.8</ele><time>2026-04-25T09:15:38.614Z</time></trkpt><trkpt lat="46.3255922" lon="11.0072057"><ele>654.2</ele><time>2026-04-25T09:15:39.606Z</time></trkpt><trkpt lat="46.3256045" lon="11.0073115"><ele>659.6</ele><time>2026-04-25T09:15:41.606Z</time></trkpt><trkpt lat="46.3256149" lon="11.0074591"><ele>665.0</ele><time>2026-04-25T09:15:44.603Z</time></trkpt><trkpt lat="46.3256442" lon="11.007612"><ele>665.0</ele><time>2026-04-25T09:15:46.608Z</time></trkpt><trkpt lat="46.3256752" lon="11.0077816"><ele>665.0</ele><time>2026-04-25T09:15:48.618Z</time></trkpt><trkpt lat="46.3256908" lon="11.0078866"><ele>665.0</ele><time>2026-04-25T09:15:49.634Z</time></trkpt><trkpt lat="46.325704" lon="11.0079791"><ele>665.0</ele><time>2026-04-25T09:15:50.625Z</time></trkpt><trkpt lat="46.3257181" lon="11.008071"><ele>665.0</ele><time>2026-04-25T09:15:51.652Z</time></trkpt><trkpt lat="46.3257269" lon="11.0081717"><ele>665.0</ele><time>2026-04-25T09:15:52.624Z</time></trkpt><trkpt lat="46.3257405" lon="11.0082918"><ele>664.2</ele><time>2026-04-25T09:15:53.607Z</time></trkpt><trkpt lat="46.3257668" lon="11.0084487"><ele>663.4</ele><time>2026-04-25T09:15:54.633Z</time></trkpt><trkpt lat="46.3257854" lon="11.0086094"><ele>662.5999999999999</ele><time>2026-04-25T09:15:55.603Z</time></trkpt><trkpt lat="46.3258096" lon="11.0087695"><ele>661.8</ele><time>2026-04-25T09:15:56.597Z</time></trkpt><trkpt lat="46.3258308" lon="11.0089291"><ele>661.0</ele><time>2026-04-25T09:15:57.63Z</time></trkpt><trkpt lat="46.3258501" lon="11.0090867"><ele>658.75</ele><time>2026-04-25T09:15:58.6Z</time></trkpt><trkpt lat="46.3258671" lon="11.0092513"><ele>656.5</ele><time>2026-04-25T09:15:59.619Z</time></trkpt><trkpt lat="46.3258668" lon="11.0094145"><ele>654.25</ele><time>2026-04-25T09:16:00.626Z</time></trkpt><trkpt lat="46.3258584" lon="11.0095868"><ele>652.0</ele><time>2026-04-25T09:16:01.604Z</time></trkpt><trkpt lat="46.3258309" lon="11.0097811"><ele>652.0</ele><time>2026-04-25T09:16:02.619Z</time></trkpt><trkpt lat="46.3257984" lon="11.0099373"><ele>652.0</ele><time>2026-04-25T09:16:03.587Z</time></trkpt><trkpt lat="46.3257717" lon="11.0101114"><ele>652.0</ele><time>2026-04-25T09:16:04.593Z</time></trkpt><trkpt lat="46.3257531" lon="11.0102721"><ele>652.0</ele><time>2026-04-25T09:16:05.62Z</time></trkpt><trkpt lat="46.3257472" lon="11.0104271"><ele>652.0</ele><time>2026-04-25T09:16:06.604Z</time></trkpt><trkpt lat="46.325755" lon="11.010577"><ele>652.0</ele><time>2026-04-25T09:16:07.599Z</time></trkpt><trkpt lat="46.3257814" lon="11.0107237"><ele>652.0</ele><time>2026-04-25T09:16:08.591Z</time></trkpt><trkpt lat="46.3258137" lon="11.0108768"><ele>652.0</ele><time>2026-04-25T09:16:09.585Z</time></trkpt><trkpt lat="46.3258566" lon="11.0110204"><ele>652.0</ele><time>2026-04-25T09:16:10.625Z</time></trkpt><trkpt lat="46.3258974" lon="11.0111471"><ele>652.3333333333334</ele><time>2026-04-25T09:16:11.623Z</time></trkpt><trkpt lat="46.3259278" lon="11.0112617"><ele>652.6666666666667</ele><time>2026-04-25T09:16:12.634Z</time></trkpt><trkpt lat="46.3259307" lon="11.0113725"><ele>653.0</ele><time>2026-04-25T09:16:13.621Z</time></trkpt><trkpt lat="46.3259091" lon="11.0114736"><ele>653.3333333333334</ele><time>2026-04-25T09:16:14.596Z</time></trkpt><trkpt lat="46.3258549" lon="11.011575"><ele>653.6666666666666</ele><time>2026-04-25T09:16:15.632Z</time></trkpt><trkpt lat="46.325783" lon="11.011661"><ele>654.0</ele><time>2026-04-25T09:16:16.617Z</time></trkpt><trkpt lat="46.3256981" lon="11.01174"><ele>652.0</ele><time>2026-04-25T09:16:17.622Z</time></trkpt><trkpt lat="46.325597" lon="11.0117964"><ele>650.0</ele><time>2026-04-25T09:16:18.594Z</time></trkpt><trkpt lat="46.3254726" lon="11.0118283"><ele>648.0</ele><time>2026-04-25T09:16:19.628Z</time></trkpt><trkpt lat="46.3253453" lon="11.0118535"><ele>646.0</ele><time>2026-04-25T09:16:20.616Z</time></trkpt><trkpt lat="46.3252251" lon="11.0118753"><ele>646.0</ele><time>2026-04-25T09:16:21.593Z</time></trkpt><trkpt lat="46.3251087" lon="11.0118886"><ele>646.0</ele><time>2026-04-25T09:16:22.604Z</time></trkpt><trkpt lat="46.3249985" lon="11.011908"><ele>646.0</ele><time>2026-04-25T09:16:23.616Z</time></trkpt><trkpt lat="46.3249055" lon="11.0119504"><ele>646.0</ele><time>2026-04-25T09:16:24.638Z</time></trkpt><trkpt lat="46.3248231" lon="11.0120185"><ele>646.0</ele><time>2026-04-25T09:16:25.63Z</time></trkpt><trkpt lat="46.3247614" lon="11.012115"><ele>645.25</ele><time>2026-04-25T09:16:26.6Z</time></trkpt><trkpt lat="46.3247181" lon="11.0122465"><ele>644.5</ele><time>2026-04-25T09:16:27.602Z</time></trkpt><trkpt lat="46.3246919" lon="11.0124028"><ele>643.75</ele><time>2026-04-25T09:16:28.617Z</time></trkpt><trkpt lat="46.324669" lon="11.0125664"><ele>643.0</ele><time>2026-04-25T09:16:29.616Z</time></trkpt><trkpt lat="46.3246338" lon="11.0127377"><ele>643.0</ele><time>2026-04-25T09:16:30.636Z</time></trkpt><trkpt lat="46.3245989" lon="11.0128885"><ele>643.0</ele><time>2026-04-25T09:16:31.613Z</time></trkpt><trkpt lat="46.3245526" lon="11.0130187"><ele>643.0</ele><time>2026-04-25T09:16:32.636Z</time></trkpt><trkpt lat="46.3245072" lon="11.0131262"><ele>643.0</ele><time>2026-04-25T09:16:33.596Z</time></trkpt><trkpt lat="46.3244535" lon="11.0132394"><ele>643.0</ele><time>2026-04-25T09:16:34.621Z</time></trkpt><trkpt lat="46.3243956" lon="11.0133461"><ele>645.8</ele><time>2026-04-25T09:16:35.603Z</time></trkpt><trkpt lat="46.3243273" lon="11.0134574"><ele>648.5999999999999</ele><time>2026-04-25T09:16:36.607Z</time></trkpt><trkpt lat="46.3242494" lon="11.0135759"><ele>651.4000000000001</ele><time>2026-04-25T09:16:37.633Z</time></trkpt><trkpt lat="46.3241749" lon="11.01369"><ele>654.2</ele><time>2026-04-25T09:16:38.598Z</time></trkpt><trkpt lat="46.3240941" lon="11.0138112"><ele>657.0</ele><time>2026-04-25T09:16:39.594Z</time></trkpt><trkpt lat="46.3240114" lon="11.0139364"><ele>657.0</ele><time>2026-04-25T09:16:40.598Z</time></trkpt><trkpt lat="46.3239235" lon="11.0140782"><ele>657.0</ele><time>2026-04-25T09:16:41.625Z</time></trkpt><trkpt lat="46.3238384" lon="11.0142101"><ele>657.0</ele><time>2026-04-25T09:16:42.598Z</time></trkpt><trkpt lat="46.3237547" lon="11.0143379"><ele>657.0</ele><time>2026-04-25T09:16:43.612Z</time></trkpt><trkpt lat="46.3236697" lon="11.0144465"><ele>651.0</ele><time>2026-04-25T09:16:44.593Z</time></trkpt><trkpt lat="46.3235717" lon="11.0145355"><ele>645.0</ele><time>2026-04-25T09:16:45.623Z</time></trkpt><trkpt lat="46.3234676" lon="11.0146054"><ele>639.0</ele><time>2026-04-25T09:16:46.627Z</time></trkpt><trkpt lat="46.3233636" lon="11.0146671"><ele>633.0</ele><time>2026-04-25T09:16:47.597Z</time></trkpt><trkpt lat="46.3232515" lon="11.0147349"><ele>633.0</ele><time>2026-04-25T09:16:48.635Z</time></trkpt><trkpt lat="46.3231473" lon="11.0147987"><ele>633.0</ele><time>2026-04-25T09:16:49.619Z</time></trkpt><trkpt lat="46.3230465" lon="11.0148631"><ele>633.0</ele><time>2026-04-25T09:16:50.621Z</time></trkpt><trkpt lat="46.322956" lon="11.0149318"><ele>633.0</ele><time>2026-04-25T09:16:51.601Z</time></trkpt><trkpt lat="46.322866" lon="11.0150218"><ele>633.0</ele><time>2026-04-25T09:16:52.644Z</time></trkpt><trkpt lat="46.322798" lon="11.0151285"><ele>632.8</ele><time>2026-04-25T09:16:53.624Z</time></trkpt><trkpt lat="46.3227515" lon="11.0152526"><ele>632.5999999999999</ele><time>2026-04-25T09:16:54.593Z</time></trkpt><trkpt lat="46.3227228" lon="11.0154063"><ele>632.4000000000001</ele><time>2026-04-25T09:16:55.634Z</time></trkpt><trkpt lat="46.3227272" lon="11.015555"><ele>632.2</ele><time>2026-04-25T09:16:56.627Z</time></trkpt><trkpt lat="46.3227568" lon="11.0157243"><ele>632.0</ele><time>2026-04-25T09:16:57.613Z</time></trkpt><trkpt lat="46.3227961" lon="11.015904"><ele>632.0</ele><time>2026-04-25T09:16:58.628Z</time></trkpt><trkpt lat="46.3228331" lon="11.0160773"><ele>632.0</ele><time>2026-04-25T09:16:59.602Z</time></trkpt><trkpt lat="46.3228825" lon="11.0162592"><ele>632.0</ele><time>2026-04-25T09:17:00.623Z</time></trkpt><trkpt lat="46.3229368" lon="11.0164333"><ele>632.0</ele><time>2026-04-25T09:17:01.595Z</time></trkpt><trkpt lat="46.3230015" lon="11.0166217"><ele>632.0</ele><time>2026-04-25T09:17:02.616Z</time></trkpt><trkpt lat="46.3230641" lon="11.0167959"><ele>632.0</ele><time>2026-04-25T09:17:03.595Z</time></trkpt><trkpt lat="46.3231294" lon="11.0169637"><ele>632.0</ele><time>2026-04-25T09:17:04.603Z</time></trkpt><trkpt lat="46.3231945" lon="11.0171286"><ele>632.0</ele><time>2026-04-25T09:17:05.601Z</time></trkpt><trkpt lat="46.3232563" lon="11.0172968"><ele>633.5</ele><time>2026-04-25T09:17:06.631Z</time></trkpt><trkpt lat="46.3233139" lon="11.0174608"><ele>635.0</ele><time>2026-04-25T09:17:07.603Z</time></trkpt><trkpt lat="46.3233749" lon="11.0176354"><ele>636.5</ele><time>2026-04-25T09:17:08.607Z</time></trkpt><trkpt lat="46.3234399" lon="11.017804"><ele>638.0</ele><time>2026-04-25T09:17:09.603Z</time></trkpt><trkpt lat="46.3235079" lon="11.0179683"><ele>638.0</ele><time>2026-04-25T09:17:10.597Z</time></trkpt><trkpt lat="46.3235882" lon="11.0181253"><ele>638.0</ele><time>2026-04-25T09:17:11.627Z</time></trkpt><trkpt lat="46.3236677" lon="11.0182655"><ele>638.0</ele><time>2026-04-25T09:17:12.627Z</time></trkpt><trkpt lat="46.323746" lon="11.0183942"><ele>638.0</ele><time>2026-04-25T09:17:13.628Z</time></trkpt><trkpt lat="46.3238298" lon="11.0185175"><ele>639.5</ele><time>2026-04-25T09:17:14.633Z</time></trkpt><trkpt lat="46.3239163" lon="11.0186431"><ele>641.0</ele><time>2026-04-25T09:17:15.638Z</time></trkpt><trkpt lat="46.3240057" lon="11.0187687"><ele>642.5</ele><time>2026-04-25T09:17:16.625Z</time></trkpt><trkpt lat="46.3240954" lon="11.0188826"><ele>644.0</ele><time>2026-04-25T09:17:17.622Z</time></trkpt><trkpt lat="46.3241828" lon="11.0189908"><ele>644.0</ele><time>2026-04-25T09:17:18.629Z</time></trkpt><trkpt lat="46.3242679" lon="11.0190994"><ele>644.0</ele><time>2026-04-25T09:17:19.646Z</time></trkpt><trkpt lat="46.3243416" lon="11.0191992"><ele>644.0</ele><time>2026-04-25T09:17:20.629Z</time></trkpt><trkpt lat="46.3244071" lon="11.019296"><ele>644.0</ele><time>2026-04-25T09:17:21.598Z</time></trkpt><trkpt lat="46.3244738" lon="11.0194055"><ele>644.0</ele><time>2026-04-25T09:17:22.598Z</time></trkpt><trkpt lat="46.3245339" lon="11.0195271"><ele>642.4000000000001</ele><time>2026-04-25T09:17:23.626Z</time></trkpt><trkpt lat="46.3245973" lon="11.0196511"><ele>640.8000000000001</ele><time>2026-04-25T09:17:24.627Z</time></trkpt><trkpt lat="46.3246541" lon="11.0197773"><ele>639.2</ele><time>2026-04-25T09:17:25.633Z</time></trkpt><trkpt lat="46.3247095" lon="11.019911"><ele>637.6</ele><time>2026-04-25T09:17:26.641Z</time></trkpt><trkpt lat="46.3247727" lon="11.0200355"><ele>636.0</ele><time>2026-04-25T09:17:27.605Z</time></trkpt><trkpt lat="46.3248512" lon="11.0201624"><ele>636.0</ele><time>2026-04-25T09:17:28.627Z</time></trkpt><trkpt lat="46.3249342" lon="11.020276"><ele>636.0</ele><time>2026-04-25T09:17:29.602Z</time></trkpt><trkpt lat="46.3250092" lon="11.0203746"><ele>636.0</ele><time>2026-04-25T09:17:30.594Z</time></trkpt><trkpt lat="46.3250782" lon="11.0204623"><ele>636.0</ele><time>2026-04-25T09:17:31.635Z</time></trkpt><trkpt lat="46.3251323" lon="11.0205395"><ele>636.0</ele><time>2026-04-25T09:17:32.641Z</time></trkpt><trkpt lat="46.3251815" lon="11.0206128"><ele>636.0</ele><time>2026-04-25T09:17:33.63Z</time></trkpt><trkpt lat="46.3252263" lon="11.0206789"><ele>636.0</ele><time>2026-04-25T09:17:34.592Z</time></trkpt><trkpt lat="46.3252743" lon="11.0207646"><ele>636.0</ele><time>2026-04-25T09:17:35.622Z</time></trkpt><trkpt lat="46.3253125" lon="11.0208615"><ele>636.0</ele><time>2026-04-25T09:17:36.643Z</time></trkpt><trkpt lat="46.3253438" lon="11.0209647"><ele>636.0</ele><time>2026-04-25T09:17:37.618Z</time></trkpt><trkpt lat="46.3253606" lon="11.0210833"><ele>636.0</ele><time>2026-04-25T09:17:38.604Z</time></trkpt><trkpt lat="46.3253597" lon="11.0212083"><ele>634.6666666666666</ele><time>2026-04-25T09:17:39.627Z</time></trkpt><trkpt lat="46.3253411" lon="11.0213382"><ele>633.3333333333334</ele><time>2026-04-25T09:17:40.627Z</time></trkpt><trkpt lat="46.3253083" lon="11.0214671"><ele>632.0</ele><time>2026-04-25T09:17:41.636Z</time></trkpt><trkpt lat="46.3252719" lon="11.0215951"><ele>630.6666666666667</ele><time>2026-04-25T09:17:42.63Z</time></trkpt><trkpt lat="46.3252352" lon="11.0217146"><ele>629.3333333333334</ele><time>2026-04-25T09:17:43.621Z</time></trkpt><trkpt lat="46.3252048" lon="11.0218114"><ele>628.0</ele><time>2026-04-25T09:17:44.607Z</time></trkpt><trkpt lat="46.3251732" lon="11.0218938"><ele>627.0</ele><time>2026-04-25T09:17:45.613Z</time></trkpt><trkpt lat="46.3250998" lon="11.0220174"><ele>626.0</ele><time>2026-04-25T09:17:47.59Z</time></trkpt><trkpt lat="46.3249867" lon="11.0220788"><ele>625.0</ele><time>2026-04-25T09:17:49.644Z</time></trkpt><trkpt lat="46.3249023" lon="11.0220803"><ele>624.0</ele><time>2026-04-25T09:17:50.603Z</time></trkpt><trkpt lat="46.3247974" lon="11.0220689"><ele>623.0</ele><time>2026-04-25T09:17:51.618Z</time></trkpt><trkpt lat="46.3246787" lon="11.0220454"><ele>622.3333333333333</ele><time>2026-04-25T09:17:52.602Z</time></trkpt><trkpt lat="46.3245002" lon="11.0220248"><ele>621.6666666666666</ele><time>2026-04-25T09:17:53.937Z</time></trkpt><trkpt lat="46.3242388" lon="11.0219988"><ele>621.0</ele><time>2026-04-25T09:17:55.658Z</time></trkpt><trkpt lat="46.324101" lon="11.0219815"><ele>621.0</ele><time>2026-04-25T09:17:56.656Z</time></trkpt><trkpt lat="46.3239608" lon="11.0219637"><ele>621.0</ele><time>2026-04-25T09:17:57.687Z</time></trkpt><trkpt lat="46.323828" lon="11.0219534"><ele>621.0</ele><time>2026-04-25T09:17:58.676Z</time></trkpt><trkpt lat="46.3236965" lon="11.0219447"><ele>621.0</ele><time>2026-04-25T09:17:59.646Z</time></trkpt><trkpt lat="46.3235529" lon="11.0219324"><ele>619.5</ele><time>2026-04-25T09:18:00.659Z</time></trkpt><trkpt lat="46.3234134" lon="11.0219186"><ele>618.0</ele><time>2026-04-25T09:18:01.651Z</time></trkpt><trkpt lat="46.3232702" lon="11.0219073"><ele>616.5</ele><time>2026-04-25T09:18:02.654Z</time></trkpt><trkpt lat="46.3231258" lon="11.0218973"><ele>615.0</ele><time>2026-04-25T09:18:03.662Z</time></trkpt><trkpt lat="46.3229872" lon="11.0218878"><ele>613.75</ele><time>2026-04-25T09:18:04.647Z</time></trkpt><trkpt lat="46.3228374" lon="11.0218737"><ele>612.5</ele><time>2026-04-25T09:18:05.705Z</time></trkpt><trkpt lat="46.3227021" lon="11.0218601"><ele>611.25</ele><time>2026-04-25T09:18:06.684Z</time></trkpt><trkpt lat="46.3225646" lon="11.0218478"><ele>610.0</ele><time>2026-04-25T09:18:07.679Z</time></trkpt><trkpt lat="46.3224248" lon="11.0218327"><ele>610.0</ele><time>2026-04-25T09:18:08.687Z</time></trkpt><trkpt lat="46.3222887" lon="11.0218198"><ele>610.0</ele><time>2026-04-25T09:18:09.649Z</time></trkpt><trkpt lat="46.3221379" lon="11.0218075"><ele>610.0</ele><time>2026-04-25T09:18:10.715Z</time></trkpt><trkpt lat="46.321998" lon="11.0217999"><ele>610.0</ele><time>2026-04-25T09:18:11.701Z</time></trkpt><trkpt lat="46.3218633" lon="11.021797"><ele>610.25</ele><time>2026-04-25T09:18:12.645Z</time></trkpt><trkpt lat="46.3217133" lon="11.0217957"><ele>610.5</ele><time>2026-04-25T09:18:13.693Z</time></trkpt><trkpt lat="46.3215749" lon="11.021796"><ele>610.75</ele><time>2026-04-25T09:18:14.652Z</time></trkpt><trkpt lat="46.3214255" lon="11.0217953"><ele>611.0</ele><time>2026-04-25T09:18:15.69Z</time></trkpt><trkpt lat="46.3212896" lon="11.0217955"><ele>611.0</ele><time>2026-04-25T09:18:16.687Z</time></trkpt><trkpt lat="46.3211614" lon="11.0217971"><ele>611.0</ele><time>2026-04-25T09:18:17.676Z</time></trkpt><trkpt lat="46.3210398" lon="11.0217963"><ele>611.0</ele><time>2026-04-25T09:18:18.66Z</time></trkpt><trkpt lat="46.3209173" lon="11.021776"><ele>611.0</ele><time>2026-04-25T09:18:19.686Z</time></trkpt><trkpt lat="46.3208032" lon="11.0217268"><ele>611.5</ele><time>2026-04-25T09:18:20.654Z</time></trkpt><trkpt lat="46.3206873" lon="11.0216356"><ele>612.0</ele><time>2026-04-25T09:18:21.666Z</time></trkpt><trkpt lat="46.3205801" lon="11.0214998"><ele>612.5</ele><time>2026-04-25T09:18:22.692Z</time></trkpt><trkpt lat="46.3204905" lon="11.0213383"><ele>613.0</ele><time>2026-04-25T09:18:23.66Z</time></trkpt><trkpt lat="46.3203983" lon="11.0211545"><ele>607.6666666666667</ele><time>2026-04-25T09:18:24.667Z</time></trkpt><trkpt lat="46.3203017" lon="11.0209686"><ele>602.3333333333334</ele><time>2026-04-25T09:18:25.663Z</time></trkpt><trkpt lat="46.320204" lon="11.0207834"><ele>597.0</ele><time>2026-04-25T09:18:26.686Z</time></trkpt><trkpt lat="46.3201121" lon="11.0206092"><ele>597.0</ele><time>2026-04-25T09:18:27.678Z</time></trkpt><trkpt lat="46.3200314" lon="11.0204564"><ele>597.0</ele><time>2026-04-25T09:18:28.649Z</time></trkpt><trkpt lat="46.3199578" lon="11.0203134"><ele>597.0</ele><time>2026-04-25T09:18:29.652Z</time></trkpt><trkpt lat="46.3198977" lon="11.0201761"><ele>597.0</ele><time>2026-04-25T09:18:30.658Z</time></trkpt><trkpt lat="46.3198634" lon="11.0200304"><ele>594.2</ele><time>2026-04-25T09:18:31.681Z</time></trkpt><trkpt lat="46.3198504" lon="11.0198892"><ele>591.4000000000001</ele><time>2026-04-25T09:18:32.615Z</time></trkpt><trkpt lat="46.3198648" lon="11.0197461"><ele>588.5999999999999</ele><time>2026-04-25T09:18:33.588Z</time></trkpt><trkpt lat="46.3199023" lon="11.0195977"><ele>585.8</ele><time>2026-04-25T09:18:34.608Z</time></trkpt><trkpt lat="46.3199902" lon="11.0194626"><ele>583.0</ele><time>2026-04-25T09:18:35.633Z</time></trkpt><trkpt lat="46.3200914" lon="11.019379"><ele>583.0</ele><time>2026-04-25T09:18:36.602Z</time></trkpt><trkpt lat="46.3201968" lon="11.0192673"><ele>583.0</ele><time>2026-04-25T09:18:37.633Z</time></trkpt><trkpt lat="46.3202881" lon="11.0191517"><ele>583.0</ele><time>2026-04-25T09:18:38.618Z</time></trkpt><trkpt lat="46.3203614" lon="11.0190214"><ele>583.0</ele><time>2026-04-25T09:18:39.591Z</time></trkpt><trkpt lat="46.3204326" lon="11.0188796"><ele>587.6666666666667</ele><time>2026-04-25T09:18:40.602Z</time></trkpt><trkpt lat="46.320508" lon="11.0187188"><ele>592.3333333333334</ele><time>2026-04-25T09:18:41.622Z</time></trkpt><trkpt lat="46.3205836" lon="11.0185552"><ele>597.0</ele><time>2026-04-25T09:18:42.632Z</time></trkpt><trkpt lat="46.3206849" lon="11.0183323"><ele>591.6666666666666</ele><time>2026-04-25T09:18:43.979Z</time></trkpt><trkpt lat="46.3208174" lon="11.0180516"><ele>586.3333333333333</ele><time>2026-04-25T09:18:45.676Z</time></trkpt><trkpt lat="46.3208851" lon="11.0178943"><ele>581.0</ele><time>2026-04-25T09:18:46.699Z</time></trkpt><trkpt lat="46.3209401" lon="11.0177423"><ele>581.0</ele><time>2026-04-25T09:18:47.68Z</time></trkpt><trkpt lat="46.3209841" lon="11.0175958"><ele>581.0</ele><time>2026-04-25T09:18:48.679Z</time></trkpt><trkpt lat="46.3210153" lon="11.0174673"><ele>581.0</ele><time>2026-04-25T09:18:49.605Z</time></trkpt><trkpt lat="46.3210493" lon="11.0173478"><ele>581.0</ele><time>2026-04-25T09:18:50.619Z</time></trkpt><trkpt lat="46.3210769" lon="11.0172472"><ele>581.0</ele><time>2026-04-25T09:18:51.627Z</time></trkpt><trkpt lat="46.3210549" lon="11.0170851"><ele>581.0</ele><time>2026-04-25T09:18:53.623Z</time></trkpt><trkpt lat="46.3209577" lon="11.0170582"><ele>581.0</ele><time>2026-04-25T09:18:55.611Z</time></trkpt><trkpt lat="46.3209033" lon="11.0172158"><ele>581.0</ele><time>2026-04-25T09:18:57.621Z</time></trkpt><trkpt lat="46.3208937" lon="11.0173486"><ele>581.0</ele><time>2026-04-25T09:18:58.608Z</time></trkpt><trkpt lat="46.3208736" lon="11.0175033"><ele>581.0</ele><time>2026-04-25T09:18:59.605Z</time></trkpt><trkpt lat="46.3208313" lon="11.0176711"><ele>581.0</ele><time>2026-04-25T09:19:00.589Z</time></trkpt><trkpt lat="46.3207471" lon="11.0178573"><ele>581.0</ele><time>2026-04-25T09:19:01.633Z</time></trkpt><trkpt lat="46.3206451" lon="11.0180133"><ele>581.0</ele><time>2026-04-25T09:19:02.641Z</time></trkpt><trkpt lat="46.3205395" lon="11.0181519"><ele>581.0</ele><time>2026-04-25T09:19:03.604Z</time></trkpt><trkpt lat="46.3203788" lon="11.0183662"><ele>576.3333333333333</ele><time>2026-04-25T09:19:04.948Z</time></trkpt><trkpt lat="46.3202269" lon="11.018643"><ele>571.6666666666666</ele><time>2026-04-25T09:19:06.653Z</time></trkpt><trkpt lat="46.3201285" lon="11.0187891"><ele>567.0</ele><time>2026-04-25T09:19:07.675Z</time></trkpt><trkpt lat="46.3200248" lon="11.018903"><ele>567.0</ele><time>2026-04-25T09:19:08.678Z</time></trkpt><trkpt lat="46.3199169" lon="11.0189814"><ele>567.0</ele><time>2026-04-25T09:19:09.653Z</time></trkpt><trkpt lat="46.319802" lon="11.0190419"><ele>567.0</ele><time>2026-04-25T09:19:10.679Z</time></trkpt><trkpt lat="46.3196968" lon="11.0191022"><ele>567.0</ele><time>2026-04-25T09:19:11.656Z</time></trkpt><trkpt lat="46.319597" lon="11.01918"><ele>565.0</ele><time>2026-04-25T09:19:12.688Z</time></trkpt><trkpt lat="46.3195114" lon="11.0192768"><ele>563.0</ele><time>2026-04-25T09:19:13.699Z</time></trkpt><trkpt lat="46.319445" lon="11.0193871"><ele>561.0</ele><time>2026-04-25T09:19:14.652Z</time></trkpt><trkpt lat="46.3193948" lon="11.0195275"><ele>559.0</ele><time>2026-04-25T09:19:15.694Z</time></trkpt><trkpt lat="46.3193712" lon="11.0196732"><ele>557.0</ele><time>2026-04-25T09:19:16.656Z</time></trkpt><trkpt lat="46.3193727" lon="11.0198476"><ele>558.0</ele><time>2026-04-25T09:19:17.691Z</time></trkpt><trkpt lat="46.319397" lon="11.0200323"><ele>559.0</ele><time>2026-04-25T09:19:18.705Z</time></trkpt><trkpt lat="46.319431" lon="11.0202116"><ele>560.0</ele><time>2026-04-25T09:19:19.657Z</time></trkpt><trkpt lat="46.31947" lon="11.0203989"><ele>561.0</ele><time>2026-04-25T09:19:20.69Z</time></trkpt><trkpt lat="46.3194996" lon="11.0205721"><ele>561.0</ele><time>2026-04-25T09:19:21.674Z</time></trkpt><trkpt lat="46.3195112" lon="11.0207519"><ele>561.0</ele><time>2026-04-25T09:19:22.66Z</time></trkpt><trkpt lat="46.3194969" lon="11.0209478"><ele>561.0</ele><time>2026-04-25T09:19:23.681Z</time></trkpt><trkpt lat="46.3194538" lon="11.0211319"><ele>561.0</ele><time>2026-04-25T09:19:24.645Z</time></trkpt><trkpt lat="46.3193787" lon="11.0213096"><ele>559.0</ele><time>2026-04-25T09:19:25.679Z</time></trkpt><trkpt lat="46.31928" lon="11.0214616"><ele>557.0</ele><time>2026-04-25T09:19:26.676Z</time></trkpt><trkpt lat="46.3191679" lon="11.0216064"><ele>555.0</ele><time>2026-04-25T09:19:27.675Z</time></trkpt><trkpt lat="46.3190544" lon="11.0217609"><ele>559.3333333333334</ele><time>2026-04-25T09:19:28.685Z</time></trkpt><trkpt lat="46.3189527" lon="11.0219274"><ele>563.6666666666667</ele><time>2026-04-25T09:19:29.659Z</time></trkpt><trkpt lat="46.3188603" lon="11.0221"><ele>568.0</ele><time>2026-04-25T09:19:30.652Z</time></trkpt><trkpt lat="46.318772" lon="11.0222679"><ele>563.25</ele><time>2026-04-25T09:19:31.659Z</time></trkpt><trkpt lat="46.3186828" lon="11.0224382"><ele>558.5</ele><time>2026-04-25T09:19:32.692Z</time></trkpt><trkpt lat="46.3185967" lon="11.0225969"><ele>553.75</ele><time>2026-04-25T09:19:33.653Z</time></trkpt><trkpt lat="46.3185046" lon="11.0227599"><ele>549.0</ele><time>2026-04-25T09:19:34.65Z</time></trkpt><trkpt lat="46.3184141" lon="11.0229125"><ele>549.0</ele><time>2026-04-25T09:19:35.649Z</time></trkpt><trkpt lat="46.3183236" lon="11.0230623"><ele>549.0</ele><time>2026-04-25T09:19:36.685Z</time></trkpt><trkpt lat="46.3182414" lon="11.0231995"><ele>549.0</ele><time>2026-04-25T09:19:37.688Z</time></trkpt><trkpt lat="46.3181624" lon="11.0233299"><ele>549.0</ele><time>2026-04-25T09:19:38.681Z</time></trkpt><trkpt lat="46.3180883" lon="11.0234515"><ele>545.8</ele><time>2026-04-25T09:19:39.661Z</time></trkpt><trkpt lat="46.318013" lon="11.0235745"><ele>542.5999999999999</ele><time>2026-04-25T09:19:40.687Z</time></trkpt><trkpt lat="46.317948" lon="11.0236886"><ele>539.4</ele><time>2026-04-25T09:19:41.681Z</time></trkpt><trkpt lat="46.3178918" lon="11.0237965"><ele>536.1999999999999</ele><time>2026-04-25T09:19:42.653Z</time></trkpt><trkpt lat="46.317839" lon="11.0238968"><ele>533.0</ele><time>2026-04-25T09:19:43.665Z</time></trkpt><trkpt lat="46.3177885" lon="11.0239829"><ele>533.0</ele><time>2026-04-25T09:19:44.624Z</time></trkpt><trkpt lat="46.3177387" lon="11.0240437"><ele>533.0</ele><time>2026-04-25T09:19:45.641Z</time></trkpt><trkpt lat="46.3176554" lon="11.0240242"><ele>533.0</ele><time>2026-04-25T09:19:47.609Z</time></trkpt><trkpt lat="46.3176936" lon="11.0238478"><ele>533.0</ele><time>2026-04-25T09:19:49.631Z</time></trkpt><trkpt lat="46.3177648" lon="11.0237529"><ele>533.0</ele><time>2026-04-25T09:19:50.629Z</time></trkpt><trkpt lat="46.3178532" lon="11.023651"><ele>533.0</ele><time>2026-04-25T09:19:51.605Z</time></trkpt><trkpt lat="46.3179395" lon="11.0235335"><ele>533.0</ele><time>2026-04-25T09:19:52.599Z</time></trkpt><trkpt lat="46.3180243" lon="11.0233879"><ele>533.0</ele><time>2026-04-25T09:19:53.636Z</time></trkpt><trkpt lat="46.3181065" lon="11.0232275"><ele>533.0</ele><time>2026-04-25T09:19:54.607Z</time></trkpt><trkpt lat="46.3181865" lon="11.023038"><ele>534.0</ele><time>2026-04-25T09:19:55.604Z</time></trkpt><trkpt lat="46.3182604" lon="11.0228461"><ele>535.0</ele><time>2026-04-25T09:19:56.634Z</time></trkpt><trkpt lat="46.3183225" lon="11.0226652"><ele>536.0</ele><time>2026-04-25T09:19:57.621Z</time></trkpt><trkpt lat="46.3183695" lon="11.0224804"><ele>537.0</ele><time>2026-04-25T09:19:58.633Z</time></trkpt><trkpt lat="46.3183984" lon="11.0223041"><ele>537.0</ele><time>2026-04-25T09:19:59.639Z</time></trkpt><trkpt lat="46.3184141" lon="11.0221278"><ele>537.0</ele><time>2026-04-25T09:20:00.616Z</time></trkpt><trkpt lat="46.3184189" lon="11.0219493"><ele>537.0</ele><time>2026-04-25T09:20:01.644Z</time></trkpt><trkpt lat="46.3184209" lon="11.0217875"><ele>537.0</ele><time>2026-04-25T09:20:02.634Z</time></trkpt><trkpt lat="46.3184294" lon="11.0216434"><ele>534.6</ele><time>2026-04-25T09:20:03.627Z</time></trkpt><trkpt lat="46.3184665" lon="11.0215213"><ele>532.2</ele><time>2026-04-25T09:20:04.622Z</time></trkpt><trkpt lat="46.3185277" lon="11.0214409"><ele>529.8</ele><time>2026-04-25T09:20:05.603Z</time></trkpt><trkpt lat="46.3186075" lon="11.0213729"><ele>527.4</ele><time>2026-04-25T09:20:06.641Z</time></trkpt><trkpt lat="46.3186908" lon="11.0213086"><ele>525.0</ele><time>2026-04-25T09:20:07.621Z</time></trkpt><trkpt lat="46.3187691" lon="11.0212306"><ele>525.0</ele><time>2026-04-25T09:20:08.631Z</time></trkpt><trkpt lat="46.3188274" lon="11.0211298"><ele>525.0</ele><time>2026-04-25T09:20:09.602Z</time></trkpt><trkpt lat="46.3188632" lon="11.0210076"><ele>525.0</ele><time>2026-04-25T09:20:10.604Z</time></trkpt><trkpt lat="46.3188859" lon="11.0208425"><ele>525.0</ele><time>2026-04-25T09:20:11.64Z</time></trkpt><trkpt lat="46.3188731" lon="11.0206893"><ele>525.0</ele><time>2026-04-25T09:20:12.596Z</time></trkpt><trkpt lat="46.3188257" lon="11.0205376"><ele>527.0</ele><time>2026-04-25T09:20:13.636Z</time></trkpt><trkpt lat="46.3187443" lon="11.0204096"><ele>529.0</ele><time>2026-04-25T09:20:14.609Z</time></trkpt><trkpt lat="46.3186344" lon="11.0202951"><ele>531.0</ele><time>2026-04-25T09:20:15.631Z</time></trkpt><trkpt lat="46.3185243" lon="11.0201827"><ele>533.0</ele><time>2026-04-25T09:20:16.602Z</time></trkpt><trkpt lat="46.318411" lon="11.0200744"><ele>531.8</ele><time>2026-04-25T09:20:17.647Z</time></trkpt><trkpt lat="46.3183132" lon="11.0199817"><ele>530.5999999999999</ele><time>2026-04-25T09:20:18.63Z</time></trkpt><trkpt lat="46.3182326" lon="11.019879"><ele>529.4000000000001</ele><time>2026-04-25T09:20:19.62Z</time></trkpt><trkpt lat="46.3181978" lon="11.0197746"><ele>528.2</ele><time>2026-04-25T09:20:20.623Z</time></trkpt><trkpt lat="46.3181872" lon="11.0196461"><ele>527.0</ele><time>2026-04-25T09:20:21.606Z</time></trkpt><trkpt lat="46.3182163" lon="11.0195116"><ele>527.0</ele><time>2026-04-25T09:20:22.598Z</time></trkpt><trkpt lat="46.3182835" lon="11.0193759"><ele>527.0</ele><time>2026-04-25T09:20:23.637Z</time></trkpt><trkpt lat="46.318359" lon="11.0192465"><ele>527.0</ele><time>2026-04-25T09:20:24.62Z</time></trkpt><trkpt lat="46.3184116" lon="11.0191113"><ele>527.0</ele><time>2026-04-25T09:20:25.6Z</time></trkpt><trkpt lat="46.3184397" lon="11.018966"><ele>527.0</ele><time>2026-04-25T09:20:26.62Z</time></trkpt><trkpt lat="46.3184506" lon="11.0188278"><ele>523.6</ele><time>2026-04-25T09:20:27.626Z</time></trkpt><trkpt lat="46.3184582" lon="11.018691"><ele>520.2</ele><time>2026-04-25T09:20:28.625Z</time></trkpt><trkpt lat="46.3184796" lon="11.0185574"><ele>516.8</ele><time>2026-04-25T09:20:29.632Z</time></trkpt><trkpt lat="46.3185215" lon="11.0184366"><ele>513.4</ele><time>2026-04-25T09:20:30.606Z</time></trkpt><trkpt lat="46.3185853" lon="11.0183445"><ele>510.0</ele><time>2026-04-25T09:20:31.629Z</time></trkpt><trkpt lat="46.3186797" lon="11.0182704"><ele>511.2</ele><time>2026-04-25T09:20:32.622Z</time></trkpt><trkpt lat="46.3187899" lon="11.0182251"><ele>512.4</ele><time>2026-04-25T09:20:33.6Z</time></trkpt><trkpt lat="46.3189001" lon="11.018192"><ele>513.6</ele><time>2026-04-25T09:20:34.619Z</time></trkpt><trkpt lat="46.3190069" lon="11.0181585"><ele>514.8</ele><time>2026-04-25T09:20:35.597Z</time></trkpt><trkpt lat="46.3191064" lon="11.0181115"><ele>516.0</ele><time>2026-04-25T09:20:36.622Z</time></trkpt><trkpt lat="46.3191965" lon="11.0180322"><ele>516.0</ele><time>2026-04-25T09:20:37.639Z</time></trkpt><trkpt lat="46.3192493" lon="11.0179358"><ele>516.0</ele><time>2026-04-25T09:20:38.6Z</time></trkpt><trkpt lat="46.3192869" lon="11.0178"><ele>516.0</ele><time>2026-04-25T09:20:39.604Z</time></trkpt><trkpt lat="46.3193219" lon="11.017616"><ele>516.0</ele><time>2026-04-25T09:20:40.628Z</time></trkpt><trkpt lat="46.3193613" lon="11.0173983"><ele>510.0</ele><time>2026-04-25T09:20:41.644Z</time></trkpt><trkpt lat="46.3194077" lon="11.0171824"><ele>504.0</ele><time>2026-04-25T09:20:42.63Z</time></trkpt><trkpt lat="46.3194821" lon="11.0169516"><ele>498.0</ele><time>2026-04-25T09:20:43.637Z</time></trkpt><trkpt lat="46.3195569" lon="11.0167329"><ele>498.0</ele><time>2026-04-25T09:20:44.636Z</time></trkpt><trkpt lat="46.3196372" lon="11.0165224"><ele>498.0</ele><time>2026-04-25T09:20:45.626Z</time></trkpt><trkpt lat="46.3197091" lon="11.0163248"><ele>498.0</ele><time>2026-04-25T09:20:46.634Z</time></trkpt><trkpt lat="46.3197762" lon="11.0161508"><ele>500.25</ele><time>2026-04-25T09:20:47.623Z</time></trkpt><trkpt lat="46.3198454" lon="11.0159847"><ele>502.5</ele><time>2026-04-25T09:20:48.638Z</time></trkpt><trkpt lat="46.3199063" lon="11.0158304"><ele>504.75</ele><time>2026-04-25T09:20:49.609Z</time></trkpt><trkpt lat="46.3199632" lon="11.0156714"><ele>507.0</ele><time>2026-04-25T09:20:50.624Z</time></trkpt><trkpt lat="46.320011" lon="11.0155088"><ele>507.0</ele><time>2026-04-25T09:20:51.621Z</time></trkpt><trkpt lat="46.3200527" lon="11.0153475"><ele>507.0</ele><time>2026-04-25T09:20:52.607Z</time></trkpt><trkpt lat="46.3201005" lon="11.0151834"><ele>507.0</ele><time>2026-04-25T09:20:53.633Z</time></trkpt><trkpt lat="46.3201401" lon="11.0150277"><ele>507.0</ele><time>2026-04-25T09:20:54.603Z</time></trkpt><trkpt lat="46.320181" lon="11.014859"><ele>507.40000000000003</ele><time>2026-04-25T09:20:55.638Z</time></trkpt><trkpt lat="46.3202228" lon="11.014704"><ele>507.80000000000007</ele><time>2026-04-25T09:20:56.625Z</time></trkpt><trkpt lat="46.3202643" lon="11.0145584"><ele>508.2</ele><time>2026-04-25T09:20:57.594Z</time></trkpt><trkpt lat="46.3203118" lon="11.0144076"><ele>508.6</ele><time>2026-04-25T09:20:58.628Z</time></trkpt><trkpt lat="46.320364" lon="11.0142744"><ele>509.0</ele><time>2026-04-25T09:20:59.607Z</time></trkpt><trkpt lat="46.3204245" lon="11.0141557"><ele>512.2</ele><time>2026-04-25T09:21:00.639Z</time></trkpt><trkpt lat="46.3204834" lon="11.0140507"><ele>515.4</ele><time>2026-04-25T09:21:01.609Z</time></trkpt><trkpt lat="46.3205226" lon="11.0139451"><ele>518.6</ele><time>2026-04-25T09:21:02.646Z</time></trkpt><trkpt lat="46.3205259" lon="11.0137586"><ele>521.8</ele><time>2026-04-25T09:21:04.633Z</time></trkpt><trkpt lat="46.3204949" lon="11.0136473"><ele>525.0</ele><time>2026-04-25T09:21:05.634Z</time></trkpt><trkpt lat="46.3204356" lon="11.01354"><ele>525.0</ele><time>2026-04-25T09:21:06.605Z</time></trkpt><trkpt lat="46.3203587" lon="11.0134651"><ele>525.0</ele><time>2026-04-25T09:21:07.637Z</time></trkpt><trkpt lat="46.3202639" lon="11.0134292"><ele>525.0</ele><time>2026-04-25T09:21:08.64Z</time></trkpt><trkpt lat="46.320174" lon="11.0134364"><ele>525.0</ele><time>2026-04-25T09:21:09.629Z</time></trkpt><trkpt lat="46.3200711" lon="11.0134874"><ele>525.0</ele><time>2026-04-25T09:21:10.627Z</time></trkpt><trkpt lat="46.3199518" lon="11.0135629"><ele>525.0</ele><time>2026-04-25T09:21:11.606Z</time></trkpt><trkpt lat="46.3198269" lon="11.0136587"><ele>525.0</ele><time>2026-04-25T09:21:12.602Z</time></trkpt><trkpt lat="46.3196973" lon="11.013785"><ele>525.0</ele><time>2026-04-25T09:21:13.637Z</time></trkpt><trkpt lat="46.3195778" lon="11.0139269"><ele>527.6666666666666</ele><time>2026-04-25T09:21:14.63Z</time></trkpt><trkpt lat="46.3194571" lon="11.0140841"><ele>530.3333333333333</ele><time>2026-04-25T09:21:15.619Z</time></trkpt><trkpt lat="46.3193314" lon="11.0142419"><ele>533.0</ele><time>2026-04-25T09:21:16.607Z</time></trkpt><trkpt lat="46.3191907" lon="11.0144171"><ele>533.0</ele><time>2026-04-25T09:21:17.623Z</time></trkpt><trkpt lat="46.3190595" lon="11.0145856"><ele>533.0</ele><time>2026-04-25T09:21:18.6Z</time></trkpt><trkpt lat="46.3189145" lon="11.0147683"><ele>533.0</ele><time>2026-04-25T09:21:19.633Z</time></trkpt><trkpt lat="46.3187785" lon="11.0149407"><ele>535.6666666666666</ele><time>2026-04-25T09:21:20.605Z</time></trkpt><trkpt lat="46.3186357" lon="11.0151268"><ele>538.3333333333334</ele><time>2026-04-25T09:21:21.624Z</time></trkpt><trkpt lat="46.3185004" lon="11.0153073"><ele>541.0</ele><time>2026-04-25T09:21:22.618Z</time></trkpt><trkpt lat="46.3183656" lon="11.0154771"><ele>541.0</ele><time>2026-04-25T09:21:23.647Z</time></trkpt><trkpt lat="46.3182202" lon="11.0156215"><ele>541.0</ele><time>2026-04-25T09:21:24.637Z</time></trkpt><trkpt lat="46.3180615" lon="11.0157419"><ele>541.0</ele><time>2026-04-25T09:21:25.62Z</time></trkpt><trkpt lat="46.3178965" lon="11.0158335"><ele>540.3333333333334</ele><time>2026-04-25T09:21:26.646Z</time></trkpt><trkpt lat="46.3177315" lon="11.0159096"><ele>539.6666666666666</ele><time>2026-04-25T09:21:27.613Z</time></trkpt><trkpt lat="46.3175732" lon="11.0159969"><ele>539.0</ele><time>2026-04-25T09:21:28.639Z</time></trkpt><trkpt lat="46.3174347" lon="11.0160909"><ele>539.0</ele><time>2026-04-25T09:21:29.639Z</time></trkpt><trkpt lat="46.3173082" lon="11.0161889"><ele>539.0</ele><time>2026-04-25T09:21:30.606Z</time></trkpt><trkpt lat="46.3171845" lon="11.0162893"><ele>539.0</ele><time>2026-04-25T09:21:31.627Z</time></trkpt><trkpt lat="46.3170632" lon="11.0163469"><ele>539.0</ele><time>2026-04-25T09:21:32.617Z</time></trkpt><trkpt lat="46.3169487" lon="11.0163422"><ele>539.25</ele><time>2026-04-25T09:21:33.605Z</time></trkpt><trkpt lat="46.3168402" lon="11.0162788"><ele>539.5</ele><time>2026-04-25T09:21:34.597Z</time></trkpt><trkpt lat="46.3167518" lon="11.0161537"><ele>539.75</ele><time>2026-04-25T09:21:35.606Z</time></trkpt><trkpt lat="46.316667" lon="11.016003"><ele>540.0</ele><time>2026-04-25T09:21:36.638Z</time></trkpt><trkpt lat="46.3165936" lon="11.0158597"><ele>545.0</ele><time>2026-04-25T09:21:37.635Z</time></trkpt><trkpt lat="46.3165151" lon="11.0157382"><ele>550.0</ele><time>2026-04-25T09:21:38.638Z</time></trkpt><trkpt lat="46.3164349" lon="11.0156515"><ele>555.0</ele><time>2026-04-25T09:21:39.633Z</time></trkpt><trkpt lat="46.3163519" lon="11.0155978"><ele>560.0</ele><time>2026-04-25T09:21:40.634Z</time></trkpt><trkpt lat="46.3162548" lon="11.0155811"><ele>565.0</ele><time>2026-04-25T09:21:41.645Z</time></trkpt><trkpt lat="46.3161866" lon="11.0156165"><ele>565.0</ele><time>2026-04-25T09:21:42.641Z</time></trkpt><trkpt lat="46.3161443" lon="11.0156879"><ele>565.0</ele><time>2026-04-25T09:21:43.621Z</time></trkpt><trkpt lat="46.3160694" lon="11.0158414"><ele>565.0</ele><time>2026-04-25T09:21:44.625Z</time></trkpt><trkpt lat="46.3160295" lon="11.0160197"><ele>565.0</ele><time>2026-04-25T09:21:45.64Z</time></trkpt><trkpt lat="46.316009" lon="11.0162249"><ele>562.0</ele><time>2026-04-25T09:21:46.633Z</time></trkpt><trkpt lat="46.3159966" lon="11.0164462"><ele>559.0</ele><time>2026-04-25T09:21:47.64Z</time></trkpt><trkpt lat="46.3159852" lon="11.016681"><ele>556.0</ele><time>2026-04-25T09:21:48.636Z</time></trkpt><trkpt lat="46.3159735" lon="11.0169237"><ele>556.0</ele><time>2026-04-25T09:21:49.63Z</time></trkpt><trkpt lat="46.3159671" lon="11.0171443"><ele>556.0</ele><time>2026-04-25T09:21:50.643Z</time></trkpt><trkpt lat="46.3159729" lon="11.017341"><ele>556.0</ele><time>2026-04-25T09:21:51.646Z</time></trkpt><trkpt lat="46.3159973" lon="11.0174776"><ele>556.0</ele><time>2026-04-25T09:21:52.608Z</time></trkpt><trkpt lat="46.3160221" lon="11.0176297"><ele>556.0</ele><time>2026-04-25T09:21:53.627Z</time></trkpt><trkpt lat="46.3160347" lon="11.0177969"><ele>556.0</ele><time>2026-04-25T09:21:54.649Z</time></trkpt><trkpt lat="46.3160256" lon="11.0179659"><ele>556.0</ele><time>2026-04-25T09:21:55.631Z</time></trkpt><trkpt lat="46.3159839" lon="11.0181461"><ele>556.0</ele><time>2026-04-25T09:21:56.626Z</time></trkpt><trkpt lat="46.3159178" lon="11.0183153"><ele>553.0</ele><time>2026-04-25T09:21:57.649Z</time></trkpt><trkpt lat="46.3158316" lon="11.0184568"><ele>550.0</ele><time>2026-04-25T09:21:58.639Z</time></trkpt><trkpt lat="46.3157393" lon="11.0185648"><ele>547.0</ele><time>2026-04-25T09:21:59.633Z</time></trkpt><trkpt lat="46.3156417" lon="11.0186426"><ele>544.0</ele><time>2026-04-25T09:22:00.599Z</time></trkpt><trkpt lat="46.3155378" lon="11.018699"><ele>550.2</ele><time>2026-04-25T09:22:01.628Z</time></trkpt><trkpt lat="46.3154592" lon="11.0187496"><ele>556.4</ele><time>2026-04-25T09:22:02.611Z</time></trkpt><trkpt lat="46.3154117" lon="11.0189177"><ele>562.6</ele><time>2026-04-25T09:22:04.638Z</time></trkpt><trkpt lat="46.3154258" lon="11.0190449"><ele>568.8</ele><time>2026-04-25T09:22:05.632Z</time></trkpt><trkpt lat="46.3154643" lon="11.0191862"><ele>575.0</ele><time>2026-04-25T09:22:06.642Z</time></trkpt><trkpt lat="46.3154926" lon="11.0193397"><ele>575.0</ele><time>2026-04-25T09:22:07.61Z</time></trkpt><trkpt lat="46.315537" lon="11.0195058"><ele>575.0</ele><time>2026-04-25T09:22:08.63Z</time></trkpt><trkpt lat="46.3155763" lon="11.019667"><ele>575.0</ele><time>2026-04-25T09:22:09.634Z</time></trkpt><trkpt lat="46.3156096" lon="11.019809"><ele>575.0</ele><time>2026-04-25T09:22:10.627Z</time></trkpt><trkpt lat="46.3156273" lon="11.0199454"><ele>575.0</ele><time>2026-04-25T09:22:11.625Z</time></trkpt><trkpt lat="46.3156185" lon="11.0200875"><ele>572.25</ele><time>2026-04-25T09:22:12.605Z</time></trkpt><trkpt lat="46.3155674" lon="11.0202108"><ele>569.5</ele><time>2026-04-25T09:22:13.643Z</time></trkpt><trkpt lat="46.3154829" lon="11.0202978"><ele>566.75</ele><time>2026-04-25T09:22:14.624Z</time></trkpt><trkpt lat="46.3153638" lon="11.0203556"><ele>564.0</ele><time>2026-04-25T09:22:15.605Z</time></trkpt><trkpt lat="46.3152124" lon="11.0203774"><ele>564.0</ele><time>2026-04-25T09:22:16.608Z</time></trkpt><trkpt lat="46.3150758" lon="11.0203255"><ele>564.0</ele><time>2026-04-25T09:22:17.626Z</time></trkpt><trkpt lat="46.3149444" lon="11.020239"><ele>564.0</ele><time>2026-04-25T09:22:18.627Z</time></trkpt><trkpt lat="46.3148216" lon="11.0201378"><ele>564.0</ele><time>2026-04-25T09:22:19.616Z</time></trkpt><trkpt lat="46.3147037" lon="11.0200261"><ele>570.2</ele><time>2026-04-25T09:22:20.63Z</time></trkpt><trkpt lat="46.3146052" lon="11.0199367"><ele>576.4</ele><time>2026-04-25T09:22:21.646Z</time></trkpt><trkpt lat="46.3145104" lon="11.0198653"><ele>582.6</ele><time>2026-04-25T09:22:22.641Z</time></trkpt><trkpt lat="46.3144168" lon="11.0198303"><ele>588.8</ele><time>2026-04-25T09:22:23.627Z</time></trkpt><trkpt lat="46.3143205" lon="11.0198355"><ele>595.0</ele><time>2026-04-25T09:22:24.637Z</time></trkpt><trkpt lat="46.31422" lon="11.0198674"><ele>595.0</ele><time>2026-04-25T09:22:25.64Z</time></trkpt><trkpt lat="46.3141029" lon="11.0199197"><ele>595.0</ele><time>2026-04-25T09:22:26.627Z</time></trkpt><trkpt lat="46.3139744" lon="11.0199853"><ele>595.0</ele><time>2026-04-25T09:22:27.655Z</time></trkpt><trkpt lat="46.3138493" lon="11.0200723"><ele>595.0</ele><time>2026-04-25T09:22:28.643Z</time></trkpt><trkpt lat="46.3137493" lon="11.0201716"><ele>595.0</ele><time>2026-04-25T09:22:29.604Z</time></trkpt><trkpt lat="46.3136616" lon="11.0203175"><ele>595.0</ele><time>2026-04-25T09:22:30.615Z</time></trkpt><trkpt lat="46.3136166" lon="11.0204753"><ele>595.0</ele><time>2026-04-25T09:22:31.639Z</time></trkpt><trkpt lat="46.3136011" lon="11.0206474"><ele>595.0</ele><time>2026-04-25T09:22:32.649Z</time></trkpt><trkpt lat="46.3136051" lon="11.0208143"><ele>593.75</ele><time>2026-04-25T09:22:33.602Z</time></trkpt><trkpt lat="46.3135984" lon="11.0210022"><ele>592.5</ele><time>2026-04-25T09:22:34.599Z</time></trkpt><trkpt lat="46.3135872" lon="11.0211977"><ele>591.25</ele><time>2026-04-25T09:22:35.606Z</time></trkpt><trkpt lat="46.31356" lon="11.021344"><ele>590.0</ele><time>2026-04-25T09:22:36.596Z</time></trkpt><trkpt lat="46.3134872" lon="11.0215065"><ele>590.0</ele><time>2026-04-25T09:22:37.604Z</time></trkpt><trkpt lat="46.3133821" lon="11.0216383"><ele>590.0</ele><time>2026-04-25T09:22:38.608Z</time></trkpt><trkpt lat="46.3132678" lon="11.0217419"><ele>590.0</ele><time>2026-04-25T09:22:39.626Z</time></trkpt><trkpt lat="46.3131454" lon="11.0218323"><ele>590.0</ele><time>2026-04-25T09:22:40.622Z</time></trkpt><trkpt lat="46.3130307" lon="11.0219384"><ele>591.75</ele><time>2026-04-25T09:22:41.632Z</time></trkpt><trkpt lat="46.3129211" lon="11.022064"><ele>593.5</ele><time>2026-04-25T09:22:42.609Z</time></trkpt><trkpt lat="46.3128229" lon="11.0222062"><ele>595.25</ele><time>2026-04-25T09:22:43.631Z</time></trkpt><trkpt lat="46.3127387" lon="11.0223563"><ele>597.0</ele><time>2026-04-25T09:22:44.626Z</time></trkpt><trkpt lat="46.3126823" lon="11.0225189"><ele>597.0</ele><time>2026-04-25T09:22:45.61Z</time></trkpt><trkpt lat="46.3126492" lon="11.0227044"><ele>597.0</ele><time>2026-04-25T09:22:46.603Z</time></trkpt><trkpt lat="46.3126386" lon="11.0229314"><ele>597.0</ele><time>2026-04-25T09:22:47.637Z</time></trkpt><trkpt lat="46.3126484" lon="11.0231482"><ele>597.0</ele><time>2026-04-25T09:22:48.637Z</time></trkpt><trkpt lat="46.3126627" lon="11.0233526"><ele>594.25</ele><time>2026-04-25T09:22:49.634Z</time></trkpt><trkpt lat="46.3126578" lon="11.023615"><ele>591.5</ele><time>2026-04-25T09:22:51.012Z</time></trkpt><trkpt lat="46.3126293" lon="11.02382"><ele>588.75</ele><time>2026-04-25T09:22:52.692Z</time></trkpt><trkpt lat="46.3125696" lon="11.0238988"><ele>586.0</ele><time>2026-04-25T09:22:53.696Z</time></trkpt><trkpt lat="46.3124898" lon="11.0239288"><ele>586.0</ele><time>2026-04-25T09:22:54.695Z</time></trkpt><trkpt lat="46.3124001" lon="11.0239199"><ele>586.0</ele><time>2026-04-25T09:22:55.668Z</time></trkpt><trkpt lat="46.3122918" lon="11.0238882"><ele>586.0</ele><time>2026-04-25T09:22:56.651Z</time></trkpt><trkpt lat="46.3121746" lon="11.0238585"><ele>586.0</ele><time>2026-04-25T09:22:57.658Z</time></trkpt><trkpt lat="46.3120583" lon="11.0238252"><ele>586.0</ele><time>2026-04-25T09:22:58.652Z</time></trkpt><trkpt lat="46.3119306" lon="11.0237787"><ele>586.5</ele><time>2026-04-25T09:22:59.679Z</time></trkpt><trkpt lat="46.3118083" lon="11.0237196"><ele>587.0</ele><time>2026-04-25T09:23:00.658Z</time></trkpt><trkpt lat="46.3116863" lon="11.0236471"><ele>587.5</ele><time>2026-04-25T09:23:01.66Z</time></trkpt><trkpt lat="46.311559" lon="11.0235575"><ele>588.0</ele><time>2026-04-25T09:23:02.686Z</time></trkpt><trkpt lat="46.311436" lon="11.0234593"><ele>587.75</ele><time>2026-04-25T09:23:03.669Z</time></trkpt><trkpt lat="46.3112997" lon="11.0233577"><ele>587.5</ele><time>2026-04-25T09:23:04.7Z</time></trkpt><trkpt lat="46.3111691" lon="11.0232608"><ele>587.25</ele><time>2026-04-25T09:23:05.68Z</time></trkpt><trkpt lat="46.311045" lon="11.0231708"><ele>587.0</ele><time>2026-04-25T09:23:06.657Z</time></trkpt><trkpt lat="46.3109269" lon="11.0230876"><ele>586.8000000000001</ele><time>2026-04-25T09:23:07.658Z</time></trkpt><trkpt lat="46.3108146" lon="11.0230117"><ele>586.6</ele><time>2026-04-25T09:23:08.696Z</time></trkpt><trkpt lat="46.3107141" lon="11.0229435"><ele>586.4000000000001</ele><time>2026-04-25T09:23:09.693Z</time></trkpt><trkpt lat="46.310618" lon="11.0228827"><ele>586.2</ele><time>2026-04-25T09:23:10.687Z</time></trkpt><trkpt lat="46.3105235" lon="11.0228296"><ele>586.0</ele><time>2026-04-25T09:23:11.685Z</time></trkpt><trkpt lat="46.3104312" lon="11.0227873"><ele>586.0</ele><time>2026-04-25T09:23:12.66Z</time></trkpt><trkpt lat="46.3103361" lon="11.0227536"><ele>586.0</ele><time>2026-04-25T09:23:13.687Z</time></trkpt><trkpt lat="46.3102493" lon="11.0227253"><ele>586.0</ele><time>2026-04-25T09:23:14.647Z</time></trkpt><trkpt lat="46.3101591" lon="11.0227069"><ele>586.0</ele><time>2026-04-25T09:23:15.608Z</time></trkpt><trkpt lat="46.3100467" lon="11.0227163"><ele>586.0</ele><time>2026-04-25T09:23:16.629Z</time></trkpt><trkpt lat="46.3098947" lon="11.0227294"><ele>585.6666666666667</ele><time>2026-04-25T09:23:18.005Z</time></trkpt><trkpt lat="46.3096549" lon="11.0228459"><ele>585.3333333333334</ele><time>2026-04-25T09:23:19.695Z</time></trkpt><trkpt lat="46.309535" lon="11.0228998"><ele>585.0</ele><time>2026-04-25T09:23:20.675Z</time></trkpt><trkpt lat="46.3094172" lon="11.0229525"><ele>585.0</ele><time>2026-04-25T09:23:21.673Z</time></trkpt><trkpt lat="46.3093003" lon="11.0230007"><ele>585.0</ele><time>2026-04-25T09:23:22.683Z</time></trkpt><trkpt lat="46.3091847" lon="11.0230461"><ele>585.0</ele><time>2026-04-25T09:23:23.654Z</time></trkpt><trkpt lat="46.3090549" lon="11.0231061"><ele>585.0</ele><time>2026-04-25T09:23:24.688Z</time></trkpt><trkpt lat="46.308929" lon="11.0231683"><ele>584.25</ele><time>2026-04-25T09:23:25.661Z</time></trkpt><trkpt lat="46.3087961" lon="11.0232382"><ele>583.5</ele><time>2026-04-25T09:23:26.659Z</time></trkpt><trkpt lat="46.3086645" lon="11.0233233"><ele>582.75</ele><time>2026-04-25T09:23:27.663Z</time></trkpt><trkpt lat="46.3085327" lon="11.0234275"><ele>582.0</ele><time>2026-04-25T09:23:28.686Z</time></trkpt><trkpt lat="46.3084068" lon="11.0235453"><ele>582.0</ele><time>2026-04-25T09:23:29.684Z</time></trkpt><trkpt lat="46.3082766" lon="11.0236708"><ele>582.0</ele><time>2026-04-25T09:23:30.693Z</time></trkpt><trkpt lat="46.3081505" lon="11.0237903"><ele>582.0</ele><time>2026-04-25T09:23:31.658Z</time></trkpt><trkpt lat="46.3080112" lon="11.02392"><ele>582.3333333333334</ele><time>2026-04-25T09:23:32.701Z</time></trkpt><trkpt lat="46.3078823" lon="11.0240419"><ele>582.6666666666667</ele><time>2026-04-25T09:23:33.669Z</time></trkpt><trkpt lat="46.3077469" lon="11.0241707"><ele>583.0</ele><time>2026-04-25T09:23:34.682Z</time></trkpt><trkpt lat="46.3076167" lon="11.0242923"><ele>583.0</ele><time>2026-04-25T09:23:35.658Z</time></trkpt><trkpt lat="46.3074805" lon="11.0244207"><ele>583.0</ele><time>2026-04-25T09:23:36.678Z</time></trkpt><trkpt lat="46.3073538" lon="11.0245416"><ele>583.0</ele><time>2026-04-25T09:23:37.653Z</time></trkpt><trkpt lat="46.3072203" lon="11.0246683"><ele>583.6666666666667</ele><time>2026-04-25T09:23:38.678Z</time></trkpt><trkpt lat="46.3070916" lon="11.0247899"><ele>584.3333333333334</ele><time>2026-04-25T09:23:39.673Z</time></trkpt><trkpt lat="46.3069629" lon="11.0249131"><ele>585.0</ele><time>2026-04-25T09:23:40.685Z</time></trkpt><trkpt lat="46.3068368" lon="11.0250324"><ele>585.0</ele><time>2026-04-25T09:23:41.67Z</time></trkpt><trkpt lat="46.3067084" lon="11.0251516"><ele>585.0</ele><time>2026-04-25T09:23:42.664Z</time></trkpt><trkpt lat="46.3065764" lon="11.025278"><ele>585.0</ele><time>2026-04-25T09:23:43.693Z</time></trkpt><trkpt lat="46.3064522" lon="11.0254008"><ele>586.6666666666666</ele><time>2026-04-25T09:23:44.667Z</time></trkpt><trkpt lat="46.3063238" lon="11.0255246"><ele>588.3333333333333</ele><time>2026-04-25T09:23:45.668Z</time></trkpt><trkpt lat="46.3061943" lon="11.0256445"><ele>590.0</ele><time>2026-04-25T09:23:46.659Z</time></trkpt><trkpt lat="46.3060623" lon="11.025762"><ele>587.0</ele><time>2026-04-25T09:23:47.661Z</time></trkpt><trkpt lat="46.3059262" lon="11.0258758"><ele>584.0</ele><time>2026-04-25T09:23:48.659Z</time></trkpt><trkpt lat="46.3057836" lon="11.0259788"><ele>581.0</ele><time>2026-04-25T09:23:49.66Z</time></trkpt><trkpt lat="46.3056294" lon="11.0260704"><ele>582.6666666666666</ele><time>2026-04-25T09:23:50.689Z</time></trkpt><trkpt lat="46.30548" lon="11.0261428"><ele>584.3333333333334</ele><time>2026-04-25T09:23:51.653Z</time></trkpt><trkpt lat="46.3053194" lon="11.0262067"><ele>586.0</ele><time>2026-04-25T09:23:52.661Z</time></trkpt><trkpt lat="46.3051552" lon="11.0262646"><ele>586.0</ele><time>2026-04-25T09:23:53.679Z</time></trkpt><trkpt lat="46.304996" lon="11.0263182"><ele>586.0</ele><time>2026-04-25T09:23:54.658Z</time></trkpt><trkpt lat="46.3048284" lon="11.0263744"><ele>586.0</ele><time>2026-04-25T09:23:55.684Z</time></trkpt><trkpt lat="46.3046751" lon="11.0264252"><ele>587.3333333333334</ele><time>2026-04-25T09:23:56.616Z</time></trkpt><trkpt lat="46.3045083" lon="11.0264838"><ele>588.6666666666666</ele><time>2026-04-25T09:23:57.641Z</time></trkpt><trkpt lat="46.3043479" lon="11.026537"><ele>590.0</ele><time>2026-04-25T09:23:58.601Z</time></trkpt><trkpt lat="46.3041787" lon="11.0265922"><ele>589.0</ele><time>2026-04-25T09:23:59.627Z</time></trkpt><trkpt lat="46.3040126" lon="11.02665"><ele>588.0</ele><time>2026-04-25T09:24:00.608Z</time></trkpt><trkpt lat="46.3038378" lon="11.0267097"><ele>587.0</ele><time>2026-04-25T09:24:01.64Z</time></trkpt><trkpt lat="46.3036773" lon="11.0267663"><ele>587.0</ele><time>2026-04-25T09:24:02.598Z</time></trkpt><trkpt lat="46.3034984" lon="11.0268314"><ele>587.0</ele><time>2026-04-25T09:24:03.642Z</time></trkpt><trkpt lat="46.3033333" lon="11.0268887"><ele>587.0</ele><time>2026-04-25T09:24:04.617Z</time></trkpt><trkpt lat="46.3031654" lon="11.0269448"><ele>587.3333333333333</ele><time>2026-04-25T09:24:05.604Z</time></trkpt><trkpt lat="46.3030009" lon="11.0270019"><ele>587.6666666666666</ele><time>2026-04-25T09:24:06.606Z</time></trkpt><trkpt lat="46.3028353" lon="11.0270582"><ele>588.0</ele><time>2026-04-25T09:24:07.637Z</time></trkpt><trkpt lat="46.3026877" lon="11.0271203"><ele>588.0</ele><time>2026-04-25T09:24:08.625Z</time></trkpt><trkpt lat="46.3025525" lon="11.0271985"><ele>588.0</ele><time>2026-04-25T09:24:09.604Z</time></trkpt><trkpt lat="46.3024305" lon="11.0272925"><ele>588.0</ele><time>2026-04-25T09:24:10.605Z</time></trkpt><trkpt lat="46.3023078" lon="11.0274018"><ele>588.0</ele><time>2026-04-25T09:24:11.648Z</time></trkpt><trkpt lat="46.302194" lon="11.0275159"><ele>587.75</ele><time>2026-04-25T09:24:12.648Z</time></trkpt><trkpt lat="46.3020972" lon="11.0276289"><ele>587.5</ele><time>2026-04-25T09:24:13.601Z</time></trkpt><trkpt lat="46.3019959" lon="11.0277483"><ele>587.25</ele><time>2026-04-25T09:24:14.609Z</time></trkpt><trkpt lat="46.3018849" lon="11.0278763"><ele>587.0</ele><time>2026-04-25T09:24:15.645Z</time></trkpt><trkpt lat="46.3017823" lon="11.028"><ele>587.0</ele><time>2026-04-25T09:24:16.628Z</time></trkpt><trkpt lat="46.3016745" lon="11.0281237"><ele>587.0</ele><time>2026-04-25T09:24:17.636Z</time></trkpt><trkpt lat="46.3015634" lon="11.0282559"><ele>587.0</ele><time>2026-04-25T09:24:18.639Z</time></trkpt><trkpt lat="46.3014488" lon="11.028385"><ele>587.0</ele><time>2026-04-25T09:24:19.643Z</time></trkpt><trkpt lat="46.3013401" lon="11.0285142"><ele>588.25</ele><time>2026-04-25T09:24:20.626Z</time></trkpt><trkpt lat="46.3012264" lon="11.0286504"><ele>589.5</ele><time>2026-04-25T09:24:21.645Z</time></trkpt><trkpt lat="46.3011202" lon="11.0287751"><ele>590.75</ele><time>2026-04-25T09:24:22.604Z</time></trkpt><trkpt lat="46.3010136" lon="11.0289"><ele>592.0</ele><time>2026-04-25T09:24:23.64Z</time></trkpt><trkpt lat="46.3009129" lon="11.0290116"><ele>592.0</ele><time>2026-04-25T09:24:24.645Z</time></trkpt><trkpt lat="46.3008212" lon="11.0291172"><ele>592.0</ele><time>2026-04-25T09:24:25.644Z</time></trkpt><trkpt lat="46.3007302" lon="11.0292231"><ele>592.0</ele><time>2026-04-25T09:24:26.646Z</time></trkpt><trkpt lat="46.3006457" lon="11.0293167"><ele>592.0</ele><time>2026-04-25T09:24:27.631Z</time></trkpt><trkpt lat="46.3005599" lon="11.0294076"><ele>592.0</ele><time>2026-04-25T09:24:28.628Z</time></trkpt><trkpt lat="46.3004786" lon="11.0295081"><ele>591.0</ele><time>2026-04-25T09:24:29.638Z</time></trkpt><trkpt lat="46.3004237" lon="11.029621"><ele>590.0</ele><time>2026-04-25T09:24:30.628Z</time></trkpt><trkpt lat="46.3003688" lon="11.0297504"><ele>589.0</ele><time>2026-04-25T09:24:31.654Z</time></trkpt><trkpt lat="46.300315" lon="11.0298907"><ele>588.0</ele><time>2026-04-25T09:24:32.628Z</time></trkpt><trkpt lat="46.3002437" lon="11.0300214"><ele>587.0</ele><time>2026-04-25T09:24:33.607Z</time></trkpt><trkpt lat="46.300145" lon="11.0301376"><ele>586.5</ele><time>2026-04-25T09:24:34.61Z</time></trkpt><trkpt lat="46.300045" lon="11.0302514"><ele>586.0</ele><time>2026-04-25T09:24:35.648Z</time></trkpt><trkpt lat="46.2999548" lon="11.0303556"><ele>585.5</ele><time>2026-04-25T09:24:36.612Z</time></trkpt><trkpt lat="46.2998574" lon="11.0304634"><ele>585.0</ele><time>2026-04-25T09:24:37.657Z</time></trkpt><trkpt lat="46.2997745" lon="11.0305644"><ele>584.6</ele><time>2026-04-25T09:24:38.609Z</time></trkpt><trkpt lat="46.2996856" lon="11.0306685"><ele>584.2</ele><time>2026-04-25T09:24:39.629Z</time></trkpt><trkpt lat="46.2995944" lon="11.0307711"><ele>583.8</ele><time>2026-04-25T09:24:40.686Z</time></trkpt><trkpt lat="46.2995066" lon="11.0308534"><ele>583.4</ele><time>2026-04-25T09:24:41.629Z</time></trkpt><trkpt lat="46.2994255" lon="11.0309236"><ele>583.0</ele><time>2026-04-25T09:24:42.601Z</time></trkpt><trkpt lat="46.2993226" lon="11.031023"><ele>583.0</ele><time>2026-04-25T09:24:43.946Z</time></trkpt><trkpt lat="46.2991398" lon="11.0311845"><ele>583.0</ele><time>2026-04-25T09:24:45.662Z</time></trkpt><trkpt lat="46.2990501" lon="11.0312942"><ele>583.0</ele><time>2026-04-25T09:24:46.694Z</time></trkpt><trkpt lat="46.2989638" lon="11.0313993"><ele>583.0</ele><time>2026-04-25T09:24:47.689Z</time></trkpt><trkpt lat="46.2988794" lon="11.031495"><ele>582.75</ele><time>2026-04-25T09:24:48.66Z</time></trkpt><trkpt lat="46.2987911" lon="11.0315833"><ele>582.5</ele><time>2026-04-25T09:24:49.654Z</time></trkpt><trkpt lat="46.298696" lon="11.0316668"><ele>582.25</ele><time>2026-04-25T09:24:50.662Z</time></trkpt><trkpt lat="46.2985918" lon="11.0317473"><ele>582.0</ele><time>2026-04-25T09:24:51.685Z</time></trkpt><trkpt lat="46.2984845" lon="11.0318204"><ele>580.75</ele><time>2026-04-25T09:24:52.68Z</time></trkpt><trkpt lat="46.2983702" lon="11.0318889"><ele>579.5</ele><time>2026-04-25T09:24:53.698Z</time></trkpt><trkpt lat="46.298254" lon="11.0319475"><ele>578.25</ele><time>2026-04-25T09:24:54.696Z</time></trkpt><trkpt lat="46.2981333" lon="11.0319923"><ele>577.0</ele><time>2026-04-25T09:24:55.689Z</time></trkpt><trkpt lat="46.298009" lon="11.0320261"><ele>577.0</ele><time>2026-04-25T09:24:56.688Z</time></trkpt><trkpt lat="46.2978888" lon="11.0320486"><ele>577.0</ele><time>2026-04-25T09:24:57.66Z</time></trkpt><trkpt lat="46.2977691" lon="11.0320647"><ele>577.0</ele><time>2026-04-25T09:24:58.656Z</time></trkpt><trkpt lat="46.2976505" lon="11.0320846"><ele>577.0</ele><time>2026-04-25T09:24:59.671Z</time></trkpt><trkpt lat="46.297528" lon="11.0321067"><ele>577.0</ele><time>2026-04-25T09:25:00.692Z</time></trkpt><trkpt lat="46.2974004" lon="11.0321298"><ele>577.0</ele><time>2026-04-25T09:25:01.699Z</time></trkpt><trkpt lat="46.297275" lon="11.0321511"><ele>577.0</ele><time>2026-04-25T09:25:02.671Z</time></trkpt><trkpt lat="46.2971415" lon="11.0321719"><ele>577.0</ele><time>2026-04-25T09:25:03.684Z</time></trkpt><trkpt lat="46.2970069" lon="11.0321916"><ele>576.75</ele><time>2026-04-25T09:25:04.699Z</time></trkpt><trkpt lat="46.2968745" lon="11.0322138"><ele>576.5</ele><time>2026-04-25T09:25:05.688Z</time></trkpt><trkpt lat="46.296738" lon="11.0322406"><ele>576.25</ele><time>2026-04-25T09:25:06.692Z</time></trkpt><trkpt lat="46.2966026" lon="11.0322654"><ele>576.0</ele><time>2026-04-25T09:25:07.685Z</time></trkpt><trkpt lat="46.2964615" lon="11.0322897"><ele>576.0</ele><time>2026-04-25T09:25:08.704Z</time></trkpt><trkpt lat="46.2963303" lon="11.0323099"><ele>576.0</ele><time>2026-04-25T09:25:09.66Z</time></trkpt><trkpt lat="46.2961976" lon="11.0323314"><ele>576.0</ele><time>2026-04-25T09:25:10.667Z</time></trkpt><trkpt lat="46.2960696" lon="11.0323518"><ele>576.0</ele><time>2026-04-25T09:25:11.69Z</time></trkpt><trkpt lat="46.2959556" lon="11.0323697"><ele>576.0</ele><time>2026-04-25T09:25:12.672Z</time></trkpt><trkpt lat="46.2958435" lon="11.0323914"><ele>576.0</ele><time>2026-04-25T09:25:13.689Z</time></trkpt><trkpt lat="46.2957419" lon="11.0324146"><ele>576.0</ele><time>2026-04-25T09:25:14.661Z</time></trkpt><trkpt lat="46.2956416" lon="11.0324418"><ele>576.0</ele><time>2026-04-25T09:25:15.668Z</time></trkpt><trkpt lat="46.2955458" lon="11.032475"><ele>576.0</ele><time>2026-04-25T09:25:16.685Z</time></trkpt><trkpt lat="46.2954537" lon="11.0325167"><ele>575.8333333333334</ele><time>2026-04-25T09:25:17.706Z</time></trkpt><trkpt lat="46.295372" lon="11.0325667"><ele>575.6666666666666</ele><time>2026-04-25T09:25:18.69Z</time></trkpt><trkpt lat="46.2952979" lon="11.0326224"><ele>575.5</ele><time>2026-04-25T09:25:19.66Z</time></trkpt><trkpt lat="46.2952237" lon="11.0326824"><ele>575.3333333333333</ele><time>2026-04-25T09:25:20.693Z</time></trkpt><trkpt lat="46.2951523" lon="11.0327395"><ele>575.1666666666666</ele><time>2026-04-25T09:25:21.701Z</time></trkpt><trkpt lat="46.2950753" lon="11.0328021"><ele>575.0</ele><time>2026-04-25T09:25:22.695Z</time></trkpt><trkpt lat="46.2949886" lon="11.0328691"><ele>575.0</ele><time>2026-04-25T09:25:23.661Z</time></trkpt><trkpt lat="46.29489" lon="11.0329454"><ele>575.0</ele><time>2026-04-25T09:25:24.643Z</time></trkpt><trkpt lat="46.2947789" lon="11.0330376"><ele>575.0</ele><time>2026-04-25T09:25:25.659Z</time></trkpt><trkpt lat="46.2946504" lon="11.0331543"><ele>575.0</ele><time>2026-04-25T09:25:26.691Z</time></trkpt><trkpt lat="46.2945135" lon="11.0332705"><ele>572.3333333333333</ele><time>2026-04-25T09:25:27.661Z</time></trkpt><trkpt lat="46.2943552" lon="11.0333809"><ele>569.6666666666666</ele><time>2026-04-25T09:25:28.665Z</time></trkpt><trkpt lat="46.294206" lon="11.033486"><ele>567.0</ele><time>2026-04-25T09:25:29.651Z</time></trkpt><trkpt lat="46.2940692" lon="11.0335899"><ele>567.0</ele><time>2026-04-25T09:25:30.66Z</time></trkpt><trkpt lat="46.2939445" lon="11.0336869"><ele>567.0</ele><time>2026-04-25T09:25:31.661Z</time></trkpt><trkpt lat="46.2938185" lon="11.0337887"><ele>567.0</ele><time>2026-04-25T09:25:32.695Z</time></trkpt><trkpt lat="46.2936948" lon="11.0338876"><ele>567.0</ele><time>2026-04-25T09:25:33.692Z</time></trkpt><trkpt lat="46.2935727" lon="11.0339818"><ele>566.0</ele><time>2026-04-25T09:25:34.661Z</time></trkpt><trkpt lat="46.2934408" lon="11.0340855"><ele>565.0</ele><time>2026-04-25T09:25:35.694Z</time></trkpt><trkpt lat="46.2933127" lon="11.0341923"><ele>564.0</ele><time>2026-04-25T09:25:36.668Z</time></trkpt><trkpt lat="46.2931762" lon="11.0343041"><ele>565.5</ele><time>2026-04-25T09:25:37.664Z</time></trkpt><trkpt lat="46.2930355" lon="11.0344154"><ele>567.0</ele><time>2026-04-25T09:25:38.684Z</time></trkpt><trkpt lat="46.2929042" lon="11.0345198"><ele>568.5</ele><time>2026-04-25T09:25:39.686Z</time></trkpt><trkpt lat="46.2927829" lon="11.0346171"><ele>570.0</ele><time>2026-04-25T09:25:40.665Z</time></trkpt><trkpt lat="46.2926632" lon="11.034711"><ele>570.0</ele><time>2026-04-25T09:25:41.671Z</time></trkpt><trkpt lat="46.2925462" lon="11.034801"><ele>570.0</ele><time>2026-04-25T09:25:42.692Z</time></trkpt><trkpt lat="46.292432" lon="11.034884"><ele>570.0</ele><time>2026-04-25T09:25:43.676Z</time></trkpt><trkpt lat="46.2923131" lon="11.0349655"><ele>570.0</ele><time>2026-04-25T09:25:44.647Z</time></trkpt><trkpt lat="46.2921851" lon="11.0350436"><ele>567.6666666666666</ele><time>2026-04-25T09:25:45.649Z</time></trkpt><trkpt lat="46.2920487" lon="11.0351155"><ele>565.3333333333333</ele><time>2026-04-25T09:25:46.61Z</time></trkpt><trkpt lat="46.291892" lon="11.0351833"><ele>563.0</ele><time>2026-04-25T09:25:47.649Z</time></trkpt><trkpt lat="46.2917402" lon="11.0352347"><ele>563.0</ele><time>2026-04-25T09:25:48.636Z</time></trkpt><trkpt lat="46.2915795" lon="11.0352767"><ele>563.0</ele><time>2026-04-25T09:25:49.641Z</time></trkpt><trkpt lat="46.2914268" lon="11.0352992"><ele>563.0</ele><time>2026-04-25T09:25:50.621Z</time></trkpt><trkpt lat="46.2912715" lon="11.035304"><ele>563.0</ele><time>2026-04-25T09:25:51.638Z</time></trkpt><trkpt lat="46.2911229" lon="11.0352973"><ele>563.0</ele><time>2026-04-25T09:25:52.638Z</time></trkpt><trkpt lat="46.2909798" lon="11.0352824"><ele>563.0</ele><time>2026-04-25T09:25:53.613Z</time></trkpt><trkpt lat="46.2908299" lon="11.0352705"><ele>563.0</ele><time>2026-04-25T09:25:54.632Z</time></trkpt><trkpt lat="46.2906814" lon="11.0352676"><ele>564.0</ele><time>2026-04-25T09:25:55.63Z</time></trkpt><trkpt lat="46.2905352" lon="11.0352767"><ele>565.0</ele><time>2026-04-25T09:25:56.611Z</time></trkpt><trkpt lat="46.2903878" lon="11.0353018"><ele>566.0</ele><time>2026-04-25T09:25:57.626Z</time></trkpt><trkpt lat="46.2902441" lon="11.0353421"><ele>567.0</ele><time>2026-04-25T09:25:58.609Z</time></trkpt><trkpt lat="46.2900985" lon="11.0354016"><ele>567.0</ele><time>2026-04-25T09:25:59.614Z</time></trkpt><trkpt lat="46.2899457" lon="11.0354782"><ele>567.0</ele><time>2026-04-25T09:26:00.646Z</time></trkpt><trkpt lat="46.2897991" lon="11.0355636"><ele>567.0</ele><time>2026-04-25T09:26:01.647Z</time></trkpt><trkpt lat="46.2896487" lon="11.0356619"><ele>565.6666666666666</ele><time>2026-04-25T09:26:02.64Z</time></trkpt><trkpt lat="46.2895021" lon="11.0357599"><ele>564.3333333333333</ele><time>2026-04-25T09:26:03.624Z</time></trkpt><trkpt lat="46.2893509" lon="11.03586"><ele>563.0</ele><time>2026-04-25T09:26:04.623Z</time></trkpt><trkpt lat="46.289193" lon="11.0359613"><ele>561.6666666666666</ele><time>2026-04-25T09:26:05.646Z</time></trkpt><trkpt lat="46.289049" lon="11.0360456"><ele>560.3333333333334</ele><time>2026-04-25T09:26:06.608Z</time></trkpt><trkpt lat="46.2888913" lon="11.0361439"><ele>559.0</ele><time>2026-04-25T09:26:07.635Z</time></trkpt><trkpt lat="46.2887397" lon="11.0362436"><ele>559.0</ele><time>2026-04-25T09:26:08.626Z</time></trkpt><trkpt lat="46.2885805" lon="11.0363428"><ele>559.0</ele><time>2026-04-25T09:26:09.633Z</time></trkpt><trkpt lat="46.2884198" lon="11.036446"><ele>559.0</ele><time>2026-04-25T09:26:10.646Z</time></trkpt><trkpt lat="46.2882607" lon="11.0365451"><ele>559.0</ele><time>2026-04-25T09:26:11.642Z</time></trkpt><trkpt lat="46.2881167" lon="11.0366353"><ele>559.0</ele><time>2026-04-25T09:26:12.603Z</time></trkpt><trkpt lat="46.287979" lon="11.0367208"><ele>559.0</ele><time>2026-04-25T09:26:13.61Z</time></trkpt><trkpt lat="46.2878479" lon="11.0368002"><ele>559.0</ele><time>2026-04-25T09:26:14.635Z</time></trkpt><trkpt lat="46.2877301" lon="11.0368728"><ele>559.25</ele><time>2026-04-25T09:26:15.606Z</time></trkpt><trkpt lat="46.2876091" lon="11.0369494"><ele>559.5</ele><time>2026-04-25T09:26:16.628Z</time></trkpt><trkpt lat="46.2874802" lon="11.0370312"><ele>559.75</ele><time>2026-04-25T09:26:17.642Z</time></trkpt><trkpt lat="46.2873535" lon="11.0371104"><ele>560.0</ele><time>2026-04-25T09:26:18.635Z</time></trkpt><trkpt lat="46.2872233" lon="11.0371937"><ele>559.75</ele><time>2026-04-25T09:26:19.612Z</time></trkpt><trkpt lat="46.2870951" lon="11.0372801"><ele>559.5</ele><time>2026-04-25T09:26:20.639Z</time></trkpt><trkpt lat="46.2869621" lon="11.0373634"><ele>559.25</ele><time>2026-04-25T09:26:21.644Z</time></trkpt><trkpt lat="46.2868289" lon="11.0374433"><ele>559.0</ele><time>2026-04-25T09:26:22.649Z</time></trkpt><trkpt lat="46.2867057" lon="11.0375193"><ele>559.0</ele><time>2026-04-25T09:26:23.613Z</time></trkpt><trkpt lat="46.2865717" lon="11.0376006"><ele>559.0</ele><time>2026-04-25T09:26:24.639Z</time></trkpt><trkpt lat="46.2864479" lon="11.0376743"><ele>559.0</ele><time>2026-04-25T09:26:25.634Z</time></trkpt><trkpt lat="46.2863227" lon="11.0377504"><ele>559.0</ele><time>2026-04-25T09:26:26.612Z</time></trkpt><trkpt lat="46.2861985" lon="11.0378299"><ele>559.25</ele><time>2026-04-25T09:26:27.618Z</time></trkpt><trkpt lat="46.2860664" lon="11.0379059"><ele>559.5</ele><time>2026-04-25T09:26:28.648Z</time></trkpt><trkpt lat="46.2859372" lon="11.0379858"><ele>559.75</ele><time>2026-04-25T09:26:29.623Z</time></trkpt><trkpt lat="46.2858028" lon="11.0380695"><ele>560.0</ele><time>2026-04-25T09:26:30.61Z</time></trkpt><trkpt lat="46.2856681" lon="11.0381538"><ele>560.25</ele><time>2026-04-25T09:26:31.603Z</time></trkpt><trkpt lat="46.2855254" lon="11.0382434"><ele>560.5</ele><time>2026-04-25T09:26:32.619Z</time></trkpt><trkpt lat="46.2853889" lon="11.0383268"><ele>560.75</ele><time>2026-04-25T09:26:33.63Z</time></trkpt><trkpt lat="46.2852561" lon="11.0384127"><ele>561.0</ele><time>2026-04-25T09:26:34.642Z</time></trkpt><trkpt lat="46.2851245" lon="11.038491"><ele>560.5</ele><time>2026-04-25T09:26:35.608Z</time></trkpt><trkpt lat="46.2849908" lon="11.0385722"><ele>560.0</ele><time>2026-04-25T09:26:36.641Z</time></trkpt><trkpt lat="46.2848616" lon="11.0386536"><ele>559.5</ele><time>2026-04-25T09:26:37.614Z</time></trkpt><trkpt lat="46.2847179" lon="11.0387411"><ele>559.0</ele><time>2026-04-25T09:26:38.655Z</time></trkpt><trkpt lat="46.2845814" lon="11.0388283"><ele>559.0</ele><time>2026-04-25T09:26:39.638Z</time></trkpt><trkpt lat="46.2844471" lon="11.0389152"><ele>559.0</ele><time>2026-04-25T09:26:40.61Z</time></trkpt><trkpt lat="46.2843032" lon="11.0390036"><ele>559.0</ele><time>2026-04-25T09:26:41.629Z</time></trkpt><trkpt lat="46.284161" lon="11.0390939"><ele>559.0</ele><time>2026-04-25T09:26:42.633Z</time></trkpt><trkpt lat="46.2840167" lon="11.0391794"><ele>559.0</ele><time>2026-04-25T09:26:43.6Z</time></trkpt><trkpt lat="46.2838644" lon="11.0392705"><ele>559.0</ele><time>2026-04-25T09:26:44.62Z</time></trkpt><trkpt lat="46.2837107" lon="11.039363"><ele>559.3333333333334</ele><time>2026-04-25T09:26:45.646Z</time></trkpt><trkpt lat="46.2835617" lon="11.0394562"><ele>559.6666666666666</ele><time>2026-04-25T09:26:46.641Z</time></trkpt><trkpt lat="46.2834132" lon="11.0395481"><ele>560.0</ele><time>2026-04-25T09:26:47.631Z</time></trkpt><trkpt lat="46.283267" lon="11.0396361"><ele>560.0</ele><time>2026-04-25T09:26:48.637Z</time></trkpt><trkpt lat="46.2831308" lon="11.0397208"><ele>560.0</ele><time>2026-04-25T09:26:49.601Z</time></trkpt><trkpt lat="46.2829846" lon="11.039812"><ele>560.0</ele><time>2026-04-25T09:26:50.616Z</time></trkpt><trkpt lat="46.2828479" lon="11.0398977"><ele>558.5</ele><time>2026-04-25T09:26:51.608Z</time></trkpt><trkpt lat="46.2827123" lon="11.0399795"><ele>557.0</ele><time>2026-04-25T09:26:52.609Z</time></trkpt><trkpt lat="46.2825752" lon="11.0400678"><ele>555.5</ele><time>2026-04-25T09:26:53.624Z</time></trkpt><trkpt lat="46.28244" lon="11.0401619"><ele>554.0</ele><time>2026-04-25T09:26:54.64Z</time></trkpt><trkpt lat="46.2823156" lon="11.0402708"><ele>554.0</ele><time>2026-04-25T09:26:55.644Z</time></trkpt><trkpt lat="46.2822052" lon="11.0403945"><ele>554.0</ele><time>2026-04-25T09:26:56.635Z</time></trkpt><trkpt lat="46.2821091" lon="11.0405403"><ele>554.0</ele><time>2026-04-25T09:26:57.654Z</time></trkpt><trkpt lat="46.2820336" lon="11.0406955"><ele>554.0</ele><time>2026-04-25T09:26:58.61Z</time></trkpt><trkpt lat="46.2819725" lon="11.0408681"><ele>552.0</ele><time>2026-04-25T09:26:59.605Z</time></trkpt><trkpt lat="46.2819094" lon="11.041068"><ele>550.0</ele><time>2026-04-25T09:27:00.624Z</time></trkpt><trkpt lat="46.2818468" lon="11.0412774"><ele>548.0</ele><time>2026-04-25T09:27:01.655Z</time></trkpt><trkpt lat="46.2817923" lon="11.0414717"><ele>546.5</ele><time>2026-04-25T09:27:02.64Z</time></trkpt><trkpt lat="46.2817394" lon="11.0416599"><ele>545.0</ele><time>2026-04-25T09:27:03.645Z</time></trkpt><trkpt lat="46.2817001" lon="11.0418351"><ele>543.5</ele><time>2026-04-25T09:27:04.629Z</time></trkpt><trkpt lat="46.2816706" lon="11.0420241"><ele>542.0</ele><time>2026-04-25T09:27:05.619Z</time></trkpt><trkpt lat="46.2816578" lon="11.0422125"><ele>542.0</ele><time>2026-04-25T09:27:06.612Z</time></trkpt><trkpt lat="46.2816638" lon="11.0424061"><ele>542.0</ele><time>2026-04-25T09:27:07.626Z</time></trkpt><trkpt lat="46.2816868" lon="11.0426025"><ele>542.0</ele><time>2026-04-25T09:27:08.656Z</time></trkpt><trkpt lat="46.2817291" lon="11.0428009"><ele>542.0</ele><time>2026-04-25T09:27:09.646Z</time></trkpt><trkpt lat="46.2817914" lon="11.0430026"><ele>541.0</ele><time>2026-04-25T09:27:10.643Z</time></trkpt><trkpt lat="46.281874" lon="11.0431978"><ele>540.0</ele><time>2026-04-25T09:27:11.629Z</time></trkpt><trkpt lat="46.2819626" lon="11.0433989"><ele>539.0</ele><time>2026-04-25T09:27:12.636Z</time></trkpt><trkpt lat="46.2820552" lon="11.0435956"><ele>537.75</ele><time>2026-04-25T09:27:13.645Z</time></trkpt><trkpt lat="46.2821342" lon="11.0437768"><ele>536.5</ele><time>2026-04-25T09:27:14.613Z</time></trkpt><trkpt lat="46.2822127" lon="11.0439548"><ele>535.25</ele><time>2026-04-25T09:27:15.613Z</time></trkpt><trkpt lat="46.2822917" lon="11.0441333"><ele>534.0</ele><time>2026-04-25T09:27:16.624Z</time></trkpt><trkpt lat="46.2823707" lon="11.0443135"><ele>534.0</ele><time>2026-04-25T09:27:17.665Z</time></trkpt><trkpt lat="46.2824378" lon="11.0444742"><ele>534.0</ele><time>2026-04-25T09:27:18.608Z</time></trkpt><trkpt lat="46.2825166" lon="11.0446548"><ele>534.0</ele><time>2026-04-25T09:27:19.653Z</time></trkpt><trkpt lat="46.2825867" lon="11.0448162"><ele>534.0</ele><time>2026-04-25T09:27:20.61Z</time></trkpt><trkpt lat="46.282659" lon="11.0449833"><ele>532.0</ele><time>2026-04-25T09:27:21.641Z</time></trkpt><trkpt lat="46.2827413" lon="11.0451275"><ele>530.0</ele><time>2026-04-25T09:27:22.628Z</time></trkpt><trkpt lat="46.2828359" lon="11.0452513"><ele>528.0</ele><time>2026-04-25T09:27:23.644Z</time></trkpt><trkpt lat="46.2829485" lon="11.0453446"><ele>526.0</ele><time>2026-04-25T09:27:24.632Z</time></trkpt><trkpt lat="46.2830779" lon="11.0454169"><ele>527.5</ele><time>2026-04-25T09:27:25.632Z</time></trkpt><trkpt lat="46.2832174" lon="11.0454799"><ele>529.0</ele><time>2026-04-25T09:27:26.644Z</time></trkpt><trkpt lat="46.2833384" lon="11.0455285"><ele>530.5</ele><time>2026-04-25T09:27:27.624Z</time></trkpt><trkpt lat="46.2834474" lon="11.045578"><ele>532.0</ele><time>2026-04-25T09:27:28.609Z</time></trkpt><trkpt lat="46.2835452" lon="11.045628"><ele>532.0</ele><time>2026-04-25T09:27:29.651Z</time></trkpt><trkpt lat="46.2836105" lon="11.0456873"><ele>532.0</ele><time>2026-04-25T09:27:30.602Z</time></trkpt><trkpt lat="46.2836489" lon="11.0457758"><ele>532.0</ele><time>2026-04-25T09:27:31.613Z</time></trkpt><trkpt lat="46.2836383" lon="11.0458775"><ele>532.0</ele><time>2026-04-25T09:27:32.612Z</time></trkpt><trkpt lat="46.2835784" lon="11.045953"><ele>532.0</ele><time>2026-04-25T09:27:33.617Z</time></trkpt><trkpt lat="46.2834749" lon="11.045981"><ele>532.0</ele><time>2026-04-25T09:27:34.627Z</time></trkpt><trkpt lat="46.2833458" lon="11.0459497"><ele>530.5</ele><time>2026-04-25T09:27:35.644Z</time></trkpt><trkpt lat="46.2832217" lon="11.0458884"><ele>529.0</ele><time>2026-04-25T09:27:36.61Z</time></trkpt><trkpt lat="46.2830966" lon="11.0458183"><ele>527.5</ele><time>2026-04-25T09:27:37.624Z</time></trkpt><trkpt lat="46.2829823" lon="11.045763"><ele>526.0</ele><time>2026-04-25T09:27:38.603Z</time></trkpt><trkpt lat="46.2828748" lon="11.0457469"><ele>526.0</ele><time>2026-04-25T09:27:39.654Z</time></trkpt><trkpt lat="46.2827759" lon="11.0457383"><ele>526.0</ele><time>2026-04-25T09:27:40.625Z</time></trkpt><trkpt lat="46.2826722" lon="11.0457306"><ele>526.0</ele><time>2026-04-25T09:27:41.61Z</time></trkpt><trkpt lat="46.2825716" lon="11.0457134"><ele>526.0</ele><time>2026-04-25T09:27:42.612Z</time></trkpt><trkpt lat="46.2824511" lon="11.0457063"><ele>526.0</ele><time>2026-04-25T09:27:43.606Z</time></trkpt><trkpt lat="46.282325" lon="11.0456806"><ele>522.3333333333334</ele><time>2026-04-25T09:27:44.628Z</time></trkpt><trkpt lat="46.2821838" lon="11.045644"><ele>518.6666666666666</ele><time>2026-04-25T09:27:45.638Z</time></trkpt><trkpt lat="46.2820383" lon="11.0455886"><ele>515.0</ele><time>2026-04-25T09:27:46.637Z</time></trkpt><trkpt lat="46.2818793" lon="11.0455404"><ele>515.0</ele><time>2026-04-25T09:27:47.631Z</time></trkpt><trkpt lat="46.2817098" lon="11.0454759"><ele>515.0</ele><time>2026-04-25T09:27:48.648Z</time></trkpt><trkpt lat="46.2815342" lon="11.0454117"><ele>515.0</ele><time>2026-04-25T09:27:49.636Z</time></trkpt><trkpt lat="46.2813489" lon="11.0453473"><ele>512.6666666666666</ele><time>2026-04-25T09:27:50.643Z</time></trkpt><trkpt lat="46.2811725" lon="11.0452761"><ele>510.33333333333337</ele><time>2026-04-25T09:27:51.627Z</time></trkpt><trkpt lat="46.2809943" lon="11.0452048"><ele>508.0</ele><time>2026-04-25T09:27:52.662Z</time></trkpt><trkpt lat="46.2808319" lon="11.0451451"><ele>508.0</ele><time>2026-04-25T09:27:53.651Z</time></trkpt><trkpt lat="46.280681" lon="11.045081"><ele>508.0</ele><time>2026-04-25T09:27:54.637Z</time></trkpt><trkpt lat="46.2805366" lon="11.045022"><ele>508.0</ele><time>2026-04-25T09:27:55.608Z</time></trkpt><trkpt lat="46.2803884" lon="11.044961"><ele>507.75</ele><time>2026-04-25T09:27:56.626Z</time></trkpt><trkpt lat="46.280249" lon="11.0449001"><ele>507.5</ele><time>2026-04-25T09:27:57.608Z</time></trkpt><trkpt lat="46.2801042" lon="11.0448345"><ele>507.25</ele><time>2026-04-25T09:27:58.634Z</time></trkpt><trkpt lat="46.279966" lon="11.0447742"><ele>507.0</ele><time>2026-04-25T09:27:59.651Z</time></trkpt><trkpt lat="46.2798386" lon="11.0447188"><ele>505.25</ele><time>2026-04-25T09:28:00.615Z</time></trkpt><trkpt lat="46.2797052" lon="11.0446717"><ele>503.5</ele><time>2026-04-25T09:28:01.614Z</time></trkpt><trkpt lat="46.2795868" lon="11.0446568"><ele>501.75</ele><time>2026-04-25T09:28:02.627Z</time></trkpt><trkpt lat="46.2794715" lon="11.0446784"><ele>500.0</ele><time>2026-04-25T09:28:03.639Z</time></trkpt><trkpt lat="46.27936" lon="11.0447342"><ele>500.0</ele><time>2026-04-25T09:28:04.635Z</time></trkpt><trkpt lat="46.2792329" lon="11.0448281"><ele>500.0</ele><time>2026-04-25T09:28:05.629Z</time></trkpt><trkpt lat="46.2791264" lon="11.0449469"><ele>500.0</ele><time>2026-04-25T09:28:06.636Z</time></trkpt><trkpt lat="46.2790255" lon="11.0450657"><ele>500.0</ele><time>2026-04-25T09:28:07.624Z</time></trkpt><trkpt lat="46.2789325" lon="11.0451467"><ele>497.25</ele><time>2026-04-25T09:28:08.639Z</time></trkpt><trkpt lat="46.2788102" lon="11.0452187"><ele>494.5</ele><time>2026-04-25T09:28:09.658Z</time></trkpt><trkpt lat="46.2787004" lon="11.0452406"><ele>491.75</ele><time>2026-04-25T09:28:10.628Z</time></trkpt><trkpt lat="46.2785723" lon="11.0452282"><ele>489.0</ele><time>2026-04-25T09:28:11.627Z</time></trkpt><trkpt lat="46.2784526" lon="11.0451782"><ele>489.0</ele><time>2026-04-25T09:28:12.6Z</time></trkpt><trkpt lat="46.2783206" lon="11.0450867"><ele>489.0</ele><time>2026-04-25T09:28:13.634Z</time></trkpt><trkpt lat="46.2782143" lon="11.0449885"><ele>489.0</ele><time>2026-04-25T09:28:14.614Z</time></trkpt><trkpt lat="46.2781274" lon="11.0448849"><ele>489.0</ele><time>2026-04-25T09:28:15.639Z</time></trkpt><trkpt lat="46.2780669" lon="11.0448026"><ele>489.79999999999995</ele><time>2026-04-25T09:28:16.637Z</time></trkpt><trkpt lat="46.2780117" lon="11.04474"><ele>490.59999999999997</ele><time>2026-04-25T09:28:18.615Z</time></trkpt><trkpt lat="46.2780748" lon="11.044829"><ele>491.4</ele><time>2026-04-25T09:28:21.627Z</time></trkpt><trkpt lat="46.278184" lon="11.0447908"><ele>492.2</ele><time>2026-04-25T09:28:23.601Z</time></trkpt><trkpt lat="46.2782705" lon="11.0448524"><ele>493.0</ele><time>2026-04-25T09:28:24.601Z</time></trkpt><trkpt lat="46.2783564" lon="11.044697"><ele>493.0</ele><time>2026-04-25T09:28:25.608Z</time></trkpt><trkpt lat="46.278424" lon="11.0446409"><ele>493.0</ele><time>2026-04-25T09:28:26.607Z</time></trkpt><trkpt lat="46.2784654" lon="11.0457058"><ele>492.0</ele><time>2026-04-25T09:28:27.606Z</time></trkpt><trkpt lat="46.2785669" lon="11.0457817"><ele>491.0</ele><time>2026-04-25T09:28:28.614Z</time></trkpt><trkpt lat="46.2786988" lon="11.0458426"><ele>490.0</ele><time>2026-04-25T09:28:29.621Z</time></trkpt><trkpt lat="46.2788443" lon="11.045907"><ele>489.0</ele><time>2026-04-25T09:28:30.626Z</time></trkpt><trkpt lat="46.2789714" lon="11.045974"><ele>486.75</ele><time>2026-04-25T09:28:31.647Z</time></trkpt><trkpt lat="46.2790896" lon="11.046028"><ele>484.5</ele><time>2026-04-25T09:28:32.619Z</time></trkpt><trkpt lat="46.2792137" lon="11.0460973"><ele>482.25</ele><time>2026-04-25T09:28:33.631Z</time></trkpt><trkpt lat="46.2793243" lon="11.0461574"><ele>480.0</ele><time>2026-04-25T09:28:34.615Z</time></trkpt><trkpt lat="46.2794395" lon="11.0462183"><ele>480.0</ele><time>2026-04-25T09:28:35.61Z</time></trkpt><trkpt lat="46.2795595" lon="11.0462762"><ele>480.0</ele><time>2026-04-25T09:28:36.607Z</time></trkpt><trkpt lat="46.2796743" lon="11.0463359"><ele>480.0</ele><time>2026-04-25T09:28:37.612Z</time></trkpt><trkpt lat="46.2797786" lon="11.0464031"><ele>480.0</ele><time>2026-04-25T09:28:38.629Z</time></trkpt><trkpt lat="46.2798901" lon="11.0464931"><ele>479.0</ele><time>2026-04-25T09:28:39.638Z</time></trkpt><trkpt lat="46.2799876" lon="11.0465898"><ele>478.0</ele><time>2026-04-25T09:28:40.621Z</time></trkpt><trkpt lat="46.2800801" lon="11.0467062"><ele>477.0</ele><time>2026-04-25T09:28:41.611Z</time></trkpt><trkpt lat="46.280183" lon="11.046835"><ele>476.0</ele><time>2026-04-25T09:28:42.625Z</time></trkpt><trkpt lat="46.2802756" lon="11.0469509"><ele>476.0</ele><time>2026-04-25T09:28:43.629Z</time></trkpt><trkpt lat="46.280368" lon="11.0470713"><ele>476.0</ele><time>2026-04-25T09:28:44.645Z</time></trkpt><trkpt lat="46.2804579" lon="11.0471719"><ele>476.0</ele><time>2026-04-25T09:28:45.65Z</time></trkpt><trkpt lat="46.2805458" lon="11.0472604"><ele>476.0</ele><time>2026-04-25T09:28:46.638Z</time></trkpt><trkpt lat="46.2806322" lon="11.047328"><ele>476.0</ele><time>2026-04-25T09:28:47.63Z</time></trkpt><trkpt lat="46.2807126" lon="11.0473808"><ele>474.8333333333333</ele><time>2026-04-25T09:28:48.612Z</time></trkpt><trkpt lat="46.2807845" lon="11.0474292"><ele>473.66666666666663</ele><time>2026-04-25T09:28:49.631Z</time></trkpt><trkpt lat="46.280843" lon="11.0474728"><ele>472.5</ele><time>2026-04-25T09:28:50.616Z</time></trkpt><trkpt lat="46.2808629" lon="11.0475772"><ele>471.33333333333337</ele><time>2026-04-25T09:28:52.612Z</time></trkpt><trkpt lat="46.2808026" lon="11.0476194"><ele>470.1666666666667</ele><time>2026-04-25T09:28:54.613Z</time></trkpt><trkpt lat="46.2807162" lon="11.0476008"><ele>469.0</ele><time>2026-04-25T09:28:55.604Z</time></trkpt><trkpt lat="46.2805981" lon="11.0475404"><ele>470.75</ele><time>2026-04-25T09:28:56.651Z</time></trkpt><trkpt lat="46.2804875" lon="11.0474773"><ele>472.5</ele><time>2026-04-25T09:28:57.611Z</time></trkpt><trkpt lat="46.2803665" lon="11.0474109"><ele>474.25</ele><time>2026-04-25T09:28:58.607Z</time></trkpt><trkpt lat="46.2802604" lon="11.0473505"><ele>476.0</ele><time>2026-04-25T09:28:59.639Z</time></trkpt><trkpt lat="46.2801604" lon="11.0472963"><ele>476.0</ele><time>2026-04-25T09:29:00.607Z</time></trkpt><trkpt lat="46.2800614" lon="11.0472422"><ele>476.0</ele><time>2026-04-25T09:29:01.64Z</time></trkpt><trkpt lat="46.2799641" lon="11.047195"><ele>476.0</ele><time>2026-04-25T09:29:02.636Z</time></trkpt><trkpt lat="46.2798585" lon="11.0471624"><ele>476.0</ele><time>2026-04-25T09:29:03.636Z</time></trkpt><trkpt lat="46.2797487" lon="11.0471624"><ele>476.0</ele><time>2026-04-25T09:29:04.608Z</time></trkpt><trkpt lat="46.2796164" lon="11.0471824"><ele>474.75</ele><time>2026-04-25T09:29:05.634Z</time></trkpt><trkpt lat="46.2794821" lon="11.0472154"><ele>473.5</ele><time>2026-04-25T09:29:06.635Z</time></trkpt><trkpt lat="46.2793608" lon="11.047251"><ele>472.25</ele><time>2026-04-25T09:29:07.616Z</time></trkpt><trkpt lat="46.27924" lon="11.0472894"><ele>471.0</ele><time>2026-04-25T09:29:08.615Z</time></trkpt><trkpt lat="46.2791294" lon="11.04732"><ele>471.0</ele><time>2026-04-25T09:29:09.639Z</time></trkpt><trkpt lat="46.279029" lon="11.0473457"><ele>471.0</ele><time>2026-04-25T09:29:10.646Z</time></trkpt><trkpt lat="46.2789362" lon="11.0473651"><ele>471.0</ele><time>2026-04-25T09:29:11.636Z</time></trkpt><trkpt lat="46.2788409" lon="11.0473888"><ele>471.0</ele><time>2026-04-25T09:29:12.64Z</time></trkpt><trkpt lat="46.2787424" lon="11.0474123"><ele>471.0</ele><time>2026-04-25T09:29:13.625Z</time></trkpt><trkpt lat="46.2786374" lon="11.0474336"><ele>470.0</ele><time>2026-04-25T09:29:14.645Z</time></trkpt><trkpt lat="46.2785339" lon="11.0474587"><ele>469.0</ele><time>2026-04-25T09:29:15.65Z</time></trkpt><trkpt lat="46.2784271" lon="11.0474851"><ele>468.0</ele><time>2026-04-25T09:29:16.634Z</time></trkpt><trkpt lat="46.278315" lon="11.0475107"><ele>467.0</ele><time>2026-04-25T09:29:17.635Z</time></trkpt><trkpt lat="46.2782033" lon="11.0475273"><ele>466.0</ele><time>2026-04-25T09:29:18.64Z</time></trkpt><trkpt lat="46.2780934" lon="11.0475487"><ele>461.5</ele><time>2026-04-25T09:29:19.626Z</time></trkpt><trkpt lat="46.2779799" lon="11.0475728"><ele>457.0</ele><time>2026-04-25T09:29:20.64Z</time></trkpt><trkpt lat="46.2778704" lon="11.0475948"><ele>452.5</ele><time>2026-04-25T09:29:21.612Z</time></trkpt><trkpt lat="46.2777546" lon="11.0476202"><ele>448.0</ele><time>2026-04-25T09:29:22.639Z</time></trkpt><trkpt lat="46.2776447" lon="11.04765"><ele>448.0</ele><time>2026-04-25T09:29:23.613Z</time></trkpt><trkpt lat="46.2775349" lon="11.0476822"><ele>448.0</ele><time>2026-04-25T09:29:24.612Z</time></trkpt><trkpt lat="46.2774197" lon="11.0477244"><ele>448.0</ele><time>2026-04-25T09:29:25.655Z</time></trkpt><trkpt lat="46.277312" lon="11.0477697"><ele>448.0</ele><time>2026-04-25T09:29:26.653Z</time></trkpt><trkpt lat="46.2772056" lon="11.0478136"><ele>447.25</ele><time>2026-04-25T09:29:27.646Z</time></trkpt><trkpt lat="46.2771011" lon="11.0478502"><ele>446.5</ele><time>2026-04-25T09:29:28.609Z</time></trkpt><trkpt lat="46.2769825" lon="11.0478973"><ele>445.75</ele><time>2026-04-25T09:29:29.617Z</time></trkpt><trkpt lat="46.2768635" lon="11.0479427"><ele>445.0</ele><time>2026-04-25T09:29:30.614Z</time></trkpt><trkpt lat="46.2767142" lon="11.0480041"><ele>445.0</ele><time>2026-04-25T09:29:31.948Z</time></trkpt><trkpt lat="46.27654" lon="11.0480791"><ele>445.0</ele><time>2026-04-25T09:29:33.675Z</time></trkpt><trkpt lat="46.2764378" lon="11.0481102"><ele>445.0</ele><time>2026-04-25T09:29:34.667Z</time></trkpt><trkpt lat="46.2763326" lon="11.0481209"><ele>445.0</ele><time>2026-04-25T09:29:35.692Z</time></trkpt><trkpt lat="46.2762306" lon="11.0481151"><ele>444.0</ele><time>2026-04-25T09:29:36.657Z</time></trkpt><trkpt lat="46.2761191" lon="11.0481022"><ele>443.0</ele><time>2026-04-25T09:29:37.673Z</time></trkpt><trkpt lat="46.2760055" lon="11.0480905"><ele>442.0</ele><time>2026-04-25T09:29:38.672Z</time></trkpt><trkpt lat="46.2758886" lon="11.0480788"><ele>441.0</ele><time>2026-04-25T09:29:39.671Z</time></trkpt><trkpt lat="46.2757669" lon="11.0480685"><ele>441.0</ele><time>2026-04-25T09:29:40.682Z</time></trkpt><trkpt lat="46.2756534" lon="11.0480586"><ele>441.0</ele><time>2026-04-25T09:29:41.666Z</time></trkpt><trkpt lat="46.2755363" lon="11.0480511"><ele>441.0</ele><time>2026-04-25T09:29:42.703Z</time></trkpt><trkpt lat="46.2754259" lon="11.0480508"><ele>441.0</ele><time>2026-04-25T09:29:43.691Z</time></trkpt><trkpt lat="46.2753164" lon="11.048057"><ele>438.8</ele><time>2026-04-25T09:29:44.697Z</time></trkpt><trkpt lat="46.2752131" lon="11.0480705"><ele>436.6</ele><time>2026-04-25T09:29:45.691Z</time></trkpt><trkpt lat="46.275114" lon="11.0480846"><ele>434.4</ele><time>2026-04-25T09:29:46.685Z</time></trkpt><trkpt lat="46.2750125" lon="11.0481037"><ele>432.2</ele><time>2026-04-25T09:29:47.675Z</time></trkpt><trkpt lat="46.2749148" lon="11.048121"><ele>430.0</ele><time>2026-04-25T09:29:48.669Z</time></trkpt><trkpt lat="46.2748267" lon="11.048136"><ele>429.33333333333337</ele><time>2026-04-25T09:29:49.671Z</time></trkpt><trkpt lat="46.2747417" lon="11.0481498"><ele>428.6666666666667</ele><time>2026-04-25T09:29:50.704Z</time></trkpt><trkpt lat="46.2746702" lon="11.0481615"><ele>428.0</ele><time>2026-04-25T09:29:51.668Z</time></trkpt><trkpt lat="46.2746061" lon="11.0481691"><ele>427.33333333333337</ele><time>2026-04-25T09:29:52.679Z</time></trkpt><trkpt lat="46.2744876" lon="11.0481809"><ele>426.6666666666667</ele><time>2026-04-25T09:29:54.706Z</time></trkpt><trkpt lat="46.2743831" lon="11.0481977"><ele>426.0</ele><time>2026-04-25T09:29:56.689Z</time></trkpt><trkpt lat="46.2743053" lon="11.0482117"><ele>426.0</ele><time>2026-04-25T09:29:58.672Z</time></trkpt><trkpt lat="46.274235" lon="11.0482219"><ele>426.0</ele><time>2026-04-25T09:30:00.689Z</time></trkpt><trkpt lat="46.2741704" lon="11.0482326"><ele>426.0</ele><time>2026-04-25T09:30:02.665Z</time></trkpt><trkpt lat="46.2741063" lon="11.0482418"><ele>426.0</ele><time>2026-04-25T09:30:04.667Z</time></trkpt><trkpt lat="46.2740268" lon="11.0482592"><ele>426.0</ele><time>2026-04-25T09:30:07.661Z</time></trkpt><trkpt lat="46.2739323" lon="11.0483114"><ele>426.0</ele><time>2026-04-25T09:30:28.673Z</time></trkpt><trkpt lat="46.2738398" lon="11.0483877"><ele>426.4</ele><time>2026-04-25T09:30:30.694Z</time></trkpt><trkpt lat="46.2737552" lon="11.0484797"><ele>426.8</ele><time>2026-04-25T09:30:32.687Z</time></trkpt><trkpt lat="46.2736783" lon="11.0485983"><ele>427.19999999999993</ele><time>2026-04-25T09:30:34.691Z</time></trkpt><trkpt lat="46.2736187" lon="11.0487472"><ele>427.59999999999997</ele><time>2026-04-25T09:30:36.659Z</time></trkpt><trkpt lat="46.2735936" lon="11.0488486"><ele>428.0</ele><time>2026-04-25T09:30:37.668Z</time></trkpt><trkpt lat="46.2735698" lon="11.0489653"><ele>427.99999999999994</ele><time>2026-04-25T09:30:38.661Z</time></trkpt><trkpt lat="46.2735498" lon="11.0490948"><ele>428.0</ele><time>2026-04-25T09:30:39.676Z</time></trkpt><trkpt lat="46.2735334" lon="11.0492166"><ele>428.0</ele><time>2026-04-25T09:30:40.667Z</time></trkpt><trkpt lat="46.2735159" lon="11.0493371"><ele>428.0</ele><time>2026-04-25T09:30:41.7Z</time></trkpt><trkpt lat="46.2735012" lon="11.0494457"><ele>427.99999999999994</ele><time>2026-04-25T09:30:42.661Z</time></trkpt><trkpt lat="46.2734852" lon="11.0495607"><ele>428.0</ele><time>2026-04-25T09:30:43.666Z</time></trkpt><trkpt lat="46.2734665" lon="11.0496859"><ele>428.2</ele><time>2026-04-25T09:30:44.701Z</time></trkpt><trkpt lat="46.27345" lon="11.0498084"><ele>428.4</ele><time>2026-04-25T09:30:45.666Z</time></trkpt><trkpt lat="46.2734342" lon="11.04994"><ele>428.59999999999997</ele><time>2026-04-25T09:30:46.662Z</time></trkpt><trkpt lat="46.2734192" lon="11.0500761"><ele>428.79999999999995</ele><time>2026-04-25T09:30:47.668Z</time></trkpt><trkpt lat="46.2734017" lon="11.0502048"><ele>429.0</ele><time>2026-04-25T09:30:48.66Z</time></trkpt><trkpt lat="46.2733728" lon="11.0503282"><ele>428.0</ele><time>2026-04-25T09:30:49.698Z</time></trkpt><trkpt lat="46.27333" lon="11.0504281"><ele>427.0</ele><time>2026-04-25T09:30:50.693Z</time></trkpt><trkpt lat="46.2732689" lon="11.0505096"><ele>426.0</ele><time>2026-04-25T09:30:51.675Z</time></trkpt><trkpt lat="46.273183" lon="11.0505724"><ele>425.0</ele><time>2026-04-25T09:30:52.706Z</time></trkpt><trkpt lat="46.2730826" lon="11.0506138"><ele>424.0</ele><time>2026-04-25T09:30:53.701Z</time></trkpt><trkpt lat="46.2729847" lon="11.0506456"><ele>423.00000000000006</ele><time>2026-04-25T09:30:54.688Z</time></trkpt><trkpt lat="46.2728913" lon="11.0506775"><ele>422.0</ele><time>2026-04-25T09:30:55.684Z</time></trkpt><trkpt lat="46.2728013" lon="11.0507142"><ele>421.0</ele><time>2026-04-25T09:30:56.688Z</time></trkpt><trkpt lat="46.2727214" lon="11.050771"><ele>420.0</ele><time>2026-04-25T09:30:57.692Z</time></trkpt><trkpt lat="46.2726594" lon="11.0508545"><ele>419.00000000000006</ele><time>2026-04-25T09:30:58.697Z</time></trkpt><trkpt lat="46.2726263" lon="11.0509551"><ele>418.0</ele><time>2026-04-25T09:30:59.676Z</time></trkpt><trkpt lat="46.2726212" lon="11.0510635"><ele>417.59999999999997</ele><time>2026-04-25T09:31:00.655Z</time></trkpt><trkpt lat="46.2726495" lon="11.0511731"><ele>417.2</ele><time>2026-04-25T09:31:01.667Z</time></trkpt><trkpt lat="46.2727061" lon="11.0512768"><ele>416.8</ele><time>2026-04-25T09:31:02.668Z</time></trkpt><trkpt lat="46.272786" lon="11.0513691"><ele>416.4</ele><time>2026-04-25T09:31:03.671Z</time></trkpt><trkpt lat="46.2728782" lon="11.0514615"><ele>416.0</ele><time>2026-04-25T09:31:04.721Z</time></trkpt><trkpt lat="46.2729652" lon="11.0515569"><ele>415.4</ele><time>2026-04-25T09:31:05.69Z</time></trkpt><trkpt lat="46.2730528" lon="11.0516553"><ele>414.8</ele><time>2026-04-25T09:31:06.699Z</time></trkpt><trkpt lat="46.2731372" lon="11.0517409"><ele>414.2</ele><time>2026-04-25T09:31:07.665Z</time></trkpt><trkpt lat="46.2732205" lon="11.051824"><ele>413.59999999999997</ele><time>2026-04-25T09:31:08.673Z</time></trkpt><trkpt lat="46.2732869" lon="11.0519076"><ele>413.0</ele><time>2026-04-25T09:31:09.669Z</time></trkpt><trkpt lat="46.2733211" lon="11.0520074"><ele>413.0</ele><time>2026-04-25T09:31:10.694Z</time></trkpt><trkpt lat="46.2733146" lon="11.0521105"><ele>413.0</ele><time>2026-04-25T09:31:11.668Z</time></trkpt><trkpt lat="46.2732687" lon="11.0521983"><ele>413.0</ele><time>2026-04-25T09:31:12.69Z</time></trkpt><trkpt lat="46.2731843" lon="11.0522469"><ele>413.0</ele><time>2026-04-25T09:31:13.693Z</time></trkpt><trkpt lat="46.2730727" lon="11.0522528"><ele>413.0</ele><time>2026-04-25T09:31:14.699Z</time></trkpt><trkpt lat="46.2729503" lon="11.0522373"><ele>412.5</ele><time>2026-04-25T09:31:15.685Z</time></trkpt><trkpt lat="46.2728141" lon="11.0522234"><ele>412.0</ele><time>2026-04-25T09:31:16.666Z</time></trkpt><trkpt lat="46.2726761" lon="11.0522097"><ele>411.5</ele><time>2026-04-25T09:31:17.696Z</time></trkpt><trkpt lat="46.2725498" lon="11.0521981"><ele>411.0</ele><time>2026-04-25T09:31:18.659Z</time></trkpt><trkpt lat="46.2724139" lon="11.0521905"><ele>411.0</ele><time>2026-04-25T09:31:19.708Z</time></trkpt><trkpt lat="46.2722872" lon="11.0521908"><ele>411.0</ele><time>2026-04-25T09:31:20.663Z</time></trkpt><trkpt lat="46.2721522" lon="11.052193"><ele>411.0</ele><time>2026-04-25T09:31:21.662Z</time></trkpt><trkpt lat="46.2720132" lon="11.0522048"><ele>411.0</ele><time>2026-04-25T09:31:22.664Z</time></trkpt><trkpt lat="46.2718788" lon="11.0522334"><ele>410.0</ele><time>2026-04-25T09:31:23.667Z</time></trkpt><trkpt lat="46.2717449" lon="11.0522833"><ele>409.0</ele><time>2026-04-25T09:31:24.699Z</time></trkpt><trkpt lat="46.2716167" lon="11.0523433"><ele>408.0</ele><time>2026-04-25T09:31:25.702Z</time></trkpt><trkpt lat="46.2714901" lon="11.0524018"><ele>407.0</ele><time>2026-04-25T09:31:26.678Z</time></trkpt><trkpt lat="46.2713607" lon="11.0524639"><ele>403.75</ele><time>2026-04-25T09:31:27.673Z</time></trkpt><trkpt lat="46.2712366" lon="11.0525278"><ele>400.5</ele><time>2026-04-25T09:31:28.669Z</time></trkpt><trkpt lat="46.2711139" lon="11.0525915"><ele>397.25</ele><time>2026-04-25T09:31:29.673Z</time></trkpt><trkpt lat="46.2709899" lon="11.0526563"><ele>394.0</ele><time>2026-04-25T09:31:30.693Z</time></trkpt><trkpt lat="46.2708738" lon="11.0527159"><ele>394.0</ele><time>2026-04-25T09:31:31.681Z</time></trkpt><trkpt lat="46.2707609" lon="11.052772"><ele>394.0</ele><time>2026-04-25T09:31:32.674Z</time></trkpt><trkpt lat="46.2706469" lon="11.0528281"><ele>394.0</ele><time>2026-04-25T09:31:33.714Z</time></trkpt><trkpt lat="46.2705441" lon="11.0528804"><ele>394.0</ele><time>2026-04-25T09:31:34.692Z</time></trkpt><trkpt lat="46.270442" lon="11.0529331"><ele>393.2</ele><time>2026-04-25T09:31:35.667Z</time></trkpt><trkpt lat="46.2703342" lon="11.0529902"><ele>392.4</ele><time>2026-04-25T09:31:36.679Z</time></trkpt><trkpt lat="46.2702315" lon="11.0530465"><ele>391.6</ele><time>2026-04-25T09:31:37.667Z</time></trkpt><trkpt lat="46.2701274" lon="11.0531015"><ele>390.8</ele><time>2026-04-25T09:31:38.694Z</time></trkpt><trkpt lat="46.2700264" lon="11.0531439"><ele>390.0</ele><time>2026-04-25T09:31:39.71Z</time></trkpt><trkpt lat="46.2699262" lon="11.0531669"><ele>390.0</ele><time>2026-04-25T09:31:40.702Z</time></trkpt><trkpt lat="46.2698245" lon="11.0531677"><ele>390.0</ele><time>2026-04-25T09:31:41.667Z</time></trkpt><trkpt lat="46.269713" lon="11.0531428"><ele>390.0</ele><time>2026-04-25T09:31:42.658Z</time></trkpt><trkpt lat="46.2695896" lon="11.0530968"><ele>390.0</ele><time>2026-04-25T09:31:43.676Z</time></trkpt><trkpt lat="46.2694609" lon="11.0530476"><ele>388.75</ele><time>2026-04-25T09:31:44.697Z</time></trkpt><trkpt lat="46.2693365" lon="11.0530143"><ele>387.5</ele><time>2026-04-25T09:31:45.702Z</time></trkpt><trkpt lat="46.2692133" lon="11.0530051"><ele>386.25</ele><time>2026-04-25T09:31:46.711Z</time></trkpt><trkpt lat="46.2691025" lon="11.0530217"><ele>385.0</ele><time>2026-04-25T09:31:47.662Z</time></trkpt><trkpt lat="46.2689899" lon="11.0530579"><ele>383.4</ele><time>2026-04-25T09:31:48.672Z</time></trkpt><trkpt lat="46.2688825" lon="11.0530993"><ele>381.8</ele><time>2026-04-25T09:31:49.687Z</time></trkpt><trkpt lat="46.2687778" lon="11.0531336"><ele>380.20000000000005</ele><time>2026-04-25T09:31:50.696Z</time></trkpt><trkpt lat="46.2686781" lon="11.0531511"><ele>378.6</ele><time>2026-04-25T09:31:51.667Z</time></trkpt><trkpt lat="46.2685782" lon="11.0531463"><ele>377.0</ele><time>2026-04-25T09:31:52.667Z</time></trkpt><trkpt lat="46.268482" lon="11.0531235"><ele>377.0</ele><time>2026-04-25T09:31:53.669Z</time></trkpt><trkpt lat="46.2683897" lon="11.0530848"><ele>377.0</ele><time>2026-04-25T09:31:54.686Z</time></trkpt><trkpt lat="46.2682985" lon="11.0530473"><ele>377.0</ele><time>2026-04-25T09:31:55.724Z</time></trkpt><trkpt lat="46.2682212" lon="11.053038"><ele>377.0</ele><time>2026-04-25T09:31:56.662Z</time></trkpt><trkpt lat="46.2681449" lon="11.0530711"><ele>377.0</ele><time>2026-04-25T09:31:57.695Z</time></trkpt><trkpt lat="46.2681003" lon="11.0531424"><ele>377.0</ele><time>2026-04-25T09:31:58.692Z</time></trkpt><trkpt lat="46.2680954" lon="11.0532365"><ele>374.0</ele><time>2026-04-25T09:31:59.695Z</time></trkpt><trkpt lat="46.2681937" lon="11.0533682"><ele>371.0</ele><time>2026-04-25T09:32:01.692Z</time></trkpt><trkpt lat="46.2682865" lon="11.0534016"><ele>368.0</ele><time>2026-04-25T09:32:02.676Z</time></trkpt><trkpt lat="46.2683944" lon="11.0534294"><ele>365.0</ele><time>2026-04-25T09:32:03.664Z</time></trkpt><trkpt lat="46.2685125" lon="11.0534676"><ele>365.0</ele><time>2026-04-25T09:32:04.669Z</time></trkpt><trkpt lat="46.2686271" lon="11.0535064"><ele>365.0</ele><time>2026-04-25T09:32:05.668Z</time></trkpt><trkpt lat="46.2687411" lon="11.0535409"><ele>365.0</ele><time>2026-04-25T09:32:06.681Z</time></trkpt><trkpt lat="46.2688519" lon="11.053572"><ele>365.0</ele><time>2026-04-25T09:32:07.685Z</time></trkpt><trkpt lat="46.268958" lon="11.0536023"><ele>366.2</ele><time>2026-04-25T09:32:08.668Z</time></trkpt><trkpt lat="46.2690665" lon="11.0536383"><ele>367.4</ele><time>2026-04-25T09:32:09.698Z</time></trkpt><trkpt lat="46.2691664" lon="11.0536801"><ele>368.6</ele><time>2026-04-25T09:32:10.669Z</time></trkpt><trkpt lat="46.2692684" lon="11.0537365"><ele>369.8</ele><time>2026-04-25T09:32:11.692Z</time></trkpt><trkpt lat="46.2693626" lon="11.0537992"><ele>371.0</ele><time>2026-04-25T09:32:12.672Z</time></trkpt><trkpt lat="46.2694574" lon="11.0538641"><ele>371.0</ele><time>2026-04-25T09:32:13.657Z</time></trkpt><trkpt lat="46.2695583" lon="11.0539324"><ele>371.0</ele><time>2026-04-25T09:32:14.694Z</time></trkpt><trkpt lat="46.2696533" lon="11.0539948"><ele>371.0</ele><time>2026-04-25T09:32:15.658Z</time></trkpt><trkpt lat="46.2697548" lon="11.0540572"><ele>371.0</ele><time>2026-04-25T09:32:16.66Z</time></trkpt><trkpt lat="46.2698609" lon="11.0541243"><ele>371.0</ele><time>2026-04-25T09:32:17.698Z</time></trkpt><trkpt lat="46.2699623" lon="11.0541923"><ele>368.8</ele><time>2026-04-25T09:32:18.687Z</time></trkpt><trkpt lat="46.2700631" lon="11.0542592"><ele>366.6</ele><time>2026-04-25T09:32:19.685Z</time></trkpt><trkpt lat="46.2701605" lon="11.054317"><ele>364.4</ele><time>2026-04-25T09:32:20.676Z</time></trkpt><trkpt lat="46.2702527" lon="11.0543629"><ele>362.2</ele><time>2026-04-25T09:32:21.687Z</time></trkpt><trkpt lat="46.2703281" lon="11.0544024"><ele>360.0</ele><time>2026-04-25T09:32:22.661Z</time></trkpt><trkpt lat="46.2703842" lon="11.0544586"><ele>360.0</ele><time>2026-04-25T09:32:23.688Z</time></trkpt><trkpt lat="46.2703879" lon="11.0546141"><ele>360.0</ele><time>2026-04-25T09:32:25.69Z</time></trkpt><trkpt lat="46.2702476" lon="11.0546296"><ele>360.0</ele><time>2026-04-25T09:32:27.669Z</time></trkpt><trkpt lat="46.2701506" lon="11.0545818"><ele>360.0</ele><time>2026-04-25T09:32:28.661Z</time></trkpt><trkpt lat="46.2700503" lon="11.0545402"><ele>360.0</ele><time>2026-04-25T09:32:29.697Z</time></trkpt><trkpt lat="46.2699541" lon="11.0545177"><ele>360.0</ele><time>2026-04-25T09:32:30.69Z</time></trkpt><trkpt lat="46.2698476" lon="11.0545092"><ele>360.0</ele><time>2026-04-25T09:32:31.698Z</time></trkpt><trkpt lat="46.2697387" lon="11.0545056"><ele>360.0</ele><time>2026-04-25T09:32:32.67Z</time></trkpt><trkpt lat="46.269624" lon="11.0544967"><ele>360.0</ele><time>2026-04-25T09:32:33.666Z</time></trkpt><trkpt lat="46.2695" lon="11.0544828"><ele>358.5</ele><time>2026-04-25T09:32:34.701Z</time></trkpt><trkpt lat="46.2693755" lon="11.054477"><ele>357.0</ele><time>2026-04-25T09:32:35.694Z</time></trkpt><trkpt lat="46.269246" lon="11.0544916"><ele>355.5</ele><time>2026-04-25T09:32:36.714Z</time></trkpt><trkpt lat="46.269129" lon="11.0545184"><ele>354.0</ele><time>2026-04-25T09:32:37.665Z</time></trkpt><trkpt lat="46.2690072" lon="11.0545538"><ele>353.0</ele><time>2026-04-25T09:32:38.694Z</time></trkpt><trkpt lat="46.2688912" lon="11.0545926"><ele>352.0</ele><time>2026-04-25T09:32:39.71Z</time></trkpt><trkpt lat="46.268786" lon="11.0546352"><ele>351.0</ele><time>2026-04-25T09:32:40.67Z</time></trkpt><trkpt lat="46.2686797" lon="11.0546805"><ele>350.0</ele><time>2026-04-25T09:32:41.669Z</time></trkpt><trkpt lat="46.2685729" lon="11.0547226"><ele>350.0</ele><time>2026-04-25T09:32:42.69Z</time></trkpt><trkpt lat="46.2684673" lon="11.0547666"><ele>350.0</ele><time>2026-04-25T09:32:43.697Z</time></trkpt><trkpt lat="46.2683568" lon="11.0548166"><ele>350.0</ele><time>2026-04-25T09:32:44.721Z</time></trkpt><trkpt lat="46.2682516" lon="11.0548622"><ele>350.0</ele><time>2026-04-25T09:32:45.673Z</time></trkpt><trkpt lat="46.2681365" lon="11.054908"><ele>346.0</ele><time>2026-04-25T09:32:46.684Z</time></trkpt><trkpt lat="46.268021" lon="11.0549511"><ele>342.0</ele><time>2026-04-25T09:32:47.672Z</time></trkpt><trkpt lat="46.2679011" lon="11.0549918"><ele>338.0</ele><time>2026-04-25T09:32:48.67Z</time></trkpt><trkpt lat="46.2677755" lon="11.0550233"><ele>334.0</ele><time>2026-04-25T09:32:49.684Z</time></trkpt><trkpt lat="46.2676463" lon="11.0550408"><ele>333.0</ele><time>2026-04-25T09:32:50.7Z</time></trkpt><trkpt lat="46.267515" lon="11.0550437"><ele>332.0</ele><time>2026-04-25T09:32:51.717Z</time></trkpt><trkpt lat="46.2673919" lon="11.0550395"><ele>331.0</ele><time>2026-04-25T09:32:52.692Z</time></trkpt><trkpt lat="46.2672738" lon="11.0550498"><ele>330.0</ele><time>2026-04-25T09:32:53.668Z</time></trkpt><trkpt lat="46.2671558" lon="11.0550958"><ele>326.25</ele><time>2026-04-25T09:32:54.691Z</time></trkpt><trkpt lat="46.2670553" lon="11.0551768"><ele>322.5</ele><time>2026-04-25T09:32:55.669Z</time></trkpt><trkpt lat="46.2669596" lon="11.0552867"><ele>318.75</ele><time>2026-04-25T09:32:56.676Z</time></trkpt><trkpt lat="46.2668699" lon="11.0554255"><ele>315.0</ele><time>2026-04-25T09:32:57.693Z</time></trkpt><trkpt lat="46.2667941" lon="11.0555659"><ele>315.0</ele><time>2026-04-25T09:32:58.662Z</time></trkpt><trkpt lat="46.266718" lon="11.0557099"><ele>315.0</ele><time>2026-04-25T09:32:59.672Z</time></trkpt><trkpt lat="46.2666401" lon="11.0558505"><ele>315.0</ele><time>2026-04-25T09:33:00.69Z</time></trkpt><trkpt lat="46.2665558" lon="11.0559785"><ele>315.0</ele><time>2026-04-25T09:33:01.695Z</time></trkpt><trkpt lat="46.2664567" lon="11.0560857"><ele>313.25</ele><time>2026-04-25T09:33:02.696Z</time></trkpt><trkpt lat="46.2663458" lon="11.0561558"><ele>311.5</ele><time>2026-04-25T09:33:03.67Z</time></trkpt><trkpt lat="46.2662238" lon="11.0562078"><ele>309.75</ele><time>2026-04-25T09:33:04.67Z</time></trkpt><trkpt lat="46.2660983" lon="11.0562575"><ele>308.0</ele><time>2026-04-25T09:33:05.665Z</time></trkpt><trkpt lat="46.2659706" lon="11.0563089"><ele>308.0</ele><time>2026-04-25T09:33:06.664Z</time></trkpt><trkpt lat="46.2658442" lon="11.0563633"><ele>308.0</ele><time>2026-04-25T09:33:07.654Z</time></trkpt><trkpt lat="46.2657353" lon="11.0564098"><ele>308.0</ele><time>2026-04-25T09:33:08.641Z</time></trkpt><trkpt lat="46.2656315" lon="11.0564475"><ele>308.0</ele><time>2026-04-25T09:33:09.633Z</time></trkpt><trkpt lat="46.2655273" lon="11.056486"><ele>308.2</ele><time>2026-04-25T09:33:10.643Z</time></trkpt><trkpt lat="46.2654311" lon="11.05652"><ele>308.4</ele><time>2026-04-25T09:33:11.609Z</time></trkpt><trkpt lat="46.2653407" lon="11.056568"><ele>308.59999999999997</ele><time>2026-04-25T09:33:12.636Z</time></trkpt><trkpt lat="46.265265" lon="11.0566451"><ele>308.8</ele><time>2026-04-25T09:33:13.608Z</time></trkpt><trkpt lat="46.2651953" lon="11.0567612"><ele>309.0</ele><time>2026-04-25T09:33:14.649Z</time></trkpt><trkpt lat="46.2651353" lon="11.0568781"><ele>308.0</ele><time>2026-04-25T09:33:15.622Z</time></trkpt><trkpt lat="46.2650781" lon="11.0569975"><ele>307.0</ele><time>2026-04-25T09:33:16.613Z</time></trkpt><trkpt lat="46.2650146" lon="11.0571086"><ele>306.0</ele><time>2026-04-25T09:33:17.653Z</time></trkpt><trkpt lat="46.2649549" lon="11.0572068"><ele>305.0</ele><time>2026-04-25T09:33:18.61Z</time></trkpt><trkpt lat="46.264891" lon="11.0573089"><ele>304.0</ele><time>2026-04-25T09:33:19.624Z</time></trkpt><trkpt lat="46.2648256" lon="11.0574186"><ele>303.0</ele><time>2026-04-25T09:33:20.638Z</time></trkpt><trkpt lat="46.2647654" lon="11.0575212"><ele>302.0</ele><time>2026-04-25T09:33:21.624Z</time></trkpt><trkpt lat="46.2647088" lon="11.0576166"><ele>301.0</ele><time>2026-04-25T09:33:22.638Z</time></trkpt><trkpt lat="46.2646509" lon="11.0576977"><ele>300.0</ele><time>2026-04-25T09:33:23.629Z</time></trkpt><trkpt lat="46.2645927" lon="11.057785"><ele>299.0</ele><time>2026-04-25T09:33:24.625Z</time></trkpt><trkpt lat="46.2645527" lon="11.0578727"><ele>298.0</ele><time>2026-04-25T09:33:25.611Z</time></trkpt><trkpt lat="46.2645289" lon="11.0579834"><ele>298.0</ele><time>2026-04-25T09:33:26.61Z</time></trkpt><trkpt lat="46.2645106" lon="11.0580924"><ele>298.0</ele><time>2026-04-25T09:33:27.615Z</time></trkpt><trkpt lat="46.2644882" lon="11.0581925"><ele>298.0</ele><time>2026-04-25T09:33:28.649Z</time></trkpt><trkpt lat="46.264454" lon="11.0582731"><ele>298.0</ele><time>2026-04-25T09:33:29.645Z</time></trkpt><trkpt lat="46.2643912" lon="11.0583559"><ele>298.0</ele><time>2026-04-25T09:33:30.634Z</time></trkpt><trkpt lat="46.264306" lon="11.0584418"><ele>298.0</ele><time>2026-04-25T09:33:31.644Z</time></trkpt><trkpt lat="46.2642226" lon="11.0585395"><ele>297.8</ele><time>2026-04-25T09:33:32.635Z</time></trkpt><trkpt lat="46.2641308" lon="11.0586494"><ele>297.6</ele><time>2026-04-25T09:33:33.645Z</time></trkpt><trkpt lat="46.2640487" lon="11.0587485"><ele>297.4</ele><time>2026-04-25T09:33:34.647Z</time></trkpt><trkpt lat="46.2639753" lon="11.0588261"><ele>297.2</ele><time>2026-04-25T09:33:35.613Z</time></trkpt><trkpt lat="46.2639035" lon="11.0588477"><ele>297.0</ele><time>2026-04-25T09:33:36.612Z</time></trkpt><trkpt lat="46.2638192" lon="11.0588253"><ele>297.0</ele><time>2026-04-25T09:33:37.616Z</time></trkpt><trkpt lat="46.2637281" lon="11.0587575"><ele>297.0</ele><time>2026-04-25T09:33:38.652Z</time></trkpt><trkpt lat="46.2636347" lon="11.0586567"><ele>297.0</ele><time>2026-04-25T09:33:39.614Z</time></trkpt><trkpt lat="46.2635277" lon="11.058522"><ele>297.0</ele><time>2026-04-25T09:33:40.639Z</time></trkpt><trkpt lat="46.2634036" lon="11.0583729"><ele>297.6666666666667</ele><time>2026-04-25T09:33:41.61Z</time></trkpt><trkpt lat="46.2632689" lon="11.0581985"><ele>298.33333333333337</ele><time>2026-04-25T09:33:42.617Z</time></trkpt><trkpt lat="46.2631409" lon="11.0580375"><ele>299.0</ele><time>2026-04-25T09:33:43.616Z</time></trkpt><trkpt lat="46.2629917" lon="11.0578685"><ele>300.0</ele><time>2026-04-25T09:33:44.657Z</time></trkpt><trkpt lat="46.2628629" lon="11.0577323"><ele>301.0</ele><time>2026-04-25T09:33:45.608Z</time></trkpt><trkpt lat="46.2627225" lon="11.05761"><ele>302.0</ele><time>2026-04-25T09:33:46.594Z</time></trkpt><trkpt lat="46.2625718" lon="11.0574867"><ele>304.6666666666667</ele><time>2026-04-25T09:33:47.613Z</time></trkpt><trkpt lat="46.2624284" lon="11.0573806"><ele>307.3333333333333</ele><time>2026-04-25T09:33:48.641Z</time></trkpt><trkpt lat="46.2622794" lon="11.0572898"><ele>310.0</ele><time>2026-04-25T09:33:49.637Z</time></trkpt><trkpt lat="46.2621261" lon="11.0571957"><ele>310.0</ele><time>2026-04-25T09:33:50.621Z</time></trkpt><trkpt lat="46.2619724" lon="11.0571077"><ele>310.0</ele><time>2026-04-25T09:33:51.618Z</time></trkpt><trkpt lat="46.2618225" lon="11.0570282"><ele>310.0</ele><time>2026-04-25T09:33:52.615Z</time></trkpt><trkpt lat="46.2616741" lon="11.0569557"><ele>310.0</ele><time>2026-04-25T09:33:53.604Z</time></trkpt><trkpt lat="46.2615205" lon="11.0568881"><ele>310.0</ele><time>2026-04-25T09:33:54.619Z</time></trkpt><trkpt lat="46.2613566" lon="11.0568303"><ele>310.0</ele><time>2026-04-25T09:33:55.644Z</time></trkpt><trkpt lat="46.2611981" lon="11.0567855"><ele>307.3333333333333</ele><time>2026-04-25T09:33:56.597Z</time></trkpt><trkpt lat="46.2610161" lon="11.0567469"><ele>304.6666666666667</ele><time>2026-04-25T09:33:57.644Z</time></trkpt><trkpt lat="46.2608395" lon="11.056725"><ele>302.0</ele><time>2026-04-25T09:33:58.625Z</time></trkpt><trkpt lat="46.2606574" lon="11.0567139"><ele>301.33333333333337</ele><time>2026-04-25T09:33:59.635Z</time></trkpt><trkpt lat="46.2604696" lon="11.0567214"><ele>300.6666666666667</ele><time>2026-04-25T09:34:00.648Z</time></trkpt><trkpt lat="46.2602931" lon="11.0567374"><ele>300.0</ele><time>2026-04-25T09:34:01.607Z</time></trkpt><trkpt lat="46.2601115" lon="11.0567653"><ele>300.0</ele><time>2026-04-25T09:34:02.632Z</time></trkpt><trkpt lat="46.2599408" lon="11.0568079"><ele>300.0</ele><time>2026-04-25T09:34:03.641Z</time></trkpt><trkpt lat="46.2597797" lon="11.0568597"><ele>300.0</ele><time>2026-04-25T09:34:04.634Z</time></trkpt><trkpt lat="46.259624" lon="11.0569152"><ele>301.0</ele><time>2026-04-25T09:34:05.61Z</time></trkpt><trkpt lat="46.2594695" lon="11.0569837"><ele>302.0</ele><time>2026-04-25T09:34:06.596Z</time></trkpt><trkpt lat="46.2593056" lon="11.05707"><ele>303.0</ele><time>2026-04-25T09:34:07.646Z</time></trkpt><trkpt lat="46.2591479" lon="11.0571651"><ele>303.0</ele><time>2026-04-25T09:34:08.649Z</time></trkpt><trkpt lat="46.2589888" lon="11.0572709"><ele>303.0</ele><time>2026-04-25T09:34:09.642Z</time></trkpt><trkpt lat="46.2588264" lon="11.0573976"><ele>303.0</ele><time>2026-04-25T09:34:10.667Z</time></trkpt><trkpt lat="46.2586737" lon="11.0575195"><ele>299.6666666666667</ele><time>2026-04-25T09:34:11.614Z</time></trkpt><trkpt lat="46.2585137" lon="11.0576357"><ele>296.33333333333337</ele><time>2026-04-25T09:34:12.615Z</time></trkpt><trkpt lat="46.2583585" lon="11.057748"><ele>293.0</ele><time>2026-04-25T09:34:13.641Z</time></trkpt><trkpt lat="46.2582058" lon="11.057861"><ele>295.33333333333337</ele><time>2026-04-25T09:34:14.643Z</time></trkpt><trkpt lat="46.2580599" lon="11.0579771"><ele>297.6666666666667</ele><time>2026-04-25T09:34:15.615Z</time></trkpt><trkpt lat="46.2579078" lon="11.0580909"><ele>300.0</ele><time>2026-04-25T09:34:16.631Z</time></trkpt><trkpt lat="46.2577583" lon="11.0581964"><ele>294.6666666666667</ele><time>2026-04-25T09:34:17.623Z</time></trkpt><trkpt lat="46.2576093" lon="11.0582863"><ele>289.33333333333337</ele><time>2026-04-25T09:34:18.616Z</time></trkpt><trkpt lat="46.2574489" lon="11.0583654"><ele>284.0</ele><time>2026-04-25T09:34:19.647Z</time></trkpt><trkpt lat="46.257296" lon="11.0584246"><ele>284.33333333333337</ele><time>2026-04-25T09:34:20.649Z</time></trkpt><trkpt lat="46.2571315" lon="11.0584752"><ele>284.6666666666667</ele><time>2026-04-25T09:34:21.646Z</time></trkpt><trkpt lat="46.256958" lon="11.0585108"><ele>285.0</ele><time>2026-04-25T09:34:22.646Z</time></trkpt><trkpt lat="46.2567882" lon="11.0585332"><ele>285.0</ele><time>2026-04-25T09:34:23.646Z</time></trkpt><trkpt lat="46.2566196" lon="11.0585421"><ele>285.0</ele><time>2026-04-25T09:34:24.624Z</time></trkpt><trkpt lat="46.2564442" lon="11.0585279"><ele>285.0</ele><time>2026-04-25T09:34:25.621Z</time></trkpt><trkpt lat="46.2562615" lon="11.0585006"><ele>282.6666666666667</ele><time>2026-04-25T09:34:26.608Z</time></trkpt><trkpt lat="46.2560568" lon="11.0584611"><ele>280.33333333333337</ele><time>2026-04-25T09:34:27.657Z</time></trkpt><trkpt lat="46.2558542" lon="11.0584241"><ele>278.0</ele><time>2026-04-25T09:34:28.654Z</time></trkpt><trkpt lat="46.2556559" lon="11.0583849"><ele>276.6666666666667</ele><time>2026-04-25T09:34:29.647Z</time></trkpt><trkpt lat="46.2554636" lon="11.0583452"><ele>275.3333333333333</ele><time>2026-04-25T09:34:30.619Z</time></trkpt><trkpt lat="46.2552629" lon="11.0583091"><ele>274.0</ele><time>2026-04-25T09:34:31.619Z</time></trkpt><trkpt lat="46.2550741" lon="11.0582741"><ele>276.0</ele><time>2026-04-25T09:34:32.621Z</time></trkpt><trkpt lat="46.2548904" lon="11.058238"><ele>278.0</ele><time>2026-04-25T09:34:33.645Z</time></trkpt><trkpt lat="46.2547204" lon="11.0582068"><ele>280.0</ele><time>2026-04-25T09:34:34.648Z</time></trkpt><trkpt lat="46.2545551" lon="11.0581783"><ele>280.0</ele><time>2026-04-25T09:34:35.62Z</time></trkpt><trkpt lat="46.2543875" lon="11.0581486"><ele>280.0</ele><time>2026-04-25T09:34:36.625Z</time></trkpt><trkpt lat="46.254223" lon="11.0581181"><ele>280.0</ele><time>2026-04-25T09:34:37.612Z</time></trkpt><trkpt lat="46.2540492" lon="11.0580943"><ele>278.3333333333333</ele><time>2026-04-25T09:34:38.646Z</time></trkpt><trkpt lat="46.2538828" lon="11.0580689"><ele>276.6666666666667</ele><time>2026-04-25T09:34:39.669Z</time></trkpt><trkpt lat="46.2537335" lon="11.0580443"><ele>275.0</ele><time>2026-04-25T09:34:40.645Z</time></trkpt><trkpt lat="46.2535903" lon="11.0580208"><ele>275.0</ele><time>2026-04-25T09:34:41.615Z</time></trkpt><trkpt lat="46.2534422" lon="11.0579965"><ele>275.0</ele><time>2026-04-25T09:34:42.633Z</time></trkpt><trkpt lat="46.2532935" lon="11.0579689"><ele>275.0</ele><time>2026-04-25T09:34:43.646Z</time></trkpt><trkpt lat="46.2531479" lon="11.0579437"><ele>275.0</ele><time>2026-04-25T09:34:44.618Z</time></trkpt><trkpt lat="46.2529935" lon="11.0579123"><ele>276.0</ele><time>2026-04-25T09:34:45.623Z</time></trkpt><trkpt lat="46.2528335" lon="11.0578854"><ele>277.0</ele><time>2026-04-25T09:34:46.639Z</time></trkpt><trkpt lat="46.2526726" lon="11.0578551"><ele>278.0</ele><time>2026-04-25T09:34:47.635Z</time></trkpt><trkpt lat="46.2525128" lon="11.0578224"><ele>278.0</ele><time>2026-04-25T09:34:48.618Z</time></trkpt><trkpt lat="46.2523471" lon="11.0577929"><ele>278.0</ele><time>2026-04-25T09:34:49.613Z</time></trkpt><trkpt lat="46.2521765" lon="11.0577581"><ele>278.0</ele><time>2026-04-25T09:34:50.62Z</time></trkpt><trkpt lat="46.2519921" lon="11.0577216"><ele>276.33333333333337</ele><time>2026-04-25T09:34:51.662Z</time></trkpt><trkpt lat="46.2518188" lon="11.057695"><ele>274.6666666666667</ele><time>2026-04-25T09:34:52.621Z</time></trkpt><trkpt lat="46.251633" lon="11.0576768"><ele>273.0</ele><time>2026-04-25T09:34:53.642Z</time></trkpt><trkpt lat="46.2514548" lon="11.0576695"><ele>272.0</ele><time>2026-04-25T09:34:54.617Z</time></trkpt><trkpt lat="46.2512706" lon="11.0576812"><ele>271.0</ele><time>2026-04-25T09:34:55.602Z</time></trkpt><trkpt lat="46.2510857" lon="11.0577132"><ele>270.0</ele><time>2026-04-25T09:34:56.616Z</time></trkpt><trkpt lat="46.2509169" lon="11.0577629"><ele>270.0</ele><time>2026-04-25T09:34:57.61Z</time></trkpt><trkpt lat="46.2507463" lon="11.0578237"><ele>270.0</ele><time>2026-04-25T09:34:58.656Z</time></trkpt><trkpt lat="46.2505958" lon="11.0578803"><ele>270.0</ele><time>2026-04-25T09:34:59.624Z</time></trkpt><trkpt lat="46.2504434" lon="11.0579352"><ele>269.6666666666667</ele><time>2026-04-25T09:35:00.619Z</time></trkpt><trkpt lat="46.25029" lon="11.0579851"><ele>269.33333333333337</ele><time>2026-04-25T09:35:01.641Z</time></trkpt><trkpt lat="46.2501443" lon="11.0580265"><ele>269.0</ele><time>2026-04-25T09:35:02.615Z</time></trkpt><trkpt lat="46.2499893" lon="11.0580576"><ele>269.0</ele><time>2026-04-25T09:35:03.626Z</time></trkpt><trkpt lat="46.2498458" lon="11.0580672"><ele>269.0</ele><time>2026-04-25T09:35:04.638Z</time></trkpt><trkpt lat="46.2497048" lon="11.0580657"><ele>269.0</ele><time>2026-04-25T09:35:05.612Z</time></trkpt><trkpt lat="46.2495526" lon="11.0580548"><ele>269.0</ele><time>2026-04-25T09:35:06.657Z</time></trkpt><trkpt lat="46.2494056" lon="11.0580309"><ele>269.0</ele><time>2026-04-25T09:35:07.658Z</time></trkpt><trkpt lat="46.2492481" lon="11.057992"><ele>269.0</ele><time>2026-04-25T09:35:08.647Z</time></trkpt><trkpt lat="46.2490946" lon="11.0579427"><ele>269.0</ele><time>2026-04-25T09:35:09.614Z</time></trkpt><trkpt lat="46.2489211" lon="11.0578773"><ele>269.0</ele><time>2026-04-25T09:35:10.658Z</time></trkpt><trkpt lat="46.2487541" lon="11.0578007"><ele>269.0</ele><time>2026-04-25T09:35:11.646Z</time></trkpt><trkpt lat="46.2485871" lon="11.0577209"><ele>269.0</ele><time>2026-04-25T09:35:12.613Z</time></trkpt><trkpt lat="46.2484002" lon="11.0576305"><ele>269.0</ele><time>2026-04-25T09:35:13.652Z</time></trkpt><trkpt lat="46.2482157" lon="11.0575433"><ele>269.0</ele><time>2026-04-25T09:35:14.654Z</time></trkpt><trkpt lat="46.2480355" lon="11.0574529"><ele>269.0</ele><time>2026-04-25T09:35:15.638Z</time></trkpt><trkpt lat="46.2478542" lon="11.0573649"><ele>272.0</ele><time>2026-04-25T09:35:16.623Z</time></trkpt><trkpt lat="46.2476728" lon="11.0572753"><ele>275.0</ele><time>2026-04-25T09:35:17.621Z</time></trkpt><trkpt lat="46.247495" lon="11.0571885"><ele>278.0</ele><time>2026-04-25T09:35:18.633Z</time></trkpt><trkpt lat="46.2473268" lon="11.0571041"><ele>276.0</ele><time>2026-04-25T09:35:19.634Z</time></trkpt><trkpt lat="46.2471605" lon="11.0570236"><ele>274.0</ele><time>2026-04-25T09:35:20.639Z</time></trkpt><trkpt lat="46.2469923" lon="11.0569488"><ele>272.0</ele><time>2026-04-25T09:35:21.622Z</time></trkpt><trkpt lat="46.2468219" lon="11.0568697"><ele>272.0</ele><time>2026-04-25T09:35:22.614Z</time></trkpt><trkpt lat="46.2466423" lon="11.0567865"><ele>272.0</ele><time>2026-04-25T09:35:23.667Z</time></trkpt><trkpt lat="46.2464869" lon="11.0567193"><ele>272.0</ele><time>2026-04-25T09:35:24.644Z</time></trkpt><trkpt lat="46.2463338" lon="11.0566646"><ele>277.0</ele><time>2026-04-25T09:35:25.629Z</time></trkpt><trkpt lat="46.2461829" lon="11.0566188"><ele>282.0</ele><time>2026-04-25T09:35:26.617Z</time></trkpt><trkpt lat="46.2460306" lon="11.056597"><ele>287.0</ele><time>2026-04-25T09:35:27.655Z</time></trkpt><trkpt lat="46.245868" lon="11.0565876"><ele>287.0</ele><time>2026-04-25T09:35:28.655Z</time></trkpt><trkpt lat="46.2457026" lon="11.0565983"><ele>287.0</ele><time>2026-04-25T09:35:29.617Z</time></trkpt><trkpt lat="46.2455259" lon="11.0566288"><ele>287.0</ele><time>2026-04-25T09:35:30.646Z</time></trkpt><trkpt lat="46.2453571" lon="11.0566816"><ele>283.6666666666667</ele><time>2026-04-25T09:35:31.635Z</time></trkpt><trkpt lat="46.2451966" lon="11.0567587"><ele>280.3333333333333</ele><time>2026-04-25T09:35:32.645Z</time></trkpt><trkpt lat="46.2450407" lon="11.0568471"><ele>277.0</ele><time>2026-04-25T09:35:33.637Z</time></trkpt><trkpt lat="46.2448929" lon="11.056961"><ele>276.66666666666663</ele><time>2026-04-25T09:35:34.642Z</time></trkpt><trkpt lat="46.244749" lon="11.057087"><ele>276.3333333333333</ele><time>2026-04-25T09:35:35.651Z</time></trkpt><trkpt lat="46.2446259" lon="11.0572261"><ele>276.0</ele><time>2026-04-25T09:35:36.642Z</time></trkpt><trkpt lat="46.2445069" lon="11.0573766"><ele>275.75</ele><time>2026-04-25T09:35:37.645Z</time></trkpt><trkpt lat="46.2444064" lon="11.057542"><ele>275.5</ele><time>2026-04-25T09:35:38.655Z</time></trkpt><trkpt lat="46.2443183" lon="11.0577033"><ele>275.25</ele><time>2026-04-25T09:35:39.613Z</time></trkpt><trkpt lat="46.2442274" lon="11.0578765"><ele>275.0</ele><time>2026-04-25T09:35:40.653Z</time></trkpt><trkpt lat="46.2441462" lon="11.0580383"><ele>275.0</ele><time>2026-04-25T09:35:41.654Z</time></trkpt><trkpt lat="46.2440681" lon="11.0581944"><ele>275.0</ele><time>2026-04-25T09:35:42.638Z</time></trkpt><trkpt lat="46.2439806" lon="11.0583545"><ele>275.0</ele><time>2026-04-25T09:35:43.644Z</time></trkpt><trkpt lat="46.2438998" lon="11.0584836"><ele>275.0</ele><time>2026-04-25T09:35:44.649Z</time></trkpt><trkpt lat="46.2438151" lon="11.0585878"><ele>273.25</ele><time>2026-04-25T09:35:45.617Z</time></trkpt><trkpt lat="46.2437155" lon="11.0586858"><ele>271.5</ele><time>2026-04-25T09:35:46.626Z</time></trkpt><trkpt lat="46.2435928" lon="11.0587753"><ele>269.75</ele><time>2026-04-25T09:35:47.644Z</time></trkpt><trkpt lat="46.2434673" lon="11.0588225"><ele>268.0</ele><time>2026-04-25T09:35:48.644Z</time></trkpt><trkpt lat="46.2433263" lon="11.0588374"><ele>268.0</ele><time>2026-04-25T09:35:49.626Z</time></trkpt><trkpt lat="46.2431808" lon="11.0588241"><ele>268.0</ele><time>2026-04-25T09:35:50.637Z</time></trkpt><trkpt lat="46.2430322" lon="11.0587984"><ele>268.0</ele><time>2026-04-25T09:35:51.647Z</time></trkpt><trkpt lat="46.2428968" lon="11.0587709"><ele>268.0</ele><time>2026-04-25T09:35:52.64Z</time></trkpt><trkpt lat="46.2427696" lon="11.0587377"><ele>266.75</ele><time>2026-04-25T09:35:53.654Z</time></trkpt><trkpt lat="46.2426544" lon="11.058704"><ele>265.5</ele><time>2026-04-25T09:35:54.596Z</time></trkpt><trkpt lat="46.242537" lon="11.0586707"><ele>264.25</ele><time>2026-04-25T09:35:55.612Z</time></trkpt><trkpt lat="46.2424224" lon="11.0586483"><ele>263.0</ele><time>2026-04-25T09:35:56.635Z</time></trkpt><trkpt lat="46.2423034" lon="11.0586292"><ele>262.5</ele><time>2026-04-25T09:35:57.624Z</time></trkpt><trkpt lat="46.2421723" lon="11.0586078"><ele>262.0</ele><time>2026-04-25T09:35:58.64Z</time></trkpt><trkpt lat="46.2420489" lon="11.0585736"><ele>261.5</ele><time>2026-04-25T09:35:59.645Z</time></trkpt><trkpt lat="46.2419211" lon="11.0585232"><ele>261.0</ele><time>2026-04-25T09:36:00.651Z</time></trkpt><trkpt lat="46.2417975" lon="11.0584588"><ele>261.0</ele><time>2026-04-25T09:36:01.647Z</time></trkpt><trkpt lat="46.2416818" lon="11.0583686"><ele>261.0</ele><time>2026-04-25T09:36:02.65Z</time></trkpt><trkpt lat="46.2415735" lon="11.0582572"><ele>261.0</ele><time>2026-04-25T09:36:03.653Z</time></trkpt><trkpt lat="46.241473" lon="11.058124"><ele>261.0</ele><time>2026-04-25T09:36:04.648Z</time></trkpt><trkpt lat="46.2413854" lon="11.0579902"><ele>261.5</ele><time>2026-04-25T09:36:05.643Z</time></trkpt><trkpt lat="46.2412947" lon="11.0578439"><ele>262.0</ele><time>2026-04-25T09:36:06.639Z</time></trkpt><trkpt lat="46.2412002" lon="11.0577014"><ele>262.5</ele><time>2026-04-25T09:36:07.621Z</time></trkpt><trkpt lat="46.2410974" lon="11.0575571"><ele>263.0</ele><time>2026-04-25T09:36:08.637Z</time></trkpt><trkpt lat="46.2409858" lon="11.0574169"><ele>263.75</ele><time>2026-04-25T09:36:09.637Z</time></trkpt><trkpt lat="46.240872" lon="11.0572977"><ele>264.5</ele><time>2026-04-25T09:36:10.618Z</time></trkpt><trkpt lat="46.2407438" lon="11.0571857"><ele>265.25</ele><time>2026-04-25T09:36:11.621Z</time></trkpt><trkpt lat="46.2406178" lon="11.0570845"><ele>266.0</ele><time>2026-04-25T09:36:12.622Z</time></trkpt><trkpt lat="46.240493" lon="11.0569915"><ele>266.0</ele><time>2026-04-25T09:36:13.662Z</time></trkpt><trkpt lat="46.2403841" lon="11.0569126"><ele>266.0</ele><time>2026-04-25T09:36:14.624Z</time></trkpt><trkpt lat="46.2402668" lon="11.05683"><ele>266.0</ele><time>2026-04-25T09:36:15.606Z</time></trkpt><trkpt lat="46.2401415" lon="11.056749"><ele>266.0</ele><time>2026-04-25T09:36:16.622Z</time></trkpt><trkpt lat="46.2400178" lon="11.0566682"><ele>268.5</ele><time>2026-04-25T09:36:17.619Z</time></trkpt><trkpt lat="46.2398876" lon="11.0565828"><ele>271.0</ele><time>2026-04-25T09:36:18.644Z</time></trkpt><trkpt lat="46.2397569" lon="11.0565043"><ele>273.5</ele><time>2026-04-25T09:36:19.62Z</time></trkpt><trkpt lat="46.2396162" lon="11.0564288"><ele>276.0</ele><time>2026-04-25T09:36:20.654Z</time></trkpt><trkpt lat="46.2394877" lon="11.0563637"><ele>276.0</ele><time>2026-04-25T09:36:21.641Z</time></trkpt><trkpt lat="46.2393578" lon="11.0562934"><ele>276.0</ele><time>2026-04-25T09:36:22.645Z</time></trkpt><trkpt lat="46.2392329" lon="11.0562251"><ele>276.0</ele><time>2026-04-25T09:36:23.644Z</time></trkpt><trkpt lat="46.2391118" lon="11.0561602"><ele>276.0</ele><time>2026-04-25T09:36:24.622Z</time></trkpt><trkpt lat="46.2389907" lon="11.0560907"><ele>273.0</ele><time>2026-04-25T09:36:25.634Z</time></trkpt><trkpt lat="46.2388674" lon="11.0560255"><ele>270.0</ele><time>2026-04-25T09:36:26.64Z</time></trkpt><trkpt lat="46.238741" lon="11.0559781"><ele>267.0</ele><time>2026-04-25T09:36:27.658Z</time></trkpt><trkpt lat="46.2386142" lon="11.0559498"><ele>264.0</ele><time>2026-04-25T09:36:28.617Z</time></trkpt><trkpt lat="46.2384783" lon="11.0559426"><ele>264.0</ele><time>2026-04-25T09:36:29.649Z</time></trkpt><trkpt lat="46.2383475" lon="11.055951"><ele>264.0</ele><time>2026-04-25T09:36:30.645Z</time></trkpt><trkpt lat="46.2382277" lon="11.0559814"><ele>264.0</ele><time>2026-04-25T09:36:31.615Z</time></trkpt><trkpt lat="46.2381005" lon="11.0560372"><ele>264.0</ele><time>2026-04-25T09:36:32.645Z</time></trkpt><trkpt lat="46.237981" lon="11.0561188"><ele>265.25</ele><time>2026-04-25T09:36:33.643Z</time></trkpt><trkpt lat="46.2378701" lon="11.0562233"><ele>266.5</ele><time>2026-04-25T09:36:34.642Z</time></trkpt><trkpt lat="46.2377708" lon="11.0563481"><ele>267.75</ele><time>2026-04-25T09:36:35.622Z</time></trkpt><trkpt lat="46.2376811" lon="11.0564981"><ele>269.0</ele><time>2026-04-25T09:36:36.645Z</time></trkpt><trkpt lat="46.2376055" lon="11.056667"><ele>269.0</ele><time>2026-04-25T09:36:37.653Z</time></trkpt><trkpt lat="46.2375448" lon="11.0568458"><ele>269.0</ele><time>2026-04-25T09:36:38.641Z</time></trkpt><trkpt lat="46.2374935" lon="11.0570399"><ele>269.0</ele><time>2026-04-25T09:36:39.633Z</time></trkpt><trkpt lat="46.2374589" lon="11.057234"><ele>269.0</ele><time>2026-04-25T09:36:40.634Z</time></trkpt><trkpt lat="46.2374389" lon="11.05743"><ele>269.5</ele><time>2026-04-25T09:36:41.659Z</time></trkpt><trkpt lat="46.2374304" lon="11.0576148"><ele>270.0</ele><time>2026-04-25T09:36:42.649Z</time></trkpt><trkpt lat="46.2374245" lon="11.0578019"><ele>270.5</ele><time>2026-04-25T09:36:43.655Z</time></trkpt><trkpt lat="46.2374158" lon="11.0579798"><ele>271.0</ele><time>2026-04-25T09:36:44.625Z</time></trkpt><trkpt lat="46.2373955" lon="11.0581471"><ele>270.0</ele><time>2026-04-25T09:36:45.619Z</time></trkpt><trkpt lat="46.2373578" lon="11.058307"><ele>269.0</ele><time>2026-04-25T09:36:46.656Z</time></trkpt><trkpt lat="46.2373035" lon="11.0584559"><ele>268.0</ele><time>2026-04-25T09:36:47.638Z</time></trkpt><trkpt lat="46.2372316" lon="11.0586036"><ele>267.0</ele><time>2026-04-25T09:36:48.642Z</time></trkpt><trkpt lat="46.2371365" lon="11.0587527"><ele>274.75</ele><time>2026-04-25T09:36:49.67Z</time></trkpt><trkpt lat="46.2370236" lon="11.0588815"><ele>282.5</ele><time>2026-04-25T09:36:50.637Z</time></trkpt><trkpt lat="46.2368957" lon="11.0589816"><ele>290.25</ele><time>2026-04-25T09:36:51.642Z</time></trkpt><trkpt lat="46.2367637" lon="11.0590577"><ele>298.0</ele><time>2026-04-25T09:36:52.642Z</time></trkpt><trkpt lat="46.2366329" lon="11.0591018"><ele>298.0</ele><time>2026-04-25T09:36:53.654Z</time></trkpt><trkpt lat="46.2364992" lon="11.0591304"><ele>298.0</ele><time>2026-04-25T09:36:54.655Z</time></trkpt><trkpt lat="46.236369" lon="11.0591665"><ele>298.0</ele><time>2026-04-25T09:36:55.616Z</time></trkpt><trkpt lat="46.2362568" lon="11.0591973"><ele>298.0</ele><time>2026-04-25T09:36:56.613Z</time></trkpt><trkpt lat="46.2361212" lon="11.0592813"><ele>298.0</ele><time>2026-04-25T09:36:57.632Z</time></trkpt><trkpt lat="46.2359969" lon="11.0594066"><ele>298.0</ele><time>2026-04-25T09:36:58.651Z</time></trkpt><trkpt lat="46.2359141" lon="11.0595278"><ele>298.0</ele><time>2026-04-25T09:36:59.647Z</time></trkpt><trkpt lat="46.2358342" lon="11.0596878"><ele>298.0</ele><time>2026-04-25T09:37:00.654Z</time></trkpt><trkpt lat="46.2357747" lon="11.059837"><ele>300.0</ele><time>2026-04-25T09:37:01.615Z</time></trkpt><trkpt lat="46.2357117" lon="11.0599806"><ele>302.0</ele><time>2026-04-25T09:37:02.618Z</time></trkpt><trkpt lat="46.2356698" lon="11.0600916"><ele>304.0</ele><time>2026-04-25T09:37:03.625Z</time></trkpt><trkpt lat="46.2356157" lon="11.0602159"><ele>306.0</ele><time>2026-04-25T09:37:04.643Z</time></trkpt><trkpt lat="46.2355537" lon="11.0603408"><ele>308.0</ele><time>2026-04-25T09:37:05.62Z</time></trkpt><trkpt lat="46.2354761" lon="11.0604537"><ele>308.0</ele><time>2026-04-25T09:37:06.615Z</time></trkpt><trkpt lat="46.2353838" lon="11.0605571"><ele>308.0</ele><time>2026-04-25T09:37:07.641Z</time></trkpt><trkpt lat="46.2352596" lon="11.0606844"><ele>308.0</ele><time>2026-04-25T09:37:08.657Z</time></trkpt><trkpt lat="46.2351402" lon="11.0607771"><ele>308.0</ele><time>2026-04-25T09:37:09.62Z</time></trkpt><trkpt lat="46.2350062" lon="11.0608639"><ele>304.5</ele><time>2026-04-25T09:37:10.619Z</time></trkpt><trkpt lat="46.2348866" lon="11.0609163"><ele>301.0</ele><time>2026-04-25T09:37:11.631Z</time></trkpt><trkpt lat="46.2347523" lon="11.0609657"><ele>297.5</ele><time>2026-04-25T09:37:12.649Z</time></trkpt><trkpt lat="46.2346055" lon="11.0610157"><ele>294.0</ele><time>2026-04-25T09:37:13.642Z</time></trkpt><trkpt lat="46.2344675" lon="11.0610584"><ele>294.0</ele><time>2026-04-25T09:37:14.648Z</time></trkpt><trkpt lat="46.2343251" lon="11.0611015"><ele>294.0</ele><time>2026-04-25T09:37:15.628Z</time></trkpt><trkpt lat="46.23418" lon="11.0611432"><ele>294.0</ele><time>2026-04-25T09:37:16.647Z</time></trkpt><trkpt lat="46.2340356" lon="11.0611798"><ele>294.0</ele><time>2026-04-25T09:37:17.654Z</time></trkpt><trkpt lat="46.2339034" lon="11.061212"><ele>301.0</ele><time>2026-04-25T09:37:18.601Z</time></trkpt><trkpt lat="46.2337583" lon="11.0612514"><ele>308.0</ele><time>2026-04-25T09:37:19.638Z</time></trkpt><trkpt lat="46.2336162" lon="11.0612954"><ele>315.0</ele><time>2026-04-25T09:37:20.644Z</time></trkpt><trkpt lat="46.2334847" lon="11.0613388"><ele>322.0</ele><time>2026-04-25T09:37:21.66Z</time></trkpt><trkpt lat="46.2333677" lon="11.0613821"><ele>322.0</ele><time>2026-04-25T09:37:22.649Z</time></trkpt><trkpt lat="46.2332528" lon="11.0614341"><ele>322.0</ele><time>2026-04-25T09:37:23.649Z</time></trkpt><trkpt lat="46.2331357" lon="11.0614934"><ele>322.0</ele><time>2026-04-25T09:37:24.668Z</time></trkpt><trkpt lat="46.2330457" lon="11.061566"><ele>322.0</ele><time>2026-04-25T09:37:25.627Z</time></trkpt><trkpt lat="46.2329414" lon="11.0616525"><ele>322.16666666666663</ele><time>2026-04-25T09:37:26.641Z</time></trkpt><trkpt lat="46.2328562" lon="11.0617253"><ele>322.3333333333333</ele><time>2026-04-25T09:37:27.627Z</time></trkpt><trkpt lat="46.2327701" lon="11.0618036"><ele>322.5</ele><time>2026-04-25T09:37:28.653Z</time></trkpt><trkpt lat="46.2327032" lon="11.0618761"><ele>322.6666666666667</ele><time>2026-04-25T09:37:29.622Z</time></trkpt><trkpt lat="46.232636" lon="11.0619575"><ele>322.83333333333337</ele><time>2026-04-25T09:37:30.642Z</time></trkpt><trkpt lat="46.2325851" lon="11.0620394"><ele>323.0</ele><time>2026-04-25T09:37:31.638Z</time></trkpt><trkpt lat="46.2325387" lon="11.062124"><ele>323.0</ele><time>2026-04-25T09:37:32.645Z</time></trkpt><trkpt lat="46.2324885" lon="11.0621968"><ele>323.0</ele><time>2026-04-25T09:37:34.645Z</time></trkpt><trkpt lat="46.232426" lon="11.0621687"><ele>323.0</ele><time>2026-04-25T09:37:36.612Z</time></trkpt><trkpt lat="46.2324411" lon="11.0620441"><ele>323.0</ele><time>2026-04-25T09:37:38.612Z</time></trkpt><trkpt lat="46.232497" lon="11.0619834"><ele>323.0</ele><time>2026-04-25T09:37:39.602Z</time></trkpt><trkpt lat="46.2325602" lon="11.0619094"><ele>323.0</ele><time>2026-04-25T09:37:40.613Z</time></trkpt><trkpt lat="46.2326333" lon="11.0618235"><ele>323.0</ele><time>2026-04-25T09:37:41.65Z</time></trkpt><trkpt lat="46.2327103" lon="11.0617329"><ele>323.0</ele><time>2026-04-25T09:37:42.639Z</time></trkpt><trkpt lat="46.2328002" lon="11.0616252"><ele>323.0</ele><time>2026-04-25T09:37:43.616Z</time></trkpt><trkpt lat="46.2329086" lon="11.0615084"><ele>323.0</ele><time>2026-04-25T09:37:44.64Z</time></trkpt><trkpt lat="46.2330282" lon="11.0613741"><ele>322.75</ele><time>2026-04-25T09:37:45.641Z</time></trkpt><trkpt lat="46.2331522" lon="11.0612379"><ele>322.5</ele><time>2026-04-25T09:37:46.625Z</time></trkpt><trkpt lat="46.2332932" lon="11.0611073"><ele>322.25</ele><time>2026-04-25T09:37:47.657Z</time></trkpt><trkpt lat="46.2333655" lon="11.0611065"><ele>322.0</ele><time>2026-04-25T09:37:48.633Z</time></trkpt><trkpt lat="46.2334811" lon="11.0610408"><ele>322.0</ele><time>2026-04-25T09:37:49.636Z</time></trkpt><trkpt lat="46.2336139" lon="11.0609719"><ele>322.0</ele><time>2026-04-25T09:37:50.636Z</time></trkpt><trkpt lat="46.2337522" lon="11.0608957"><ele>322.0</ele><time>2026-04-25T09:37:51.649Z</time></trkpt><trkpt lat="46.2339009" lon="11.0608146"><ele>322.0</ele><time>2026-04-25T09:37:52.652Z</time></trkpt><trkpt lat="46.2340441" lon="11.0607341"><ele>325.25</ele><time>2026-04-25T09:37:53.619Z</time></trkpt><trkpt lat="46.2341908" lon="11.0606613"><ele>328.5</ele><time>2026-04-25T09:37:54.655Z</time></trkpt><trkpt lat="46.2343333" lon="11.0606046"><ele>331.75</ele><time>2026-04-25T09:37:55.63Z</time></trkpt><trkpt lat="46.2344763" lon="11.0605672"><ele>335.0</ele><time>2026-04-25T09:37:56.616Z</time></trkpt><trkpt lat="46.2346221" lon="11.0605384"><ele>335.0</ele><time>2026-04-25T09:37:57.656Z</time></trkpt><trkpt lat="46.2347498" lon="11.0605187"><ele>335.0</ele><time>2026-04-25T09:37:58.598Z</time></trkpt><trkpt lat="46.2348795" lon="11.0605146"><ele>335.0</ele><time>2026-04-25T09:37:59.632Z</time></trkpt><trkpt lat="46.2349958" lon="11.0604751"><ele>335.0</ele><time>2026-04-25T09:38:00.64Z</time></trkpt><trkpt lat="46.2351037" lon="11.0603861"><ele>334.0</ele><time>2026-04-25T09:38:01.621Z</time></trkpt><trkpt lat="46.2351614" lon="11.0601754"><ele>333.0</ele><time>2026-04-25T09:38:03.612Z</time></trkpt><trkpt lat="46.2352088" lon="11.0599869"><ele>332.0</ele><time>2026-04-25T09:38:04.651Z</time></trkpt><trkpt lat="46.2352419" lon="11.0597971"><ele>331.0</ele><time>2026-04-25T09:38:05.613Z</time></trkpt><trkpt lat="46.2352795" lon="11.0596034"><ele>331.0</ele><time>2026-04-25T09:38:06.616Z</time></trkpt><trkpt lat="46.2353216" lon="11.0594302"><ele>331.0</ele><time>2026-04-25T09:38:07.656Z</time></trkpt><trkpt lat="46.2353704" lon="11.0593044"><ele>331.0</ele><time>2026-04-25T09:38:08.614Z</time></trkpt><trkpt lat="46.2354216" lon="11.0592236"><ele>331.0</ele><time>2026-04-25T09:38:09.646Z</time></trkpt><trkpt lat="46.2354921" lon="11.0591568"><ele>331.0</ele><time>2026-04-25T09:38:10.641Z</time></trkpt><trkpt lat="46.2356039" lon="11.0590298"><ele>330.3333333333333</ele><time>2026-04-25T09:38:12.641Z</time></trkpt><trkpt lat="46.2356671" lon="11.0589494"><ele>329.66666666666663</ele><time>2026-04-25T09:38:13.64Z</time></trkpt><trkpt lat="46.2357182" lon="11.0588593"><ele>329.0</ele><time>2026-04-25T09:38:14.653Z</time></trkpt><trkpt lat="46.2357733" lon="11.0587485"><ele>328.3333333333333</ele><time>2026-04-25T09:38:15.625Z</time></trkpt><trkpt lat="46.2358218" lon="11.0586345"><ele>327.6666666666667</ele><time>2026-04-25T09:38:16.621Z</time></trkpt><trkpt lat="46.2358585" lon="11.0585238"><ele>327.0</ele><time>2026-04-25T09:38:17.656Z</time></trkpt><trkpt lat="46.2359007" lon="11.0584166"><ele>332.0</ele><time>2026-04-25T09:38:18.632Z</time></trkpt><trkpt lat="46.2361746" lon="11.058259"><ele>337.0</ele><time>2026-04-25T09:38:19.637Z</time></trkpt><trkpt lat="46.2362218" lon="11.0581606"><ele>342.0</ele><time>2026-04-25T09:38:20.668Z</time></trkpt><trkpt lat="46.2362755" lon="11.0580569"><ele>342.0</ele><time>2026-04-25T09:38:21.656Z</time></trkpt><trkpt lat="46.2363368" lon="11.0579505"><ele>342.0</ele><time>2026-04-25T09:38:22.651Z</time></trkpt><trkpt lat="46.2363953" lon="11.0578417"><ele>342.0</ele><time>2026-04-25T09:38:23.624Z</time></trkpt><trkpt lat="46.2364434" lon="11.0577426"><ele>342.0</ele><time>2026-04-25T09:38:24.655Z</time></trkpt><trkpt lat="46.2364821" lon="11.0576505"><ele>342.0</ele><time>2026-04-25T09:38:25.654Z</time></trkpt><trkpt lat="46.2365061" lon="11.057562"><ele>342.0</ele><time>2026-04-25T09:38:26.648Z</time></trkpt><trkpt lat="46.2365083" lon="11.0574683"><ele>342.6666666666667</ele><time>2026-04-25T09:38:27.645Z</time></trkpt><trkpt lat="46.2364971" lon="11.0573684"><ele>343.3333333333333</ele><time>2026-04-25T09:38:28.632Z</time></trkpt><trkpt lat="46.2364656" lon="11.0572547"><ele>344.0</ele><time>2026-04-25T09:38:29.646Z</time></trkpt><trkpt lat="46.2364243" lon="11.0571399"><ele>344.66666666666663</ele><time>2026-04-25T09:38:30.645Z</time></trkpt><trkpt lat="46.2363692" lon="11.0570368"><ele>345.3333333333333</ele><time>2026-04-25T09:38:31.64Z</time></trkpt><trkpt lat="46.2363177" lon="11.0569413"><ele>346.0</ele><time>2026-04-25T09:38:32.641Z</time></trkpt><trkpt lat="46.2362652" lon="11.0568391"><ele>346.0</ele><time>2026-04-25T09:38:33.637Z</time></trkpt><trkpt lat="46.2362187" lon="11.0567416"><ele>346.0</ele><time>2026-04-25T09:38:34.625Z</time></trkpt><trkpt lat="46.2361849" lon="11.0566479"><ele>346.0</ele><time>2026-04-25T09:38:35.642Z</time></trkpt><trkpt lat="46.2361679" lon="11.0565529"><ele>346.0</ele><time>2026-04-25T09:38:36.664Z</time></trkpt><trkpt lat="46.2361575" lon="11.0564501"><ele>346.0</ele><time>2026-04-25T09:38:37.617Z</time></trkpt><trkpt lat="46.2361599" lon="11.0563342"><ele>346.0</ele><time>2026-04-25T09:38:38.658Z</time></trkpt><trkpt lat="46.2361704" lon="11.0562129"><ele>345.8333333333333</ele><time>2026-04-25T09:38:39.605Z</time></trkpt><trkpt lat="46.236195" lon="11.0560792"><ele>345.66666666666663</ele><time>2026-04-25T09:38:40.648Z</time></trkpt><trkpt lat="46.2362223" lon="11.0559656"><ele>345.5</ele><time>2026-04-25T09:38:41.654Z</time></trkpt><trkpt lat="46.2362545" lon="11.0558695"><ele>345.3333333333333</ele><time>2026-04-25T09:38:42.612Z</time></trkpt><trkpt lat="46.2362784" lon="11.0557628"><ele>345.1666666666667</ele><time>2026-04-25T09:38:43.638Z</time></trkpt><trkpt lat="46.2362769" lon="11.0556638"><ele>345.0</ele><time>2026-04-25T09:38:44.646Z</time></trkpt><trkpt lat="46.2362593" lon="11.0555501"><ele>345.0</ele><time>2026-04-25T09:38:45.645Z</time></trkpt><trkpt lat="46.2362154" lon="11.0554616"><ele>345.0</ele><time>2026-04-25T09:38:46.654Z</time></trkpt><trkpt lat="46.2361256" lon="11.0555247"><ele>345.0</ele><time>2026-04-25T09:38:48.617Z</time></trkpt><trkpt lat="46.2360765" lon="11.0555861"><ele>345.0</ele><time>2026-04-25T09:38:49.647Z</time></trkpt><trkpt lat="46.2360462" lon="11.0556894"><ele>345.0</ele><time>2026-04-25T09:38:50.653Z</time></trkpt><trkpt lat="46.2360199" lon="11.0558262"><ele>345.0</ele><time>2026-04-25T09:38:51.647Z</time></trkpt><trkpt lat="46.2359986" lon="11.0559885"><ele>345.0</ele><time>2026-04-25T09:38:52.656Z</time></trkpt><trkpt lat="46.2359714" lon="11.0561245"><ele>345.0</ele><time>2026-04-25T09:38:53.648Z</time></trkpt><trkpt lat="46.2359497" lon="11.0562595"><ele>345.0</ele><time>2026-04-25T09:38:54.666Z</time></trkpt><trkpt lat="46.2359335" lon="11.0563861"><ele>345.0</ele><time>2026-04-25T09:38:55.625Z</time></trkpt><trkpt lat="46.2359256" lon="11.0565222"><ele>345.0</ele><time>2026-04-25T09:38:56.647Z</time></trkpt><trkpt lat="46.2359246" lon="11.0566575"><ele>345.1666666666667</ele><time>2026-04-25T09:38:57.644Z</time></trkpt><trkpt lat="46.2359285" lon="11.0568027"><ele>345.3333333333333</ele><time>2026-04-25T09:38:58.651Z</time></trkpt><trkpt lat="46.2359438" lon="11.0569418"><ele>345.5</ele><time>2026-04-25T09:38:59.647Z</time></trkpt><trkpt lat="46.2359553" lon="11.0570756"><ele>345.66666666666663</ele><time>2026-04-25T09:39:00.65Z</time></trkpt><trkpt lat="46.235959" lon="11.0572035"><ele>345.8333333333333</ele><time>2026-04-25T09:39:01.664Z</time></trkpt><trkpt lat="46.2359492" lon="11.0572946"><ele>346.0</ele><time>2026-04-25T09:39:02.615Z</time></trkpt><trkpt lat="46.2359207" lon="11.0573877"><ele>345.3333333333333</ele><time>2026-04-25T09:39:03.64Z</time></trkpt><trkpt lat="46.2358721" lon="11.0574782"><ele>344.66666666666663</ele><time>2026-04-25T09:39:04.641Z</time></trkpt><trkpt lat="46.2358107" lon="11.0575707"><ele>344.0</ele><time>2026-04-25T09:39:05.638Z</time></trkpt><trkpt lat="46.2357349" lon="11.0576567"><ele>343.3333333333333</ele><time>2026-04-25T09:39:06.62Z</time></trkpt><trkpt lat="46.2356556" lon="11.057725"><ele>342.6666666666667</ele><time>2026-04-25T09:39:07.639Z</time></trkpt><trkpt lat="46.2355735" lon="11.0577843"><ele>342.0</ele><time>2026-04-25T09:39:08.638Z</time></trkpt><trkpt lat="46.2354876" lon="11.0578275"><ele>348.20000000000005</ele><time>2026-04-25T09:39:09.634Z</time></trkpt><trkpt lat="46.2353935" lon="11.0578491"><ele>354.4</ele><time>2026-04-25T09:39:10.655Z</time></trkpt><trkpt lat="46.2352932" lon="11.0578824"><ele>360.6</ele><time>2026-04-25T09:39:11.644Z</time></trkpt><trkpt lat="46.2352" lon="11.057944"><ele>366.79999999999995</ele><time>2026-04-25T09:39:12.663Z</time></trkpt><trkpt lat="46.2351411" lon="11.0580229"><ele>373.0</ele><time>2026-04-25T09:39:13.642Z</time></trkpt><trkpt lat="46.235077" lon="11.0581375"><ele>373.0</ele><time>2026-04-25T09:39:14.624Z</time></trkpt><trkpt lat="46.2350195" lon="11.058257"><ele>373.0</ele><time>2026-04-25T09:39:15.65Z</time></trkpt><trkpt lat="46.2349674" lon="11.0583607"><ele>373.0</ele><time>2026-04-25T09:39:16.649Z</time></trkpt><trkpt lat="46.2349043" lon="11.0584453"><ele>373.0</ele><time>2026-04-25T09:39:17.648Z</time></trkpt><trkpt lat="46.2348313" lon="11.0585133"><ele>373.0</ele><time>2026-04-25T09:39:18.65Z</time></trkpt><trkpt lat="46.2347482" lon="11.0585645"><ele>375.0</ele><time>2026-04-25T09:39:19.614Z</time></trkpt><trkpt lat="46.2346468" lon="11.05861"><ele>377.0</ele><time>2026-04-25T09:39:20.654Z</time></trkpt><trkpt lat="46.2345403" lon="11.0586591"><ele>379.0</ele><time>2026-04-25T09:39:21.642Z</time></trkpt><trkpt lat="46.2344407" lon="11.0587017"><ele>381.0</ele><time>2026-04-25T09:39:22.641Z</time></trkpt><trkpt lat="46.2343304" lon="11.0587607"><ele>383.0</ele><time>2026-04-25T09:39:23.636Z</time></trkpt><trkpt lat="46.2342363" lon="11.0588497"><ele>383.0</ele><time>2026-04-25T09:39:24.625Z</time></trkpt><trkpt lat="46.2341798" lon="11.0589486"><ele>383.0</ele><time>2026-04-25T09:39:25.635Z</time></trkpt><trkpt lat="46.2341302" lon="11.0590659"><ele>383.0</ele><time>2026-04-25T09:39:26.649Z</time></trkpt><trkpt lat="46.234102" lon="11.0591636"><ele>383.0</ele><time>2026-04-25T09:39:27.624Z</time></trkpt><trkpt lat="46.234069" lon="11.0592471"><ele>383.0</ele><time>2026-04-25T09:39:28.624Z</time></trkpt><trkpt lat="46.2340223" lon="11.0593223"><ele>383.0</ele><time>2026-04-25T09:39:29.623Z</time></trkpt><trkpt lat="46.2339278" lon="11.0594021"><ele>385.2</ele><time>2026-04-25T09:39:31.644Z</time></trkpt><trkpt lat="46.2338204" lon="11.0594253"><ele>387.4</ele><time>2026-04-25T09:39:33.647Z</time></trkpt><trkpt lat="46.2337157" lon="11.0594423"><ele>389.59999999999997</ele><time>2026-04-25T09:39:35.614Z</time></trkpt><trkpt lat="46.2336533" lon="11.0595284"><ele>391.79999999999995</ele><time>2026-04-25T09:39:37.644Z</time></trkpt><trkpt lat="46.23364" lon="11.0596631"><ele>394.0</ele><time>2026-04-25T09:39:39.61Z</time></trkpt><trkpt lat="46.233663" lon="11.0597705"><ele>394.00000000000006</ele><time>2026-04-25T09:39:41.658Z</time></trkpt><trkpt lat="46.2336915" lon="11.059892"><ele>394.0</ele><time>2026-04-25T09:39:44.622Z</time></trkpt><trkpt lat="46.2336808" lon="11.0600194"><ele>394.0</ele><time>2026-04-25T09:39:46.64Z</time></trkpt><trkpt lat="46.2336164" lon="11.0600688"><ele>394.0</ele><time>2026-04-25T09:39:48.619Z</time></trkpt><trkpt lat="46.2335417" lon="11.0599748"><ele>394.00000000000006</ele><time>2026-04-25T09:39:50.62Z</time></trkpt><trkpt lat="46.2335246" lon="11.0598865"><ele>394.0</ele><time>2026-04-25T09:39:51.613Z</time></trkpt><trkpt lat="46.2335073" lon="11.0597752"><ele>394.00000000000006</ele><time>2026-04-25T09:39:52.663Z</time></trkpt><trkpt lat="46.2335031" lon="11.0596479"><ele>394.0</ele><time>2026-04-25T09:39:53.652Z</time></trkpt><trkpt lat="46.2335089" lon="11.059524"><ele>394.0</ele><time>2026-04-25T09:39:54.643Z</time></trkpt><trkpt lat="46.2335309" lon="11.0594151"><ele>394.0</ele><time>2026-04-25T09:39:55.631Z</time></trkpt><trkpt lat="46.233584" lon="11.0593365"><ele>394.00000000000006</ele><time>2026-04-25T09:39:56.646Z</time></trkpt><trkpt lat="46.2336586" lon="11.0592727"><ele>394.0</ele><time>2026-04-25T09:39:57.647Z</time></trkpt><trkpt lat="46.2337499" lon="11.05919"><ele>396.25</ele><time>2026-04-25T09:39:58.639Z</time></trkpt><trkpt lat="46.2338419" lon="11.0590725"><ele>398.5</ele><time>2026-04-25T09:39:59.658Z</time></trkpt><trkpt lat="46.2339113" lon="11.0589316"><ele>400.75</ele><time>2026-04-25T09:40:00.658Z</time></trkpt><trkpt lat="46.2339548" lon="11.0587822"><ele>403.0</ele><time>2026-04-25T09:40:01.648Z</time></trkpt><trkpt lat="46.2339863" lon="11.0586412"><ele>402.33333333333337</ele><time>2026-04-25T09:40:02.63Z</time></trkpt><trkpt lat="46.2340147" lon="11.0585167"><ele>401.6666666666667</ele><time>2026-04-25T09:40:03.67Z</time></trkpt><trkpt lat="46.2340468" lon="11.0584269"><ele>401.0</ele><time>2026-04-25T09:40:04.618Z</time></trkpt><trkpt lat="46.234098" lon="11.0583609"><ele>400.33333333333337</ele><time>2026-04-25T09:40:05.643Z</time></trkpt><trkpt lat="46.2341567" lon="11.0583022"><ele>399.6666666666667</ele><time>2026-04-25T09:40:06.607Z</time></trkpt><trkpt lat="46.2342346" lon="11.0582302"><ele>399.0</ele><time>2026-04-25T09:40:07.628Z</time></trkpt><trkpt lat="46.2343196" lon="11.0581471"><ele>399.0</ele><time>2026-04-25T09:40:08.648Z</time></trkpt><trkpt lat="46.2344042" lon="11.058056"><ele>399.0</ele><time>2026-04-25T09:40:09.648Z</time></trkpt><trkpt lat="46.2344735" lon="11.0579585"><ele>399.0</ele><time>2026-04-25T09:40:10.62Z</time></trkpt><trkpt lat="46.2345322" lon="11.0578645"><ele>399.0</ele><time>2026-04-25T09:40:11.627Z</time></trkpt><trkpt lat="46.2345754" lon="11.0577776"><ele>399.0</ele><time>2026-04-25T09:40:12.64Z</time></trkpt><trkpt lat="46.2346433" lon="11.0576267"><ele>399.0</ele><time>2026-04-25T09:40:14.648Z</time></trkpt><trkpt lat="46.2346804" lon="11.0575519"><ele>399.0</ele><time>2026-04-25T09:40:15.668Z</time></trkpt><trkpt lat="46.2347382" lon="11.0574024"><ele>399.0</ele><time>2026-04-25T09:40:17.619Z</time></trkpt><trkpt lat="46.2346944" lon="11.057224"><ele>399.0</ele><time>2026-04-25T09:40:19.649Z</time></trkpt><trkpt lat="46.2346265" lon="11.0571609"><ele>399.0</ele><time>2026-04-25T09:40:20.655Z</time></trkpt><trkpt lat="46.2345536" lon="11.0571516"><ele>399.0</ele><time>2026-04-25T09:40:21.648Z</time></trkpt><trkpt lat="46.2344755" lon="11.0572917"><ele>399.0</ele><time>2026-04-25T09:40:23.652Z</time></trkpt><trkpt lat="46.2344248" lon="11.0573991"><ele>399.0</ele><time>2026-04-25T09:40:24.624Z</time></trkpt><trkpt lat="46.2343755" lon="11.0575125"><ele>399.0</ele><time>2026-04-25T09:40:25.645Z</time></trkpt><trkpt lat="46.2343189" lon="11.0576238"><ele>399.0</ele><time>2026-04-25T09:40:26.631Z</time></trkpt><trkpt lat="46.2342569" lon="11.0577363"><ele>399.0</ele><time>2026-04-25T09:40:27.629Z</time></trkpt><trkpt lat="46.2341827" lon="11.0578442"><ele>399.0</ele><time>2026-04-25T09:40:28.658Z</time></trkpt><trkpt lat="46.2341096" lon="11.0579285"><ele>399.0</ele><time>2026-04-25T09:40:29.629Z</time></trkpt><trkpt lat="46.2340274" lon="11.0580076"><ele>399.0</ele><time>2026-04-25T09:40:30.637Z</time></trkpt><trkpt lat="46.2339424" lon="11.0580788"><ele>399.0</ele><time>2026-04-25T09:40:31.651Z</time></trkpt><trkpt lat="46.2338536" lon="11.058161"><ele>399.79999999999995</ele><time>2026-04-25T09:40:32.649Z</time></trkpt><trkpt lat="46.2337687" lon="11.0582456"><ele>400.59999999999997</ele><time>2026-04-25T09:40:33.634Z</time></trkpt><trkpt lat="46.2336778" lon="11.0583368"><ele>401.4</ele><time>2026-04-25T09:40:34.649Z</time></trkpt><trkpt lat="46.2335865" lon="11.0584256"><ele>402.2</ele><time>2026-04-25T09:40:35.633Z</time></trkpt><trkpt lat="46.2334943" lon="11.0585049"><ele>403.0</ele><time>2026-04-25T09:40:36.655Z</time></trkpt><trkpt lat="46.2334055" lon="11.0585605"><ele>403.0</ele><time>2026-04-25T09:40:37.642Z</time></trkpt><trkpt lat="46.2333119" lon="11.0585985"><ele>403.0</ele><time>2026-04-25T09:40:38.628Z</time></trkpt><trkpt lat="46.233218" lon="11.0586189"><ele>403.0</ele><time>2026-04-25T09:40:39.66Z</time></trkpt><trkpt lat="46.2331225" lon="11.0586347"><ele>403.0</ele><time>2026-04-25T09:40:40.643Z</time></trkpt><trkpt lat="46.2330288" lon="11.0586552"><ele>403.0</ele><time>2026-04-25T09:40:41.648Z</time></trkpt><trkpt lat="46.2329444" lon="11.0586884"><ele>406.33333333333337</ele><time>2026-04-25T09:40:42.622Z</time></trkpt><trkpt lat="46.2328713" lon="11.0587492"><ele>409.6666666666667</ele><time>2026-04-25T09:40:43.649Z</time></trkpt><trkpt lat="46.2328189" lon="11.0588274"><ele>413.0</ele><time>2026-04-25T09:40:44.657Z</time></trkpt><trkpt lat="46.2327882" lon="11.0589976"><ele>416.33333333333337</ele><time>2026-04-25T09:40:46.669Z</time></trkpt><trkpt lat="46.2327899" lon="11.059103"><ele>419.6666666666667</ele><time>2026-04-25T09:40:47.651Z</time></trkpt><trkpt lat="46.2328068" lon="11.0592037"><ele>423.0</ele><time>2026-04-25T09:40:48.625Z</time></trkpt><trkpt lat="46.2328363" lon="11.0592966"><ele>423.0</ele><time>2026-04-25T09:40:49.647Z</time></trkpt><trkpt lat="46.232876" lon="11.0594488"><ele>423.0</ele><time>2026-04-25T09:40:51.649Z</time></trkpt><trkpt lat="46.2328533" lon="11.0595558"><ele>423.0</ele><time>2026-04-25T09:40:53.631Z</time></trkpt><trkpt lat="46.2327659" lon="11.0596103"><ele>423.0</ele><time>2026-04-25T09:40:55.633Z</time></trkpt><trkpt lat="46.2326889" lon="11.0595716"><ele>423.0</ele><time>2026-04-25T09:40:56.62Z</time></trkpt><trkpt lat="46.2326283" lon="11.0594769"><ele>423.0</ele><time>2026-04-25T09:40:57.646Z</time></trkpt><trkpt lat="46.2325882" lon="11.05935"><ele>423.0</ele><time>2026-04-25T09:40:58.651Z</time></trkpt><trkpt lat="46.232552" lon="11.059198"><ele>423.0</ele><time>2026-04-25T09:40:59.648Z</time></trkpt><trkpt lat="46.2325289" lon="11.0590462"><ele>423.0</ele><time>2026-04-25T09:41:00.656Z</time></trkpt><trkpt lat="46.2325273" lon="11.0588917"><ele>423.0</ele><time>2026-04-25T09:41:01.654Z</time></trkpt><trkpt lat="46.2325559" lon="11.0587654"><ele>423.4</ele><time>2026-04-25T09:41:02.667Z</time></trkpt><trkpt lat="46.2325948" lon="11.058629"><ele>423.79999999999995</ele><time>2026-04-25T09:41:03.66Z</time></trkpt><trkpt lat="46.2326515" lon="11.0585031"><ele>424.2</ele><time>2026-04-25T09:41:04.628Z</time></trkpt><trkpt lat="46.2327164" lon="11.0583777"><ele>424.6</ele><time>2026-04-25T09:41:05.649Z</time></trkpt><trkpt lat="46.2327817" lon="11.0582461"><ele>425.0</ele><time>2026-04-25T09:41:06.637Z</time></trkpt><trkpt lat="46.2328503" lon="11.0581029"><ele>426.5</ele><time>2026-04-25T09:41:07.637Z</time></trkpt><trkpt lat="46.2329202" lon="11.0579582"><ele>428.0</ele><time>2026-04-25T09:41:08.657Z</time></trkpt><trkpt lat="46.2329807" lon="11.0578182"><ele>429.5</ele><time>2026-04-25T09:41:09.644Z</time></trkpt><trkpt lat="46.2330233" lon="11.0576859"><ele>431.0</ele><time>2026-04-25T09:41:10.626Z</time></trkpt><trkpt lat="46.2330149" lon="11.0574778"><ele>429.25</ele><time>2026-04-25T09:41:12.656Z</time></trkpt><trkpt lat="46.232977" lon="11.0573387"><ele>427.5</ele><time>2026-04-25T09:41:13.654Z</time></trkpt><trkpt lat="46.2328795" lon="11.0571932"><ele>425.75</ele><time>2026-04-25T09:41:15.635Z</time></trkpt><trkpt lat="46.232797" lon="11.0570942"><ele>424.0</ele><time>2026-04-25T09:41:16.658Z</time></trkpt><trkpt lat="46.2327142" lon="11.0570017"><ele>424.0</ele><time>2026-04-25T09:41:17.652Z</time></trkpt><trkpt lat="46.2326364" lon="11.0569112"><ele>424.0</ele><time>2026-04-25T09:41:18.66Z</time></trkpt><trkpt lat="46.2325624" lon="11.0568183"><ele>424.0</ele><time>2026-04-25T09:41:19.664Z</time></trkpt><trkpt lat="46.2324883" lon="11.0567248"><ele>424.0</ele><time>2026-04-25T09:41:20.662Z</time></trkpt><trkpt lat="46.2324115" lon="11.0566262"><ele>424.0</ele><time>2026-04-25T09:41:21.659Z</time></trkpt><trkpt lat="46.2323293" lon="11.0565237"><ele>425.75</ele><time>2026-04-25T09:41:22.653Z</time></trkpt><trkpt lat="46.2322436" lon="11.0564173"><ele>427.5</ele><time>2026-04-25T09:41:23.617Z</time></trkpt><trkpt lat="46.2321493" lon="11.0563069"><ele>429.25</ele><time>2026-04-25T09:41:24.627Z</time></trkpt><trkpt lat="46.2320496" lon="11.0562087"><ele>431.0</ele><time>2026-04-25T09:41:25.639Z</time></trkpt><trkpt lat="46.231944" lon="11.056107"><ele>431.0</ele><time>2026-04-25T09:41:26.644Z</time></trkpt><trkpt lat="46.2318281" lon="11.0560008"><ele>431.0</ele><time>2026-04-25T09:41:27.621Z</time></trkpt><trkpt lat="46.2316998" lon="11.0558883"><ele>431.0</ele><time>2026-04-25T09:41:28.66Z</time></trkpt><trkpt lat="46.2315643" lon="11.0557772"><ele>431.0</ele><time>2026-04-25T09:41:29.654Z</time></trkpt><trkpt lat="46.231428" lon="11.0556643"><ele>431.75</ele><time>2026-04-25T09:41:30.623Z</time></trkpt><trkpt lat="46.231297" lon="11.0555562"><ele>432.5</ele><time>2026-04-25T09:41:31.616Z</time></trkpt><trkpt lat="46.2311639" lon="11.0554499"><ele>433.25</ele><time>2026-04-25T09:41:32.644Z</time></trkpt><trkpt lat="46.2310402" lon="11.0553485"><ele>434.0</ele><time>2026-04-25T09:41:33.653Z</time></trkpt><trkpt lat="46.2309221" lon="11.0552413"><ele>434.0</ele><time>2026-04-25T09:41:34.632Z</time></trkpt><trkpt lat="46.2308042" lon="11.0551194"><ele>434.0</ele><time>2026-04-25T09:41:35.622Z</time></trkpt><trkpt lat="46.2306658" lon="11.0549682"><ele>434.0</ele><time>2026-04-25T09:41:36.668Z</time></trkpt><trkpt lat="46.2305095" lon="11.0548125"><ele>436.3333333333333</ele><time>2026-04-25T09:41:37.644Z</time></trkpt><trkpt lat="46.2303425" lon="11.0546198"><ele>438.66666666666663</ele><time>2026-04-25T09:41:38.647Z</time></trkpt><trkpt lat="46.2301744" lon="11.0543969"><ele>441.0</ele><time>2026-04-25T09:41:39.645Z</time></trkpt><trkpt lat="46.2301156" lon="11.0542452"><ele>438.0</ele><time>2026-04-25T09:41:40.633Z</time></trkpt><trkpt lat="46.2300041" lon="11.0540481"><ele>435.0</ele><time>2026-04-25T09:41:41.64Z</time></trkpt><trkpt lat="46.2298736" lon="11.0538206"><ele>432.0</ele><time>2026-04-25T09:41:42.653Z</time></trkpt><trkpt lat="46.2296954" lon="11.0535169"><ele>439.0</ele><time>2026-04-25T09:41:43.654Z</time></trkpt><trkpt lat="46.2295414" lon="11.0532945"><ele>446.0</ele><time>2026-04-25T09:41:44.627Z</time></trkpt><trkpt lat="46.2293999" lon="11.0530948"><ele>453.0</ele><time>2026-04-25T09:41:45.65Z</time></trkpt><trkpt lat="46.2292645" lon="11.0528841"><ele>453.0</ele><time>2026-04-25T09:41:46.661Z</time></trkpt><trkpt lat="46.2291579" lon="11.0526671"><ele>453.0</ele><time>2026-04-25T09:41:47.659Z</time></trkpt><trkpt lat="46.2290673" lon="11.0524215"><ele>453.0</ele><time>2026-04-25T09:41:48.636Z</time></trkpt><trkpt lat="46.2289882" lon="11.052125"><ele>460.0</ele><time>2026-04-25T09:41:49.655Z</time></trkpt><trkpt lat="46.2289401" lon="11.05183"><ele>467.0</ele><time>2026-04-25T09:41:50.656Z</time></trkpt><trkpt lat="46.2289366" lon="11.0515958"><ele>474.0</ele><time>2026-04-25T09:41:51.644Z</time></trkpt><trkpt lat="46.22892" lon="11.0513337"><ele>474.0</ele><time>2026-04-25T09:41:52.645Z</time></trkpt><trkpt lat="46.2288725" lon="11.0510624"><ele>474.0</ele><time>2026-04-25T09:41:53.663Z</time></trkpt><trkpt lat="46.2288078" lon="11.0508239"><ele>474.0</ele><time>2026-04-25T09:41:54.623Z</time></trkpt><trkpt lat="46.2287297" lon="11.0506027"><ele>472.33333333333337</ele><time>2026-04-25T09:41:55.63Z</time></trkpt><trkpt lat="46.2286414" lon="11.050403"><ele>470.6666666666667</ele><time>2026-04-25T09:41:56.632Z</time></trkpt><trkpt lat="46.2285559" lon="11.0502452"><ele>469.0</ele><time>2026-04-25T09:41:57.624Z</time></trkpt><trkpt lat="46.2284505" lon="11.050079"><ele>470.33333333333337</ele><time>2026-04-25T09:41:58.63Z</time></trkpt><trkpt lat="46.2283376" lon="11.0499196"><ele>471.66666666666663</ele><time>2026-04-25T09:41:59.647Z</time></trkpt><trkpt lat="46.2282194" lon="11.0497758"><ele>473.0</ele><time>2026-04-25T09:42:00.635Z</time></trkpt><trkpt lat="46.2280971" lon="11.0496349"><ele>473.0</ele><time>2026-04-25T09:42:01.642Z</time></trkpt><trkpt lat="46.2279728" lon="11.049497"><ele>473.0</ele><time>2026-04-25T09:42:02.66Z</time></trkpt><trkpt lat="46.227853" lon="11.0493636"><ele>473.0</ele><time>2026-04-25T09:42:03.655Z</time></trkpt><trkpt lat="46.2277317" lon="11.0492355"><ele>471.25</ele><time>2026-04-25T09:42:04.65Z</time></trkpt><trkpt lat="46.2276039" lon="11.0491053"><ele>469.5</ele><time>2026-04-25T09:42:05.668Z</time></trkpt><trkpt lat="46.2274906" lon="11.048983"><ele>467.75</ele><time>2026-04-25T09:42:06.65Z</time></trkpt><trkpt lat="46.2273861" lon="11.0488639"><ele>466.0</ele><time>2026-04-25T09:42:07.654Z</time></trkpt><trkpt lat="46.2272876" lon="11.0487561"><ele>469.8</ele><time>2026-04-25T09:42:08.655Z</time></trkpt><trkpt lat="46.2271984" lon="11.0486597"><ele>473.6</ele><time>2026-04-25T09:42:09.668Z</time></trkpt><trkpt lat="46.2271252" lon="11.0485754"><ele>477.4</ele><time>2026-04-25T09:42:10.621Z</time></trkpt><trkpt lat="46.227052" lon="11.0484954"><ele>481.2</ele><time>2026-04-25T09:42:11.643Z</time></trkpt><trkpt lat="46.2269725" lon="11.0484336"><ele>485.0</ele><time>2026-04-25T09:42:12.618Z</time></trkpt><trkpt lat="46.2268766" lon="11.0484097"><ele>485.0</ele><time>2026-04-25T09:42:13.638Z</time></trkpt><trkpt lat="46.226789" lon="11.0484466"><ele>485.0</ele><time>2026-04-25T09:42:14.656Z</time></trkpt><trkpt lat="46.2267131" lon="11.0485457"><ele>485.0</ele><time>2026-04-25T09:42:15.644Z</time></trkpt><trkpt lat="46.2266752" lon="11.0487012"><ele>485.0</ele><time>2026-04-25T09:42:16.657Z</time></trkpt><trkpt lat="46.2266907" lon="11.0488666"><ele>485.0</ele><time>2026-04-25T09:42:17.65Z</time></trkpt><trkpt lat="46.2267431" lon="11.0490848"><ele>486.66666666666663</ele><time>2026-04-25T09:42:18.64Z</time></trkpt><trkpt lat="46.2268307" lon="11.0493057"><ele>488.33333333333337</ele><time>2026-04-25T09:42:19.649Z</time></trkpt><trkpt lat="46.2269256" lon="11.0495195"><ele>490.0</ele><time>2026-04-25T09:42:20.63Z</time></trkpt><trkpt lat="46.2270124" lon="11.0497201"><ele>490.0</ele><time>2026-04-25T09:42:21.667Z</time></trkpt><trkpt lat="46.2270796" lon="11.0498909"><ele>490.0</ele><time>2026-04-25T09:42:22.634Z</time></trkpt><trkpt lat="46.2271586" lon="11.0500983"><ele>490.0</ele><time>2026-04-25T09:42:23.637Z</time></trkpt><trkpt lat="46.2272286" lon="11.0502847"><ele>490.0</ele><time>2026-04-25T09:42:24.645Z</time></trkpt><trkpt lat="46.2272934" lon="11.0504603"><ele>490.4</ele><time>2026-04-25T09:42:25.664Z</time></trkpt><trkpt lat="46.2273425" lon="11.0506047"><ele>490.8</ele><time>2026-04-25T09:42:26.65Z</time></trkpt><trkpt lat="46.2273877" lon="11.0507462"><ele>491.20000000000005</ele><time>2026-04-25T09:42:27.643Z</time></trkpt><trkpt lat="46.2274329" lon="11.0508986"><ele>491.6</ele><time>2026-04-25T09:42:28.654Z</time></trkpt><trkpt lat="46.227488" lon="11.0510452"><ele>492.0</ele><time>2026-04-25T09:42:29.644Z</time></trkpt><trkpt lat="46.2275372" lon="11.0511868"><ele>492.0</ele><time>2026-04-25T09:42:30.626Z</time></trkpt><trkpt lat="46.2275722" lon="11.051319"><ele>492.00000000000006</ele><time>2026-04-25T09:42:31.617Z</time></trkpt><trkpt lat="46.2275767" lon="11.0514233"><ele>492.00000000000006</ele><time>2026-04-25T09:42:32.643Z</time></trkpt><trkpt lat="46.2274954" lon="11.0515168"><ele>492.0</ele><time>2026-04-25T09:42:34.618Z</time></trkpt><trkpt lat="46.2274213" lon="11.0515158"><ele>492.0</ele><time>2026-04-25T09:42:35.654Z</time></trkpt><trkpt lat="46.2273297" lon="11.0513762"><ele>494.0</ele><time>2026-04-25T09:42:37.619Z</time></trkpt><trkpt lat="46.2272683" lon="11.0512213"><ele>496.0</ele><time>2026-04-25T09:42:38.655Z</time></trkpt><trkpt lat="46.2272142" lon="11.0510612"><ele>498.0</ele><time>2026-04-25T09:42:39.664Z</time></trkpt><trkpt lat="46.2271532" lon="11.050885"><ele>500.0</ele><time>2026-04-25T09:42:40.62Z</time></trkpt><trkpt lat="46.2270799" lon="11.0506994"><ele>500.0</ele><time>2026-04-25T09:42:41.626Z</time></trkpt><trkpt lat="46.2269816" lon="11.0505016"><ele>500.0</ele><time>2026-04-25T09:42:42.663Z</time></trkpt><trkpt lat="46.2268924" lon="11.0503979"><ele>500.0</ele><time>2026-04-25T09:42:43.622Z</time></trkpt><trkpt lat="46.2267537" lon="11.0502609"><ele>500.0</ele><time>2026-04-25T09:42:44.625Z</time></trkpt><trkpt lat="46.2266034" lon="11.0501405"><ele>500.0</ele><time>2026-04-25T09:42:45.643Z</time></trkpt><trkpt lat="46.2264519" lon="11.0500474"><ele>500.0</ele><time>2026-04-25T09:42:46.667Z</time></trkpt><trkpt lat="46.2263152" lon="11.0499731"><ele>501.0</ele><time>2026-04-25T09:42:47.633Z</time></trkpt><trkpt lat="46.226182" lon="11.0499129"><ele>502.0</ele><time>2026-04-25T09:42:48.637Z</time></trkpt><trkpt lat="46.2260361" lon="11.0498479"><ele>503.0</ele><time>2026-04-25T09:42:49.666Z</time></trkpt><trkpt lat="46.2258982" lon="11.0497818"><ele>504.0</ele><time>2026-04-25T09:42:50.656Z</time></trkpt><trkpt lat="46.2257541" lon="11.0497129"><ele>508.33333333333337</ele><time>2026-04-25T09:42:51.643Z</time></trkpt><trkpt lat="46.225598" lon="11.0496399"><ele>512.6666666666667</ele><time>2026-04-25T09:42:52.645Z</time></trkpt><trkpt lat="46.2254424" lon="11.0495654"><ele>517.0</ele><time>2026-04-25T09:42:53.659Z</time></trkpt><trkpt lat="46.2252952" lon="11.0494965"><ele>517.0</ele><time>2026-04-25T09:42:54.603Z</time></trkpt><trkpt lat="46.2251289" lon="11.0494179"><ele>517.0</ele><time>2026-04-25T09:42:55.649Z</time></trkpt><trkpt lat="46.2249762" lon="11.0493478"><ele>517.0</ele><time>2026-04-25T09:42:56.619Z</time></trkpt><trkpt lat="46.2248109" lon="11.0492714"><ele>517.6666666666667</ele><time>2026-04-25T09:42:57.639Z</time></trkpt><trkpt lat="46.2246563" lon="11.0491923"><ele>518.3333333333334</ele><time>2026-04-25T09:42:58.631Z</time></trkpt><trkpt lat="46.2245064" lon="11.0491056"><ele>519.0</ele><time>2026-04-25T09:42:59.615Z</time></trkpt><trkpt lat="46.2243633" lon="11.0489863"><ele>519.0</ele><time>2026-04-25T09:43:00.66Z</time></trkpt><trkpt lat="46.2242431" lon="11.0488552"><ele>519.0</ele><time>2026-04-25T09:43:01.627Z</time></trkpt><trkpt lat="46.2241129" lon="11.048716"><ele>519.0</ele><time>2026-04-25T09:43:02.639Z</time></trkpt><trkpt lat="46.2239888" lon="11.0486001"><ele>522.0</ele><time>2026-04-25T09:43:03.628Z</time></trkpt><trkpt lat="46.2238478" lon="11.0485012"><ele>525.0</ele><time>2026-04-25T09:43:04.637Z</time></trkpt><trkpt lat="46.2236926" lon="11.0484277"><ele>528.0</ele><time>2026-04-25T09:43:05.651Z</time></trkpt><trkpt lat="46.2235515" lon="11.0484066"><ele>528.0</ele><time>2026-04-25T09:43:06.662Z</time></trkpt><trkpt lat="46.2234035" lon="11.0483945"><ele>528.0</ele><time>2026-04-25T09:43:07.622Z</time></trkpt><trkpt lat="46.2232478" lon="11.0483939"><ele>528.0</ele><time>2026-04-25T09:43:08.658Z</time></trkpt><trkpt lat="46.2230985" lon="11.0483977"><ele>528.3333333333334</ele><time>2026-04-25T09:43:09.643Z</time></trkpt><trkpt lat="46.2229454" lon="11.0484174"><ele>528.6666666666667</ele><time>2026-04-25T09:43:10.642Z</time></trkpt><trkpt lat="46.2227895" lon="11.0484575"><ele>529.0</ele><time>2026-04-25T09:43:11.659Z</time></trkpt><trkpt lat="46.2226392" lon="11.0485192"><ele>529.0</ele><time>2026-04-25T09:43:12.634Z</time></trkpt><trkpt lat="46.2224879" lon="11.0485943"><ele>529.0</ele><time>2026-04-25T09:43:13.629Z</time></trkpt><trkpt lat="46.2223365" lon="11.0486712"><ele>529.0</ele><time>2026-04-25T09:43:14.624Z</time></trkpt><trkpt lat="46.2221789" lon="11.0487424"><ele>529.0</ele><time>2026-04-25T09:43:15.629Z</time></trkpt><trkpt lat="46.2220163" lon="11.0488169"><ele>529.0</ele><time>2026-04-25T09:43:16.667Z</time></trkpt><trkpt lat="46.2218643" lon="11.0488824"><ele>529.0</ele><time>2026-04-25T09:43:17.653Z</time></trkpt><trkpt lat="46.2217096" lon="11.0489525"><ele>529.0</ele><time>2026-04-25T09:43:18.657Z</time></trkpt><trkpt lat="46.2215533" lon="11.0490151"><ele>529.0</ele><time>2026-04-25T09:43:19.656Z</time></trkpt><trkpt lat="46.2213962" lon="11.0490531"><ele>529.0</ele><time>2026-04-25T09:43:20.657Z</time></trkpt><trkpt lat="46.2212531" lon="11.0490589"><ele>533.0</ele><time>2026-04-25T09:43:21.628Z</time></trkpt><trkpt lat="46.2210872" lon="11.0490549"><ele>537.0</ele><time>2026-04-25T09:43:22.654Z</time></trkpt><trkpt lat="46.2209207" lon="11.0490545"><ele>541.0</ele><time>2026-04-25T09:43:23.621Z</time></trkpt><trkpt lat="46.2207462" lon="11.0490638"><ele>544.5</ele><time>2026-04-25T09:43:24.627Z</time></trkpt><trkpt lat="46.2205834" lon="11.0490781"><ele>548.0</ele><time>2026-04-25T09:43:25.632Z</time></trkpt><trkpt lat="46.2204415" lon="11.0490892"><ele>551.5</ele><time>2026-04-25T09:43:26.638Z</time></trkpt><trkpt lat="46.2203057" lon="11.049086"><ele>555.0</ele><time>2026-04-25T09:43:27.662Z</time></trkpt><trkpt lat="46.2201845" lon="11.0490531"><ele>555.0</ele><time>2026-04-25T09:43:28.658Z</time></trkpt><trkpt lat="46.2200709" lon="11.048998"><ele>555.0</ele><time>2026-04-25T09:43:29.655Z</time></trkpt><trkpt lat="46.2199706" lon="11.0489139"><ele>555.0</ele><time>2026-04-25T09:43:30.645Z</time></trkpt><trkpt lat="46.2198738" lon="11.0488024"><ele>555.0</ele><time>2026-04-25T09:43:31.658Z</time></trkpt><trkpt lat="46.2197759" lon="11.0486809"><ele>556.75</ele><time>2026-04-25T09:43:32.67Z</time></trkpt><trkpt lat="46.2196802" lon="11.0485674"><ele>558.5</ele><time>2026-04-25T09:43:33.628Z</time></trkpt><trkpt lat="46.2195795" lon="11.0484419"><ele>560.25</ele><time>2026-04-25T09:43:34.632Z</time></trkpt><trkpt lat="46.2194851" lon="11.0483243"><ele>562.0</ele><time>2026-04-25T09:43:35.642Z</time></trkpt><trkpt lat="46.2193876" lon="11.0482185"><ele>562.0</ele><time>2026-04-25T09:43:36.644Z</time></trkpt><trkpt lat="46.2192846" lon="11.0481307"><ele>562.0</ele><time>2026-04-25T09:43:37.631Z</time></trkpt><trkpt lat="46.2191132" lon="11.0480766"><ele>562.0</ele><time>2026-04-25T09:43:39.651Z</time></trkpt><trkpt lat="46.2190028" lon="11.0480544"><ele>562.0</ele><time>2026-04-25T09:43:40.665Z</time></trkpt><trkpt lat="46.2188914" lon="11.0480414"><ele>564.75</ele><time>2026-04-25T09:43:41.655Z</time></trkpt><trkpt lat="46.2187708" lon="11.0480283"><ele>567.5</ele><time>2026-04-25T09:43:42.67Z</time></trkpt><trkpt lat="46.2186629" lon="11.048017"><ele>570.25</ele><time>2026-04-25T09:43:43.642Z</time></trkpt><trkpt lat="46.2185507" lon="11.0479982"><ele>573.0</ele><time>2026-04-25T09:43:44.623Z</time></trkpt><trkpt lat="46.2184406" lon="11.0479847"><ele>573.0</ele><time>2026-04-25T09:43:45.645Z</time></trkpt><trkpt lat="46.2183377" lon="11.0479747"><ele>573.0</ele><time>2026-04-25T09:43:46.624Z</time></trkpt><trkpt lat="46.2182292" lon="11.0479676"><ele>573.0</ele><time>2026-04-25T09:43:47.648Z</time></trkpt><trkpt lat="46.218126" lon="11.047959"><ele>573.0</ele><time>2026-04-25T09:43:48.655Z</time></trkpt><trkpt lat="46.2180144" lon="11.0479561"><ele>573.0</ele><time>2026-04-25T09:43:49.633Z</time></trkpt><trkpt lat="46.2179062" lon="11.0479442"><ele>573.4</ele><time>2026-04-25T09:43:50.669Z</time></trkpt><trkpt lat="46.217806" lon="11.047926"><ele>573.8</ele><time>2026-04-25T09:43:51.629Z</time></trkpt><trkpt lat="46.2176978" lon="11.0479085"><ele>574.2</ele><time>2026-04-25T09:43:52.672Z</time></trkpt><trkpt lat="46.2175925" lon="11.0478846"><ele>574.6</ele><time>2026-04-25T09:43:53.624Z</time></trkpt><trkpt lat="46.2174736" lon="11.047855"><ele>575.0</ele><time>2026-04-25T09:43:54.647Z</time></trkpt><trkpt lat="46.2173507" lon="11.047817"><ele>576.5</ele><time>2026-04-25T09:43:55.647Z</time></trkpt><trkpt lat="46.2172341" lon="11.0477699"><ele>578.0</ele><time>2026-04-25T09:43:56.661Z</time></trkpt><trkpt lat="46.2171184" lon="11.0477097"><ele>579.5</ele><time>2026-04-25T09:43:57.664Z</time></trkpt><trkpt lat="46.2170054" lon="11.0476374"><ele>581.0</ele><time>2026-04-25T09:43:58.657Z</time></trkpt><trkpt lat="46.2168844" lon="11.0475633"><ele>581.0</ele><time>2026-04-25T09:43:59.662Z</time></trkpt><trkpt lat="46.2167669" lon="11.0474872"><ele>581.0</ele><time>2026-04-25T09:44:00.643Z</time></trkpt><trkpt lat="46.2166406" lon="11.0474058"><ele>581.0</ele><time>2026-04-25T09:44:01.667Z</time></trkpt><trkpt lat="46.2165123" lon="11.0473378"><ele>581.0</ele><time>2026-04-25T09:44:02.669Z</time></trkpt><trkpt lat="46.2163729" lon="11.0472903"><ele>580.0</ele><time>2026-04-25T09:44:03.661Z</time></trkpt><trkpt lat="46.2162383" lon="11.0472703"><ele>579.0</ele><time>2026-04-25T09:44:04.653Z</time></trkpt><trkpt lat="46.2161038" lon="11.0472676"><ele>578.0</ele><time>2026-04-25T09:44:05.624Z</time></trkpt><trkpt lat="46.215965" lon="11.0472766"><ele>577.0</ele><time>2026-04-25T09:44:06.624Z</time></trkpt><trkpt lat="46.2158172" lon="11.0473031"><ele>577.0</ele><time>2026-04-25T09:44:07.657Z</time></trkpt><trkpt lat="46.2156717" lon="11.0473276"><ele>577.0</ele><time>2026-04-25T09:44:08.639Z</time></trkpt><trkpt lat="46.2155311" lon="11.0473507"><ele>577.0</ele><time>2026-04-25T09:44:09.635Z</time></trkpt><trkpt lat="46.2153883" lon="11.0473705"><ele>577.0</ele><time>2026-04-25T09:44:10.65Z</time></trkpt><trkpt lat="46.2152437" lon="11.0473865"><ele>577.5</ele><time>2026-04-25T09:44:11.632Z</time></trkpt><trkpt lat="46.2150995" lon="11.0473907"><ele>578.0</ele><time>2026-04-25T09:44:12.643Z</time></trkpt><trkpt lat="46.2149561" lon="11.0473706"><ele>578.5</ele><time>2026-04-25T09:44:13.659Z</time></trkpt><trkpt lat="46.2148115" lon="11.0473227"><ele>579.0</ele><time>2026-04-25T09:44:14.664Z</time></trkpt><trkpt lat="46.214665" lon="11.0472573"><ele>583.3333333333334</ele><time>2026-04-25T09:44:15.66Z</time></trkpt><trkpt lat="46.2145151" lon="11.0471928"><ele>587.6666666666667</ele><time>2026-04-25T09:44:16.656Z</time></trkpt><trkpt lat="46.2143681" lon="11.0471259"><ele>592.0</ele><time>2026-04-25T09:44:17.642Z</time></trkpt><trkpt lat="46.2142193" lon="11.0470573"><ele>592.0</ele><time>2026-04-25T09:44:18.633Z</time></trkpt><trkpt lat="46.2140774" lon="11.0469877"><ele>592.0</ele><time>2026-04-25T09:44:19.657Z</time></trkpt><trkpt lat="46.2139397" lon="11.0469084"><ele>592.0</ele><time>2026-04-25T09:44:20.657Z</time></trkpt><trkpt lat="46.2138306" lon="11.0468152"><ele>592.0</ele><time>2026-04-25T09:44:21.639Z</time></trkpt><trkpt lat="46.2137302" lon="11.0466949"><ele>594.6666666666667</ele><time>2026-04-25T09:44:22.638Z</time></trkpt><trkpt lat="46.2136268" lon="11.046554"><ele>597.3333333333334</ele><time>2026-04-25T09:44:23.624Z</time></trkpt><trkpt lat="46.2134893" lon="11.0463648"><ele>600.0</ele><time>2026-04-25T09:44:24.655Z</time></trkpt><trkpt lat="46.2133725" lon="11.046198"><ele>600.0</ele><time>2026-04-25T09:44:25.645Z</time></trkpt><trkpt lat="46.2132497" lon="11.0460433"><ele>600.0</ele><time>2026-04-25T09:44:26.649Z</time></trkpt><trkpt lat="46.2131371" lon="11.0459505"><ele>600.0</ele><time>2026-04-25T09:44:27.656Z</time></trkpt><trkpt lat="46.2129779" lon="11.045874"><ele>605.6666666666666</ele><time>2026-04-25T09:44:28.634Z</time></trkpt><trkpt lat="46.2128035" lon="11.0458401"><ele>611.3333333333333</ele><time>2026-04-25T09:44:29.656Z</time></trkpt><trkpt lat="46.2126392" lon="11.0458311"><ele>617.0</ele><time>2026-04-25T09:44:30.665Z</time></trkpt><trkpt lat="46.2125045" lon="11.0458084"><ele>620.0</ele><time>2026-04-25T09:44:31.646Z</time></trkpt><trkpt lat="46.212385" lon="11.0457403"><ele>623.0</ele><time>2026-04-25T09:44:32.663Z</time></trkpt><trkpt lat="46.2123082" lon="11.0456552"><ele>626.0</ele><time>2026-04-25T09:44:33.627Z</time></trkpt><trkpt lat="46.2122294" lon="11.0455313"><ele>629.0</ele><time>2026-04-25T09:44:34.629Z</time></trkpt><trkpt lat="46.2121151" lon="11.0453795"><ele>629.0</ele><time>2026-04-25T09:44:35.645Z</time></trkpt><trkpt lat="46.2119681" lon="11.0452708"><ele>629.0</ele><time>2026-04-25T09:44:36.658Z</time></trkpt><trkpt lat="46.2118175" lon="11.0451602"><ele>629.0</ele><time>2026-04-25T09:44:37.656Z</time></trkpt><trkpt lat="46.211662" lon="11.0450594"><ele>631.0</ele><time>2026-04-25T09:44:38.664Z</time></trkpt><trkpt lat="46.2115264" lon="11.0449562"><ele>633.0</ele><time>2026-04-25T09:44:39.624Z</time></trkpt><trkpt lat="46.2113867" lon="11.0448302"><ele>635.0</ele><time>2026-04-25T09:44:40.655Z</time></trkpt><trkpt lat="46.211261" lon="11.0446915"><ele>635.0</ele><time>2026-04-25T09:44:41.655Z</time></trkpt><trkpt lat="46.2111331" lon="11.0445274"><ele>635.0</ele><time>2026-04-25T09:44:42.661Z</time></trkpt><trkpt lat="46.2110063" lon="11.0443299"><ele>635.0</ele><time>2026-04-25T09:44:43.662Z</time></trkpt><trkpt lat="46.2108747" lon="11.0441305"><ele>636.6666666666666</ele><time>2026-04-25T09:44:44.648Z</time></trkpt><trkpt lat="46.2107297" lon="11.0439528"><ele>638.3333333333334</ele><time>2026-04-25T09:44:45.653Z</time></trkpt><trkpt lat="46.2105573" lon="11.0438137"><ele>640.0</ele><time>2026-04-25T09:44:46.655Z</time></trkpt><trkpt lat="46.2103961" lon="11.0437259"><ele>640.0</ele><time>2026-04-25T09:44:47.629Z</time></trkpt><trkpt lat="46.2102144" lon="11.0436469"><ele>640.0</ele><time>2026-04-25T09:44:48.644Z</time></trkpt><trkpt lat="46.2100588" lon="11.0435943"><ele>640.0</ele><time>2026-04-25T09:44:49.628Z</time></trkpt><trkpt lat="46.2099039" lon="11.0435364"><ele>643.0</ele><time>2026-04-25T09:44:50.659Z</time></trkpt><trkpt lat="46.2097732" lon="11.0434566"><ele>646.0</ele><time>2026-04-25T09:44:51.632Z</time></trkpt><trkpt lat="46.2096491" lon="11.0433316"><ele>649.0</ele><time>2026-04-25T09:44:52.661Z</time></trkpt><trkpt lat="46.2095389" lon="11.0431755"><ele>652.0</ele><time>2026-04-25T09:44:53.647Z</time></trkpt><trkpt lat="46.2094173" lon="11.0429738"><ele>652.0</ele><time>2026-04-25T09:44:54.674Z</time></trkpt><trkpt lat="46.2092861" lon="11.0427891"><ele>652.0</ele><time>2026-04-25T09:44:55.654Z</time></trkpt><trkpt lat="46.2091595" lon="11.0426022"><ele>652.0</ele><time>2026-04-25T09:44:56.631Z</time></trkpt><trkpt lat="46.2090204" lon="11.0424263"><ele>654.0</ele><time>2026-04-25T09:44:57.629Z</time></trkpt><trkpt lat="46.2088648" lon="11.0422598"><ele>656.0</ele><time>2026-04-25T09:44:58.642Z</time></trkpt><trkpt lat="46.2087057" lon="11.0421387"><ele>658.0</ele><time>2026-04-25T09:44:59.65Z</time></trkpt><trkpt lat="46.2085589" lon="11.0420516"><ele>658.0</ele><time>2026-04-25T09:45:00.618Z</time></trkpt><trkpt lat="46.2084033" lon="11.0419979"><ele>658.0</ele><time>2026-04-25T09:45:01.625Z</time></trkpt><trkpt lat="46.2082634" lon="11.0419848"><ele>658.0</ele><time>2026-04-25T09:45:02.626Z</time></trkpt><trkpt lat="46.2081116" lon="11.0419863"><ele>661.0</ele><time>2026-04-25T09:45:03.644Z</time></trkpt><trkpt lat="46.2079592" lon="11.0420112"><ele>664.0</ele><time>2026-04-25T09:45:04.648Z</time></trkpt><trkpt lat="46.2078182" lon="11.0420639"><ele>667.0</ele><time>2026-04-25T09:45:05.639Z</time></trkpt><trkpt lat="46.2076722" lon="11.0421305"><ele>667.0</ele><time>2026-04-25T09:45:06.65Z</time></trkpt><trkpt lat="46.2075388" lon="11.0421931"><ele>667.0</ele><time>2026-04-25T09:45:07.641Z</time></trkpt><trkpt lat="46.2074167" lon="11.0422319"><ele>667.0</ele><time>2026-04-25T09:45:08.646Z</time></trkpt><trkpt lat="46.2073051" lon="11.0422339"><ele>667.0</ele><time>2026-04-25T09:45:09.647Z</time></trkpt><trkpt lat="46.2071802" lon="11.0422043"><ele>671.75</ele><time>2026-04-25T09:45:10.632Z</time></trkpt><trkpt lat="46.2071013" lon="11.0421492"><ele>676.5</ele><time>2026-04-25T09:45:11.628Z</time></trkpt><trkpt lat="46.2070214" lon="11.0420525"><ele>681.25</ele><time>2026-04-25T09:45:12.658Z</time></trkpt><trkpt lat="46.2069352" lon="11.0419386"><ele>686.0</ele><time>2026-04-25T09:45:13.653Z</time></trkpt><trkpt lat="46.2068132" lon="11.0417765"><ele>684.3333333333333</ele><time>2026-04-25T09:45:14.625Z</time></trkpt><trkpt lat="46.2066451" lon="11.0415638"><ele>682.6666666666666</ele><time>2026-04-25T09:45:15.661Z</time></trkpt><trkpt lat="46.2065095" lon="11.0414017"><ele>681.0</ele><time>2026-04-25T09:45:16.659Z</time></trkpt><trkpt lat="46.2064059" lon="11.0412329"><ele>684.75</ele><time>2026-04-25T09:45:17.64Z</time></trkpt><trkpt lat="46.2063456" lon="11.0410671"><ele>688.5</ele><time>2026-04-25T09:45:18.647Z</time></trkpt><trkpt lat="46.2063156" lon="11.0409068"><ele>692.25</ele><time>2026-04-25T09:45:19.642Z</time></trkpt><trkpt lat="46.2062764" lon="11.0407333"><ele>696.0</ele><time>2026-04-25T09:45:20.639Z</time></trkpt><trkpt lat="46.2062531" lon="11.0405233"><ele>696.0</ele><time>2026-04-25T09:45:21.653Z</time></trkpt><trkpt lat="46.2062505" lon="11.0403223"><ele>696.0</ele><time>2026-04-25T09:45:22.627Z</time></trkpt><trkpt lat="46.2061419" lon="11.0401436"><ele>696.0</ele><time>2026-04-25T09:45:23.653Z</time></trkpt><trkpt lat="46.2060327" lon="11.0400758"><ele>696.0</ele><time>2026-04-25T09:45:24.631Z</time></trkpt><trkpt lat="46.2061312" lon="11.0401722"><ele>696.0</ele><time>2026-04-25T09:45:25.654Z</time></trkpt><trkpt lat="46.2060599" lon="11.0402108"><ele>696.0</ele><time>2026-04-25T09:45:26.66Z</time></trkpt><trkpt lat="46.2059837" lon="11.0403047"><ele>696.0</ele><time>2026-04-25T09:45:27.646Z</time></trkpt><trkpt lat="46.2059354" lon="11.0404354"><ele>696.0</ele><time>2026-04-25T09:45:28.649Z</time></trkpt><trkpt lat="46.2058681" lon="11.0405892"><ele>696.0</ele><time>2026-04-25T09:45:29.651Z</time></trkpt><trkpt lat="46.2058161" lon="11.0407558"><ele>697.5</ele><time>2026-04-25T09:45:30.649Z</time></trkpt><trkpt lat="46.2057965" lon="11.040936"><ele>699.0</ele><time>2026-04-25T09:45:31.647Z</time></trkpt><trkpt lat="46.2058027" lon="11.041115"><ele>700.5</ele><time>2026-04-25T09:45:32.622Z</time></trkpt><trkpt lat="46.2058257" lon="11.0413128"><ele>702.0</ele><time>2026-04-25T09:45:33.647Z</time></trkpt><trkpt lat="46.2058487" lon="11.0415062"><ele>703.0</ele><time>2026-04-25T09:45:34.648Z</time></trkpt><trkpt lat="46.205881" lon="11.0417072"><ele>704.0</ele><time>2026-04-25T09:45:35.662Z</time></trkpt><trkpt lat="46.2059254" lon="11.0419113"><ele>705.0</ele><time>2026-04-25T09:45:36.65Z</time></trkpt><trkpt lat="46.2060026" lon="11.0420953"><ele>706.0</ele><time>2026-04-25T09:45:37.663Z</time></trkpt><trkpt lat="46.2060925" lon="11.042238"><ele>706.0</ele><time>2026-04-25T09:45:38.652Z</time></trkpt><trkpt lat="46.2061924" lon="11.0423755"><ele>706.0</ele><time>2026-04-25T09:45:39.674Z</time></trkpt><trkpt lat="46.2062658" lon="11.042455"><ele>706.0</ele><time>2026-04-25T09:45:40.644Z</time></trkpt><trkpt lat="46.2063179" lon="11.0425106"><ele>706.0</ele><time>2026-04-25T09:45:41.656Z</time></trkpt><trkpt lat="46.206339" lon="11.0426132"><ele>706.0</ele><time>2026-04-25T09:45:43.663Z</time></trkpt><trkpt lat="46.2062649" lon="11.0426767"><ele>706.0</ele><time>2026-04-25T09:45:45.625Z</time></trkpt><trkpt lat="46.2062103" lon="11.0426166"><ele>706.0</ele><time>2026-04-25T09:45:47.634Z</time></trkpt><trkpt lat="46.2061374" lon="11.042513"><ele>706.0</ele><time>2026-04-25T09:45:49.632Z</time></trkpt><trkpt lat="46.2060423" lon="11.0424508"><ele>706.0</ele><time>2026-04-25T09:45:50.629Z</time></trkpt><trkpt lat="46.2059195" lon="11.0423591"><ele>706.0</ele><time>2026-04-25T09:45:51.622Z</time></trkpt><trkpt lat="46.2058078" lon="11.042304"><ele>706.0</ele><time>2026-04-25T09:45:52.654Z</time></trkpt><trkpt lat="46.2057166" lon="11.0422455"><ele>706.0</ele><time>2026-04-25T09:45:53.657Z</time></trkpt><trkpt lat="46.2056063" lon="11.0421965"><ele>706.0</ele><time>2026-04-25T09:45:54.621Z</time></trkpt><trkpt lat="46.2054983" lon="11.0421386"><ele>706.0</ele><time>2026-04-25T09:45:55.634Z</time></trkpt><trkpt lat="46.2054022" lon="11.0420699"><ele>706.0</ele><time>2026-04-25T09:45:56.618Z</time></trkpt><trkpt lat="46.2053146" lon="11.0420019"><ele>707.8</ele><time>2026-04-25T09:45:57.636Z</time></trkpt><trkpt lat="46.2052283" lon="11.041923"><ele>709.5999999999999</ele><time>2026-04-25T09:45:58.622Z</time></trkpt><trkpt lat="46.2051522" lon="11.0418576"><ele>711.4</ele><time>2026-04-25T09:45:59.618Z</time></trkpt><trkpt lat="46.2050597" lon="11.0417676"><ele>713.2</ele><time>2026-04-25T09:46:00.662Z</time></trkpt><trkpt lat="46.2049841" lon="11.04168"><ele>715.0</ele><time>2026-04-25T09:46:01.646Z</time></trkpt><trkpt lat="46.204908" lon="11.0415708"><ele>720.5</ele><time>2026-04-25T09:46:02.631Z</time></trkpt><trkpt lat="46.2047899" lon="11.0409807"><ele>726.0</ele><time>2026-04-25T09:46:03.665Z</time></trkpt><trkpt lat="46.204696" lon="11.0408512"><ele>722.75</ele><time>2026-04-25T09:46:04.638Z</time></trkpt><trkpt lat="46.2046001" lon="11.0407297"><ele>719.5</ele><time>2026-04-25T09:46:05.656Z</time></trkpt><trkpt lat="46.2045124" lon="11.0406232"><ele>716.25</ele><time>2026-04-25T09:46:06.651Z</time></trkpt><trkpt lat="46.2044243" lon="11.0405121"><ele>713.0</ele><time>2026-04-25T09:46:07.654Z</time></trkpt><trkpt lat="46.2043287" lon="11.0404093"><ele>713.0</ele><time>2026-04-25T09:46:08.666Z</time></trkpt><trkpt lat="46.204245" lon="11.0403568"><ele>713.0</ele><time>2026-04-25T09:46:09.641Z</time></trkpt><trkpt lat="46.2041439" lon="11.0403228"><ele>713.0</ele><time>2026-04-25T09:46:10.661Z</time></trkpt><trkpt lat="46.2040208" lon="11.0403308"><ele>713.0</ele><time>2026-04-25T09:46:11.647Z</time></trkpt><trkpt lat="46.2039163" lon="11.0403667"><ele>713.0</ele><time>2026-04-25T09:46:12.655Z</time></trkpt><trkpt lat="46.2038015" lon="11.0404113"><ele>712.5</ele><time>2026-04-25T09:46:13.628Z</time></trkpt><trkpt lat="46.2036795" lon="11.0404505"><ele>712.0</ele><time>2026-04-25T09:46:14.666Z</time></trkpt><trkpt lat="46.2035582" lon="11.0404732"><ele>711.5</ele><time>2026-04-25T09:46:15.653Z</time></trkpt><trkpt lat="46.2034196" lon="11.0404946"><ele>711.0</ele><time>2026-04-25T09:46:16.656Z</time></trkpt><trkpt lat="46.2032872" lon="11.0404941"><ele>711.0</ele><time>2026-04-25T09:46:17.659Z</time></trkpt><trkpt lat="46.2031641" lon="11.0404817"><ele>711.0</ele><time>2026-04-25T09:46:18.632Z</time></trkpt><trkpt lat="46.2030346" lon="11.0404592"><ele>711.0</ele><time>2026-04-25T09:46:19.632Z</time></trkpt><trkpt lat="46.2029025" lon="11.040434"><ele>711.0</ele><time>2026-04-25T09:46:20.651Z</time></trkpt><trkpt lat="46.2027742" lon="11.0404126"><ele>711.75</ele><time>2026-04-25T09:46:21.644Z</time></trkpt><trkpt lat="46.2026434" lon="11.040388"><ele>712.5</ele><time>2026-04-25T09:46:22.636Z</time></trkpt><trkpt lat="46.202502" lon="11.0403806"><ele>713.25</ele><time>2026-04-25T09:46:23.649Z</time></trkpt><trkpt lat="46.2023657" lon="11.040377"><ele>714.0</ele><time>2026-04-25T09:46:24.66Z</time></trkpt><trkpt lat="46.2022249" lon="11.0403809"><ele>715.5</ele><time>2026-04-25T09:46:25.643Z</time></trkpt><trkpt lat="46.2020749" lon="11.0403904"><ele>717.0</ele><time>2026-04-25T09:46:26.623Z</time></trkpt><trkpt lat="46.2019403" lon="11.0404091"><ele>718.5</ele><time>2026-04-25T09:46:27.634Z</time></trkpt><trkpt lat="46.2017893" lon="11.0404403"><ele>720.0</ele><time>2026-04-25T09:46:28.63Z</time></trkpt><trkpt lat="46.2016416" lon="11.0404802"><ele>722.0</ele><time>2026-04-25T09:46:29.658Z</time></trkpt><trkpt lat="46.2014833" lon="11.0405263"><ele>724.0</ele><time>2026-04-25T09:46:30.628Z</time></trkpt><trkpt lat="46.2013024" lon="11.0405863"><ele>726.0</ele><time>2026-04-25T09:46:31.674Z</time></trkpt><trkpt lat="46.2011365" lon="11.0406514"><ele>726.0</ele><time>2026-04-25T09:46:32.636Z</time></trkpt><trkpt lat="46.2009618" lon="11.0407308"><ele>726.0</ele><time>2026-04-25T09:46:33.671Z</time></trkpt><trkpt lat="46.2008129" lon="11.0408092"><ele>726.0</ele><time>2026-04-25T09:46:34.62Z</time></trkpt><trkpt lat="46.2006399" lon="11.0408959"><ele>734.3333333333334</ele><time>2026-04-25T09:46:35.66Z</time></trkpt><trkpt lat="46.2004862" lon="11.0409738"><ele>742.6666666666667</ele><time>2026-04-25T09:46:36.653Z</time></trkpt><trkpt lat="46.2003098" lon="11.0410237"><ele>751.0</ele><time>2026-04-25T09:46:37.668Z</time></trkpt><trkpt lat="46.2001364" lon="11.0410747"><ele>751.0</ele><time>2026-04-25T09:46:38.645Z</time></trkpt><trkpt lat="46.1999879" lon="11.0411628"><ele>751.0</ele><time>2026-04-25T09:46:39.668Z</time></trkpt><trkpt lat="46.1998624" lon="11.0413095"><ele>751.0</ele><time>2026-04-25T09:46:40.657Z</time></trkpt><trkpt lat="46.1997597" lon="11.0414389"><ele>750.75</ele><time>2026-04-25T09:46:41.661Z</time></trkpt><trkpt lat="46.1996603" lon="11.0415862"><ele>750.5</ele><time>2026-04-25T09:46:42.649Z</time></trkpt><trkpt lat="46.1995804" lon="11.0417429"><ele>750.25</ele><time>2026-04-25T09:46:43.648Z</time></trkpt><trkpt lat="46.1994952" lon="11.0418816"><ele>750.0</ele><time>2026-04-25T09:46:44.667Z</time></trkpt><trkpt lat="46.1994071" lon="11.0420131"><ele>751.8</ele><time>2026-04-25T09:46:45.66Z</time></trkpt><trkpt lat="46.1993333" lon="11.0420879"><ele>753.6</ele><time>2026-04-25T09:46:46.626Z</time></trkpt><trkpt lat="46.1992695" lon="11.042148"><ele>755.4000000000001</ele><time>2026-04-25T09:46:47.666Z</time></trkpt><trkpt lat="46.1991476" lon="11.0422251"><ele>757.2</ele><time>2026-04-25T09:46:48.645Z</time></trkpt><trkpt lat="46.1990593" lon="11.0422459"><ele>759.0</ele><time>2026-04-25T09:46:49.644Z</time></trkpt><trkpt lat="46.198927" lon="11.0422674"><ele>759.0</ele><time>2026-04-25T09:46:50.653Z</time></trkpt><trkpt lat="46.1987838" lon="11.0422797"><ele>759.0</ele><time>2026-04-25T09:46:51.651Z</time></trkpt><trkpt lat="46.1986405" lon="11.0422937"><ele>759.0</ele><time>2026-04-25T09:46:52.659Z</time></trkpt><trkpt lat="46.1984618" lon="11.0422884"><ele>759.0</ele><time>2026-04-25T09:46:53.648Z</time></trkpt><trkpt lat="46.1982705" lon="11.0422515"><ele>759.0</ele><time>2026-04-25T09:46:54.626Z</time></trkpt><trkpt lat="46.1980866" lon="11.0422005"><ele>759.0</ele><time>2026-04-25T09:46:55.628Z</time></trkpt><trkpt lat="46.1979019" lon="11.0421426"><ele>762.6666666666667</ele><time>2026-04-25T09:46:56.627Z</time></trkpt><trkpt lat="46.1977203" lon="11.042088"><ele>766.3333333333334</ele><time>2026-04-25T09:46:57.645Z</time></trkpt><trkpt lat="46.1975147" lon="11.0420305"><ele>770.0</ele><time>2026-04-25T09:46:58.652Z</time></trkpt><trkpt lat="46.1972931" lon="11.0419692"><ele>774.5</ele><time>2026-04-25T09:46:59.647Z</time></trkpt><trkpt lat="46.1970453" lon="11.0419145"><ele>779.0</ele><time>2026-04-25T09:47:00.675Z</time></trkpt><trkpt lat="46.1968362" lon="11.0418707"><ele>779.0</ele><time>2026-04-25T09:47:01.672Z</time></trkpt><trkpt lat="46.1966408" lon="11.0418388"><ele>779.0</ele><time>2026-04-25T09:47:02.65Z</time></trkpt><trkpt lat="46.1964596" lon="11.0418347"><ele>779.0</ele><time>2026-04-25T09:47:03.649Z</time></trkpt><trkpt lat="46.1962953" lon="11.0418308"><ele>779.3333333333334</ele><time>2026-04-25T09:47:04.626Z</time></trkpt><trkpt lat="46.196143" lon="11.0417954"><ele>779.6666666666667</ele><time>2026-04-25T09:47:05.667Z</time></trkpt><trkpt lat="46.1960128" lon="11.041726"><ele>780.0</ele><time>2026-04-25T09:47:06.617Z</time></trkpt><trkpt lat="46.1958755" lon="11.041616"><ele>780.0</ele><time>2026-04-25T09:47:07.661Z</time></trkpt><trkpt lat="46.1957451" lon="11.0414749"><ele>780.0</ele><time>2026-04-25T09:47:08.646Z</time></trkpt><trkpt lat="46.195616" lon="11.0413079"><ele>780.0</ele><time>2026-04-25T09:47:09.666Z</time></trkpt><trkpt lat="46.1954947" lon="11.0411239"><ele>783.3333333333333</ele><time>2026-04-25T09:47:10.651Z</time></trkpt><trkpt lat="46.1953782" lon="11.040955"><ele>786.6666666666666</ele><time>2026-04-25T09:47:11.625Z</time></trkpt><trkpt lat="46.1952601" lon="11.0407774"><ele>790.0</ele><time>2026-04-25T09:47:12.656Z</time></trkpt><trkpt lat="46.195152" lon="11.0406435"><ele>790.0</ele><time>2026-04-25T09:47:13.626Z</time></trkpt><trkpt lat="46.1950906" lon="11.0405867"><ele>790.0</ele><time>2026-04-25T09:47:14.635Z</time></trkpt><trkpt lat="46.1949604" lon="11.0405401"><ele>790.0</ele><time>2026-04-25T09:47:15.647Z</time></trkpt><trkpt lat="46.1948192" lon="11.0405269"><ele>790.0</ele><time>2026-04-25T09:47:16.678Z</time></trkpt><trkpt lat="46.1946811" lon="11.0405464"><ele>793.6666666666666</ele><time>2026-04-25T09:47:17.675Z</time></trkpt><trkpt lat="46.1945399" lon="11.0405598"><ele>797.3333333333333</ele><time>2026-04-25T09:47:18.646Z</time></trkpt><trkpt lat="46.1943792" lon="11.0405697"><ele>801.0</ele><time>2026-04-25T09:47:19.656Z</time></trkpt><trkpt lat="46.1942156" lon="11.0405762"><ele>801.0</ele><time>2026-04-25T09:47:20.678Z</time></trkpt><trkpt lat="46.1940604" lon="11.0405852"><ele>801.0</ele><time>2026-04-25T09:47:21.644Z</time></trkpt><trkpt lat="46.1938943" lon="11.040593"><ele>801.0</ele><time>2026-04-25T09:47:22.661Z</time></trkpt><trkpt lat="46.1937331" lon="11.040599"><ele>806.0</ele><time>2026-04-25T09:47:23.636Z</time></trkpt><trkpt lat="46.1935595" lon="11.0406077"><ele>811.0</ele><time>2026-04-25T09:47:24.68Z</time></trkpt><trkpt lat="46.1933912" lon="11.0406199"><ele>816.0</ele><time>2026-04-25T09:47:25.662Z</time></trkpt><trkpt lat="46.1932177" lon="11.0406401"><ele>818.0</ele><time>2026-04-25T09:47:26.67Z</time></trkpt><trkpt lat="46.1930466" lon="11.0406675"><ele>820.0</ele><time>2026-04-25T09:47:27.647Z</time></trkpt><trkpt lat="46.1928741" lon="11.040698"><ele>822.0</ele><time>2026-04-25T09:47:28.659Z</time></trkpt><trkpt lat="46.1927012" lon="11.0407294"><ele>822.0</ele><time>2026-04-25T09:47:29.657Z</time></trkpt><trkpt lat="46.1925333" lon="11.0407647"><ele>822.0</ele><time>2026-04-25T09:47:30.642Z</time></trkpt><trkpt lat="46.1923557" lon="11.0408006"><ele>822.0</ele><time>2026-04-25T09:47:31.662Z</time></trkpt><trkpt lat="46.1921939" lon="11.0408344"><ele>822.75</ele><time>2026-04-25T09:47:32.665Z</time></trkpt><trkpt lat="46.1920455" lon="11.0408686"><ele>823.5</ele><time>2026-04-25T09:47:33.653Z</time></trkpt><trkpt lat="46.1919076" lon="11.0408958"><ele>824.25</ele><time>2026-04-25T09:47:34.641Z</time></trkpt><trkpt lat="46.1917764" lon="11.0409178"><ele>825.0</ele><time>2026-04-25T09:47:35.665Z</time></trkpt><trkpt lat="46.1916532" lon="11.0409445"><ele>825.0</ele><time>2026-04-25T09:47:36.623Z</time></trkpt><trkpt lat="46.1915247" lon="11.0409906"><ele>825.0</ele><time>2026-04-25T09:47:37.642Z</time></trkpt><trkpt lat="46.1913992" lon="11.0410592"><ele>825.0</ele><time>2026-04-25T09:47:38.632Z</time></trkpt><trkpt lat="46.1912711" lon="11.0411531"><ele>825.0</ele><time>2026-04-25T09:47:39.655Z</time></trkpt><trkpt lat="46.1911478" lon="11.0412515"><ele>824.0</ele><time>2026-04-25T09:47:40.654Z</time></trkpt><trkpt lat="46.191016" lon="11.0413565"><ele>823.0</ele><time>2026-04-25T09:47:41.676Z</time></trkpt><trkpt lat="46.1908893" lon="11.0414539"><ele>822.0</ele><time>2026-04-25T09:47:42.633Z</time></trkpt><trkpt lat="46.1907491" lon="11.0415673"><ele>822.0</ele><time>2026-04-25T09:47:43.651Z</time></trkpt><trkpt lat="46.1906145" lon="11.0416828"><ele>822.0</ele><time>2026-04-25T09:47:44.644Z</time></trkpt><trkpt lat="46.1904779" lon="11.0417985"><ele>822.0</ele><time>2026-04-25T09:47:45.63Z</time></trkpt><trkpt lat="46.1903342" lon="11.0419144"><ele>822.0</ele><time>2026-04-25T09:47:46.657Z</time></trkpt><trkpt lat="46.1902007" lon="11.0420276"><ele>822.0</ele><time>2026-04-25T09:47:47.658Z</time></trkpt><trkpt lat="46.1900802" lon="11.0421313"><ele>822.0</ele><time>2026-04-25T09:47:48.629Z</time></trkpt><trkpt lat="46.1899583" lon="11.0422372"><ele>822.0</ele><time>2026-04-25T09:47:49.662Z</time></trkpt><trkpt lat="46.189841" lon="11.0423336"><ele>821.25</ele><time>2026-04-25T09:47:50.662Z</time></trkpt><trkpt lat="46.1897258" lon="11.0424063"><ele>820.5</ele><time>2026-04-25T09:47:51.63Z</time></trkpt><trkpt lat="46.1895858" lon="11.0424736"><ele>819.75</ele><time>2026-04-25T09:47:52.663Z</time></trkpt><trkpt lat="46.1894399" lon="11.0425219"><ele>819.0</ele><time>2026-04-25T09:47:53.647Z</time></trkpt><trkpt lat="46.1892977" lon="11.0425681"><ele>821.25</ele><time>2026-04-25T09:47:54.651Z</time></trkpt><trkpt lat="46.189163" lon="11.0426106"><ele>823.5</ele><time>2026-04-25T09:47:55.649Z</time></trkpt><trkpt lat="46.18903" lon="11.042652"><ele>825.75</ele><time>2026-04-25T09:47:56.638Z</time></trkpt><trkpt lat="46.1888942" lon="11.0427007"><ele>828.0</ele><time>2026-04-25T09:47:57.661Z</time></trkpt><trkpt lat="46.1887787" lon="11.0427348"><ele>829.2</ele><time>2026-04-25T09:47:58.631Z</time></trkpt><trkpt lat="46.1886708" lon="11.042735"><ele>830.4</ele><time>2026-04-25T09:47:59.653Z</time></trkpt><trkpt lat="46.1885808" lon="11.0426976"><ele>831.6</ele><time>2026-04-25T09:48:00.662Z</time></trkpt><trkpt lat="46.1885228" lon="11.0426062"><ele>832.8000000000001</ele><time>2026-04-25T09:48:01.64Z</time></trkpt><trkpt lat="46.1884819" lon="11.042449"><ele>834.0</ele><time>2026-04-25T09:48:02.663Z</time></trkpt><trkpt lat="46.1884392" lon="11.0422623"><ele>834.0</ele><time>2026-04-25T09:48:03.628Z</time></trkpt><trkpt lat="46.1883791" lon="11.042051"><ele>834.0</ele><time>2026-04-25T09:48:04.672Z</time></trkpt><trkpt lat="46.188333" lon="11.0418386"><ele>834.0</ele><time>2026-04-25T09:48:05.634Z</time></trkpt><trkpt lat="46.1882626" lon="11.0415868"><ele>834.6666666666667</ele><time>2026-04-25T09:48:06.643Z</time></trkpt><trkpt lat="46.1881789" lon="11.0413268"><ele>835.3333333333334</ele><time>2026-04-25T09:48:07.664Z</time></trkpt><trkpt lat="46.1880887" lon="11.0411093"><ele>836.0</ele><time>2026-04-25T09:48:08.649Z</time></trkpt><trkpt lat="46.187971" lon="11.0411531"><ele>836.0</ele><time>2026-04-25T09:48:09.661Z</time></trkpt><trkpt lat="46.1878541" lon="11.0410831"><ele>836.0</ele><time>2026-04-25T09:48:10.658Z</time></trkpt><trkpt lat="46.1877254" lon="11.0410174"><ele>836.0</ele><time>2026-04-25T09:48:11.659Z</time></trkpt><trkpt lat="46.1876059" lon="11.0409702"><ele>836.0</ele><time>2026-04-25T09:48:12.668Z</time></trkpt><trkpt lat="46.1874951" lon="11.0409262"><ele>836.0</ele><time>2026-04-25T09:48:13.653Z</time></trkpt><trkpt lat="46.1873769" lon="11.040892"><ele>836.0</ele><time>2026-04-25T09:48:14.663Z</time></trkpt><trkpt lat="46.1872682" lon="11.0408458"><ele>836.0</ele><time>2026-04-25T09:48:15.657Z</time></trkpt><trkpt lat="46.1871658" lon="11.0407951"><ele>836.0</ele><time>2026-04-25T09:48:16.655Z</time></trkpt><trkpt lat="46.1870758" lon="11.0407481"><ele>836.0</ele><time>2026-04-25T09:48:17.658Z</time></trkpt><trkpt lat="46.1869897" lon="11.0407046"><ele>837.4</ele><time>2026-04-25T09:48:18.654Z</time></trkpt><trkpt lat="46.186898" lon="11.0406779"><ele>838.8</ele><time>2026-04-25T09:48:19.645Z</time></trkpt><trkpt lat="46.1867892" lon="11.0406593"><ele>840.1999999999999</ele><time>2026-04-25T09:48:20.654Z</time></trkpt><trkpt lat="46.1866793" lon="11.0406499"><ele>841.5999999999999</ele><time>2026-04-25T09:48:21.63Z</time></trkpt><trkpt lat="46.1865634" lon="11.0406629"><ele>843.0</ele><time>2026-04-25T09:48:22.634Z</time></trkpt><trkpt lat="46.1864544" lon="11.0406899"><ele>844.2</ele><time>2026-04-25T09:48:23.662Z</time></trkpt><trkpt lat="46.1863532" lon="11.0406985"><ele>845.4</ele><time>2026-04-25T09:48:24.661Z</time></trkpt><trkpt lat="46.1862596" lon="11.0406723"><ele>846.6</ele><time>2026-04-25T09:48:25.66Z</time></trkpt><trkpt lat="46.1861649" lon="11.04062"><ele>847.8000000000001</ele><time>2026-04-25T09:48:26.65Z</time></trkpt><trkpt lat="46.1860759" lon="11.0405316"><ele>849.0</ele><time>2026-04-25T09:48:27.658Z</time></trkpt><trkpt lat="46.1859986" lon="11.040406"><ele>849.0</ele><time>2026-04-25T09:48:28.658Z</time></trkpt><trkpt lat="46.1859433" lon="11.0402615"><ele>849.0</ele><time>2026-04-25T09:48:29.659Z</time></trkpt><trkpt lat="46.1858964" lon="11.040096"><ele>849.0</ele><time>2026-04-25T09:48:30.629Z</time></trkpt><trkpt lat="46.1858567" lon="11.0399039"><ele>849.0</ele><time>2026-04-25T09:48:31.659Z</time></trkpt><trkpt lat="46.185821" lon="11.0397106"><ele>849.0</ele><time>2026-04-25T09:48:32.634Z</time></trkpt><trkpt lat="46.1857833" lon="11.039506"><ele>849.0</ele><time>2026-04-25T09:48:33.644Z</time></trkpt><trkpt lat="46.1857423" lon="11.0393066"><ele>849.0</ele><time>2026-04-25T09:48:34.628Z</time></trkpt><trkpt lat="46.1857053" lon="11.0391193"><ele>849.0</ele><time>2026-04-25T09:48:35.643Z</time></trkpt><trkpt lat="46.1856685" lon="11.0389492"><ele>851.0</ele><time>2026-04-25T09:48:36.62Z</time></trkpt><trkpt lat="46.1856336" lon="11.0387666"><ele>853.0</ele><time>2026-04-25T09:48:37.648Z</time></trkpt><trkpt lat="46.1855988" lon="11.0385895"><ele>855.0</ele><time>2026-04-25T09:48:38.657Z</time></trkpt><trkpt lat="46.1855648" lon="11.0384134"><ele>857.0</ele><time>2026-04-25T09:48:39.631Z</time></trkpt><trkpt lat="46.1855309" lon="11.0382195"><ele>857.0</ele><time>2026-04-25T09:48:40.66Z</time></trkpt><trkpt lat="46.1854974" lon="11.0380256"><ele>857.0</ele><time>2026-04-25T09:48:41.669Z</time></trkpt><trkpt lat="46.1854589" lon="11.0378353"><ele>857.0</ele><time>2026-04-25T09:48:42.657Z</time></trkpt><trkpt lat="46.1854193" lon="11.0376372"><ele>857.0</ele><time>2026-04-25T09:48:43.658Z</time></trkpt><trkpt lat="46.1853854" lon="11.0374397"><ele>857.0</ele><time>2026-04-25T09:48:44.626Z</time></trkpt><trkpt lat="46.1853513" lon="11.0372276"><ele>857.0</ele><time>2026-04-25T09:48:45.662Z</time></trkpt><trkpt lat="46.1853132" lon="11.0370221"><ele>857.0</ele><time>2026-04-25T09:48:46.673Z</time></trkpt><trkpt lat="46.1852766" lon="11.0368268"><ele>857.0</ele><time>2026-04-25T09:48:47.655Z</time></trkpt><trkpt lat="46.1852422" lon="11.0366332"><ele>856.25</ele><time>2026-04-25T09:48:48.661Z</time></trkpt><trkpt lat="46.1852057" lon="11.0364486"><ele>855.5</ele><time>2026-04-25T09:48:49.664Z</time></trkpt><trkpt lat="46.1851749" lon="11.0362773"><ele>854.75</ele><time>2026-04-25T09:48:50.636Z</time></trkpt><trkpt lat="46.1851427" lon="11.0360953"><ele>854.0</ele><time>2026-04-25T09:48:51.639Z</time></trkpt><trkpt lat="46.1851063" lon="11.0359104"><ele>854.25</ele><time>2026-04-25T09:48:52.655Z</time></trkpt><trkpt lat="46.1850728" lon="11.0357233"><ele>854.5</ele><time>2026-04-25T09:48:53.662Z</time></trkpt><trkpt lat="46.1850356" lon="11.035535"><ele>854.75</ele><time>2026-04-25T09:48:54.653Z</time></trkpt><trkpt lat="46.1849973" lon="11.0353544"><ele>855.0</ele><time>2026-04-25T09:48:55.633Z</time></trkpt><trkpt lat="46.1849647" lon="11.0351771"><ele>855.0</ele><time>2026-04-25T09:48:56.648Z</time></trkpt><trkpt lat="46.1849503" lon="11.0350148"><ele>855.0</ele><time>2026-04-25T09:48:57.67Z</time></trkpt><trkpt lat="46.1849707" lon="11.0348945"><ele>855.0</ele><time>2026-04-25T09:48:58.653Z</time></trkpt><trkpt lat="46.1850245" lon="11.0347811"><ele>855.0</ele><time>2026-04-25T09:48:59.663Z</time></trkpt><trkpt lat="46.1850988" lon="11.034679"><ele>855.0</ele><time>2026-04-25T09:49:00.613Z</time></trkpt><trkpt lat="46.1851796" lon="11.0345681"><ele>857.25</ele><time>2026-04-25T09:49:01.617Z</time></trkpt><trkpt lat="46.1852692" lon="11.0344464"><ele>859.5</ele><time>2026-04-25T09:49:02.643Z</time></trkpt><trkpt lat="46.1853524" lon="11.0343273"><ele>861.75</ele><time>2026-04-25T09:49:03.669Z</time></trkpt><trkpt lat="46.1854286" lon="11.0342177"><ele>864.0</ele><time>2026-04-25T09:49:04.644Z</time></trkpt><trkpt lat="46.1855116" lon="11.0341027"><ele>862.5</ele><time>2026-04-25T09:49:05.655Z</time></trkpt><trkpt lat="46.1855892" lon="11.0339858"><ele>861.0</ele><time>2026-04-25T09:49:06.647Z</time></trkpt><trkpt lat="46.1856599" lon="11.0338545"><ele>859.5</ele><time>2026-04-25T09:49:07.654Z</time></trkpt><trkpt lat="46.1857258" lon="11.0337096"><ele>858.0</ele><time>2026-04-25T09:49:08.653Z</time></trkpt><trkpt lat="46.1857859" lon="11.0335374"><ele>858.0</ele><time>2026-04-25T09:49:09.669Z</time></trkpt><trkpt lat="46.1858328" lon="11.0333531"><ele>858.0</ele><time>2026-04-25T09:49:10.656Z</time></trkpt><trkpt lat="46.1858691" lon="11.033165"><ele>858.0</ele><time>2026-04-25T09:49:11.627Z</time></trkpt><trkpt lat="46.1858995" lon="11.032958"><ele>858.0</ele><time>2026-04-25T09:49:12.628Z</time></trkpt><trkpt lat="46.1859323" lon="11.0327386"><ele>858.25</ele><time>2026-04-25T09:49:13.656Z</time></trkpt><trkpt lat="46.185963" lon="11.0325326"><ele>858.5</ele><time>2026-04-25T09:49:14.666Z</time></trkpt><trkpt lat="46.1859979" lon="11.0323387"><ele>858.75</ele><time>2026-04-25T09:49:15.667Z</time></trkpt><trkpt lat="46.186032" lon="11.0321573"><ele>859.0</ele><time>2026-04-25T09:49:16.657Z</time></trkpt><trkpt lat="46.1860654" lon="11.0319769"><ele>859.0</ele><time>2026-04-25T09:49:17.649Z</time></trkpt><trkpt lat="46.1860926" lon="11.0318013"><ele>859.0</ele><time>2026-04-25T09:49:18.657Z</time></trkpt><trkpt lat="46.186104" lon="11.0316352"><ele>859.0</ele><time>2026-04-25T09:49:19.639Z</time></trkpt><trkpt lat="46.1860997" lon="11.0314757"><ele>859.0</ele><time>2026-04-25T09:49:20.638Z</time></trkpt><trkpt lat="46.1860745" lon="11.0313268"><ele>857.6</ele><time>2026-04-25T09:49:21.666Z</time></trkpt><trkpt lat="46.1860307" lon="11.0311944"><ele>856.2</ele><time>2026-04-25T09:49:22.648Z</time></trkpt><trkpt lat="46.1859655" lon="11.031067"><ele>854.8000000000001</ele><time>2026-04-25T09:49:23.663Z</time></trkpt><trkpt lat="46.1858953" lon="11.0309535"><ele>853.4000000000001</ele><time>2026-04-25T09:49:24.638Z</time></trkpt><trkpt lat="46.1858146" lon="11.0308266"><ele>852.0</ele><time>2026-04-25T09:49:25.666Z</time></trkpt><trkpt lat="46.1857327" lon="11.0306995"><ele>854.0</ele><time>2026-04-25T09:49:26.654Z</time></trkpt><trkpt lat="46.1856471" lon="11.0305626"><ele>856.0</ele><time>2026-04-25T09:49:27.66Z</time></trkpt><trkpt lat="46.1855655" lon="11.030436"><ele>858.0</ele><time>2026-04-25T09:49:28.624Z</time></trkpt><trkpt lat="46.1854825" lon="11.0303094"><ele>860.0</ele><time>2026-04-25T09:49:29.622Z</time></trkpt><trkpt lat="46.1854056" lon="11.0301903"><ele>860.0</ele><time>2026-04-25T09:49:30.613Z</time></trkpt><trkpt lat="46.1853314" lon="11.0300708"><ele>860.0</ele><time>2026-04-25T09:49:31.638Z</time></trkpt><trkpt lat="46.1852632" lon="11.0299574"><ele>860.0</ele><time>2026-04-25T09:49:32.649Z</time></trkpt><trkpt lat="46.1851942" lon="11.029856"><ele>860.0</ele><time>2026-04-25T09:49:33.663Z</time></trkpt><trkpt lat="46.1851227" lon="11.0297751"><ele>860.0</ele><time>2026-04-25T09:49:34.646Z</time></trkpt><trkpt lat="46.1850432" lon="11.0297121"><ele>860.1666666666667</ele><time>2026-04-25T09:49:35.672Z</time></trkpt><trkpt lat="46.1849672" lon="11.0296784"><ele>860.3333333333334</ele><time>2026-04-25T09:49:36.627Z</time></trkpt><trkpt lat="46.1848803" lon="11.0296528"><ele>860.5</ele><time>2026-04-25T09:49:37.659Z</time></trkpt><trkpt lat="46.184803" lon="11.0296298"><ele>860.6666666666667</ele><time>2026-04-25T09:49:38.634Z</time></trkpt><trkpt lat="46.1847246" lon="11.0296042"><ele>860.8333333333334</ele><time>2026-04-25T09:49:39.658Z</time></trkpt><trkpt lat="46.184653" lon="11.0295746"><ele>861.0</ele><time>2026-04-25T09:49:40.626Z</time></trkpt><trkpt lat="46.1845743" lon="11.0295407"><ele>861.0</ele><time>2026-04-25T09:49:41.654Z</time></trkpt><trkpt lat="46.1844937" lon="11.0294909"><ele>860.9999999999999</ele><time>2026-04-25T09:49:42.658Z</time></trkpt><trkpt lat="46.1844164" lon="11.0294309"><ele>860.9999999999999</ele><time>2026-04-25T09:49:43.658Z</time></trkpt><trkpt lat="46.1843379" lon="11.0293569"><ele>861.0</ele><time>2026-04-25T09:49:44.67Z</time></trkpt><trkpt lat="46.184265" lon="11.0292786"><ele>861.0</ele><time>2026-04-25T09:49:45.665Z</time></trkpt><trkpt lat="46.1841888" lon="11.0291888"><ele>860.4</ele><time>2026-04-25T09:49:46.645Z</time></trkpt><trkpt lat="46.1841073" lon="11.0290857"><ele>859.8</ele><time>2026-04-25T09:49:47.668Z</time></trkpt><trkpt lat="46.1840277" lon="11.0289811"><ele>859.1999999999999</ele><time>2026-04-25T09:49:48.647Z</time></trkpt><trkpt lat="46.1839478" lon="11.0288732"><ele>858.5999999999999</ele><time>2026-04-25T09:49:49.669Z</time></trkpt><trkpt lat="46.1838812" lon="11.0287767"><ele>858.0</ele><time>2026-04-25T09:49:50.648Z</time></trkpt><trkpt lat="46.1838187" lon="11.0286891"><ele>859.8333333333334</ele><time>2026-04-25T09:49:51.659Z</time></trkpt><trkpt lat="46.1837599" lon="11.0286132"><ele>861.6666666666667</ele><time>2026-04-25T09:49:52.634Z</time></trkpt><trkpt lat="46.183701" lon="11.028535"><ele>863.5</ele><time>2026-04-25T09:49:53.627Z</time></trkpt><trkpt lat="46.1836421" lon="11.0284491"><ele>865.3333333333334</ele><time>2026-04-25T09:49:54.649Z</time></trkpt><trkpt lat="46.1835919" lon="11.0283511"><ele>867.1666666666667</ele><time>2026-04-25T09:49:55.646Z</time></trkpt><trkpt lat="46.1835533" lon="11.0282479"><ele>869.0</ele><time>2026-04-25T09:49:56.662Z</time></trkpt><trkpt lat="46.1835343" lon="11.0281498"><ele>869.0000000000001</ele><time>2026-04-25T09:49:57.654Z</time></trkpt><trkpt lat="46.1835346" lon="11.0280532"><ele>869.0</ele><time>2026-04-25T09:49:58.654Z</time></trkpt><trkpt lat="46.183547" lon="11.0279491"><ele>869.0</ele><time>2026-04-25T09:49:59.647Z</time></trkpt><trkpt lat="46.1835664" lon="11.0278379"><ele>869.0</ele><time>2026-04-25T09:50:00.619Z</time></trkpt><trkpt lat="46.1835989" lon="11.027719"><ele>869.0000000000001</ele><time>2026-04-25T09:50:01.635Z</time></trkpt><trkpt lat="46.1836387" lon="11.0275834"><ele>869.0</ele><time>2026-04-25T09:50:02.67Z</time></trkpt><trkpt lat="46.1836833" lon="11.0274407"><ele>868.5</ele><time>2026-04-25T09:50:03.658Z</time></trkpt><trkpt lat="46.1837326" lon="11.0272934"><ele>868.0</ele><time>2026-04-25T09:50:04.654Z</time></trkpt><trkpt lat="46.1838051" lon="11.0271079"><ele>867.5</ele><time>2026-04-25T09:50:06.059Z</time></trkpt><trkpt lat="46.183895" lon="11.0269307"><ele>867.0</ele><time>2026-04-25T09:50:07.681Z</time></trkpt><trkpt lat="46.1839427" lon="11.0268023"><ele>867.0</ele><time>2026-04-25T09:50:08.704Z</time></trkpt><trkpt lat="46.1839848" lon="11.0266754"><ele>867.0</ele><time>2026-04-25T09:50:09.713Z</time></trkpt><trkpt lat="46.1840216" lon="11.0265553"><ele>867.0</ele><time>2026-04-25T09:50:10.731Z</time></trkpt><trkpt lat="46.1840428" lon="11.0264448"><ele>867.0</ele><time>2026-04-25T09:50:11.69Z</time></trkpt><trkpt lat="46.1840379" lon="11.0263167"><ele>867.0</ele><time>2026-04-25T09:50:12.708Z</time></trkpt><trkpt lat="46.1840007" lon="11.0261799"><ele>867.6</ele><time>2026-04-25T09:50:13.74Z</time></trkpt><trkpt lat="46.183948" lon="11.0260701"><ele>868.2</ele><time>2026-04-25T09:50:14.722Z</time></trkpt><trkpt lat="46.1838858" lon="11.0259567"><ele>868.8</ele><time>2026-04-25T09:50:15.72Z</time></trkpt><trkpt lat="46.1838279" lon="11.0258113"><ele>869.4</ele><time>2026-04-25T09:50:16.715Z</time></trkpt><trkpt lat="46.1837763" lon="11.0256295"><ele>870.0</ele><time>2026-04-25T09:50:17.708Z</time></trkpt><trkpt lat="46.1837239" lon="11.0254162"><ele>870.0</ele><time>2026-04-25T09:50:18.705Z</time></trkpt><trkpt lat="46.1836735" lon="11.0251785"><ele>870.0</ele><time>2026-04-25T09:50:19.709Z</time></trkpt><trkpt lat="46.1836375" lon="11.0249537"><ele>870.0</ele><time>2026-04-25T09:50:20.704Z</time></trkpt><trkpt lat="46.183611" lon="11.0247451"><ele>872.75</ele><time>2026-04-25T09:50:21.717Z</time></trkpt><trkpt lat="46.1835899" lon="11.024557"><ele>875.5</ele><time>2026-04-25T09:50:22.692Z</time></trkpt><trkpt lat="46.1835738" lon="11.0243759"><ele>878.25</ele><time>2026-04-25T09:50:23.726Z</time></trkpt><trkpt lat="46.1835725" lon="11.0242239"><ele>881.0</ele><time>2026-04-25T09:50:24.709Z</time></trkpt><trkpt lat="46.1835993" lon="11.024094"><ele>881.0</ele><time>2026-04-25T09:50:25.689Z</time></trkpt><trkpt lat="46.1836557" lon="11.0239968"><ele>880.9999999999999</ele><time>2026-04-25T09:50:26.71Z</time></trkpt><trkpt lat="46.1837427" lon="11.0239298"><ele>880.9999999999999</ele><time>2026-04-25T09:50:27.738Z</time></trkpt><trkpt lat="46.1838512" lon="11.0238909"><ele>881.0</ele><time>2026-04-25T09:50:28.682Z</time></trkpt><trkpt lat="46.1839858" lon="11.0238492"><ele>881.0</ele><time>2026-04-25T09:50:29.709Z</time></trkpt><trkpt lat="46.1841121" lon="11.0238071"><ele>881.0</ele><time>2026-04-25T09:50:30.717Z</time></trkpt><trkpt lat="46.1842283" lon="11.0237666"><ele>881.0</ele><time>2026-04-25T09:50:31.707Z</time></trkpt><trkpt lat="46.1843435" lon="11.023727"><ele>881.0</ele><time>2026-04-25T09:50:32.721Z</time></trkpt><trkpt lat="46.1844496" lon="11.0236942"><ele>881.0</ele><time>2026-04-25T09:50:33.676Z</time></trkpt><trkpt lat="46.1845619" lon="11.0236606"><ele>881.0</ele><time>2026-04-25T09:50:34.705Z</time></trkpt><trkpt lat="46.1846628" lon="11.0236245"><ele>880.9999999999999</ele><time>2026-04-25T09:50:35.719Z</time></trkpt><trkpt lat="46.1847585" lon="11.0235868"><ele>880.9999999999999</ele><time>2026-04-25T09:50:36.693Z</time></trkpt><trkpt lat="46.1848626" lon="11.0235492"><ele>881.0</ele><time>2026-04-25T09:50:37.692Z</time></trkpt><trkpt lat="46.1849742" lon="11.0235076"><ele>881.0</ele><time>2026-04-25T09:50:38.71Z</time></trkpt><trkpt lat="46.1850886" lon="11.0234579"><ele>879.75</ele><time>2026-04-25T09:50:39.717Z</time></trkpt><trkpt lat="46.1852013" lon="11.0234049"><ele>878.5</ele><time>2026-04-25T09:50:40.68Z</time></trkpt><trkpt lat="46.1853283" lon="11.0233436"><ele>877.25</ele><time>2026-04-25T09:50:41.724Z</time></trkpt><trkpt lat="46.1854544" lon="11.0232861"><ele>876.0</ele><time>2026-04-25T09:50:42.727Z</time></trkpt><trkpt lat="46.1855862" lon="11.0232261"><ele>881.25</ele><time>2026-04-25T09:50:43.733Z</time></trkpt><trkpt lat="46.1857134" lon="11.0231645"><ele>886.5</ele><time>2026-04-25T09:50:44.704Z</time></trkpt><trkpt lat="46.1858402" lon="11.0230984"><ele>891.75</ele><time>2026-04-25T09:50:45.728Z</time></trkpt><trkpt lat="46.1859524" lon="11.0230424"><ele>897.0</ele><time>2026-04-25T09:50:46.686Z</time></trkpt><trkpt lat="46.1860691" lon="11.0229851"><ele>897.0</ele><time>2026-04-25T09:50:47.713Z</time></trkpt><trkpt lat="46.1861775" lon="11.0229307"><ele>897.0</ele><time>2026-04-25T09:50:48.699Z</time></trkpt><trkpt lat="46.1862821" lon="11.022873"><ele>897.0</ele><time>2026-04-25T09:50:49.684Z</time></trkpt><trkpt lat="46.1863838" lon="11.0228047"><ele>897.0</ele><time>2026-04-25T09:50:50.691Z</time></trkpt><trkpt lat="46.1864789" lon="11.0227201"><ele>897.2</ele><time>2026-04-25T09:50:51.709Z</time></trkpt><trkpt lat="46.1865637" lon="11.022616"><ele>897.4000000000001</ele><time>2026-04-25T09:50:52.717Z</time></trkpt><trkpt lat="46.186635" lon="11.0224986"><ele>897.5999999999999</ele><time>2026-04-25T09:50:53.687Z</time></trkpt><trkpt lat="46.1867016" lon="11.0223562"><ele>897.8</ele><time>2026-04-25T09:50:54.732Z</time></trkpt><trkpt lat="46.1867563" lon="11.0222173"><ele>898.0</ele><time>2026-04-25T09:50:55.691Z</time></trkpt><trkpt lat="46.1868146" lon="11.0220675"><ele>898.0</ele><time>2026-04-25T09:50:56.709Z</time></trkpt><trkpt lat="46.1868723" lon="11.0219265"><ele>898.0</ele><time>2026-04-25T09:50:57.697Z</time></trkpt><trkpt lat="46.1869207" lon="11.0217935"><ele>898.0</ele><time>2026-04-25T09:50:58.705Z</time></trkpt><trkpt lat="46.1869485" lon="11.0216647"><ele>898.0</ele><time>2026-04-25T09:50:59.69Z</time></trkpt><trkpt lat="46.18695" lon="11.0215348"><ele>898.0</ele><time>2026-04-25T09:51:00.682Z</time></trkpt><trkpt lat="46.1869256" lon="11.0214095"><ele>898.5999999999999</ele><time>2026-04-25T09:51:01.678Z</time></trkpt><trkpt lat="46.1868757" lon="11.0212932"><ele>899.1999999999999</ele><time>2026-04-25T09:51:02.682Z</time></trkpt><trkpt lat="46.1867994" lon="11.0211968"><ele>899.8</ele><time>2026-04-25T09:51:03.722Z</time></trkpt><trkpt lat="46.1867048" lon="11.0211465"><ele>900.4</ele><time>2026-04-25T09:51:04.716Z</time></trkpt><trkpt lat="46.1865949" lon="11.0211322"><ele>901.0</ele><time>2026-04-25T09:51:05.714Z</time></trkpt><trkpt lat="46.1864751" lon="11.0211339"><ele>902.5</ele><time>2026-04-25T09:51:06.722Z</time></trkpt><trkpt lat="46.1863524" lon="11.021139"><ele>904.0</ele><time>2026-04-25T09:51:07.699Z</time></trkpt><trkpt lat="46.1862179" lon="11.0211456"><ele>905.5</ele><time>2026-04-25T09:51:08.727Z</time></trkpt><trkpt lat="46.1860918" lon="11.0211497"><ele>907.0</ele><time>2026-04-25T09:51:09.718Z</time></trkpt><trkpt lat="46.1859737" lon="11.0211503"><ele>907.0</ele><time>2026-04-25T09:51:10.711Z</time></trkpt><trkpt lat="46.1858518" lon="11.0211543"><ele>907.0</ele><time>2026-04-25T09:51:11.72Z</time></trkpt><trkpt lat="46.1857288" lon="11.0211635"><ele>907.0</ele><time>2026-04-25T09:51:12.713Z</time></trkpt><trkpt lat="46.1856034" lon="11.0211739"><ele>907.0</ele><time>2026-04-25T09:51:13.695Z</time></trkpt><trkpt lat="46.1854675" lon="11.0211892"><ele>910.6666666666666</ele><time>2026-04-25T09:51:14.712Z</time></trkpt><trkpt lat="46.1853242" lon="11.0212145"><ele>914.3333333333333</ele><time>2026-04-25T09:51:15.717Z</time></trkpt><trkpt lat="46.1851758" lon="11.0212483"><ele>918.0</ele><time>2026-04-25T09:51:16.69Z</time></trkpt><trkpt lat="46.185021" lon="11.0212811"><ele>918.0</ele><time>2026-04-25T09:51:17.677Z</time></trkpt><trkpt lat="46.1848602" lon="11.0213064"><ele>918.0</ele><time>2026-04-25T09:51:18.691Z</time></trkpt><trkpt lat="46.1846975" lon="11.0213351"><ele>918.0</ele><time>2026-04-25T09:51:19.719Z</time></trkpt><trkpt lat="46.1845564" lon="11.0213657"><ele>922.5</ele><time>2026-04-25T09:51:20.706Z</time></trkpt><trkpt lat="46.1844193" lon="11.0213983"><ele>927.0</ele><time>2026-04-25T09:51:21.707Z</time></trkpt><trkpt lat="46.1842759" lon="11.0214359"><ele>931.5</ele><time>2026-04-25T09:51:22.736Z</time></trkpt><trkpt lat="46.1841435" lon="11.0214691"><ele>936.0</ele><time>2026-04-25T09:51:23.688Z</time></trkpt><trkpt lat="46.1840073" lon="11.021501"><ele>939.75</ele><time>2026-04-25T09:51:24.708Z</time></trkpt><trkpt lat="46.1838741" lon="11.0215362"><ele>943.5</ele><time>2026-04-25T09:51:25.715Z</time></trkpt><trkpt lat="46.1837436" lon="11.021572"><ele>947.25</ele><time>2026-04-25T09:51:26.719Z</time></trkpt><trkpt lat="46.1836268" lon="11.0216004"><ele>951.0</ele><time>2026-04-25T09:51:27.67Z</time></trkpt><trkpt lat="46.1835034" lon="11.0216275"><ele>946.5</ele><time>2026-04-25T09:51:28.673Z</time></trkpt><trkpt lat="46.1833793" lon="11.0216546"><ele>942.0</ele><time>2026-04-25T09:51:29.628Z</time></trkpt><trkpt lat="46.1832531" lon="11.0216787"><ele>937.5</ele><time>2026-04-25T09:51:30.666Z</time></trkpt><trkpt lat="46.1831337" lon="11.0217085"><ele>933.0</ele><time>2026-04-25T09:51:31.653Z</time></trkpt><trkpt lat="46.1830169" lon="11.0217377"><ele>933.0</ele><time>2026-04-25T09:51:32.662Z</time></trkpt><trkpt lat="46.1829018" lon="11.0217718"><ele>933.0</ele><time>2026-04-25T09:51:33.656Z</time></trkpt><trkpt lat="46.1827922" lon="11.0218045"><ele>933.0</ele><time>2026-04-25T09:51:34.631Z</time></trkpt><trkpt lat="46.1826725" lon="11.0218336"><ele>933.0</ele><time>2026-04-25T09:51:35.675Z</time></trkpt><trkpt lat="46.1825589" lon="11.0218601"><ele>933.0</ele><time>2026-04-25T09:51:36.667Z</time></trkpt><trkpt lat="46.1824427" lon="11.0218678"><ele>933.0</ele><time>2026-04-25T09:51:37.653Z</time></trkpt><trkpt lat="46.182336" lon="11.0218483"><ele>933.0</ele><time>2026-04-25T09:51:38.628Z</time></trkpt><trkpt lat="46.182224" lon="11.0217932"><ele>933.0</ele><time>2026-04-25T09:51:39.681Z</time></trkpt><trkpt lat="46.1821213" lon="11.0217052"><ele>935.5</ele><time>2026-04-25T09:51:40.659Z</time></trkpt><trkpt lat="46.1820145" lon="11.0215983"><ele>938.0</ele><time>2026-04-25T09:51:41.677Z</time></trkpt><trkpt lat="46.1819112" lon="11.0214998"><ele>940.5</ele><time>2026-04-25T09:51:42.654Z</time></trkpt><trkpt lat="46.1818012" lon="11.0214005"><ele>943.0</ele><time>2026-04-25T09:51:43.665Z</time></trkpt><trkpt lat="46.1816944" lon="11.0213089"><ele>943.0</ele><time>2026-04-25T09:51:44.678Z</time></trkpt><trkpt lat="46.1816015" lon="11.0212193"><ele>943.0</ele><time>2026-04-25T09:51:45.669Z</time></trkpt><trkpt lat="46.1815168" lon="11.0211409"><ele>943.0</ele><time>2026-04-25T09:51:46.625Z</time></trkpt><trkpt lat="46.1814306" lon="11.0210609"><ele>943.0</ele><time>2026-04-25T09:51:47.656Z</time></trkpt><trkpt lat="46.1813487" lon="11.0209887"><ele>943.0</ele><time>2026-04-25T09:51:48.631Z</time></trkpt><trkpt lat="46.1812697" lon="11.0209202"><ele>943.0</ele><time>2026-04-25T09:51:49.644Z</time></trkpt><trkpt lat="46.1812026" lon="11.0208581"><ele>943.0000000000001</ele><time>2026-04-25T09:51:50.66Z</time></trkpt><trkpt lat="46.1811445" lon="11.0208029"><ele>943.0</ele><time>2026-04-25T09:51:51.674Z</time></trkpt><trkpt lat="46.1810973" lon="11.0207321"><ele>943.0</ele><time>2026-04-25T09:51:52.633Z</time></trkpt><trkpt lat="46.1810705" lon="11.0206359"><ele>943.0000000000001</ele><time>2026-04-25T09:51:53.644Z</time></trkpt><trkpt lat="46.1810797" lon="11.0205268"><ele>943.0</ele><time>2026-04-25T09:51:54.657Z</time></trkpt><trkpt lat="46.1811283" lon="11.0204333"><ele>943.0</ele><time>2026-04-25T09:51:55.645Z</time></trkpt><trkpt lat="46.1812117" lon="11.0203793"><ele>946.0</ele><time>2026-04-25T09:51:56.674Z</time></trkpt><trkpt lat="46.1813009" lon="11.0203673"><ele>949.0</ele><time>2026-04-25T09:51:57.63Z</time></trkpt><trkpt lat="46.1814123" lon="11.020383"><ele>952.0</ele><time>2026-04-25T09:51:58.681Z</time></trkpt><trkpt lat="46.1815257" lon="11.0204072"><ele>955.0</ele><time>2026-04-25T09:51:59.673Z</time></trkpt><trkpt lat="46.1816368" lon="11.0204345"><ele>958.0</ele><time>2026-04-25T09:52:00.631Z</time></trkpt><trkpt lat="46.1817558" lon="11.0204683"><ele>958.0</ele><time>2026-04-25T09:52:01.645Z</time></trkpt><trkpt lat="46.1818776" lon="11.0205121"><ele>958.0</ele><time>2026-04-25T09:52:02.665Z</time></trkpt><trkpt lat="46.1819848" lon="11.0205559"><ele>958.0</ele><time>2026-04-25T09:52:03.645Z</time></trkpt><trkpt lat="46.1820949" lon="11.0206071"><ele>958.0</ele><time>2026-04-25T09:52:04.671Z</time></trkpt><trkpt lat="46.1822003" lon="11.0206521"><ele>958.0</ele><time>2026-04-25T09:52:05.638Z</time></trkpt><trkpt lat="46.1823067" lon="11.0207041"><ele>958.0</ele><time>2026-04-25T09:52:06.671Z</time></trkpt><trkpt lat="46.1824023" lon="11.0207529"><ele>958.0</ele><time>2026-04-25T09:52:07.633Z</time></trkpt><trkpt lat="46.1825051" lon="11.0207981"><ele>958.0</ele><time>2026-04-25T09:52:08.66Z</time></trkpt><trkpt lat="46.182614" lon="11.0208219"><ele>958.0</ele><time>2026-04-25T09:52:09.677Z</time></trkpt><trkpt lat="46.1827238" lon="11.020805"><ele>960.25</ele><time>2026-04-25T09:52:10.661Z</time></trkpt><trkpt lat="46.1828328" lon="11.0207379"><ele>962.5</ele><time>2026-04-25T09:52:11.662Z</time></trkpt><trkpt lat="46.1829494" lon="11.0206568"><ele>964.75</ele><time>2026-04-25T09:52:12.633Z</time></trkpt><trkpt lat="46.1830632" lon="11.0205776"><ele>967.0</ele><time>2026-04-25T09:52:13.642Z</time></trkpt><trkpt lat="46.1831602" lon="11.0205078"><ele>966.4999999999999</ele><time>2026-04-25T09:52:14.633Z</time></trkpt><trkpt lat="46.1832457" lon="11.0204396"><ele>966.0</ele><time>2026-04-25T09:52:15.676Z</time></trkpt><trkpt lat="46.1833027" lon="11.0203639"><ele>965.5</ele><time>2026-04-25T09:52:16.634Z</time></trkpt><trkpt lat="46.1833323" lon="11.0202662"><ele>965.0</ele><time>2026-04-25T09:52:17.634Z</time></trkpt><trkpt lat="46.1833311" lon="11.0201393"><ele>964.4999999999999</ele><time>2026-04-25T09:52:18.663Z</time></trkpt><trkpt lat="46.1832921" lon="11.0200237"><ele>964.0</ele><time>2026-04-25T09:52:19.648Z</time></trkpt><trkpt lat="46.1832106" lon="11.0199372"><ele>971.0</ele><time>2026-04-25T09:52:20.667Z</time></trkpt><trkpt lat="46.1831003" lon="11.0198745"><ele>978.0</ele><time>2026-04-25T09:52:21.651Z</time></trkpt><trkpt lat="46.1829814" lon="11.0198244"><ele>985.0</ele><time>2026-04-25T09:52:22.63Z</time></trkpt><trkpt lat="46.1828467" lon="11.0197635"><ele>992.0</ele><time>2026-04-25T09:52:23.658Z</time></trkpt><trkpt lat="46.1827012" lon="11.0196918"><ele>992.0</ele><time>2026-04-25T09:52:24.665Z</time></trkpt><trkpt lat="46.1825414" lon="11.0196205"><ele>992.0</ele><time>2026-04-25T09:52:25.66Z</time></trkpt><trkpt lat="46.1823576" lon="11.0195427"><ele>992.0</ele><time>2026-04-25T09:52:26.656Z</time></trkpt><trkpt lat="46.1821577" lon="11.0194467"><ele>993.0</ele><time>2026-04-25T09:52:27.669Z</time></trkpt><trkpt lat="46.1819577" lon="11.0193538"><ele>994.0</ele><time>2026-04-25T09:52:28.641Z</time></trkpt><trkpt lat="46.1817419" lon="11.0192684"><ele>995.0</ele><time>2026-04-25T09:52:29.655Z</time></trkpt><trkpt lat="46.181518" lon="11.0192171"><ele>996.3333333333334</ele><time>2026-04-25T09:52:30.672Z</time></trkpt><trkpt lat="46.1813056" lon="11.0191938"><ele>997.6666666666667</ele><time>2026-04-25T09:52:31.636Z</time></trkpt><trkpt lat="46.1810745" lon="11.0191702"><ele>999.0</ele><time>2026-04-25T09:52:32.674Z</time></trkpt><trkpt lat="46.1808507" lon="11.0191496"><ele>1014.0</ele><time>2026-04-25T09:52:33.673Z</time></trkpt><trkpt lat="46.1806398" lon="11.0191283"><ele>1029.0</ele><time>2026-04-25T09:52:34.621Z</time></trkpt><trkpt lat="46.180409" lon="11.019111"><ele>1044.0</ele><time>2026-04-25T09:52:35.648Z</time></trkpt><trkpt lat="46.1801945" lon="11.0190975"><ele>1044.0</ele><time>2026-04-25T09:52:36.661Z</time></trkpt><trkpt lat="46.1800021" lon="11.0190819"><ele>1044.0</ele><time>2026-04-25T09:52:37.66Z</time></trkpt><trkpt lat="46.1798251" lon="11.0190691"><ele>1044.0</ele><time>2026-04-25T09:52:38.666Z</time></trkpt><trkpt lat="46.1796619" lon="11.0190618"><ele>1042.6666666666667</ele><time>2026-04-25T09:52:39.67Z</time></trkpt><trkpt lat="46.1795093" lon="11.0190507"><ele>1041.3333333333335</ele><time>2026-04-25T09:52:40.653Z</time></trkpt><trkpt lat="46.179354" lon="11.0190253"><ele>1040.0</ele><time>2026-04-25T09:52:41.659Z</time></trkpt><trkpt lat="46.1792105" lon="11.01898"><ele>1040.0</ele><time>2026-04-25T09:52:42.631Z</time></trkpt><trkpt lat="46.1790745" lon="11.0188998"><ele>1040.0</ele><time>2026-04-25T09:52:43.673Z</time></trkpt><trkpt lat="46.1789491" lon="11.0187907"><ele>1040.0</ele><time>2026-04-25T09:52:44.666Z</time></trkpt><trkpt lat="46.1788259" lon="11.0186727"><ele>1040.0</ele><time>2026-04-25T09:52:45.655Z</time></trkpt><trkpt lat="46.1787075" lon="11.0185645"><ele>1043.25</ele><time>2026-04-25T09:52:46.664Z</time></trkpt><trkpt lat="46.1786044" lon="11.0184654"><ele>1046.5</ele><time>2026-04-25T09:52:47.653Z</time></trkpt><trkpt lat="46.1785012" lon="11.0183765"><ele>1049.75</ele><time>2026-04-25T09:52:48.669Z</time></trkpt><trkpt lat="46.1784" lon="11.0183092"><ele>1053.0</ele><time>2026-04-25T09:52:49.677Z</time></trkpt><trkpt lat="46.1782964" lon="11.018247"><ele>1045.0</ele><time>2026-04-25T09:52:50.647Z</time></trkpt><trkpt lat="46.1781848" lon="11.0181966"><ele>1037.0</ele><time>2026-04-25T09:52:51.664Z</time></trkpt><trkpt lat="46.1780766" lon="11.0181487"><ele>1029.0</ele><time>2026-04-25T09:52:52.634Z</time></trkpt><trkpt lat="46.1779639" lon="11.0181019"><ele>1021.0</ele><time>2026-04-25T09:52:53.652Z</time></trkpt><trkpt lat="46.1778609" lon="11.0180597"><ele>1021.0</ele><time>2026-04-25T09:52:54.66Z</time></trkpt><trkpt lat="46.17777" lon="11.0180213"><ele>1020.9999999999999</ele><time>2026-04-25T09:52:55.666Z</time></trkpt><trkpt lat="46.1776836" lon="11.0179687"><ele>1020.9999999999999</ele><time>2026-04-25T09:52:56.631Z</time></trkpt><trkpt lat="46.177599" lon="11.0178937"><ele>1021.0</ele><time>2026-04-25T09:52:57.647Z</time></trkpt><trkpt lat="46.177525" lon="11.0177854"><ele>1021.0</ele><time>2026-04-25T09:52:58.656Z</time></trkpt><trkpt lat="46.1774692" lon="11.0176552"><ele>1021.0</ele><time>2026-04-25T09:52:59.66Z</time></trkpt><trkpt lat="46.1774362" lon="11.0175095"><ele>1021.0</ele><time>2026-04-25T09:53:00.668Z</time></trkpt><trkpt lat="46.1774227" lon="11.0173537"><ele>1021.0</ele><time>2026-04-25T09:53:01.671Z</time></trkpt><trkpt lat="46.1774263" lon="11.0171915"><ele>1021.0</ele><time>2026-04-25T09:53:02.657Z</time></trkpt><trkpt lat="46.1774293" lon="11.0170122"><ele>1021.25</ele><time>2026-04-25T09:53:03.643Z</time></trkpt><trkpt lat="46.1774283" lon="11.0168332"><ele>1021.5</ele><time>2026-04-25T09:53:04.672Z</time></trkpt><trkpt lat="46.1774118" lon="11.0166667"><ele>1021.75</ele><time>2026-04-25T09:53:05.652Z</time></trkpt><trkpt lat="46.1773772" lon="11.0165115"><ele>1022.0</ele><time>2026-04-25T09:53:06.635Z</time></trkpt><trkpt lat="46.1773276" lon="11.0163583"><ele>1022.5</ele><time>2026-04-25T09:53:07.665Z</time></trkpt><trkpt lat="46.1772678" lon="11.0162033"><ele>1023.0</ele><time>2026-04-25T09:53:08.656Z</time></trkpt><trkpt lat="46.1772057" lon="11.0160378"><ele>1023.5</ele><time>2026-04-25T09:53:09.638Z</time></trkpt><trkpt lat="46.177138" lon="11.0158542"><ele>1024.0</ele><time>2026-04-25T09:53:10.634Z</time></trkpt><trkpt lat="46.1770648" lon="11.0156657"><ele>1024.0</ele><time>2026-04-25T09:53:11.639Z</time></trkpt><trkpt lat="46.1769934" lon="11.0154781"><ele>1024.0</ele><time>2026-04-25T09:53:12.635Z</time></trkpt><trkpt lat="46.1769157" lon="11.0152832"><ele>1024.0</ele><time>2026-04-25T09:53:13.669Z</time></trkpt><trkpt lat="46.1768481" lon="11.0151061"><ele>1024.0</ele><time>2026-04-25T09:53:14.654Z</time></trkpt><trkpt lat="46.1767817" lon="11.0149411"><ele>1021.5</ele><time>2026-04-25T09:53:15.636Z</time></trkpt><trkpt lat="46.1767181" lon="11.0147877"><ele>1019.0</ele><time>2026-04-25T09:53:16.63Z</time></trkpt><trkpt lat="46.1766499" lon="11.0146304"><ele>1016.5</ele><time>2026-04-25T09:53:17.653Z</time></trkpt><trkpt lat="46.1765747" lon="11.0144894"><ele>1014.0</ele><time>2026-04-25T09:53:18.639Z</time></trkpt><trkpt lat="46.1764825" lon="11.0143581"><ele>1017.3333333333333</ele><time>2026-04-25T09:53:19.639Z</time></trkpt><trkpt lat="46.1763634" lon="11.014238"><ele>1020.6666666666666</ele><time>2026-04-25T09:53:20.643Z</time></trkpt><trkpt lat="46.176228" lon="11.0141181"><ele>1024.0</ele><time>2026-04-25T09:53:21.65Z</time></trkpt><trkpt lat="46.1760788" lon="11.0139939"><ele>1024.0</ele><time>2026-04-25T09:53:22.662Z</time></trkpt><trkpt lat="46.175926" lon="11.0138662"><ele>1024.0</ele><time>2026-04-25T09:53:23.642Z</time></trkpt><trkpt lat="46.1757682" lon="11.0137352"><ele>1024.0</ele><time>2026-04-25T09:53:24.63Z</time></trkpt><trkpt lat="46.1755831" lon="11.0135928"><ele>1024.0</ele><time>2026-04-25T09:53:25.691Z</time></trkpt><trkpt lat="46.1754038" lon="11.0134521"><ele>1024.0</ele><time>2026-04-25T09:53:26.656Z</time></trkpt><trkpt lat="46.175226" lon="11.0132743"><ele>1024.0</ele><time>2026-04-25T09:53:27.651Z</time></trkpt><trkpt lat="46.1750569" lon="11.0130526"><ele>1024.0</ele><time>2026-04-25T09:53:28.654Z</time></trkpt><trkpt lat="46.1748966" lon="11.0127979"><ele>1024.0</ele><time>2026-04-25T09:53:29.666Z</time></trkpt><trkpt lat="46.1747356" lon="11.0125387"><ele>1026.0</ele><time>2026-04-25T09:53:30.662Z</time></trkpt><trkpt lat="46.1745681" lon="11.012277"><ele>1028.0</ele><time>2026-04-25T09:53:31.676Z</time></trkpt><trkpt lat="46.1744055" lon="11.0120285"><ele>1028.0</ele><time>2026-04-25T09:53:32.656Z</time></trkpt><trkpt lat="46.1742323" lon="11.0117771"><ele>1028.0</ele><time>2026-04-25T09:53:33.66Z</time></trkpt><trkpt lat="46.1740716" lon="11.0115427"><ele>1028.6666666666667</ele><time>2026-04-25T09:53:34.661Z</time></trkpt><trkpt lat="46.1739119" lon="11.0113225"><ele>1029.3333333333333</ele><time>2026-04-25T09:53:35.676Z</time></trkpt><trkpt lat="46.1737689" lon="11.0111224"><ele>1030.0</ele><time>2026-04-25T09:53:36.641Z</time></trkpt><trkpt lat="46.1736272" lon="11.010921"><ele>1029.6666666666665</ele><time>2026-04-25T09:53:37.668Z</time></trkpt><trkpt lat="46.1734992" lon="11.01073"><ele>1029.3333333333333</ele><time>2026-04-25T09:53:38.67Z</time></trkpt><trkpt lat="46.1733808" lon="11.0105331"><ele>1029.0</ele><time>2026-04-25T09:53:39.675Z</time></trkpt><trkpt lat="46.1732702" lon="11.0103312"><ele>1028.6666666666667</ele><time>2026-04-25T09:53:40.668Z</time></trkpt><trkpt lat="46.1731645" lon="11.0101238"><ele>1028.3333333333335</ele><time>2026-04-25T09:53:41.669Z</time></trkpt><trkpt lat="46.1730685" lon="11.009917"><ele>1028.0</ele><time>2026-04-25T09:53:42.68Z</time></trkpt><trkpt lat="46.1729753" lon="11.0097239"><ele>1028.0</ele><time>2026-04-25T09:53:43.657Z</time></trkpt><trkpt lat="46.1728847" lon="11.0095373"><ele>1028.0</ele><time>2026-04-25T09:53:44.641Z</time></trkpt><trkpt lat="46.1727911" lon="11.0093498"><ele>1028.0</ele><time>2026-04-25T09:53:45.655Z</time></trkpt><trkpt lat="46.1726999" lon="11.0091765"><ele>1027.75</ele><time>2026-04-25T09:53:46.638Z</time></trkpt><trkpt lat="46.172601" lon="11.0090171"><ele>1027.5</ele><time>2026-04-25T09:53:47.662Z</time></trkpt><trkpt lat="46.1724909" lon="11.0088852"><ele>1027.25</ele><time>2026-04-25T09:53:48.665Z</time></trkpt><trkpt lat="46.1723743" lon="11.0087808"><ele>1027.0</ele><time>2026-04-25T09:53:49.641Z</time></trkpt><trkpt lat="46.1722551" lon="11.0086868"><ele>1027.0</ele><time>2026-04-25T09:53:50.666Z</time></trkpt><trkpt lat="46.172136" lon="11.0086059"><ele>1027.0</ele><time>2026-04-25T09:53:51.669Z</time></trkpt><trkpt lat="46.1720211" lon="11.0085259"><ele>1027.0</ele><time>2026-04-25T09:53:52.672Z</time></trkpt><trkpt lat="46.1719041" lon="11.0084541"><ele>1027.0</ele><time>2026-04-25T09:53:53.636Z</time></trkpt><trkpt lat="46.1717853" lon="11.0083738"><ele>1025.25</ele><time>2026-04-25T09:53:54.635Z</time></trkpt><trkpt lat="46.1716585" lon="11.0082858"><ele>1023.5</ele><time>2026-04-25T09:53:55.674Z</time></trkpt><trkpt lat="46.1715389" lon="11.008202"><ele>1021.75</ele><time>2026-04-25T09:53:56.664Z</time></trkpt><trkpt lat="46.1714232" lon="11.0081226"><ele>1020.0</ele><time>2026-04-25T09:53:57.643Z</time></trkpt><trkpt lat="46.1713081" lon="11.0080422"><ele>1020.0</ele><time>2026-04-25T09:53:58.636Z</time></trkpt><trkpt lat="46.1711942" lon="11.00796"><ele>1020.0</ele><time>2026-04-25T09:53:59.628Z</time></trkpt><trkpt lat="46.1710703" lon="11.0078593"><ele>1020.0</ele><time>2026-04-25T09:54:00.67Z</time></trkpt><trkpt lat="46.1709553" lon="11.0077524"><ele>1020.0</ele><time>2026-04-25T09:54:01.675Z</time></trkpt><trkpt lat="46.170851" lon="11.0076555"><ele>1020.0</ele><time>2026-04-25T09:54:02.627Z</time></trkpt><trkpt lat="46.1707461" lon="11.0075544"><ele>1020.0</ele><time>2026-04-25T09:54:03.645Z</time></trkpt><trkpt lat="46.1706504" lon="11.0074569"><ele>1020.0</ele><time>2026-04-25T09:54:04.64Z</time></trkpt><trkpt lat="46.1705425" lon="11.007349"><ele>1020.0</ele><time>2026-04-25T09:54:05.683Z</time></trkpt><trkpt lat="46.1704446" lon="11.0072543"><ele>1020.25</ele><time>2026-04-25T09:54:06.627Z</time></trkpt><trkpt lat="46.1703462" lon="11.0071589"><ele>1020.5</ele><time>2026-04-25T09:54:07.653Z</time></trkpt><trkpt lat="46.1702497" lon="11.0070636"><ele>1020.75</ele><time>2026-04-25T09:54:08.631Z</time></trkpt><trkpt lat="46.1701482" lon="11.0069636"><ele>1021.0</ele><time>2026-04-25T09:54:09.631Z</time></trkpt><trkpt lat="46.1700467" lon="11.0068626"><ele>1021.0</ele><time>2026-04-25T09:54:10.629Z</time></trkpt><trkpt lat="46.1699444" lon="11.0067598"><ele>1021.0</ele><time>2026-04-25T09:54:11.632Z</time></trkpt><trkpt lat="46.1698434" lon="11.0066577"><ele>1021.0</ele><time>2026-04-25T09:54:12.666Z</time></trkpt><trkpt lat="46.1697483" lon="11.0065639"><ele>1021.0</ele><time>2026-04-25T09:54:13.667Z</time></trkpt><trkpt lat="46.1696557" lon="11.0064618"><ele>1020.5999999999999</ele><time>2026-04-25T09:54:14.677Z</time></trkpt><trkpt lat="46.1695719" lon="11.006363"><ele>1020.1999999999999</ele><time>2026-04-25T09:54:15.668Z</time></trkpt><trkpt lat="46.1694859" lon="11.0062706"><ele>1019.8000000000001</ele><time>2026-04-25T09:54:16.643Z</time></trkpt><trkpt lat="46.1693977" lon="11.0061803"><ele>1019.4000000000001</ele><time>2026-04-25T09:54:17.665Z</time></trkpt><trkpt lat="46.1693045" lon="11.0060897"><ele>1019.0</ele><time>2026-04-25T09:54:18.666Z</time></trkpt><trkpt lat="46.1692036" lon="11.0059973"><ele>1019.0</ele><time>2026-04-25T09:54:19.668Z</time></trkpt><trkpt lat="46.1691044" lon="11.005904"><ele>1019.0</ele><time>2026-04-25T09:54:20.643Z</time></trkpt><trkpt lat="46.1690041" lon="11.0058176"><ele>1019.0</ele><time>2026-04-25T09:54:21.677Z</time></trkpt><trkpt lat="46.1689102" lon="11.0057334"><ele>1019.0</ele><time>2026-04-25T09:54:22.671Z</time></trkpt><trkpt lat="46.1688248" lon="11.0056477"><ele>1017.3333333333334</ele><time>2026-04-25T09:54:23.673Z</time></trkpt><trkpt lat="46.1687446" lon="11.0055676"><ele>1015.6666666666667</ele><time>2026-04-25T09:54:24.647Z</time></trkpt><trkpt lat="46.1686671" lon="11.0054937"><ele>1014.0</ele><time>2026-04-25T09:54:25.666Z</time></trkpt><trkpt lat="46.1686033" lon="11.0054319"><ele>1012.3333333333333</ele><time>2026-04-25T09:54:26.656Z</time></trkpt><trkpt lat="46.1685479" lon="11.0053737"><ele>1010.6666666666666</ele><time>2026-04-25T09:54:27.67Z</time></trkpt><trkpt lat="46.168467" lon="11.0052896"><ele>1009.0</ele><time>2026-04-25T09:54:29.632Z</time></trkpt><trkpt lat="46.1684015" lon="11.0052202"><ele>1008.9999999999999</ele><time>2026-04-25T09:54:31.632Z</time></trkpt><trkpt lat="46.1683201" lon="11.0051313"><ele>1009.0</ele><time>2026-04-25T09:54:33.635Z</time></trkpt><trkpt lat="46.1682638" lon="11.0050735"><ele>1009.0</ele><time>2026-04-25T09:54:34.645Z</time></trkpt><trkpt lat="46.1681979" lon="11.0050098"><ele>1009.0</ele><time>2026-04-25T09:54:35.649Z</time></trkpt><trkpt lat="46.1681237" lon="11.0049356"><ele>1008.9999999999999</ele><time>2026-04-25T09:54:36.65Z</time></trkpt><trkpt lat="46.168042" lon="11.0048503"><ele>1009.0</ele><time>2026-04-25T09:54:37.665Z</time></trkpt><trkpt lat="46.1679575" lon="11.00476"><ele>1009.8000000000001</ele><time>2026-04-25T09:54:38.676Z</time></trkpt><trkpt lat="46.16787" lon="11.0046725"><ele>1010.6000000000001</ele><time>2026-04-25T09:54:39.663Z</time></trkpt><trkpt lat="46.1677789" lon="11.0045828"><ele>1011.4</ele><time>2026-04-25T09:54:40.643Z</time></trkpt><trkpt lat="46.1676829" lon="11.004487"><ele>1012.2</ele><time>2026-04-25T09:54:41.65Z</time></trkpt><trkpt lat="46.1675902" lon="11.0043954"><ele>1013.0</ele><time>2026-04-25T09:54:42.665Z</time></trkpt><trkpt lat="46.1674989" lon="11.0043058"><ele>1013.0</ele><time>2026-04-25T09:54:43.664Z</time></trkpt><trkpt lat="46.1674097" lon="11.0042175"><ele>1013.0</ele><time>2026-04-25T09:54:44.665Z</time></trkpt><trkpt lat="46.1673193" lon="11.0041317"><ele>1013.0</ele><time>2026-04-25T09:54:45.672Z</time></trkpt><trkpt lat="46.1672357" lon="11.0040529"><ele>1013.0</ele><time>2026-04-25T09:54:46.632Z</time></trkpt><trkpt lat="46.167148" lon="11.0039696"><ele>1013.0</ele><time>2026-04-25T09:54:47.654Z</time></trkpt><trkpt lat="46.1670577" lon="11.0038924"><ele>1013.4</ele><time>2026-04-25T09:54:48.654Z</time></trkpt><trkpt lat="46.1669624" lon="11.0038165"><ele>1013.8</ele><time>2026-04-25T09:54:49.636Z</time></trkpt><trkpt lat="46.1668574" lon="11.0037364"><ele>1014.2</ele><time>2026-04-25T09:54:50.674Z</time></trkpt><trkpt lat="46.1667648" lon="11.0036632"><ele>1014.6</ele><time>2026-04-25T09:54:51.638Z</time></trkpt><trkpt lat="46.1666746" lon="11.0035917"><ele>1015.0</ele><time>2026-04-25T09:54:52.672Z</time></trkpt><trkpt lat="46.166594" lon="11.0035295"><ele>1015.6666666666666</ele><time>2026-04-25T09:54:53.667Z</time></trkpt><trkpt lat="46.1665137" lon="11.0034697"><ele>1016.3333333333333</ele><time>2026-04-25T09:54:54.674Z</time></trkpt><trkpt lat="46.1664347" lon="11.003413"><ele>1017.0</ele><time>2026-04-25T09:54:55.664Z</time></trkpt><trkpt lat="46.1663614" lon="11.0033559"><ele>1017.6666666666667</ele><time>2026-04-25T09:54:56.634Z</time></trkpt><trkpt lat="46.166284" lon="11.0032956"><ele>1018.3333333333334</ele><time>2026-04-25T09:54:57.64Z</time></trkpt><trkpt lat="46.1662086" lon="11.0032383"><ele>1019.0</ele><time>2026-04-25T09:54:58.635Z</time></trkpt><trkpt lat="46.1661222" lon="11.0031799"><ele>1019.0</ele><time>2026-04-25T09:54:59.681Z</time></trkpt><trkpt lat="46.166028" lon="11.0031337"><ele>1019.0000000000001</ele><time>2026-04-25T09:55:00.67Z</time></trkpt><trkpt lat="46.1659248" lon="11.0031044"><ele>1019.0000000000001</ele><time>2026-04-25T09:55:01.676Z</time></trkpt><trkpt lat="46.1658149" lon="11.0030925"><ele>1019.0</ele><time>2026-04-25T09:55:02.665Z</time></trkpt><trkpt lat="46.1656985" lon="11.0030981"><ele>1019.0</ele><time>2026-04-25T09:55:03.644Z</time></trkpt><trkpt lat="46.1655824" lon="11.003113"><ele>1020.0</ele><time>2026-04-25T09:55:04.656Z</time></trkpt><trkpt lat="46.1654758" lon="11.0031273"><ele>1021.0000000000001</ele><time>2026-04-25T09:55:05.665Z</time></trkpt><trkpt lat="46.1653826" lon="11.003149"><ele>1022.0000000000001</ele><time>2026-04-25T09:55:06.633Z</time></trkpt><trkpt lat="46.1652901" lon="11.0031755"><ele>1023.0</ele><time>2026-04-25T09:55:07.66Z</time></trkpt><trkpt lat="46.1651973" lon="11.0031992"><ele>1024.0</ele><time>2026-04-25T09:55:08.671Z</time></trkpt><trkpt lat="46.1651034" lon="11.0032253"><ele>1024.0</ele><time>2026-04-25T09:55:09.676Z</time></trkpt><trkpt lat="46.1650132" lon="11.0032454"><ele>1024.0</ele><time>2026-04-25T09:55:10.665Z</time></trkpt><trkpt lat="46.164917" lon="11.0032492"><ele>1024.0</ele><time>2026-04-25T09:55:11.67Z</time></trkpt><trkpt lat="46.1648273" lon="11.0032352"><ele>1024.0</ele><time>2026-04-25T09:55:12.643Z</time></trkpt><trkpt lat="46.1647367" lon="11.0031928"><ele>1024.0</ele><time>2026-04-25T09:55:13.672Z</time></trkpt><trkpt lat="46.1646572" lon="11.0031335"><ele>1023.6666666666666</ele><time>2026-04-25T09:55:14.658Z</time></trkpt><trkpt lat="46.1645804" lon="11.0030635"><ele>1023.3333333333333</ele><time>2026-04-25T09:55:15.648Z</time></trkpt><trkpt lat="46.1645192" lon="11.002991"><ele>1023.0</ele><time>2026-04-25T09:55:16.618Z</time></trkpt><trkpt lat="46.1644607" lon="11.002914"><ele>1022.6666666666667</ele><time>2026-04-25T09:55:17.644Z</time></trkpt><trkpt lat="46.164408" lon="11.0028364"><ele>1022.3333333333334</ele><time>2026-04-25T09:55:18.685Z</time></trkpt><trkpt lat="46.164358" lon="11.0027771"><ele>1022.0</ele><time>2026-04-25T09:55:19.661Z</time></trkpt><trkpt lat="46.1642706" lon="11.0026743"><ele>1022.0</ele><time>2026-04-25T09:55:21.64Z</time></trkpt><trkpt lat="46.1641898" lon="11.0025686"><ele>1022.0</ele><time>2026-04-25T09:55:23.623Z</time></trkpt><trkpt lat="46.1641126" lon="11.0024736"><ele>1022.0</ele><time>2026-04-25T09:55:25.62Z</time></trkpt><trkpt lat="46.1640291" lon="11.0023425"><ele>1022.0</ele><time>2026-04-25T09:55:27.638Z</time></trkpt><trkpt lat="46.1639576" lon="11.0022031"><ele>1022.8571428571429</ele><time>2026-04-25T09:55:29.631Z</time></trkpt><trkpt lat="46.1639214" lon="11.002125"><ele>1023.7142857142858</ele><time>2026-04-25T09:55:30.636Z</time></trkpt><trkpt lat="46.1638817" lon="11.0020474"><ele>1024.5714285714284</ele><time>2026-04-25T09:55:31.633Z</time></trkpt><trkpt lat="46.1638385" lon="11.0019573"><ele>1025.4285714285716</ele><time>2026-04-25T09:55:32.64Z</time></trkpt><trkpt lat="46.1637969" lon="11.0018574"><ele>1026.2857142857142</ele><time>2026-04-25T09:55:33.642Z</time></trkpt><trkpt lat="46.1637657" lon="11.0017571"><ele>1027.142857142857</ele><time>2026-04-25T09:55:34.636Z</time></trkpt><trkpt lat="46.1637491" lon="11.0016676"><ele>1028.0</ele><time>2026-04-25T09:55:35.651Z</time></trkpt><trkpt lat="46.163743" lon="11.0015366"><ele>1028.0</ele><time>2026-04-25T09:55:37.663Z</time></trkpt><trkpt lat="46.1637802" lon="11.0014487"><ele>1028.0</ele><time>2026-04-25T09:55:41.651Z</time></trkpt></trkseg><trkseg><trkpt lat="46.1708097" lon="11.0072037"><ele>1007.0</ele><time>2026-04-25T11:29:43.63Z</time></trkpt><trkpt lat="46.1707588" lon="11.0073595"><ele>1007.0</ele><time>2026-04-25T11:31:36.757Z</time></trkpt><trkpt lat="46.1707127" lon="11.0074292"><ele>1007.0</ele><time>2026-04-25T11:31:39.756Z</time></trkpt><trkpt lat="46.1706301" lon="11.0074453"><ele>1007.0</ele><time>2026-04-25T11:31:47.756Z</time></trkpt><trkpt lat="46.170509" lon="11.0073291"><ele>1007.0</ele><time>2026-04-25T11:31:49.745Z</time></trkpt><trkpt lat="46.1704228" lon="11.0072431"><ele>1010.5</ele><time>2026-04-25T11:31:50.763Z</time></trkpt><trkpt lat="46.1703138" lon="11.0071381"><ele>1014.0</ele><time>2026-04-25T11:31:51.772Z</time></trkpt><trkpt lat="46.1701868" lon="11.0070226"><ele>1017.5</ele><time>2026-04-25T11:31:52.76Z</time></trkpt><trkpt lat="46.1700545" lon="11.0068918"><ele>1021.0</ele><time>2026-04-25T11:31:53.75Z</time></trkpt><trkpt lat="46.1699041" lon="11.006742"><ele>1020.5</ele><time>2026-04-25T11:31:54.762Z</time></trkpt><trkpt lat="46.1697699" lon="11.0065975"><ele>1020.0</ele><time>2026-04-25T11:31:55.76Z</time></trkpt><trkpt lat="46.1696496" lon="11.0064695"><ele>1019.5</ele><time>2026-04-25T11:31:56.763Z</time></trkpt><trkpt lat="46.1695468" lon="11.0063528"><ele>1019.0</ele><time>2026-04-25T11:31:57.759Z</time></trkpt><trkpt lat="46.1694415" lon="11.0062371"><ele>1019.0</ele><time>2026-04-25T11:31:58.768Z</time></trkpt><trkpt lat="46.1693391" lon="11.0061289"><ele>1019.0</ele><time>2026-04-25T11:31:59.759Z</time></trkpt><trkpt lat="46.1692124" lon="11.0060168"><ele>1019.0</ele><time>2026-04-25T11:32:00.779Z</time></trkpt><trkpt lat="46.1690986" lon="11.0059139"><ele>1019.0</ele><time>2026-04-25T11:32:01.756Z</time></trkpt><trkpt lat="46.1689888" lon="11.0058151"><ele>1016.5</ele><time>2026-04-25T11:32:02.754Z</time></trkpt><trkpt lat="46.1688785" lon="11.0057245"><ele>1014.0</ele><time>2026-04-25T11:32:03.769Z</time></trkpt><trkpt lat="46.1687768" lon="11.0056311"><ele>1011.5</ele><time>2026-04-25T11:32:04.8Z</time></trkpt><trkpt lat="46.1686865" lon="11.0055397"><ele>1009.0</ele><time>2026-04-25T11:32:05.761Z</time></trkpt><trkpt lat="46.168584" lon="11.0054392"><ele>1009.0</ele><time>2026-04-25T11:32:06.758Z</time></trkpt><trkpt lat="46.1684776" lon="11.0053349"><ele>1009.0</ele><time>2026-04-25T11:32:07.766Z</time></trkpt><trkpt lat="46.168368" lon="11.0052246"><ele>1009.0</ele><time>2026-04-25T11:32:08.77Z</time></trkpt><trkpt lat="46.1682653" lon="11.0051169"><ele>1009.0</ele><time>2026-04-25T11:32:09.765Z</time></trkpt><trkpt lat="46.1681649" lon="11.0050167"><ele>1009.8000000000001</ele><time>2026-04-25T11:32:10.767Z</time></trkpt><trkpt lat="46.1680747" lon="11.0049242"><ele>1010.6000000000001</ele><time>2026-04-25T11:32:11.754Z</time></trkpt><trkpt lat="46.167987" lon="11.0048385"><ele>1011.4</ele><time>2026-04-25T11:32:12.776Z</time></trkpt><trkpt lat="46.1679046" lon="11.0047523"><ele>1012.2</ele><time>2026-04-25T11:32:13.769Z</time></trkpt><trkpt lat="46.1678214" lon="11.0046679"><ele>1013.0</ele><time>2026-04-25T11:32:14.766Z</time></trkpt><trkpt lat="46.1677355" lon="11.0045839"><ele>1013.0</ele><time>2026-04-25T11:32:15.766Z</time></trkpt><trkpt lat="46.1676521" lon="11.0045003"><ele>1013.0</ele><time>2026-04-25T11:32:16.752Z</time></trkpt><trkpt lat="46.1675675" lon="11.0044182"><ele>1013.0</ele><time>2026-04-25T11:32:17.745Z</time></trkpt><trkpt lat="46.1674785" lon="11.0043248"><ele>1013.0</ele><time>2026-04-25T11:32:18.768Z</time></trkpt><trkpt lat="46.1673879" lon="11.0042337"><ele>1013.0</ele><time>2026-04-25T11:32:19.766Z</time></trkpt><trkpt lat="46.1672947" lon="11.004143"><ele>1013.4</ele><time>2026-04-25T11:32:20.771Z</time></trkpt><trkpt lat="46.1671959" lon="11.0040547"><ele>1013.8</ele><time>2026-04-25T11:32:21.761Z</time></trkpt><trkpt lat="46.1670978" lon="11.0039733"><ele>1014.2</ele><time>2026-04-25T11:32:22.745Z</time></trkpt><trkpt lat="46.1670039" lon="11.0038947"><ele>1014.6</ele><time>2026-04-25T11:32:23.763Z</time></trkpt><trkpt lat="46.1669206" lon="11.0038261"><ele>1015.0</ele><time>2026-04-25T11:32:24.758Z</time></trkpt><trkpt lat="46.1668383" lon="11.0037592"><ele>1015.0</ele><time>2026-04-25T11:32:25.766Z</time></trkpt><trkpt lat="46.1667558" lon="11.0036953"><ele>1015.0</ele><time>2026-04-25T11:32:26.752Z</time></trkpt><trkpt lat="46.1666748" lon="11.0036329"><ele>1015.0</ele><time>2026-04-25T11:32:27.762Z</time></trkpt><trkpt lat="46.1665911" lon="11.0035698"><ele>1015.0</ele><time>2026-04-25T11:32:28.77Z</time></trkpt><trkpt lat="46.1665159" lon="11.0035031"><ele>1015.0</ele><time>2026-04-25T11:32:29.774Z</time></trkpt><trkpt lat="46.1664376" lon="11.0034412"><ele>1015.6666666666666</ele><time>2026-04-25T11:32:30.78Z</time></trkpt><trkpt lat="46.1663586" lon="11.0033756"><ele>1016.3333333333333</ele><time>2026-04-25T11:32:31.784Z</time></trkpt><trkpt lat="46.1662787" lon="11.0033169"><ele>1017.0</ele><time>2026-04-25T11:32:32.766Z</time></trkpt><trkpt lat="46.1661972" lon="11.0032606"><ele>1017.6666666666667</ele><time>2026-04-25T11:32:33.764Z</time></trkpt><trkpt lat="46.1661218" lon="11.0032095"><ele>1018.3333333333334</ele><time>2026-04-25T11:32:34.758Z</time></trkpt><trkpt lat="46.1660385" lon="11.0031611"><ele>1019.0</ele><time>2026-04-25T11:32:35.779Z</time></trkpt><trkpt lat="46.1659545" lon="11.0031306"><ele>1019.0</ele><time>2026-04-25T11:32:36.767Z</time></trkpt><trkpt lat="46.1658614" lon="11.0031138"><ele>1019.0000000000001</ele><time>2026-04-25T11:32:37.721Z</time></trkpt><trkpt lat="46.1657518" lon="11.0031146"><ele>1019.0000000000001</ele><time>2026-04-25T11:32:38.751Z</time></trkpt><trkpt lat="46.1656394" lon="11.003129"><ele>1019.0</ele><time>2026-04-25T11:32:39.763Z</time></trkpt><trkpt lat="46.1655323" lon="11.003151"><ele>1019.0</ele><time>2026-04-25T11:32:40.761Z</time></trkpt><trkpt lat="46.1654323" lon="11.003169"><ele>1020.0</ele><time>2026-04-25T11:32:41.759Z</time></trkpt><trkpt lat="46.1653341" lon="11.0031847"><ele>1021.0000000000001</ele><time>2026-04-25T11:32:42.755Z</time></trkpt><trkpt lat="46.1652422" lon="11.0032084"><ele>1022.0000000000001</ele><time>2026-04-25T11:32:43.749Z</time></trkpt><trkpt lat="46.1651419" lon="11.0032325"><ele>1023.0</ele><time>2026-04-25T11:32:44.764Z</time></trkpt><trkpt lat="46.1650379" lon="11.003256"><ele>1024.0</ele><time>2026-04-25T11:32:45.762Z</time></trkpt><trkpt lat="46.1649353" lon="11.0032662"><ele>1023.6</ele><time>2026-04-25T11:32:46.766Z</time></trkpt><trkpt lat="46.164832" lon="11.0032543"><ele>1023.2</ele><time>2026-04-25T11:32:47.77Z</time></trkpt><trkpt lat="46.164733" lon="11.0032152"><ele>1022.8000000000001</ele><time>2026-04-25T11:32:48.747Z</time></trkpt><trkpt lat="46.1646411" lon="11.0031543"><ele>1022.4000000000001</ele><time>2026-04-25T11:32:49.769Z</time></trkpt><trkpt lat="46.1645619" lon="11.0030705"><ele>1022.0</ele><time>2026-04-25T11:32:50.753Z</time></trkpt><trkpt lat="46.1644803" lon="11.0029677"><ele>1022.0</ele><time>2026-04-25T11:32:51.77Z</time></trkpt><trkpt lat="46.1643925" lon="11.0028685"><ele>1022.0</ele><time>2026-04-25T11:32:52.747Z</time></trkpt><trkpt lat="46.1643044" lon="11.00276"><ele>1022.0</ele><time>2026-04-25T11:32:53.761Z</time></trkpt><trkpt lat="46.1642204" lon="11.0026415"><ele>1022.0</ele><time>2026-04-25T11:32:54.77Z</time></trkpt><trkpt lat="46.1641386" lon="11.0025263"><ele>1021.8</ele><time>2026-04-25T11:32:55.785Z</time></trkpt><trkpt lat="46.164066" lon="11.0024154"><ele>1021.6</ele><time>2026-04-25T11:32:56.745Z</time></trkpt><trkpt lat="46.1639961" lon="11.0022958"><ele>1021.3999999999999</ele><time>2026-04-25T11:32:57.767Z</time></trkpt><trkpt lat="46.1639396" lon="11.0021739"><ele>1021.1999999999999</ele><time>2026-04-25T11:32:58.77Z</time></trkpt><trkpt lat="46.1638783" lon="11.002058"><ele>1021.0</ele><time>2026-04-25T11:32:59.759Z</time></trkpt><trkpt lat="46.1638142" lon="11.0019232"><ele>1022.75</ele><time>2026-04-25T11:33:00.793Z</time></trkpt><trkpt lat="46.1637602" lon="11.001802"><ele>1024.5</ele><time>2026-04-25T11:33:01.747Z</time></trkpt><trkpt lat="46.1636886" lon="11.0016216"><ele>1026.25</ele><time>2026-04-25T11:33:03.076Z</time></trkpt><trkpt lat="46.1636013" lon="11.0013627"><ele>1028.0</ele><time>2026-04-25T11:33:04.818Z</time></trkpt><trkpt lat="46.1635531" lon="11.0012236"><ele>1028.0</ele><time>2026-04-25T11:33:05.787Z</time></trkpt><trkpt lat="46.1634951" lon="11.0010794"><ele>1028.0</ele><time>2026-04-25T11:33:06.81Z</time></trkpt><trkpt lat="46.1634317" lon="11.000934"><ele>1028.0</ele><time>2026-04-25T11:33:07.812Z</time></trkpt><trkpt lat="46.1633614" lon="11.0007904"><ele>1028.0</ele><time>2026-04-25T11:33:08.816Z</time></trkpt><trkpt lat="46.1632808" lon="11.0006532"><ele>1025.25</ele><time>2026-04-25T11:33:09.806Z</time></trkpt><trkpt lat="46.1631885" lon="11.0005237"><ele>1022.5</ele><time>2026-04-25T11:33:10.825Z</time></trkpt><trkpt lat="46.163088" lon="11.000408"><ele>1019.75</ele><time>2026-04-25T11:33:11.834Z</time></trkpt><trkpt lat="46.1629812" lon="11.0003076"><ele>1017.0</ele><time>2026-04-25T11:33:12.825Z</time></trkpt><trkpt lat="46.1628634" lon="11.0002193"><ele>1017.0</ele><time>2026-04-25T11:33:13.843Z</time></trkpt><trkpt lat="46.1627447" lon="11.0001419"><ele>1017.0</ele><time>2026-04-25T11:33:14.825Z</time></trkpt><trkpt lat="46.1626186" lon="11.0000694"><ele>1017.0</ele><time>2026-04-25T11:33:15.818Z</time></trkpt><trkpt lat="46.1624887" lon="10.9999942"><ele>1017.0</ele><time>2026-04-25T11:33:16.813Z</time></trkpt><trkpt lat="46.162359" lon="10.9999068"><ele>1018.25</ele><time>2026-04-25T11:33:17.816Z</time></trkpt><trkpt lat="46.1622303" lon="10.999808"><ele>1019.5</ele><time>2026-04-25T11:33:18.824Z</time></trkpt><trkpt lat="46.1621091" lon="10.9996981"><ele>1020.75</ele><time>2026-04-25T11:33:19.793Z</time></trkpt><trkpt lat="46.1619888" lon="10.9995742"><ele>1022.0</ele><time>2026-04-25T11:33:20.798Z</time></trkpt><trkpt lat="46.1618679" lon="10.9994319"><ele>1022.0</ele><time>2026-04-25T11:33:21.843Z</time></trkpt><trkpt lat="46.1617611" lon="10.9992868"><ele>1022.0</ele><time>2026-04-25T11:33:22.816Z</time></trkpt><trkpt lat="46.16166" lon="10.9991304"><ele>1022.0</ele><time>2026-04-25T11:33:23.793Z</time></trkpt><trkpt lat="46.1615599" lon="10.9989589"><ele>1022.5</ele><time>2026-04-25T11:33:24.812Z</time></trkpt><trkpt lat="46.1614676" lon="10.9987779"><ele>1023.0</ele><time>2026-04-25T11:33:25.837Z</time></trkpt><trkpt lat="46.1613874" lon="10.9986052"><ele>1023.5</ele><time>2026-04-25T11:33:26.794Z</time></trkpt><trkpt lat="46.1613141" lon="10.9984194"><ele>1024.0</ele><time>2026-04-25T11:33:27.77Z</time></trkpt><trkpt lat="46.1612433" lon="10.9982412"><ele>1024.0</ele><time>2026-04-25T11:33:28.785Z</time></trkpt><trkpt lat="46.1611838" lon="10.9980892"><ele>1024.0</ele><time>2026-04-25T11:33:29.738Z</time></trkpt><trkpt lat="46.1611125" lon="10.9979371"><ele>1024.0</ele><time>2026-04-25T11:33:30.757Z</time></trkpt><trkpt lat="46.1610347" lon="10.9977925"><ele>1024.0</ele><time>2026-04-25T11:33:31.769Z</time></trkpt><trkpt lat="46.1609524" lon="10.9976562"><ele>1024.0</ele><time>2026-04-25T11:33:32.773Z</time></trkpt><trkpt lat="46.16086" lon="10.9975312"><ele>1024.0</ele><time>2026-04-25T11:33:33.754Z</time></trkpt><trkpt lat="46.160758" lon="10.9974186"><ele>1024.0</ele><time>2026-04-25T11:33:34.766Z</time></trkpt><trkpt lat="46.1606442" lon="10.9973162"><ele>1024.0</ele><time>2026-04-25T11:33:35.756Z</time></trkpt><trkpt lat="46.1605151" lon="10.9972243"><ele>1020.0</ele><time>2026-04-25T11:33:36.772Z</time></trkpt><trkpt lat="46.1603799" lon="10.9971407"><ele>1016.0</ele><time>2026-04-25T11:33:37.751Z</time></trkpt><trkpt lat="46.1602321" lon="10.9970508"><ele>1012.0</ele><time>2026-04-25T11:33:38.774Z</time></trkpt><trkpt lat="46.1600867" lon="10.9969621"><ele>1012.0</ele><time>2026-04-25T11:33:39.759Z</time></trkpt><trkpt lat="46.1599486" lon="10.996876"><ele>1012.0</ele><time>2026-04-25T11:33:40.737Z</time></trkpt><trkpt lat="46.1598029" lon="10.9967889"><ele>1012.0</ele><time>2026-04-25T11:33:41.777Z</time></trkpt><trkpt lat="46.1596648" lon="10.9967028"><ele>1010.5</ele><time>2026-04-25T11:33:42.773Z</time></trkpt><trkpt lat="46.159531" lon="10.9966206"><ele>1009.0</ele><time>2026-04-25T11:33:43.774Z</time></trkpt><trkpt lat="46.1593971" lon="10.996536"><ele>1007.5</ele><time>2026-04-25T11:33:44.773Z</time></trkpt><trkpt lat="46.1592586" lon="10.9964564"><ele>1006.0</ele><time>2026-04-25T11:33:45.804Z</time></trkpt><trkpt lat="46.1591224" lon="10.9964015"><ele>1005.3333333333333</ele><time>2026-04-25T11:33:46.757Z</time></trkpt><trkpt lat="46.1589624" lon="10.9963657"><ele>1004.6666666666667</ele><time>2026-04-25T11:33:47.784Z</time></trkpt><trkpt lat="46.1587961" lon="10.9963459"><ele>1004.0</ele><time>2026-04-25T11:33:48.768Z</time></trkpt><trkpt lat="46.1586166" lon="10.9963205"><ele>1004.0</ele><time>2026-04-25T11:33:49.771Z</time></trkpt><trkpt lat="46.1584337" lon="10.9962848"><ele>1004.0</ele><time>2026-04-25T11:33:50.77Z</time></trkpt><trkpt lat="46.1582615" lon="10.9962276"><ele>1004.0</ele><time>2026-04-25T11:33:51.755Z</time></trkpt><trkpt lat="46.1581044" lon="10.99615"><ele>1004.25</ele><time>2026-04-25T11:33:52.743Z</time></trkpt><trkpt lat="46.1579587" lon="10.9960643"><ele>1004.5</ele><time>2026-04-25T11:33:53.763Z</time></trkpt><trkpt lat="46.1578183" lon="10.9959981"><ele>1004.75</ele><time>2026-04-25T11:33:54.783Z</time></trkpt><trkpt lat="46.1576815" lon="10.995949"><ele>1005.0</ele><time>2026-04-25T11:33:55.758Z</time></trkpt><trkpt lat="46.1575364" lon="10.9959048"><ele>1005.0</ele><time>2026-04-25T11:33:56.764Z</time></trkpt><trkpt lat="46.1573972" lon="10.9958666"><ele>1005.0</ele><time>2026-04-25T11:33:57.762Z</time></trkpt><trkpt lat="46.1572519" lon="10.995821"><ele>1005.0</ele><time>2026-04-25T11:33:58.771Z</time></trkpt><trkpt lat="46.1571147" lon="10.9957594"><ele>1005.0</ele><time>2026-04-25T11:33:59.751Z</time></trkpt><trkpt lat="46.1569859" lon="10.9956661"><ele>1003.5</ele><time>2026-04-25T11:34:00.763Z</time></trkpt><trkpt lat="46.156865" lon="10.9955438"><ele>1002.0</ele><time>2026-04-25T11:34:01.785Z</time></trkpt><trkpt lat="46.1567718" lon="10.9953903"><ele>1000.5</ele><time>2026-04-25T11:34:02.764Z</time></trkpt><trkpt lat="46.1566991" lon="10.9952097"><ele>999.0</ele><time>2026-04-25T11:34:03.73Z</time></trkpt><trkpt lat="46.1566422" lon="10.9949974"><ele>999.0</ele><time>2026-04-25T11:34:04.747Z</time></trkpt><trkpt lat="46.1565986" lon="10.9947744"><ele>999.0</ele><time>2026-04-25T11:34:05.759Z</time></trkpt><trkpt lat="46.1565628" lon="10.9945528"><ele>999.0</ele><time>2026-04-25T11:34:06.751Z</time></trkpt><trkpt lat="46.1565263" lon="10.9943234"><ele>996.6666666666667</ele><time>2026-04-25T11:34:07.771Z</time></trkpt><trkpt lat="46.1564872" lon="10.9940986"><ele>994.3333333333334</ele><time>2026-04-25T11:34:08.766Z</time></trkpt><trkpt lat="46.1564395" lon="10.9938677"><ele>992.0</ele><time>2026-04-25T11:34:09.779Z</time></trkpt><trkpt lat="46.1563912" lon="10.9936402"><ele>992.0</ele><time>2026-04-25T11:34:10.77Z</time></trkpt><trkpt lat="46.1563364" lon="10.9934124"><ele>992.0</ele><time>2026-04-25T11:34:11.774Z</time></trkpt><trkpt lat="46.1562696" lon="10.9931872"><ele>992.0</ele><time>2026-04-25T11:34:12.769Z</time></trkpt><trkpt lat="46.1561896" lon="10.9929611"><ele>992.3333333333334</ele><time>2026-04-25T11:34:13.765Z</time></trkpt><trkpt lat="46.1560945" lon="10.9927392"><ele>992.6666666666667</ele><time>2026-04-25T11:34:14.772Z</time></trkpt><trkpt lat="46.1559939" lon="10.9925283"><ele>993.0</ele><time>2026-04-25T11:34:15.78Z</time></trkpt><trkpt lat="46.1558942" lon="10.9923379"><ele>994.5</ele><time>2026-04-25T11:34:16.775Z</time></trkpt><trkpt lat="46.1558016" lon="10.9921645"><ele>996.0</ele><time>2026-04-25T11:34:17.771Z</time></trkpt><trkpt lat="46.1557094" lon="10.992009"><ele>997.5</ele><time>2026-04-25T11:34:18.75Z</time></trkpt><trkpt lat="46.1556189" lon="10.9918465"><ele>999.0</ele><time>2026-04-25T11:34:19.772Z</time></trkpt><trkpt lat="46.1555426" lon="10.9916827"><ele>999.25</ele><time>2026-04-25T11:34:20.785Z</time></trkpt><trkpt lat="46.1554836" lon="10.9915159"><ele>999.5</ele><time>2026-04-25T11:34:21.763Z</time></trkpt><trkpt lat="46.155426" lon="10.9913282"><ele>999.75</ele><time>2026-04-25T11:34:22.769Z</time></trkpt><trkpt lat="46.1553754" lon="10.991127"><ele>1000.0</ele><time>2026-04-25T11:34:23.762Z</time></trkpt><trkpt lat="46.1553371" lon="10.990896"><ele>999.6666666666666</ele><time>2026-04-25T11:34:24.784Z</time></trkpt><trkpt lat="46.1553101" lon="10.9906664"><ele>999.3333333333333</ele><time>2026-04-25T11:34:25.772Z</time></trkpt><trkpt lat="46.1552749" lon="10.9904355"><ele>999.0</ele><time>2026-04-25T11:34:26.785Z</time></trkpt><trkpt lat="46.155225" lon="10.9902102"><ele>1000.0</ele><time>2026-04-25T11:34:27.759Z</time></trkpt><trkpt lat="46.1551554" lon="10.9899869"><ele>1001.0</ele><time>2026-04-25T11:34:28.763Z</time></trkpt><trkpt lat="46.1550693" lon="10.9897511"><ele>1002.0</ele><time>2026-04-25T11:34:29.797Z</time></trkpt><trkpt lat="46.1549927" lon="10.9895297"><ele>1002.0</ele><time>2026-04-25T11:34:30.744Z</time></trkpt><trkpt lat="46.1549118" lon="10.9892945"><ele>1002.0</ele><time>2026-04-25T11:34:31.776Z</time></trkpt><trkpt lat="46.1548367" lon="10.9890832"><ele>1002.0</ele><time>2026-04-25T11:34:32.767Z</time></trkpt><trkpt lat="46.1547537" lon="10.9888869"><ele>998.3333333333333</ele><time>2026-04-25T11:34:33.767Z</time></trkpt><trkpt lat="46.154663" lon="10.9887161"><ele>994.6666666666666</ele><time>2026-04-25T11:34:34.727Z</time></trkpt><trkpt lat="46.1545521" lon="10.988562"><ele>991.0</ele><time>2026-04-25T11:34:35.72Z</time></trkpt><trkpt lat="46.1544137" lon="10.9884231"><ele>990.0</ele><time>2026-04-25T11:34:36.769Z</time></trkpt><trkpt lat="46.1542681" lon="10.9883181"><ele>989.0</ele><time>2026-04-25T11:34:37.769Z</time></trkpt><trkpt lat="46.1541268" lon="10.9882248"><ele>988.0</ele><time>2026-04-25T11:34:38.759Z</time></trkpt><trkpt lat="46.1539892" lon="10.9881275"><ele>988.0</ele><time>2026-04-25T11:34:39.77Z</time></trkpt><trkpt lat="46.153858" lon="10.9880102"><ele>988.0</ele><time>2026-04-25T11:34:40.766Z</time></trkpt><trkpt lat="46.1537354" lon="10.9878695"><ele>988.0</ele><time>2026-04-25T11:34:41.787Z</time></trkpt><trkpt lat="46.1536141" lon="10.9877227"><ele>988.0</ele><time>2026-04-25T11:34:42.777Z</time></trkpt><trkpt lat="46.1534902" lon="10.98756"><ele>988.0</ele><time>2026-04-25T11:34:43.757Z</time></trkpt><trkpt lat="46.1533664" lon="10.9873797"><ele>988.0</ele><time>2026-04-25T11:34:44.779Z</time></trkpt><trkpt lat="46.1532541" lon="10.9871927"><ele>987.0</ele><time>2026-04-25T11:34:45.763Z</time></trkpt><trkpt lat="46.1531475" lon="10.9869962"><ele>986.0</ele><time>2026-04-25T11:34:46.754Z</time></trkpt><trkpt lat="46.1530446" lon="10.9867817"><ele>985.0</ele><time>2026-04-25T11:34:47.753Z</time></trkpt><trkpt lat="46.152946" lon="10.986558"><ele>989.3333333333333</ele><time>2026-04-25T11:34:48.784Z</time></trkpt><trkpt lat="46.1528541" lon="10.9863555"><ele>993.6666666666667</ele><time>2026-04-25T11:34:49.762Z</time></trkpt><trkpt lat="46.1527708" lon="10.9861527"><ele>998.0</ele><time>2026-04-25T11:34:50.76Z</time></trkpt><trkpt lat="46.1526951" lon="10.9859433"><ele>1001.6666666666667</ele><time>2026-04-25T11:34:51.766Z</time></trkpt><trkpt lat="46.1526444" lon="10.9857227"><ele>1005.3333333333333</ele><time>2026-04-25T11:34:52.775Z</time></trkpt><trkpt lat="46.1526074" lon="10.9855045"><ele>1009.0</ele><time>2026-04-25T11:34:53.733Z</time></trkpt><trkpt lat="46.1525759" lon="10.9852652"><ele>1009.0</ele><time>2026-04-25T11:34:54.758Z</time></trkpt><trkpt lat="46.1525468" lon="10.9850429"><ele>1009.0</ele><time>2026-04-25T11:34:55.77Z</time></trkpt><trkpt lat="46.1525258" lon="10.9848306"><ele>1009.0</ele><time>2026-04-25T11:34:56.775Z</time></trkpt><trkpt lat="46.1525189" lon="10.9846309"><ele>1009.0</ele><time>2026-04-25T11:34:57.77Z</time></trkpt><trkpt lat="46.1525469" lon="10.9844597"><ele>1009.75</ele><time>2026-04-25T11:34:58.769Z</time></trkpt><trkpt lat="46.1526084" lon="10.9843109"><ele>1010.5</ele><time>2026-04-25T11:34:59.76Z</time></trkpt><trkpt lat="46.1526916" lon="10.9841805"><ele>1011.25</ele><time>2026-04-25T11:35:00.76Z</time></trkpt><trkpt lat="46.1527706" lon="10.9840592"><ele>1012.0</ele><time>2026-04-25T11:35:01.754Z</time></trkpt><trkpt lat="46.1528409" lon="10.9839412"><ele>1010.8</ele><time>2026-04-25T11:35:02.762Z</time></trkpt><trkpt lat="46.1528903" lon="10.9838058"><ele>1009.6</ele><time>2026-04-25T11:35:03.769Z</time></trkpt><trkpt lat="46.1529222" lon="10.9836399"><ele>1008.3999999999999</ele><time>2026-04-25T11:35:04.774Z</time></trkpt><trkpt lat="46.1529305" lon="10.9834919"><ele>1007.1999999999999</ele><time>2026-04-25T11:35:05.755Z</time></trkpt><trkpt lat="46.1529265" lon="10.9833407"><ele>1006.0</ele><time>2026-04-25T11:35:06.765Z</time></trkpt><trkpt lat="46.1529118" lon="10.9831696"><ele>1005.75</ele><time>2026-04-25T11:35:07.756Z</time></trkpt><trkpt lat="46.1528778" lon="10.983008"><ele>1005.5</ele><time>2026-04-25T11:35:08.759Z</time></trkpt><trkpt lat="46.1528151" lon="10.9828399"><ele>1005.25</ele><time>2026-04-25T11:35:09.764Z</time></trkpt><trkpt lat="46.1527084" lon="10.9826152"><ele>1005.0</ele><time>2026-04-25T11:35:10.746Z</time></trkpt><trkpt lat="46.152579" lon="10.9823977"><ele>1002.6666666666667</ele><time>2026-04-25T11:35:11.759Z</time></trkpt><trkpt lat="46.1524341" lon="10.9821998"><ele>1000.3333333333334</ele><time>2026-04-25T11:35:12.77Z</time></trkpt><trkpt lat="46.1522889" lon="10.9820188"><ele>998.0</ele><time>2026-04-25T11:35:13.759Z</time></trkpt><trkpt lat="46.1521514" lon="10.9818567"><ele>998.0</ele><time>2026-04-25T11:35:14.744Z</time></trkpt><trkpt lat="46.1520224" lon="10.9816983"><ele>998.0</ele><time>2026-04-25T11:35:15.762Z</time></trkpt><trkpt lat="46.1519075" lon="10.9815425"><ele>998.0</ele><time>2026-04-25T11:35:16.749Z</time></trkpt><trkpt lat="46.1517894" lon="10.9813765"><ele>998.5</ele><time>2026-04-25T11:35:17.774Z</time></trkpt><trkpt lat="46.1516957" lon="10.981265"><ele>999.0</ele><time>2026-04-25T11:35:18.763Z</time></trkpt><trkpt lat="46.1515958" lon="10.981134"><ele>999.5</ele><time>2026-04-25T11:35:19.759Z</time></trkpt><trkpt lat="46.1515072" lon="10.9809983"><ele>1000.0</ele><time>2026-04-25T11:35:20.778Z</time></trkpt><trkpt lat="46.1514249" lon="10.9808709"><ele>997.8</ele><time>2026-04-25T11:35:21.753Z</time></trkpt><trkpt lat="46.151346" lon="10.9807413"><ele>995.6</ele><time>2026-04-25T11:35:22.775Z</time></trkpt><trkpt lat="46.1512717" lon="10.9806228"><ele>993.4000000000001</ele><time>2026-04-25T11:35:23.761Z</time></trkpt><trkpt lat="46.1512038" lon="10.9804991"><ele>991.2</ele><time>2026-04-25T11:35:24.761Z</time></trkpt><trkpt lat="46.1511442" lon="10.9803776"><ele>989.0</ele><time>2026-04-25T11:35:25.779Z</time></trkpt><trkpt lat="46.1510902" lon="10.9802583"><ele>989.0</ele><time>2026-04-25T11:35:26.765Z</time></trkpt><trkpt lat="46.151052" lon="10.9801315"><ele>989.0000000000001</ele><time>2026-04-25T11:35:27.774Z</time></trkpt><trkpt lat="46.1510238" lon="10.980014"><ele>989.0000000000001</ele><time>2026-04-25T11:35:28.769Z</time></trkpt><trkpt lat="46.1509944" lon="10.9799096"><ele>989.0</ele><time>2026-04-25T11:35:29.768Z</time></trkpt><trkpt lat="46.1509569" lon="10.9798354"><ele>989.0</ele><time>2026-04-25T11:35:30.773Z</time></trkpt><trkpt lat="46.1508329" lon="10.9797513"><ele>989.0</ele><time>2026-04-25T11:35:32.773Z</time></trkpt><trkpt lat="46.1507418" lon="10.9797008"><ele>989.0</ele><time>2026-04-25T11:35:33.765Z</time></trkpt><trkpt lat="46.1506322" lon="10.9796257"><ele>989.0</ele><time>2026-04-25T11:35:34.769Z</time></trkpt><trkpt lat="46.1505217" lon="10.9795229"><ele>989.0</ele><time>2026-04-25T11:35:35.776Z</time></trkpt><trkpt lat="46.1504063" lon="10.9793907"><ele>986.3333333333334</ele><time>2026-04-25T11:35:36.793Z</time></trkpt><trkpt lat="46.1502941" lon="10.9792442"><ele>983.6666666666667</ele><time>2026-04-25T11:35:37.765Z</time></trkpt><trkpt lat="46.1501828" lon="10.9790796"><ele>981.0</ele><time>2026-04-25T11:35:38.777Z</time></trkpt><trkpt lat="46.1500755" lon="10.9789088"><ele>979.0</ele><time>2026-04-25T11:35:39.771Z</time></trkpt><trkpt lat="46.1499635" lon="10.9787309"><ele>977.0</ele><time>2026-04-25T11:35:40.778Z</time></trkpt><trkpt lat="46.1498571" lon="10.9785424"><ele>975.0</ele><time>2026-04-25T11:35:41.764Z</time></trkpt><trkpt lat="46.1497565" lon="10.9783508"><ele>971.3333333333333</ele><time>2026-04-25T11:35:42.758Z</time></trkpt><trkpt lat="46.1496475" lon="10.9781657"><ele>967.6666666666666</ele><time>2026-04-25T11:35:43.774Z</time></trkpt><trkpt lat="46.1495449" lon="10.9779976"><ele>964.0</ele><time>2026-04-25T11:35:44.758Z</time></trkpt><trkpt lat="46.1494352" lon="10.9778314"><ele>964.0</ele><time>2026-04-25T11:35:45.775Z</time></trkpt><trkpt lat="46.1493208" lon="10.977683"><ele>964.0</ele><time>2026-04-25T11:35:46.776Z</time></trkpt><trkpt lat="46.1491988" lon="10.9775489"><ele>964.0</ele><time>2026-04-25T11:35:47.766Z</time></trkpt><trkpt lat="46.1490763" lon="10.9774248"><ele>964.0</ele><time>2026-04-25T11:35:48.761Z</time></trkpt><trkpt lat="46.1489439" lon="10.9773036"><ele>964.0</ele><time>2026-04-25T11:35:49.759Z</time></trkpt><trkpt lat="46.1488021" lon="10.9771921"><ele>964.0</ele><time>2026-04-25T11:35:50.752Z</time></trkpt><trkpt lat="46.1486523" lon="10.9770771"><ele>964.0</ele><time>2026-04-25T11:35:51.779Z</time></trkpt><trkpt lat="46.1485028" lon="10.9769801"><ele>964.0</ele><time>2026-04-25T11:35:52.76Z</time></trkpt><trkpt lat="46.1483545" lon="10.9768903"><ele>964.0</ele><time>2026-04-25T11:35:53.767Z</time></trkpt><trkpt lat="46.1482045" lon="10.9768064"><ele>964.0</ele><time>2026-04-25T11:35:54.777Z</time></trkpt><trkpt lat="46.1480618" lon="10.976724"><ele>964.0</ele><time>2026-04-25T11:35:55.768Z</time></trkpt><trkpt lat="46.1479134" lon="10.9766383"><ele>964.0</ele><time>2026-04-25T11:35:56.78Z</time></trkpt><trkpt lat="46.1477715" lon="10.9765454"><ele>961.0</ele><time>2026-04-25T11:35:57.77Z</time></trkpt><trkpt lat="46.1476269" lon="10.9764354"><ele>958.0</ele><time>2026-04-25T11:35:58.777Z</time></trkpt><trkpt lat="46.1474844" lon="10.9763043"><ele>955.0</ele><time>2026-04-25T11:35:59.784Z</time></trkpt><trkpt lat="46.1473549" lon="10.9761523"><ele>952.3333333333333</ele><time>2026-04-25T11:36:00.77Z</time></trkpt><trkpt lat="46.1472267" lon="10.9759833"><ele>949.6666666666667</ele><time>2026-04-25T11:36:01.779Z</time></trkpt><trkpt lat="46.1471047" lon="10.9758317"><ele>947.0</ele><time>2026-04-25T11:36:02.729Z</time></trkpt><trkpt lat="46.1469675" lon="10.9756685"><ele>945.6666666666667</ele><time>2026-04-25T11:36:03.763Z</time></trkpt><trkpt lat="46.1468295" lon="10.9755223"><ele>944.3333333333333</ele><time>2026-04-25T11:36:04.757Z</time></trkpt><trkpt lat="46.1466848" lon="10.9753871"><ele>943.0</ele><time>2026-04-25T11:36:05.764Z</time></trkpt><trkpt lat="46.1465353" lon="10.9752413"><ele>938.3333333333333</ele><time>2026-04-25T11:36:06.784Z</time></trkpt><trkpt lat="46.146393" lon="10.9751051"><ele>933.6666666666667</ele><time>2026-04-25T11:36:07.747Z</time></trkpt><trkpt lat="46.1462479" lon="10.9749648"><ele>929.0</ele><time>2026-04-25T11:36:08.746Z</time></trkpt><trkpt lat="46.1461074" lon="10.9748309"><ele>929.0</ele><time>2026-04-25T11:36:09.75Z</time></trkpt><trkpt lat="46.1459721" lon="10.9747041"><ele>929.0</ele><time>2026-04-25T11:36:10.759Z</time></trkpt><trkpt lat="46.1458522" lon="10.9745635"><ele>929.0</ele><time>2026-04-25T11:36:11.759Z</time></trkpt><trkpt lat="46.1457524" lon="10.9743993"><ele>923.0</ele><time>2026-04-25T11:36:12.77Z</time></trkpt><trkpt lat="46.1456714" lon="10.9742123"><ele>917.0</ele><time>2026-04-25T11:36:13.775Z</time></trkpt><trkpt lat="46.1456189" lon="10.9740099"><ele>911.0</ele><time>2026-04-25T11:36:14.777Z</time></trkpt><trkpt lat="46.1455975" lon="10.9738086"><ele>905.0</ele><time>2026-04-25T11:36:15.781Z</time></trkpt><trkpt lat="46.1456031" lon="10.9736137"><ele>903.5</ele><time>2026-04-25T11:36:16.754Z</time></trkpt><trkpt lat="46.1456299" lon="10.973433"><ele>902.0</ele><time>2026-04-25T11:36:17.776Z</time></trkpt><trkpt lat="46.1456765" lon="10.9732752"><ele>900.5</ele><time>2026-04-25T11:36:18.771Z</time></trkpt><trkpt lat="46.1457342" lon="10.9731281"><ele>899.0</ele><time>2026-04-25T11:36:19.769Z</time></trkpt><trkpt lat="46.1457983" lon="10.9729911"><ele>901.4000000000001</ele><time>2026-04-25T11:36:20.779Z</time></trkpt><trkpt lat="46.1458609" lon="10.9728583"><ele>903.8000000000001</ele><time>2026-04-25T11:36:21.779Z</time></trkpt><trkpt lat="46.1459197" lon="10.9727303"><ele>906.1999999999999</ele><time>2026-04-25T11:36:22.771Z</time></trkpt><trkpt lat="46.145981" lon="10.9725949"><ele>908.5999999999999</ele><time>2026-04-25T11:36:23.762Z</time></trkpt><trkpt lat="46.1460351" lon="10.9724514"><ele>911.0</ele><time>2026-04-25T11:36:24.775Z</time></trkpt><trkpt lat="46.146075" lon="10.9722863"><ele>911.0</ele><time>2026-04-25T11:36:25.771Z</time></trkpt><trkpt lat="46.1460965" lon="10.9721182"><ele>911.0</ele><time>2026-04-25T11:36:26.786Z</time></trkpt><trkpt lat="46.1460931" lon="10.9719482"><ele>911.0</ele><time>2026-04-25T11:36:27.769Z</time></trkpt><trkpt lat="46.1460577" lon="10.9717645"><ele>911.0</ele><time>2026-04-25T11:36:28.765Z</time></trkpt><trkpt lat="46.145993" lon="10.9716009"><ele>910.25</ele><time>2026-04-25T11:36:29.77Z</time></trkpt><trkpt lat="46.1459022" lon="10.971449"><ele>909.5</ele><time>2026-04-25T11:36:30.791Z</time></trkpt><trkpt lat="46.145808" lon="10.9713088"><ele>908.75</ele><time>2026-04-25T11:36:31.766Z</time></trkpt><trkpt lat="46.1457026" lon="10.9711658"><ele>908.0</ele><time>2026-04-25T11:36:32.754Z</time></trkpt><trkpt lat="46.1455945" lon="10.9710103"><ele>904.75</ele><time>2026-04-25T11:36:33.779Z</time></trkpt><trkpt lat="46.1454966" lon="10.9708671"><ele>901.5</ele><time>2026-04-25T11:36:34.75Z</time></trkpt><trkpt lat="46.145389" lon="10.9707111"><ele>898.25</ele><time>2026-04-25T11:36:35.785Z</time></trkpt><trkpt lat="46.1452873" lon="10.970563"><ele>895.0</ele><time>2026-04-25T11:36:36.772Z</time></trkpt><trkpt lat="46.1451809" lon="10.9704128"><ele>895.0</ele><time>2026-04-25T11:36:37.769Z</time></trkpt><trkpt lat="46.1450789" lon="10.9702674"><ele>895.0</ele><time>2026-04-25T11:36:38.758Z</time></trkpt><trkpt lat="46.1449726" lon="10.9701182"><ele>895.0</ele><time>2026-04-25T11:36:39.766Z</time></trkpt><trkpt lat="46.1448699" lon="10.9699707"><ele>895.0</ele><time>2026-04-25T11:36:40.765Z</time></trkpt><trkpt lat="46.1447694" lon="10.9698228"><ele>889.25</ele><time>2026-04-25T11:36:41.766Z</time></trkpt><trkpt lat="46.1446689" lon="10.9696728"><ele>883.5</ele><time>2026-04-25T11:36:42.763Z</time></trkpt><trkpt lat="46.1445715" lon="10.9695291"><ele>877.75</ele><time>2026-04-25T11:36:43.754Z</time></trkpt><trkpt lat="46.1444699" lon="10.9693829"><ele>872.0</ele><time>2026-04-25T11:36:44.777Z</time></trkpt><trkpt lat="46.1443729" lon="10.9692299"><ele>876.5</ele><time>2026-04-25T11:36:45.782Z</time></trkpt><trkpt lat="46.1442781" lon="10.9690819"><ele>881.0</ele><time>2026-04-25T11:36:46.784Z</time></trkpt><trkpt lat="46.1441877" lon="10.9689389"><ele>885.5</ele><time>2026-04-25T11:36:47.771Z</time></trkpt><trkpt lat="46.1440958" lon="10.9687942"><ele>890.0</ele><time>2026-04-25T11:36:48.793Z</time></trkpt><trkpt lat="46.1440066" lon="10.9686484"><ele>886.0</ele><time>2026-04-25T11:36:49.79Z</time></trkpt><trkpt lat="46.143934" lon="10.9684898"><ele>882.0</ele><time>2026-04-25T11:36:50.774Z</time></trkpt><trkpt lat="46.1438785" lon="10.9683099"><ele>878.0</ele><time>2026-04-25T11:36:51.769Z</time></trkpt><trkpt lat="46.1438534" lon="10.9681193"><ele>874.0</ele><time>2026-04-25T11:36:52.774Z</time></trkpt><trkpt lat="46.1438578" lon="10.9679294"><ele>874.0</ele><time>2026-04-25T11:36:53.784Z</time></trkpt><trkpt lat="46.1438755" lon="10.9677706"><ele>874.0</ele><time>2026-04-25T11:36:54.78Z</time></trkpt><trkpt lat="46.1439117" lon="10.967597"><ele>874.0</ele><time>2026-04-25T11:36:55.766Z</time></trkpt><trkpt lat="46.1439497" lon="10.9674274"><ele>874.0</ele><time>2026-04-25T11:36:56.77Z</time></trkpt><trkpt lat="46.1439746" lon="10.9672623"><ele>875.0</ele><time>2026-04-25T11:36:57.772Z</time></trkpt><trkpt lat="46.1440002" lon="10.9670979"><ele>876.0000000000001</ele><time>2026-04-25T11:36:58.774Z</time></trkpt><trkpt lat="46.1440259" lon="10.9669509"><ele>877.0000000000001</ele><time>2026-04-25T11:36:59.758Z</time></trkpt><trkpt lat="46.1440468" lon="10.9667987"><ele>878.0</ele><time>2026-04-25T11:37:00.75Z</time></trkpt><trkpt lat="46.1440681" lon="10.9666473"><ele>879.0</ele><time>2026-04-25T11:37:01.761Z</time></trkpt><trkpt lat="46.1440902" lon="10.9664984"><ele>881.4000000000001</ele><time>2026-04-25T11:37:02.761Z</time></trkpt><trkpt lat="46.14411" lon="10.9663503"><ele>883.8000000000001</ele><time>2026-04-25T11:37:03.742Z</time></trkpt><trkpt lat="46.1441299" lon="10.9661985"><ele>886.1999999999999</ele><time>2026-04-25T11:37:04.769Z</time></trkpt><trkpt lat="46.144154" lon="10.9660516"><ele>888.5999999999999</ele><time>2026-04-25T11:37:05.771Z</time></trkpt><trkpt lat="46.1441754" lon="10.9659129"><ele>891.0</ele><time>2026-04-25T11:37:06.758Z</time></trkpt><trkpt lat="46.1442037" lon="10.9657778"><ele>891.0</ele><time>2026-04-25T11:37:07.774Z</time></trkpt><trkpt lat="46.1442291" lon="10.9656616"><ele>890.9999999999999</ele><time>2026-04-25T11:37:08.749Z</time></trkpt><trkpt lat="46.1442475" lon="10.965561"><ele>890.9999999999999</ele><time>2026-04-25T11:37:09.768Z</time></trkpt><trkpt lat="46.1442642" lon="10.9654706"><ele>891.0</ele><time>2026-04-25T11:37:10.774Z</time></trkpt><trkpt lat="46.1442781" lon="10.9653026"><ele>891.0</ele><time>2026-04-25T11:37:12.782Z</time></trkpt><trkpt lat="46.1442237" lon="10.9651328"><ele>891.0</ele><time>2026-04-25T11:37:14.785Z</time></trkpt><trkpt lat="46.1441769" lon="10.9650422"><ele>891.0</ele><time>2026-04-25T11:37:15.763Z</time></trkpt><trkpt lat="46.144127" lon="10.964941"><ele>891.0</ele><time>2026-04-25T11:37:16.759Z</time></trkpt><trkpt lat="46.1440823" lon="10.9648335"><ele>891.0</ele><time>2026-04-25T11:37:17.766Z</time></trkpt><trkpt lat="46.1440282" lon="10.964735"><ele>891.0</ele><time>2026-04-25T11:37:18.779Z</time></trkpt><trkpt lat="46.1439627" lon="10.9646493"><ele>891.0</ele><time>2026-04-25T11:37:19.771Z</time></trkpt><trkpt lat="46.1438809" lon="10.9645778"><ele>887.25</ele><time>2026-04-25T11:37:20.763Z</time></trkpt><trkpt lat="46.1437799" lon="10.9645195"><ele>883.5</ele><time>2026-04-25T11:37:21.785Z</time></trkpt><trkpt lat="46.1436541" lon="10.9644728"><ele>879.75</ele><time>2026-04-25T11:37:22.774Z</time></trkpt><trkpt lat="46.1435302" lon="10.9644304"><ele>876.0</ele><time>2026-04-25T11:37:23.779Z</time></trkpt><trkpt lat="46.1434037" lon="10.9643875"><ele>876.0</ele><time>2026-04-25T11:37:24.769Z</time></trkpt><trkpt lat="46.14329" lon="10.9643311"><ele>876.0</ele><time>2026-04-25T11:37:25.769Z</time></trkpt><trkpt lat="46.1431774" lon="10.964253"><ele>876.0</ele><time>2026-04-25T11:37:26.78Z</time></trkpt><trkpt lat="46.1430927" lon="10.9641477"><ele>876.0</ele><time>2026-04-25T11:37:27.773Z</time></trkpt><trkpt lat="46.1429743" lon="10.9639494"><ele>872.5</ele><time>2026-04-25T11:37:29.093Z</time></trkpt><trkpt lat="46.1429534" lon="10.9637232"><ele>869.0</ele><time>2026-04-25T11:37:30.82Z</time></trkpt><trkpt lat="46.1429081" lon="10.9635685"><ele>865.5</ele><time>2026-04-25T11:37:31.842Z</time></trkpt><trkpt lat="46.1428604" lon="10.963414"><ele>862.0</ele><time>2026-04-25T11:37:32.818Z</time></trkpt><trkpt lat="46.1428134" lon="10.9632441"><ele>862.0</ele><time>2026-04-25T11:37:33.822Z</time></trkpt><trkpt lat="46.1427633" lon="10.9630738"><ele>862.0</ele><time>2026-04-25T11:37:34.822Z</time></trkpt><trkpt lat="46.1427088" lon="10.9629059"><ele>862.0</ele><time>2026-04-25T11:37:35.814Z</time></trkpt><trkpt lat="46.1426567" lon="10.962738"><ele>862.0</ele><time>2026-04-25T11:37:36.832Z</time></trkpt><trkpt lat="46.1426113" lon="10.9625821"><ele>863.3333333333333</ele><time>2026-04-25T11:37:37.835Z</time></trkpt><trkpt lat="46.1425716" lon="10.9624344"><ele>864.6666666666666</ele><time>2026-04-25T11:37:38.821Z</time></trkpt><trkpt lat="46.1425342" lon="10.9622997"><ele>866.0</ele><time>2026-04-25T11:37:39.833Z</time></trkpt><trkpt lat="46.1424979" lon="10.962187"><ele>867.3333333333333</ele><time>2026-04-25T11:37:40.802Z</time></trkpt><trkpt lat="46.142449" lon="10.9620986"><ele>868.6666666666666</ele><time>2026-04-25T11:37:41.824Z</time></trkpt><trkpt lat="46.1423854" lon="10.9620449"><ele>870.0</ele><time>2026-04-25T11:37:42.845Z</time></trkpt><trkpt lat="46.1423164" lon="10.9620261"><ele>866.1666666666666</ele><time>2026-04-25T11:37:43.817Z</time></trkpt><trkpt lat="46.1422446" lon="10.9620471"><ele>862.3333333333333</ele><time>2026-04-25T11:37:44.805Z</time></trkpt><trkpt lat="46.1421819" lon="10.9621075"><ele>858.5</ele><time>2026-04-25T11:37:45.836Z</time></trkpt><trkpt lat="46.1421435" lon="10.9621982"><ele>854.6666666666666</ele><time>2026-04-25T11:37:46.815Z</time></trkpt><trkpt lat="46.1421321" lon="10.9623105"><ele>850.8333333333333</ele><time>2026-04-25T11:37:47.835Z</time></trkpt><trkpt lat="46.142151" lon="10.962424"><ele>847.0</ele><time>2026-04-25T11:37:48.823Z</time></trkpt><trkpt lat="46.1421927" lon="10.9625346"><ele>846.4000000000001</ele><time>2026-04-25T11:37:49.839Z</time></trkpt><trkpt lat="46.142242" lon="10.9626454"><ele>845.8000000000001</ele><time>2026-04-25T11:37:50.842Z</time></trkpt><trkpt lat="46.1422914" lon="10.9627598"><ele>845.2</ele><time>2026-04-25T11:37:51.821Z</time></trkpt><trkpt lat="46.1423427" lon="10.9628827"><ele>844.6</ele><time>2026-04-25T11:37:52.828Z</time></trkpt><trkpt lat="46.1423902" lon="10.9630114"><ele>844.0</ele><time>2026-04-25T11:37:53.833Z</time></trkpt><trkpt lat="46.1424221" lon="10.9631465"><ele>844.4000000000001</ele><time>2026-04-25T11:37:54.807Z</time></trkpt><trkpt lat="46.1424374" lon="10.9632932"><ele>844.8</ele><time>2026-04-25T11:37:55.854Z</time></trkpt><trkpt lat="46.1424368" lon="10.9634268"><ele>845.2</ele><time>2026-04-25T11:37:56.834Z</time></trkpt><trkpt lat="46.1424198" lon="10.9635549"><ele>845.5999999999999</ele><time>2026-04-25T11:37:57.826Z</time></trkpt><trkpt lat="46.1423873" lon="10.9636693"><ele>846.0</ele><time>2026-04-25T11:37:58.789Z</time></trkpt><trkpt lat="46.1423399" lon="10.9637899"><ele>846.0</ele><time>2026-04-25T11:37:59.824Z</time></trkpt><trkpt lat="46.1422898" lon="10.9639088"><ele>846.0</ele><time>2026-04-25T11:38:00.802Z</time></trkpt><trkpt lat="46.1422358" lon="10.9640458"><ele>846.0</ele><time>2026-04-25T11:38:01.817Z</time></trkpt><trkpt lat="46.1421739" lon="10.9641979"><ele>846.0</ele><time>2026-04-25T11:38:02.828Z</time></trkpt><trkpt lat="46.1421056" lon="10.964356"><ele>847.25</ele><time>2026-04-25T11:38:03.808Z</time></trkpt><trkpt lat="46.1420394" lon="10.9645117"><ele>848.5</ele><time>2026-04-25T11:38:04.801Z</time></trkpt><trkpt lat="46.1419771" lon="10.9646663"><ele>849.75</ele><time>2026-04-25T11:38:05.813Z</time></trkpt><trkpt lat="46.1419152" lon="10.9648167"><ele>851.0</ele><time>2026-04-25T11:38:06.832Z</time></trkpt><trkpt lat="46.1418575" lon="10.9649571"><ele>852.1666666666667</ele><time>2026-04-25T11:38:07.838Z</time></trkpt><trkpt lat="46.1418059" lon="10.9650761"><ele>853.3333333333334</ele><time>2026-04-25T11:38:08.838Z</time></trkpt><trkpt lat="46.1417618" lon="10.9651743"><ele>854.5</ele><time>2026-04-25T11:38:09.797Z</time></trkpt><trkpt lat="46.1417105" lon="10.9652699"><ele>855.6666666666667</ele><time>2026-04-25T11:38:10.818Z</time></trkpt><trkpt lat="46.1416522" lon="10.9653497"><ele>856.8333333333334</ele><time>2026-04-25T11:38:11.803Z</time></trkpt><trkpt lat="46.1415813" lon="10.9654172"><ele>858.0</ele><time>2026-04-25T11:38:12.816Z</time></trkpt><trkpt lat="46.1414975" lon="10.9654774"><ele>855.3333333333334</ele><time>2026-04-25T11:38:13.844Z</time></trkpt><trkpt lat="46.1414132" lon="10.9655317"><ele>852.6666666666667</ele><time>2026-04-25T11:38:14.844Z</time></trkpt><trkpt lat="46.1413297" lon="10.9655814"><ele>850.0</ele><time>2026-04-25T11:38:15.841Z</time></trkpt><trkpt lat="46.1412483" lon="10.9656299"><ele>847.3333333333334</ele><time>2026-04-25T11:38:16.829Z</time></trkpt><trkpt lat="46.1411661" lon="10.9656818"><ele>844.6666666666667</ele><time>2026-04-25T11:38:17.846Z</time></trkpt><trkpt lat="46.141089" lon="10.9657384"><ele>842.0</ele><time>2026-04-25T11:38:18.839Z</time></trkpt><trkpt lat="46.1410175" lon="10.9658022"><ele>841.6666666666667</ele><time>2026-04-25T11:38:19.823Z</time></trkpt><trkpt lat="46.1409514" lon="10.9658806"><ele>841.3333333333334</ele><time>2026-04-25T11:38:20.821Z</time></trkpt><trkpt lat="46.1409015" lon="10.9659793"><ele>841.0</ele><time>2026-04-25T11:38:21.822Z</time></trkpt><trkpt lat="46.1408784" lon="10.9660954"><ele>840.6666666666667</ele><time>2026-04-25T11:38:22.834Z</time></trkpt><trkpt lat="46.1408796" lon="10.9662192"><ele>840.3333333333334</ele><time>2026-04-25T11:38:23.818Z</time></trkpt><trkpt lat="46.1408988" lon="10.9663522"><ele>840.0</ele><time>2026-04-25T11:38:24.814Z</time></trkpt><trkpt lat="46.1409284" lon="10.9664949"><ele>840.0</ele><time>2026-04-25T11:38:25.828Z</time></trkpt><trkpt lat="46.140963" lon="10.9666441"><ele>840.0</ele><time>2026-04-25T11:38:26.84Z</time></trkpt><trkpt lat="46.1410009" lon="10.966795"><ele>840.0</ele><time>2026-04-25T11:38:27.827Z</time></trkpt><trkpt lat="46.1410411" lon="10.9669515"><ele>840.0</ele><time>2026-04-25T11:38:28.829Z</time></trkpt><trkpt lat="46.1410803" lon="10.9671063"><ele>838.6</ele><time>2026-04-25T11:38:29.846Z</time></trkpt><trkpt lat="46.1411203" lon="10.9672516"><ele>837.2</ele><time>2026-04-25T11:38:30.825Z</time></trkpt><trkpt lat="46.1411701" lon="10.9673926"><ele>835.8</ele><time>2026-04-25T11:38:31.835Z</time></trkpt><trkpt lat="46.1412297" lon="10.967513"><ele>834.4</ele><time>2026-04-25T11:38:32.822Z</time></trkpt><trkpt lat="46.1413003" lon="10.9676207"><ele>833.0</ele><time>2026-04-25T11:38:33.854Z</time></trkpt><trkpt lat="46.1413661" lon="10.967722"><ele>831.4</ele><time>2026-04-25T11:38:34.824Z</time></trkpt><trkpt lat="46.1414234" lon="10.9678346"><ele>829.8</ele><time>2026-04-25T11:38:35.817Z</time></trkpt><trkpt lat="46.1414746" lon="10.9679596"><ele>828.2</ele><time>2026-04-25T11:38:36.842Z</time></trkpt><trkpt lat="46.1415096" lon="10.9680894"><ele>826.6</ele><time>2026-04-25T11:38:37.836Z</time></trkpt><trkpt lat="46.1415295" lon="10.9682227"><ele>825.0</ele><time>2026-04-25T11:38:38.819Z</time></trkpt><trkpt lat="46.1415365" lon="10.968365"><ele>825.0</ele><time>2026-04-25T11:38:39.825Z</time></trkpt><trkpt lat="46.1415326" lon="10.9685042"><ele>825.0</ele><time>2026-04-25T11:38:40.799Z</time></trkpt><trkpt lat="46.1415211" lon="10.9686494"><ele>825.0</ele><time>2026-04-25T11:38:41.816Z</time></trkpt><trkpt lat="46.1414944" lon="10.9687877"><ele>825.0</ele><time>2026-04-25T11:38:42.814Z</time></trkpt><trkpt lat="46.1414504" lon="10.9689198"><ele>825.0</ele><time>2026-04-25T11:38:43.821Z</time></trkpt><trkpt lat="46.1413919" lon="10.9690363"><ele>825.0</ele><time>2026-04-25T11:38:44.828Z</time></trkpt><trkpt lat="46.1413249" lon="10.9691413"><ele>825.0</ele><time>2026-04-25T11:38:45.833Z</time></trkpt><trkpt lat="46.1412551" lon="10.9692369"><ele>825.0</ele><time>2026-04-25T11:38:46.818Z</time></trkpt><trkpt lat="46.1411782" lon="10.9693312"><ele>825.0</ele><time>2026-04-25T11:38:47.841Z</time></trkpt><trkpt lat="46.1411016" lon="10.9694142"><ele>825.0</ele><time>2026-04-25T11:38:48.807Z</time></trkpt><trkpt lat="46.1410166" lon="10.9694922"><ele>825.6</ele><time>2026-04-25T11:38:49.814Z</time></trkpt><trkpt lat="46.1409112" lon="10.9695435"><ele>826.2</ele><time>2026-04-25T11:38:50.826Z</time></trkpt><trkpt lat="46.1408103" lon="10.9695917"><ele>826.8</ele><time>2026-04-25T11:38:51.814Z</time></trkpt><trkpt lat="46.1407044" lon="10.9696391"><ele>827.4</ele><time>2026-04-25T11:38:52.826Z</time></trkpt><trkpt lat="46.1405974" lon="10.9696929"><ele>828.0</ele><time>2026-04-25T11:38:53.837Z</time></trkpt><trkpt lat="46.1404903" lon="10.9697416"><ele>828.0</ele><time>2026-04-25T11:38:54.811Z</time></trkpt><trkpt lat="46.1403792" lon="10.9697954"><ele>828.0</ele><time>2026-04-25T11:38:55.829Z</time></trkpt><trkpt lat="46.1402752" lon="10.9698643"><ele>828.0</ele><time>2026-04-25T11:38:56.838Z</time></trkpt><trkpt lat="46.1401803" lon="10.9699511"><ele>828.0</ele><time>2026-04-25T11:38:57.833Z</time></trkpt><trkpt lat="46.1400903" lon="10.970043"><ele>831.0</ele><time>2026-04-25T11:38:58.839Z</time></trkpt><trkpt lat="46.139996" lon="10.9701257"><ele>834.0</ele><time>2026-04-25T11:38:59.84Z</time></trkpt><trkpt lat="46.139897" lon="10.9701993"><ele>837.0</ele><time>2026-04-25T11:39:00.837Z</time></trkpt><trkpt lat="46.1397987" lon="10.9702691"><ele>840.0</ele><time>2026-04-25T11:39:01.826Z</time></trkpt><trkpt lat="46.1397015" lon="10.9703368"><ele>843.0</ele><time>2026-04-25T11:39:02.822Z</time></trkpt><trkpt lat="46.1396068" lon="10.9704038"><ele>843.0</ele><time>2026-04-25T11:39:03.811Z</time></trkpt><trkpt lat="46.1395104" lon="10.9704721"><ele>843.0</ele><time>2026-04-25T11:39:04.825Z</time></trkpt><trkpt lat="46.1394162" lon="10.9705423"><ele>843.0</ele><time>2026-04-25T11:39:05.834Z</time></trkpt><trkpt lat="46.1393227" lon="10.970607"><ele>843.0</ele><time>2026-04-25T11:39:06.832Z</time></trkpt><trkpt lat="46.13923" lon="10.9706692"><ele>843.0</ele><time>2026-04-25T11:39:07.826Z</time></trkpt><trkpt lat="46.1391338" lon="10.970742"><ele>842.0</ele><time>2026-04-25T11:39:08.829Z</time></trkpt><trkpt lat="46.1390351" lon="10.9708168"><ele>841.0</ele><time>2026-04-25T11:39:09.843Z</time></trkpt><trkpt lat="46.138938" lon="10.9708888"><ele>840.0</ele><time>2026-04-25T11:39:10.814Z</time></trkpt><trkpt lat="46.1388333" lon="10.9709593"><ele>839.0</ele><time>2026-04-25T11:39:11.839Z</time></trkpt><trkpt lat="46.1387313" lon="10.9710036"><ele>838.0</ele><time>2026-04-25T11:39:12.801Z</time></trkpt><trkpt lat="46.1386165" lon="10.9710241"><ele>849.0</ele><time>2026-04-25T11:39:13.835Z</time></trkpt><trkpt lat="46.1385041" lon="10.9710144"><ele>860.0</ele><time>2026-04-25T11:39:14.831Z</time></trkpt><trkpt lat="46.1383923" lon="10.9709821"><ele>871.0</ele><time>2026-04-25T11:39:15.835Z</time></trkpt><trkpt lat="46.1382833" lon="10.9709331"><ele>882.0</ele><time>2026-04-25T11:39:16.84Z</time></trkpt><trkpt lat="46.1381778" lon="10.970879"><ele>874.25</ele><time>2026-04-25T11:39:17.826Z</time></trkpt><trkpt lat="46.1380682" lon="10.970831"><ele>866.5</ele><time>2026-04-25T11:39:18.842Z</time></trkpt><trkpt lat="46.1379626" lon="10.970798"><ele>858.75</ele><time>2026-04-25T11:39:19.811Z</time></trkpt><trkpt lat="46.1378475" lon="10.970779"><ele>851.0</ele><time>2026-04-25T11:39:20.816Z</time></trkpt><trkpt lat="46.1377294" lon="10.9707718"><ele>851.0</ele><time>2026-04-25T11:39:21.834Z</time></trkpt><trkpt lat="46.1376145" lon="10.9707705"><ele>851.0</ele><time>2026-04-25T11:39:22.808Z</time></trkpt><trkpt lat="46.1374991" lon="10.9707657"><ele>851.0</ele><time>2026-04-25T11:39:23.804Z</time></trkpt><trkpt lat="46.1373858" lon="10.9707434"><ele>851.0</ele><time>2026-04-25T11:39:24.837Z</time></trkpt><trkpt lat="46.1372865" lon="10.970694"><ele>853.0</ele><time>2026-04-25T11:39:25.836Z</time></trkpt><trkpt lat="46.1371958" lon="10.9706219"><ele>855.0</ele><time>2026-04-25T11:39:26.817Z</time></trkpt><trkpt lat="46.1371097" lon="10.9705409"><ele>856.9999999999999</ele><time>2026-04-25T11:39:27.801Z</time></trkpt><trkpt lat="46.1370186" lon="10.9704531"><ele>859.0</ele><time>2026-04-25T11:39:28.836Z</time></trkpt><trkpt lat="46.1369234" lon="10.9703779"><ele>861.0</ele><time>2026-04-25T11:39:29.815Z</time></trkpt><trkpt lat="46.1368164" lon="10.9703167"><ele>861.0</ele><time>2026-04-25T11:39:30.814Z</time></trkpt><trkpt lat="46.1367008" lon="10.9702823"><ele>861.0</ele><time>2026-04-25T11:39:31.807Z</time></trkpt><trkpt lat="46.1365767" lon="10.9702664"><ele>861.0</ele><time>2026-04-25T11:39:32.818Z</time></trkpt><trkpt lat="46.1364537" lon="10.9702561"><ele>861.0</ele><time>2026-04-25T11:39:33.821Z</time></trkpt><trkpt lat="46.1363377" lon="10.9702458"><ele>863.0</ele><time>2026-04-25T11:39:34.78Z</time></trkpt><trkpt lat="46.1362172" lon="10.9702403"><ele>865.0</ele><time>2026-04-25T11:39:35.758Z</time></trkpt><trkpt lat="46.1360923" lon="10.9702276"><ele>867.0</ele><time>2026-04-25T11:39:36.763Z</time></trkpt><trkpt lat="46.1359663" lon="10.9702056"><ele>869.0</ele><time>2026-04-25T11:39:37.795Z</time></trkpt><trkpt lat="46.1358445" lon="10.9701846"><ele>871.0</ele><time>2026-04-25T11:39:38.769Z</time></trkpt><trkpt lat="46.1357186" lon="10.9701729"><ele>873.0</ele><time>2026-04-25T11:39:39.787Z</time></trkpt><trkpt lat="46.1355955" lon="10.9701669"><ele>875.0</ele><time>2026-04-25T11:39:40.76Z</time></trkpt><trkpt lat="46.1354677" lon="10.9701553"><ele>877.0</ele><time>2026-04-25T11:39:41.77Z</time></trkpt><trkpt lat="46.135339" lon="10.970145"><ele>877.0</ele><time>2026-04-25T11:39:42.779Z</time></trkpt><trkpt lat="46.1352064" lon="10.970134"><ele>877.0</ele><time>2026-04-25T11:39:43.795Z</time></trkpt><trkpt lat="46.1350819" lon="10.9701243"><ele>877.0</ele><time>2026-04-25T11:39:44.769Z</time></trkpt><trkpt lat="46.1349502" lon="10.9701211"><ele>877.0</ele><time>2026-04-25T11:39:45.788Z</time></trkpt><trkpt lat="46.1348224" lon="10.9701096"><ele>874.5</ele><time>2026-04-25T11:39:46.793Z</time></trkpt><trkpt lat="46.1347097" lon="10.9700701"><ele>872.0</ele><time>2026-04-25T11:39:47.752Z</time></trkpt><trkpt lat="46.1345895" lon="10.9700047"><ele>869.5</ele><time>2026-04-25T11:39:48.786Z</time></trkpt><trkpt lat="46.1344763" lon="10.9699208"><ele>867.0</ele><time>2026-04-25T11:39:49.774Z</time></trkpt><trkpt lat="46.1343617" lon="10.9698186"><ele>867.0</ele><time>2026-04-25T11:39:50.78Z</time></trkpt><trkpt lat="46.1342532" lon="10.9697121"><ele>867.0</ele><time>2026-04-25T11:39:51.767Z</time></trkpt><trkpt lat="46.1341461" lon="10.9696065"><ele>867.0</ele><time>2026-04-25T11:39:52.751Z</time></trkpt><trkpt lat="46.1340386" lon="10.9695019"><ele>867.0</ele><time>2026-04-25T11:39:53.773Z</time></trkpt><trkpt lat="46.1339393" lon="10.9694126"><ele>870.2</ele><time>2026-04-25T11:39:54.78Z</time></trkpt><trkpt lat="46.1338444" lon="10.9693571"><ele>873.4000000000001</ele><time>2026-04-25T11:39:55.752Z</time></trkpt><trkpt lat="46.1337314" lon="10.969343"><ele>876.5999999999999</ele><time>2026-04-25T11:39:56.779Z</time></trkpt><trkpt lat="46.1336209" lon="10.9693557"><ele>879.8</ele><time>2026-04-25T11:39:57.78Z</time></trkpt><trkpt lat="46.1335002" lon="10.9693781"><ele>883.0</ele><time>2026-04-25T11:39:58.785Z</time></trkpt><trkpt lat="46.1333858" lon="10.9693657"><ele>883.0</ele><time>2026-04-25T11:39:59.779Z</time></trkpt><trkpt lat="46.1332611" lon="10.9693325"><ele>883.0</ele><time>2026-04-25T11:40:00.788Z</time></trkpt><trkpt lat="46.1331396" lon="10.9692867"><ele>883.0</ele><time>2026-04-25T11:40:01.757Z</time></trkpt><trkpt lat="46.1330076" lon="10.9692336"><ele>883.0</ele><time>2026-04-25T11:40:02.772Z</time></trkpt><trkpt lat="46.1328787" lon="10.9691844"><ele>878.75</ele><time>2026-04-25T11:40:03.775Z</time></trkpt><trkpt lat="46.1327503" lon="10.9691341"><ele>874.5</ele><time>2026-04-25T11:40:04.759Z</time></trkpt><trkpt lat="46.1326191" lon="10.9690861"><ele>870.25</ele><time>2026-04-25T11:40:05.77Z</time></trkpt><trkpt lat="46.1324792" lon="10.9690375"><ele>866.0</ele><time>2026-04-25T11:40:06.785Z</time></trkpt><trkpt lat="46.1323498" lon="10.968985"><ele>866.0</ele><time>2026-04-25T11:40:07.775Z</time></trkpt><trkpt lat="46.1322118" lon="10.9689338"><ele>866.0</ele><time>2026-04-25T11:40:08.774Z</time></trkpt><trkpt lat="46.1320787" lon="10.9688848"><ele>866.0</ele><time>2026-04-25T11:40:09.768Z</time></trkpt><trkpt lat="46.1319365" lon="10.9688304"><ele>866.0</ele><time>2026-04-25T11:40:10.784Z</time></trkpt><trkpt lat="46.1318036" lon="10.9687825"><ele>866.0</ele><time>2026-04-25T11:40:11.748Z</time></trkpt><trkpt lat="46.1316589" lon="10.9687293"><ele>866.0</ele><time>2026-04-25T11:40:12.767Z</time></trkpt><trkpt lat="46.13152" lon="10.9686704"><ele>866.0</ele><time>2026-04-25T11:40:13.78Z</time></trkpt><trkpt lat="46.1313904" lon="10.9686284"><ele>866.0</ele><time>2026-04-25T11:40:14.769Z</time></trkpt><trkpt lat="46.1312565" lon="10.9686039"><ele>866.25</ele><time>2026-04-25T11:40:15.782Z</time></trkpt><trkpt lat="46.1311193" lon="10.9685909"><ele>866.5</ele><time>2026-04-25T11:40:16.775Z</time></trkpt><trkpt lat="46.1309784" lon="10.968591"><ele>866.75</ele><time>2026-04-25T11:40:17.78Z</time></trkpt><trkpt lat="46.1308378" lon="10.9685947"><ele>867.0</ele><time>2026-04-25T11:40:18.779Z</time></trkpt><trkpt lat="46.1306965" lon="10.9686032"><ele>870.0</ele><time>2026-04-25T11:40:19.771Z</time></trkpt><trkpt lat="46.1305517" lon="10.9686034"><ele>873.0</ele><time>2026-04-25T11:40:20.763Z</time></trkpt><trkpt lat="46.1304059" lon="10.9686046"><ele>876.0</ele><time>2026-04-25T11:40:21.763Z</time></trkpt><trkpt lat="46.1302584" lon="10.9686094"><ele>879.0</ele><time>2026-04-25T11:40:22.774Z</time></trkpt><trkpt lat="46.1301094" lon="10.9686136"><ele>879.0</ele><time>2026-04-25T11:40:23.775Z</time></trkpt><trkpt lat="46.1299611" lon="10.9686123"><ele>879.0</ele><time>2026-04-25T11:40:24.776Z</time></trkpt><trkpt lat="46.1298209" lon="10.9685723"><ele>879.0</ele><time>2026-04-25T11:40:25.788Z</time></trkpt><trkpt lat="46.1296849" lon="10.9684949"><ele>879.0</ele><time>2026-04-25T11:40:26.785Z</time></trkpt><trkpt lat="46.1295567" lon="10.96841"><ele>874.0</ele><time>2026-04-25T11:40:27.765Z</time></trkpt><trkpt lat="46.1294179" lon="10.9683296"><ele>869.0</ele><time>2026-04-25T11:40:28.782Z</time></trkpt><trkpt lat="46.1292842" lon="10.9682802"><ele>864.0</ele><time>2026-04-25T11:40:29.775Z</time></trkpt><trkpt lat="46.1291453" lon="10.9682572"><ele>859.0</ele><time>2026-04-25T11:40:30.781Z</time></trkpt><trkpt lat="46.1289926" lon="10.9682524"><ele>859.0</ele><time>2026-04-25T11:40:31.768Z</time></trkpt><trkpt lat="46.1288371" lon="10.9682334"><ele>859.0</ele><time>2026-04-25T11:40:32.755Z</time></trkpt><trkpt lat="46.1286641" lon="10.968222"><ele>859.0</ele><time>2026-04-25T11:40:33.759Z</time></trkpt><trkpt lat="46.128488" lon="10.9682057"><ele>859.0</ele><time>2026-04-25T11:40:34.79Z</time></trkpt><trkpt lat="46.128322" lon="10.9681884"><ele>859.0</ele><time>2026-04-25T11:40:35.783Z</time></trkpt><trkpt lat="46.128161" lon="10.9681549"><ele>859.0</ele><time>2026-04-25T11:40:36.761Z</time></trkpt><trkpt lat="46.1279951" lon="10.9681043"><ele>870.6666666666666</ele><time>2026-04-25T11:40:37.759Z</time></trkpt><trkpt lat="46.1278337" lon="10.9680276"><ele>882.3333333333333</ele><time>2026-04-25T11:40:38.765Z</time></trkpt><trkpt lat="46.1276867" lon="10.9679377"><ele>894.0</ele><time>2026-04-25T11:40:39.77Z</time></trkpt><trkpt lat="46.1275301" lon="10.9678432"><ele>901.0</ele><time>2026-04-25T11:40:40.789Z</time></trkpt><trkpt lat="46.1273759" lon="10.967758"><ele>908.0</ele><time>2026-04-25T11:40:41.785Z</time></trkpt><trkpt lat="46.1272207" lon="10.967673"><ele>915.0</ele><time>2026-04-25T11:40:42.778Z</time></trkpt><trkpt lat="46.1270694" lon="10.9675904"><ele>902.0</ele><time>2026-04-25T11:40:43.785Z</time></trkpt><trkpt lat="46.1269354" lon="10.9675121"><ele>889.0</ele><time>2026-04-25T11:40:44.766Z</time></trkpt><trkpt lat="46.1268063" lon="10.967435"><ele>876.0</ele><time>2026-04-25T11:40:45.765Z</time></trkpt><trkpt lat="46.126685" lon="10.9673526"><ele>863.0</ele><time>2026-04-25T11:40:46.754Z</time></trkpt><trkpt lat="46.1265677" lon="10.9672516"><ele>869.75</ele><time>2026-04-25T11:40:47.749Z</time></trkpt><trkpt lat="46.1264505" lon="10.9671236"><ele>876.5</ele><time>2026-04-25T11:40:48.772Z</time></trkpt><trkpt lat="46.1263339" lon="10.9670011"><ele>883.25</ele><time>2026-04-25T11:40:49.774Z</time></trkpt><trkpt lat="46.1262208" lon="10.9668976"><ele>890.0</ele><time>2026-04-25T11:40:50.772Z</time></trkpt><trkpt lat="46.1261069" lon="10.9668211"><ele>890.0</ele><time>2026-04-25T11:40:51.783Z</time></trkpt><trkpt lat="46.1259906" lon="10.9667694"><ele>890.0</ele><time>2026-04-25T11:40:52.76Z</time></trkpt><trkpt lat="46.1258607" lon="10.9667318"><ele>890.0</ele><time>2026-04-25T11:40:53.762Z</time></trkpt><trkpt lat="46.1257228" lon="10.9666898"><ele>890.0</ele><time>2026-04-25T11:40:54.77Z</time></trkpt><trkpt lat="46.1255793" lon="10.9666531"><ele>879.5</ele><time>2026-04-25T11:40:55.782Z</time></trkpt><trkpt lat="46.1254407" lon="10.9666253"><ele>869.0</ele><time>2026-04-25T11:40:56.774Z</time></trkpt><trkpt lat="46.1253008" lon="10.9666093"><ele>858.5</ele><time>2026-04-25T11:40:57.785Z</time></trkpt><trkpt lat="46.1251646" lon="10.9666181"><ele>848.0</ele><time>2026-04-25T11:40:58.77Z</time></trkpt><trkpt lat="46.1250258" lon="10.9666401"><ele>845.6666666666667</ele><time>2026-04-25T11:40:59.772Z</time></trkpt><trkpt lat="46.1248773" lon="10.9666706"><ele>843.3333333333333</ele><time>2026-04-25T11:41:00.771Z</time></trkpt><trkpt lat="46.1247286" lon="10.9666999"><ele>841.0</ele><time>2026-04-25T11:41:01.762Z</time></trkpt><trkpt lat="46.1245724" lon="10.9667282"><ele>845.75</ele><time>2026-04-25T11:41:02.789Z</time></trkpt><trkpt lat="46.1244246" lon="10.9667461"><ele>850.5</ele><time>2026-04-25T11:41:03.775Z</time></trkpt><trkpt lat="46.1242763" lon="10.9667642"><ele>855.25</ele><time>2026-04-25T11:41:04.76Z</time></trkpt><trkpt lat="46.1241264" lon="10.9667866"><ele>860.0</ele><time>2026-04-25T11:41:05.777Z</time></trkpt><trkpt lat="46.1239768" lon="10.9668088"><ele>860.0</ele><time>2026-04-25T11:41:06.758Z</time></trkpt><trkpt lat="46.123824" lon="10.9668288"><ele>860.0</ele><time>2026-04-25T11:41:07.778Z</time></trkpt><trkpt lat="46.1236826" lon="10.9668548"><ele>860.0</ele><time>2026-04-25T11:41:08.754Z</time></trkpt><trkpt lat="46.1235418" lon="10.9668789"><ele>860.0</ele><time>2026-04-25T11:41:09.781Z</time></trkpt><trkpt lat="46.12341" lon="10.9669021"><ele>860.0</ele><time>2026-04-25T11:41:10.788Z</time></trkpt><trkpt lat="46.1232816" lon="10.9669252"><ele>860.0</ele><time>2026-04-25T11:41:11.797Z</time></trkpt><trkpt lat="46.1231519" lon="10.9669505"><ele>860.0</ele><time>2026-04-25T11:41:12.788Z</time></trkpt><trkpt lat="46.1230236" lon="10.9669625"><ele>860.0</ele><time>2026-04-25T11:41:13.764Z</time></trkpt><trkpt lat="46.1228873" lon="10.9669378"><ele>860.25</ele><time>2026-04-25T11:41:14.77Z</time></trkpt><trkpt lat="46.1227505" lon="10.9668758"><ele>860.5</ele><time>2026-04-25T11:41:15.774Z</time></trkpt><trkpt lat="46.1226257" lon="10.9668056"><ele>860.75</ele><time>2026-04-25T11:41:16.767Z</time></trkpt><trkpt lat="46.1224915" lon="10.9667279"><ele>861.0</ele><time>2026-04-25T11:41:17.781Z</time></trkpt><trkpt lat="46.1223579" lon="10.9666499"><ele>861.0</ele><time>2026-04-25T11:41:18.776Z</time></trkpt><trkpt lat="46.1222181" lon="10.9665742"><ele>861.0</ele><time>2026-04-25T11:41:19.788Z</time></trkpt><trkpt lat="46.122081" lon="10.9664953"><ele>861.0</ele><time>2026-04-25T11:41:20.782Z</time></trkpt><trkpt lat="46.1219459" lon="10.9664193"><ele>861.0</ele><time>2026-04-25T11:41:21.757Z</time></trkpt><trkpt lat="46.1218026" lon="10.9663384"><ele>861.0</ele><time>2026-04-25T11:41:22.773Z</time></trkpt><trkpt lat="46.1216629" lon="10.966255"><ele>861.0</ele><time>2026-04-25T11:41:23.782Z</time></trkpt><trkpt lat="46.1215226" lon="10.966176"><ele>861.0</ele><time>2026-04-25T11:41:24.779Z</time></trkpt><trkpt lat="46.1213807" lon="10.9660977"><ele>859.75</ele><time>2026-04-25T11:41:25.79Z</time></trkpt><trkpt lat="46.1212425" lon="10.9660226"><ele>858.5</ele><time>2026-04-25T11:41:26.78Z</time></trkpt><trkpt lat="46.1211056" lon="10.9659524"><ele>857.25</ele><time>2026-04-25T11:41:27.761Z</time></trkpt><trkpt lat="46.1209649" lon="10.9658761"><ele>856.0</ele><time>2026-04-25T11:41:28.766Z</time></trkpt><trkpt lat="46.1208265" lon="10.9657834"><ele>867.6666666666666</ele><time>2026-04-25T11:41:29.786Z</time></trkpt><trkpt lat="46.120704" lon="10.9656578"><ele>879.3333333333333</ele><time>2026-04-25T11:41:30.78Z</time></trkpt><trkpt lat="46.1205956" lon="10.9655127"><ele>891.0</ele><time>2026-04-25T11:41:31.78Z</time></trkpt><trkpt lat="46.1204913" lon="10.9653479"><ele>891.0</ele><time>2026-04-25T11:41:32.774Z</time></trkpt><trkpt lat="46.1203879" lon="10.965194"><ele>891.0</ele><time>2026-04-25T11:41:33.779Z</time></trkpt><trkpt lat="46.1202836" lon="10.9650426"><ele>891.0</ele><time>2026-04-25T11:41:34.776Z</time></trkpt><trkpt lat="46.1201755" lon="10.9648915"><ele>891.0</ele><time>2026-04-25T11:41:35.769Z</time></trkpt><trkpt lat="46.120065" lon="10.9647485"><ele>892.3333333333333</ele><time>2026-04-25T11:41:36.762Z</time></trkpt><trkpt lat="46.1199462" lon="10.9646076"><ele>893.6666666666666</ele><time>2026-04-25T11:41:37.788Z</time></trkpt><trkpt lat="46.1198278" lon="10.9644748"><ele>895.0</ele><time>2026-04-25T11:41:38.762Z</time></trkpt><trkpt lat="46.1197054" lon="10.9643396"><ele>895.0</ele><time>2026-04-25T11:41:39.763Z</time></trkpt><trkpt lat="46.1195807" lon="10.9642008"><ele>895.0</ele><time>2026-04-25T11:41:40.785Z</time></trkpt><trkpt lat="46.1194537" lon="10.9640584"><ele>895.0</ele><time>2026-04-25T11:41:41.789Z</time></trkpt><trkpt lat="46.1193287" lon="10.9639218"><ele>895.3333333333333</ele><time>2026-04-25T11:41:42.77Z</time></trkpt><trkpt lat="46.1192043" lon="10.9637777"><ele>895.6666666666667</ele><time>2026-04-25T11:41:43.779Z</time></trkpt><trkpt lat="46.1190847" lon="10.9636378"><ele>896.0</ele><time>2026-04-25T11:41:44.771Z</time></trkpt><trkpt lat="46.1189674" lon="10.9635018"><ele>896.0</ele><time>2026-04-25T11:41:45.772Z</time></trkpt><trkpt lat="46.1188477" lon="10.9633702"><ele>896.0</ele><time>2026-04-25T11:41:46.776Z</time></trkpt><trkpt lat="46.1187279" lon="10.9632409"><ele>896.0</ele><time>2026-04-25T11:41:47.778Z</time></trkpt><trkpt lat="46.1186042" lon="10.9631162"><ele>895.0</ele><time>2026-04-25T11:41:48.763Z</time></trkpt><trkpt lat="46.1184679" lon="10.9629994"><ele>894.0</ele><time>2026-04-25T11:41:49.771Z</time></trkpt><trkpt lat="46.1183347" lon="10.9628949"><ele>893.0</ele><time>2026-04-25T11:41:50.762Z</time></trkpt><trkpt lat="46.1181871" lon="10.9627887"><ele>893.0</ele><time>2026-04-25T11:41:51.775Z</time></trkpt><trkpt lat="46.1180384" lon="10.9626843"><ele>893.0</ele><time>2026-04-25T11:41:52.777Z</time></trkpt><trkpt lat="46.1178899" lon="10.9625752"><ele>893.0</ele><time>2026-04-25T11:41:53.783Z</time></trkpt><trkpt lat="46.1177451" lon="10.9624638"><ele>887.25</ele><time>2026-04-25T11:41:54.778Z</time></trkpt><trkpt lat="46.1176064" lon="10.9623565"><ele>881.5</ele><time>2026-04-25T11:41:55.791Z</time></trkpt><trkpt lat="46.1174794" lon="10.9622594"><ele>875.75</ele><time>2026-04-25T11:41:56.765Z</time></trkpt><trkpt lat="46.1173619" lon="10.962174"><ele>870.0</ele><time>2026-04-25T11:41:57.769Z</time></trkpt><trkpt lat="46.1172547" lon="10.9621304"><ele>870.0</ele><time>2026-04-25T11:41:58.786Z</time></trkpt><trkpt lat="46.1171697" lon="10.9621498"><ele>870.0</ele><time>2026-04-25T11:41:59.777Z</time></trkpt><trkpt lat="46.1170793" lon="10.962235"><ele>870.0</ele><time>2026-04-25T11:42:00.786Z</time></trkpt><trkpt lat="46.1169665" lon="10.9623261"><ele>870.0</ele><time>2026-04-25T11:42:01.781Z</time></trkpt><trkpt lat="46.1168149" lon="10.9623629"><ele>870.0</ele><time>2026-04-25T11:42:02.774Z</time></trkpt><trkpt lat="46.1166406" lon="10.9623331"><ele>870.0</ele><time>2026-04-25T11:42:03.774Z</time></trkpt><trkpt lat="46.1164599" lon="10.9622437"><ele>870.0</ele><time>2026-04-25T11:42:04.778Z</time></trkpt><trkpt lat="46.1163001" lon="10.962127"><ele>876.6666666666667</ele><time>2026-04-25T11:42:05.787Z</time></trkpt><trkpt lat="46.1161527" lon="10.9620236"><ele>883.3333333333334</ele><time>2026-04-25T11:42:06.788Z</time></trkpt><trkpt lat="46.116017" lon="10.9619312"><ele>890.0</ele><time>2026-04-25T11:42:07.784Z</time></trkpt><trkpt lat="46.1158892" lon="10.961838"><ele>890.0</ele><time>2026-04-25T11:42:08.78Z</time></trkpt><trkpt lat="46.115791" lon="10.9617215"><ele>890.0</ele><time>2026-04-25T11:42:09.766Z</time></trkpt><trkpt lat="46.1156999" lon="10.9615704"><ele>890.0</ele><time>2026-04-25T11:42:10.765Z</time></trkpt><trkpt lat="46.1156252" lon="10.9613887"><ele>890.0</ele><time>2026-04-25T11:42:11.802Z</time></trkpt><trkpt lat="46.1155568" lon="10.9612002"><ele>890.25</ele><time>2026-04-25T11:42:12.784Z</time></trkpt><trkpt lat="46.1154887" lon="10.96103"><ele>890.5</ele><time>2026-04-25T11:42:13.771Z</time></trkpt><trkpt lat="46.115417" lon="10.9608735"><ele>890.75</ele><time>2026-04-25T11:42:14.768Z</time></trkpt><trkpt lat="46.1153525" lon="10.960721"><ele>891.0</ele><time>2026-04-25T11:42:15.767Z</time></trkpt><trkpt lat="46.115286" lon="10.960564"><ele>885.75</ele><time>2026-04-25T11:42:16.79Z</time></trkpt><trkpt lat="46.1152253" lon="10.9603955"><ele>880.5</ele><time>2026-04-25T11:42:17.776Z</time></trkpt><trkpt lat="46.1151698" lon="10.9602088"><ele>875.25</ele><time>2026-04-25T11:42:18.782Z</time></trkpt><trkpt lat="46.1151229" lon="10.9600053"><ele>870.0</ele><time>2026-04-25T11:42:19.782Z</time></trkpt><trkpt lat="46.115089" lon="10.9597978"><ele>865.75</ele><time>2026-04-25T11:42:20.766Z</time></trkpt><trkpt lat="46.1150499" lon="10.9595933"><ele>861.5</ele><time>2026-04-25T11:42:21.764Z</time></trkpt><trkpt lat="46.1149943" lon="10.9594066"><ele>857.25</ele><time>2026-04-25T11:42:22.777Z</time></trkpt><trkpt lat="46.114921" lon="10.9592521"><ele>853.0</ele><time>2026-04-25T11:42:23.788Z</time></trkpt><trkpt lat="46.1148315" lon="10.9591172"><ele>862.0</ele><time>2026-04-25T11:42:24.769Z</time></trkpt><trkpt lat="46.1147332" lon="10.9589762"><ele>871.0</ele><time>2026-04-25T11:42:25.787Z</time></trkpt><trkpt lat="46.1146309" lon="10.9588279"><ele>880.0</ele><time>2026-04-25T11:42:26.758Z</time></trkpt><trkpt lat="46.1145243" lon="10.958667"><ele>889.0</ele><time>2026-04-25T11:42:27.787Z</time></trkpt><trkpt lat="46.1144244" lon="10.9585126"><ele>892.25</ele><time>2026-04-25T11:42:28.785Z</time></trkpt><trkpt lat="46.114325" lon="10.9583626"><ele>895.5</ele><time>2026-04-25T11:42:29.769Z</time></trkpt><trkpt lat="46.1142172" lon="10.9582119"><ele>898.75</ele><time>2026-04-25T11:42:30.79Z</time></trkpt><trkpt lat="46.1141125" lon="10.9580684"><ele>902.0</ele><time>2026-04-25T11:42:31.766Z</time></trkpt><trkpt lat="46.1140058" lon="10.957924"><ele>902.0</ele><time>2026-04-25T11:42:32.769Z</time></trkpt><trkpt lat="46.1139077" lon="10.9577771"><ele>902.0</ele><time>2026-04-25T11:42:33.782Z</time></trkpt><trkpt lat="46.1138113" lon="10.9576345"><ele>902.0</ele><time>2026-04-25T11:42:34.779Z</time></trkpt><trkpt lat="46.113716" lon="10.9574797"><ele>902.0</ele><time>2026-04-25T11:42:35.775Z</time></trkpt><trkpt lat="46.1136265" lon="10.9573159"><ele>894.25</ele><time>2026-04-25T11:42:36.769Z</time></trkpt><trkpt lat="46.1135488" lon="10.9571347"><ele>886.5</ele><time>2026-04-25T11:42:37.786Z</time></trkpt><trkpt lat="46.1134783" lon="10.9569503"><ele>878.75</ele><time>2026-04-25T11:42:38.77Z</time></trkpt><trkpt lat="46.1134125" lon="10.9567613"><ele>871.0</ele><time>2026-04-25T11:42:39.754Z</time></trkpt><trkpt lat="46.1133494" lon="10.9565569"><ele>865.0</ele><time>2026-04-25T11:42:40.802Z</time></trkpt><trkpt lat="46.1132905" lon="10.9563646"><ele>859.0</ele><time>2026-04-25T11:42:41.771Z</time></trkpt><trkpt lat="46.113226" lon="10.9561624"><ele>853.0</ele><time>2026-04-25T11:42:42.783Z</time></trkpt><trkpt lat="46.113161" lon="10.9559661"><ele>862.0</ele><time>2026-04-25T11:42:43.775Z</time></trkpt><trkpt lat="46.1130935" lon="10.9557685"><ele>871.0</ele><time>2026-04-25T11:42:44.769Z</time></trkpt><trkpt lat="46.1130241" lon="10.95556"><ele>880.0</ele><time>2026-04-25T11:42:45.786Z</time></trkpt><trkpt lat="46.1129576" lon="10.9553586"><ele>880.0</ele><time>2026-04-25T11:42:46.774Z</time></trkpt><trkpt lat="46.112892" lon="10.9551546"><ele>880.0</ele><time>2026-04-25T11:42:47.768Z</time></trkpt><trkpt lat="46.1128281" lon="10.9549478"><ele>880.0</ele><time>2026-04-25T11:42:48.756Z</time></trkpt><trkpt lat="46.1127563" lon="10.9547385"><ele>876.3333333333333</ele><time>2026-04-25T11:42:49.773Z</time></trkpt><trkpt lat="46.1126887" lon="10.9545358"><ele>872.6666666666667</ele><time>2026-04-25T11:42:50.76Z</time></trkpt><trkpt lat="46.1126153" lon="10.9543255"><ele>869.0</ele><time>2026-04-25T11:42:51.779Z</time></trkpt><trkpt lat="46.1125475" lon="10.9541272"><ele>866.25</ele><time>2026-04-25T11:42:52.756Z</time></trkpt><trkpt lat="46.1124899" lon="10.9539215"><ele>863.5</ele><time>2026-04-25T11:42:53.773Z</time></trkpt><trkpt lat="46.1124532" lon="10.9537231"><ele>860.75</ele><time>2026-04-25T11:42:54.755Z</time></trkpt><trkpt lat="46.1124502" lon="10.9535382"><ele>858.0</ele><time>2026-04-25T11:42:55.762Z</time></trkpt><trkpt lat="46.1124589" lon="10.9533565"><ele>856.4</ele><time>2026-04-25T11:42:56.759Z</time></trkpt><trkpt lat="46.1124609" lon="10.9531821"><ele>854.8</ele><time>2026-04-25T11:42:57.787Z</time></trkpt><trkpt lat="46.1124391" lon="10.9530358"><ele>853.2</ele><time>2026-04-25T11:42:58.782Z</time></trkpt><trkpt lat="46.1123915" lon="10.9528942"><ele>851.6</ele><time>2026-04-25T11:42:59.786Z</time></trkpt><trkpt lat="46.1123345" lon="10.9527523"><ele>850.0</ele><time>2026-04-25T11:43:00.78Z</time></trkpt><trkpt lat="46.1122716" lon="10.9525905"><ele>853.3333333333333</ele><time>2026-04-25T11:43:01.778Z</time></trkpt><trkpt lat="46.1122064" lon="10.9524114"><ele>856.6666666666667</ele><time>2026-04-25T11:43:02.766Z</time></trkpt><trkpt lat="46.112128" lon="10.9522029"><ele>860.0</ele><time>2026-04-25T11:43:03.769Z</time></trkpt><trkpt lat="46.1120745" lon="10.951966"><ele>860.0</ele><time>2026-04-25T11:43:04.776Z</time></trkpt><trkpt lat="46.1120403" lon="10.9517225"><ele>860.0</ele><time>2026-04-25T11:43:05.784Z</time></trkpt><trkpt lat="46.1120121" lon="10.9514909"><ele>860.0</ele><time>2026-04-25T11:43:06.776Z</time></trkpt><trkpt lat="46.1119747" lon="10.9512808"><ele>858.3333333333334</ele><time>2026-04-25T11:43:07.764Z</time></trkpt><trkpt lat="46.1119087" lon="10.9510837"><ele>856.6666666666667</ele><time>2026-04-25T11:43:08.786Z</time></trkpt><trkpt lat="46.1118111" lon="10.9509016"><ele>855.0</ele><time>2026-04-25T11:43:09.779Z</time></trkpt><trkpt lat="46.1117066" lon="10.9507238"><ele>851.6666666666667</ele><time>2026-04-25T11:43:10.762Z</time></trkpt><trkpt lat="46.1115887" lon="10.9505321"><ele>848.3333333333334</ele><time>2026-04-25T11:43:11.785Z</time></trkpt><trkpt lat="46.1114646" lon="10.9503329"><ele>845.0</ele><time>2026-04-25T11:43:12.767Z</time></trkpt><trkpt lat="46.1113262" lon="10.9501571"><ele>847.3333333333334</ele><time>2026-04-25T11:43:13.779Z</time></trkpt><trkpt lat="46.1111841" lon="10.9500058"><ele>849.6666666666667</ele><time>2026-04-25T11:43:14.763Z</time></trkpt><trkpt lat="46.1110414" lon="10.9498578"><ele>852.0</ele><time>2026-04-25T11:43:15.787Z</time></trkpt><trkpt lat="46.110902" lon="10.9497157"><ele>852.0</ele><time>2026-04-25T11:43:16.776Z</time></trkpt><trkpt lat="46.1107753" lon="10.9495727"><ele>852.0</ele><time>2026-04-25T11:43:17.778Z</time></trkpt><trkpt lat="46.1106579" lon="10.9494273"><ele>852.0</ele><time>2026-04-25T11:43:18.781Z</time></trkpt><trkpt lat="46.1105584" lon="10.9492674"><ele>856.25</ele><time>2026-04-25T11:43:19.784Z</time></trkpt><trkpt lat="46.1104793" lon="10.9491136"><ele>860.5</ele><time>2026-04-25T11:43:20.784Z</time></trkpt><trkpt lat="46.1104063" lon="10.9489656"><ele>864.75</ele><time>2026-04-25T11:43:21.758Z</time></trkpt><trkpt lat="46.1103291" lon="10.9488082"><ele>869.0</ele><time>2026-04-25T11:43:22.757Z</time></trkpt><trkpt lat="46.1102453" lon="10.9486417"><ele>869.0</ele><time>2026-04-25T11:43:23.789Z</time></trkpt><trkpt lat="46.1101638" lon="10.948475"><ele>869.0</ele><time>2026-04-25T11:43:24.792Z</time></trkpt><trkpt lat="46.1100793" lon="10.9483106"><ele>869.0</ele><time>2026-04-25T11:43:25.788Z</time></trkpt><trkpt lat="46.109985" lon="10.9481569"><ele>869.0</ele><time>2026-04-25T11:43:26.784Z</time></trkpt><trkpt lat="46.1098677" lon="10.9480052"><ele>874.6666666666667</ele><time>2026-04-25T11:43:27.791Z</time></trkpt><trkpt lat="46.1097555" lon="10.9478651"><ele>880.3333333333333</ele><time>2026-04-25T11:43:28.773Z</time></trkpt><trkpt lat="46.1096447" lon="10.9477162"><ele>886.0</ele><time>2026-04-25T11:43:29.76Z</time></trkpt><trkpt lat="46.1095299" lon="10.947566"><ele>876.3333333333333</ele><time>2026-04-25T11:43:30.776Z</time></trkpt><trkpt lat="46.1094168" lon="10.9474103"><ele>866.6666666666667</ele><time>2026-04-25T11:43:31.793Z</time></trkpt><trkpt lat="46.1093084" lon="10.9472691"><ele>857.0</ele><time>2026-04-25T11:43:32.781Z</time></trkpt><trkpt lat="46.1091974" lon="10.9471277"><ele>857.0</ele><time>2026-04-25T11:43:33.775Z</time></trkpt><trkpt lat="46.1090921" lon="10.9469928"><ele>857.0</ele><time>2026-04-25T11:43:34.762Z</time></trkpt><trkpt lat="46.1089914" lon="10.9468586"><ele>857.0</ele><time>2026-04-25T11:43:35.786Z</time></trkpt><trkpt lat="46.1088953" lon="10.9467327"><ele>857.0</ele><time>2026-04-25T11:43:36.77Z</time></trkpt><trkpt lat="46.1088028" lon="10.9465995"><ele>856.5</ele><time>2026-04-25T11:43:37.769Z</time></trkpt><trkpt lat="46.108724" lon="10.9464294"><ele>856.0</ele><time>2026-04-25T11:43:38.779Z</time></trkpt><trkpt lat="46.1086706" lon="10.9462334"><ele>855.5</ele><time>2026-04-25T11:43:39.794Z</time></trkpt><trkpt lat="46.1086463" lon="10.9460281"><ele>855.0</ele><time>2026-04-25T11:43:40.744Z</time></trkpt><trkpt lat="46.1086309" lon="10.9458023"><ele>855.0</ele><time>2026-04-25T11:43:41.785Z</time></trkpt><trkpt lat="46.1085981" lon="10.9455946"><ele>855.0</ele><time>2026-04-25T11:43:42.774Z</time></trkpt><trkpt lat="46.1085648" lon="10.9453766"><ele>855.0</ele><time>2026-04-25T11:43:43.78Z</time></trkpt><trkpt lat="46.1085252" lon="10.9451648"><ele>853.25</ele><time>2026-04-25T11:43:44.772Z</time></trkpt><trkpt lat="46.1084943" lon="10.9449495"><ele>851.5</ele><time>2026-04-25T11:43:45.774Z</time></trkpt><trkpt lat="46.1084659" lon="10.9447388"><ele>849.75</ele><time>2026-04-25T11:43:46.791Z</time></trkpt><trkpt lat="46.1084366" lon="10.9445336"><ele>848.0</ele><time>2026-04-25T11:43:47.782Z</time></trkpt><trkpt lat="46.1084106" lon="10.9443366"><ele>846.5</ele><time>2026-04-25T11:43:48.767Z</time></trkpt><trkpt lat="46.1083784" lon="10.9441274"><ele>845.0</ele><time>2026-04-25T11:43:49.776Z</time></trkpt><trkpt lat="46.108345" lon="10.943926"><ele>843.5</ele><time>2026-04-25T11:43:50.783Z</time></trkpt><trkpt lat="46.108301" lon="10.9437357"><ele>842.0</ele><time>2026-04-25T11:43:51.773Z</time></trkpt><trkpt lat="46.1082361" lon="10.9435494"><ele>843.75</ele><time>2026-04-25T11:43:52.768Z</time></trkpt><trkpt lat="46.1081542" lon="10.9433945"><ele>845.5</ele><time>2026-04-25T11:43:53.764Z</time></trkpt><trkpt lat="46.1080469" lon="10.943254"><ele>847.25</ele><time>2026-04-25T11:43:54.794Z</time></trkpt><trkpt lat="46.1079246" lon="10.9431315"><ele>849.0</ele><time>2026-04-25T11:43:55.784Z</time></trkpt><trkpt lat="46.1077983" lon="10.9430489"><ele>849.0</ele><time>2026-04-25T11:43:56.785Z</time></trkpt><trkpt lat="46.1076618" lon="10.9429989"><ele>849.0</ele><time>2026-04-25T11:43:57.786Z</time></trkpt><trkpt lat="46.1075075" lon="10.9429766"><ele>849.0</ele><time>2026-04-25T11:43:58.784Z</time></trkpt><trkpt lat="46.1073601" lon="10.942986"><ele>849.0</ele><time>2026-04-25T11:43:59.768Z</time></trkpt><trkpt lat="46.1072003" lon="10.9430173"><ele>848.0</ele><time>2026-04-25T11:44:00.768Z</time></trkpt><trkpt lat="46.1070554" lon="10.9430524"><ele>847.0</ele><time>2026-04-25T11:44:01.757Z</time></trkpt><trkpt lat="46.1068975" lon="10.9430844"><ele>846.0</ele><time>2026-04-25T11:44:02.772Z</time></trkpt><trkpt lat="46.1067424" lon="10.9431053"><ele>846.0</ele><time>2026-04-25T11:44:03.765Z</time></trkpt><trkpt lat="46.1065789" lon="10.943121"><ele>846.0</ele><time>2026-04-25T11:44:04.787Z</time></trkpt><trkpt lat="46.1064214" lon="10.9431255"><ele>846.0</ele><time>2026-04-25T11:44:05.769Z</time></trkpt><trkpt lat="46.1062487" lon="10.9431177"><ele>846.3333333333333</ele><time>2026-04-25T11:44:06.789Z</time></trkpt><trkpt lat="46.1060895" lon="10.943095"><ele>846.6666666666666</ele><time>2026-04-25T11:44:07.767Z</time></trkpt><trkpt lat="46.1059253" lon="10.9430617"><ele>847.0</ele><time>2026-04-25T11:44:08.782Z</time></trkpt><trkpt lat="46.105771" lon="10.9430221"><ele>847.3333333333333</ele><time>2026-04-25T11:44:09.771Z</time></trkpt><trkpt lat="46.1056186" lon="10.9429784"><ele>847.6666666666667</ele><time>2026-04-25T11:44:10.773Z</time></trkpt><trkpt lat="46.1054588" lon="10.9429334"><ele>848.0</ele><time>2026-04-25T11:44:11.779Z</time></trkpt><trkpt lat="46.105297" lon="10.942887"><ele>848.0</ele><time>2026-04-25T11:44:12.774Z</time></trkpt><trkpt lat="46.1051363" lon="10.9428321"><ele>848.0</ele><time>2026-04-25T11:44:13.775Z</time></trkpt><trkpt lat="46.1049812" lon="10.9427585"><ele>848.0</ele><time>2026-04-25T11:44:14.751Z</time></trkpt><trkpt lat="46.1048162" lon="10.9426646"><ele>849.0</ele><time>2026-04-25T11:44:15.775Z</time></trkpt><trkpt lat="46.1046656" lon="10.942551"><ele>850.0</ele><time>2026-04-25T11:44:16.758Z</time></trkpt><trkpt lat="46.1045139" lon="10.9424256"><ele>851.0</ele><time>2026-04-25T11:44:17.765Z</time></trkpt><trkpt lat="46.1043631" lon="10.9422965"><ele>846.0</ele><time>2026-04-25T11:44:18.77Z</time></trkpt><trkpt lat="46.1042109" lon="10.942178"><ele>841.0</ele><time>2026-04-25T11:44:19.77Z</time></trkpt><trkpt lat="46.1040533" lon="10.9420966"><ele>836.0</ele><time>2026-04-25T11:44:20.766Z</time></trkpt><trkpt lat="46.1038954" lon="10.9420535"><ele>835.0</ele><time>2026-04-25T11:44:21.768Z</time></trkpt><trkpt lat="46.1037575" lon="10.9420663"><ele>834.0</ele><time>2026-04-25T11:44:22.765Z</time></trkpt><trkpt lat="46.1036229" lon="10.9421299"><ele>833.0</ele><time>2026-04-25T11:44:23.755Z</time></trkpt><trkpt lat="46.1034492" lon="10.9422384"><ele>833.0</ele><time>2026-04-25T11:44:24.79Z</time></trkpt><trkpt lat="46.1032729" lon="10.9423109"><ele>833.0</ele><time>2026-04-25T11:44:25.785Z</time></trkpt><trkpt lat="46.1030795" lon="10.9423099"><ele>833.0</ele><time>2026-04-25T11:44:26.771Z</time></trkpt><trkpt lat="46.1028869" lon="10.9422184"><ele>835.3333333333334</ele><time>2026-04-25T11:44:27.771Z</time></trkpt><trkpt lat="46.1026972" lon="10.9420799"><ele>837.6666666666667</ele><time>2026-04-25T11:44:28.765Z</time></trkpt><trkpt lat="46.1025189" lon="10.9419125"><ele>840.0</ele><time>2026-04-25T11:44:29.788Z</time></trkpt><trkpt lat="46.1023872" lon="10.9417401"><ele>840.0</ele><time>2026-04-25T11:44:30.787Z</time></trkpt><trkpt lat="46.1022515" lon="10.9415676"><ele>840.0</ele><time>2026-04-25T11:44:31.786Z</time></trkpt><trkpt lat="46.1021276" lon="10.9414176"><ele>840.0</ele><time>2026-04-25T11:44:32.753Z</time></trkpt><trkpt lat="46.1019938" lon="10.9412814"><ele>840.0</ele><time>2026-04-25T11:44:33.772Z</time></trkpt><trkpt lat="46.1018678" lon="10.9411504"><ele>840.0</ele><time>2026-04-25T11:44:34.791Z</time></trkpt><trkpt lat="46.1017484" lon="10.9410304"><ele>840.0</ele><time>2026-04-25T11:44:35.755Z</time></trkpt><trkpt lat="46.1016217" lon="10.9408998"><ele>836.6666666666667</ele><time>2026-04-25T11:44:36.78Z</time></trkpt><trkpt lat="46.1014914" lon="10.9407898"><ele>833.3333333333334</ele><time>2026-04-25T11:44:37.766Z</time></trkpt><trkpt lat="46.1013447" lon="10.9406968"><ele>830.0</ele><time>2026-04-25T11:44:38.774Z</time></trkpt><trkpt lat="46.1011836" lon="10.9406037"><ele>830.0</ele><time>2026-04-25T11:44:39.798Z</time></trkpt><trkpt lat="46.1010281" lon="10.9405124"><ele>830.0</ele><time>2026-04-25T11:44:40.783Z</time></trkpt><trkpt lat="46.1008823" lon="10.9404117"><ele>830.0</ele><time>2026-04-25T11:44:41.785Z</time></trkpt><trkpt lat="46.1007411" lon="10.9403059"><ele>828.0</ele><time>2026-04-25T11:44:42.76Z</time></trkpt><trkpt lat="46.1005918" lon="10.9401983"><ele>826.0</ele><time>2026-04-25T11:44:43.781Z</time></trkpt><trkpt lat="46.100454" lon="10.940098"><ele>824.0</ele><time>2026-04-25T11:44:44.766Z</time></trkpt><trkpt lat="46.1003114" lon="10.9399903"><ele>824.0</ele><time>2026-04-25T11:44:45.772Z</time></trkpt><trkpt lat="46.100175" lon="10.9398811"><ele>824.0</ele><time>2026-04-25T11:44:46.758Z</time></trkpt><trkpt lat="46.1000378" lon="10.9397776"><ele>824.0</ele><time>2026-04-25T11:44:47.756Z</time></trkpt><trkpt lat="46.0998903" lon="10.9396678"><ele>828.3333333333334</ele><time>2026-04-25T11:44:48.764Z</time></trkpt><trkpt lat="46.0997355" lon="10.9395588"><ele>832.6666666666667</ele><time>2026-04-25T11:44:49.77Z</time></trkpt><trkpt lat="46.0995814" lon="10.9394368"><ele>837.0</ele><time>2026-04-25T11:44:50.774Z</time></trkpt><trkpt lat="46.0994245" lon="10.9393188"><ele>836.0</ele><time>2026-04-25T11:44:51.782Z</time></trkpt><trkpt lat="46.0992598" lon="10.9391927"><ele>835.0</ele><time>2026-04-25T11:44:52.795Z</time></trkpt><trkpt lat="46.0990988" lon="10.9390676"><ele>834.0</ele><time>2026-04-25T11:44:53.79Z</time></trkpt><trkpt lat="46.09893" lon="10.9389374"><ele>834.0</ele><time>2026-04-25T11:44:54.792Z</time></trkpt><trkpt lat="46.0987568" lon="10.938806"><ele>834.0</ele><time>2026-04-25T11:44:55.777Z</time></trkpt><trkpt lat="46.0985786" lon="10.9386709"><ele>834.0</ele><time>2026-04-25T11:44:56.774Z</time></trkpt><trkpt lat="46.0983954" lon="10.9385356"><ele>831.0</ele><time>2026-04-25T11:44:57.77Z</time></trkpt><trkpt lat="46.0982044" lon="10.9383981"><ele>828.0</ele><time>2026-04-25T11:44:58.769Z</time></trkpt><trkpt lat="46.0980197" lon="10.938259"><ele>825.0</ele><time>2026-04-25T11:44:59.767Z</time></trkpt><trkpt lat="46.0978291" lon="10.9381074"><ele>825.0</ele><time>2026-04-25T11:45:00.781Z</time></trkpt><trkpt lat="46.0976525" lon="10.937939"><ele>825.0</ele><time>2026-04-25T11:45:01.751Z</time></trkpt><trkpt lat="46.0974852" lon="10.9377324"><ele>825.0</ele><time>2026-04-25T11:45:02.779Z</time></trkpt><trkpt lat="46.0973237" lon="10.9375233"><ele>822.3333333333333</ele><time>2026-04-25T11:45:03.781Z</time></trkpt><trkpt lat="46.0971673" lon="10.9373149"><ele>819.6666666666666</ele><time>2026-04-25T11:45:04.747Z</time></trkpt><trkpt lat="46.0969986" lon="10.9370933"><ele>817.0</ele><time>2026-04-25T11:45:05.784Z</time></trkpt><trkpt lat="46.0968441" lon="10.9368858"><ele>817.3333333333333</ele><time>2026-04-25T11:45:06.777Z</time></trkpt><trkpt lat="46.0966926" lon="10.9366867"><ele>817.6666666666667</ele><time>2026-04-25T11:45:07.782Z</time></trkpt><trkpt lat="46.0965481" lon="10.9364977"><ele>818.0</ele><time>2026-04-25T11:45:08.792Z</time></trkpt><trkpt lat="46.0964082" lon="10.936319"><ele>818.0</ele><time>2026-04-25T11:45:09.772Z</time></trkpt><trkpt lat="46.0962746" lon="10.9361436"><ele>818.0</ele><time>2026-04-25T11:45:10.788Z</time></trkpt><trkpt lat="46.0961471" lon="10.9359737"><ele>818.0</ele><time>2026-04-25T11:45:11.768Z</time></trkpt><trkpt lat="46.096032" lon="10.9357874"><ele>815.3333333333334</ele><time>2026-04-25T11:45:12.772Z</time></trkpt><trkpt lat="46.0959472" lon="10.9355757"><ele>812.6666666666667</ele><time>2026-04-25T11:45:13.794Z</time></trkpt><trkpt lat="46.0958855" lon="10.9353546"><ele>810.0</ele><time>2026-04-25T11:45:14.762Z</time></trkpt><trkpt lat="46.0958354" lon="10.9351141"><ele>810.0</ele><time>2026-04-25T11:45:15.789Z</time></trkpt><trkpt lat="46.0957894" lon="10.9348958"><ele>810.0</ele><time>2026-04-25T11:45:16.773Z</time></trkpt><trkpt lat="46.0957446" lon="10.9346819"><ele>810.0</ele><time>2026-04-25T11:45:17.763Z</time></trkpt><trkpt lat="46.0957207" lon="10.9344441"><ele>809.0</ele><time>2026-04-25T11:45:18.778Z</time></trkpt><trkpt lat="46.0957369" lon="10.9342109"><ele>808.0</ele><time>2026-04-25T11:45:19.79Z</time></trkpt><trkpt lat="46.0957768" lon="10.9339671"><ele>807.0</ele><time>2026-04-25T11:45:20.806Z</time></trkpt><trkpt lat="46.0958471" lon="10.9337646"><ele>804.0</ele><time>2026-04-25T11:45:21.768Z</time></trkpt><trkpt lat="46.095936" lon="10.9335716"><ele>801.0</ele><time>2026-04-25T11:45:22.765Z</time></trkpt><trkpt lat="46.0960248" lon="10.9333903"><ele>798.0</ele><time>2026-04-25T11:45:23.798Z</time></trkpt><trkpt lat="46.0960897" lon="10.9332195"><ele>798.0</ele><time>2026-04-25T11:45:24.769Z</time></trkpt><trkpt lat="46.0961272" lon="10.9330514"><ele>798.0</ele><time>2026-04-25T11:45:25.781Z</time></trkpt><trkpt lat="46.096149" lon="10.932882"><ele>798.0</ele><time>2026-04-25T11:45:26.774Z</time></trkpt><trkpt lat="46.0961486" lon="10.932711"><ele>798.0</ele><time>2026-04-25T11:45:27.791Z</time></trkpt><trkpt lat="46.096115" lon="10.9324279"><ele>797.3333333333333</ele><time>2026-04-25T11:45:28.784Z</time></trkpt><trkpt lat="46.0960469" lon="10.9322091"><ele>796.6666666666666</ele><time>2026-04-25T11:45:29.79Z</time></trkpt><trkpt lat="46.0959576" lon="10.9319978"><ele>796.0</ele><time>2026-04-25T11:45:30.778Z</time></trkpt><trkpt lat="46.0958496" lon="10.931782"><ele>794.3333333333333</ele><time>2026-04-25T11:45:31.796Z</time></trkpt><trkpt lat="46.095738" lon="10.9315672"><ele>792.6666666666667</ele><time>2026-04-25T11:45:32.787Z</time></trkpt><trkpt lat="46.095633" lon="10.931357"><ele>791.0</ele><time>2026-04-25T11:45:33.762Z</time></trkpt><trkpt lat="46.0955151" lon="10.9311325"><ele>791.0</ele><time>2026-04-25T11:45:34.774Z</time></trkpt><trkpt lat="46.0954033" lon="10.9309188"><ele>791.0</ele><time>2026-04-25T11:45:35.768Z</time></trkpt><trkpt lat="46.095297" lon="10.9307046"><ele>791.0</ele><time>2026-04-25T11:45:36.775Z</time></trkpt><trkpt lat="46.0951901" lon="10.9304872"><ele>788.3333333333334</ele><time>2026-04-25T11:45:37.793Z</time></trkpt><trkpt lat="46.0950931" lon="10.930276"><ele>785.6666666666667</ele><time>2026-04-25T11:45:38.773Z</time></trkpt><trkpt lat="46.0949933" lon="10.9300734"><ele>783.0</ele><time>2026-04-25T11:45:39.766Z</time></trkpt><trkpt lat="46.0948883" lon="10.9298781"><ele>777.3333333333334</ele><time>2026-04-25T11:45:40.77Z</time></trkpt><trkpt lat="46.0947725" lon="10.9296874"><ele>771.6666666666667</ele><time>2026-04-25T11:45:41.772Z</time></trkpt><trkpt lat="46.0946472" lon="10.9294903"><ele>766.0</ele><time>2026-04-25T11:45:42.778Z</time></trkpt><trkpt lat="46.0945195" lon="10.9292982"><ele>771.6666666666667</ele><time>2026-04-25T11:45:43.769Z</time></trkpt><trkpt lat="46.0943872" lon="10.9290972"><ele>777.3333333333334</ele><time>2026-04-25T11:45:44.773Z</time></trkpt><trkpt lat="46.0942594" lon="10.9288933"><ele>783.0</ele><time>2026-04-25T11:45:45.771Z</time></trkpt><trkpt lat="46.0941296" lon="10.9286903"><ele>779.0</ele><time>2026-04-25T11:45:46.783Z</time></trkpt><trkpt lat="46.0939984" lon="10.9284877"><ele>775.0</ele><time>2026-04-25T11:45:47.781Z</time></trkpt><trkpt lat="46.0938658" lon="10.9282929"><ele>771.0</ele><time>2026-04-25T11:45:48.776Z</time></trkpt><trkpt lat="46.0937343" lon="10.9281015"><ele>771.0</ele><time>2026-04-25T11:45:49.774Z</time></trkpt><trkpt lat="46.0935966" lon="10.9279236"><ele>771.0</ele><time>2026-04-25T11:45:50.769Z</time></trkpt><trkpt lat="46.0934548" lon="10.9277482"><ele>771.0</ele><time>2026-04-25T11:45:51.782Z</time></trkpt><trkpt lat="46.093315" lon="10.9275835"><ele>768.6666666666666</ele><time>2026-04-25T11:45:52.795Z</time></trkpt><trkpt lat="46.0931853" lon="10.927431"><ele>766.3333333333333</ele><time>2026-04-25T11:45:53.771Z</time></trkpt><trkpt lat="46.0930644" lon="10.9272764"><ele>764.0</ele><time>2026-04-25T11:45:54.77Z</time></trkpt><trkpt lat="46.0929475" lon="10.9271412"><ele>764.0</ele><time>2026-04-25T11:45:55.773Z</time></trkpt><trkpt lat="46.0928344" lon="10.9270363"><ele>764.0</ele><time>2026-04-25T11:45:56.788Z</time></trkpt><trkpt lat="46.092713" lon="10.926958"><ele>764.0</ele><time>2026-04-25T11:45:57.785Z</time></trkpt><trkpt lat="46.0925842" lon="10.9268827"><ele>764.0</ele><time>2026-04-25T11:45:58.789Z</time></trkpt><trkpt lat="46.0924641" lon="10.9267842"><ele>761.3333333333333</ele><time>2026-04-25T11:45:59.783Z</time></trkpt><trkpt lat="46.0923421" lon="10.9266677"><ele>758.6666666666666</ele><time>2026-04-25T11:46:00.778Z</time></trkpt><trkpt lat="46.092231" lon="10.9265086"><ele>756.0</ele><time>2026-04-25T11:46:01.769Z</time></trkpt><trkpt lat="46.0921329" lon="10.9263384"><ele>756.0</ele><time>2026-04-25T11:46:02.777Z</time></trkpt><trkpt lat="46.09204" lon="10.9261743"><ele>756.0</ele><time>2026-04-25T11:46:03.767Z</time></trkpt><trkpt lat="46.0919366" lon="10.9260268"><ele>756.0</ele><time>2026-04-25T11:46:04.782Z</time></trkpt><trkpt lat="46.0918274" lon="10.9259116"><ele>756.0</ele><time>2026-04-25T11:46:05.773Z</time></trkpt><trkpt lat="46.0917096" lon="10.9257867"><ele>754.25</ele><time>2026-04-25T11:46:06.773Z</time></trkpt><trkpt lat="46.0916107" lon="10.9256382"><ele>752.5</ele><time>2026-04-25T11:46:07.779Z</time></trkpt><trkpt lat="46.0915298" lon="10.9254804"><ele>750.75</ele><time>2026-04-25T11:46:08.772Z</time></trkpt><trkpt lat="46.0914409" lon="10.9253444"><ele>749.0</ele><time>2026-04-25T11:46:09.78Z</time></trkpt><trkpt lat="46.0913432" lon="10.9252383"><ele>749.0</ele><time>2026-04-25T11:46:10.775Z</time></trkpt><trkpt lat="46.0912214" lon="10.9251307"><ele>749.0</ele><time>2026-04-25T11:46:11.784Z</time></trkpt><trkpt lat="46.0910934" lon="10.9250379"><ele>749.0</ele><time>2026-04-25T11:46:12.781Z</time></trkpt><trkpt lat="46.0909711" lon="10.9249284"><ele>749.0</ele><time>2026-04-25T11:46:13.772Z</time></trkpt><trkpt lat="46.0908515" lon="10.9248078"><ele>746.25</ele><time>2026-04-25T11:46:14.783Z</time></trkpt><trkpt lat="46.0907505" lon="10.9246606"><ele>743.5</ele><time>2026-04-25T11:46:15.775Z</time></trkpt><trkpt lat="46.0906647" lon="10.924499"><ele>740.75</ele><time>2026-04-25T11:46:16.762Z</time></trkpt><trkpt lat="46.0905918" lon="10.9243318"><ele>738.0</ele><time>2026-04-25T11:46:17.808Z</time></trkpt><trkpt lat="46.090519" lon="10.9241702"><ele>744.0</ele><time>2026-04-25T11:46:18.791Z</time></trkpt><trkpt lat="46.090439" lon="10.9240404"><ele>750.0</ele><time>2026-04-25T11:46:19.776Z</time></trkpt><trkpt lat="46.0903461" lon="10.9239278"><ele>756.0</ele><time>2026-04-25T11:46:20.786Z</time></trkpt><trkpt lat="46.0902377" lon="10.9238567"><ele>762.0</ele><time>2026-04-25T11:46:21.768Z</time></trkpt><trkpt lat="46.0901113" lon="10.9237711"><ele>762.0</ele><time>2026-04-25T11:46:22.765Z</time></trkpt><trkpt lat="46.089978" lon="10.9237293"><ele>762.0</ele><time>2026-04-25T11:46:23.747Z</time></trkpt><trkpt lat="46.0898317" lon="10.9236663"><ele>762.0</ele><time>2026-04-25T11:46:24.804Z</time></trkpt><trkpt lat="46.0897035" lon="10.9235636"><ele>762.0</ele><time>2026-04-25T11:46:25.78Z</time></trkpt><trkpt lat="46.0895909" lon="10.9234447"><ele>761.5</ele><time>2026-04-25T11:46:26.785Z</time></trkpt><trkpt lat="46.0894923" lon="10.9232983"><ele>761.0</ele><time>2026-04-25T11:46:27.78Z</time></trkpt><trkpt lat="46.0894199" lon="10.9231203"><ele>760.5</ele><time>2026-04-25T11:46:28.79Z</time></trkpt><trkpt lat="46.0893628" lon="10.9229148"><ele>760.0</ele><time>2026-04-25T11:46:29.779Z</time></trkpt><trkpt lat="46.0893061" lon="10.9227005"><ele>752.6666666666667</ele><time>2026-04-25T11:46:30.775Z</time></trkpt><trkpt lat="46.089237" lon="10.922489"><ele>745.3333333333334</ele><time>2026-04-25T11:46:31.792Z</time></trkpt><trkpt lat="46.0891611" lon="10.9222943"><ele>738.0</ele><time>2026-04-25T11:46:32.779Z</time></trkpt><trkpt lat="46.089074" lon="10.9220818"><ele>738.0</ele><time>2026-04-25T11:46:33.77Z</time></trkpt><trkpt lat="46.0889742" lon="10.9218858"><ele>738.0</ele><time>2026-04-25T11:46:34.782Z</time></trkpt><trkpt lat="46.0888668" lon="10.9216802"><ele>738.0</ele><time>2026-04-25T11:46:35.789Z</time></trkpt><trkpt lat="46.0887607" lon="10.9214825"><ele>750.6666666666667</ele><time>2026-04-25T11:46:36.768Z</time></trkpt><trkpt lat="46.0886548" lon="10.9212665"><ele>763.3333333333334</ele><time>2026-04-25T11:46:37.808Z</time></trkpt><trkpt lat="46.0885561" lon="10.9210577"><ele>776.0</ele><time>2026-04-25T11:46:38.767Z</time></trkpt><trkpt lat="46.0884507" lon="10.9208178"><ele>776.0</ele><time>2026-04-25T11:46:39.804Z</time></trkpt><trkpt lat="46.0883183" lon="10.9205007"><ele>776.0</ele><time>2026-04-25T11:46:41.131Z</time></trkpt><trkpt lat="46.0881469" lon="10.920172"><ele>791.6666666666667</ele><time>2026-04-25T11:46:42.834Z</time></trkpt><trkpt lat="46.0880474" lon="10.9199613"><ele>807.3333333333333</ele><time>2026-04-25T11:46:43.822Z</time></trkpt><trkpt lat="46.0879386" lon="10.9197499"><ele>823.0</ele><time>2026-04-25T11:46:44.802Z</time></trkpt><trkpt lat="46.0877997" lon="10.919508"><ele>823.0</ele><time>2026-04-25T11:46:45.814Z</time></trkpt><trkpt lat="46.0876675" lon="10.9192955"><ele>823.0</ele><time>2026-04-25T11:46:46.783Z</time></trkpt><trkpt lat="46.087525" lon="10.9190822"><ele>823.0</ele><time>2026-04-25T11:46:47.792Z</time></trkpt><trkpt lat="46.0873691" lon="10.9188757"><ele>830.0</ele><time>2026-04-25T11:46:48.793Z</time></trkpt><trkpt lat="46.0872313" lon="10.9187304"><ele>837.0</ele><time>2026-04-25T11:46:49.745Z</time></trkpt><trkpt lat="46.0870596" lon="10.9185819"><ele>844.0</ele><time>2026-04-25T11:46:50.719Z</time></trkpt><trkpt lat="46.0868884" lon="10.918454"><ele>776.0</ele><time>2026-04-25T11:46:51.669Z</time></trkpt><trkpt lat="46.0884443" lon="10.9209177"><ele>781.0</ele><time>2026-04-25T11:46:52.638Z</time></trkpt><trkpt lat="46.0833202" lon="10.9170178"><ele>778.6666666666666</ele><time>2026-04-25T11:47:12.611Z</time></trkpt><trkpt lat="46.0831715" lon="10.9169255"><ele>776.3333333333333</ele><time>2026-04-25T11:47:13.611Z</time></trkpt><trkpt lat="46.0830599" lon="10.9167357"><ele>774.0</ele><time>2026-04-25T11:47:14.611Z</time></trkpt><trkpt lat="46.0829564" lon="10.9165304"><ele>774.0</ele><time>2026-04-25T11:47:15.612Z</time></trkpt><trkpt lat="46.0828405" lon="10.9163557"><ele>774.0</ele><time>2026-04-25T11:47:16.835Z</time></trkpt><trkpt lat="46.0827133" lon="10.9162044"><ele>774.0</ele><time>2026-04-25T11:47:17.848Z</time></trkpt><trkpt lat="46.0825696" lon="10.9160707"><ele>774.0</ele><time>2026-04-25T11:47:18.858Z</time></trkpt><trkpt lat="46.0824406" lon="10.9159829"><ele>774.0</ele><time>2026-04-25T11:47:19.788Z</time></trkpt><trkpt lat="46.0822963" lon="10.9159152"><ele>774.0</ele><time>2026-04-25T11:47:20.787Z</time></trkpt><trkpt lat="46.0821419" lon="10.9158699"><ele>776.25</ele><time>2026-04-25T11:47:21.796Z</time></trkpt><trkpt lat="46.0819864" lon="10.9158475"><ele>778.5</ele><time>2026-04-25T11:47:22.794Z</time></trkpt><trkpt lat="46.0818459" lon="10.9158184"><ele>780.75</ele><time>2026-04-25T11:47:23.769Z</time></trkpt><trkpt lat="46.0817022" lon="10.9158007"><ele>783.0</ele><time>2026-04-25T11:47:24.783Z</time></trkpt><trkpt lat="46.0815818" lon="10.9157805"><ele>788.0</ele><time>2026-04-25T11:47:25.789Z</time></trkpt><trkpt lat="46.0814726" lon="10.9157614"><ele>793.0</ele><time>2026-04-25T11:47:26.737Z</time></trkpt><trkpt lat="46.0813616" lon="10.9157307"><ele>798.0</ele><time>2026-04-25T11:47:27.755Z</time></trkpt><trkpt lat="46.0812596" lon="10.9156853"><ele>803.0</ele><time>2026-04-25T11:47:28.771Z</time></trkpt><trkpt lat="46.0811542" lon="10.9156245"><ele>808.0</ele><time>2026-04-25T11:47:29.793Z</time></trkpt><trkpt lat="46.0810551" lon="10.9155403"><ele>808.0</ele><time>2026-04-25T11:47:30.77Z</time></trkpt><trkpt lat="46.0809572" lon="10.9154337"><ele>808.0</ele><time>2026-04-25T11:47:31.776Z</time></trkpt><trkpt lat="46.0808601" lon="10.9153129"><ele>808.0</ele><time>2026-04-25T11:47:32.799Z</time></trkpt><trkpt lat="46.0807709" lon="10.9151935"><ele>808.0</ele><time>2026-04-25T11:47:33.763Z</time></trkpt><trkpt lat="46.0806779" lon="10.9150682"><ele>808.5</ele><time>2026-04-25T11:47:34.784Z</time></trkpt><trkpt lat="46.0805898" lon="10.9149441"><ele>809.0</ele><time>2026-04-25T11:47:35.773Z</time></trkpt><trkpt lat="46.0804991" lon="10.9148131"><ele>809.5</ele><time>2026-04-25T11:47:36.786Z</time></trkpt><trkpt lat="46.0804084" lon="10.914689"><ele>810.0</ele><time>2026-04-25T11:47:37.767Z</time></trkpt><trkpt lat="46.080312" lon="10.9145681"><ele>810.0</ele><time>2026-04-25T11:47:38.79Z</time></trkpt><trkpt lat="46.0802075" lon="10.9144731"><ele>810.0</ele><time>2026-04-25T11:47:39.79Z</time></trkpt><trkpt lat="46.0800937" lon="10.9143905"><ele>810.0</ele><time>2026-04-25T11:47:40.784Z</time></trkpt><trkpt lat="46.0799722" lon="10.9143174"><ele>810.0</ele><time>2026-04-25T11:47:41.79Z</time></trkpt><trkpt lat="46.0798534" lon="10.9142428"><ele>806.5</ele><time>2026-04-25T11:47:42.771Z</time></trkpt><trkpt lat="46.0797254" lon="10.9141605"><ele>803.0</ele><time>2026-04-25T11:47:43.789Z</time></trkpt><trkpt lat="46.0795963" lon="10.9140811"><ele>799.5</ele><time>2026-04-25T11:47:44.802Z</time></trkpt><trkpt lat="46.0794702" lon="10.9140095"><ele>796.0</ele><time>2026-04-25T11:47:45.789Z</time></trkpt><trkpt lat="46.0793484" lon="10.9139272"><ele>796.0</ele><time>2026-04-25T11:47:46.765Z</time></trkpt><trkpt lat="46.0792309" lon="10.9138293"><ele>796.0</ele><time>2026-04-25T11:47:47.771Z</time></trkpt><trkpt lat="46.0791182" lon="10.9137195"><ele>796.0</ele><time>2026-04-25T11:47:48.777Z</time></trkpt><trkpt lat="46.079016" lon="10.9136071"><ele>796.0</ele><time>2026-04-25T11:47:49.787Z</time></trkpt><trkpt lat="46.0789191" lon="10.9135038"><ele>792.25</ele><time>2026-04-25T11:47:50.768Z</time></trkpt><trkpt lat="46.0788226" lon="10.9134003"><ele>788.5</ele><time>2026-04-25T11:47:51.77Z</time></trkpt><trkpt lat="46.0787273" lon="10.9133008"><ele>784.75</ele><time>2026-04-25T11:47:52.776Z</time></trkpt><trkpt lat="46.0786348" lon="10.9132099"><ele>781.0</ele><time>2026-04-25T11:47:53.769Z</time></trkpt><trkpt lat="46.0785374" lon="10.9131142"><ele>781.0</ele><time>2026-04-25T11:47:54.779Z</time></trkpt><trkpt lat="46.0784411" lon="10.9130331"><ele>781.0</ele><time>2026-04-25T11:47:55.767Z</time></trkpt><trkpt lat="46.0783327" lon="10.9129647"><ele>781.0</ele><time>2026-04-25T11:47:56.779Z</time></trkpt><trkpt lat="46.0782142" lon="10.9129212"><ele>781.0</ele><time>2026-04-25T11:47:57.769Z</time></trkpt><trkpt lat="46.0780748" lon="10.9128878"><ele>782.25</ele><time>2026-04-25T11:47:58.787Z</time></trkpt><trkpt lat="46.0779405" lon="10.9128602"><ele>783.5</ele><time>2026-04-25T11:47:59.77Z</time></trkpt><trkpt lat="46.0778019" lon="10.9128287"><ele>784.75</ele><time>2026-04-25T11:48:00.762Z</time></trkpt><trkpt lat="46.0776593" lon="10.9127936"><ele>786.0</ele><time>2026-04-25T11:48:01.794Z</time></trkpt><trkpt lat="46.0775249" lon="10.9127628"><ele>782.75</ele><time>2026-04-25T11:48:02.771Z</time></trkpt><trkpt lat="46.0773859" lon="10.9127327"><ele>779.5</ele><time>2026-04-25T11:48:03.776Z</time></trkpt><trkpt lat="46.0772476" lon="10.9127131"><ele>776.25</ele><time>2026-04-25T11:48:04.785Z</time></trkpt><trkpt lat="46.0771269" lon="10.9127191"><ele>773.0</ele><time>2026-04-25T11:48:05.766Z</time></trkpt><trkpt lat="46.0770223" lon="10.9127588"><ele>773.0</ele><time>2026-04-25T11:48:06.783Z</time></trkpt><trkpt lat="46.0769202" lon="10.9128107"><ele>773.0</ele><time>2026-04-25T11:48:07.775Z</time></trkpt><trkpt lat="46.0768224" lon="10.9128544"><ele>773.0</ele><time>2026-04-25T11:48:08.787Z</time></trkpt><trkpt lat="46.0767292" lon="10.9128624"><ele>773.0</ele><time>2026-04-25T11:48:09.772Z</time></trkpt><trkpt lat="46.0766607" lon="10.9128057"><ele>773.0</ele><time>2026-04-25T11:48:10.787Z</time></trkpt><trkpt lat="46.0766321" lon="10.9127103"><ele>773.0</ele><time>2026-04-25T11:48:11.768Z</time></trkpt><trkpt lat="46.0766325" lon="10.91258"><ele>773.0</ele><time>2026-04-25T11:48:12.755Z</time></trkpt><trkpt lat="46.07668" lon="10.9124299"><ele>773.0</ele><time>2026-04-25T11:48:13.78Z</time></trkpt><trkpt lat="46.0767612" lon="10.912289"><ele>773.0</ele><time>2026-04-25T11:48:14.772Z</time></trkpt><trkpt lat="46.076855" lon="10.9121854"><ele>768.0</ele><time>2026-04-25T11:48:15.784Z</time></trkpt><trkpt lat="46.0769453" lon="10.9120917"><ele>763.0</ele><time>2026-04-25T11:48:16.78Z</time></trkpt><trkpt lat="46.0770027" lon="10.9119992"><ele>758.0</ele><time>2026-04-25T11:48:17.776Z</time></trkpt><trkpt lat="46.0770501" lon="10.9118687"><ele>753.0</ele><time>2026-04-25T11:48:18.772Z</time></trkpt><trkpt lat="46.0770845" lon="10.9117367"><ele>748.0</ele><time>2026-04-25T11:48:19.772Z</time></trkpt><trkpt lat="46.0771035" lon="10.911603"><ele>746.0</ele><time>2026-04-25T11:48:20.787Z</time></trkpt><trkpt lat="46.0771158" lon="10.9114763"><ele>744.0</ele><time>2026-04-25T11:48:21.766Z</time></trkpt><trkpt lat="46.0771261" lon="10.9113383"><ele>742.0</ele><time>2026-04-25T11:48:22.779Z</time></trkpt><trkpt lat="46.0771299" lon="10.9111846"><ele>740.0</ele><time>2026-04-25T11:48:23.784Z</time></trkpt><trkpt lat="46.0769824" lon="10.9107422"><ele>738.5</ele><time>2026-04-25T11:48:24.775Z</time></trkpt><trkpt lat="46.0769646" lon="10.9105418"><ele>737.0</ele><time>2026-04-25T11:48:25.766Z</time></trkpt><trkpt lat="46.0769413" lon="10.9103371"><ele>735.5</ele><time>2026-04-25T11:48:26.785Z</time></trkpt><trkpt lat="46.0769011" lon="10.9101429"><ele>734.0</ele><time>2026-04-25T11:48:27.771Z</time></trkpt><trkpt lat="46.0768508" lon="10.9099667"><ele>733.25</ele><time>2026-04-25T11:48:28.78Z</time></trkpt><trkpt lat="46.0767981" lon="10.9097937"><ele>732.5</ele><time>2026-04-25T11:48:29.799Z</time></trkpt><trkpt lat="46.0767486" lon="10.9096364"><ele>731.75</ele><time>2026-04-25T11:48:30.774Z</time></trkpt><trkpt lat="46.0767076" lon="10.9094706"><ele>731.0</ele><time>2026-04-25T11:48:31.765Z</time></trkpt><trkpt lat="46.0766907" lon="10.9092878"><ele>731.25</ele><time>2026-04-25T11:48:32.793Z</time></trkpt><trkpt lat="46.0766599" lon="10.909104"><ele>731.5</ele><time>2026-04-25T11:48:33.763Z</time></trkpt><trkpt lat="46.0766514" lon="10.9088978"><ele>731.75</ele><time>2026-04-25T11:48:34.787Z</time></trkpt><trkpt lat="46.0766715" lon="10.9086788"><ele>732.0</ele><time>2026-04-25T11:48:35.773Z</time></trkpt><trkpt lat="46.0766928" lon="10.9084128"><ele>731.0</ele><time>2026-04-25T11:48:36.787Z</time></trkpt><trkpt lat="46.0766918" lon="10.9081279"><ele>730.0</ele><time>2026-04-25T11:48:37.772Z</time></trkpt><trkpt lat="46.0766953" lon="10.9078363"><ele>729.0</ele><time>2026-04-25T11:48:38.765Z</time></trkpt><trkpt lat="46.0767052" lon="10.9074479"><ele>724.5</ele><time>2026-04-25T11:48:39.78Z</time></trkpt><trkpt lat="46.076667" lon="10.9069592"><ele>720.0</ele><time>2026-04-25T11:48:40.782Z</time></trkpt><trkpt lat="46.0767063" lon="10.9064831"><ele>720.0</ele><time>2026-04-25T11:48:41.782Z</time></trkpt><trkpt lat="46.076931" lon="10.9075398"><ele>720.0</ele><time>2026-04-25T11:48:42.753Z</time></trkpt><trkpt lat="46.0769682" lon="10.9073829"><ele>720.0</ele><time>2026-04-25T11:48:43.771Z</time></trkpt><trkpt lat="46.0769823" lon="10.9072507"><ele>720.0</ele><time>2026-04-25T11:48:44.783Z</time></trkpt><trkpt lat="46.0769812" lon="10.9071418"><ele>720.0</ele><time>2026-04-25T11:48:45.784Z</time></trkpt><trkpt lat="46.0769402" lon="10.907047"><ele>720.0</ele><time>2026-04-25T11:48:46.785Z</time></trkpt><trkpt lat="46.0768702" lon="10.9069673"><ele>720.0</ele><time>2026-04-25T11:48:47.779Z</time></trkpt><trkpt lat="46.0767559" lon="10.9069325"><ele>720.0</ele><time>2026-04-25T11:48:48.782Z</time></trkpt><trkpt lat="46.0766606" lon="10.9069432"><ele>720.0</ele><time>2026-04-25T11:48:49.77Z</time></trkpt><trkpt lat="46.0765693" lon="10.9069915"><ele>720.0</ele><time>2026-04-25T11:48:50.795Z</time></trkpt><trkpt lat="46.0764535" lon="10.9070582"><ele>720.0</ele><time>2026-04-25T11:48:51.777Z</time></trkpt><trkpt lat="46.0763184" lon="10.9071367"><ele>718.0</ele><time>2026-04-25T11:48:52.778Z</time></trkpt><trkpt lat="46.0762114" lon="10.9072437"><ele>716.0</ele><time>2026-04-25T11:48:53.792Z</time></trkpt><trkpt lat="46.0761962" lon="10.9074189"><ele>714.0</ele><time>2026-04-25T11:48:54.793Z</time></trkpt><trkpt lat="46.0763166" lon="10.9076691"><ele>714.0</ele><time>2026-04-25T11:48:55.78Z</time></trkpt><trkpt lat="46.0762973" lon="10.9078175"><ele>714.0</ele><time>2026-04-25T11:48:56.771Z</time></trkpt><trkpt lat="46.0762442" lon="10.9079162"><ele>714.0</ele><time>2026-04-25T11:48:57.787Z</time></trkpt><trkpt lat="46.0761737" lon="10.9079784"><ele>714.0</ele><time>2026-04-25T11:48:58.773Z</time></trkpt><trkpt lat="46.0761019" lon="10.9080077"><ele>714.0</ele><time>2026-04-25T11:48:59.786Z</time></trkpt><trkpt lat="46.0760257" lon="10.9080167"><ele>714.0</ele><time>2026-04-25T11:49:01.102Z</time></trkpt><trkpt lat="46.0759909" lon="10.9079155"><ele>714.0</ele><time>2026-04-25T11:49:02.791Z</time></trkpt><trkpt lat="46.0759347" lon="10.9077955"><ele>714.0</ele><time>2026-04-25T11:49:03.793Z</time></trkpt><trkpt lat="46.0758877" lon="10.9076122"><ele>714.0</ele><time>2026-04-25T11:49:04.827Z</time></trkpt><trkpt lat="46.0758773" lon="10.9073671"><ele>714.0</ele><time>2026-04-25T11:49:05.84Z</time></trkpt><trkpt lat="46.0758408" lon="10.9070863"><ele>709.5</ele><time>2026-04-25T11:49:06.825Z</time></trkpt><trkpt lat="46.0757902" lon="10.906731"><ele>705.0</ele><time>2026-04-25T11:49:07.83Z</time></trkpt><trkpt lat="46.0757372" lon="10.9063661"><ele>699.6666666666666</ele><time>2026-04-25T11:49:08.859Z</time></trkpt><trkpt lat="46.0756717" lon="10.9060443"><ele>694.3333333333333</ele><time>2026-04-25T11:49:09.833Z</time></trkpt><trkpt lat="46.0755866" lon="10.9057585"><ele>689.0</ele><time>2026-04-25T11:49:10.847Z</time></trkpt><trkpt lat="46.0755086" lon="10.9055706"><ele>688.0</ele><time>2026-04-25T11:49:11.851Z</time></trkpt><trkpt lat="46.0754178" lon="10.9053965"><ele>687.0</ele><time>2026-04-25T11:49:13.822Z</time></trkpt><trkpt lat="46.0753535" lon="10.9051779"><ele>686.0</ele><time>2026-04-25T11:49:14.837Z</time></trkpt><trkpt lat="46.0752845" lon="10.9049615"><ele>686.0</ele><time>2026-04-25T11:49:15.833Z</time></trkpt><trkpt lat="46.0752068" lon="10.9047414"><ele>686.0</ele><time>2026-04-25T11:49:16.842Z</time></trkpt><trkpt lat="46.0751254" lon="10.904528"><ele>686.0</ele><time>2026-04-25T11:49:17.838Z</time></trkpt><trkpt lat="46.0750389" lon="10.9043126"><ele>686.3333333333333</ele><time>2026-04-25T11:49:18.82Z</time></trkpt><trkpt lat="46.0749497" lon="10.9040966"><ele>686.6666666666666</ele><time>2026-04-25T11:49:19.788Z</time></trkpt><trkpt lat="46.0748539" lon="10.9038662"><ele>687.0</ele><time>2026-04-25T11:49:20.805Z</time></trkpt><trkpt lat="46.0747585" lon="10.9036343"><ele>681.0</ele><time>2026-04-25T11:49:21.832Z</time></trkpt><trkpt lat="46.0746719" lon="10.9034227"><ele>675.0</ele><time>2026-04-25T11:49:22.775Z</time></trkpt><trkpt lat="46.0745817" lon="10.9031994"><ele>669.0</ele><time>2026-04-25T11:49:23.798Z</time></trkpt><trkpt lat="46.0745001" lon="10.9029816"><ele>669.0</ele><time>2026-04-25T11:49:24.776Z</time></trkpt><trkpt lat="46.0744212" lon="10.9027632"><ele>669.0</ele><time>2026-04-25T11:49:25.763Z</time></trkpt><trkpt lat="46.0743462" lon="10.9025473"><ele>669.0</ele><time>2026-04-25T11:49:26.769Z</time></trkpt><trkpt lat="46.0742763" lon="10.9023176"><ele>668.6666666666666</ele><time>2026-04-25T11:49:27.802Z</time></trkpt><trkpt lat="46.07421" lon="10.9020947"><ele>668.3333333333333</ele><time>2026-04-25T11:49:28.802Z</time></trkpt><trkpt lat="46.0741504" lon="10.9018778"><ele>668.0</ele><time>2026-04-25T11:49:29.793Z</time></trkpt><trkpt lat="46.0740921" lon="10.9016675"><ele>661.0</ele><time>2026-04-25T11:49:30.761Z</time></trkpt><trkpt lat="46.0740317" lon="10.9014503"><ele>654.0</ele><time>2026-04-25T11:49:31.769Z</time></trkpt><trkpt lat="46.0739634" lon="10.9012329"><ele>647.0</ele><time>2026-04-25T11:49:32.795Z</time></trkpt><trkpt lat="46.073901" lon="10.9010321"><ele>647.0</ele><time>2026-04-25T11:49:33.764Z</time></trkpt><trkpt lat="46.0738403" lon="10.9008115"><ele>647.0</ele><time>2026-04-25T11:49:34.758Z</time></trkpt><trkpt lat="46.0737812" lon="10.9005944"><ele>647.0</ele><time>2026-04-25T11:49:35.771Z</time></trkpt><trkpt lat="46.0737181" lon="10.9003646"><ele>647.0</ele><time>2026-04-25T11:49:36.778Z</time></trkpt><trkpt lat="46.0736558" lon="10.9001319"><ele>647.0</ele><time>2026-04-25T11:49:37.787Z</time></trkpt><trkpt lat="46.073594" lon="10.8998969"><ele>647.0</ele><time>2026-04-25T11:49:38.777Z</time></trkpt><trkpt lat="46.0735366" lon="10.8996664"><ele>649.0</ele><time>2026-04-25T11:49:39.772Z</time></trkpt><trkpt lat="46.0734734" lon="10.8994331"><ele>651.0</ele><time>2026-04-25T11:49:40.751Z</time></trkpt><trkpt lat="46.0734124" lon="10.8991943"><ele>653.0</ele><time>2026-04-25T11:49:41.786Z</time></trkpt><trkpt lat="46.0733595" lon="10.8989738"><ele>653.25</ele><time>2026-04-25T11:49:42.781Z</time></trkpt><trkpt lat="46.0733156" lon="10.89876"><ele>653.5</ele><time>2026-04-25T11:49:43.797Z</time></trkpt><trkpt lat="46.0732854" lon="10.8985724"><ele>653.75</ele><time>2026-04-25T11:49:44.777Z</time></trkpt><trkpt lat="46.0732756" lon="10.8983865"><ele>654.0</ele><time>2026-04-25T11:49:45.784Z</time></trkpt><trkpt lat="46.0732823" lon="10.8981985"><ele>652.75</ele><time>2026-04-25T11:49:46.799Z</time></trkpt><trkpt lat="46.0733213" lon="10.898025"><ele>651.5</ele><time>2026-04-25T11:49:47.79Z</time></trkpt><trkpt lat="46.0733762" lon="10.8978727"><ele>650.25</ele><time>2026-04-25T11:49:48.781Z</time></trkpt><trkpt lat="46.0734221" lon="10.8977113"><ele>649.0</ele><time>2026-04-25T11:49:49.765Z</time></trkpt><trkpt lat="46.0734454" lon="10.8975733"><ele>648.0</ele><time>2026-04-25T11:49:50.77Z</time></trkpt><trkpt lat="46.0734579" lon="10.8974026"><ele>647.0</ele><time>2026-04-25T11:49:51.767Z</time></trkpt><trkpt lat="46.073399" lon="10.8973331"><ele>646.0</ele><time>2026-04-25T11:49:52.757Z</time></trkpt><trkpt lat="46.0733589" lon="10.8972277"><ele>645.0</ele><time>2026-04-25T11:49:53.785Z</time></trkpt><trkpt lat="46.0733502" lon="10.8971041"><ele>644.0</ele><time>2026-04-25T11:49:55.783Z</time></trkpt><trkpt lat="46.073389" lon="10.8969158"><ele>644.0</ele><time>2026-04-25T11:49:57.796Z</time></trkpt><trkpt lat="46.0734302" lon="10.8967543"><ele>644.0</ele><time>2026-04-25T11:49:58.795Z</time></trkpt><trkpt lat="46.073344" lon="10.8967314"><ele>644.0</ele><time>2026-04-25T11:49:59.78Z</time></trkpt><trkpt lat="46.0733995" lon="10.8966778"><ele>644.0</ele><time>2026-04-25T11:50:02.764Z</time></trkpt><trkpt lat="46.0734169" lon="10.8965482"><ele>644.0</ele><time>2026-04-25T11:50:03.786Z</time></trkpt><trkpt lat="46.073453" lon="10.8963721"><ele>644.0</ele><time>2026-04-25T11:50:04.797Z</time></trkpt><trkpt lat="46.0735517" lon="10.8961524"><ele>644.0</ele><time>2026-04-25T11:50:05.811Z</time></trkpt><trkpt lat="46.0736499" lon="10.8959191"><ele>644.0</ele><time>2026-04-25T11:50:06.761Z</time></trkpt><trkpt lat="46.0737596" lon="10.8956421"><ele>644.0</ele><time>2026-04-25T11:50:07.765Z</time></trkpt><trkpt lat="46.0733754" lon="10.8957522"><ele>644.0</ele><time>2026-04-25T11:50:08.791Z</time></trkpt><trkpt lat="46.07338" lon="10.895582"><ele>644.0</ele><time>2026-04-25T11:50:09.774Z</time></trkpt><trkpt lat="46.0733826" lon="10.8953965"><ele>644.0</ele><time>2026-04-25T11:50:10.788Z</time></trkpt><trkpt lat="46.0733717" lon="10.8952271"><ele>644.0</ele><time>2026-04-25T11:50:11.776Z</time></trkpt><trkpt lat="46.0733488" lon="10.8950396"><ele>644.0</ele><time>2026-04-25T11:50:12.784Z</time></trkpt><trkpt lat="46.0733234" lon="10.8948582"><ele>642.75</ele><time>2026-04-25T11:50:13.768Z</time></trkpt><trkpt lat="46.0732967" lon="10.8946784"><ele>641.5</ele><time>2026-04-25T11:50:14.815Z</time></trkpt><trkpt lat="46.0732713" lon="10.8945024"><ele>640.25</ele><time>2026-04-25T11:50:15.785Z</time></trkpt><trkpt lat="46.0732484" lon="10.8943459"><ele>639.0</ele><time>2026-04-25T11:50:16.794Z</time></trkpt><trkpt lat="46.07322" lon="10.8941807"><ele>634.4</ele><time>2026-04-25T11:50:17.817Z</time></trkpt><trkpt lat="46.0731902" lon="10.8940509"><ele>629.8</ele><time>2026-04-25T11:50:18.781Z</time></trkpt><trkpt lat="46.0731496" lon="10.8939364"><ele>625.2</ele><time>2026-04-25T11:50:19.788Z</time></trkpt><trkpt lat="46.0730852" lon="10.8938539"><ele>620.6</ele><time>2026-04-25T11:50:20.799Z</time></trkpt><trkpt lat="46.0729965" lon="10.8938478"><ele>616.0</ele><time>2026-04-25T11:50:21.771Z</time></trkpt><trkpt lat="46.0729015" lon="10.8938843"><ele>616.0</ele><time>2026-04-25T11:50:22.785Z</time></trkpt><trkpt lat="46.0728236" lon="10.8939733"><ele>616.0</ele><time>2026-04-25T11:50:23.789Z</time></trkpt><trkpt lat="46.0727767" lon="10.8940891"><ele>616.0</ele><time>2026-04-25T11:50:24.776Z</time></trkpt><trkpt lat="46.0727718" lon="10.8942301"><ele>616.0</ele><time>2026-04-25T11:50:25.775Z</time></trkpt><trkpt lat="46.0727983" lon="10.8943729"><ele>616.0</ele><time>2026-04-25T11:50:26.771Z</time></trkpt><trkpt lat="46.072801" lon="10.8945135"><ele>616.0</ele><time>2026-04-25T11:50:27.774Z</time></trkpt><trkpt lat="46.0727697" lon="10.8946265"><ele>616.0</ele><time>2026-04-25T11:50:28.787Z</time></trkpt><trkpt lat="46.0726967" lon="10.8946676"><ele>616.0</ele><time>2026-04-25T11:50:29.783Z</time></trkpt><trkpt lat="46.0726329" lon="10.8946164"><ele>616.0</ele><time>2026-04-25T11:50:30.782Z</time></trkpt><trkpt lat="46.0725652" lon="10.8945137"><ele>616.0</ele><time>2026-04-25T11:50:31.784Z</time></trkpt><trkpt lat="46.0725255" lon="10.8943672"><ele>616.0</ele><time>2026-04-25T11:50:32.779Z</time></trkpt><trkpt lat="46.0725232" lon="10.8942166"><ele>616.0</ele><time>2026-04-25T11:50:33.783Z</time></trkpt><trkpt lat="46.0725485" lon="10.8940767"><ele>616.0</ele><time>2026-04-25T11:50:34.774Z</time></trkpt><trkpt lat="46.0725975" lon="10.8939486"><ele>616.0</ele><time>2026-04-25T11:50:35.79Z</time></trkpt><trkpt lat="46.072667" lon="10.8938124"><ele>616.0</ele><time>2026-04-25T11:50:36.784Z</time></trkpt><trkpt lat="46.0727592" lon="10.8937063"><ele>616.0</ele><time>2026-04-25T11:50:37.787Z</time></trkpt><trkpt lat="46.0728629" lon="10.8936325"><ele>616.0</ele><time>2026-04-25T11:50:38.781Z</time></trkpt><trkpt lat="46.0729671" lon="10.8936088"><ele>616.0</ele><time>2026-04-25T11:50:39.774Z</time></trkpt><trkpt lat="46.0730779" lon="10.8936063"><ele>616.0</ele><time>2026-04-25T11:50:40.763Z</time></trkpt><trkpt lat="46.0731999" lon="10.8936195"><ele>616.0</ele><time>2026-04-25T11:50:41.776Z</time></trkpt><trkpt lat="46.0733272" lon="10.8936295"><ele>622.3333333333334</ele><time>2026-04-25T11:50:42.791Z</time></trkpt><trkpt lat="46.073425" lon="10.8936692"><ele>628.6666666666666</ele><time>2026-04-25T11:50:43.753Z</time></trkpt><trkpt lat="46.0737062" lon="10.8936926"><ele>635.0</ele><time>2026-04-25T11:50:45.615Z</time></trkpt><trkpt lat="46.0738597" lon="10.8937177"><ele>635.0</ele><time>2026-04-25T11:50:46.615Z</time></trkpt><trkpt lat="46.0739996" lon="10.8937595"><ele>635.0</ele><time>2026-04-25T11:50:47.616Z</time></trkpt><trkpt lat="46.07414" lon="10.8938188"><ele>635.0</ele><time>2026-04-25T11:50:48.785Z</time></trkpt><trkpt lat="46.0742826" lon="10.893876"><ele>635.0</ele><time>2026-04-25T11:50:49.787Z</time></trkpt><trkpt lat="46.0744146" lon="10.8939245"><ele>635.25</ele><time>2026-04-25T11:50:50.776Z</time></trkpt><trkpt lat="46.0745438" lon="10.8939993"><ele>635.5</ele><time>2026-04-25T11:50:51.783Z</time></trkpt><trkpt lat="46.0746528" lon="10.8941022"><ele>635.75</ele><time>2026-04-25T11:50:52.775Z</time></trkpt><trkpt lat="46.0747491" lon="10.8942297"><ele>636.0</ele><time>2026-04-25T11:50:53.788Z</time></trkpt><trkpt lat="46.074828" lon="10.8943466"><ele>637.4</ele><time>2026-04-25T11:50:54.788Z</time></trkpt><trkpt lat="46.0749058" lon="10.8944542"><ele>638.8</ele><time>2026-04-25T11:50:55.759Z</time></trkpt><trkpt lat="46.0749773" lon="10.8945221"><ele>640.1999999999999</ele><time>2026-04-25T11:50:56.766Z</time></trkpt><trkpt lat="46.075066" lon="10.8945478"><ele>641.6</ele><time>2026-04-25T11:50:57.776Z</time></trkpt><trkpt lat="46.0751422" lon="10.894525"><ele>643.0</ele><time>2026-04-25T11:50:58.802Z</time></trkpt><trkpt lat="46.0752327" lon="10.8944516"><ele>643.0</ele><time>2026-04-25T11:50:59.774Z</time></trkpt><trkpt lat="46.0752895" lon="10.8943271"><ele>643.0</ele><time>2026-04-25T11:51:00.776Z</time></trkpt><trkpt lat="46.0753206" lon="10.8941758"><ele>643.0</ele><time>2026-04-25T11:51:01.782Z</time></trkpt><trkpt lat="46.0753169" lon="10.8940091"><ele>643.0</ele><time>2026-04-25T11:51:02.777Z</time></trkpt><trkpt lat="46.0752945" lon="10.8938293"><ele>637.0</ele><time>2026-04-25T11:51:03.764Z</time></trkpt><trkpt lat="46.0752986" lon="10.8936455"><ele>631.0</ele><time>2026-04-25T11:51:04.787Z</time></trkpt><trkpt lat="46.0753321" lon="10.8934523"><ele>625.0</ele><time>2026-04-25T11:51:05.812Z</time></trkpt><trkpt lat="46.0753881" lon="10.8932577"><ele>619.0</ele><time>2026-04-25T11:51:06.798Z</time></trkpt><trkpt lat="46.0754553" lon="10.8930609"><ele>610.3333333333334</ele><time>2026-04-25T11:51:07.786Z</time></trkpt><trkpt lat="46.0755307" lon="10.8928662"><ele>601.6666666666666</ele><time>2026-04-25T11:51:08.779Z</time></trkpt><trkpt lat="46.0756024" lon="10.8926622"><ele>593.0</ele><time>2026-04-25T11:51:09.786Z</time></trkpt><trkpt lat="46.0756811" lon="10.8924744"><ele>595.75</ele><time>2026-04-25T11:51:10.784Z</time></trkpt><trkpt lat="46.075762" lon="10.8922894"><ele>598.5</ele><time>2026-04-25T11:51:11.79Z</time></trkpt><trkpt lat="46.0758433" lon="10.8921158"><ele>601.25</ele><time>2026-04-25T11:51:12.791Z</time></trkpt><trkpt lat="46.0759246" lon="10.8919384"><ele>604.0</ele><time>2026-04-25T11:51:13.793Z</time></trkpt><trkpt lat="46.0760054" lon="10.8917667"><ele>599.5</ele><time>2026-04-25T11:51:14.783Z</time></trkpt><trkpt lat="46.0760714" lon="10.8916095"><ele>595.0</ele><time>2026-04-25T11:51:15.775Z</time></trkpt><trkpt lat="46.0761031" lon="10.8914546"><ele>590.5</ele><time>2026-04-25T11:51:16.765Z</time></trkpt><trkpt lat="46.0760998" lon="10.8912887"><ele>586.0</ele><time>2026-04-25T11:51:17.783Z</time></trkpt><trkpt lat="46.0760603" lon="10.8911358"><ele>586.0</ele><time>2026-04-25T11:51:18.791Z</time></trkpt><trkpt lat="46.0759852" lon="10.8910044"><ele>586.0</ele><time>2026-04-25T11:51:19.776Z</time></trkpt><trkpt lat="46.0758891" lon="10.8909272"><ele>586.0</ele><time>2026-04-25T11:51:20.784Z</time></trkpt><trkpt lat="46.0757798" lon="10.8909022"><ele>586.0</ele><time>2026-04-25T11:51:21.774Z</time></trkpt><trkpt lat="46.0756598" lon="10.8909197"><ele>583.25</ele><time>2026-04-25T11:51:22.773Z</time></trkpt><trkpt lat="46.0755283" lon="10.8909642"><ele>580.5</ele><time>2026-04-25T11:51:23.786Z</time></trkpt><trkpt lat="46.0753945" lon="10.890998"><ele>577.75</ele><time>2026-04-25T11:51:24.783Z</time></trkpt><trkpt lat="46.0752555" lon="10.8910063"><ele>575.0</ele><time>2026-04-25T11:51:25.779Z</time></trkpt><trkpt lat="46.0751102" lon="10.8909713"><ele>580.75</ele><time>2026-04-25T11:51:26.78Z</time></trkpt><trkpt lat="46.0749658" lon="10.8909219"><ele>586.5</ele><time>2026-04-25T11:51:27.779Z</time></trkpt><trkpt lat="46.074824" lon="10.8908639"><ele>592.25</ele><time>2026-04-25T11:51:28.787Z</time></trkpt><trkpt lat="46.0746933" lon="10.8908287"><ele>598.0</ele><time>2026-04-25T11:51:29.778Z</time></trkpt><trkpt lat="46.0745731" lon="10.8908251"><ele>598.0</ele><time>2026-04-25T11:51:30.801Z</time></trkpt><trkpt lat="46.0744687" lon="10.8908724"><ele>598.0</ele><time>2026-04-25T11:51:31.803Z</time></trkpt><trkpt lat="46.0743839" lon="10.890963"><ele>598.0</ele><time>2026-04-25T11:51:32.775Z</time></trkpt><trkpt lat="46.0742991" lon="10.891069"><ele>598.0</ele><time>2026-04-25T11:51:33.789Z</time></trkpt><trkpt lat="46.0742122" lon="10.891129"><ele>598.0</ele><time>2026-04-25T11:51:34.787Z</time></trkpt><trkpt lat="46.0741221" lon="10.8911553"><ele>589.75</ele><time>2026-04-25T11:51:35.782Z</time></trkpt><trkpt lat="46.0740202" lon="10.8911319"><ele>581.5</ele><time>2026-04-25T11:51:36.788Z</time></trkpt><trkpt lat="46.0739032" lon="10.8911012"><ele>573.25</ele><time>2026-04-25T11:51:37.789Z</time></trkpt><trkpt lat="46.0737736" lon="10.8910857"><ele>565.0</ele><time>2026-04-25T11:51:38.786Z</time></trkpt><trkpt lat="46.0736459" lon="10.8910765"><ele>565.0</ele><time>2026-04-25T11:51:39.802Z</time></trkpt><trkpt lat="46.0735254" lon="10.8910426"><ele>565.0</ele><time>2026-04-25T11:51:40.762Z</time></trkpt><trkpt lat="46.0734082" lon="10.890951"><ele>565.0</ele><time>2026-04-25T11:51:41.775Z</time></trkpt><trkpt lat="46.0732732" lon="10.8908276"><ele>565.0</ele><time>2026-04-25T11:51:42.789Z</time></trkpt><trkpt lat="46.0731468" lon="10.8907098"><ele>568.25</ele><time>2026-04-25T11:51:43.786Z</time></trkpt><trkpt lat="46.0730317" lon="10.8905958"><ele>571.5</ele><time>2026-04-25T11:51:44.763Z</time></trkpt><trkpt lat="46.0729064" lon="10.8904842"><ele>574.75</ele><time>2026-04-25T11:51:45.797Z</time></trkpt><trkpt lat="46.0727777" lon="10.8904108"><ele>578.0</ele><time>2026-04-25T11:51:46.76Z</time></trkpt><trkpt lat="46.072624" lon="10.8903764"><ele>578.0</ele><time>2026-04-25T11:51:47.771Z</time></trkpt><trkpt lat="46.072453" lon="10.8903863"><ele>578.0</ele><time>2026-04-25T11:51:48.785Z</time></trkpt><trkpt lat="46.072273" lon="10.8904243"><ele>578.0</ele><time>2026-04-25T11:51:49.776Z</time></trkpt><trkpt lat="46.0720992" lon="10.8904753"><ele>581.6666666666666</ele><time>2026-04-25T11:51:50.787Z</time></trkpt><trkpt lat="46.0719405" lon="10.8905181"><ele>585.3333333333334</ele><time>2026-04-25T11:51:51.805Z</time></trkpt><trkpt lat="46.0717953" lon="10.8905573"><ele>589.0</ele><time>2026-04-25T11:51:52.791Z</time></trkpt><trkpt lat="46.0716461" lon="10.8905942"><ele>592.0</ele><time>2026-04-25T11:51:53.789Z</time></trkpt><trkpt lat="46.0714913" lon="10.8906308"><ele>595.0</ele><time>2026-04-25T11:51:54.787Z</time></trkpt><trkpt lat="46.071336" lon="10.8906786"><ele>598.0</ele><time>2026-04-25T11:51:55.784Z</time></trkpt><trkpt lat="46.071188" lon="10.8907331"><ele>598.0</ele><time>2026-04-25T11:51:56.754Z</time></trkpt><trkpt lat="46.0710326" lon="10.8908216"><ele>598.0</ele><time>2026-04-25T11:51:57.805Z</time></trkpt><trkpt lat="46.0708925" lon="10.8909276"><ele>598.0</ele><time>2026-04-25T11:51:58.795Z</time></trkpt><trkpt lat="46.0707565" lon="10.8910374"><ele>593.3333333333334</ele><time>2026-04-25T11:51:59.76Z</time></trkpt><trkpt lat="46.0706134" lon="10.8911543"><ele>588.6666666666666</ele><time>2026-04-25T11:52:00.799Z</time></trkpt><trkpt lat="46.0704791" lon="10.8912535"><ele>584.0</ele><time>2026-04-25T11:52:01.774Z</time></trkpt><trkpt lat="46.0703449" lon="10.891336"><ele>584.0</ele><time>2026-04-25T11:52:02.796Z</time></trkpt><trkpt lat="46.07019" lon="10.8913878"><ele>584.0</ele><time>2026-04-25T11:52:03.781Z</time></trkpt><trkpt lat="46.0700355" lon="10.8913941"><ele>584.0</ele><time>2026-04-25T11:52:04.786Z</time></trkpt><trkpt lat="46.0698766" lon="10.8913906"><ele>585.25</ele><time>2026-04-25T11:52:05.805Z</time></trkpt><trkpt lat="46.0697257" lon="10.8914098"><ele>586.5</ele><time>2026-04-25T11:52:06.772Z</time></trkpt><trkpt lat="46.0695874" lon="10.891472"><ele>587.75</ele><time>2026-04-25T11:52:07.781Z</time></trkpt><trkpt lat="46.069471" lon="10.8915581"><ele>589.0</ele><time>2026-04-25T11:52:08.776Z</time></trkpt><trkpt lat="46.069346" lon="10.8916497"><ele>589.0</ele><time>2026-04-25T11:52:09.792Z</time></trkpt><trkpt lat="46.0692215" lon="10.8917021"><ele>589.0</ele><time>2026-04-25T11:52:10.783Z</time></trkpt><trkpt lat="46.0690785" lon="10.8916991"><ele>589.0</ele><time>2026-04-25T11:52:11.784Z</time></trkpt><trkpt lat="46.068929" lon="10.8916396"><ele>589.0</ele><time>2026-04-25T11:52:12.786Z</time></trkpt><trkpt lat="46.068776" lon="10.8916078"><ele>588.0</ele><time>2026-04-25T11:52:13.775Z</time></trkpt><trkpt lat="46.068613" lon="10.8915954"><ele>587.0</ele><time>2026-04-25T11:52:14.779Z</time></trkpt><trkpt lat="46.0684529" lon="10.8916135"><ele>586.0</ele><time>2026-04-25T11:52:15.764Z</time></trkpt><trkpt lat="46.0682833" lon="10.8916401"><ele>588.3333333333334</ele><time>2026-04-25T11:52:16.788Z</time></trkpt><trkpt lat="46.0681213" lon="10.8916744"><ele>590.6666666666666</ele><time>2026-04-25T11:52:17.764Z</time></trkpt><trkpt lat="46.0679637" lon="10.8917055"><ele>593.0</ele><time>2026-04-25T11:52:18.787Z</time></trkpt><trkpt lat="46.0678189" lon="10.891739"><ele>594.75</ele><time>2026-04-25T11:52:19.803Z</time></trkpt><trkpt lat="46.0676912" lon="10.8918023"><ele>596.5</ele><time>2026-04-25T11:52:20.789Z</time></trkpt><trkpt lat="46.0675686" lon="10.8919041"><ele>598.25</ele><time>2026-04-25T11:52:21.803Z</time></trkpt><trkpt lat="46.0674618" lon="10.8920395"><ele>600.0</ele><time>2026-04-25T11:52:22.783Z</time></trkpt><trkpt lat="46.0673546" lon="10.8922169"><ele>600.0</ele><time>2026-04-25T11:52:23.792Z</time></trkpt><trkpt lat="46.0672535" lon="10.8924197"><ele>600.0</ele><time>2026-04-25T11:52:24.779Z</time></trkpt><trkpt lat="46.06716" lon="10.8926377"><ele>600.0</ele><time>2026-04-25T11:52:25.802Z</time></trkpt><trkpt lat="46.0670822" lon="10.89283"><ele>597.75</ele><time>2026-04-25T11:52:26.77Z</time></trkpt><trkpt lat="46.0670016" lon="10.893022"><ele>595.5</ele><time>2026-04-25T11:52:27.788Z</time></trkpt><trkpt lat="46.0669268" lon="10.8931926"><ele>593.25</ele><time>2026-04-25T11:52:28.787Z</time></trkpt><trkpt lat="46.0668496" lon="10.8933521"><ele>591.0</ele><time>2026-04-25T11:52:29.78Z</time></trkpt><trkpt lat="46.0667638" lon="10.8934892"><ele>584.75</ele><time>2026-04-25T11:52:30.787Z</time></trkpt><trkpt lat="46.0666592" lon="10.8935908"><ele>578.5</ele><time>2026-04-25T11:52:31.78Z</time></trkpt><trkpt lat="46.0665284" lon="10.8936559"><ele>572.25</ele><time>2026-04-25T11:52:32.798Z</time></trkpt><trkpt lat="46.0663872" lon="10.8936715"><ele>566.0</ele><time>2026-04-25T11:52:33.797Z</time></trkpt><trkpt lat="46.0662405" lon="10.8936572"><ele>566.0</ele><time>2026-04-25T11:52:34.79Z</time></trkpt><trkpt lat="46.0660781" lon="10.8936318"><ele>566.0</ele><time>2026-04-25T11:52:35.78Z</time></trkpt><trkpt lat="46.0659188" lon="10.893583"><ele>566.0</ele><time>2026-04-25T11:52:36.794Z</time></trkpt><trkpt lat="46.0657662" lon="10.8935174"><ele>562.3333333333333</ele><time>2026-04-25T11:52:37.78Z</time></trkpt><trkpt lat="46.0656191" lon="10.8934356"><ele>558.6666666666666</ele><time>2026-04-25T11:52:38.777Z</time></trkpt><trkpt lat="46.0654859" lon="10.8933284"><ele>555.0</ele><time>2026-04-25T11:52:39.793Z</time></trkpt><trkpt lat="46.0653638" lon="10.893207"><ele>562.3333333333334</ele><time>2026-04-25T11:52:40.791Z</time></trkpt><trkpt lat="46.0652556" lon="10.8930531"><ele>569.6666666666667</ele><time>2026-04-25T11:52:41.793Z</time></trkpt><trkpt lat="46.06516" lon="10.8928832"><ele>577.0</ele><time>2026-04-25T11:52:42.783Z</time></trkpt><trkpt lat="46.0650685" lon="10.8926921"><ele>576.25</ele><time>2026-04-25T11:52:43.803Z</time></trkpt><trkpt lat="46.064996" lon="10.8925103"><ele>575.5</ele><time>2026-04-25T11:52:44.817Z</time></trkpt><trkpt lat="46.0649345" lon="10.8923368"><ele>574.75</ele><time>2026-04-25T11:52:45.787Z</time></trkpt><trkpt lat="46.0648722" lon="10.8921682"><ele>574.0</ele><time>2026-04-25T11:52:46.773Z</time></trkpt><trkpt lat="46.0648015" lon="10.8920065"><ele>574.0</ele><time>2026-04-25T11:52:47.757Z</time></trkpt><trkpt lat="46.0647084" lon="10.8918556"><ele>574.0</ele><time>2026-04-25T11:52:48.801Z</time></trkpt><trkpt lat="46.0646035" lon="10.8917294"><ele>574.0</ele><time>2026-04-25T11:52:49.782Z</time></trkpt><trkpt lat="46.0644787" lon="10.8916192"><ele>574.0</ele><time>2026-04-25T11:52:50.781Z</time></trkpt><trkpt lat="46.0643437" lon="10.8915329"><ele>576.0</ele><time>2026-04-25T11:52:51.781Z</time></trkpt><trkpt lat="46.0642196" lon="10.8914532"><ele>578.0</ele><time>2026-04-25T11:52:52.769Z</time></trkpt><trkpt lat="46.0641053" lon="10.891358"><ele>580.0</ele><time>2026-04-25T11:52:53.78Z</time></trkpt><trkpt lat="46.0640208" lon="10.8912319"><ele>582.0</ele><time>2026-04-25T11:52:54.776Z</time></trkpt><trkpt lat="46.0639527" lon="10.891062"><ele>577.6666666666666</ele><time>2026-04-25T11:52:55.78Z</time></trkpt><trkpt lat="46.0639114" lon="10.8908528"><ele>573.3333333333333</ele><time>2026-04-25T11:52:56.803Z</time></trkpt><trkpt lat="46.0639061" lon="10.8906439"><ele>569.0</ele><time>2026-04-25T11:52:57.773Z</time></trkpt><trkpt lat="46.0639145" lon="10.8904118"><ele>569.0</ele><time>2026-04-25T11:52:58.786Z</time></trkpt><trkpt lat="46.063923" lon="10.8901972"><ele>569.0</ele><time>2026-04-25T11:52:59.759Z</time></trkpt><trkpt lat="46.0639245" lon="10.8899812"><ele>569.0</ele><time>2026-04-25T11:53:00.772Z</time></trkpt><trkpt lat="46.0639245" lon="10.8897861"><ele>569.0</ele><time>2026-04-25T11:53:01.782Z</time></trkpt><trkpt lat="46.0639184" lon="10.8896008"><ele>572.5</ele><time>2026-04-25T11:53:02.775Z</time></trkpt><trkpt lat="46.0638915" lon="10.8894359"><ele>576.0</ele><time>2026-04-25T11:53:03.796Z</time></trkpt><trkpt lat="46.0638355" lon="10.8892918"><ele>579.5</ele><time>2026-04-25T11:53:04.786Z</time></trkpt><trkpt lat="46.0637508" lon="10.8891638"><ele>583.0</ele><time>2026-04-25T11:53:05.778Z</time></trkpt><trkpt lat="46.0636319" lon="10.8890626"><ele>585.75</ele><time>2026-04-25T11:53:06.793Z</time></trkpt><trkpt lat="46.0635079" lon="10.8890247"><ele>588.5</ele><time>2026-04-25T11:53:07.8Z</time></trkpt><trkpt lat="46.0633802" lon="10.8890423"><ele>591.25</ele><time>2026-04-25T11:53:08.786Z</time></trkpt><trkpt lat="46.0632508" lon="10.8891119"><ele>594.0</ele><time>2026-04-25T11:53:09.781Z</time></trkpt><trkpt lat="46.0631402" lon="10.8892256"><ele>591.75</ele><time>2026-04-25T11:53:10.793Z</time></trkpt><trkpt lat="46.0630631" lon="10.8893816"><ele>589.5</ele><time>2026-04-25T11:53:11.779Z</time></trkpt><trkpt lat="46.0629878" lon="10.8895608"><ele>587.25</ele><time>2026-04-25T11:53:12.789Z</time></trkpt><trkpt lat="46.0629045" lon="10.8897135"><ele>585.0</ele><time>2026-04-25T11:53:13.793Z</time></trkpt><trkpt lat="46.0627937" lon="10.8898245"><ele>585.0</ele><time>2026-04-25T11:53:14.78Z</time></trkpt><trkpt lat="46.0626943" lon="10.8898624"><ele>585.0</ele><time>2026-04-25T11:53:15.784Z</time></trkpt><trkpt lat="46.0625276" lon="10.8898425"><ele>585.0</ele><time>2026-04-25T11:53:17.13Z</time></trkpt><trkpt lat="46.0623541" lon="10.8896175"><ele>585.3333333333334</ele><time>2026-04-25T11:53:18.821Z</time></trkpt><trkpt lat="46.0622439" lon="10.8894655"><ele>585.6666666666667</ele><time>2026-04-25T11:53:19.824Z</time></trkpt><trkpt lat="46.0621321" lon="10.8893096"><ele>586.0</ele><time>2026-04-25T11:53:20.857Z</time></trkpt><trkpt lat="46.0620266" lon="10.8891695"><ele>587.25</ele><time>2026-04-25T11:53:21.865Z</time></trkpt><trkpt lat="46.0619315" lon="10.8890394"><ele>588.5</ele><time>2026-04-25T11:53:22.831Z</time></trkpt><trkpt lat="46.0618357" lon="10.8889175"><ele>589.75</ele><time>2026-04-25T11:53:23.834Z</time></trkpt><trkpt lat="46.0617386" lon="10.8888221"><ele>591.0</ele><time>2026-04-25T11:53:24.832Z</time></trkpt><trkpt lat="46.0616357" lon="10.8887656"><ele>595.8</ele><time>2026-04-25T11:53:25.838Z</time></trkpt><trkpt lat="46.0615311" lon="10.8887534"><ele>600.6</ele><time>2026-04-25T11:53:26.827Z</time></trkpt><trkpt lat="46.0614256" lon="10.8887787"><ele>605.4</ele><time>2026-04-25T11:53:27.85Z</time></trkpt><trkpt lat="46.0613318" lon="10.888841"><ele>610.2</ele><time>2026-04-25T11:53:28.821Z</time></trkpt><trkpt lat="46.0612442" lon="10.8889428"><ele>615.0</ele><time>2026-04-25T11:53:29.841Z</time></trkpt><trkpt lat="46.0611857" lon="10.8890773"><ele>615.0</ele><time>2026-04-25T11:53:30.843Z</time></trkpt><trkpt lat="46.0611557" lon="10.8892365"><ele>615.0</ele><time>2026-04-25T11:53:31.816Z</time></trkpt><trkpt lat="46.0611615" lon="10.8894143"><ele>615.0</ele><time>2026-04-25T11:53:32.838Z</time></trkpt><trkpt lat="46.0612032" lon="10.8895878"><ele>615.0</ele><time>2026-04-25T11:53:33.831Z</time></trkpt><trkpt lat="46.0612658" lon="10.8897615"><ele>614.75</ele><time>2026-04-25T11:53:34.835Z</time></trkpt><trkpt lat="46.0613377" lon="10.8899355"><ele>614.5</ele><time>2026-04-25T11:53:35.83Z</time></trkpt><trkpt lat="46.061407" lon="10.8901006"><ele>614.25</ele><time>2026-04-25T11:53:36.834Z</time></trkpt><trkpt lat="46.0614629" lon="10.8902672"><ele>614.0</ele><time>2026-04-25T11:53:37.852Z</time></trkpt><trkpt lat="46.0614955" lon="10.8904353"><ele>614.0</ele><time>2026-04-25T11:53:38.83Z</time></trkpt><trkpt lat="46.0615053" lon="10.8906179"><ele>614.0</ele><time>2026-04-25T11:53:39.832Z</time></trkpt><trkpt lat="46.0614868" lon="10.8907995"><ele>614.0</ele><time>2026-04-25T11:53:40.809Z</time></trkpt><trkpt lat="46.0614322" lon="10.8909818"><ele>614.0</ele><time>2026-04-25T11:53:41.845Z</time></trkpt><trkpt lat="46.0613519" lon="10.8911321"><ele>606.0</ele><time>2026-04-25T11:53:42.817Z</time></trkpt><trkpt lat="46.0612411" lon="10.8912661"><ele>598.0</ele><time>2026-04-25T11:53:43.845Z</time></trkpt><trkpt lat="46.061118" lon="10.8913705"><ele>590.0</ele><time>2026-04-25T11:53:44.813Z</time></trkpt><trkpt lat="46.0609745" lon="10.89148"><ele>590.0</ele><time>2026-04-25T11:53:45.85Z</time></trkpt><trkpt lat="46.0608319" lon="10.8915867"><ele>590.0</ele><time>2026-04-25T11:53:46.837Z</time></trkpt><trkpt lat="46.0606792" lon="10.891677"><ele>590.0</ele><time>2026-04-25T11:53:47.83Z</time></trkpt><trkpt lat="46.0605202" lon="10.8917294"><ele>588.25</ele><time>2026-04-25T11:53:48.829Z</time></trkpt><trkpt lat="46.0603594" lon="10.8917521"><ele>586.5</ele><time>2026-04-25T11:53:49.877Z</time></trkpt><trkpt lat="46.0602209" lon="10.8917636"><ele>584.75</ele><time>2026-04-25T11:53:50.843Z</time></trkpt><trkpt lat="46.0600865" lon="10.8917925"><ele>583.0</ele><time>2026-04-25T11:53:51.858Z</time></trkpt><trkpt lat="46.0599662" lon="10.8918701"><ele>589.0</ele><time>2026-04-25T11:53:52.856Z</time></trkpt><trkpt lat="46.0598699" lon="10.891993"><ele>595.0</ele><time>2026-04-25T11:53:53.856Z</time></trkpt><trkpt lat="46.059811" lon="10.8921518"><ele>601.0</ele><time>2026-04-25T11:53:54.85Z</time></trkpt><trkpt lat="46.0597739" lon="10.8923403"><ele>607.0</ele><time>2026-04-25T11:53:55.862Z</time></trkpt><trkpt lat="46.0597322" lon="10.8925275"><ele>603.25</ele><time>2026-04-25T11:53:56.836Z</time></trkpt><trkpt lat="46.059668" lon="10.8927123"><ele>599.5</ele><time>2026-04-25T11:53:57.833Z</time></trkpt><trkpt lat="46.059574" lon="10.8928757"><ele>595.75</ele><time>2026-04-25T11:53:58.836Z</time></trkpt><trkpt lat="46.0594586" lon="10.8930171"><ele>592.0</ele><time>2026-04-25T11:53:59.837Z</time></trkpt><trkpt lat="46.0593374" lon="10.8931472"><ele>592.0</ele><time>2026-04-25T11:54:00.807Z</time></trkpt><trkpt lat="46.0591977" lon="10.8932876"><ele>592.0</ele><time>2026-04-25T11:54:01.847Z</time></trkpt><trkpt lat="46.0590636" lon="10.8934249"><ele>592.0</ele><time>2026-04-25T11:54:02.841Z</time></trkpt><trkpt lat="46.0589303" lon="10.8935585"><ele>591.3333333333334</ele><time>2026-04-25T11:54:03.824Z</time></trkpt><trkpt lat="46.0587875" lon="10.8936811"><ele>590.6666666666666</ele><time>2026-04-25T11:54:04.834Z</time></trkpt><trkpt lat="46.0586368" lon="10.8937848"><ele>590.0</ele><time>2026-04-25T11:54:05.854Z</time></trkpt><trkpt lat="46.0584868" lon="10.893877"><ele>590.0</ele><time>2026-04-25T11:54:06.857Z</time></trkpt><trkpt lat="46.0583424" lon="10.8939612"><ele>590.0</ele><time>2026-04-25T11:54:07.826Z</time></trkpt><trkpt lat="46.0581933" lon="10.8940452"><ele>590.0</ele><time>2026-04-25T11:54:08.832Z</time></trkpt><trkpt lat="46.0580442" lon="10.8941271"><ele>590.0</ele><time>2026-04-25T11:54:09.835Z</time></trkpt><trkpt lat="46.0578991" lon="10.8942069"><ele>590.0</ele><time>2026-04-25T11:54:10.825Z</time></trkpt><trkpt lat="46.0577585" lon="10.8942943"><ele>590.0</ele><time>2026-04-25T11:54:11.819Z</time></trkpt><trkpt lat="46.0576243" lon="10.8944045"><ele>590.0</ele><time>2026-04-25T11:54:12.842Z</time></trkpt><trkpt lat="46.0575091" lon="10.8945354"><ele>590.0</ele><time>2026-04-25T11:54:13.828Z</time></trkpt><trkpt lat="46.0574054" lon="10.894694"><ele>590.0</ele><time>2026-04-25T11:54:14.849Z</time></trkpt><trkpt lat="46.0573225" lon="10.8948663"><ele>590.0</ele><time>2026-04-25T11:54:15.846Z</time></trkpt><trkpt lat="46.0572586" lon="10.8950536"><ele>599.0</ele><time>2026-04-25T11:54:16.837Z</time></trkpt><trkpt lat="46.0572129" lon="10.8952607"><ele>608.0</ele><time>2026-04-25T11:54:17.851Z</time></trkpt><trkpt lat="46.0571925" lon="10.8954735"><ele>617.0</ele><time>2026-04-25T11:54:18.843Z</time></trkpt><trkpt lat="46.0571978" lon="10.895697"><ele>617.0</ele><time>2026-04-25T11:54:19.86Z</time></trkpt><trkpt lat="46.0572248" lon="10.8959006"><ele>617.0</ele><time>2026-04-25T11:54:20.824Z</time></trkpt><trkpt lat="46.0572637" lon="10.8961011"><ele>617.0</ele><time>2026-04-25T11:54:21.836Z</time></trkpt><trkpt lat="46.0572969" lon="10.8963088"><ele>617.0</ele><time>2026-04-25T11:54:22.873Z</time></trkpt><trkpt lat="46.0573029" lon="10.8965148"><ele>614.3333333333333</ele><time>2026-04-25T11:54:23.854Z</time></trkpt><trkpt lat="46.057278" lon="10.896727"><ele>611.6666666666666</ele><time>2026-04-25T11:54:24.847Z</time></trkpt><trkpt lat="46.0572286" lon="10.8969342"><ele>609.0</ele><time>2026-04-25T11:54:25.855Z</time></trkpt><trkpt lat="46.0571603" lon="10.8971246"><ele>603.0</ele><time>2026-04-25T11:54:26.848Z</time></trkpt><trkpt lat="46.0570635" lon="10.8972969"><ele>597.0</ele><time>2026-04-25T11:54:27.85Z</time></trkpt><trkpt lat="46.0569355" lon="10.8974435"><ele>591.0</ele><time>2026-04-25T11:54:28.866Z</time></trkpt><trkpt lat="46.0567887" lon="10.897561"><ele>588.0</ele><time>2026-04-25T11:54:29.85Z</time></trkpt><trkpt lat="46.0566319" lon="10.8976748"><ele>585.0</ele><time>2026-04-25T11:54:30.84Z</time></trkpt><trkpt lat="46.0564663" lon="10.89779"><ele>582.0</ele><time>2026-04-25T11:54:31.843Z</time></trkpt><trkpt lat="46.0563105" lon="10.8978986"><ele>581.0</ele><time>2026-04-25T11:54:32.835Z</time></trkpt><trkpt lat="46.0561628" lon="10.8979932"><ele>580.0</ele><time>2026-04-25T11:54:33.823Z</time></trkpt><trkpt lat="46.056009" lon="10.8980594"><ele>579.0</ele><time>2026-04-25T11:54:34.828Z</time></trkpt><trkpt lat="46.0558443" lon="10.8980935"><ele>579.6666666666666</ele><time>2026-04-25T11:54:35.854Z</time></trkpt><trkpt lat="46.0556816" lon="10.8980966"><ele>580.3333333333333</ele><time>2026-04-25T11:54:36.832Z</time></trkpt><trkpt lat="46.0555105" lon="10.8980812"><ele>581.0</ele><time>2026-04-25T11:54:37.835Z</time></trkpt><trkpt lat="46.0553336" lon="10.8980595"><ele>581.0</ele><time>2026-04-25T11:54:38.843Z</time></trkpt><trkpt lat="46.0551503" lon="10.8980429"><ele>581.0</ele><time>2026-04-25T11:54:39.861Z</time></trkpt><trkpt lat="46.0549825" lon="10.8980267"><ele>581.0</ele><time>2026-04-25T11:54:40.828Z</time></trkpt><trkpt lat="46.0548211" lon="10.8979967"><ele>578.3333333333333</ele><time>2026-04-25T11:54:41.825Z</time></trkpt><trkpt lat="46.054667" lon="10.8979351"><ele>575.6666666666666</ele><time>2026-04-25T11:54:42.844Z</time></trkpt><trkpt lat="46.0545254" lon="10.8978357"><ele>573.0</ele><time>2026-04-25T11:54:43.851Z</time></trkpt><trkpt lat="46.0543926" lon="10.8977057"><ele>569.0</ele><time>2026-04-25T11:54:44.865Z</time></trkpt><trkpt lat="46.0542745" lon="10.897558"><ele>565.0</ele><time>2026-04-25T11:54:45.826Z</time></trkpt><trkpt lat="46.0541513" lon="10.8973881"><ele>561.0</ele><time>2026-04-25T11:54:46.849Z</time></trkpt><trkpt lat="46.0540284" lon="10.8972244"><ele>561.0</ele><time>2026-04-25T11:54:47.826Z</time></trkpt><trkpt lat="46.0539008" lon="10.8970558"><ele>561.0</ele><time>2026-04-25T11:54:48.84Z</time></trkpt><trkpt lat="46.0537733" lon="10.8968872"><ele>561.0</ele><time>2026-04-25T11:54:49.834Z</time></trkpt><trkpt lat="46.0536404" lon="10.8967107"><ele>556.6666666666666</ele><time>2026-04-25T11:54:50.852Z</time></trkpt><trkpt lat="46.0535115" lon="10.8965372"><ele>552.3333333333333</ele><time>2026-04-25T11:54:51.827Z</time></trkpt><trkpt lat="46.0533733" lon="10.8963518"><ele>548.0</ele><time>2026-04-25T11:54:52.854Z</time></trkpt><trkpt lat="46.053236" lon="10.8961713"><ele>548.0</ele><time>2026-04-25T11:54:53.853Z</time></trkpt><trkpt lat="46.0531025" lon="10.8959955"><ele>548.0</ele><time>2026-04-25T11:54:54.861Z</time></trkpt><trkpt lat="46.0529804" lon="10.8958326"><ele>548.0</ele><time>2026-04-25T11:54:55.816Z</time></trkpt><trkpt lat="46.0528563" lon="10.8956669"><ele>555.6666666666666</ele><time>2026-04-25T11:54:56.811Z</time></trkpt><trkpt lat="46.0527281" lon="10.8954994"><ele>563.3333333333334</ele><time>2026-04-25T11:54:57.849Z</time></trkpt><trkpt lat="46.0526062" lon="10.8953473"><ele>571.0</ele><time>2026-04-25T11:54:58.822Z</time></trkpt><trkpt lat="46.0524736" lon="10.8951912"><ele>568.0</ele><time>2026-04-25T11:54:59.823Z</time></trkpt><trkpt lat="46.0523292" lon="10.8950351"><ele>565.0</ele><time>2026-04-25T11:55:00.843Z</time></trkpt><trkpt lat="46.0521793" lon="10.8948847"><ele>562.0</ele><time>2026-04-25T11:55:01.849Z</time></trkpt><trkpt lat="46.0520269" lon="10.8947358"><ele>562.0</ele><time>2026-04-25T11:55:02.84Z</time></trkpt><trkpt lat="46.05187" lon="10.8945856"><ele>562.0</ele><time>2026-04-25T11:55:03.833Z</time></trkpt><trkpt lat="46.0517066" lon="10.8944296"><ele>562.0</ele><time>2026-04-25T11:55:04.852Z</time></trkpt><trkpt lat="46.051548" lon="10.8942768"><ele>559.6666666666667</ele><time>2026-04-25T11:55:05.827Z</time></trkpt><trkpt lat="46.0513828" lon="10.8941148"><ele>557.3333333333334</ele><time>2026-04-25T11:55:06.856Z</time></trkpt><trkpt lat="46.0512272" lon="10.8939625"><ele>555.0</ele><time>2026-04-25T11:55:07.846Z</time></trkpt><trkpt lat="46.0510715" lon="10.89381"><ele>555.0</ele><time>2026-04-25T11:55:08.86Z</time></trkpt><trkpt lat="46.050922" lon="10.8936691"><ele>555.0</ele><time>2026-04-25T11:55:09.843Z</time></trkpt><trkpt lat="46.0507718" lon="10.8935427"><ele>555.0</ele><time>2026-04-25T11:55:10.818Z</time></trkpt><trkpt lat="46.0506168" lon="10.8934332"><ele>554.6666666666666</ele><time>2026-04-25T11:55:11.821Z</time></trkpt><trkpt lat="46.0504627" lon="10.8933459"><ele>554.3333333333333</ele><time>2026-04-25T11:55:12.854Z</time></trkpt><trkpt lat="46.0503223" lon="10.8932709"><ele>554.0</ele><time>2026-04-25T11:55:13.823Z</time></trkpt><trkpt lat="46.0501814" lon="10.8931773"><ele>554.0</ele><time>2026-04-25T11:55:14.852Z</time></trkpt><trkpt lat="46.0500543" lon="10.8930638"><ele>554.0</ele><time>2026-04-25T11:55:15.823Z</time></trkpt><trkpt lat="46.0499233" lon="10.8929216"><ele>554.0</ele><time>2026-04-25T11:55:16.846Z</time></trkpt><trkpt lat="46.0497984" lon="10.8927609"><ele>550.6666666666666</ele><time>2026-04-25T11:55:17.846Z</time></trkpt><trkpt lat="46.0496764" lon="10.8925909"><ele>547.3333333333334</ele><time>2026-04-25T11:55:18.834Z</time></trkpt><trkpt lat="46.0495505" lon="10.8924154"><ele>544.0</ele><time>2026-04-25T11:55:19.861Z</time></trkpt><trkpt lat="46.0494281" lon="10.8922511"><ele>544.0</ele><time>2026-04-25T11:55:20.837Z</time></trkpt><trkpt lat="46.0493061" lon="10.8920875"><ele>544.0</ele><time>2026-04-25T11:55:21.837Z</time></trkpt><trkpt lat="46.0491893" lon="10.8919248"><ele>544.0</ele><time>2026-04-25T11:55:22.834Z</time></trkpt><trkpt lat="46.049073" lon="10.8917608"><ele>540.0</ele><time>2026-04-25T11:55:23.853Z</time></trkpt><trkpt lat="46.0489647" lon="10.8915991"><ele>536.0</ele><time>2026-04-25T11:55:24.842Z</time></trkpt><trkpt lat="46.0488579" lon="10.8914258"><ele>532.0</ele><time>2026-04-25T11:55:25.86Z</time></trkpt><trkpt lat="46.0487582" lon="10.8912472"><ele>532.0</ele><time>2026-04-25T11:55:26.869Z</time></trkpt><trkpt lat="46.0486707" lon="10.8910667"><ele>532.0</ele><time>2026-04-25T11:55:27.858Z</time></trkpt><trkpt lat="46.0485903" lon="10.8908934"><ele>532.0</ele><time>2026-04-25T11:55:28.809Z</time></trkpt><trkpt lat="46.0485006" lon="10.8907044"><ele>532.25</ele><time>2026-04-25T11:55:29.87Z</time></trkpt><trkpt lat="46.0484119" lon="10.8905358"><ele>532.5</ele><time>2026-04-25T11:55:30.862Z</time></trkpt><trkpt lat="46.0483167" lon="10.8903747"><ele>532.75</ele><time>2026-04-25T11:55:31.839Z</time></trkpt><trkpt lat="46.0482091" lon="10.8902159"><ele>533.0</ele><time>2026-04-25T11:55:32.845Z</time></trkpt><trkpt lat="46.0480897" lon="10.8900652"><ele>533.0</ele><time>2026-04-25T11:55:33.87Z</time></trkpt><trkpt lat="46.0479718" lon="10.8899328"><ele>533.0</ele><time>2026-04-25T11:55:34.827Z</time></trkpt><trkpt lat="46.0478418" lon="10.8897933"><ele>533.0</ele><time>2026-04-25T11:55:35.85Z</time></trkpt><trkpt lat="46.0477119" lon="10.8896505"><ele>533.0</ele><time>2026-04-25T11:55:36.859Z</time></trkpt><trkpt lat="46.0476042" lon="10.8895085"><ele>533.0</ele><time>2026-04-25T11:55:37.795Z</time></trkpt><trkpt lat="46.0474952" lon="10.8893377"><ele>533.0</ele><time>2026-04-25T11:55:38.829Z</time></trkpt><trkpt lat="46.0473964" lon="10.8891572"><ele>529.6666666666666</ele><time>2026-04-25T11:55:39.838Z</time></trkpt><trkpt lat="46.0473039" lon="10.8889725"><ele>526.3333333333334</ele><time>2026-04-25T11:55:40.816Z</time></trkpt><trkpt lat="46.0472099" lon="10.8887794"><ele>523.0</ele><time>2026-04-25T11:55:41.827Z</time></trkpt><trkpt lat="46.0471155" lon="10.8885871"><ele>524.3333333333334</ele><time>2026-04-25T11:55:42.845Z</time></trkpt><trkpt lat="46.0470209" lon="10.888397"><ele>525.6666666666666</ele><time>2026-04-25T11:55:43.854Z</time></trkpt><trkpt lat="46.0469283" lon="10.8882115"><ele>527.0</ele><time>2026-04-25T11:55:44.844Z</time></trkpt><trkpt lat="46.0468351" lon="10.8880208"><ele>527.0</ele><time>2026-04-25T11:55:45.858Z</time></trkpt><trkpt lat="46.0467476" lon="10.8878444"><ele>527.0</ele><time>2026-04-25T11:55:46.804Z</time></trkpt><trkpt lat="46.0466535" lon="10.8876548"><ele>527.0</ele><time>2026-04-25T11:55:47.816Z</time></trkpt><trkpt lat="46.0465557" lon="10.8874582"><ele>518.6666666666666</ele><time>2026-04-25T11:55:48.857Z</time></trkpt><trkpt lat="46.0464624" lon="10.887276"><ele>510.33333333333337</ele><time>2026-04-25T11:55:49.821Z</time></trkpt><trkpt lat="46.0463668" lon="10.8870885"><ele>502.0</ele><time>2026-04-25T11:55:50.826Z</time></trkpt><trkpt lat="46.0462709" lon="10.8868981"><ele>505.0</ele><time>2026-04-25T11:55:51.853Z</time></trkpt><trkpt lat="46.0461809" lon="10.8867199"><ele>508.0</ele><time>2026-04-25T11:55:52.834Z</time></trkpt><trkpt lat="46.0460891" lon="10.8865422"><ele>511.0</ele><time>2026-04-25T11:55:53.827Z</time></trkpt><trkpt lat="46.0459979" lon="10.8863584"><ele>511.0</ele><time>2026-04-25T11:55:54.843Z</time></trkpt><trkpt lat="46.0459091" lon="10.8861803"><ele>511.0</ele><time>2026-04-25T11:55:55.821Z</time></trkpt><trkpt lat="46.0458143" lon="10.8859986"><ele>511.0</ele><time>2026-04-25T11:55:56.825Z</time></trkpt><trkpt lat="46.0457159" lon="10.8858139"><ele>503.6666666666667</ele><time>2026-04-25T11:55:57.84Z</time></trkpt><trkpt lat="46.0456183" lon="10.8856327"><ele>496.33333333333337</ele><time>2026-04-25T11:55:58.831Z</time></trkpt><trkpt lat="46.0455222" lon="10.8854554"><ele>489.0</ele><time>2026-04-25T11:55:59.816Z</time></trkpt><trkpt lat="46.0454302" lon="10.885272"><ele>490.0</ele><time>2026-04-25T11:56:00.834Z</time></trkpt><trkpt lat="46.0453594" lon="10.8850863"><ele>491.0</ele><time>2026-04-25T11:56:01.85Z</time></trkpt><trkpt lat="46.0453201" lon="10.8848917"><ele>492.0</ele><time>2026-04-25T11:56:02.845Z</time></trkpt><trkpt lat="46.0453109" lon="10.8846851"><ele>493.0</ele><time>2026-04-25T11:56:03.848Z</time></trkpt><trkpt lat="46.0453228" lon="10.884477"><ele>493.0</ele><time>2026-04-25T11:56:04.838Z</time></trkpt><trkpt lat="46.0453381" lon="10.8842801"><ele>492.99999999999994</ele><time>2026-04-25T11:56:05.858Z</time></trkpt><trkpt lat="46.0453506" lon="10.8841154"><ele>492.99999999999994</ele><time>2026-04-25T11:56:06.839Z</time></trkpt><trkpt lat="46.045359" lon="10.883978"><ele>493.0</ele><time>2026-04-25T11:56:07.824Z</time></trkpt><trkpt lat="46.0453648" lon="10.8838473"><ele>493.0</ele><time>2026-04-25T11:56:08.854Z</time></trkpt><trkpt lat="46.0453634" lon="10.8837068"><ele>492.5</ele><time>2026-04-25T11:56:09.851Z</time></trkpt><trkpt lat="46.045351" lon="10.8835295"><ele>492.0</ele><time>2026-04-25T11:56:10.854Z</time></trkpt><trkpt lat="46.0453341" lon="10.8833311"><ele>491.5</ele><time>2026-04-25T11:56:11.854Z</time></trkpt><trkpt lat="46.0453216" lon="10.8831233"><ele>491.0</ele><time>2026-04-25T11:56:12.866Z</time></trkpt><trkpt lat="46.0453085" lon="10.8829049"><ele>489.0</ele><time>2026-04-25T11:56:13.854Z</time></trkpt><trkpt lat="46.0452932" lon="10.8826771"><ele>487.0</ele><time>2026-04-25T11:56:14.817Z</time></trkpt><trkpt lat="46.0452769" lon="10.8824402"><ele>485.0</ele><time>2026-04-25T11:56:15.828Z</time></trkpt><trkpt lat="46.0452559" lon="10.8822058"><ele>485.3333333333333</ele><time>2026-04-25T11:56:16.843Z</time></trkpt><trkpt lat="46.0452225" lon="10.8819825"><ele>485.66666666666663</ele><time>2026-04-25T11:56:17.85Z</time></trkpt><trkpt lat="46.0451762" lon="10.8817815"><ele>486.0</ele><time>2026-04-25T11:56:18.792Z</time></trkpt><trkpt lat="46.0451121" lon="10.8815815"><ele>486.0</ele><time>2026-04-25T11:56:19.759Z</time></trkpt><trkpt lat="46.0450429" lon="10.8813802"><ele>486.0</ele><time>2026-04-25T11:56:20.774Z</time></trkpt><trkpt lat="46.0449837" lon="10.8811887"><ele>486.0</ele><time>2026-04-25T11:56:21.763Z</time></trkpt><trkpt lat="46.0449352" lon="10.8809795"><ele>479.5</ele><time>2026-04-25T11:56:22.768Z</time></trkpt><trkpt lat="46.0449116" lon="10.8807728"><ele>473.0</ele><time>2026-04-25T11:56:23.774Z</time></trkpt><trkpt lat="46.0449128" lon="10.8805496"><ele>466.5</ele><time>2026-04-25T11:56:24.822Z</time></trkpt><trkpt lat="46.0449238" lon="10.8803577"><ele>460.0</ele><time>2026-04-25T11:56:25.798Z</time></trkpt><trkpt lat="46.0449322" lon="10.8801787"><ele>461.75</ele><time>2026-04-25T11:56:26.792Z</time></trkpt><trkpt lat="46.0449191" lon="10.8800129"><ele>463.5</ele><time>2026-04-25T11:56:27.774Z</time></trkpt><trkpt lat="46.0448722" lon="10.8798601"><ele>465.25</ele><time>2026-04-25T11:56:28.792Z</time></trkpt><trkpt lat="46.0447922" lon="10.8797417"><ele>467.0</ele><time>2026-04-25T11:56:29.772Z</time></trkpt><trkpt lat="46.0446833" lon="10.8796284"><ele>467.0</ele><time>2026-04-25T11:56:30.792Z</time></trkpt><trkpt lat="46.0445754" lon="10.8795276"><ele>467.0</ele><time>2026-04-25T11:56:31.79Z</time></trkpt><trkpt lat="46.0444676" lon="10.8794236"><ele>467.0</ele><time>2026-04-25T11:56:32.786Z</time></trkpt><trkpt lat="46.0443636" lon="10.8793177"><ele>467.0</ele><time>2026-04-25T11:56:33.802Z</time></trkpt><trkpt lat="46.0442692" lon="10.8792121"><ele>468.5</ele><time>2026-04-25T11:56:34.788Z</time></trkpt><trkpt lat="46.0441866" lon="10.8790883"><ele>470.0</ele><time>2026-04-25T11:56:35.804Z</time></trkpt><trkpt lat="46.044123" lon="10.8789482"><ele>471.5</ele><time>2026-04-25T11:56:36.792Z</time></trkpt><trkpt lat="46.0440748" lon="10.8787835"><ele>473.0</ele><time>2026-04-25T11:56:37.79Z</time></trkpt><trkpt lat="46.0440388" lon="10.8786018"><ele>464.3333333333333</ele><time>2026-04-25T11:56:38.743Z</time></trkpt><trkpt lat="46.044002" lon="10.8783922"><ele>455.66666666666663</ele><time>2026-04-25T11:56:39.775Z</time></trkpt><trkpt lat="46.0439646" lon="10.8781787"><ele>447.0</ele><time>2026-04-25T11:56:40.781Z</time></trkpt><trkpt lat="46.0439227" lon="10.8779534"><ele>447.0</ele><time>2026-04-25T11:56:41.788Z</time></trkpt><trkpt lat="46.0438746" lon="10.8777307"><ele>447.0</ele><time>2026-04-25T11:56:42.802Z</time></trkpt><trkpt lat="46.0438214" lon="10.877527"><ele>447.0</ele><time>2026-04-25T11:56:43.778Z</time></trkpt><trkpt lat="46.0437739" lon="10.8773367"><ele>447.75</ele><time>2026-04-25T11:56:44.812Z</time></trkpt><trkpt lat="46.0437521" lon="10.8771715"><ele>448.5</ele><time>2026-04-25T11:56:45.78Z</time></trkpt><trkpt lat="46.0437602" lon="10.8769935"><ele>449.25</ele><time>2026-04-25T11:56:46.797Z</time></trkpt><trkpt lat="46.0438017" lon="10.8768258"><ele>450.0</ele><time>2026-04-25T11:56:47.799Z</time></trkpt><trkpt lat="46.0438657" lon="10.876687"><ele>450.6666666666667</ele><time>2026-04-25T11:56:48.768Z</time></trkpt><trkpt lat="46.0439375" lon="10.8765632"><ele>451.33333333333337</ele><time>2026-04-25T11:56:49.788Z</time></trkpt><trkpt lat="46.0439905" lon="10.8764587"><ele>452.0</ele><time>2026-04-25T11:56:50.767Z</time></trkpt><trkpt lat="46.0440164" lon="10.8763495"><ele>452.6666666666667</ele><time>2026-04-25T11:56:51.801Z</time></trkpt><trkpt lat="46.0439978" lon="10.8762466"><ele>453.33333333333337</ele><time>2026-04-25T11:56:52.786Z</time></trkpt><trkpt lat="46.0439417" lon="10.8761549"><ele>454.0</ele><time>2026-04-25T11:56:53.795Z</time></trkpt><trkpt lat="46.0438504" lon="10.876085"><ele>454.0</ele><time>2026-04-25T11:56:54.8Z</time></trkpt><trkpt lat="46.0437334" lon="10.8760499"><ele>454.0</ele><time>2026-04-25T11:56:55.801Z</time></trkpt><trkpt lat="46.0436008" lon="10.8760221"><ele>454.0</ele><time>2026-04-25T11:56:56.808Z</time></trkpt><trkpt lat="46.0434655" lon="10.8760044"><ele>454.0</ele><time>2026-04-25T11:56:57.791Z</time></trkpt><trkpt lat="46.0433266" lon="10.875989"><ele>452.0</ele><time>2026-04-25T11:56:58.797Z</time></trkpt><trkpt lat="46.0432014" lon="10.875954"><ele>450.0</ele><time>2026-04-25T11:56:59.763Z</time></trkpt><trkpt lat="46.0431024" lon="10.875876"><ele>448.0</ele><time>2026-04-25T11:57:00.785Z</time></trkpt><trkpt lat="46.0430052" lon="10.8757742"><ele>446.0</ele><time>2026-04-25T11:57:01.754Z</time></trkpt><trkpt lat="46.0428967" lon="10.8756739"><ele>446.0</ele><time>2026-04-25T11:57:02.783Z</time></trkpt><trkpt lat="46.0427895" lon="10.8756024"><ele>446.0</ele><time>2026-04-25T11:57:03.791Z</time></trkpt><trkpt lat="46.0426854" lon="10.875548"><ele>446.0</ele><time>2026-04-25T11:57:04.784Z</time></trkpt><trkpt lat="46.0425829" lon="10.8754822"><ele>446.0</ele><time>2026-04-25T11:57:05.799Z</time></trkpt><trkpt lat="46.0424907" lon="10.8754135"><ele>446.0</ele><time>2026-04-25T11:57:06.789Z</time></trkpt><trkpt lat="46.0424127" lon="10.8753056"><ele>445.20000000000005</ele><time>2026-04-25T11:57:07.789Z</time></trkpt><trkpt lat="46.0423484" lon="10.8751761"><ele>444.40000000000003</ele><time>2026-04-25T11:57:08.805Z</time></trkpt><trkpt lat="46.0422872" lon="10.8750598"><ele>443.6</ele><time>2026-04-25T11:57:09.782Z</time></trkpt><trkpt lat="46.0422163" lon="10.8749386"><ele>442.8</ele><time>2026-04-25T11:57:10.79Z</time></trkpt><trkpt lat="46.0421403" lon="10.8748451"><ele>442.0</ele><time>2026-04-25T11:57:11.792Z</time></trkpt><trkpt lat="46.0420463" lon="10.874788"><ele>442.0</ele><time>2026-04-25T11:57:12.816Z</time></trkpt><trkpt lat="46.0419502" lon="10.8747651"><ele>442.00000000000006</ele><time>2026-04-25T11:57:13.797Z</time></trkpt><trkpt lat="46.0418537" lon="10.8747478"><ele>442.00000000000006</ele><time>2026-04-25T11:57:14.8Z</time></trkpt><trkpt lat="46.0417494" lon="10.8747228"><ele>442.0</ele><time>2026-04-25T11:57:15.799Z</time></trkpt><trkpt lat="46.0416608" lon="10.8746471"><ele>442.0</ele><time>2026-04-25T11:57:16.798Z</time></trkpt><trkpt lat="46.0415831" lon="10.8745542"><ele>437.0</ele><time>2026-04-25T11:57:17.802Z</time></trkpt><trkpt lat="46.0414778" lon="10.8744392"><ele>432.0</ele><time>2026-04-25T11:57:19.143Z</time></trkpt><trkpt lat="46.0413276" lon="10.8743502"><ele>427.0</ele><time>2026-04-25T11:57:20.833Z</time></trkpt><trkpt lat="46.0412428" lon="10.8743304"><ele>422.0</ele><time>2026-04-25T11:57:21.85Z</time></trkpt><trkpt lat="46.0411609" lon="10.8743205"><ele>421.99999999999994</ele><time>2026-04-25T11:57:22.851Z</time></trkpt><trkpt lat="46.041083" lon="10.8742946"><ele>422.0</ele><time>2026-04-25T11:57:23.827Z</time></trkpt><trkpt lat="46.0410077" lon="10.8742483"><ele>422.0</ele><time>2026-04-25T11:57:24.84Z</time></trkpt><trkpt lat="46.0409426" lon="10.8741891"><ele>422.0</ele><time>2026-04-25T11:57:25.787Z</time></trkpt><trkpt lat="46.0408795" lon="10.8741"><ele>421.99999999999994</ele><time>2026-04-25T11:57:26.785Z</time></trkpt><trkpt lat="46.0408046" lon="10.8740107"><ele>422.0</ele><time>2026-04-25T11:57:27.788Z</time></trkpt><trkpt lat="46.0407186" lon="10.8739359"><ele>422.0</ele><time>2026-04-25T11:57:28.795Z</time></trkpt><trkpt lat="46.0406343" lon="10.8739111"><ele>422.0</ele><time>2026-04-25T11:57:29.772Z</time></trkpt><trkpt lat="46.040536" lon="10.8739178"><ele>422.0</ele><time>2026-04-25T11:57:30.79Z</time></trkpt><trkpt lat="46.0404407" lon="10.8739325"><ele>422.0</ele><time>2026-04-25T11:57:31.781Z</time></trkpt><trkpt lat="46.0403509" lon="10.8739407"><ele>422.0</ele><time>2026-04-25T11:57:32.778Z</time></trkpt><trkpt lat="46.040254" lon="10.873935"><ele>422.0</ele><time>2026-04-25T11:57:33.783Z</time></trkpt><trkpt lat="46.0401669" lon="10.8738995"><ele>422.0</ele><time>2026-04-25T11:57:34.776Z</time></trkpt><trkpt lat="46.0400852" lon="10.873838"><ele>422.0</ele><time>2026-04-25T11:57:35.798Z</time></trkpt><trkpt lat="46.0399995" lon="10.8737791"><ele>422.0</ele><time>2026-04-25T11:57:36.785Z</time></trkpt><trkpt lat="46.0399101" lon="10.8737412"><ele>422.0</ele><time>2026-04-25T11:57:37.788Z</time></trkpt><trkpt lat="46.0398182" lon="10.8737181"><ele>422.75</ele><time>2026-04-25T11:57:38.797Z</time></trkpt><trkpt lat="46.0396936" lon="10.8736699"><ele>423.5</ele><time>2026-04-25T11:57:40.156Z</time></trkpt><trkpt lat="46.0395399" lon="10.8735628"><ele>424.25</ele><time>2026-04-25T11:57:41.856Z</time></trkpt><trkpt lat="46.0394502" lon="10.8734893"><ele>425.0</ele><time>2026-04-25T11:57:42.836Z</time></trkpt><trkpt lat="46.0393599" lon="10.8733968"><ele>425.0</ele><time>2026-04-25T11:57:43.831Z</time></trkpt><trkpt lat="46.0392674" lon="10.8732854"><ele>425.0</ele><time>2026-04-25T11:57:44.86Z</time></trkpt><trkpt lat="46.0391827" lon="10.8731749"><ele>425.0</ele><time>2026-04-25T11:57:45.795Z</time></trkpt><trkpt lat="46.0390914" lon="10.8730583"><ele>425.0</ele><time>2026-04-25T11:57:46.798Z</time></trkpt><trkpt lat="46.0390006" lon="10.8729516"><ele>423.0</ele><time>2026-04-25T11:57:47.785Z</time></trkpt><trkpt lat="46.0389075" lon="10.872848"><ele>421.0</ele><time>2026-04-25T11:57:48.778Z</time></trkpt><trkpt lat="46.0388174" lon="10.8727596"><ele>419.0</ele><time>2026-04-25T11:57:49.769Z</time></trkpt><trkpt lat="46.0387252" lon="10.8726751"><ele>417.0</ele><time>2026-04-25T11:57:50.789Z</time></trkpt><trkpt lat="46.0386342" lon="10.8725963"><ele>415.0</ele><time>2026-04-25T11:57:51.797Z</time></trkpt><trkpt lat="46.0385576" lon="10.8725288"><ele>415.0</ele><time>2026-04-25T11:57:52.769Z</time></trkpt><trkpt lat="46.038485" lon="10.8724537"><ele>415.0</ele><time>2026-04-25T11:57:53.784Z</time></trkpt><trkpt lat="46.038426" lon="10.8723643"><ele>415.0</ele><time>2026-04-25T11:57:54.793Z</time></trkpt><trkpt lat="46.0383883" lon="10.8722515"><ele>415.0</ele><time>2026-04-25T11:57:55.808Z</time></trkpt><trkpt lat="46.0383602" lon="10.8721227"><ele>415.0</ele><time>2026-04-25T11:57:56.793Z</time></trkpt><trkpt lat="46.0383303" lon="10.871981"><ele>411.4</ele><time>2026-04-25T11:57:57.789Z</time></trkpt><trkpt lat="46.0382949" lon="10.8718549"><ele>407.8</ele><time>2026-04-25T11:57:58.766Z</time></trkpt><trkpt lat="46.0382426" lon="10.8717382"><ele>404.20000000000005</ele><time>2026-04-25T11:57:59.795Z</time></trkpt><trkpt lat="46.038184" lon="10.8716388"><ele>400.6</ele><time>2026-04-25T11:58:00.791Z</time></trkpt><trkpt lat="46.0381236" lon="10.8715429"><ele>397.0</ele><time>2026-04-25T11:58:01.804Z</time></trkpt><trkpt lat="46.038065" lon="10.8714466"><ele>397.0</ele><time>2026-04-25T11:58:02.808Z</time></trkpt><trkpt lat="46.0380108" lon="10.8713442"><ele>397.0</ele><time>2026-04-25T11:58:03.786Z</time></trkpt><trkpt lat="46.0379651" lon="10.8712282"><ele>397.0</ele><time>2026-04-25T11:58:04.787Z</time></trkpt><trkpt lat="46.0379324" lon="10.8710986"><ele>397.0</ele><time>2026-04-25T11:58:05.81Z</time></trkpt><trkpt lat="46.0379114" lon="10.8709661"><ele>397.0</ele><time>2026-04-25T11:58:06.795Z</time></trkpt><trkpt lat="46.0378995" lon="10.8708357"><ele>397.00000000000006</ele><time>2026-04-25T11:58:07.812Z</time></trkpt><trkpt lat="46.0378888" lon="10.8707187"><ele>397.0</ele><time>2026-04-25T11:58:08.746Z</time></trkpt><trkpt lat="46.0378754" lon="10.8705944"><ele>397.0</ele><time>2026-04-25T11:58:09.778Z</time></trkpt><trkpt lat="46.0378601" lon="10.8704742"><ele>397.0</ele><time>2026-04-25T11:58:10.806Z</time></trkpt><trkpt lat="46.0378427" lon="10.870366"><ele>397.00000000000006</ele><time>2026-04-25T11:58:11.806Z</time></trkpt><trkpt lat="46.0378171" lon="10.8702633"><ele>397.0</ele><time>2026-04-25T11:58:12.799Z</time></trkpt><trkpt lat="46.0377778" lon="10.8701767"><ele>397.00000000000006</ele><time>2026-04-25T11:58:13.81Z</time></trkpt><trkpt lat="46.0377221" lon="10.870115"><ele>397.0</ele><time>2026-04-25T11:58:14.78Z</time></trkpt><trkpt lat="46.0376525" lon="10.8700751"><ele>397.0</ele><time>2026-04-25T11:58:15.787Z</time></trkpt><trkpt lat="46.037574" lon="10.870052"><ele>397.0</ele><time>2026-04-25T11:58:16.807Z</time></trkpt><trkpt lat="46.0374952" lon="10.8700333"><ele>397.00000000000006</ele><time>2026-04-25T11:58:17.8Z</time></trkpt><trkpt lat="46.037423" lon="10.8700139"><ele>397.0</ele><time>2026-04-25T11:58:18.806Z</time></trkpt><trkpt lat="46.0373514" lon="10.8699963"><ele>396.83333333333337</ele><time>2026-04-25T11:58:19.795Z</time></trkpt><trkpt lat="46.0372838" lon="10.8699789"><ele>396.6666666666667</ele><time>2026-04-25T11:58:20.789Z</time></trkpt><trkpt lat="46.0372114" lon="10.8699645"><ele>396.5</ele><time>2026-04-25T11:58:21.8Z</time></trkpt><trkpt lat="46.0371445" lon="10.8699491"><ele>396.33333333333337</ele><time>2026-04-25T11:58:22.783Z</time></trkpt><trkpt lat="46.0370757" lon="10.8699322"><ele>396.1666666666667</ele><time>2026-04-25T11:58:23.793Z</time></trkpt><trkpt lat="46.0369626" lon="10.8699003"><ele>396.0</ele><time>2026-04-25T11:58:25.789Z</time></trkpt><trkpt lat="46.0368906" lon="10.8698585"><ele>396.0</ele><time>2026-04-25T11:58:27.794Z</time></trkpt><trkpt lat="46.0368607" lon="10.8697654"><ele>396.0</ele><time>2026-04-25T11:58:29.799Z</time></trkpt><trkpt lat="46.036893" lon="10.8696001"><ele>396.0</ele><time>2026-04-25T11:58:31.792Z</time></trkpt><trkpt lat="46.0369235" lon="10.8695182"><ele>396.0</ele><time>2026-04-25T11:58:32.81Z</time></trkpt><trkpt lat="46.0369663" lon="10.8693674"><ele>396.0</ele><time>2026-04-25T11:58:34.77Z</time></trkpt><trkpt lat="46.0370088" lon="10.8692083"><ele>396.0</ele><time>2026-04-25T11:58:36.79Z</time></trkpt><trkpt lat="46.0370616" lon="10.8690362"><ele>396.0</ele><time>2026-04-25T11:58:38.776Z</time></trkpt><trkpt lat="46.0370818" lon="10.8689378"><ele>396.0</ele><time>2026-04-25T11:58:39.793Z</time></trkpt><trkpt lat="46.0371091" lon="10.8688251"><ele>396.0</ele><time>2026-04-25T11:58:40.783Z</time></trkpt><trkpt lat="46.0371303" lon="10.8687047"><ele>396.0</ele><time>2026-04-25T11:58:41.816Z</time></trkpt><trkpt lat="46.0371419" lon="10.868585"><ele>396.0</ele><time>2026-04-25T11:58:42.784Z</time></trkpt><trkpt lat="46.0371603" lon="10.8684516"><ele>396.0</ele><time>2026-04-25T11:58:43.814Z</time></trkpt><trkpt lat="46.0371806" lon="10.8683187"><ele>396.0</ele><time>2026-04-25T11:58:44.797Z</time></trkpt><trkpt lat="46.037197" lon="10.8681765"><ele>396.0</ele><time>2026-04-25T11:58:45.81Z</time></trkpt><trkpt lat="46.0372182" lon="10.8680391"><ele>396.0</ele><time>2026-04-25T11:58:46.772Z</time></trkpt><trkpt lat="46.0372416" lon="10.8678853"><ele>396.0</ele><time>2026-04-25T11:58:47.809Z</time></trkpt><trkpt lat="46.0372625" lon="10.867744"><ele>396.0</ele><time>2026-04-25T11:58:48.796Z</time></trkpt><trkpt lat="46.0372878" lon="10.8675954"><ele>396.0</ele><time>2026-04-25T11:58:49.814Z</time></trkpt><trkpt lat="46.037316" lon="10.8674489"><ele>396.0</ele><time>2026-04-25T11:58:50.799Z</time></trkpt><trkpt lat="46.0373433" lon="10.8672935"><ele>396.0</ele><time>2026-04-25T11:58:51.785Z</time></trkpt><trkpt lat="46.0373731" lon="10.8671398"><ele>396.0</ele><time>2026-04-25T11:58:52.798Z</time></trkpt><trkpt lat="46.0374072" lon="10.8669791"><ele>396.0</ele><time>2026-04-25T11:58:53.785Z</time></trkpt><trkpt lat="46.0374348" lon="10.8668208"><ele>396.0</ele><time>2026-04-25T11:58:54.775Z</time></trkpt><trkpt lat="46.0374618" lon="10.8666545"><ele>396.0</ele><time>2026-04-25T11:58:55.795Z</time></trkpt><trkpt lat="46.0374837" lon="10.8664903"><ele>396.0</ele><time>2026-04-25T11:58:56.781Z</time></trkpt><trkpt lat="46.0374997" lon="10.8663191"><ele>396.0</ele><time>2026-04-25T11:58:57.8Z</time></trkpt><trkpt lat="46.0375046" lon="10.8661466"><ele>396.0</ele><time>2026-04-25T11:58:58.793Z</time></trkpt><trkpt lat="46.0375" lon="10.8659729"><ele>396.0</ele><time>2026-04-25T11:58:59.798Z</time></trkpt><trkpt lat="46.0374878" lon="10.8657978"><ele>396.0</ele><time>2026-04-25T11:59:00.778Z</time></trkpt><trkpt lat="46.0374696" lon="10.8656159"><ele>396.0</ele><time>2026-04-25T11:59:01.79Z</time></trkpt><trkpt lat="46.0374461" lon="10.865434"><ele>396.0</ele><time>2026-04-25T11:59:02.81Z</time></trkpt><trkpt lat="46.0374277" lon="10.8652596"><ele>396.0</ele><time>2026-04-25T11:59:03.782Z</time></trkpt><trkpt lat="46.0374171" lon="10.8650792"><ele>397.4</ele><time>2026-04-25T11:59:04.797Z</time></trkpt><trkpt lat="46.0374056" lon="10.8649115"><ele>398.8</ele><time>2026-04-25T11:59:05.79Z</time></trkpt><trkpt lat="46.0373933" lon="10.8647562"><ele>400.2</ele><time>2026-04-25T11:59:06.787Z</time></trkpt><trkpt lat="46.0373769" lon="10.864604"><ele>401.59999999999997</ele><time>2026-04-25T11:59:07.795Z</time></trkpt><trkpt lat="46.0373603" lon="10.8644534"><ele>403.0</ele><time>2026-04-25T11:59:08.794Z</time></trkpt><trkpt lat="46.0373406" lon="10.8642974"><ele>403.2</ele><time>2026-04-25T11:59:09.814Z</time></trkpt><trkpt lat="46.0373137" lon="10.864152"><ele>403.4</ele><time>2026-04-25T11:59:10.78Z</time></trkpt><trkpt lat="46.0372732" lon="10.8640122"><ele>403.59999999999997</ele><time>2026-04-25T11:59:11.79Z</time></trkpt><trkpt lat="46.0372123" lon="10.8638949"><ele>403.79999999999995</ele><time>2026-04-25T11:59:12.792Z</time></trkpt><trkpt lat="46.0371333" lon="10.8637955"><ele>404.0</ele><time>2026-04-25T11:59:13.802Z</time></trkpt><trkpt lat="46.0370403" lon="10.8637141"><ele>404.0</ele><time>2026-04-25T11:59:14.779Z</time></trkpt><trkpt lat="46.0369324" lon="10.8636383"><ele>404.0</ele><time>2026-04-25T11:59:15.802Z</time></trkpt><trkpt lat="46.0368269" lon="10.8635692"><ele>404.0</ele><time>2026-04-25T11:59:16.777Z</time></trkpt><trkpt lat="46.036723" lon="10.8635101"><ele>404.0</ele><time>2026-04-25T11:59:17.805Z</time></trkpt><trkpt lat="46.0366322" lon="10.8634541"><ele>404.0</ele><time>2026-04-25T11:59:18.795Z</time></trkpt><trkpt lat="46.0365562" lon="10.8633971"><ele>405.49999999999994</ele><time>2026-04-25T11:59:19.794Z</time></trkpt><trkpt lat="46.0365058" lon="10.8633047"><ele>407.0</ele><time>2026-04-25T11:59:21.797Z</time></trkpt><trkpt lat="46.0364783" lon="10.8632021"><ele>408.5</ele><time>2026-04-25T11:59:32.754Z</time></trkpt><trkpt lat="46.0364879" lon="10.8630459"><ele>410.0</ele><time>2026-04-25T11:59:34.777Z</time></trkpt><trkpt lat="46.0365098" lon="10.8629519"><ele>411.49999999999994</ele><time>2026-04-25T11:59:35.814Z</time></trkpt><trkpt lat="46.0365293" lon="10.862862"><ele>413.0</ele><time>2026-04-25T11:59:36.792Z</time></trkpt><trkpt lat="46.0365509" lon="10.862764"><ele>413.0</ele><time>2026-04-25T11:59:37.77Z</time></trkpt><trkpt lat="46.0365774" lon="10.8626522"><ele>413.0</ele><time>2026-04-25T11:59:38.792Z</time></trkpt><trkpt lat="46.0366006" lon="10.8625294"><ele>413.0</ele><time>2026-04-25T11:59:39.788Z</time></trkpt><trkpt lat="46.0366283" lon="10.862386"><ele>413.0</ele><time>2026-04-25T11:59:40.776Z</time></trkpt><trkpt lat="46.0366628" lon="10.8622113"><ele>413.0</ele><time>2026-04-25T11:59:41.776Z</time></trkpt><trkpt lat="46.0367043" lon="10.8620142"><ele>411.0</ele><time>2026-04-25T11:59:42.792Z</time></trkpt><trkpt lat="46.036756" lon="10.8618051"><ele>409.0</ele><time>2026-04-25T11:59:43.795Z</time></trkpt><trkpt lat="46.0368239" lon="10.8615845"><ele>407.0</ele><time>2026-04-25T11:59:44.795Z</time></trkpt><trkpt lat="46.0369048" lon="10.8613725"><ele>407.0</ele><time>2026-04-25T11:59:45.803Z</time></trkpt><trkpt lat="46.0369849" lon="10.8611771"><ele>407.0</ele><time>2026-04-25T11:59:46.783Z</time></trkpt><trkpt lat="46.0370545" lon="10.8609844"><ele>407.0</ele><time>2026-04-25T11:59:47.791Z</time></trkpt><trkpt lat="46.0371308" lon="10.860793"><ele>410.0</ele><time>2026-04-25T11:59:48.768Z</time></trkpt><trkpt lat="46.0372144" lon="10.8605952"><ele>413.0</ele><time>2026-04-25T11:59:49.791Z</time></trkpt><trkpt lat="46.0372969" lon="10.8604026"><ele>416.0</ele><time>2026-04-25T11:59:50.811Z</time></trkpt><trkpt lat="46.0373767" lon="10.8602075"><ele>417.66666666666663</ele><time>2026-04-25T11:59:51.789Z</time></trkpt><trkpt lat="46.0374623" lon="10.8599986"><ele>419.33333333333337</ele><time>2026-04-25T11:59:52.798Z</time></trkpt><trkpt lat="46.0375475" lon="10.8597858"><ele>421.0</ele><time>2026-04-25T11:59:53.805Z</time></trkpt><trkpt lat="46.0376283" lon="10.8595867"><ele>419.0</ele><time>2026-04-25T11:59:54.781Z</time></trkpt><trkpt lat="46.0377069" lon="10.859381"><ele>417.0</ele><time>2026-04-25T11:59:55.811Z</time></trkpt><trkpt lat="46.0377773" lon="10.8591868"><ele>415.0</ele><time>2026-04-25T11:59:56.791Z</time></trkpt><trkpt lat="46.0378474" lon="10.8589904"><ele>415.0</ele><time>2026-04-25T11:59:57.797Z</time></trkpt><trkpt lat="46.0379144" lon="10.858787"><ele>415.0</ele><time>2026-04-25T11:59:58.791Z</time></trkpt><trkpt lat="46.0379823" lon="10.8585797"><ele>415.0</ele><time>2026-04-25T11:59:59.793Z</time></trkpt><trkpt lat="46.0380504" lon="10.8583789"><ele>416.0</ele><time>2026-04-25T12:00:00.755Z</time></trkpt><trkpt lat="46.0381249" lon="10.85817"><ele>417.0</ele><time>2026-04-25T12:00:01.747Z</time></trkpt><trkpt lat="46.0382024" lon="10.8579522"><ele>418.0</ele><time>2026-04-25T12:00:02.774Z</time></trkpt><trkpt lat="46.0382822" lon="10.8577264"><ele>416.6666666666667</ele><time>2026-04-25T12:00:03.808Z</time></trkpt><trkpt lat="46.0383571" lon="10.8575078"><ele>415.33333333333337</ele><time>2026-04-25T12:00:04.791Z</time></trkpt><trkpt lat="46.0384357" lon="10.8572777"><ele>414.0</ele><time>2026-04-25T12:00:05.794Z</time></trkpt><trkpt lat="46.0385183" lon="10.8570445"><ele>414.0</ele><time>2026-04-25T12:00:06.797Z</time></trkpt><trkpt lat="46.0386024" lon="10.8568208"><ele>414.0</ele><time>2026-04-25T12:00:07.777Z</time></trkpt><trkpt lat="46.0386893" lon="10.856584"><ele>414.0</ele><time>2026-04-25T12:00:08.776Z</time></trkpt><trkpt lat="46.0387772" lon="10.8563476"><ele>419.0</ele><time>2026-04-25T12:00:09.804Z</time></trkpt><trkpt lat="46.0388512" lon="10.8561219"><ele>424.0</ele><time>2026-04-25T12:00:10.763Z</time></trkpt><trkpt lat="46.0389272" lon="10.8558771"><ele>429.0</ele><time>2026-04-25T12:00:11.782Z</time></trkpt><trkpt lat="46.0389961" lon="10.855632"><ele>429.33333333333337</ele><time>2026-04-25T12:00:12.762Z</time></trkpt><trkpt lat="46.0390638" lon="10.8553696"><ele>429.6666666666667</ele><time>2026-04-25T12:00:13.786Z</time></trkpt><trkpt lat="46.0391248" lon="10.8551039"><ele>430.0</ele><time>2026-04-25T12:00:14.815Z</time></trkpt><trkpt lat="46.03919" lon="10.8548522"><ele>430.0</ele><time>2026-04-25T12:00:15.808Z</time></trkpt><trkpt lat="46.0392836" lon="10.8546164"><ele>430.0</ele><time>2026-04-25T12:00:16.796Z</time></trkpt><trkpt lat="46.0393952" lon="10.8543944"><ele>430.0</ele><time>2026-04-25T12:00:17.784Z</time></trkpt><trkpt lat="46.0395059" lon="10.8541679"><ele>438.6666666666667</ele><time>2026-04-25T12:00:18.77Z</time></trkpt><trkpt lat="46.0396168" lon="10.853947"><ele>447.33333333333337</ele><time>2026-04-25T12:00:19.786Z</time></trkpt><trkpt lat="46.0397256" lon="10.8537261"><ele>456.0</ele><time>2026-04-25T12:00:20.806Z</time></trkpt><trkpt lat="46.0398395" lon="10.8535021"><ele>462.33333333333337</ele><time>2026-04-25T12:00:21.817Z</time></trkpt><trkpt lat="46.0399462" lon="10.8532767"><ele>468.6666666666667</ele><time>2026-04-25T12:00:22.804Z</time></trkpt><trkpt lat="46.0400517" lon="10.8530492"><ele>475.0</ele><time>2026-04-25T12:00:23.799Z</time></trkpt><trkpt lat="46.0401502" lon="10.8528128"><ele>464.33333333333337</ele><time>2026-04-25T12:00:24.804Z</time></trkpt><trkpt lat="46.0402404" lon="10.8525795"><ele>453.66666666666663</ele><time>2026-04-25T12:00:25.792Z</time></trkpt><trkpt lat="46.0403266" lon="10.8523487"><ele>443.0</ele><time>2026-04-25T12:00:26.788Z</time></trkpt><trkpt lat="46.0404325" lon="10.8521376"><ele>443.0</ele><time>2026-04-25T12:00:27.8Z</time></trkpt><trkpt lat="46.0405597" lon="10.8519275"><ele>443.0</ele><time>2026-04-25T12:00:28.805Z</time></trkpt><trkpt lat="46.0406983" lon="10.8517358"><ele>443.0</ele><time>2026-04-25T12:00:29.797Z</time></trkpt><trkpt lat="46.040841" lon="10.8515547"><ele>440.3333333333333</ele><time>2026-04-25T12:00:30.773Z</time></trkpt><trkpt lat="46.0409808" lon="10.8513798"><ele>437.66666666666663</ele><time>2026-04-25T12:00:31.785Z</time></trkpt><trkpt lat="46.0411145" lon="10.8512102"><ele>435.0</ele><time>2026-04-25T12:00:32.802Z</time></trkpt><trkpt lat="46.041235" lon="10.8510517"><ele>435.0</ele><time>2026-04-25T12:00:33.781Z</time></trkpt><trkpt lat="46.0413653" lon="10.8508811"><ele>435.0</ele><time>2026-04-25T12:00:34.795Z</time></trkpt><trkpt lat="46.0415099" lon="10.8507261"><ele>435.0</ele><time>2026-04-25T12:00:35.792Z</time></trkpt><trkpt lat="46.0416636" lon="10.8506122"><ele>435.0</ele><time>2026-04-25T12:00:36.772Z</time></trkpt><trkpt lat="46.0418294" lon="10.8504949"><ele>435.0</ele><time>2026-04-25T12:00:37.788Z</time></trkpt><trkpt lat="46.0419946" lon="10.8503856"><ele>435.0</ele><time>2026-04-25T12:00:38.796Z</time></trkpt><trkpt lat="46.0421608" lon="10.8502791"><ele>435.0</ele><time>2026-04-25T12:00:39.79Z</time></trkpt><trkpt lat="46.0423308" lon="10.8501627"><ele>435.0</ele><time>2026-04-25T12:00:40.807Z</time></trkpt><trkpt lat="46.0424986" lon="10.8500785"><ele>435.0</ele><time>2026-04-25T12:00:41.785Z</time></trkpt><trkpt lat="46.0426832" lon="10.8500118"><ele>441.66666666666663</ele><time>2026-04-25T12:00:42.785Z</time></trkpt><trkpt lat="46.0428685" lon="10.8499737"><ele>448.3333333333333</ele><time>2026-04-25T12:00:43.79Z</time></trkpt><trkpt lat="46.0430574" lon="10.849955"><ele>455.0</ele><time>2026-04-25T12:00:44.769Z</time></trkpt><trkpt lat="46.0432523" lon="10.8499371"><ele>453.66666666666663</ele><time>2026-04-25T12:00:45.806Z</time></trkpt><trkpt lat="46.0434253" lon="10.8499106"><ele>452.33333333333337</ele><time>2026-04-25T12:00:46.779Z</time></trkpt><trkpt lat="46.0435798" lon="10.8498478"><ele>451.0</ele><time>2026-04-25T12:00:47.776Z</time></trkpt><trkpt lat="46.0437483" lon="10.8497702"><ele>451.0</ele><time>2026-04-25T12:00:48.775Z</time></trkpt><trkpt lat="46.0439212" lon="10.8496783"><ele>451.0</ele><time>2026-04-25T12:00:49.807Z</time></trkpt><trkpt lat="46.0440803" lon="10.8496003"><ele>451.0</ele><time>2026-04-25T12:00:50.792Z</time></trkpt><trkpt lat="46.0442326" lon="10.8495164"><ele>446.33333333333337</ele><time>2026-04-25T12:00:51.792Z</time></trkpt><trkpt lat="46.0443923" lon="10.8494031"><ele>441.66666666666663</ele><time>2026-04-25T12:00:52.783Z</time></trkpt><trkpt lat="46.0445291" lon="10.8493088"><ele>437.0</ele><time>2026-04-25T12:00:53.748Z</time></trkpt><trkpt lat="46.0446771" lon="10.849211"><ele>442.0</ele><time>2026-04-25T12:00:54.757Z</time></trkpt><trkpt lat="46.0448418" lon="10.8491211"><ele>447.0</ele><time>2026-04-25T12:00:55.783Z</time></trkpt><trkpt lat="46.0450027" lon="10.8490613"><ele>452.0</ele><time>2026-04-25T12:00:56.782Z</time></trkpt><trkpt lat="46.0451561" lon="10.8490204"><ele>452.0</ele><time>2026-04-25T12:00:57.782Z</time></trkpt><trkpt lat="46.045309" lon="10.8489738"><ele>452.0</ele><time>2026-04-25T12:00:58.776Z</time></trkpt><trkpt lat="46.0454544" lon="10.848913"><ele>452.0</ele><time>2026-04-25T12:00:59.769Z</time></trkpt><trkpt lat="46.0455839" lon="10.8488236"><ele>452.0</ele><time>2026-04-25T12:01:00.786Z</time></trkpt><trkpt lat="46.0457047" lon="10.8487094"><ele>452.0</ele><time>2026-04-25T12:01:01.786Z</time></trkpt><trkpt lat="46.0458289" lon="10.8485901"><ele>452.0</ele><time>2026-04-25T12:01:02.769Z</time></trkpt><trkpt lat="46.0459591" lon="10.8484932"><ele>452.0</ele><time>2026-04-25T12:01:03.777Z</time></trkpt><trkpt lat="46.0460901" lon="10.8484073"><ele>459.66666666666663</ele><time>2026-04-25T12:01:04.768Z</time></trkpt><trkpt lat="46.0462307" lon="10.8483401"><ele>467.33333333333337</ele><time>2026-04-25T12:01:05.793Z</time></trkpt><trkpt lat="46.0463754" lon="10.848282"><ele>475.0</ele><time>2026-04-25T12:01:06.795Z</time></trkpt><trkpt lat="46.0465275" lon="10.8482331"><ele>467.6666666666667</ele><time>2026-04-25T12:01:07.792Z</time></trkpt><trkpt lat="46.0466817" lon="10.8481816"><ele>460.33333333333337</ele><time>2026-04-25T12:01:08.793Z</time></trkpt><trkpt lat="46.0468405" lon="10.8481336"><ele>453.0</ele><time>2026-04-25T12:01:09.802Z</time></trkpt><trkpt lat="46.0469897" lon="10.8480816"><ele>453.0</ele><time>2026-04-25T12:01:10.789Z</time></trkpt><trkpt lat="46.0471411" lon="10.8480331"><ele>453.0</ele><time>2026-04-25T12:01:11.802Z</time></trkpt><trkpt lat="46.0472806" lon="10.8479854"><ele>453.0</ele><time>2026-04-25T12:01:12.771Z</time></trkpt><trkpt lat="46.0474132" lon="10.8479424"><ele>453.0</ele><time>2026-04-25T12:01:13.797Z</time></trkpt><trkpt lat="46.0475221" lon="10.8478784"><ele>450.5</ele><time>2026-04-25T12:01:14.784Z</time></trkpt><trkpt lat="46.047604" lon="10.8477844"><ele>448.0</ele><time>2026-04-25T12:01:15.788Z</time></trkpt><trkpt lat="46.0476867" lon="10.8476441"><ele>445.5</ele><time>2026-04-25T12:01:16.779Z</time></trkpt><trkpt lat="46.0477399" lon="10.8474792"><ele>443.0</ele><time>2026-04-25T12:01:17.805Z</time></trkpt><trkpt lat="46.0477972" lon="10.8472997"><ele>453.0</ele><time>2026-04-25T12:01:18.797Z</time></trkpt><trkpt lat="46.0478725" lon="10.8470944"><ele>463.0</ele><time>2026-04-25T12:01:19.794Z</time></trkpt><trkpt lat="46.0479696" lon="10.8469051"><ele>473.0</ele><time>2026-04-25T12:01:20.789Z</time></trkpt><trkpt lat="46.0480718" lon="10.8467437"><ele>468.0</ele><time>2026-04-25T12:01:21.814Z</time></trkpt><trkpt lat="46.0481676" lon="10.8466059"><ele>463.0</ele><time>2026-04-25T12:01:22.789Z</time></trkpt><trkpt lat="46.0482559" lon="10.8464747"><ele>458.0</ele><time>2026-04-25T12:01:23.812Z</time></trkpt><trkpt lat="46.0483463" lon="10.8463644"><ele>453.0</ele><time>2026-04-25T12:01:24.791Z</time></trkpt><trkpt lat="46.0484252" lon="10.8462769"><ele>453.0</ele><time>2026-04-25T12:01:25.781Z</time></trkpt><trkpt lat="46.0485418" lon="10.846189"><ele>453.0</ele><time>2026-04-25T12:01:26.811Z</time></trkpt><trkpt lat="46.0486659" lon="10.8461173"><ele>453.0</ele><time>2026-04-25T12:01:27.782Z</time></trkpt><trkpt lat="46.0487936" lon="10.8460462"><ele>453.0</ele><time>2026-04-25T12:01:28.769Z</time></trkpt><trkpt lat="46.0489481" lon="10.8459633"><ele>456.0</ele><time>2026-04-25T12:01:29.796Z</time></trkpt><trkpt lat="46.0490868" lon="10.8458797"><ele>459.0</ele><time>2026-04-25T12:01:30.808Z</time></trkpt><trkpt lat="46.0492208" lon="10.8457953"><ele>462.0</ele><time>2026-04-25T12:01:31.805Z</time></trkpt><trkpt lat="46.0493491" lon="10.8457129"><ele>465.0</ele><time>2026-04-25T12:01:32.785Z</time></trkpt><trkpt lat="46.0494842" lon="10.8456405"><ele>465.0</ele><time>2026-04-25T12:01:33.784Z</time></trkpt><trkpt lat="46.04963" lon="10.8455828"><ele>465.0</ele><time>2026-04-25T12:01:34.791Z</time></trkpt><trkpt lat="46.0497844" lon="10.8455382"><ele>465.0</ele><time>2026-04-25T12:01:35.812Z</time></trkpt><trkpt lat="46.0499335" lon="10.8455022"><ele>461.33333333333337</ele><time>2026-04-25T12:01:36.796Z</time></trkpt><trkpt lat="46.0500828" lon="10.8454762"><ele>457.6666666666667</ele><time>2026-04-25T12:01:37.768Z</time></trkpt><trkpt lat="46.0502453" lon="10.8454627"><ele>454.0</ele><time>2026-04-25T12:01:38.795Z</time></trkpt><trkpt lat="46.0503998" lon="10.8454679"><ele>454.0</ele><time>2026-04-25T12:01:39.803Z</time></trkpt><trkpt lat="46.0505452" lon="10.8454853"><ele>454.0</ele><time>2026-04-25T12:01:40.781Z</time></trkpt><trkpt lat="46.0506873" lon="10.8455033"><ele>454.0</ele><time>2026-04-25T12:01:41.81Z</time></trkpt><trkpt lat="46.0508121" lon="10.8455087"><ele>454.0</ele><time>2026-04-25T12:01:42.788Z</time></trkpt><trkpt lat="46.0509291" lon="10.845493"><ele>425.0</ele><time>2026-04-25T12:01:43.786Z</time></trkpt><trkpt lat="46.0393599" lon="10.8733968"><ele>425.0</ele><time>2026-04-25T11:57:43.831Z</time></trkpt><trkpt lat="46.0392674" lon="10.8732854"><ele>425.0</ele><time>2026-04-25T11:57:44.86Z</time></trkpt><trkpt lat="46.0391827" lon="10.8731749"><ele>425.0</ele><time>2026-04-25T11:57:45.795Z</time></trkpt><trkpt lat="46.0390914" lon="10.8730583"><ele>425.0</ele><time>2026-04-25T11:57:46.798Z</time></trkpt><trkpt lat="46.0390006" lon="10.8729516"><ele>423.0</ele><time>2026-04-25T11:57:47.785Z</time></trkpt><trkpt lat="46.0389075" lon="10.872848"><ele>421.0</ele><time>2026-04-25T11:57:48.778Z</time></trkpt><trkpt lat="46.0388174" lon="10.8727596"><ele>419.0</ele><time>2026-04-25T11:57:49.769Z</time></trkpt><trkpt lat="46.0387252" lon="10.8726751"><ele>417.0</ele><time>2026-04-25T11:57:50.789Z</time></trkpt><trkpt lat="46.0386342" lon="10.8725963"><ele>415.0</ele><time>2026-04-25T11:57:51.797Z</time></trkpt><trkpt lat="46.0385576" lon="10.8725288"><ele>415.0</ele><time>2026-04-25T11:57:52.769Z</time></trkpt><trkpt lat="46.038485" lon="10.8724537"><ele>415.0</ele><time>2026-04-25T11:57:53.784Z</time></trkpt><trkpt lat="46.038426" lon="10.8723643"><ele>415.0</ele><time>2026-04-25T11:57:54.793Z</time></trkpt><trkpt lat="46.0383883" lon="10.8722515"><ele>415.0</ele><time>2026-04-25T11:57:55.808Z</time></trkpt><trkpt lat="46.0383602" lon="10.8721227"><ele>415.0</ele><time>2026-04-25T11:57:56.793Z</time></trkpt><trkpt lat="46.0383303" lon="10.871981"><ele>411.4</ele><time>2026-04-25T11:57:57.789Z</time></trkpt><trkpt lat="46.0382949" lon="10.8718549"><ele>407.8</ele><time>2026-04-25T11:57:58.766Z</time></trkpt><trkpt lat="46.0382426" lon="10.8717382"><ele>404.20000000000005</ele><time>2026-04-25T11:57:59.795Z</time></trkpt><trkpt lat="46.038184" lon="10.8716388"><ele>400.6</ele><time>2026-04-25T11:58:00.791Z</time></trkpt><trkpt lat="46.0381236" lon="10.8715429"><ele>397.0</ele><time>2026-04-25T11:58:01.804Z</time></trkpt><trkpt lat="46.038065" lon="10.8714466"><ele>397.0</ele><time>2026-04-25T11:58:02.808Z</time></trkpt><trkpt lat="46.0380108" lon="10.8713442"><ele>397.0</ele><time>2026-04-25T11:58:03.786Z</time></trkpt><trkpt lat="46.0379651" lon="10.8712282"><ele>397.0</ele><time>2026-04-25T11:58:04.787Z</time></trkpt><trkpt lat="46.0379324" lon="10.8710986"><ele>397.0</ele><time>2026-04-25T11:58:05.81Z</time></trkpt><trkpt lat="46.0379114" lon="10.8709661"><ele>397.0</ele><time>2026-04-25T11:58:06.795Z</time></trkpt><trkpt lat="46.0378995" lon="10.8708357"><ele>397.00000000000006</ele><time>2026-04-25T11:58:07.812Z</time></trkpt><trkpt lat="46.0378888" lon="10.8707187"><ele>397.0</ele><time>2026-04-25T11:58:08.746Z</time></trkpt><trkpt lat="46.0378754" lon="10.8705944"><ele>397.0</ele><time>2026-04-25T11:58:09.778Z</time></trkpt><trkpt lat="46.0378601" lon="10.8704742"><ele>397.0</ele><time>2026-04-25T11:58:10.806Z</time></trkpt><trkpt lat="46.0378427" lon="10.870366"><ele>397.00000000000006</ele><time>2026-04-25T11:58:11.806Z</time></trkpt><trkpt lat="46.0378171" lon="10.8702633"><ele>397.0</ele><time>2026-04-25T11:58:12.799Z</time></trkpt><trkpt lat="46.0377778" lon="10.8701767"><ele>397.00000000000006</ele><time>2026-04-25T11:58:13.81Z</time></trkpt><trkpt lat="46.0377221" lon="10.870115"><ele>397.0</ele><time>2026-04-25T11:58:14.78Z</time></trkpt><trkpt lat="46.0376525" lon="10.8700751"><ele>397.0</ele><time>2026-04-25T11:58:15.787Z</time></trkpt><trkpt lat="46.037574" lon="10.870052"><ele>397.0</ele><time>2026-04-25T11:58:16.807Z</time></trkpt><trkpt lat="46.0374952" lon="10.8700333"><ele>397.00000000000006</ele><time>2026-04-25T11:58:17.8Z</time></trkpt><trkpt lat="46.037423" lon="10.8700139"><ele>397.0</ele><time>2026-04-25T11:58:18.806Z</time></trkpt><trkpt lat="46.0373514" lon="10.8699963"><ele>396.83333333333337</ele><time>2026-04-25T11:58:19.795Z</time></trkpt><trkpt lat="46.0372838" lon="10.8699789"><ele>396.6666666666667</ele><time>2026-04-25T11:58:20.789Z</time></trkpt><trkpt lat="46.0372114" lon="10.8699645"><ele>396.5</ele><time>2026-04-25T11:58:21.8Z</time></trkpt><trkpt lat="46.0371445" lon="10.8699491"><ele>396.33333333333337</ele><time>2026-04-25T11:58:22.783Z</time></trkpt><trkpt lat="46.0370757" lon="10.8699322"><ele>396.1666666666667</ele><time>2026-04-25T11:58:23.793Z</time></trkpt><trkpt lat="46.0369626" lon="10.8699003"><ele>396.0</ele><time>2026-04-25T11:58:25.789Z</time></trkpt><trkpt lat="46.0368906" lon="10.8698585"><ele>396.0</ele><time>2026-04-25T11:58:27.794Z</time></trkpt><trkpt lat="46.0368607" lon="10.8697654"><ele>396.0</ele><time>2026-04-25T11:58:29.799Z</time></trkpt><trkpt lat="46.036893" lon="10.8696001"><ele>396.0</ele><time>2026-04-25T11:58:31.792Z</time></trkpt><trkpt lat="46.0369235" lon="10.8695182"><ele>396.0</ele><time>2026-04-25T11:58:32.81Z</time></trkpt><trkpt lat="46.0369663" lon="10.8693674"><ele>396.0</ele><time>2026-04-25T11:58:34.77Z</time></trkpt><trkpt lat="46.0370088" lon="10.8692083"><ele>396.0</ele><time>2026-04-25T11:58:36.79Z</time></trkpt><trkpt lat="46.0370616" lon="10.8690362"><ele>396.0</ele><time>2026-04-25T11:58:38.776Z</time></trkpt><trkpt lat="46.0370818" lon="10.8689378"><ele>396.0</ele><time>2026-04-25T11:58:39.793Z</time></trkpt><trkpt lat="46.0371091" lon="10.8688251"><ele>396.0</ele><time>2026-04-25T11:58:40.783Z</time></trkpt><trkpt lat="46.0371303" lon="10.8687047"><ele>396.0</ele><time>2026-04-25T11:58:41.816Z</time></trkpt><trkpt lat="46.0371419" lon="10.868585"><ele>396.0</ele><time>2026-04-25T11:58:42.784Z</time></trkpt><trkpt lat="46.0371603" lon="10.8684516"><ele>396.0</ele><time>2026-04-25T11:58:43.814Z</time></trkpt><trkpt lat="46.0371806" lon="10.8683187"><ele>396.0</ele><time>2026-04-25T11:58:44.797Z</time></trkpt><trkpt lat="46.037197" lon="10.8681765"><ele>396.0</ele><time>2026-04-25T11:58:45.81Z</time></trkpt><trkpt lat="46.0372182" lon="10.8680391"><ele>396.0</ele><time>2026-04-25T11:58:46.772Z</time></trkpt><trkpt lat="46.0372416" lon="10.8678853"><ele>396.0</ele><time>2026-04-25T11:58:47.809Z</time></trkpt><trkpt lat="46.0372625" lon="10.867744"><ele>396.0</ele><time>2026-04-25T11:58:48.796Z</time></trkpt><trkpt lat="46.0372878" lon="10.8675954"><ele>396.0</ele><time>2026-04-25T11:58:49.814Z</time></trkpt><trkpt lat="46.037316" lon="10.8674489"><ele>396.0</ele><time>2026-04-25T11:58:50.799Z</time></trkpt><trkpt lat="46.0373433" lon="10.8672935"><ele>396.0</ele><time>2026-04-25T11:58:51.785Z</time></trkpt><trkpt lat="46.0373731" lon="10.8671398"><ele>396.0</ele><time>2026-04-25T11:58:52.798Z</time></trkpt><trkpt lat="46.0374072" lon="10.8669791"><ele>396.0</ele><time>2026-04-25T11:58:53.785Z</time></trkpt><trkpt lat="46.0374348" lon="10.8668208"><ele>396.0</ele><time>2026-04-25T11:58:54.775Z</time></trkpt><trkpt lat="46.0374618" lon="10.8666545"><ele>396.0</ele><time>2026-04-25T11:58:55.795Z</time></trkpt><trkpt lat="46.0374837" lon="10.8664903"><ele>396.0</ele><time>2026-04-25T11:58:56.781Z</time></trkpt><trkpt lat="46.0374997" lon="10.8663191"><ele>396.0</ele><time>2026-04-25T11:58:57.8Z</time></trkpt><trkpt lat="46.0375046" lon="10.8661466"><ele>396.0</ele><time>2026-04-25T11:58:58.793Z</time></trkpt><trkpt lat="46.0375" lon="10.8659729"><ele>396.0</ele><time>2026-04-25T11:58:59.798Z</time></trkpt><trkpt lat="46.0374878" lon="10.8657978"><ele>396.0</ele><time>2026-04-25T11:59:00.778Z</time></trkpt><trkpt lat="46.0374696" lon="10.8656159"><ele>396.0</ele><time>2026-04-25T11:59:01.79Z</time></trkpt><trkpt lat="46.0374461" lon="10.865434"><ele>396.0</ele><time>2026-04-25T11:59:02.81Z</time></trkpt><trkpt lat="46.0374277" lon="10.8652596"><ele>396.0</ele><time>2026-04-25T11:59:03.782Z</time></trkpt><trkpt lat="46.0374171" lon="10.8650792"><ele>397.4</ele><time>2026-04-25T11:59:04.797Z</time></trkpt><trkpt lat="46.0374056" lon="10.8649115"><ele>398.8</ele><time>2026-04-25T11:59:05.79Z</time></trkpt><trkpt lat="46.0373933" lon="10.8647562"><ele>400.2</ele><time>2026-04-25T11:59:06.787Z</time></trkpt><trkpt lat="46.0373769" lon="10.864604"><ele>401.59999999999997</ele><time>2026-04-25T11:59:07.795Z</time></trkpt><trkpt lat="46.0373603" lon="10.8644534"><ele>403.0</ele><time>2026-04-25T11:59:08.794Z</time></trkpt><trkpt lat="46.0373406" lon="10.8642974"><ele>403.2</ele><time>2026-04-25T11:59:09.814Z</time></trkpt><trkpt lat="46.0373137" lon="10.864152"><ele>403.4</ele><time>2026-04-25T11:59:10.78Z</time></trkpt><trkpt lat="46.0372732" lon="10.8640122"><ele>403.59999999999997</ele><time>2026-04-25T11:59:11.79Z</time></trkpt><trkpt lat="46.0372123" lon="10.8638949"><ele>403.79999999999995</ele><time>2026-04-25T11:59:12.792Z</time></trkpt><trkpt lat="46.0371333" lon="10.8637955"><ele>404.0</ele><time>2026-04-25T11:59:13.802Z</time></trkpt><trkpt lat="46.0370403" lon="10.8637141"><ele>404.0</ele><time>2026-04-25T11:59:14.779Z</time></trkpt><trkpt lat="46.0369324" lon="10.8636383"><ele>404.0</ele><time>2026-04-25T11:59:15.802Z</time></trkpt><trkpt lat="46.0368269" lon="10.8635692"><ele>404.0</ele><time>2026-04-25T11:59:16.777Z</time></trkpt><trkpt lat="46.036723" lon="10.8635101"><ele>404.0</ele><time>2026-04-25T11:59:17.805Z</time></trkpt><trkpt lat="46.0366322" lon="10.8634541"><ele>404.0</ele><time>2026-04-25T11:59:18.795Z</time></trkpt><trkpt lat="46.0365562" lon="10.8633971"><ele>405.49999999999994</ele><time>2026-04-25T11:59:19.794Z</time></trkpt><trkpt lat="46.0365058" lon="10.8633047"><ele>407.0</ele><time>2026-04-25T11:59:21.797Z</time></trkpt><trkpt lat="46.0364783" lon="10.8632021"><ele>408.5</ele><time>2026-04-25T11:59:32.754Z</time></trkpt><trkpt lat="46.0364879" lon="10.8630459"><ele>410.0</ele><time>2026-04-25T11:59:34.777Z</time></trkpt><trkpt lat="46.0365098" lon="10.8629519"><ele>411.49999999999994</ele><time>2026-04-25T11:59:35.814Z</time></trkpt><trkpt lat="46.0365293" lon="10.862862"><ele>413.0</ele><time>2026-04-25T11:59:36.792Z</time></trkpt><trkpt lat="46.0365509" lon="10.862764"><ele>413.0</ele><time>2026-04-25T11:59:37.77Z</time></trkpt><trkpt lat="46.0365774" lon="10.8626522"><ele>413.0</ele><time>2026-04-25T11:59:38.792Z</time></trkpt><trkpt lat="46.0366006" lon="10.8625294"><ele>413.0</ele><time>2026-04-25T11:59:39.788Z</time></trkpt><trkpt lat="46.0366283" lon="10.862386"><ele>413.0</ele><time>2026-04-25T11:59:40.776Z</time></trkpt><trkpt lat="46.0366628" lon="10.8622113"><ele>413.0</ele><time>2026-04-25T11:59:41.776Z</time></trkpt><trkpt lat="46.0367043" lon="10.8620142"><ele>411.0</ele><time>2026-04-25T11:59:42.792Z</time></trkpt><trkpt lat="46.036756" lon="10.8618051"><ele>409.0</ele><time>2026-04-25T11:59:43.795Z</time></trkpt><trkpt lat="46.0368239" lon="10.8615845"><ele>407.0</ele><time>2026-04-25T11:59:44.795Z</time></trkpt><trkpt lat="46.0369048" lon="10.8613725"><ele>407.0</ele><time>2026-04-25T11:59:45.803Z</time></trkpt><trkpt lat="46.0369849" lon="10.8611771"><ele>407.0</ele><time>2026-04-25T11:59:46.783Z</time></trkpt><trkpt lat="46.0370545" lon="10.8609844"><ele>407.0</ele><time>2026-04-25T11:59:47.791Z</time></trkpt><trkpt lat="46.0371308" lon="10.860793"><ele>410.0</ele><time>2026-04-25T11:59:48.768Z</time></trkpt><trkpt lat="46.0372144" lon="10.8605952"><ele>413.0</ele><time>2026-04-25T11:59:49.791Z</time></trkpt><trkpt lat="46.0372969" lon="10.8604026"><ele>416.0</ele><time>2026-04-25T11:59:50.811Z</time></trkpt><trkpt lat="46.0373767" lon="10.8602075"><ele>417.66666666666663</ele><time>2026-04-25T11:59:51.789Z</time></trkpt><trkpt lat="46.0374623" lon="10.8599986"><ele>419.33333333333337</ele><time>2026-04-25T11:59:52.798Z</time></trkpt><trkpt lat="46.0375475" lon="10.8597858"><ele>421.0</ele><time>2026-04-25T11:59:53.805Z</time></trkpt><trkpt lat="46.0376283" lon="10.8595867"><ele>419.0</ele><time>2026-04-25T11:59:54.781Z</time></trkpt><trkpt lat="46.0377069" lon="10.859381"><ele>417.0</ele><time>2026-04-25T11:59:55.811Z</time></trkpt><trkpt lat="46.0377773" lon="10.8591868"><ele>415.0</ele><time>2026-04-25T11:59:56.791Z</time></trkpt><trkpt lat="46.0378474" lon="10.8589904"><ele>415.0</ele><time>2026-04-25T11:59:57.797Z</time></trkpt><trkpt lat="46.0379144" lon="10.858787"><ele>415.0</ele><time>2026-04-25T11:59:58.791Z</time></trkpt><trkpt lat="46.0379823" lon="10.8585797"><ele>415.0</ele><time>2026-04-25T11:59:59.793Z</time></trkpt><trkpt lat="46.0380504" lon="10.8583789"><ele>416.0</ele><time>2026-04-25T12:00:00.755Z</time></trkpt><trkpt lat="46.0381249" lon="10.85817"><ele>417.0</ele><time>2026-04-25T12:00:01.747Z</time></trkpt><trkpt lat="46.0382024" lon="10.8579522"><ele>418.0</ele><time>2026-04-25T12:00:02.774Z</time></trkpt><trkpt lat="46.0382822" lon="10.8577264"><ele>416.6666666666667</ele><time>2026-04-25T12:00:03.808Z</time></trkpt><trkpt lat="46.0383571" lon="10.8575078"><ele>415.33333333333337</ele><time>2026-04-25T12:00:04.791Z</time></trkpt><trkpt lat="46.0384357" lon="10.8572777"><ele>414.0</ele><time>2026-04-25T12:00:05.794Z</time></trkpt><trkpt lat="46.0385183" lon="10.8570445"><ele>414.0</ele><time>2026-04-25T12:00:06.797Z</time></trkpt><trkpt lat="46.0386024" lon="10.8568208"><ele>414.0</ele><time>2026-04-25T12:00:07.777Z</time></trkpt><trkpt lat="46.0386893" lon="10.856584"><ele>414.0</ele><time>2026-04-25T12:00:08.776Z</time></trkpt><trkpt lat="46.0387772" lon="10.8563476"><ele>419.0</ele><time>2026-04-25T12:00:09.804Z</time></trkpt><trkpt lat="46.0388512" lon="10.8561219"><ele>424.0</ele><time>2026-04-25T12:00:10.763Z</time></trkpt><trkpt lat="46.0389272" lon="10.8558771"><ele>429.0</ele><time>2026-04-25T12:00:11.782Z</time></trkpt><trkpt lat="46.0389961" lon="10.855632"><ele>429.33333333333337</ele><time>2026-04-25T12:00:12.762Z</time></trkpt><trkpt lat="46.0390638" lon="10.8553696"><ele>429.6666666666667</ele><time>2026-04-25T12:00:13.786Z</time></trkpt><trkpt lat="46.0391248" lon="10.8551039"><ele>430.0</ele><time>2026-04-25T12:00:14.815Z</time></trkpt><trkpt lat="46.03919" lon="10.8548522"><ele>430.0</ele><time>2026-04-25T12:00:15.808Z</time></trkpt><trkpt lat="46.0392836" lon="10.8546164"><ele>430.0</ele><time>2026-04-25T12:00:16.796Z</time></trkpt><trkpt lat="46.0393952" lon="10.8543944"><ele>430.0</ele><time>2026-04-25T12:00:17.784Z</time></trkpt><trkpt lat="46.0395059" lon="10.8541679"><ele>438.6666666666667</ele><time>2026-04-25T12:00:18.77Z</time></trkpt><trkpt lat="46.0396168" lon="10.853947"><ele>447.33333333333337</ele><time>2026-04-25T12:00:19.786Z</time></trkpt><trkpt lat="46.0397256" lon="10.8537261"><ele>456.0</ele><time>2026-04-25T12:00:20.806Z</time></trkpt><trkpt lat="46.0398395" lon="10.8535021"><ele>462.33333333333337</ele><time>2026-04-25T12:00:21.817Z</time></trkpt><trkpt lat="46.0399462" lon="10.8532767"><ele>468.6666666666667</ele><time>2026-04-25T12:00:22.804Z</time></trkpt><trkpt lat="46.0400517" lon="10.8530492"><ele>475.0</ele><time>2026-04-25T12:00:23.799Z</time></trkpt><trkpt lat="46.0401502" lon="10.8528128"><ele>464.33333333333337</ele><time>2026-04-25T12:00:24.804Z</time></trkpt><trkpt lat="46.0402404" lon="10.8525795"><ele>453.66666666666663</ele><time>2026-04-25T12:00:25.792Z</time></trkpt><trkpt lat="46.0403266" lon="10.8523487"><ele>443.0</ele><time>2026-04-25T12:00:26.788Z</time></trkpt><trkpt lat="46.0404325" lon="10.8521376"><ele>443.0</ele><time>2026-04-25T12:00:27.8Z</time></trkpt><trkpt lat="46.0405597" lon="10.8519275"><ele>443.0</ele><time>2026-04-25T12:00:28.805Z</time></trkpt><trkpt lat="46.0406983" lon="10.8517358"><ele>443.0</ele><time>2026-04-25T12:00:29.797Z</time></trkpt><trkpt lat="46.040841" lon="10.8515547"><ele>440.3333333333333</ele><time>2026-04-25T12:00:30.773Z</time></trkpt><trkpt lat="46.0409808" lon="10.8513798"><ele>437.66666666666663</ele><time>2026-04-25T12:00:31.785Z</time></trkpt><trkpt lat="46.0411145" lon="10.8512102"><ele>435.0</ele><time>2026-04-25T12:00:32.802Z</time></trkpt><trkpt lat="46.041235" lon="10.8510517"><ele>435.0</ele><time>2026-04-25T12:00:33.781Z</time></trkpt><trkpt lat="46.0413653" lon="10.8508811"><ele>435.0</ele><time>2026-04-25T12:00:34.795Z</time></trkpt><trkpt lat="46.0415099" lon="10.8507261"><ele>435.0</ele><time>2026-04-25T12:00:35.792Z</time></trkpt><trkpt lat="46.0416636" lon="10.8506122"><ele>435.0</ele><time>2026-04-25T12:00:36.772Z</time></trkpt><trkpt lat="46.0418294" lon="10.8504949"><ele>435.0</ele><time>2026-04-25T12:00:37.788Z</time></trkpt><trkpt lat="46.0419946" lon="10.8503856"><ele>435.0</ele><time>2026-04-25T12:00:38.796Z</time></trkpt><trkpt lat="46.0421608" lon="10.8502791"><ele>435.0</ele><time>2026-04-25T12:00:39.79Z</time></trkpt><trkpt lat="46.0423308" lon="10.8501627"><ele>435.0</ele><time>2026-04-25T12:00:40.807Z</time></trkpt><trkpt lat="46.0424986" lon="10.8500785"><ele>435.0</ele><time>2026-04-25T12:00:41.785Z</time></trkpt><trkpt lat="46.0426832" lon="10.8500118"><ele>441.66666666666663</ele><time>2026-04-25T12:00:42.785Z</time></trkpt><trkpt lat="46.0428685" lon="10.8499737"><ele>448.3333333333333</ele><time>2026-04-25T12:00:43.79Z</time></trkpt><trkpt lat="46.0430574" lon="10.849955"><ele>455.0</ele><time>2026-04-25T12:00:44.769Z</time></trkpt><trkpt lat="46.0432523" lon="10.8499371"><ele>453.66666666666663</ele><time>2026-04-25T12:00:45.806Z</time></trkpt><trkpt lat="46.0434253" lon="10.8499106"><ele>452.33333333333337</ele><time>2026-04-25T12:00:46.779Z</time></trkpt><trkpt lat="46.0435798" lon="10.8498478"><ele>451.0</ele><time>2026-04-25T12:00:47.776Z</time></trkpt><trkpt lat="46.0437483" lon="10.8497702"><ele>451.0</ele><time>2026-04-25T12:00:48.775Z</time></trkpt><trkpt lat="46.0439212" lon="10.8496783"><ele>451.0</ele><time>2026-04-25T12:00:49.807Z</time></trkpt><trkpt lat="46.0440803" lon="10.8496003"><ele>451.0</ele><time>2026-04-25T12:00:50.792Z</time></trkpt><trkpt lat="46.0442326" lon="10.8495164"><ele>446.33333333333337</ele><time>2026-04-25T12:00:51.792Z</time></trkpt><trkpt lat="46.0443923" lon="10.8494031"><ele>441.66666666666663</ele><time>2026-04-25T12:00:52.783Z</time></trkpt><trkpt lat="46.0445291" lon="10.8493088"><ele>437.0</ele><time>2026-04-25T12:00:53.748Z</time></trkpt><trkpt lat="46.0446771" lon="10.849211"><ele>442.0</ele><time>2026-04-25T12:00:54.757Z</time></trkpt><trkpt lat="46.0448418" lon="10.8491211"><ele>447.0</ele><time>2026-04-25T12:00:55.783Z</time></trkpt><trkpt lat="46.0450027" lon="10.8490613"><ele>452.0</ele><time>2026-04-25T12:00:56.782Z</time></trkpt><trkpt lat="46.0451561" lon="10.8490204"><ele>452.0</ele><time>2026-04-25T12:00:57.782Z</time></trkpt><trkpt lat="46.045309" lon="10.8489738"><ele>452.0</ele><time>2026-04-25T12:00:58.776Z</time></trkpt><trkpt lat="46.0454544" lon="10.848913"><ele>452.0</ele><time>2026-04-25T12:00:59.769Z</time></trkpt><trkpt lat="46.0455839" lon="10.8488236"><ele>452.0</ele><time>2026-04-25T12:01:00.786Z</time></trkpt><trkpt lat="46.0457047" lon="10.8487094"><ele>452.0</ele><time>2026-04-25T12:01:01.786Z</time></trkpt><trkpt lat="46.0458289" lon="10.8485901"><ele>452.0</ele><time>2026-04-25T12:01:02.769Z</time></trkpt><trkpt lat="46.0459591" lon="10.8484932"><ele>452.0</ele><time>2026-04-25T12:01:03.777Z</time></trkpt><trkpt lat="46.0460901" lon="10.8484073"><ele>459.66666666666663</ele><time>2026-04-25T12:01:04.768Z</time></trkpt><trkpt lat="46.0462307" lon="10.8483401"><ele>467.33333333333337</ele><time>2026-04-25T12:01:05.793Z</time></trkpt><trkpt lat="46.0463754" lon="10.848282"><ele>475.0</ele><time>2026-04-25T12:01:06.795Z</time></trkpt><trkpt lat="46.0465275" lon="10.8482331"><ele>467.6666666666667</ele><time>2026-04-25T12:01:07.792Z</time></trkpt><trkpt lat="46.0466817" lon="10.8481816"><ele>460.33333333333337</ele><time>2026-04-25T12:01:08.793Z</time></trkpt><trkpt lat="46.0468405" lon="10.8481336"><ele>453.0</ele><time>2026-04-25T12:01:09.802Z</time></trkpt><trkpt lat="46.0469897" lon="10.8480816"><ele>453.0</ele><time>2026-04-25T12:01:10.789Z</time></trkpt><trkpt lat="46.0471411" lon="10.8480331"><ele>453.0</ele><time>2026-04-25T12:01:11.802Z</time></trkpt><trkpt lat="46.0472806" lon="10.8479854"><ele>453.0</ele><time>2026-04-25T12:01:12.771Z</time></trkpt><trkpt lat="46.0474132" lon="10.8479424"><ele>453.0</ele><time>2026-04-25T12:01:13.797Z</time></trkpt><trkpt lat="46.0475221" lon="10.8478784"><ele>450.5</ele><time>2026-04-25T12:01:14.784Z</time></trkpt><trkpt lat="46.047604" lon="10.8477844"><ele>448.0</ele><time>2026-04-25T12:01:15.788Z</time></trkpt><trkpt lat="46.0476867" lon="10.8476441"><ele>445.5</ele><time>2026-04-25T12:01:16.779Z</time></trkpt><trkpt lat="46.0477399" lon="10.8474792"><ele>443.0</ele><time>2026-04-25T12:01:17.805Z</time></trkpt><trkpt lat="46.0477972" lon="10.8472997"><ele>453.0</ele><time>2026-04-25T12:01:18.797Z</time></trkpt><trkpt lat="46.0478725" lon="10.8470944"><ele>463.0</ele><time>2026-04-25T12:01:19.794Z</time></trkpt><trkpt lat="46.0479696" lon="10.8469051"><ele>473.0</ele><time>2026-04-25T12:01:20.789Z</time></trkpt><trkpt lat="46.0480718" lon="10.8467437"><ele>468.0</ele><time>2026-04-25T12:01:21.814Z</time></trkpt><trkpt lat="46.0481676" lon="10.8466059"><ele>463.0</ele><time>2026-04-25T12:01:22.789Z</time></trkpt><trkpt lat="46.0482559" lon="10.8464747"><ele>458.0</ele><time>2026-04-25T12:01:23.812Z</time></trkpt><trkpt lat="46.0483463" lon="10.8463644"><ele>453.0</ele><time>2026-04-25T12:01:24.791Z</time></trkpt><trkpt lat="46.0484252" lon="10.8462769"><ele>453.0</ele><time>2026-04-25T12:01:25.781Z</time></trkpt><trkpt lat="46.0485418" lon="10.846189"><ele>453.0</ele><time>2026-04-25T12:01:26.811Z</time></trkpt><trkpt lat="46.0486659" lon="10.8461173"><ele>453.0</ele><time>2026-04-25T12:01:27.782Z</time></trkpt><trkpt lat="46.0487936" lon="10.8460462"><ele>453.0</ele><time>2026-04-25T12:01:28.769Z</time></trkpt><trkpt lat="46.0489481" lon="10.8459633"><ele>456.0</ele><time>2026-04-25T12:01:29.796Z</time></trkpt><trkpt lat="46.0490868" lon="10.8458797"><ele>459.0</ele><time>2026-04-25T12:01:30.808Z</time></trkpt><trkpt lat="46.0492208" lon="10.8457953"><ele>462.0</ele><time>2026-04-25T12:01:31.805Z</time></trkpt><trkpt lat="46.0493491" lon="10.8457129"><ele>465.0</ele><time>2026-04-25T12:01:32.785Z</time></trkpt><trkpt lat="46.0494842" lon="10.8456405"><ele>465.0</ele><time>2026-04-25T12:01:33.784Z</time></trkpt><trkpt lat="46.04963" lon="10.8455828"><ele>465.0</ele><time>2026-04-25T12:01:34.791Z</time></trkpt><trkpt lat="46.0497844" lon="10.8455382"><ele>465.0</ele><time>2026-04-25T12:01:35.812Z</time></trkpt><trkpt lat="46.0499335" lon="10.8455022"><ele>461.33333333333337</ele><time>2026-04-25T12:01:36.796Z</time></trkpt><trkpt lat="46.0500828" lon="10.8454762"><ele>457.6666666666667</ele><time>2026-04-25T12:01:37.768Z</time></trkpt><trkpt lat="46.0502453" lon="10.8454627"><ele>454.0</ele><time>2026-04-25T12:01:38.795Z</time></trkpt><trkpt lat="46.0503998" lon="10.8454679"><ele>454.0</ele><time>2026-04-25T12:01:39.803Z</time></trkpt><trkpt lat="46.0505452" lon="10.8454853"><ele>454.0</ele><time>2026-04-25T12:01:40.781Z</time></trkpt><trkpt lat="46.0506873" lon="10.8455033"><ele>454.0</ele><time>2026-04-25T12:01:41.81Z</time></trkpt><trkpt lat="46.0508121" lon="10.8455087"><ele>454.0</ele><time>2026-04-25T12:01:42.788Z</time></trkpt><trkpt lat="46.0509291" lon="10.845493"><ele>453.0</ele><time>2026-04-25T12:01:43.786Z</time></trkpt><trkpt lat="46.0510294" lon="10.8454408"><ele>452.0</ele><time>2026-04-25T12:01:44.79Z</time></trkpt><trkpt lat="46.0511177" lon="10.8453582"><ele>451.0</ele><time>2026-04-25T12:01:45.794Z</time></trkpt><trkpt lat="46.0511976" lon="10.8452416"><ele>450.0</ele><time>2026-04-25T12:01:46.777Z</time></trkpt><trkpt lat="46.0512761" lon="10.8450973"><ele>462.66666666666663</ele><time>2026-04-25T12:01:47.769Z</time></trkpt><trkpt lat="46.0513568" lon="10.8449177"><ele>475.3333333333333</ele><time>2026-04-25T12:01:48.797Z</time></trkpt><trkpt lat="46.051453" lon="10.8446478"><ele>488.0</ele><time>2026-04-25T12:01:50.122Z</time></trkpt><trkpt lat="46.0516039" lon="10.8443282"><ele>496.25</ele><time>2026-04-25T12:01:51.81Z</time></trkpt><trkpt lat="46.0516915" lon="10.8441405"><ele>504.5</ele><time>2026-04-25T12:01:52.828Z</time></trkpt><trkpt lat="46.0517668" lon="10.8439918"><ele>512.75</ele><time>2026-04-25T12:01:53.82Z</time></trkpt><trkpt lat="46.051836" lon="10.8438681"><ele>521.0</ele><time>2026-04-25T12:01:54.82Z</time></trkpt><trkpt lat="46.0518783" lon="10.8437746"><ele>521.0</ele><time>2026-04-25T12:01:55.788Z</time></trkpt><trkpt lat="46.0519359" lon="10.8435737"><ele>521.0</ele><time>2026-04-25T12:01:56.806Z</time></trkpt><trkpt lat="46.0519661" lon="10.843397"><ele>521.0</ele><time>2026-04-25T12:01:57.785Z</time></trkpt><trkpt lat="46.0519855" lon="10.8432163"><ele>521.0</ele><time>2026-04-25T12:01:58.783Z</time></trkpt><trkpt lat="46.0520223" lon="10.8429643"><ele>524.5</ele><time>2026-04-25T12:01:59.764Z</time></trkpt><trkpt lat="46.0520599" lon="10.8427723"><ele>528.0</ele><time>2026-04-25T12:02:00.742Z</time></trkpt><trkpt lat="46.0513767" lon="10.8449932"><ele>508.0</ele><time>2026-04-25T12:02:01.691Z</time></trkpt><trkpt lat="46.0530201" lon="10.8410189"><ele>670.0</ele><time>2026-04-25T12:02:14.988Z</time></trkpt><trkpt lat="46.0540925" lon="10.8279575"><ele>670.0</ele><time>2026-04-25T12:03:09.628Z</time></trkpt><trkpt lat="46.0540421" lon="10.8277586"><ele>670.0</ele><time>2026-04-25T12:03:10.627Z</time></trkpt><trkpt lat="46.0539629" lon="10.8275665"><ele>670.0</ele><time>2026-04-25T12:03:11.627Z</time></trkpt><trkpt lat="46.0538713" lon="10.8273765"><ele>653.0</ele><time>2026-04-25T12:03:12.823Z</time></trkpt><trkpt lat="46.0537813" lon="10.827172"><ele>636.0</ele><time>2026-04-25T12:03:13.859Z</time></trkpt><trkpt lat="46.0537047" lon="10.8269486"><ele>619.0</ele><time>2026-04-25T12:03:14.857Z</time></trkpt><trkpt lat="46.0536391" lon="10.826729"><ele>610.0</ele><time>2026-04-25T12:03:15.799Z</time></trkpt><trkpt lat="46.0535762" lon="10.8265134"><ele>601.0</ele><time>2026-04-25T12:03:16.796Z</time></trkpt><trkpt lat="46.0535164" lon="10.8263085"><ele>592.0</ele><time>2026-04-25T12:03:17.795Z</time></trkpt><trkpt lat="46.0534516" lon="10.8261113"><ele>583.25</ele><time>2026-04-25T12:03:18.8Z</time></trkpt><trkpt lat="46.0533793" lon="10.8259391"><ele>574.5</ele><time>2026-04-25T12:03:19.78Z</time></trkpt><trkpt lat="46.0532848" lon="10.8257776"><ele>565.75</ele><time>2026-04-25T12:03:20.78Z</time></trkpt><trkpt lat="46.0531857" lon="10.8256214"><ele>557.0</ele><time>2026-04-25T12:03:21.795Z</time></trkpt><trkpt lat="46.0530966" lon="10.8254617"><ele>571.25</ele><time>2026-04-25T12:03:22.798Z</time></trkpt><trkpt lat="46.0530162" lon="10.8252984"><ele>585.5</ele><time>2026-04-25T12:03:23.791Z</time></trkpt><trkpt lat="46.0529581" lon="10.8251398"><ele>599.75</ele><time>2026-04-25T12:03:24.767Z</time></trkpt><trkpt lat="46.0529013" lon="10.8249583"><ele>614.0</ele><time>2026-04-25T12:03:25.812Z</time></trkpt><trkpt lat="46.0528633" lon="10.8247023"><ele>614.0</ele><time>2026-04-25T12:03:27.146Z</time></trkpt><trkpt lat="46.0527956" lon="10.8243741"><ele>614.0</ele><time>2026-04-25T12:03:28.855Z</time></trkpt><trkpt lat="46.0527658" lon="10.8241989"><ele>614.0</ele><time>2026-04-25T12:03:29.844Z</time></trkpt><trkpt lat="46.0527386" lon="10.8240311"><ele>608.25</ele><time>2026-04-25T12:03:30.822Z</time></trkpt><trkpt lat="46.0526946" lon="10.8238742"><ele>602.5</ele><time>2026-04-25T12:03:31.808Z</time></trkpt><trkpt lat="46.0526614" lon="10.8236992"><ele>596.75</ele><time>2026-04-25T12:03:32.774Z</time></trkpt><trkpt lat="46.0526306" lon="10.8234831"><ele>591.0</ele><time>2026-04-25T12:03:33.771Z</time></trkpt><trkpt lat="46.0525937" lon="10.8233049"><ele>577.5</ele><time>2026-04-25T12:03:34.775Z</time></trkpt><trkpt lat="46.0525628" lon="10.823188"><ele>564.0</ele><time>2026-04-25T12:03:35.769Z</time></trkpt><trkpt lat="46.0529569" lon="10.8251602"><ele>520.0</ele><time>2026-04-25T12:03:37.708Z</time></trkpt><trkpt lat="46.0525195" lon="10.8213923"><ele>520.0</ele><time>2026-04-25T12:03:41.627Z</time></trkpt><trkpt lat="46.0525248" lon="10.8211655"><ele>520.0</ele><time>2026-04-25T12:03:42.628Z</time></trkpt><trkpt lat="46.0525099" lon="10.8209417"><ele>520.0</ele><time>2026-04-25T12:03:43.631Z</time></trkpt><trkpt lat="46.0524927" lon="10.8207042"><ele>544.6666666666667</ele><time>2026-04-25T12:03:44.629Z</time></trkpt><trkpt lat="46.0524532" lon="10.8206087"><ele>569.3333333333334</ele><time>2026-04-25T12:03:45.85Z</time></trkpt><trkpt lat="46.0523441" lon="10.8201472"><ele>594.0</ele><time>2026-04-25T12:03:46.821Z</time></trkpt><trkpt lat="46.0523284" lon="10.8198945"><ele>594.0</ele><time>2026-04-25T12:03:47.837Z</time></trkpt><trkpt lat="46.0523127" lon="10.8196545"><ele>594.0</ele><time>2026-04-25T12:03:48.848Z</time></trkpt><trkpt lat="46.052297" lon="10.8194243"><ele>594.0</ele><time>2026-04-25T12:03:49.849Z</time></trkpt><trkpt lat="46.0522802" lon="10.8192053"><ele>592.25</ele><time>2026-04-25T12:03:50.844Z</time></trkpt><trkpt lat="46.0522924" lon="10.8190764"><ele>590.5</ele><time>2026-04-25T12:03:51.836Z</time></trkpt><trkpt lat="46.0523128" lon="10.8189202"><ele>588.75</ele><time>2026-04-25T12:03:52.835Z</time></trkpt><trkpt lat="46.0523615" lon="10.8186851"><ele>587.0</ele><time>2026-04-25T12:03:53.848Z</time></trkpt><trkpt lat="46.0524221" lon="10.8184568"><ele>553.6666666666666</ele><time>2026-04-25T12:03:54.844Z</time></trkpt><trkpt lat="46.0524679" lon="10.8182294"><ele>520.3333333333334</ele><time>2026-04-25T12:03:55.84Z</time></trkpt><trkpt lat="46.0524934" lon="10.8179905"><ele>487.0</ele><time>2026-04-25T12:03:56.853Z</time></trkpt><trkpt lat="46.0525104" lon="10.8177601"><ele>486.6666666666667</ele><time>2026-04-25T12:03:57.85Z</time></trkpt><trkpt lat="46.0525314" lon="10.8175458"><ele>486.33333333333337</ele><time>2026-04-25T12:03:58.802Z</time></trkpt><trkpt lat="46.0525254" lon="10.8173358"><ele>486.0</ele><time>2026-04-25T12:03:59.775Z</time></trkpt><trkpt lat="46.0525067" lon="10.8171065"><ele>486.0</ele><time>2026-04-25T12:04:00.787Z</time></trkpt><trkpt lat="46.0524963" lon="10.8168778"><ele>486.0</ele><time>2026-04-25T12:04:01.797Z</time></trkpt><trkpt lat="46.0525187" lon="10.8166508"><ele>486.0</ele><time>2026-04-25T12:04:02.781Z</time></trkpt><trkpt lat="46.0525438" lon="10.8164202"><ele>485.33333333333337</ele><time>2026-04-25T12:04:03.774Z</time></trkpt><trkpt lat="46.052558" lon="10.8161912"><ele>484.6666666666667</ele><time>2026-04-25T12:04:04.788Z</time></trkpt><trkpt lat="46.0525754" lon="10.8159587"><ele>484.0</ele><time>2026-04-25T12:04:05.789Z</time></trkpt><trkpt lat="46.0525909" lon="10.8157231"><ele>484.0</ele><time>2026-04-25T12:04:06.792Z</time></trkpt><trkpt lat="46.052606" lon="10.8154794"><ele>484.0</ele><time>2026-04-25T12:04:07.807Z</time></trkpt><trkpt lat="46.0526176" lon="10.8152415"><ele>484.0</ele><time>2026-04-25T12:04:08.795Z</time></trkpt><trkpt lat="46.0526246" lon="10.8149967"><ele>485.33333333333337</ele><time>2026-04-25T12:04:09.808Z</time></trkpt><trkpt lat="46.0526337" lon="10.8147579"><ele>486.66666666666663</ele><time>2026-04-25T12:04:10.788Z</time></trkpt><trkpt lat="46.0526403" lon="10.8145146"><ele>488.0</ele><time>2026-04-25T12:04:11.787Z</time></trkpt><trkpt lat="46.0526508" lon="10.8142722"><ele>488.3333333333333</ele><time>2026-04-25T12:04:12.801Z</time></trkpt><trkpt lat="46.0526593" lon="10.8140368"><ele>488.66666666666663</ele><time>2026-04-25T12:04:13.803Z</time></trkpt><trkpt lat="46.0526712" lon="10.8138123"><ele>489.0</ele><time>2026-04-25T12:04:14.786Z</time></trkpt><trkpt lat="46.052679" lon="10.8135783"><ele>490.33333333333337</ele><time>2026-04-25T12:04:15.82Z</time></trkpt><trkpt lat="46.0526852" lon="10.8133504"><ele>491.6666666666667</ele><time>2026-04-25T12:04:16.809Z</time></trkpt><trkpt lat="46.0526795" lon="10.813123"><ele>493.0</ele><time>2026-04-25T12:04:17.817Z</time></trkpt><trkpt lat="46.0526641" lon="10.8129014"><ele>493.0</ele><time>2026-04-25T12:04:18.795Z</time></trkpt><trkpt lat="46.0526481" lon="10.8126785"><ele>493.0</ele><time>2026-04-25T12:04:19.805Z</time></trkpt><trkpt lat="46.052624" lon="10.812449"><ele>493.0</ele><time>2026-04-25T12:04:20.805Z</time></trkpt><trkpt lat="46.0526021" lon="10.8122249"><ele>492.0</ele><time>2026-04-25T12:04:21.795Z</time></trkpt><trkpt lat="46.0525746" lon="10.8119924"><ele>491.0</ele><time>2026-04-25T12:04:22.804Z</time></trkpt><trkpt lat="46.0525503" lon="10.8117648"><ele>490.0</ele><time>2026-04-25T12:04:23.805Z</time></trkpt><trkpt lat="46.0525239" lon="10.8115374"><ele>488.6666666666667</ele><time>2026-04-25T12:04:24.801Z</time></trkpt><trkpt lat="46.0525013" lon="10.8113123"><ele>487.33333333333337</ele><time>2026-04-25T12:04:25.783Z</time></trkpt><trkpt lat="46.05248" lon="10.8110704"><ele>486.0</ele><time>2026-04-25T12:04:26.79Z</time></trkpt><trkpt lat="46.0524663" lon="10.8108283"><ele>485.66666666666663</ele><time>2026-04-25T12:04:27.804Z</time></trkpt><trkpt lat="46.0524565" lon="10.8105876"><ele>485.3333333333333</ele><time>2026-04-25T12:04:28.783Z</time></trkpt><trkpt lat="46.0524642" lon="10.8103428"><ele>485.0</ele><time>2026-04-25T12:04:29.769Z</time></trkpt><trkpt lat="46.0524867" lon="10.8100867"><ele>485.0</ele><time>2026-04-25T12:04:30.803Z</time></trkpt><trkpt lat="46.0525205" lon="10.8098425"><ele>485.0</ele><time>2026-04-25T12:04:31.804Z</time></trkpt><trkpt lat="46.0525572" lon="10.809608"><ele>485.0</ele><time>2026-04-25T12:04:32.794Z</time></trkpt><trkpt lat="46.0525844" lon="10.8093729"><ele>485.0</ele><time>2026-04-25T12:04:33.779Z</time></trkpt><trkpt lat="46.0525915" lon="10.8091322"><ele>485.0</ele><time>2026-04-25T12:04:34.763Z</time></trkpt><trkpt lat="46.0525859" lon="10.80888"><ele>485.0</ele><time>2026-04-25T12:04:35.776Z</time></trkpt><trkpt lat="46.0525759" lon="10.8086288"><ele>484.3333333333333</ele><time>2026-04-25T12:04:36.789Z</time></trkpt><trkpt lat="46.0525637" lon="10.8083699"><ele>483.66666666666663</ele><time>2026-04-25T12:04:37.808Z</time></trkpt><trkpt lat="46.0525504" lon="10.8081257"><ele>483.0</ele><time>2026-04-25T12:04:38.792Z</time></trkpt><trkpt lat="46.0525411" lon="10.8078774"><ele>484.0</ele><time>2026-04-25T12:04:39.789Z</time></trkpt><trkpt lat="46.0525289" lon="10.8076179"><ele>485.0</ele><time>2026-04-25T12:04:40.802Z</time></trkpt><trkpt lat="46.0525272" lon="10.8073676"><ele>486.0</ele><time>2026-04-25T12:04:41.792Z</time></trkpt><trkpt lat="46.0525515" lon="10.8071053"><ele>486.0</ele><time>2026-04-25T12:04:42.808Z</time></trkpt><trkpt lat="46.0525873" lon="10.8068579"><ele>486.0</ele><time>2026-04-25T12:04:43.785Z</time></trkpt><trkpt lat="46.0526289" lon="10.8066035"><ele>486.0</ele><time>2026-04-25T12:04:44.776Z</time></trkpt><trkpt lat="46.052671" lon="10.8063488"><ele>488.33333333333337</ele><time>2026-04-25T12:04:45.785Z</time></trkpt><trkpt lat="46.0527173" lon="10.8060873"><ele>490.6666666666667</ele><time>2026-04-25T12:04:46.807Z</time></trkpt><trkpt lat="46.0527603" lon="10.8058278"><ele>493.0</ele><time>2026-04-25T12:04:47.798Z</time></trkpt><trkpt lat="46.0528038" lon="10.8055756"><ele>496.0</ele><time>2026-04-25T12:04:48.787Z</time></trkpt><trkpt lat="46.0528468" lon="10.8053232"><ele>499.0</ele><time>2026-04-25T12:04:49.789Z</time></trkpt><trkpt lat="46.0528914" lon="10.8050695"><ele>502.0</ele><time>2026-04-25T12:04:50.799Z</time></trkpt><trkpt lat="46.0529407" lon="10.8048226"><ele>503.0</ele><time>2026-04-25T12:04:51.797Z</time></trkpt><trkpt lat="46.0529845" lon="10.804578"><ele>504.0</ele><time>2026-04-25T12:04:52.795Z</time></trkpt><trkpt lat="46.0530155" lon="10.8043291"><ele>505.0</ele><time>2026-04-25T12:04:53.8Z</time></trkpt><trkpt lat="46.0530366" lon="10.8040779"><ele>508.6666666666667</ele><time>2026-04-25T12:04:54.791Z</time></trkpt><trkpt lat="46.0530494" lon="10.8038227"><ele>512.3333333333334</ele><time>2026-04-25T12:04:55.799Z</time></trkpt><trkpt lat="46.0530614" lon="10.8035669"><ele>516.0</ele><time>2026-04-25T12:04:56.787Z</time></trkpt><trkpt lat="46.0530718" lon="10.8033016"><ele>516.3333333333334</ele><time>2026-04-25T12:04:57.812Z</time></trkpt><trkpt lat="46.0530824" lon="10.8030502"><ele>516.6666666666667</ele><time>2026-04-25T12:04:58.806Z</time></trkpt><trkpt lat="46.0530933" lon="10.8027906"><ele>517.0</ele><time>2026-04-25T12:04:59.802Z</time></trkpt><trkpt lat="46.0530944" lon="10.8025279"><ele>517.0</ele><time>2026-04-25T12:05:00.794Z</time></trkpt><trkpt lat="46.0530793" lon="10.8022573"><ele>517.0</ele><time>2026-04-25T12:05:01.81Z</time></trkpt><trkpt lat="46.0530384" lon="10.8019972"><ele>517.0</ele><time>2026-04-25T12:05:02.801Z</time></trkpt><trkpt lat="46.0529916" lon="10.8017299"><ele>516.0</ele><time>2026-04-25T12:05:03.82Z</time></trkpt><trkpt lat="46.0529456" lon="10.8014665"><ele>515.0</ele><time>2026-04-25T12:05:04.796Z</time></trkpt><trkpt lat="46.0528984" lon="10.8011948"><ele>514.0</ele><time>2026-04-25T12:05:05.801Z</time></trkpt><trkpt lat="46.0528485" lon="10.8009236"><ele>509.0</ele><time>2026-04-25T12:05:06.801Z</time></trkpt><trkpt lat="46.0527979" lon="10.8006511"><ele>504.0</ele><time>2026-04-25T12:05:07.793Z</time></trkpt><trkpt lat="46.0527529" lon="10.8003621"><ele>499.0</ele><time>2026-04-25T12:05:08.814Z</time></trkpt><trkpt lat="46.0527174" lon="10.8000754"><ele>494.0</ele><time>2026-04-25T12:05:09.801Z</time></trkpt><trkpt lat="46.0527015" lon="10.79978"><ele>489.0</ele><time>2026-04-25T12:05:10.797Z</time></trkpt><trkpt lat="46.0527113" lon="10.7994802"><ele>484.0</ele><time>2026-04-25T12:05:11.805Z</time></trkpt><trkpt lat="46.0527329" lon="10.799182"><ele>484.6666666666667</ele><time>2026-04-25T12:05:12.79Z</time></trkpt><trkpt lat="46.0527576" lon="10.7988817"><ele>485.33333333333337</ele><time>2026-04-25T12:05:13.803Z</time></trkpt><trkpt lat="46.0527775" lon="10.7985875"><ele>486.0</ele><time>2026-04-25T12:05:14.788Z</time></trkpt><trkpt lat="46.0528003" lon="10.7982893"><ele>486.0</ele><time>2026-04-25T12:05:15.81Z</time></trkpt><trkpt lat="46.0528206" lon="10.7980079"><ele>486.0</ele><time>2026-04-25T12:05:16.777Z</time></trkpt><trkpt lat="46.052845" lon="10.7977227"><ele>486.0</ele><time>2026-04-25T12:05:17.784Z</time></trkpt><trkpt lat="46.0528727" lon="10.7974398"><ele>487.33333333333337</ele><time>2026-04-25T12:05:18.798Z</time></trkpt><trkpt lat="46.0528978" lon="10.7971683"><ele>488.6666666666667</ele><time>2026-04-25T12:05:19.795Z</time></trkpt><trkpt lat="46.0529094" lon="10.7968945"><ele>490.0</ele><time>2026-04-25T12:05:20.794Z</time></trkpt><trkpt lat="46.0529071" lon="10.796621"><ele>489.33333333333337</ele><time>2026-04-25T12:05:21.791Z</time></trkpt><trkpt lat="46.0528884" lon="10.7963467"><ele>488.66666666666663</ele><time>2026-04-25T12:05:22.796Z</time></trkpt><trkpt lat="46.0528705" lon="10.7960642"><ele>488.0</ele><time>2026-04-25T12:05:23.81Z</time></trkpt><trkpt lat="46.0528508" lon="10.7957816"><ele>488.0</ele><time>2026-04-25T12:05:24.788Z</time></trkpt><trkpt lat="46.052828" lon="10.7954942"><ele>488.0</ele><time>2026-04-25T12:05:25.813Z</time></trkpt><trkpt lat="46.0528071" lon="10.7952149"><ele>488.0</ele><time>2026-04-25T12:05:26.803Z</time></trkpt><trkpt lat="46.0527852" lon="10.7949405"><ele>487.3333333333333</ele><time>2026-04-25T12:05:27.792Z</time></trkpt><trkpt lat="46.0527676" lon="10.7946593"><ele>486.66666666666663</ele><time>2026-04-25T12:05:28.796Z</time></trkpt><trkpt lat="46.0527476" lon="10.7943776"><ele>486.0</ele><time>2026-04-25T12:05:29.796Z</time></trkpt><trkpt lat="46.0527284" lon="10.7940996"><ele>486.0</ele><time>2026-04-25T12:05:30.788Z</time></trkpt><trkpt lat="46.052711" lon="10.7938153"><ele>486.0</ele><time>2026-04-25T12:05:31.795Z</time></trkpt><trkpt lat="46.0526899" lon="10.793531"><ele>486.0</ele><time>2026-04-25T12:05:32.801Z</time></trkpt><trkpt lat="46.0526627" lon="10.7932513"><ele>485.33333333333337</ele><time>2026-04-25T12:05:33.797Z</time></trkpt><trkpt lat="46.0526304" lon="10.7929689"><ele>484.6666666666667</ele><time>2026-04-25T12:05:34.803Z</time></trkpt><trkpt lat="46.052589" lon="10.7926959"><ele>484.0</ele><time>2026-04-25T12:05:35.799Z</time></trkpt><trkpt lat="46.0525401" lon="10.7924204"><ele>483.33333333333337</ele><time>2026-04-25T12:05:36.787Z</time></trkpt><trkpt lat="46.0524819" lon="10.7921425"><ele>482.66666666666663</ele><time>2026-04-25T12:05:37.795Z</time></trkpt><trkpt lat="46.0524236" lon="10.7918631"><ele>482.0</ele><time>2026-04-25T12:05:38.803Z</time></trkpt><trkpt lat="46.0523658" lon="10.7915894"><ele>484.66666666666663</ele><time>2026-04-25T12:05:39.819Z</time></trkpt><trkpt lat="46.0523173" lon="10.7913374"><ele>487.33333333333337</ele><time>2026-04-25T12:05:40.756Z</time></trkpt><trkpt lat="46.0522573" lon="10.791051"><ele>490.0</ele><time>2026-04-25T12:05:41.816Z</time></trkpt><trkpt lat="46.0521987" lon="10.7907778"><ele>490.0</ele><time>2026-04-25T12:05:42.82Z</time></trkpt><trkpt lat="46.0521445" lon="10.7905099"><ele>490.0</ele><time>2026-04-25T12:05:43.807Z</time></trkpt><trkpt lat="46.0520901" lon="10.7902403"><ele>490.0</ele><time>2026-04-25T12:05:44.801Z</time></trkpt><trkpt lat="46.0520357" lon="10.7899824"><ele>490.0</ele><time>2026-04-25T12:05:45.792Z</time></trkpt><trkpt lat="46.051971" lon="10.7897433"><ele>490.0</ele><time>2026-04-25T12:05:46.781Z</time></trkpt><trkpt lat="46.0518815" lon="10.7895106"><ele>490.0</ele><time>2026-04-25T12:05:47.808Z</time></trkpt><trkpt lat="46.0517748" lon="10.7893024"><ele>488.6666666666667</ele><time>2026-04-25T12:05:48.783Z</time></trkpt><trkpt lat="46.0516467" lon="10.7890956"><ele>487.33333333333337</ele><time>2026-04-25T12:05:49.795Z</time></trkpt><trkpt lat="46.0515037" lon="10.788892"><ele>486.0</ele><time>2026-04-25T12:05:50.811Z</time></trkpt><trkpt lat="46.0513638" lon="10.788684"><ele>489.66666666666663</ele><time>2026-04-25T12:05:51.807Z</time></trkpt><trkpt lat="46.051223" lon="10.7884728"><ele>493.3333333333333</ele><time>2026-04-25T12:05:52.796Z</time></trkpt><trkpt lat="46.0510845" lon="10.7882606"><ele>497.0</ele><time>2026-04-25T12:05:53.787Z</time></trkpt><trkpt lat="46.0509506" lon="10.7880455"><ele>497.0</ele><time>2026-04-25T12:05:54.783Z</time></trkpt><trkpt lat="46.0508297" lon="10.787815"><ele>497.0</ele><time>2026-04-25T12:05:55.788Z</time></trkpt><trkpt lat="46.0507162" lon="10.7875807"><ele>497.0</ele><time>2026-04-25T12:05:56.788Z</time></trkpt><trkpt lat="46.0505959" lon="10.7873526"><ele>499.3333333333333</ele><time>2026-04-25T12:05:57.783Z</time></trkpt><trkpt lat="46.0504805" lon="10.7871294"><ele>501.66666666666663</ele><time>2026-04-25T12:05:58.761Z</time></trkpt><trkpt lat="46.0503591" lon="10.7868926"><ele>504.0</ele><time>2026-04-25T12:05:59.801Z</time></trkpt><trkpt lat="46.0502467" lon="10.7866695"><ele>498.33333333333337</ele><time>2026-04-25T12:06:00.814Z</time></trkpt><trkpt lat="46.0501409" lon="10.7864621"><ele>492.6666666666667</ele><time>2026-04-25T12:06:01.795Z</time></trkpt><trkpt lat="46.0500347" lon="10.7862564"><ele>487.0</ele><time>2026-04-25T12:06:02.784Z</time></trkpt><trkpt lat="46.0499259" lon="10.7860475"><ele>503.33333333333337</ele><time>2026-04-25T12:06:03.793Z</time></trkpt><trkpt lat="46.0498146" lon="10.7858307"><ele>519.6666666666666</ele><time>2026-04-25T12:06:04.818Z</time></trkpt><trkpt lat="46.0497034" lon="10.7856192"><ele>536.0</ele><time>2026-04-25T12:06:05.814Z</time></trkpt><trkpt lat="46.04959" lon="10.7854134"><ele>536.0</ele><time>2026-04-25T12:06:06.807Z</time></trkpt><trkpt lat="46.0494744" lon="10.7852198"><ele>536.0</ele><time>2026-04-25T12:06:07.767Z</time></trkpt><trkpt lat="46.0493453" lon="10.7850364"><ele>536.0</ele><time>2026-04-25T12:06:08.772Z</time></trkpt><trkpt lat="46.0492053" lon="10.784852"><ele>537.3333333333333</ele><time>2026-04-25T12:06:09.794Z</time></trkpt><trkpt lat="46.0490643" lon="10.7846666"><ele>538.6666666666666</ele><time>2026-04-25T12:06:10.808Z</time></trkpt><trkpt lat="46.0489348" lon="10.784485"><ele>540.0</ele><time>2026-04-25T12:06:11.806Z</time></trkpt><trkpt lat="46.0488026" lon="10.784309"><ele>529.0</ele><time>2026-04-25T12:06:12.808Z</time></trkpt><trkpt lat="46.0486649" lon="10.7841481"><ele>518.0</ele><time>2026-04-25T12:06:13.795Z</time></trkpt><trkpt lat="46.0485095" lon="10.7839912"><ele>507.0</ele><time>2026-04-25T12:06:14.818Z</time></trkpt><trkpt lat="46.0483573" lon="10.7838379"><ele>514.0</ele><time>2026-04-25T12:06:15.811Z</time></trkpt><trkpt lat="46.0482222" lon="10.7836699"><ele>521.0</ele><time>2026-04-25T12:06:16.794Z</time></trkpt><trkpt lat="46.0481121" lon="10.7834683"><ele>528.0</ele><time>2026-04-25T12:06:17.8Z</time></trkpt><trkpt lat="46.0480275" lon="10.7832313"><ele>528.0</ele><time>2026-04-25T12:06:18.803Z</time></trkpt><trkpt lat="46.0479628" lon="10.782983"><ele>528.0</ele><time>2026-04-25T12:06:19.769Z</time></trkpt><trkpt lat="46.0478968" lon="10.7827206"><ele>528.0</ele><time>2026-04-25T12:06:20.803Z</time></trkpt><trkpt lat="46.0478314" lon="10.7824638"><ele>520.6666666666666</ele><time>2026-04-25T12:06:21.807Z</time></trkpt><trkpt lat="46.0477503" lon="10.7822132"><ele>513.3333333333333</ele><time>2026-04-25T12:06:22.814Z</time></trkpt><trkpt lat="46.0476528" lon="10.7820065"><ele>506.0</ele><time>2026-04-25T12:06:23.787Z</time></trkpt><trkpt lat="46.0475165" lon="10.7818113"><ele>513.3333333333333</ele><time>2026-04-25T12:06:24.775Z</time></trkpt><trkpt lat="46.0473664" lon="10.7816118"><ele>520.6666666666666</ele><time>2026-04-25T12:06:25.798Z</time></trkpt><trkpt lat="46.0472254" lon="10.7814037"><ele>528.0</ele><time>2026-04-25T12:06:26.801Z</time></trkpt><trkpt lat="46.0470968" lon="10.7811757"><ele>522.3333333333334</ele><time>2026-04-25T12:06:27.82Z</time></trkpt><trkpt lat="46.0469885" lon="10.7809325"><ele>516.6666666666667</ele><time>2026-04-25T12:06:28.806Z</time></trkpt><trkpt lat="46.0468899" lon="10.7806761"><ele>511.0</ele><time>2026-04-25T12:06:29.809Z</time></trkpt><trkpt lat="46.0467923" lon="10.7804178"><ele>506.33333333333337</ele><time>2026-04-25T12:06:30.799Z</time></trkpt><trkpt lat="46.046698" lon="10.7801581"><ele>501.66666666666663</ele><time>2026-04-25T12:06:31.791Z</time></trkpt><trkpt lat="46.0466019" lon="10.7798959"><ele>497.0</ele><time>2026-04-25T12:06:32.794Z</time></trkpt><trkpt lat="46.0465112" lon="10.7796389"><ele>501.3333333333333</ele><time>2026-04-25T12:06:33.799Z</time></trkpt><trkpt lat="46.0464245" lon="10.7793954"><ele>505.66666666666663</ele><time>2026-04-25T12:06:34.791Z</time></trkpt><trkpt lat="46.0463452" lon="10.7791608"><ele>510.0</ele><time>2026-04-25T12:06:35.812Z</time></trkpt><trkpt lat="46.0462657" lon="10.7789545"><ele>510.0</ele><time>2026-04-25T12:06:36.795Z</time></trkpt><trkpt lat="46.0461632" lon="10.7787814"><ele>510.0</ele><time>2026-04-25T12:06:37.815Z</time></trkpt><trkpt lat="46.0460456" lon="10.7786442"><ele>510.0</ele><time>2026-04-25T12:06:38.797Z</time></trkpt><trkpt lat="46.0459036" lon="10.7785243"><ele>512.3333333333334</ele><time>2026-04-25T12:06:39.794Z</time></trkpt><trkpt lat="46.0457549" lon="10.7784008"><ele>514.6666666666667</ele><time>2026-04-25T12:06:40.796Z</time></trkpt><trkpt lat="46.0456104" lon="10.7782577"><ele>517.0</ele><time>2026-04-25T12:06:41.792Z</time></trkpt><trkpt lat="46.0454793" lon="10.7780705"><ele>517.0</ele><time>2026-04-25T12:06:42.798Z</time></trkpt><trkpt lat="46.0453651" lon="10.777859"><ele>517.0</ele><time>2026-04-25T12:06:43.792Z</time></trkpt><trkpt lat="46.0452453" lon="10.7776282"><ele>517.0</ele><time>2026-04-25T12:06:44.803Z</time></trkpt><trkpt lat="46.0451339" lon="10.7773913"><ele>517.6666666666667</ele><time>2026-04-25T12:06:45.81Z</time></trkpt><trkpt lat="46.0450251" lon="10.7771588"><ele>518.3333333333334</ele><time>2026-04-25T12:06:46.809Z</time></trkpt><trkpt lat="46.0449196" lon="10.7769267"><ele>519.0</ele><time>2026-04-25T12:06:47.806Z</time></trkpt><trkpt lat="46.0448067" lon="10.7766944"><ele>519.0</ele><time>2026-04-25T12:06:48.822Z</time></trkpt><trkpt lat="46.0446867" lon="10.776478"><ele>519.0</ele><time>2026-04-25T12:06:49.793Z</time></trkpt><trkpt lat="46.044556" lon="10.7762652"><ele>519.0</ele><time>2026-04-25T12:06:50.801Z</time></trkpt><trkpt lat="46.0444248" lon="10.77606"><ele>514.0</ele><time>2026-04-25T12:06:51.777Z</time></trkpt><trkpt lat="46.0442882" lon="10.7758367"><ele>509.0</ele><time>2026-04-25T12:06:52.811Z</time></trkpt><trkpt lat="46.0441646" lon="10.7756129"><ele>504.0</ele><time>2026-04-25T12:06:53.805Z</time></trkpt><trkpt lat="46.0440413" lon="10.7753877"><ele>513.6666666666666</ele><time>2026-04-25T12:06:54.788Z</time></trkpt><trkpt lat="46.0439159" lon="10.7751434"><ele>523.3333333333333</ele><time>2026-04-25T12:06:55.813Z</time></trkpt><trkpt lat="46.0437926" lon="10.7749007"><ele>533.0</ele><time>2026-04-25T12:06:56.814Z</time></trkpt><trkpt lat="46.0437015" lon="10.7746603"><ele>533.0</ele><time>2026-04-25T12:06:57.786Z</time></trkpt><trkpt lat="46.0436236" lon="10.7744103"><ele>533.0</ele><time>2026-04-25T12:06:58.774Z</time></trkpt><trkpt lat="46.0435592" lon="10.7741448"><ele>533.0</ele><time>2026-04-25T12:06:59.79Z</time></trkpt><trkpt lat="46.0435028" lon="10.7738776"><ele>528.3333333333333</ele><time>2026-04-25T12:07:00.804Z</time></trkpt><trkpt lat="46.0434601" lon="10.7736044"><ele>523.6666666666666</ele><time>2026-04-25T12:07:01.814Z</time></trkpt><trkpt lat="46.0434284" lon="10.7733354"><ele>519.0</ele><time>2026-04-25T12:07:02.802Z</time></trkpt><trkpt lat="46.0434101" lon="10.7730584"><ele>516.0</ele><time>2026-04-25T12:07:03.806Z</time></trkpt><trkpt lat="46.0433902" lon="10.772787"><ele>513.0</ele><time>2026-04-25T12:07:04.794Z</time></trkpt><trkpt lat="46.0433716" lon="10.7725129"><ele>510.0</ele><time>2026-04-25T12:07:05.801Z</time></trkpt><trkpt lat="46.0433495" lon="10.7722516"><ele>508.0</ele><time>2026-04-25T12:07:06.814Z</time></trkpt><trkpt lat="46.0433248" lon="10.7720083"><ele>506.0</ele><time>2026-04-25T12:07:07.806Z</time></trkpt><trkpt lat="46.0432967" lon="10.7717685"><ele>504.0</ele><time>2026-04-25T12:07:08.786Z</time></trkpt><trkpt lat="46.0432628" lon="10.7715159"><ele>507.66666666666663</ele><time>2026-04-25T12:07:09.805Z</time></trkpt><trkpt lat="46.0432279" lon="10.7712776"><ele>511.3333333333333</ele><time>2026-04-25T12:07:10.796Z</time></trkpt><trkpt lat="46.0431959" lon="10.771044"><ele>515.0</ele><time>2026-04-25T12:07:11.779Z</time></trkpt><trkpt lat="46.043162" lon="10.7708042"><ele>515.0</ele><time>2026-04-25T12:07:12.809Z</time></trkpt><trkpt lat="46.0431278" lon="10.770582"><ele>515.0</ele><time>2026-04-25T12:07:13.794Z</time></trkpt><trkpt lat="46.0430925" lon="10.7703532"><ele>515.0</ele><time>2026-04-25T12:07:14.804Z</time></trkpt><trkpt lat="46.0430632" lon="10.7701478"><ele>512.5</ele><time>2026-04-25T12:07:15.77Z</time></trkpt><trkpt lat="46.0430329" lon="10.7699267"><ele>510.0</ele><time>2026-04-25T12:07:16.813Z</time></trkpt><trkpt lat="46.0430049" lon="10.7697277"><ele>507.5</ele><time>2026-04-25T12:07:17.775Z</time></trkpt><trkpt lat="46.0429738" lon="10.7695158"><ele>505.0</ele><time>2026-04-25T12:07:18.783Z</time></trkpt><trkpt lat="46.042944" lon="10.7693003"><ele>504.33333333333337</ele><time>2026-04-25T12:07:19.798Z</time></trkpt><trkpt lat="46.0429129" lon="10.7690844"><ele>503.66666666666663</ele><time>2026-04-25T12:07:20.802Z</time></trkpt><trkpt lat="46.0428846" lon="10.768867"><ele>503.0</ele><time>2026-04-25T12:07:21.794Z</time></trkpt><trkpt lat="46.0428542" lon="10.7686597"><ele>503.25</ele><time>2026-04-25T12:07:22.79Z</time></trkpt><trkpt lat="46.0428236" lon="10.768449"><ele>503.5</ele><time>2026-04-25T12:07:23.822Z</time></trkpt><trkpt lat="46.0427946" lon="10.7682466"><ele>503.75</ele><time>2026-04-25T12:07:24.809Z</time></trkpt><trkpt lat="46.0427626" lon="10.7680434"><ele>504.0</ele><time>2026-04-25T12:07:25.784Z</time></trkpt><trkpt lat="46.0427298" lon="10.767832"><ele>504.75</ele><time>2026-04-25T12:07:26.79Z</time></trkpt><trkpt lat="46.0426988" lon="10.7676175"><ele>505.5</ele><time>2026-04-25T12:07:27.804Z</time></trkpt><trkpt lat="46.0426693" lon="10.7674108"><ele>506.25</ele><time>2026-04-25T12:07:28.803Z</time></trkpt><trkpt lat="46.0426384" lon="10.7672074"><ele>507.0</ele><time>2026-04-25T12:07:29.797Z</time></trkpt><trkpt lat="46.042606" lon="10.7670047"><ele>507.0</ele><time>2026-04-25T12:07:30.801Z</time></trkpt><trkpt lat="46.0425744" lon="10.7668067"><ele>507.0</ele><time>2026-04-25T12:07:31.799Z</time></trkpt><trkpt lat="46.0425518" lon="10.7666073"><ele>507.0</ele><time>2026-04-25T12:07:32.776Z</time></trkpt><trkpt lat="46.0425443" lon="10.7663945"><ele>507.0</ele><time>2026-04-25T12:07:33.789Z</time></trkpt><trkpt lat="46.042551" lon="10.7661862"><ele>507.66666666666663</ele><time>2026-04-25T12:07:34.792Z</time></trkpt><trkpt lat="46.042561" lon="10.7659763"><ele>508.3333333333333</ele><time>2026-04-25T12:07:35.787Z</time></trkpt><trkpt lat="46.0425654" lon="10.7657509"><ele>509.0</ele><time>2026-04-25T12:07:36.811Z</time></trkpt><trkpt lat="46.0425728" lon="10.7655276"><ele>509.0</ele><time>2026-04-25T12:07:37.808Z</time></trkpt><trkpt lat="46.0425798" lon="10.7653052"><ele>509.0</ele><time>2026-04-25T12:07:38.781Z</time></trkpt><trkpt lat="46.0425875" lon="10.7650845"><ele>509.0</ele><time>2026-04-25T12:07:39.796Z</time></trkpt><trkpt lat="46.0425831" lon="10.7648709"><ele>509.3333333333333</ele><time>2026-04-25T12:07:40.788Z</time></trkpt><trkpt lat="46.0425668" lon="10.7646525"><ele>509.66666666666663</ele><time>2026-04-25T12:07:41.781Z</time></trkpt><trkpt lat="46.042528" lon="10.7644305"><ele>510.0</ele><time>2026-04-25T12:07:42.786Z</time></trkpt><trkpt lat="46.04248" lon="10.7642144"><ele>512.0</ele><time>2026-04-25T12:07:43.779Z</time></trkpt><trkpt lat="46.0424197" lon="10.7639875"><ele>514.0</ele><time>2026-04-25T12:07:44.804Z</time></trkpt><trkpt lat="46.0423589" lon="10.763766"><ele>516.0</ele><time>2026-04-25T12:07:45.802Z</time></trkpt><trkpt lat="46.0423023" lon="10.7635454"><ele>514.6666666666666</ele><time>2026-04-25T12:07:46.802Z</time></trkpt><trkpt lat="46.0422446" lon="10.7633179"><ele>513.3333333333333</ele><time>2026-04-25T12:07:47.809Z</time></trkpt><trkpt lat="46.0421874" lon="10.763097"><ele>512.0</ele><time>2026-04-25T12:07:48.808Z</time></trkpt><trkpt lat="46.04213" lon="10.7628796"><ele>512.0</ele><time>2026-04-25T12:07:49.803Z</time></trkpt><trkpt lat="46.0420703" lon="10.7626541"><ele>512.0</ele><time>2026-04-25T12:07:50.797Z</time></trkpt><trkpt lat="46.0420125" lon="10.7624302"><ele>512.0</ele><time>2026-04-25T12:07:51.801Z</time></trkpt><trkpt lat="46.0419529" lon="10.7622058"><ele>512.0</ele><time>2026-04-25T12:07:52.791Z</time></trkpt><trkpt lat="46.0418905" lon="10.7619812"><ele>512.0</ele><time>2026-04-25T12:07:53.797Z</time></trkpt><trkpt lat="46.0418293" lon="10.7617623"><ele>512.0</ele><time>2026-04-25T12:07:54.795Z</time></trkpt><trkpt lat="46.0417704" lon="10.7615332"><ele>510.66666666666663</ele><time>2026-04-25T12:07:55.797Z</time></trkpt><trkpt lat="46.0417324" lon="10.7612972"><ele>509.33333333333337</ele><time>2026-04-25T12:07:56.798Z</time></trkpt><trkpt lat="46.0417205" lon="10.7610505"><ele>508.0</ele><time>2026-04-25T12:07:57.797Z</time></trkpt><trkpt lat="46.0417344" lon="10.7608066"><ele>507.6666666666667</ele><time>2026-04-25T12:07:58.79Z</time></trkpt><trkpt lat="46.0417671" lon="10.7605651"><ele>507.33333333333337</ele><time>2026-04-25T12:07:59.788Z</time></trkpt><trkpt lat="46.0418239" lon="10.7603397"><ele>507.0</ele><time>2026-04-25T12:08:00.786Z</time></trkpt><trkpt lat="46.0418993" lon="10.7601223"><ele>507.66666666666663</ele><time>2026-04-25T12:08:01.786Z</time></trkpt><trkpt lat="46.0419818" lon="10.7599029"><ele>508.3333333333333</ele><time>2026-04-25T12:08:02.801Z</time></trkpt><trkpt lat="46.0420644" lon="10.7596872"><ele>509.0</ele><time>2026-04-25T12:08:03.815Z</time></trkpt><trkpt lat="46.0421449" lon="10.7594743"><ele>510.3333333333333</ele><time>2026-04-25T12:08:04.807Z</time></trkpt><trkpt lat="46.0422301" lon="10.7592576"><ele>511.66666666666663</ele><time>2026-04-25T12:08:05.815Z</time></trkpt><trkpt lat="46.0423145" lon="10.759043"><ele>513.0</ele><time>2026-04-25T12:08:06.81Z</time></trkpt><trkpt lat="46.0423983" lon="10.7588304"><ele>513.0</ele><time>2026-04-25T12:08:07.794Z</time></trkpt><trkpt lat="46.0424809" lon="10.7586115"><ele>513.0</ele><time>2026-04-25T12:08:08.783Z</time></trkpt><trkpt lat="46.0425511" lon="10.7583743"><ele>513.0</ele><time>2026-04-25T12:08:09.799Z</time></trkpt><trkpt lat="46.0426143" lon="10.7581353"><ele>513.0</ele><time>2026-04-25T12:08:10.782Z</time></trkpt><trkpt lat="46.0426733" lon="10.7578784"><ele>513.0</ele><time>2026-04-25T12:08:11.804Z</time></trkpt><trkpt lat="46.0427332" lon="10.7576304"><ele>513.0</ele><time>2026-04-25T12:08:12.791Z</time></trkpt><trkpt lat="46.0427949" lon="10.7573708"><ele>512.6666666666666</ele><time>2026-04-25T12:08:13.785Z</time></trkpt><trkpt lat="46.0428556" lon="10.7571108"><ele>512.3333333333333</ele><time>2026-04-25T12:08:14.777Z</time></trkpt><trkpt lat="46.0429015" lon="10.7568463"><ele>512.0</ele><time>2026-04-25T12:08:15.799Z</time></trkpt><trkpt lat="46.042921" lon="10.7565928"><ele>512.0</ele><time>2026-04-25T12:08:16.808Z</time></trkpt><trkpt lat="46.0429163" lon="10.756333"><ele>512.0</ele><time>2026-04-25T12:08:17.829Z</time></trkpt><trkpt lat="46.0428858" lon="10.756093"><ele>512.0</ele><time>2026-04-25T12:08:18.809Z</time></trkpt><trkpt lat="46.0428356" lon="10.7558504"><ele>511.66666666666663</ele><time>2026-04-25T12:08:19.789Z</time></trkpt><trkpt lat="46.0427627" lon="10.7556028"><ele>511.33333333333337</ele><time>2026-04-25T12:08:20.817Z</time></trkpt><trkpt lat="46.0426784" lon="10.7553586"><ele>511.0</ele><time>2026-04-25T12:08:21.808Z</time></trkpt><trkpt lat="46.0425838" lon="10.7551014"><ele>510.6666666666667</ele><time>2026-04-25T12:08:22.828Z</time></trkpt><trkpt lat="46.0424956" lon="10.7548597"><ele>510.33333333333337</ele><time>2026-04-25T12:08:23.796Z</time></trkpt><trkpt lat="46.0424077" lon="10.7546154"><ele>510.0</ele><time>2026-04-25T12:08:24.795Z</time></trkpt><trkpt lat="46.0423196" lon="10.7543774"><ele>509.66666666666663</ele><time>2026-04-25T12:08:25.79Z</time></trkpt><trkpt lat="46.0422322" lon="10.7541357"><ele>509.3333333333333</ele><time>2026-04-25T12:08:26.801Z</time></trkpt><trkpt lat="46.0421445" lon="10.7538991"><ele>509.0</ele><time>2026-04-25T12:08:27.8Z</time></trkpt><trkpt lat="46.0420548" lon="10.7536619"><ele>508.3333333333333</ele><time>2026-04-25T12:08:28.811Z</time></trkpt><trkpt lat="46.0419713" lon="10.7534348"><ele>507.66666666666663</ele><time>2026-04-25T12:08:29.785Z</time></trkpt><trkpt lat="46.0418864" lon="10.7532056"><ele>507.0</ele><time>2026-04-25T12:08:30.785Z</time></trkpt><trkpt lat="46.0418013" lon="10.7529743"><ele>507.0</ele><time>2026-04-25T12:08:31.794Z</time></trkpt><trkpt lat="46.0417199" lon="10.7527439"><ele>507.0</ele><time>2026-04-25T12:08:32.793Z</time></trkpt><trkpt lat="46.0416391" lon="10.7525233"><ele>507.0</ele><time>2026-04-25T12:08:33.787Z</time></trkpt><trkpt lat="46.0415598" lon="10.752302"><ele>507.5</ele><time>2026-04-25T12:08:34.811Z</time></trkpt><trkpt lat="46.0414914" lon="10.752106"><ele>508.0</ele><time>2026-04-25T12:08:35.786Z</time></trkpt><trkpt lat="46.0414245" lon="10.7519147"><ele>508.5</ele><time>2026-04-25T12:08:36.794Z</time></trkpt><trkpt lat="46.0413593" lon="10.7517362"><ele>509.0</ele><time>2026-04-25T12:08:37.797Z</time></trkpt><trkpt lat="46.0412986" lon="10.7515642"><ele>509.0</ele><time>2026-04-25T12:08:38.781Z</time></trkpt><trkpt lat="46.0412469" lon="10.7513913"><ele>509.0</ele><time>2026-04-25T12:08:39.786Z</time></trkpt><trkpt lat="46.0412006" lon="10.751222"><ele>509.0</ele><time>2026-04-25T12:08:40.804Z</time></trkpt><trkpt lat="46.041171" lon="10.7510549"><ele>509.0</ele><time>2026-04-25T12:08:41.81Z</time></trkpt><trkpt lat="46.0411542" lon="10.7508984"><ele>508.6</ele><time>2026-04-25T12:08:42.794Z</time></trkpt><trkpt lat="46.0411376" lon="10.7507524"><ele>508.2</ele><time>2026-04-25T12:08:43.804Z</time></trkpt><trkpt lat="46.0411078" lon="10.7506265"><ele>507.80000000000007</ele><time>2026-04-25T12:08:44.788Z</time></trkpt><trkpt lat="46.041051" lon="10.7505246"><ele>507.40000000000003</ele><time>2026-04-25T12:08:45.78Z</time></trkpt><trkpt lat="46.0409689" lon="10.7504196"><ele>507.0</ele><time>2026-04-25T12:08:46.796Z</time></trkpt><trkpt lat="46.0408638" lon="10.7502809"><ele>507.33333333333337</ele><time>2026-04-25T12:08:47.809Z</time></trkpt><trkpt lat="46.0407771" lon="10.750107"><ele>507.6666666666667</ele><time>2026-04-25T12:08:48.808Z</time></trkpt><trkpt lat="46.0406912" lon="10.7499116"><ele>508.0</ele><time>2026-04-25T12:08:49.81Z</time></trkpt><trkpt lat="46.0406075" lon="10.7497203"><ele>508.0</ele><time>2026-04-25T12:08:50.789Z</time></trkpt><trkpt lat="46.0405336" lon="10.7495307"><ele>508.0</ele><time>2026-04-25T12:08:51.803Z</time></trkpt><trkpt lat="46.04046" lon="10.7493451"><ele>508.0</ele><time>2026-04-25T12:08:52.806Z</time></trkpt><trkpt lat="46.0404045" lon="10.7491863"><ele>508.0</ele><time>2026-04-25T12:08:53.824Z</time></trkpt><trkpt lat="46.0403692" lon="10.7490542"><ele>508.0</ele><time>2026-04-25T12:08:54.781Z</time></trkpt><trkpt lat="46.0403466" lon="10.7489346"><ele>507.99999999999994</ele><time>2026-04-25T12:08:55.804Z</time></trkpt><trkpt lat="46.0403344" lon="10.7488393"><ele>507.99999999999994</ele><time>2026-04-25T12:08:56.809Z</time></trkpt><trkpt lat="46.0403124" lon="10.7486754"><ele>508.0</ele><time>2026-04-25T12:08:58.776Z</time></trkpt><trkpt lat="46.0402715" lon="10.7485025"><ele>508.0</ele><time>2026-04-25T12:09:00.797Z</time></trkpt><trkpt lat="46.0402461" lon="10.74841"><ele>508.00000000000006</ele><time>2026-04-25T12:09:01.786Z</time></trkpt><trkpt lat="46.0402162" lon="10.7483113"><ele>508.0</ele><time>2026-04-25T12:09:02.796Z</time></trkpt><trkpt lat="46.0401846" lon="10.748208"><ele>508.0</ele><time>2026-04-25T12:09:03.794Z</time></trkpt><trkpt lat="46.0401454" lon="10.7481013"><ele>508.0</ele><time>2026-04-25T12:09:04.79Z</time></trkpt><trkpt lat="46.0401092" lon="10.7479899"><ele>508.00000000000006</ele><time>2026-04-25T12:09:05.802Z</time></trkpt><trkpt lat="46.0400785" lon="10.7478716"><ele>508.0</ele><time>2026-04-25T12:09:06.81Z</time></trkpt><trkpt lat="46.040054" lon="10.7477544"><ele>508.00000000000006</ele><time>2026-04-25T12:09:07.807Z</time></trkpt><trkpt lat="46.0400322" lon="10.7476431"><ele>508.0</ele><time>2026-04-25T12:09:08.809Z</time></trkpt><trkpt lat="46.0400144" lon="10.7475432"><ele>508.0</ele><time>2026-04-25T12:09:09.801Z</time></trkpt><trkpt lat="46.0400053" lon="10.7474533"><ele>508.0</ele><time>2026-04-25T12:09:10.783Z</time></trkpt><trkpt lat="46.0400026" lon="10.7472903"><ele>508.00000000000006</ele><time>2026-04-25T12:09:12.796Z</time></trkpt><trkpt lat="46.039973" lon="10.7471748"><ele>508.0</ele><time>2026-04-25T12:09:14.803Z</time></trkpt><trkpt lat="46.0399263" lon="10.7470745"><ele>508.50000000000006</ele><time>2026-04-25T12:09:16.788Z</time></trkpt><trkpt lat="46.0398816" lon="10.7469508"><ele>509.0</ele><time>2026-04-25T12:09:18.797Z</time></trkpt><trkpt lat="46.0398515" lon="10.7468092"><ele>509.5</ele><time>2026-04-25T12:09:20.793Z</time></trkpt><trkpt lat="46.0397937" lon="10.7466918"><ele>510.0</ele><time>2026-04-25T12:09:22.792Z</time></trkpt><trkpt lat="46.0397129" lon="10.7466923"><ele>510.50000000000006</ele><time>2026-04-25T12:09:24.792Z</time></trkpt><trkpt lat="46.0396913" lon="10.7467858"><ele>511.0</ele><time>2026-04-25T12:09:26.786Z</time></trkpt><trkpt lat="46.0397381" lon="10.7468779"><ele>511.0</ele><time>2026-04-25T12:09:28.792Z</time></trkpt><trkpt lat="46.0397888" lon="10.7469605"><ele>511.0</ele><time>2026-04-25T12:09:30.771Z</time></trkpt><trkpt lat="46.0398349" lon="10.7470321"><ele>511.0</ele><time>2026-04-25T12:09:32.778Z</time></trkpt><trkpt lat="46.0398671" lon="10.7471286"><ele>511.0</ele><time>2026-04-25T12:09:35.802Z</time></trkpt></trkseg><trkseg><trkpt lat="46.0399263" lon="10.747308"><ele>511.0</ele><time>2026-04-25T12:21:01.764Z</time></trkpt><trkpt lat="46.0398488" lon="10.7472574"><ele>511.0</ele><time>2026-04-25T12:21:06.761Z</time></trkpt><trkpt lat="46.0398029" lon="10.747042"><ele>511.0</ele><time>2026-04-25T12:21:09.767Z</time></trkpt><trkpt lat="46.0397707" lon="10.7469005"><ele>511.0</ele><time>2026-04-25T12:21:11.796Z</time></trkpt><trkpt lat="46.0397188" lon="10.7468292"><ele>511.0</ele><time>2026-04-25T12:21:13.76Z</time></trkpt><trkpt lat="46.0396569" lon="10.7468104"><ele>511.25</ele><time>2026-04-25T12:21:25.776Z</time></trkpt><trkpt lat="46.0395792" lon="10.7467316"><ele>511.5</ele><time>2026-04-25T12:21:27.795Z</time></trkpt><trkpt lat="46.0395216" lon="10.7466175"><ele>511.75</ele><time>2026-04-25T12:21:28.804Z</time></trkpt><trkpt lat="46.039457" lon="10.7464491"><ele>512.0</ele><time>2026-04-25T12:21:29.79Z</time></trkpt><trkpt lat="46.03938" lon="10.7462352"><ele>512.0</ele><time>2026-04-25T12:21:30.788Z</time></trkpt><trkpt lat="46.0392864" lon="10.7459732"><ele>512.0</ele><time>2026-04-25T12:21:31.804Z</time></trkpt><trkpt lat="46.0392059" lon="10.7457186"><ele>512.0</ele><time>2026-04-25T12:21:32.791Z</time></trkpt><trkpt lat="46.0391257" lon="10.7454723"><ele>514.3333333333333</ele><time>2026-04-25T12:21:33.824Z</time></trkpt><trkpt lat="46.0390438" lon="10.745265"><ele>516.6666666666666</ele><time>2026-04-25T12:21:34.816Z</time></trkpt><trkpt lat="46.038969" lon="10.7450677"><ele>519.0</ele><time>2026-04-25T12:21:35.808Z</time></trkpt><trkpt lat="46.038902" lon="10.7448801"><ele>519.0</ele><time>2026-04-25T12:21:36.829Z</time></trkpt><trkpt lat="46.0388415" lon="10.7447058"><ele>519.0</ele><time>2026-04-25T12:21:37.805Z</time></trkpt><trkpt lat="46.0387748" lon="10.7445245"><ele>519.0</ele><time>2026-04-25T12:21:38.818Z</time></trkpt><trkpt lat="46.0387061" lon="10.7443363"><ele>519.0</ele><time>2026-04-25T12:21:39.825Z</time></trkpt><trkpt lat="46.0386365" lon="10.7441413"><ele>519.0</ele><time>2026-04-25T12:21:40.824Z</time></trkpt><trkpt lat="46.0385687" lon="10.7439408"><ele>519.0</ele><time>2026-04-25T12:21:41.819Z</time></trkpt><trkpt lat="46.038497" lon="10.7437367"><ele>519.0</ele><time>2026-04-25T12:21:42.817Z</time></trkpt><trkpt lat="46.0384233" lon="10.7435281"><ele>519.6666666666666</ele><time>2026-04-25T12:21:43.812Z</time></trkpt><trkpt lat="46.0383423" lon="10.7433054"><ele>520.3333333333333</ele><time>2026-04-25T12:21:44.847Z</time></trkpt><trkpt lat="46.0382642" lon="10.7430905"><ele>521.0</ele><time>2026-04-25T12:21:45.796Z</time></trkpt><trkpt lat="46.0381815" lon="10.7428625"><ele>520.6666666666666</ele><time>2026-04-25T12:21:46.791Z</time></trkpt><trkpt lat="46.0380965" lon="10.7426246"><ele>520.3333333333334</ele><time>2026-04-25T12:21:47.79Z</time></trkpt><trkpt lat="46.0380098" lon="10.7423865"><ele>520.0</ele><time>2026-04-25T12:21:48.797Z</time></trkpt><trkpt lat="46.0379233" lon="10.7421503"><ele>520.0</ele><time>2026-04-25T12:21:49.824Z</time></trkpt><trkpt lat="46.0378483" lon="10.7419335"><ele>520.0</ele><time>2026-04-25T12:21:50.817Z</time></trkpt><trkpt lat="46.0377717" lon="10.7417152"><ele>520.0</ele><time>2026-04-25T12:21:51.828Z</time></trkpt><trkpt lat="46.037701" lon="10.7415091"><ele>520.0</ele><time>2026-04-25T12:21:52.807Z</time></trkpt><trkpt lat="46.0376244" lon="10.7412905"><ele>520.0</ele><time>2026-04-25T12:21:53.819Z</time></trkpt><trkpt lat="46.0375498" lon="10.7410826"><ele>520.0</ele><time>2026-04-25T12:21:54.79Z</time></trkpt><trkpt lat="46.0374683" lon="10.7408579"><ele>519.6666666666667</ele><time>2026-04-25T12:21:55.828Z</time></trkpt><trkpt lat="46.0373864" lon="10.7406338"><ele>519.3333333333334</ele><time>2026-04-25T12:21:56.841Z</time></trkpt><trkpt lat="46.0373099" lon="10.740419"><ele>519.0</ele><time>2026-04-25T12:21:57.81Z</time></trkpt><trkpt lat="46.037231" lon="10.7401961"><ele>520.3333333333334</ele><time>2026-04-25T12:21:58.822Z</time></trkpt><trkpt lat="46.0371537" lon="10.7399821"><ele>521.6666666666667</ele><time>2026-04-25T12:21:59.794Z</time></trkpt><trkpt lat="46.0370734" lon="10.7397556"><ele>523.0</ele><time>2026-04-25T12:22:00.808Z</time></trkpt><trkpt lat="46.0369967" lon="10.7395373"><ele>523.3333333333334</ele><time>2026-04-25T12:22:01.817Z</time></trkpt><trkpt lat="46.0369181" lon="10.7393139"><ele>523.6666666666666</ele><time>2026-04-25T12:22:02.831Z</time></trkpt><trkpt lat="46.0368407" lon="10.7390992"><ele>524.0</ele><time>2026-04-25T12:22:03.823Z</time></trkpt><trkpt lat="46.0367646" lon="10.7388841"><ele>524.0</ele><time>2026-04-25T12:22:04.824Z</time></trkpt><trkpt lat="46.0366871" lon="10.7386714"><ele>524.0</ele><time>2026-04-25T12:22:05.809Z</time></trkpt><trkpt lat="46.0366053" lon="10.7384685"><ele>524.0</ele><time>2026-04-25T12:22:06.791Z</time></trkpt><trkpt lat="46.0365015" lon="10.738273"><ele>531.0</ele><time>2026-04-25T12:22:07.823Z</time></trkpt><trkpt lat="46.036384" lon="10.7381132"><ele>538.0</ele><time>2026-04-25T12:22:08.796Z</time></trkpt><trkpt lat="46.0362372" lon="10.7379734"><ele>545.0</ele><time>2026-04-25T12:22:09.829Z</time></trkpt><trkpt lat="46.0360857" lon="10.7378491"><ele>545.0</ele><time>2026-04-25T12:22:10.833Z</time></trkpt><trkpt lat="46.0359371" lon="10.7377432"><ele>545.0</ele><time>2026-04-25T12:22:11.803Z</time></trkpt><trkpt lat="46.0357753" lon="10.7376426"><ele>545.0</ele><time>2026-04-25T12:22:12.829Z</time></trkpt><trkpt lat="46.0356133" lon="10.7375432"><ele>543.3333333333333</ele><time>2026-04-25T12:22:13.823Z</time></trkpt><trkpt lat="46.0354471" lon="10.7374387"><ele>541.6666666666666</ele><time>2026-04-25T12:22:14.844Z</time></trkpt><trkpt lat="46.035291" lon="10.7373364"><ele>540.0</ele><time>2026-04-25T12:22:15.799Z</time></trkpt><trkpt lat="46.0351236" lon="10.7372277"><ele>542.0</ele><time>2026-04-25T12:22:16.812Z</time></trkpt><trkpt lat="46.0349699" lon="10.7371166"><ele>544.0</ele><time>2026-04-25T12:22:17.788Z</time></trkpt><trkpt lat="46.0348254" lon="10.7369693"><ele>546.0</ele><time>2026-04-25T12:22:18.818Z</time></trkpt><trkpt lat="46.0347038" lon="10.7368058"><ele>546.0</ele><time>2026-04-25T12:22:19.78Z</time></trkpt><trkpt lat="46.0345886" lon="10.7366132"><ele>546.0</ele><time>2026-04-25T12:22:20.774Z</time></trkpt><trkpt lat="46.0344767" lon="10.7363986"><ele>546.0</ele><time>2026-04-25T12:22:21.798Z</time></trkpt><trkpt lat="46.0343684" lon="10.7361817"><ele>543.3333333333334</ele><time>2026-04-25T12:22:22.834Z</time></trkpt><trkpt lat="46.0342598" lon="10.7359759"><ele>540.6666666666667</ele><time>2026-04-25T12:22:23.829Z</time></trkpt><trkpt lat="46.0341566" lon="10.7357819"><ele>538.0</ele><time>2026-04-25T12:22:24.775Z</time></trkpt><trkpt lat="46.0340482" lon="10.7355676"><ele>538.0</ele><time>2026-04-25T12:22:25.8Z</time></trkpt><trkpt lat="46.0339575" lon="10.7353521"><ele>538.0</ele><time>2026-04-25T12:22:26.8Z</time></trkpt><trkpt lat="46.0338866" lon="10.7351362"><ele>538.0</ele><time>2026-04-25T12:22:27.83Z</time></trkpt><trkpt lat="46.0338349" lon="10.7349374"><ele>536.25</ele><time>2026-04-25T12:22:28.8Z</time></trkpt><trkpt lat="46.0337855" lon="10.7347463"><ele>534.5</ele><time>2026-04-25T12:22:29.817Z</time></trkpt><trkpt lat="46.0337402" lon="10.7345698"><ele>532.75</ele><time>2026-04-25T12:22:30.82Z</time></trkpt><trkpt lat="46.0337159" lon="10.7344041"><ele>531.0</ele><time>2026-04-25T12:22:31.807Z</time></trkpt><trkpt lat="46.0337202" lon="10.734235"><ele>530.75</ele><time>2026-04-25T12:22:32.829Z</time></trkpt><trkpt lat="46.0337498" lon="10.7340614"><ele>530.5</ele><time>2026-04-25T12:22:33.825Z</time></trkpt><trkpt lat="46.0338118" lon="10.7338975"><ele>530.25</ele><time>2026-04-25T12:22:34.82Z</time></trkpt><trkpt lat="46.0338984" lon="10.7337545"><ele>530.0</ele><time>2026-04-25T12:22:35.823Z</time></trkpt><trkpt lat="46.0339967" lon="10.7336203"><ele>530.25</ele><time>2026-04-25T12:22:36.832Z</time></trkpt><trkpt lat="46.0340949" lon="10.7334927"><ele>530.5</ele><time>2026-04-25T12:22:37.814Z</time></trkpt><trkpt lat="46.0341978" lon="10.7333653"><ele>530.75</ele><time>2026-04-25T12:22:38.824Z</time></trkpt><trkpt lat="46.0343026" lon="10.7332327"><ele>531.0</ele><time>2026-04-25T12:22:39.831Z</time></trkpt><trkpt lat="46.0344081" lon="10.7330989"><ele>531.6666666666666</ele><time>2026-04-25T12:22:40.813Z</time></trkpt><trkpt lat="46.034516" lon="10.7329526"><ele>532.3333333333333</ele><time>2026-04-25T12:22:41.831Z</time></trkpt><trkpt lat="46.0346247" lon="10.7328043"><ele>533.0</ele><time>2026-04-25T12:22:42.825Z</time></trkpt><trkpt lat="46.0347395" lon="10.7326578"><ele>533.3333333333333</ele><time>2026-04-25T12:22:43.802Z</time></trkpt><trkpt lat="46.0348605" lon="10.7325033"><ele>533.6666666666666</ele><time>2026-04-25T12:22:44.794Z</time></trkpt><trkpt lat="46.0349808" lon="10.7323413"><ele>534.0</ele><time>2026-04-25T12:22:45.841Z</time></trkpt><trkpt lat="46.035076" lon="10.7321899"><ele>534.75</ele><time>2026-04-25T12:22:46.812Z</time></trkpt><trkpt lat="46.0351431" lon="10.7320161"><ele>535.5</ele><time>2026-04-25T12:22:47.828Z</time></trkpt><trkpt lat="46.0351863" lon="10.7318255"><ele>536.25</ele><time>2026-04-25T12:22:48.823Z</time></trkpt><trkpt lat="46.0352044" lon="10.7316209"><ele>537.0</ele><time>2026-04-25T12:22:49.821Z</time></trkpt><trkpt lat="46.0351958" lon="10.7314221"><ele>538.6666666666666</ele><time>2026-04-25T12:22:50.817Z</time></trkpt><trkpt lat="46.0351567" lon="10.7312221"><ele>540.3333333333333</ele><time>2026-04-25T12:22:51.802Z</time></trkpt><trkpt lat="46.0350888" lon="10.7310228"><ele>542.0</ele><time>2026-04-25T12:22:52.825Z</time></trkpt><trkpt lat="46.0349887" lon="10.7308407"><ele>543.6666666666666</ele><time>2026-04-25T12:22:53.814Z</time></trkpt><trkpt lat="46.034858" lon="10.7306705"><ele>545.3333333333334</ele><time>2026-04-25T12:22:54.818Z</time></trkpt><trkpt lat="46.0347247" lon="10.7305111"><ele>547.0</ele><time>2026-04-25T12:22:55.786Z</time></trkpt><trkpt lat="46.0345878" lon="10.7303515"><ele>548.6666666666667</ele><time>2026-04-25T12:22:56.768Z</time></trkpt><trkpt lat="46.0344426" lon="10.7301754"><ele>550.3333333333334</ele><time>2026-04-25T12:22:57.8Z</time></trkpt><trkpt lat="46.0343051" lon="10.7300025"><ele>552.0</ele><time>2026-04-25T12:22:58.812Z</time></trkpt><trkpt lat="46.0341761" lon="10.7298483"><ele>549.6666666666666</ele><time>2026-04-25T12:22:59.816Z</time></trkpt><trkpt lat="46.0340541" lon="10.7297056"><ele>547.3333333333333</ele><time>2026-04-25T12:23:00.794Z</time></trkpt><trkpt lat="46.0339225" lon="10.7295609"><ele>545.0</ele><time>2026-04-25T12:23:01.83Z</time></trkpt><trkpt lat="46.0337898" lon="10.7294277"><ele>548.3333333333333</ele><time>2026-04-25T12:23:02.817Z</time></trkpt><trkpt lat="46.0336466" lon="10.729294"><ele>551.6666666666666</ele><time>2026-04-25T12:23:03.822Z</time></trkpt><trkpt lat="46.033505" lon="10.729161"><ele>555.0</ele><time>2026-04-25T12:23:04.809Z</time></trkpt><trkpt lat="46.0333622" lon="10.7290204"><ele>553.6666666666666</ele><time>2026-04-25T12:23:05.816Z</time></trkpt><trkpt lat="46.0332237" lon="10.7288888"><ele>552.3333333333333</ele><time>2026-04-25T12:23:06.8Z</time></trkpt><trkpt lat="46.0330853" lon="10.7287828"><ele>551.0</ele><time>2026-04-25T12:23:07.832Z</time></trkpt><trkpt lat="46.032951" lon="10.7287082"><ele>551.0</ele><time>2026-04-25T12:23:08.838Z</time></trkpt><trkpt lat="46.0328186" lon="10.7286514"><ele>551.0</ele><time>2026-04-25T12:23:09.821Z</time></trkpt><trkpt lat="46.0326974" lon="10.7285996"><ele>551.0</ele><time>2026-04-25T12:23:10.847Z</time></trkpt><trkpt lat="46.0325926" lon="10.7285557"><ele>551.0</ele><time>2026-04-25T12:23:11.816Z</time></trkpt><trkpt lat="46.0324996" lon="10.7285003"><ele>552.0</ele><time>2026-04-25T12:23:12.805Z</time></trkpt><trkpt lat="46.0324218" lon="10.7284231"><ele>553.0</ele><time>2026-04-25T12:23:13.82Z</time></trkpt><trkpt lat="46.0323547" lon="10.7283344"><ele>554.0</ele><time>2026-04-25T12:23:14.802Z</time></trkpt><trkpt lat="46.032296" lon="10.7282238"><ele>555.0</ele><time>2026-04-25T12:23:15.813Z</time></trkpt><trkpt lat="46.032248" lon="10.7281017"><ele>556.0</ele><time>2026-04-25T12:23:16.807Z</time></trkpt><trkpt lat="46.0322122" lon="10.7279603"><ele>556.0</ele><time>2026-04-25T12:23:17.819Z</time></trkpt><trkpt lat="46.0321868" lon="10.7278032"><ele>556.0</ele><time>2026-04-25T12:23:18.815Z</time></trkpt><trkpt lat="46.0321836" lon="10.7276443"><ele>556.0</ele><time>2026-04-25T12:23:19.813Z</time></trkpt><trkpt lat="46.0322064" lon="10.7274842"><ele>556.0</ele><time>2026-04-25T12:23:20.815Z</time></trkpt><trkpt lat="46.0322483" lon="10.7273406"><ele>556.0</ele><time>2026-04-25T12:23:21.823Z</time></trkpt><trkpt lat="46.0323019" lon="10.7272257"><ele>557.8333333333334</ele><time>2026-04-25T12:23:22.835Z</time></trkpt><trkpt lat="46.0323643" lon="10.7271315"><ele>559.6666666666667</ele><time>2026-04-25T12:23:23.817Z</time></trkpt><trkpt lat="46.0324306" lon="10.7270535"><ele>561.5</ele><time>2026-04-25T12:23:24.833Z</time></trkpt><trkpt lat="46.0324882" lon="10.7269836"><ele>563.3333333333334</ele><time>2026-04-25T12:23:25.779Z</time></trkpt><trkpt lat="46.0325262" lon="10.726906"><ele>565.1666666666666</ele><time>2026-04-25T12:23:26.789Z</time></trkpt><trkpt lat="46.032513" lon="10.7267438"><ele>567.0</ele><time>2026-04-25T12:23:28.818Z</time></trkpt><trkpt lat="46.0323777" lon="10.7266676"><ele>569.75</ele><time>2026-04-25T12:23:30.837Z</time></trkpt><trkpt lat="46.0322843" lon="10.7266374"><ele>572.5</ele><time>2026-04-25T12:23:31.829Z</time></trkpt><trkpt lat="46.0321852" lon="10.7265844"><ele>575.25</ele><time>2026-04-25T12:23:32.778Z</time></trkpt><trkpt lat="46.0320601" lon="10.7264873"><ele>578.0</ele><time>2026-04-25T12:23:33.817Z</time></trkpt><trkpt lat="46.0319422" lon="10.7263794"><ele>578.0</ele><time>2026-04-25T12:23:34.817Z</time></trkpt><trkpt lat="46.0318164" lon="10.7262557"><ele>578.0</ele><time>2026-04-25T12:23:35.79Z</time></trkpt><trkpt lat="46.0316899" lon="10.7261344"><ele>578.0</ele><time>2026-04-25T12:23:36.819Z</time></trkpt><trkpt lat="46.0315694" lon="10.7260258"><ele>578.0</ele><time>2026-04-25T12:23:37.815Z</time></trkpt><trkpt lat="46.0314627" lon="10.7259296"><ele>579.25</ele><time>2026-04-25T12:23:38.762Z</time></trkpt><trkpt lat="46.0313567" lon="10.7258322"><ele>580.5</ele><time>2026-04-25T12:23:39.8Z</time></trkpt><trkpt lat="46.0312509" lon="10.7257271"><ele>581.75</ele><time>2026-04-25T12:23:40.814Z</time></trkpt><trkpt lat="46.0311487" lon="10.7256229"><ele>583.0</ele><time>2026-04-25T12:23:41.796Z</time></trkpt><trkpt lat="46.0310366" lon="10.7255155"><ele>583.0</ele><time>2026-04-25T12:23:42.827Z</time></trkpt><trkpt lat="46.0309273" lon="10.7254104"><ele>583.0</ele><time>2026-04-25T12:23:43.81Z</time></trkpt><trkpt lat="46.0308125" lon="10.7253023"><ele>583.0</ele><time>2026-04-25T12:23:44.806Z</time></trkpt><trkpt lat="46.0306916" lon="10.7251851"><ele>583.0</ele><time>2026-04-25T12:23:45.811Z</time></trkpt><trkpt lat="46.0305673" lon="10.7250663"><ele>583.75</ele><time>2026-04-25T12:23:46.839Z</time></trkpt><trkpt lat="46.0304454" lon="10.7249511"><ele>584.5</ele><time>2026-04-25T12:23:47.822Z</time></trkpt><trkpt lat="46.0303234" lon="10.7248346"><ele>585.25</ele><time>2026-04-25T12:23:48.809Z</time></trkpt><trkpt lat="46.0301946" lon="10.7247159"><ele>586.0</ele><time>2026-04-25T12:23:49.817Z</time></trkpt><trkpt lat="46.030071" lon="10.7246005"><ele>585.3333333333334</ele><time>2026-04-25T12:23:50.801Z</time></trkpt><trkpt lat="46.0299354" lon="10.7244801"><ele>584.6666666666666</ele><time>2026-04-25T12:23:51.816Z</time></trkpt><trkpt lat="46.0297975" lon="10.7243651"><ele>584.0</ele><time>2026-04-25T12:23:52.83Z</time></trkpt><trkpt lat="46.0296649" lon="10.7242594"><ele>585.6666666666666</ele><time>2026-04-25T12:23:53.809Z</time></trkpt><trkpt lat="46.0295251" lon="10.7241424"><ele>587.3333333333334</ele><time>2026-04-25T12:23:54.813Z</time></trkpt><trkpt lat="46.0293879" lon="10.7240261"><ele>589.0</ele><time>2026-04-25T12:23:55.788Z</time></trkpt><trkpt lat="46.0292396" lon="10.723902"><ele>589.3333333333334</ele><time>2026-04-25T12:23:56.816Z</time></trkpt><trkpt lat="46.0290973" lon="10.7237904"><ele>589.6666666666666</ele><time>2026-04-25T12:23:57.823Z</time></trkpt><trkpt lat="46.0289542" lon="10.7236778"><ele>590.0</ele><time>2026-04-25T12:23:58.842Z</time></trkpt><trkpt lat="46.0288199" lon="10.7235723"><ele>591.3333333333333</ele><time>2026-04-25T12:23:59.825Z</time></trkpt><trkpt lat="46.0286805" lon="10.723468"><ele>592.6666666666666</ele><time>2026-04-25T12:24:00.826Z</time></trkpt><trkpt lat="46.0285456" lon="10.7233689"><ele>594.0</ele><time>2026-04-25T12:24:01.795Z</time></trkpt><trkpt lat="46.0283957" lon="10.7232716"><ele>593.3333333333334</ele><time>2026-04-25T12:24:02.816Z</time></trkpt><trkpt lat="46.0282504" lon="10.7231817"><ele>592.6666666666667</ele><time>2026-04-25T12:24:03.808Z</time></trkpt><trkpt lat="46.0281014" lon="10.7230936"><ele>592.0</ele><time>2026-04-25T12:24:04.832Z</time></trkpt><trkpt lat="46.0279551" lon="10.7230116"><ele>592.0</ele><time>2026-04-25T12:24:05.823Z</time></trkpt><trkpt lat="46.0278131" lon="10.7229172"><ele>592.0</ele><time>2026-04-25T12:24:06.83Z</time></trkpt><trkpt lat="46.0276815" lon="10.7228113"><ele>592.0</ele><time>2026-04-25T12:24:07.796Z</time></trkpt><trkpt lat="46.0275498" lon="10.7226814"><ele>597.0</ele><time>2026-04-25T12:24:08.817Z</time></trkpt><trkpt lat="46.0274164" lon="10.7225418"><ele>602.0</ele><time>2026-04-25T12:24:09.833Z</time></trkpt><trkpt lat="46.0272831" lon="10.7224081"><ele>607.0</ele><time>2026-04-25T12:24:10.814Z</time></trkpt><trkpt lat="46.0271339" lon="10.7222811"><ele>607.0</ele><time>2026-04-25T12:24:11.834Z</time></trkpt><trkpt lat="46.0269787" lon="10.7221825"><ele>607.0</ele><time>2026-04-25T12:24:12.825Z</time></trkpt><trkpt lat="46.0268155" lon="10.7221172"><ele>607.0</ele><time>2026-04-25T12:24:13.828Z</time></trkpt><trkpt lat="46.0266479" lon="10.7220814"><ele>607.6666666666667</ele><time>2026-04-25T12:24:14.826Z</time></trkpt><trkpt lat="46.0264826" lon="10.7220802"><ele>608.3333333333334</ele><time>2026-04-25T12:24:15.806Z</time></trkpt><trkpt lat="46.0263094" lon="10.7221005"><ele>609.0</ele><time>2026-04-25T12:24:16.827Z</time></trkpt><trkpt lat="46.0261424" lon="10.7221218"><ele>609.0</ele><time>2026-04-25T12:24:17.828Z</time></trkpt><trkpt lat="46.0259856" lon="10.7221427"><ele>609.0</ele><time>2026-04-25T12:24:18.832Z</time></trkpt><trkpt lat="46.025845" lon="10.7221527"><ele>609.0</ele><time>2026-04-25T12:24:19.822Z</time></trkpt><trkpt lat="46.0257162" lon="10.7221529"><ele>609.0</ele><time>2026-04-25T12:24:20.816Z</time></trkpt><trkpt lat="46.0256015" lon="10.7221417"><ele>609.6666666666666</ele><time>2026-04-25T12:24:21.816Z</time></trkpt><trkpt lat="46.025513" lon="10.7221067"><ele>610.3333333333334</ele><time>2026-04-25T12:24:22.815Z</time></trkpt><trkpt lat="46.0254539" lon="10.7220411"><ele>611.0</ele><time>2026-04-25T12:24:23.817Z</time></trkpt><trkpt lat="46.0254305" lon="10.7219456"><ele>611.6666666666667</ele><time>2026-04-25T12:24:24.826Z</time></trkpt><trkpt lat="46.0254505" lon="10.7218453"><ele>612.3333333333334</ele><time>2026-04-25T12:24:25.815Z</time></trkpt><trkpt lat="46.0255076" lon="10.7217647"><ele>613.0</ele><time>2026-04-25T12:24:26.817Z</time></trkpt><trkpt lat="46.0255978" lon="10.7217188"><ele>615.75</ele><time>2026-04-25T12:24:27.819Z</time></trkpt><trkpt lat="46.0257036" lon="10.721727"><ele>618.5</ele><time>2026-04-25T12:24:28.815Z</time></trkpt><trkpt lat="46.0258348" lon="10.7217547"><ele>621.25</ele><time>2026-04-25T12:24:29.835Z</time></trkpt><trkpt lat="46.0259773" lon="10.7217816"><ele>624.0</ele><time>2026-04-25T12:24:30.815Z</time></trkpt><trkpt lat="46.0261173" lon="10.7217905"><ele>623.5</ele><time>2026-04-25T12:24:31.804Z</time></trkpt><trkpt lat="46.0262519" lon="10.7217778"><ele>623.0</ele><time>2026-04-25T12:24:32.805Z</time></trkpt><trkpt lat="46.0263849" lon="10.7217356"><ele>622.5</ele><time>2026-04-25T12:24:33.812Z</time></trkpt><trkpt lat="46.0265253" lon="10.7216706"><ele>622.0</ele><time>2026-04-25T12:24:34.839Z</time></trkpt><trkpt lat="46.0266575" lon="10.721603"><ele>622.0</ele><time>2026-04-25T12:24:35.814Z</time></trkpt><trkpt lat="46.0267912" lon="10.7215303"><ele>622.0</ele><time>2026-04-25T12:24:36.823Z</time></trkpt><trkpt lat="46.0269139" lon="10.7214648"><ele>622.0</ele><time>2026-04-25T12:24:37.827Z</time></trkpt><trkpt lat="46.0270348" lon="10.7214262"><ele>622.0</ele><time>2026-04-25T12:24:38.82Z</time></trkpt><trkpt lat="46.0271571" lon="10.7214265"><ele>622.0</ele><time>2026-04-25T12:24:39.81Z</time></trkpt><trkpt lat="46.0272784" lon="10.7214732"><ele>622.0</ele><time>2026-04-25T12:24:40.825Z</time></trkpt><trkpt lat="46.0273968" lon="10.7215354"><ele>622.0</ele><time>2026-04-25T12:24:41.797Z</time></trkpt><trkpt lat="46.0275252" lon="10.7215936"><ele>622.0</ele><time>2026-04-25T12:24:42.822Z</time></trkpt><trkpt lat="46.02765" lon="10.7216405"><ele>623.0</ele><time>2026-04-25T12:24:43.809Z</time></trkpt><trkpt lat="46.0277811" lon="10.7216715"><ele>624.0</ele><time>2026-04-25T12:24:44.823Z</time></trkpt><trkpt lat="46.0279062" lon="10.7216905"><ele>625.0</ele><time>2026-04-25T12:24:45.832Z</time></trkpt><trkpt lat="46.0280172" lon="10.7217054"><ele>626.0</ele><time>2026-04-25T12:24:46.831Z</time></trkpt><trkpt lat="46.0281102" lon="10.7217164"><ele>626.0</ele><time>2026-04-25T12:24:47.822Z</time></trkpt><trkpt lat="46.0281903" lon="10.7217134"><ele>626.0</ele><time>2026-04-25T12:24:48.792Z</time></trkpt><trkpt lat="46.0282556" lon="10.7216789"><ele>626.0</ele><time>2026-04-25T12:24:49.819Z</time></trkpt><trkpt lat="46.0283123" lon="10.7216132"><ele>626.0</ele><time>2026-04-25T12:24:50.821Z</time></trkpt><trkpt lat="46.0283614" lon="10.7215038"><ele>626.0</ele><time>2026-04-25T12:24:51.828Z</time></trkpt><trkpt lat="46.0283698" lon="10.7213865"><ele>626.0</ele><time>2026-04-25T12:24:52.817Z</time></trkpt><trkpt lat="46.0283422" lon="10.7212685"><ele>626.0</ele><time>2026-04-25T12:24:53.83Z</time></trkpt><trkpt lat="46.0282885" lon="10.7211887"><ele>626.0</ele><time>2026-04-25T12:24:54.825Z</time></trkpt><trkpt lat="46.0282122" lon="10.72114"><ele>626.0</ele><time>2026-04-25T12:24:55.829Z</time></trkpt><trkpt lat="46.0281207" lon="10.721126"><ele>626.0</ele><time>2026-04-25T12:24:56.829Z</time></trkpt><trkpt lat="46.0280158" lon="10.7211244"><ele>626.0</ele><time>2026-04-25T12:24:57.839Z</time></trkpt><trkpt lat="46.0279068" lon="10.7211141"><ele>626.0</ele><time>2026-04-25T12:24:58.828Z</time></trkpt><trkpt lat="46.0277891" lon="10.7210848"><ele>626.0</ele><time>2026-04-25T12:24:59.801Z</time></trkpt><trkpt lat="46.0276663" lon="10.7210319"><ele>626.0</ele><time>2026-04-25T12:25:00.796Z</time></trkpt><trkpt lat="46.0275422" lon="10.7209549"><ele>626.0</ele><time>2026-04-25T12:25:01.801Z</time></trkpt><trkpt lat="46.0274273" lon="10.7208461"><ele>630.6666666666666</ele><time>2026-04-25T12:25:02.805Z</time></trkpt><trkpt lat="46.0273153" lon="10.7207128"><ele>635.3333333333334</ele><time>2026-04-25T12:25:03.816Z</time></trkpt><trkpt lat="46.0272107" lon="10.7205601"><ele>640.0</ele><time>2026-04-25T12:25:04.801Z</time></trkpt><trkpt lat="46.0271042" lon="10.7203908"><ele>644.3333333333334</ele><time>2026-04-25T12:25:05.811Z</time></trkpt><trkpt lat="46.0269978" lon="10.7202224"><ele>648.6666666666666</ele><time>2026-04-25T12:25:06.802Z</time></trkpt><trkpt lat="46.0268801" lon="10.7200505"><ele>653.0</ele><time>2026-04-25T12:25:07.816Z</time></trkpt><trkpt lat="46.0267551" lon="10.7198821"><ele>653.0</ele><time>2026-04-25T12:25:08.827Z</time></trkpt><trkpt lat="46.0266279" lon="10.7197291"><ele>653.0</ele><time>2026-04-25T12:25:09.797Z</time></trkpt><trkpt lat="46.026489" lon="10.7195679"><ele>653.0</ele><time>2026-04-25T12:25:10.803Z</time></trkpt><trkpt lat="46.0263515" lon="10.7194084"><ele>655.6666666666666</ele><time>2026-04-25T12:25:11.807Z</time></trkpt><trkpt lat="46.0262053" lon="10.7192407"><ele>658.3333333333334</ele><time>2026-04-25T12:25:12.847Z</time></trkpt><trkpt lat="46.0260702" lon="10.7190961"><ele>661.0</ele><time>2026-04-25T12:25:13.782Z</time></trkpt><trkpt lat="46.0259187" lon="10.7189382"><ele>660.0</ele><time>2026-04-25T12:25:14.836Z</time></trkpt><trkpt lat="46.0257725" lon="10.7187786"><ele>659.0</ele><time>2026-04-25T12:25:15.835Z</time></trkpt><trkpt lat="46.0256316" lon="10.7186223"><ele>658.0</ele><time>2026-04-25T12:25:16.816Z</time></trkpt><trkpt lat="46.0254873" lon="10.7184612"><ele>661.0</ele><time>2026-04-25T12:25:17.807Z</time></trkpt><trkpt lat="46.0253382" lon="10.7182966"><ele>664.0</ele><time>2026-04-25T12:25:18.819Z</time></trkpt><trkpt lat="46.0251861" lon="10.7181333"><ele>667.0</ele><time>2026-04-25T12:25:19.815Z</time></trkpt><trkpt lat="46.0250343" lon="10.7179639"><ele>666.0</ele><time>2026-04-25T12:25:20.822Z</time></trkpt><trkpt lat="46.024877" lon="10.7177926"><ele>665.0</ele><time>2026-04-25T12:25:21.828Z</time></trkpt><trkpt lat="46.0247199" lon="10.7176234"><ele>664.0</ele><time>2026-04-25T12:25:22.822Z</time></trkpt><trkpt lat="46.0245655" lon="10.7174534"><ele>667.6666666666667</ele><time>2026-04-25T12:25:23.827Z</time></trkpt><trkpt lat="46.0244106" lon="10.7172961"><ele>671.3333333333334</ele><time>2026-04-25T12:25:24.813Z</time></trkpt><trkpt lat="46.0242465" lon="10.7171345"><ele>675.0</ele><time>2026-04-25T12:25:25.834Z</time></trkpt><trkpt lat="46.0240859" lon="10.7169917"><ele>681.6666666666666</ele><time>2026-04-25T12:25:26.814Z</time></trkpt><trkpt lat="46.0239163" lon="10.7168549"><ele>688.3333333333333</ele><time>2026-04-25T12:25:27.827Z</time></trkpt><trkpt lat="46.0237477" lon="10.7167336"><ele>695.0</ele><time>2026-04-25T12:25:28.814Z</time></trkpt><trkpt lat="46.0235748" lon="10.7166203"><ele>695.0</ele><time>2026-04-25T12:25:29.812Z</time></trkpt><trkpt lat="46.0233997" lon="10.716512"><ele>695.0</ele><time>2026-04-25T12:25:30.815Z</time></trkpt><trkpt lat="46.0232208" lon="10.7164012"><ele>695.0</ele><time>2026-04-25T12:25:31.836Z</time></trkpt><trkpt lat="46.0230526" lon="10.7162822"><ele>693.3333333333333</ele><time>2026-04-25T12:25:32.822Z</time></trkpt><trkpt lat="46.0228853" lon="10.7161499"><ele>691.6666666666666</ele><time>2026-04-25T12:25:33.825Z</time></trkpt><trkpt lat="46.0227326" lon="10.7159965"><ele>690.0</ele><time>2026-04-25T12:25:34.816Z</time></trkpt><trkpt lat="46.0225975" lon="10.715811"><ele>692.3333333333334</ele><time>2026-04-25T12:25:35.822Z</time></trkpt><trkpt lat="46.0224745" lon="10.7156082"><ele>694.6666666666667</ele><time>2026-04-25T12:25:36.806Z</time></trkpt><trkpt lat="46.0223625" lon="10.715388"><ele>697.0</ele><time>2026-04-25T12:25:37.813Z</time></trkpt><trkpt lat="46.0222609" lon="10.7151599"><ele>697.0</ele><time>2026-04-25T12:25:38.819Z</time></trkpt><trkpt lat="46.0221608" lon="10.7149345"><ele>697.0</ele><time>2026-04-25T12:25:39.807Z</time></trkpt><trkpt lat="46.0220594" lon="10.7147131"><ele>697.0</ele><time>2026-04-25T12:25:40.813Z</time></trkpt><trkpt lat="46.0219555" lon="10.714502"><ele>699.3333333333334</ele><time>2026-04-25T12:25:41.792Z</time></trkpt><trkpt lat="46.0218401" lon="10.7142892"><ele>701.6666666666666</ele><time>2026-04-25T12:25:42.806Z</time></trkpt><trkpt lat="46.0217156" lon="10.7140952"><ele>704.0</ele><time>2026-04-25T12:25:43.804Z</time></trkpt><trkpt lat="46.0215736" lon="10.713916"><ele>704.0</ele><time>2026-04-25T12:25:44.805Z</time></trkpt><trkpt lat="46.0214222" lon="10.7137489"><ele>704.0</ele><time>2026-04-25T12:25:45.823Z</time></trkpt><trkpt lat="46.0212661" lon="10.7136035"><ele>704.0</ele><time>2026-04-25T12:25:46.805Z</time></trkpt><trkpt lat="46.0211064" lon="10.713465"><ele>707.6666666666666</ele><time>2026-04-25T12:25:47.805Z</time></trkpt><trkpt lat="46.0209425" lon="10.713335"><ele>711.3333333333334</ele><time>2026-04-25T12:25:48.81Z</time></trkpt><trkpt lat="46.0207767" lon="10.7132171"><ele>715.0</ele><time>2026-04-25T12:25:49.817Z</time></trkpt><trkpt lat="46.0206046" lon="10.7131038"><ele>715.0</ele><time>2026-04-25T12:25:50.819Z</time></trkpt><trkpt lat="46.0204284" lon="10.7129977"><ele>715.0</ele><time>2026-04-25T12:25:51.826Z</time></trkpt><trkpt lat="46.0202543" lon="10.7128872"><ele>715.0</ele><time>2026-04-25T12:25:52.814Z</time></trkpt><trkpt lat="46.0200711" lon="10.7127608"><ele>717.0</ele><time>2026-04-25T12:25:53.829Z</time></trkpt><trkpt lat="46.0198997" lon="10.712619"><ele>719.0</ele><time>2026-04-25T12:25:54.813Z</time></trkpt><trkpt lat="46.0197272" lon="10.7124582"><ele>721.0</ele><time>2026-04-25T12:25:55.853Z</time></trkpt><trkpt lat="46.0195651" lon="10.7122913"><ele>721.0</ele><time>2026-04-25T12:25:56.831Z</time></trkpt><trkpt lat="46.0193994" lon="10.7121135"><ele>721.0</ele><time>2026-04-25T12:25:57.832Z</time></trkpt><trkpt lat="46.0192382" lon="10.7119333"><ele>721.0</ele><time>2026-04-25T12:25:58.817Z</time></trkpt><trkpt lat="46.0190815" lon="10.7117423"><ele>720.6666666666667</ele><time>2026-04-25T12:25:59.813Z</time></trkpt><trkpt lat="46.0189244" lon="10.711543"><ele>720.3333333333334</ele><time>2026-04-25T12:26:00.826Z</time></trkpt><trkpt lat="46.018773" lon="10.7113462"><ele>720.0</ele><time>2026-04-25T12:26:01.834Z</time></trkpt><trkpt lat="46.0186233" lon="10.7111518"><ele>717.6666666666666</ele><time>2026-04-25T12:26:02.845Z</time></trkpt><trkpt lat="46.0184776" lon="10.7109655"><ele>715.3333333333333</ele><time>2026-04-25T12:26:03.834Z</time></trkpt><trkpt lat="46.018339" lon="10.7107747"><ele>713.0</ele><time>2026-04-25T12:26:04.829Z</time></trkpt><trkpt lat="46.0182135" lon="10.7105671"><ele>713.0</ele><time>2026-04-25T12:26:05.815Z</time></trkpt><trkpt lat="46.0181095" lon="10.710342"><ele>713.0</ele><time>2026-04-25T12:26:06.816Z</time></trkpt><trkpt lat="46.0180229" lon="10.7101036"><ele>713.0</ele><time>2026-04-25T12:26:07.816Z</time></trkpt><trkpt lat="46.017945" lon="10.7098664"><ele>720.0</ele><time>2026-04-25T12:26:08.814Z</time></trkpt><trkpt lat="46.0178545" lon="10.7096512"><ele>727.0</ele><time>2026-04-25T12:26:09.826Z</time></trkpt><trkpt lat="46.0177368" lon="10.709445"><ele>734.0</ele><time>2026-04-25T12:26:10.838Z</time></trkpt><trkpt lat="46.0176055" lon="10.7092672"><ele>737.6666666666666</ele><time>2026-04-25T12:26:11.827Z</time></trkpt><trkpt lat="46.0174705" lon="10.7090941"><ele>741.3333333333334</ele><time>2026-04-25T12:26:12.819Z</time></trkpt><trkpt lat="46.0173366" lon="10.7089325"><ele>745.0</ele><time>2026-04-25T12:26:13.827Z</time></trkpt><trkpt lat="46.0172127" lon="10.7087946"><ele>745.0</ele><time>2026-04-25T12:26:14.825Z</time></trkpt><trkpt lat="46.0170936" lon="10.7086595"><ele>745.0</ele><time>2026-04-25T12:26:15.824Z</time></trkpt><trkpt lat="46.016977" lon="10.7085279"><ele>745.0</ele><time>2026-04-25T12:26:16.819Z</time></trkpt><trkpt lat="46.0168691" lon="10.7084034"><ele>745.0</ele><time>2026-04-25T12:26:17.81Z</time></trkpt><trkpt lat="46.0167575" lon="10.7082885"><ele>746.75</ele><time>2026-04-25T12:26:18.834Z</time></trkpt><trkpt lat="46.016651" lon="10.7081958"><ele>748.5</ele><time>2026-04-25T12:26:19.798Z</time></trkpt><trkpt lat="46.0165329" lon="10.7081126"><ele>750.25</ele><time>2026-04-25T12:26:20.806Z</time></trkpt><trkpt lat="46.0164042" lon="10.708037"><ele>752.0</ele><time>2026-04-25T12:26:21.822Z</time></trkpt><trkpt lat="46.0162754" lon="10.7079657"><ele>752.0</ele><time>2026-04-25T12:26:22.814Z</time></trkpt><trkpt lat="46.0161402" lon="10.7078966"><ele>752.0</ele><time>2026-04-25T12:26:23.81Z</time></trkpt><trkpt lat="46.0160002" lon="10.7078273"><ele>752.0</ele><time>2026-04-25T12:26:24.826Z</time></trkpt><trkpt lat="46.0158653" lon="10.7077617"><ele>752.0</ele><time>2026-04-25T12:26:25.817Z</time></trkpt><trkpt lat="46.0157385" lon="10.7077009"><ele>754.25</ele><time>2026-04-25T12:26:26.807Z</time></trkpt><trkpt lat="46.0156232" lon="10.7076271"><ele>756.5</ele><time>2026-04-25T12:26:27.81Z</time></trkpt><trkpt lat="46.0155073" lon="10.7075393"><ele>758.75</ele><time>2026-04-25T12:26:28.809Z</time></trkpt><trkpt lat="46.0153896" lon="10.7074348"><ele>761.0</ele><time>2026-04-25T12:26:29.808Z</time></trkpt><trkpt lat="46.0152687" lon="10.7073068"><ele>761.0</ele><time>2026-04-25T12:26:30.836Z</time></trkpt><trkpt lat="46.0151567" lon="10.7071688"><ele>761.0</ele><time>2026-04-25T12:26:31.831Z</time></trkpt><trkpt lat="46.0150472" lon="10.7070233"><ele>761.0</ele><time>2026-04-25T12:26:32.82Z</time></trkpt><trkpt lat="46.0149347" lon="10.7068726"><ele>758.0</ele><time>2026-04-25T12:26:33.825Z</time></trkpt><trkpt lat="46.0148216" lon="10.7067239"><ele>755.0</ele><time>2026-04-25T12:26:34.83Z</time></trkpt><trkpt lat="46.0147055" lon="10.7065771"><ele>752.0</ele><time>2026-04-25T12:26:35.828Z</time></trkpt><trkpt lat="46.014592" lon="10.7064304"><ele>752.0</ele><time>2026-04-25T12:26:36.815Z</time></trkpt><trkpt lat="46.0144785" lon="10.7062832"><ele>752.0</ele><time>2026-04-25T12:26:37.796Z</time></trkpt><trkpt lat="46.0143613" lon="10.7061298"><ele>752.0</ele><time>2026-04-25T12:26:38.794Z</time></trkpt><trkpt lat="46.0142431" lon="10.705971"><ele>748.0</ele><time>2026-04-25T12:26:39.817Z</time></trkpt><trkpt lat="46.0141327" lon="10.7058163"><ele>744.0</ele><time>2026-04-25T12:26:40.815Z</time></trkpt><trkpt lat="46.0140381" lon="10.7056535"><ele>740.0</ele><time>2026-04-25T12:26:41.795Z</time></trkpt><trkpt lat="46.013953" lon="10.7054744"><ele>740.0</ele><time>2026-04-25T12:26:42.807Z</time></trkpt><trkpt lat="46.0138858" lon="10.7052761"><ele>740.0</ele><time>2026-04-25T12:26:43.82Z</time></trkpt><trkpt lat="46.0138324" lon="10.7050713"><ele>740.0</ele><time>2026-04-25T12:26:44.819Z</time></trkpt><trkpt lat="46.0137753" lon="10.704868"><ele>745.6666666666666</ele><time>2026-04-25T12:26:45.81Z</time></trkpt><trkpt lat="46.0137045" lon="10.7046623"><ele>751.3333333333334</ele><time>2026-04-25T12:26:46.83Z</time></trkpt><trkpt lat="46.0136132" lon="10.7044709"><ele>757.0</ele><time>2026-04-25T12:26:47.842Z</time></trkpt><trkpt lat="46.0135153" lon="10.7043032"><ele>755.3333333333334</ele><time>2026-04-25T12:26:48.806Z</time></trkpt><trkpt lat="46.0133997" lon="10.7041395"><ele>753.6666666666666</ele><time>2026-04-25T12:26:49.838Z</time></trkpt><trkpt lat="46.0132934" lon="10.703987"><ele>752.0</ele><time>2026-04-25T12:26:50.819Z</time></trkpt><trkpt lat="46.0131847" lon="10.7038431"><ele>752.0</ele><time>2026-04-25T12:26:51.831Z</time></trkpt><trkpt lat="46.0130795" lon="10.7037049"><ele>752.0</ele><time>2026-04-25T12:26:52.809Z</time></trkpt><trkpt lat="46.0129703" lon="10.7035676"><ele>752.0</ele><time>2026-04-25T12:26:53.818Z</time></trkpt><trkpt lat="46.0128624" lon="10.7034259"><ele>752.0</ele><time>2026-04-25T12:26:54.833Z</time></trkpt><trkpt lat="46.0127558" lon="10.7032913"><ele>757.5</ele><time>2026-04-25T12:26:55.835Z</time></trkpt><trkpt lat="46.0126525" lon="10.703155"><ele>763.0</ele><time>2026-04-25T12:26:56.805Z</time></trkpt><trkpt lat="46.0125451" lon="10.7030141"><ele>768.5</ele><time>2026-04-25T12:26:57.83Z</time></trkpt><trkpt lat="46.012437" lon="10.702885"><ele>774.0</ele><time>2026-04-25T12:26:58.813Z</time></trkpt><trkpt lat="46.0123219" lon="10.702771"><ele>777.5</ele><time>2026-04-25T12:26:59.809Z</time></trkpt><trkpt lat="46.0122052" lon="10.7026726"><ele>781.0</ele><time>2026-04-25T12:27:00.82Z</time></trkpt><trkpt lat="46.0120973" lon="10.7025817"><ele>784.5</ele><time>2026-04-25T12:27:01.806Z</time></trkpt><trkpt lat="46.0119868" lon="10.7024969"><ele>788.0</ele><time>2026-04-25T12:27:02.816Z</time></trkpt><trkpt lat="46.0118799" lon="10.702409"><ele>788.0</ele><time>2026-04-25T12:27:03.82Z</time></trkpt><trkpt lat="46.0117689" lon="10.7023184"><ele>788.0</ele><time>2026-04-25T12:27:04.819Z</time></trkpt><trkpt lat="46.0116526" lon="10.70222"><ele>788.0</ele><time>2026-04-25T12:27:05.83Z</time></trkpt><trkpt lat="46.0115392" lon="10.7021178"><ele>788.0</ele><time>2026-04-25T12:27:06.796Z</time></trkpt><trkpt lat="46.01142" lon="10.7020017"><ele>787.25</ele><time>2026-04-25T12:27:07.814Z</time></trkpt><trkpt lat="46.0113041" lon="10.7018824"><ele>786.5</ele><time>2026-04-25T12:27:08.821Z</time></trkpt><trkpt lat="46.0111951" lon="10.7017707"><ele>785.75</ele><time>2026-04-25T12:27:09.829Z</time></trkpt><trkpt lat="46.0110941" lon="10.7016686"><ele>785.0</ele><time>2026-04-25T12:27:10.826Z</time></trkpt><trkpt lat="46.0110012" lon="10.701566"><ele>785.0</ele><time>2026-04-25T12:27:11.823Z</time></trkpt><trkpt lat="46.01091" lon="10.7014661"><ele>785.0</ele><time>2026-04-25T12:27:12.804Z</time></trkpt><trkpt lat="46.01082" lon="10.7013718"><ele>785.0</ele><time>2026-04-25T12:27:13.804Z</time></trkpt><trkpt lat="46.0107349" lon="10.701275"><ele>785.0</ele><time>2026-04-25T12:27:14.802Z</time></trkpt><trkpt lat="46.0106515" lon="10.7011792"><ele>785.0</ele><time>2026-04-25T12:27:15.825Z</time></trkpt><trkpt lat="46.0105703" lon="10.7010818"><ele>785.6</ele><time>2026-04-25T12:27:16.818Z</time></trkpt><trkpt lat="46.0104959" lon="10.7009951"><ele>786.2</ele><time>2026-04-25T12:27:17.803Z</time></trkpt><trkpt lat="46.0104232" lon="10.7009128"><ele>786.8</ele><time>2026-04-25T12:27:18.819Z</time></trkpt><trkpt lat="46.0103555" lon="10.7008318"><ele>787.4</ele><time>2026-04-25T12:27:19.826Z</time></trkpt><trkpt lat="46.0102863" lon="10.7007489"><ele>788.0</ele><time>2026-04-25T12:27:20.828Z</time></trkpt><trkpt lat="46.0102195" lon="10.7006587"><ele>788.0</ele><time>2026-04-25T12:27:21.828Z</time></trkpt><trkpt lat="46.0101525" lon="10.7005583"><ele>788.0</ele><time>2026-04-25T12:27:22.811Z</time></trkpt><trkpt lat="46.0100849" lon="10.7004412"><ele>788.0</ele><time>2026-04-25T12:27:23.817Z</time></trkpt><trkpt lat="46.0100145" lon="10.7003149"><ele>788.0</ele><time>2026-04-25T12:27:24.834Z</time></trkpt><trkpt lat="46.0099419" lon="10.7001888"><ele>788.0</ele><time>2026-04-25T12:27:25.809Z</time></trkpt><trkpt lat="46.0098652" lon="10.7000627"><ele>788.25</ele><time>2026-04-25T12:27:26.807Z</time></trkpt><trkpt lat="46.0097874" lon="10.6999367"><ele>788.5</ele><time>2026-04-25T12:27:27.809Z</time></trkpt><trkpt lat="46.0097047" lon="10.6998165"><ele>788.75</ele><time>2026-04-25T12:27:28.823Z</time></trkpt><trkpt lat="46.0096153" lon="10.6997127"><ele>789.0</ele><time>2026-04-25T12:27:29.837Z</time></trkpt><trkpt lat="46.0095171" lon="10.6996312"><ele>789.0</ele><time>2026-04-25T12:27:30.81Z</time></trkpt><trkpt lat="46.0094094" lon="10.6995597"><ele>789.0</ele><time>2026-04-25T12:27:31.814Z</time></trkpt><trkpt lat="46.0092931" lon="10.6994921"><ele>789.0</ele><time>2026-04-25T12:27:32.843Z</time></trkpt><trkpt lat="46.0091883" lon="10.6994271"><ele>789.0</ele><time>2026-04-25T12:27:33.847Z</time></trkpt><trkpt lat="46.0090972" lon="10.699374"><ele>791.2</ele><time>2026-04-25T12:27:34.817Z</time></trkpt><trkpt lat="46.0090083" lon="10.6993254"><ele>793.4000000000001</ele><time>2026-04-25T12:27:35.847Z</time></trkpt><trkpt lat="46.0089247" lon="10.6992889"><ele>795.6</ele><time>2026-04-25T12:27:36.808Z</time></trkpt><trkpt lat="46.0088322" lon="10.6992574"><ele>797.8</ele><time>2026-04-25T12:27:37.81Z</time></trkpt><trkpt lat="46.0087362" lon="10.6992428"><ele>800.0</ele><time>2026-04-25T12:27:38.841Z</time></trkpt><trkpt lat="46.0086409" lon="10.6992404"><ele>800.0</ele><time>2026-04-25T12:27:39.823Z</time></trkpt><trkpt lat="46.0085447" lon="10.6992513"><ele>800.0</ele><time>2026-04-25T12:27:40.818Z</time></trkpt><trkpt lat="46.0084465" lon="10.6992787"><ele>800.0</ele><time>2026-04-25T12:27:41.813Z</time></trkpt><trkpt lat="46.0083477" lon="10.6993082"><ele>800.0</ele><time>2026-04-25T12:27:42.833Z</time></trkpt><trkpt lat="46.0082575" lon="10.6993372"><ele>800.0</ele><time>2026-04-25T12:27:43.79Z</time></trkpt><trkpt lat="46.0081688" lon="10.6993622"><ele>799.4</ele><time>2026-04-25T12:27:44.815Z</time></trkpt><trkpt lat="46.0080744" lon="10.6993786"><ele>798.8</ele><time>2026-04-25T12:27:45.819Z</time></trkpt><trkpt lat="46.0079758" lon="10.6993798"><ele>798.2</ele><time>2026-04-25T12:27:46.822Z</time></trkpt><trkpt lat="46.0078738" lon="10.6993535"><ele>797.6</ele><time>2026-04-25T12:27:47.845Z</time></trkpt><trkpt lat="46.0077768" lon="10.6993036"><ele>797.0</ele><time>2026-04-25T12:27:48.814Z</time></trkpt><trkpt lat="46.0076707" lon="10.6992526"><ele>797.0</ele><time>2026-04-25T12:27:49.816Z</time></trkpt><trkpt lat="46.0075625" lon="10.6991876"><ele>797.0</ele><time>2026-04-25T12:27:50.824Z</time></trkpt><trkpt lat="46.0074543" lon="10.699124"><ele>797.0</ele><time>2026-04-25T12:27:51.821Z</time></trkpt><trkpt lat="46.0073525" lon="10.699067"><ele>797.0</ele><time>2026-04-25T12:27:52.821Z</time></trkpt><trkpt lat="46.0072531" lon="10.6990094"><ele>795.0</ele><time>2026-04-25T12:27:53.834Z</time></trkpt><trkpt lat="46.0071298" lon="10.6988999"><ele>793.0</ele><time>2026-04-25T12:27:55.16Z</time></trkpt><trkpt lat="46.0070672" lon="10.6988317"><ele>791.0</ele><time>2026-04-25T12:27:55.86Z</time></trkpt><trkpt lat="46.0069812" lon="10.6987246"><ele>789.0</ele><time>2026-04-25T12:27:56.864Z</time></trkpt><trkpt lat="46.0068856" lon="10.698602"><ele>788.25</ele><time>2026-04-25T12:27:57.907Z</time></trkpt><trkpt lat="46.0067916" lon="10.698481"><ele>787.5</ele><time>2026-04-25T12:27:58.891Z</time></trkpt><trkpt lat="46.0066944" lon="10.698355"><ele>786.75</ele><time>2026-04-25T12:27:59.871Z</time></trkpt><trkpt lat="46.0065919" lon="10.6982231"><ele>786.0</ele><time>2026-04-25T12:28:00.862Z</time></trkpt><trkpt lat="46.0064834" lon="10.6980903"><ele>786.0</ele><time>2026-04-25T12:28:01.873Z</time></trkpt><trkpt lat="46.0063782" lon="10.6979636"><ele>786.0</ele><time>2026-04-25T12:28:02.871Z</time></trkpt><trkpt lat="46.0062695" lon="10.6978349"><ele>786.0</ele><time>2026-04-25T12:28:03.893Z</time></trkpt><trkpt lat="46.0061659" lon="10.6977124"><ele>786.0</ele><time>2026-04-25T12:28:04.876Z</time></trkpt><trkpt lat="46.0060584" lon="10.6975863"><ele>785.25</ele><time>2026-04-25T12:28:05.885Z</time></trkpt><trkpt lat="46.0059506" lon="10.6974585"><ele>784.5</ele><time>2026-04-25T12:28:06.88Z</time></trkpt><trkpt lat="46.0058411" lon="10.6973257"><ele>783.75</ele><time>2026-04-25T12:28:07.884Z</time></trkpt><trkpt lat="46.0057371" lon="10.6972017"><ele>783.0</ele><time>2026-04-25T12:28:08.861Z</time></trkpt><trkpt lat="46.0056328" lon="10.6970762"><ele>783.0</ele><time>2026-04-25T12:28:09.88Z</time></trkpt><trkpt lat="46.0055411" lon="10.6969656"><ele>783.0</ele><time>2026-04-25T12:28:10.853Z</time></trkpt><trkpt lat="46.0054495" lon="10.6968578"><ele>783.0</ele><time>2026-04-25T12:28:11.91Z</time></trkpt><trkpt lat="46.0053693" lon="10.6967627"><ele>783.0</ele><time>2026-04-25T12:28:12.889Z</time></trkpt><trkpt lat="46.0052866" lon="10.6966622"><ele>785.0</ele><time>2026-04-25T12:28:13.894Z</time></trkpt><trkpt lat="46.0052024" lon="10.69656"><ele>787.0</ele><time>2026-04-25T12:28:14.891Z</time></trkpt><trkpt lat="46.0051177" lon="10.6964564"><ele>789.0</ele><time>2026-04-25T12:28:15.873Z</time></trkpt><trkpt lat="46.0050262" lon="10.6963473"><ele>791.0</ele><time>2026-04-25T12:28:16.875Z</time></trkpt><trkpt lat="46.0049272" lon="10.6962304"><ele>791.0</ele><time>2026-04-25T12:28:17.898Z</time></trkpt><trkpt lat="46.0048324" lon="10.6961179"><ele>791.0</ele><time>2026-04-25T12:28:18.838Z</time></trkpt><trkpt lat="46.0047245" lon="10.6959899"><ele>791.0</ele><time>2026-04-25T12:28:19.867Z</time></trkpt><trkpt lat="46.0046145" lon="10.6958634"><ele>791.0</ele><time>2026-04-25T12:28:20.872Z</time></trkpt><trkpt lat="46.0044975" lon="10.6957447"><ele>794.0</ele><time>2026-04-25T12:28:21.877Z</time></trkpt><trkpt lat="46.004372" lon="10.6956404"><ele>797.0</ele><time>2026-04-25T12:28:22.861Z</time></trkpt><trkpt lat="46.0042311" lon="10.6955438"><ele>800.0</ele><time>2026-04-25T12:28:23.893Z</time></trkpt><trkpt lat="46.0040918" lon="10.6954595"><ele>800.0</ele><time>2026-04-25T12:28:24.879Z</time></trkpt><trkpt lat="46.0039531" lon="10.6953821"><ele>800.0</ele><time>2026-04-25T12:28:25.865Z</time></trkpt><trkpt lat="46.0038224" lon="10.6953101"><ele>800.0</ele><time>2026-04-25T12:28:26.848Z</time></trkpt><trkpt lat="46.003693" lon="10.6952337"><ele>800.0</ele><time>2026-04-25T12:28:27.876Z</time></trkpt><trkpt lat="46.0035739" lon="10.6951501"><ele>799.75</ele><time>2026-04-25T12:28:28.871Z</time></trkpt><trkpt lat="46.0034588" lon="10.6950525"><ele>799.5</ele><time>2026-04-25T12:28:29.885Z</time></trkpt><trkpt lat="46.0033566" lon="10.6949439"><ele>799.25</ele><time>2026-04-25T12:28:30.852Z</time></trkpt><trkpt lat="46.0032549" lon="10.6948095"><ele>799.0</ele><time>2026-04-25T12:28:31.873Z</time></trkpt><trkpt lat="46.0031585" lon="10.6946667"><ele>799.0</ele><time>2026-04-25T12:28:32.87Z</time></trkpt><trkpt lat="46.0030582" lon="10.6945143"><ele>799.0</ele><time>2026-04-25T12:28:33.881Z</time></trkpt><trkpt lat="46.0029568" lon="10.6943599"><ele>799.0</ele><time>2026-04-25T12:28:34.871Z</time></trkpt><trkpt lat="46.0028539" lon="10.6942016"><ele>799.0</ele><time>2026-04-25T12:28:35.848Z</time></trkpt><trkpt lat="46.002748" lon="10.694039"><ele>800.0</ele><time>2026-04-25T12:28:36.87Z</time></trkpt><trkpt lat="46.0026478" lon="10.6938851"><ele>801.0</ele><time>2026-04-25T12:28:37.89Z</time></trkpt><trkpt lat="46.0025515" lon="10.6937561"><ele>802.0</ele><time>2026-04-25T12:28:38.859Z</time></trkpt><trkpt lat="46.0024447" lon="10.6936476"><ele>803.0</ele><time>2026-04-25T12:28:39.865Z</time></trkpt><trkpt lat="46.0023307" lon="10.693571"><ele>803.75</ele><time>2026-04-25T12:28:40.882Z</time></trkpt><trkpt lat="46.0022118" lon="10.6935247"><ele>804.5</ele><time>2026-04-25T12:28:41.881Z</time></trkpt><trkpt lat="46.0020838" lon="10.6934921"><ele>805.25</ele><time>2026-04-25T12:28:42.886Z</time></trkpt><trkpt lat="46.0019497" lon="10.693464"><ele>806.0</ele><time>2026-04-25T12:28:43.883Z</time></trkpt><trkpt lat="46.0018135" lon="10.6934374"><ele>806.0</ele><time>2026-04-25T12:28:44.884Z</time></trkpt><trkpt lat="46.0016843" lon="10.6934184"><ele>806.0</ele><time>2026-04-25T12:28:45.887Z</time></trkpt><trkpt lat="46.0015668" lon="10.6934125"><ele>806.0</ele><time>2026-04-25T12:28:46.865Z</time></trkpt><trkpt lat="46.0014528" lon="10.6934141"><ele>806.0</ele><time>2026-04-25T12:28:47.873Z</time></trkpt><trkpt lat="46.0013408" lon="10.6934146"><ele>808.0</ele><time>2026-04-25T12:28:48.883Z</time></trkpt><trkpt lat="46.0012301" lon="10.693405"><ele>810.0</ele><time>2026-04-25T12:28:49.869Z</time></trkpt><trkpt lat="46.0011156" lon="10.6933833"><ele>812.0</ele><time>2026-04-25T12:28:50.887Z</time></trkpt><trkpt lat="46.0010012" lon="10.6933505"><ele>814.0</ele><time>2026-04-25T12:28:51.877Z</time></trkpt><trkpt lat="46.0008834" lon="10.6933109"><ele>814.0</ele><time>2026-04-25T12:28:52.88Z</time></trkpt><trkpt lat="46.0007658" lon="10.6932671"><ele>814.0</ele><time>2026-04-25T12:28:53.866Z</time></trkpt><trkpt lat="46.000643" lon="10.6932166"><ele>814.0</ele><time>2026-04-25T12:28:54.885Z</time></trkpt><trkpt lat="46.0005236" lon="10.6931674"><ele>814.0</ele><time>2026-04-25T12:28:55.885Z</time></trkpt><trkpt lat="46.0004056" lon="10.6931206"><ele>814.0</ele><time>2026-04-25T12:28:56.869Z</time></trkpt><trkpt lat="46.000281" lon="10.6930729"><ele>814.0</ele><time>2026-04-25T12:28:57.886Z</time></trkpt><trkpt lat="46.000161" lon="10.6930261"><ele>814.0</ele><time>2026-04-25T12:28:58.876Z</time></trkpt><trkpt lat="46.0000462" lon="10.6929793"><ele>814.0</ele><time>2026-04-25T12:28:59.886Z</time></trkpt><trkpt lat="45.9999423" lon="10.6929322"><ele>814.0</ele><time>2026-04-25T12:29:00.867Z</time></trkpt><trkpt lat="45.9998378" lon="10.6928801"><ele>814.0</ele><time>2026-04-25T12:29:01.884Z</time></trkpt><trkpt lat="45.9997337" lon="10.6928223"><ele>814.0</ele><time>2026-04-25T12:29:02.883Z</time></trkpt><trkpt lat="45.9996236" lon="10.6927571"><ele>814.0</ele><time>2026-04-25T12:29:03.903Z</time></trkpt><trkpt lat="45.9995162" lon="10.6926914"><ele>814.5</ele><time>2026-04-25T12:29:04.858Z</time></trkpt><trkpt lat="45.999399" lon="10.6926172"><ele>815.0</ele><time>2026-04-25T12:29:05.869Z</time></trkpt><trkpt lat="45.9992778" lon="10.6925372"><ele>815.5</ele><time>2026-04-25T12:29:06.887Z</time></trkpt><trkpt lat="45.9991563" lon="10.6924518"><ele>816.0</ele><time>2026-04-25T12:29:07.891Z</time></trkpt><trkpt lat="45.9990339" lon="10.6923611"><ele>816.0</ele><time>2026-04-25T12:29:08.894Z</time></trkpt><trkpt lat="45.9989103" lon="10.6922645"><ele>816.0</ele><time>2026-04-25T12:29:09.894Z</time></trkpt><trkpt lat="45.9987861" lon="10.6921644"><ele>816.0</ele><time>2026-04-25T12:29:10.891Z</time></trkpt><trkpt lat="45.9986614" lon="10.6920672"><ele>816.0</ele><time>2026-04-25T12:29:11.868Z</time></trkpt><trkpt lat="45.998528" lon="10.6919758"><ele>816.0</ele><time>2026-04-25T12:29:12.879Z</time></trkpt><trkpt lat="45.99839" lon="10.6918937"><ele>816.0</ele><time>2026-04-25T12:29:13.888Z</time></trkpt><trkpt lat="45.998257" lon="10.691823"><ele>816.0</ele><time>2026-04-25T12:29:14.846Z</time></trkpt><trkpt lat="45.9981187" lon="10.691757"><ele>816.0</ele><time>2026-04-25T12:29:15.854Z</time></trkpt><trkpt lat="45.9979838" lon="10.6916967"><ele>816.25</ele><time>2026-04-25T12:29:16.867Z</time></trkpt><trkpt lat="45.9978521" lon="10.6916362"><ele>816.5</ele><time>2026-04-25T12:29:17.896Z</time></trkpt><trkpt lat="45.9977305" lon="10.691577"><ele>816.75</ele><time>2026-04-25T12:29:18.891Z</time></trkpt><trkpt lat="45.9976116" lon="10.6915188"><ele>817.0</ele><time>2026-04-25T12:29:19.871Z</time></trkpt><trkpt lat="45.9974883" lon="10.6914637"><ele>817.25</ele><time>2026-04-25T12:29:20.88Z</time></trkpt><trkpt lat="45.9973617" lon="10.6914093"><ele>817.5</ele><time>2026-04-25T12:29:21.879Z</time></trkpt><trkpt lat="45.9972332" lon="10.6913522"><ele>817.75</ele><time>2026-04-25T12:29:22.889Z</time></trkpt><trkpt lat="45.9971014" lon="10.6912921"><ele>818.0</ele><time>2026-04-25T12:29:23.903Z</time></trkpt><trkpt lat="45.9969696" lon="10.6912294"><ele>818.0</ele><time>2026-04-25T12:29:24.886Z</time></trkpt><trkpt lat="45.9968334" lon="10.6911629"><ele>818.0</ele><time>2026-04-25T12:29:25.881Z</time></trkpt><trkpt lat="45.9966952" lon="10.6910936"><ele>818.0</ele><time>2026-04-25T12:29:26.873Z</time></trkpt><trkpt lat="45.9965532" lon="10.6910197"><ele>818.0</ele><time>2026-04-25T12:29:27.887Z</time></trkpt><trkpt lat="45.9964091" lon="10.6909432"><ele>819.25</ele><time>2026-04-25T12:29:28.915Z</time></trkpt><trkpt lat="45.9962784" lon="10.6908716"><ele>820.5</ele><time>2026-04-25T12:29:29.875Z</time></trkpt><trkpt lat="45.9961457" lon="10.6907947"><ele>821.75</ele><time>2026-04-25T12:29:30.879Z</time></trkpt><trkpt lat="45.9960167" lon="10.690719"><ele>823.0</ele><time>2026-04-25T12:29:31.87Z</time></trkpt><trkpt lat="45.9958866" lon="10.6906434"><ele>822.25</ele><time>2026-04-25T12:29:32.866Z</time></trkpt><trkpt lat="45.9957537" lon="10.6905653"><ele>821.5</ele><time>2026-04-25T12:29:33.886Z</time></trkpt><trkpt lat="45.9956222" lon="10.6904916"><ele>820.75</ele><time>2026-04-25T12:29:34.877Z</time></trkpt><trkpt lat="45.9954876" lon="10.6904183"><ele>820.0</ele><time>2026-04-25T12:29:35.881Z</time></trkpt><trkpt lat="45.9953528" lon="10.6903419"><ele>819.0</ele><time>2026-04-25T12:29:36.883Z</time></trkpt><trkpt lat="45.9952217" lon="10.6902578"><ele>818.0</ele><time>2026-04-25T12:29:37.872Z</time></trkpt><trkpt lat="45.9950894" lon="10.6901512"><ele>817.0</ele><time>2026-04-25T12:29:38.905Z</time></trkpt><trkpt lat="45.9949735" lon="10.6900336"><ele>816.0</ele><time>2026-04-25T12:29:39.867Z</time></trkpt><trkpt lat="45.9948586" lon="10.6898894"><ele>816.0</ele><time>2026-04-25T12:29:40.895Z</time></trkpt><trkpt lat="45.994763" lon="10.6897436"><ele>816.0</ele><time>2026-04-25T12:29:41.852Z</time></trkpt><trkpt lat="45.9946697" lon="10.689583"><ele>816.0</ele><time>2026-04-25T12:29:42.883Z</time></trkpt><trkpt lat="45.994582" lon="10.6894341"><ele>816.0</ele><time>2026-04-25T12:29:43.868Z</time></trkpt><trkpt lat="45.9944886" lon="10.6892858"><ele>817.75</ele><time>2026-04-25T12:29:44.88Z</time></trkpt><trkpt lat="45.9943888" lon="10.6891436"><ele>819.5</ele><time>2026-04-25T12:29:45.882Z</time></trkpt><trkpt lat="45.9942803" lon="10.6890098"><ele>821.25</ele><time>2026-04-25T12:29:46.873Z</time></trkpt><trkpt lat="45.9941575" lon="10.6888876"><ele>823.0</ele><time>2026-04-25T12:29:47.879Z</time></trkpt><trkpt lat="45.9940251" lon="10.688787"><ele>823.0</ele><time>2026-04-25T12:29:48.857Z</time></trkpt><trkpt lat="45.9938785" lon="10.6887048"><ele>823.0</ele><time>2026-04-25T12:29:49.864Z</time></trkpt><trkpt lat="45.9937242" lon="10.6886353"><ele>823.0</ele><time>2026-04-25T12:29:50.883Z</time></trkpt><trkpt lat="45.993569" lon="10.6885751"><ele>823.0</ele><time>2026-04-25T12:29:51.892Z</time></trkpt><trkpt lat="45.9934155" lon="10.688521"><ele>823.0</ele><time>2026-04-25T12:29:52.896Z</time></trkpt><trkpt lat="45.9932683" lon="10.6884619"><ele>823.0</ele><time>2026-04-25T12:29:53.886Z</time></trkpt><trkpt lat="45.9931254" lon="10.6883904"><ele>819.0</ele><time>2026-04-25T12:29:54.891Z</time></trkpt><trkpt lat="45.9929872" lon="10.6883125"><ele>815.0</ele><time>2026-04-25T12:29:55.89Z</time></trkpt><trkpt lat="45.992854" lon="10.6882309"><ele>811.0</ele><time>2026-04-25T12:29:56.871Z</time></trkpt><trkpt lat="45.9927198" lon="10.6881431"><ele>807.0</ele><time>2026-04-25T12:29:57.863Z</time></trkpt><trkpt lat="45.9925835" lon="10.6880539"><ele>805.6666666666667</ele><time>2026-04-25T12:29:58.859Z</time></trkpt><trkpt lat="45.9924403" lon="10.6879617"><ele>804.3333333333334</ele><time>2026-04-25T12:29:59.883Z</time></trkpt><trkpt lat="45.9922989" lon="10.6878743"><ele>803.0</ele><time>2026-04-25T12:30:00.872Z</time></trkpt><trkpt lat="45.9921558" lon="10.6877872"><ele>803.25</ele><time>2026-04-25T12:30:01.865Z</time></trkpt><trkpt lat="45.9920133" lon="10.6876999"><ele>803.5</ele><time>2026-04-25T12:30:02.885Z</time></trkpt><trkpt lat="45.9918814" lon="10.6876169"><ele>803.75</ele><time>2026-04-25T12:30:03.881Z</time></trkpt><trkpt lat="45.9917549" lon="10.6875319"><ele>804.0</ele><time>2026-04-25T12:30:04.865Z</time></trkpt><trkpt lat="45.9916243" lon="10.6874219"><ele>804.0</ele><time>2026-04-25T12:30:05.916Z</time></trkpt><trkpt lat="45.9915112" lon="10.687296"><ele>804.0</ele><time>2026-04-25T12:30:06.879Z</time></trkpt><trkpt lat="45.9914048" lon="10.6871394"><ele>804.0</ele><time>2026-04-25T12:30:07.867Z</time></trkpt><trkpt lat="45.9913148" lon="10.6869576"><ele>802.3333333333333</ele><time>2026-04-25T12:30:08.849Z</time></trkpt><trkpt lat="45.9912352" lon="10.6867468"><ele>800.6666666666666</ele><time>2026-04-25T12:30:09.86Z</time></trkpt><trkpt lat="45.9911615" lon="10.6865246"><ele>799.0</ele><time>2026-04-25T12:30:10.872Z</time></trkpt><trkpt lat="45.9910835" lon="10.686294"><ele>797.6666666666666</ele><time>2026-04-25T12:30:11.895Z</time></trkpt><trkpt lat="45.9910089" lon="10.6860703"><ele>796.3333333333333</ele><time>2026-04-25T12:30:12.866Z</time></trkpt><trkpt lat="45.9909339" lon="10.6858316"><ele>795.0</ele><time>2026-04-25T12:30:13.882Z</time></trkpt><trkpt lat="45.990868" lon="10.6856025"><ele>794.3333333333333</ele><time>2026-04-25T12:30:14.868Z</time></trkpt><trkpt lat="45.9908069" lon="10.6853719"><ele>793.6666666666666</ele><time>2026-04-25T12:30:15.874Z</time></trkpt><trkpt lat="45.9907502" lon="10.6851431"><ele>793.0</ele><time>2026-04-25T12:30:16.881Z</time></trkpt><trkpt lat="45.9906954" lon="10.6849141"><ele>792.3333333333333</ele><time>2026-04-25T12:30:17.897Z</time></trkpt><trkpt lat="45.9906442" lon="10.6846912"><ele>791.6666666666667</ele><time>2026-04-25T12:30:18.894Z</time></trkpt><trkpt lat="45.9905929" lon="10.6844698"><ele>791.0</ele><time>2026-04-25T12:30:19.894Z</time></trkpt><trkpt lat="45.9905397" lon="10.6842504"><ele>791.0</ele><time>2026-04-25T12:30:20.892Z</time></trkpt><trkpt lat="45.9904865" lon="10.6840311"><ele>791.0</ele><time>2026-04-25T12:30:21.896Z</time></trkpt><trkpt lat="45.9904346" lon="10.6838162"><ele>791.0</ele><time>2026-04-25T12:30:22.879Z</time></trkpt><trkpt lat="45.9903871" lon="10.6836081"><ele>793.3333333333334</ele><time>2026-04-25T12:30:23.825Z</time></trkpt><trkpt lat="45.9903401" lon="10.6833979"><ele>795.6666666666667</ele><time>2026-04-25T12:30:24.84Z</time></trkpt><trkpt lat="45.990292" lon="10.6831899"><ele>798.0</ele><time>2026-04-25T12:30:25.839Z</time></trkpt><trkpt lat="45.9902428" lon="10.682981"><ele>804.0</ele><time>2026-04-25T12:30:26.824Z</time></trkpt><trkpt lat="45.9901883" lon="10.6827618"><ele>810.0</ele><time>2026-04-25T12:30:27.836Z</time></trkpt><trkpt lat="45.9901361" lon="10.6825372"><ele>816.0</ele><time>2026-04-25T12:30:28.816Z</time></trkpt><trkpt lat="45.9900848" lon="10.6823042"><ele>816.0</ele><time>2026-04-25T12:30:29.825Z</time></trkpt><trkpt lat="45.9900326" lon="10.682058"><ele>816.0</ele><time>2026-04-25T12:30:30.853Z</time></trkpt><trkpt lat="45.9899709" lon="10.6818243"><ele>816.0</ele><time>2026-04-25T12:30:31.838Z</time></trkpt><trkpt lat="45.9899014" lon="10.6816"><ele>821.0</ele><time>2026-04-25T12:30:32.819Z</time></trkpt><trkpt lat="45.9898147" lon="10.6813808"><ele>826.0</ele><time>2026-04-25T12:30:33.817Z</time></trkpt><trkpt lat="45.9897133" lon="10.681177"><ele>831.0</ele><time>2026-04-25T12:30:34.825Z</time></trkpt><trkpt lat="45.9895992" lon="10.6809936"><ele>831.0</ele><time>2026-04-25T12:30:35.816Z</time></trkpt><trkpt lat="45.9894739" lon="10.6808246"><ele>831.0</ele><time>2026-04-25T12:30:36.811Z</time></trkpt><trkpt lat="45.989341" lon="10.6806636"><ele>831.0</ele><time>2026-04-25T12:30:37.826Z</time></trkpt><trkpt lat="45.9892191" lon="10.6805183"><ele>826.6666666666667</ele><time>2026-04-25T12:30:38.771Z</time></trkpt><trkpt lat="45.9890852" lon="10.6803678"><ele>822.3333333333334</ele><time>2026-04-25T12:30:39.819Z</time></trkpt><trkpt lat="45.988961" lon="10.680242"><ele>818.0</ele><time>2026-04-25T12:30:40.806Z</time></trkpt><trkpt lat="45.9888367" lon="10.6801293"><ele>818.0</ele><time>2026-04-25T12:30:41.823Z</time></trkpt><trkpt lat="45.9887167" lon="10.6800275"><ele>818.0</ele><time>2026-04-25T12:30:42.831Z</time></trkpt><trkpt lat="45.9885967" lon="10.6799371"><ele>818.0</ele><time>2026-04-25T12:30:43.806Z</time></trkpt><trkpt lat="45.9884742" lon="10.6798395"><ele>818.0</ele><time>2026-04-25T12:30:44.821Z</time></trkpt><trkpt lat="45.9883566" lon="10.6797457"><ele>818.0</ele><time>2026-04-25T12:30:45.815Z</time></trkpt><trkpt lat="45.9882368" lon="10.6796571"><ele>818.0</ele><time>2026-04-25T12:30:46.821Z</time></trkpt><trkpt lat="45.9881116" lon="10.6795648"><ele>818.0</ele><time>2026-04-25T12:30:47.814Z</time></trkpt><trkpt lat="45.9879872" lon="10.6794748"><ele>818.0</ele><time>2026-04-25T12:30:48.811Z</time></trkpt><trkpt lat="45.9878588" lon="10.6793843"><ele>818.0</ele><time>2026-04-25T12:30:49.827Z</time></trkpt><trkpt lat="45.9877347" lon="10.6792902"><ele>818.0</ele><time>2026-04-25T12:30:50.83Z</time></trkpt><trkpt lat="45.9876212" lon="10.6792057"><ele>818.0</ele><time>2026-04-25T12:30:51.82Z</time></trkpt><trkpt lat="45.9875168" lon="10.6791223"><ele>818.0</ele><time>2026-04-25T12:30:52.832Z</time></trkpt><trkpt lat="45.987421" lon="10.6790419"><ele>818.0</ele><time>2026-04-25T12:30:53.802Z</time></trkpt><trkpt lat="45.9873366" lon="10.6789383"><ele>818.0</ele><time>2026-04-25T12:30:54.825Z</time></trkpt><trkpt lat="45.9872608" lon="10.6788124"><ele>818.0</ele><time>2026-04-25T12:30:55.852Z</time></trkpt><trkpt lat="45.9871972" lon="10.6786659"><ele>818.0</ele><time>2026-04-25T12:30:56.821Z</time></trkpt><trkpt lat="45.9871359" lon="10.6784892"><ele>818.0</ele><time>2026-04-25T12:30:57.838Z</time></trkpt><trkpt lat="45.9870663" lon="10.6783163"><ele>818.0</ele><time>2026-04-25T12:30:58.823Z</time></trkpt><trkpt lat="45.9869894" lon="10.6781354"><ele>818.0</ele><time>2026-04-25T12:30:59.828Z</time></trkpt><trkpt lat="45.9869119" lon="10.6779482"><ele>818.0</ele><time>2026-04-25T12:31:00.816Z</time></trkpt><trkpt lat="45.9868287" lon="10.6777522"><ele>815.3333333333334</ele><time>2026-04-25T12:31:01.83Z</time></trkpt><trkpt lat="45.9867459" lon="10.6775529"><ele>812.6666666666667</ele><time>2026-04-25T12:31:02.84Z</time></trkpt><trkpt lat="45.9866627" lon="10.6773513"><ele>810.0</ele><time>2026-04-25T12:31:03.853Z</time></trkpt><trkpt lat="45.9865724" lon="10.6771685"><ele>807.6666666666667</ele><time>2026-04-25T12:31:04.831Z</time></trkpt><trkpt lat="45.9864639" lon="10.6770081"><ele>805.3333333333334</ele><time>2026-04-25T12:31:05.834Z</time></trkpt><trkpt lat="45.9863535" lon="10.6768638"><ele>803.0</ele><time>2026-04-25T12:31:06.831Z</time></trkpt><trkpt lat="45.9862475" lon="10.6767201"><ele>803.0</ele><time>2026-04-25T12:31:07.853Z</time></trkpt><trkpt lat="45.9861572" lon="10.6765911"><ele>803.0</ele><time>2026-04-25T12:31:08.797Z</time></trkpt><trkpt lat="45.9860688" lon="10.6764572"><ele>803.0</ele><time>2026-04-25T12:31:09.826Z</time></trkpt><trkpt lat="45.9859971" lon="10.6763267"><ele>803.0</ele><time>2026-04-25T12:31:10.822Z</time></trkpt><trkpt lat="45.9859531" lon="10.6761732"><ele>803.5</ele><time>2026-04-25T12:31:11.834Z</time></trkpt><trkpt lat="45.9859403" lon="10.676019"><ele>804.0</ele><time>2026-04-25T12:31:12.821Z</time></trkpt><trkpt lat="45.9859568" lon="10.6758467"><ele>804.5</ele><time>2026-04-25T12:31:13.848Z</time></trkpt><trkpt lat="45.9859991" lon="10.6756707"><ele>805.0</ele><time>2026-04-25T12:31:14.84Z</time></trkpt><trkpt lat="45.986049" lon="10.6754917"><ele>805.0</ele><time>2026-04-25T12:31:15.83Z</time></trkpt><trkpt lat="45.9861007" lon="10.6753113"><ele>805.0</ele><time>2026-04-25T12:31:16.806Z</time></trkpt><trkpt lat="45.9861443" lon="10.6751327"><ele>805.0</ele><time>2026-04-25T12:31:17.816Z</time></trkpt><trkpt lat="45.9861655" lon="10.6749489"><ele>805.0</ele><time>2026-04-25T12:31:18.83Z</time></trkpt><trkpt lat="45.9861672" lon="10.6747739"><ele>807.0</ele><time>2026-04-25T12:31:19.813Z</time></trkpt><trkpt lat="45.9861298" lon="10.6745906"><ele>809.0</ele><time>2026-04-25T12:31:20.826Z</time></trkpt><trkpt lat="45.986074" lon="10.6744146"><ele>811.0</ele><time>2026-04-25T12:31:21.814Z</time></trkpt><trkpt lat="45.9860101" lon="10.6742329"><ele>813.0</ele><time>2026-04-25T12:31:22.823Z</time></trkpt><trkpt lat="45.98594" lon="10.6740442"><ele>812.6666666666667</ele><time>2026-04-25T12:31:23.806Z</time></trkpt><trkpt lat="45.9858727" lon="10.6738492"><ele>812.3333333333334</ele><time>2026-04-25T12:31:24.806Z</time></trkpt><trkpt lat="45.9857912" lon="10.6736511"><ele>812.0</ele><time>2026-04-25T12:31:25.822Z</time></trkpt><trkpt lat="45.9856928" lon="10.6734693"><ele>812.0</ele><time>2026-04-25T12:31:26.841Z</time></trkpt><trkpt lat="45.9855909" lon="10.6733243"><ele>812.0</ele><time>2026-04-25T12:31:27.826Z</time></trkpt><trkpt lat="45.9854929" lon="10.6731844"><ele>812.0</ele><time>2026-04-25T12:31:28.838Z</time></trkpt><trkpt lat="45.9853977" lon="10.6730588"><ele>812.0</ele><time>2026-04-25T12:31:29.83Z</time></trkpt><trkpt lat="45.9853041" lon="10.672927"><ele>812.0</ele><time>2026-04-25T12:31:30.812Z</time></trkpt><trkpt lat="45.9852055" lon="10.6727853"><ele>812.0</ele><time>2026-04-25T12:31:31.826Z</time></trkpt><trkpt lat="45.9851026" lon="10.6726456"><ele>812.0</ele><time>2026-04-25T12:31:32.821Z</time></trkpt><trkpt lat="45.9849943" lon="10.6725236"><ele>812.0</ele><time>2026-04-25T12:31:33.83Z</time></trkpt><trkpt lat="45.9848846" lon="10.6724213"><ele>810.0</ele><time>2026-04-25T12:31:34.829Z</time></trkpt><trkpt lat="45.9847856" lon="10.6723369"><ele>808.0</ele><time>2026-04-25T12:31:35.814Z</time></trkpt><trkpt lat="45.9846848" lon="10.672253"><ele>806.0</ele><time>2026-04-25T12:31:36.846Z</time></trkpt><trkpt lat="45.9845801" lon="10.6721671"><ele>804.0</ele><time>2026-04-25T12:31:37.838Z</time></trkpt><trkpt lat="45.9844749" lon="10.6720795"><ele>804.0</ele><time>2026-04-25T12:31:38.83Z</time></trkpt><trkpt lat="45.9843665" lon="10.6719939"><ele>804.0</ele><time>2026-04-25T12:31:39.822Z</time></trkpt><trkpt lat="45.9842699" lon="10.6719123"><ele>804.0</ele><time>2026-04-25T12:31:40.814Z</time></trkpt><trkpt lat="45.9841807" lon="10.6718399"><ele>804.0</ele><time>2026-04-25T12:31:41.826Z</time></trkpt><trkpt lat="45.9840959" lon="10.671759"><ele>804.0</ele><time>2026-04-25T12:31:42.858Z</time></trkpt><trkpt lat="45.9840149" lon="10.6716866"><ele>804.4000000000001</ele><time>2026-04-25T12:31:43.836Z</time></trkpt><trkpt lat="45.9839384" lon="10.671607"><ele>804.8</ele><time>2026-04-25T12:31:44.828Z</time></trkpt><trkpt lat="45.9838612" lon="10.6715102"><ele>805.2</ele><time>2026-04-25T12:31:45.83Z</time></trkpt><trkpt lat="45.9837977" lon="10.6713777"><ele>805.5999999999999</ele><time>2026-04-25T12:31:46.838Z</time></trkpt><trkpt lat="45.9837416" lon="10.6712179"><ele>806.0</ele><time>2026-04-25T12:31:47.82Z</time></trkpt><trkpt lat="45.9836799" lon="10.6710407"><ele>804.5</ele><time>2026-04-25T12:31:48.829Z</time></trkpt><trkpt lat="45.9836134" lon="10.6708772"><ele>803.0</ele><time>2026-04-25T12:31:49.793Z</time></trkpt><trkpt lat="45.9835211" lon="10.6707203"><ele>801.5</ele><time>2026-04-25T12:31:50.819Z</time></trkpt><trkpt lat="45.9834041" lon="10.670587"><ele>800.0</ele><time>2026-04-25T12:31:51.838Z</time></trkpt><trkpt lat="45.9832663" lon="10.6704755"><ele>800.0</ele><time>2026-04-25T12:31:52.836Z</time></trkpt><trkpt lat="45.9831113" lon="10.670363"><ele>800.0</ele><time>2026-04-25T12:31:53.851Z</time></trkpt><trkpt lat="45.9829581" lon="10.670251"><ele>800.0</ele><time>2026-04-25T12:31:54.832Z</time></trkpt><trkpt lat="45.9827878" lon="10.6701291"><ele>799.0</ele><time>2026-04-25T12:31:55.852Z</time></trkpt><trkpt lat="45.9826155" lon="10.6699992"><ele>798.0</ele><time>2026-04-25T12:31:56.838Z</time></trkpt><trkpt lat="45.9824337" lon="10.669866"><ele>797.0</ele><time>2026-04-25T12:31:57.836Z</time></trkpt><trkpt lat="45.9822473" lon="10.6697299"><ele>797.0</ele><time>2026-04-25T12:31:58.853Z</time></trkpt><trkpt lat="45.9820646" lon="10.6696026"><ele>797.0</ele><time>2026-04-25T12:31:59.823Z</time></trkpt><trkpt lat="45.9818696" lon="10.6694738"><ele>797.0</ele><time>2026-04-25T12:32:00.814Z</time></trkpt><trkpt lat="45.9816534" lon="10.6693405"><ele>799.0</ele><time>2026-04-25T12:32:01.858Z</time></trkpt><trkpt lat="45.9814486" lon="10.6692149"><ele>801.0</ele><time>2026-04-25T12:32:02.79Z</time></trkpt><trkpt lat="45.9812218" lon="10.6690664"><ele>801.0</ele><time>2026-04-25T12:32:03.829Z</time></trkpt><trkpt lat="45.9810138" lon="10.6689168"><ele>801.0</ele><time>2026-04-25T12:32:04.831Z</time></trkpt><trkpt lat="45.9808241" lon="10.6687699"><ele>801.0</ele><time>2026-04-25T12:32:05.817Z</time></trkpt><trkpt lat="45.9806462" lon="10.6686374"><ele>800.3333333333333</ele><time>2026-04-25T12:32:06.839Z</time></trkpt><trkpt lat="45.980481" lon="10.6685183"><ele>799.6666666666666</ele><time>2026-04-25T12:32:07.834Z</time></trkpt><trkpt lat="45.9803337" lon="10.6683897"><ele>799.0</ele><time>2026-04-25T12:32:08.832Z</time></trkpt><trkpt lat="45.9801998" lon="10.6682473"><ele>799.0</ele><time>2026-04-25T12:32:09.828Z</time></trkpt><trkpt lat="45.980072" lon="10.6680791"><ele>799.0</ele><time>2026-04-25T12:32:10.839Z</time></trkpt><trkpt lat="45.9799637" lon="10.6679052"><ele>799.0</ele><time>2026-04-25T12:32:11.806Z</time></trkpt><trkpt lat="45.9798543" lon="10.6677367"><ele>795.0</ele><time>2026-04-25T12:32:12.823Z</time></trkpt><trkpt lat="45.9797507" lon="10.6675914"><ele>791.0</ele><time>2026-04-25T12:32:13.818Z</time></trkpt><trkpt lat="45.9796478" lon="10.6674662"><ele>787.0</ele><time>2026-04-25T12:32:14.835Z</time></trkpt><trkpt lat="45.9795482" lon="10.6673567"><ele>783.0</ele><time>2026-04-25T12:32:15.832Z</time></trkpt><trkpt lat="45.9794506" lon="10.6672484"><ele>783.0</ele><time>2026-04-25T12:32:16.836Z</time></trkpt><trkpt lat="45.9793548" lon="10.6671499"><ele>783.0</ele><time>2026-04-25T12:32:17.82Z</time></trkpt><trkpt lat="45.9792537" lon="10.6670459"><ele>783.0</ele><time>2026-04-25T12:32:18.833Z</time></trkpt><trkpt lat="45.9791524" lon="10.6669458"><ele>783.0</ele><time>2026-04-25T12:32:19.816Z</time></trkpt><trkpt lat="45.9790472" lon="10.6668361"><ele>780.25</ele><time>2026-04-25T12:32:20.811Z</time></trkpt><trkpt lat="45.978942" lon="10.6667246"><ele>777.5</ele><time>2026-04-25T12:32:21.831Z</time></trkpt><trkpt lat="45.9788404" lon="10.6666193"><ele>774.75</ele><time>2026-04-25T12:32:22.822Z</time></trkpt><trkpt lat="45.9787372" lon="10.6665103"><ele>772.0</ele><time>2026-04-25T12:32:23.829Z</time></trkpt><trkpt lat="45.9786332" lon="10.6664036"><ele>772.0</ele><time>2026-04-25T12:32:24.815Z</time></trkpt><trkpt lat="45.9785262" lon="10.6662974"><ele>772.0</ele><time>2026-04-25T12:32:25.825Z</time></trkpt><trkpt lat="45.9784145" lon="10.6661797"><ele>772.0</ele><time>2026-04-25T12:32:26.843Z</time></trkpt><trkpt lat="45.9783002" lon="10.6660597"><ele>772.0</ele><time>2026-04-25T12:32:27.831Z</time></trkpt><trkpt lat="45.9781778" lon="10.6659306"><ele>771.3333333333333</ele><time>2026-04-25T12:32:28.833Z</time></trkpt><trkpt lat="45.9780471" lon="10.6657971"><ele>770.6666666666667</ele><time>2026-04-25T12:32:29.823Z</time></trkpt><trkpt lat="45.9779072" lon="10.665664"><ele>770.0</ele><time>2026-04-25T12:32:30.817Z</time></trkpt><trkpt lat="45.977757" lon="10.665538"><ele>770.0</ele><time>2026-04-25T12:32:31.827Z</time></trkpt><trkpt lat="45.9776029" lon="10.6654286"><ele>770.0</ele><time>2026-04-25T12:32:32.829Z</time></trkpt><trkpt lat="45.9774494" lon="10.6653347"><ele>770.0</ele><time>2026-04-25T12:32:33.811Z</time></trkpt><trkpt lat="45.977291" lon="10.6652445"><ele>767.6666666666667</ele><time>2026-04-25T12:32:34.832Z</time></trkpt><trkpt lat="45.9771347" lon="10.6651606"><ele>765.3333333333334</ele><time>2026-04-25T12:32:35.827Z</time></trkpt><trkpt lat="45.9769708" lon="10.6650706"><ele>763.0</ele><time>2026-04-25T12:32:36.857Z</time></trkpt><trkpt lat="45.9768067" lon="10.6649761"><ele>761.6666666666667</ele><time>2026-04-25T12:32:37.85Z</time></trkpt><trkpt lat="45.9766364" lon="10.6648869"><ele>760.3333333333334</ele><time>2026-04-25T12:32:38.829Z</time></trkpt><trkpt lat="45.9764517" lon="10.6647932"><ele>759.0</ele><time>2026-04-25T12:32:39.841Z</time></trkpt><trkpt lat="45.9762734" lon="10.6646928"><ele>759.0</ele><time>2026-04-25T12:32:40.82Z</time></trkpt><trkpt lat="45.9760803" lon="10.6645912"><ele>759.0</ele><time>2026-04-25T12:32:41.845Z</time></trkpt><trkpt lat="45.9758903" lon="10.664487"><ele>759.0</ele><time>2026-04-25T12:32:42.845Z</time></trkpt><trkpt lat="45.9757027" lon="10.6643862"><ele>758.3333333333334</ele><time>2026-04-25T12:32:43.819Z</time></trkpt><trkpt lat="45.975519" lon="10.664287"><ele>757.6666666666667</ele><time>2026-04-25T12:32:44.802Z</time></trkpt><trkpt lat="45.9753336" lon="10.6641874"><ele>757.0</ele><time>2026-04-25T12:32:45.833Z</time></trkpt><trkpt lat="45.9751667" lon="10.6640966"><ele>758.6666666666667</ele><time>2026-04-25T12:32:46.807Z</time></trkpt><trkpt lat="45.9749974" lon="10.6640051"><ele>760.3333333333334</ele><time>2026-04-25T12:32:47.821Z</time></trkpt><trkpt lat="45.9748386" lon="10.6639185"><ele>762.0</ele><time>2026-04-25T12:32:48.827Z</time></trkpt><trkpt lat="45.9746894" lon="10.6638402"><ele>762.0</ele><time>2026-04-25T12:32:49.818Z</time></trkpt><trkpt lat="45.9745424" lon="10.6637575"><ele>762.0</ele><time>2026-04-25T12:32:50.837Z</time></trkpt><trkpt lat="45.9744065" lon="10.6636791"><ele>762.0</ele><time>2026-04-25T12:32:51.843Z</time></trkpt><trkpt lat="45.9742792" lon="10.6635998"><ele>762.0</ele><time>2026-04-25T12:32:52.826Z</time></trkpt><trkpt lat="45.9741478" lon="10.6635088"><ele>759.3333333333334</ele><time>2026-04-25T12:32:53.826Z</time></trkpt><trkpt lat="45.9740147" lon="10.6634093"><ele>756.6666666666667</ele><time>2026-04-25T12:32:54.816Z</time></trkpt><trkpt lat="45.9738731" lon="10.6632947"><ele>754.0</ele><time>2026-04-25T12:32:55.826Z</time></trkpt><trkpt lat="45.9737265" lon="10.663165"><ele>754.0</ele><time>2026-04-25T12:32:56.824Z</time></trkpt><trkpt lat="45.9735806" lon="10.6630342"><ele>754.0</ele><time>2026-04-25T12:32:57.813Z</time></trkpt><trkpt lat="45.9734361" lon="10.662906"><ele>754.0</ele><time>2026-04-25T12:32:58.835Z</time></trkpt><trkpt lat="45.9732966" lon="10.6627861"><ele>749.3333333333334</ele><time>2026-04-25T12:32:59.814Z</time></trkpt><trkpt lat="45.9731565" lon="10.662663"><ele>744.6666666666666</ele><time>2026-04-25T12:33:00.831Z</time></trkpt><trkpt lat="45.9730206" lon="10.6625448"><ele>740.0</ele><time>2026-04-25T12:33:01.822Z</time></trkpt><trkpt lat="45.9728772" lon="10.6624283"><ele>740.0</ele><time>2026-04-25T12:33:02.828Z</time></trkpt><trkpt lat="45.9727321" lon="10.6623046"><ele>740.0</ele><time>2026-04-25T12:33:03.828Z</time></trkpt><trkpt lat="45.9725819" lon="10.6621768"><ele>740.0</ele><time>2026-04-25T12:33:04.83Z</time></trkpt><trkpt lat="45.9724331" lon="10.6620493"><ele>739.0</ele><time>2026-04-25T12:33:05.822Z</time></trkpt><trkpt lat="45.9722885" lon="10.6619271"><ele>738.0</ele><time>2026-04-25T12:33:06.825Z</time></trkpt><trkpt lat="45.9721485" lon="10.6618042"><ele>737.0</ele><time>2026-04-25T12:33:07.824Z</time></trkpt><trkpt lat="45.9720145" lon="10.6616857"><ele>737.0</ele><time>2026-04-25T12:33:08.826Z</time></trkpt><trkpt lat="45.9718829" lon="10.6615732"><ele>737.0</ele><time>2026-04-25T12:33:09.824Z</time></trkpt><trkpt lat="45.9717483" lon="10.6614655"><ele>737.0</ele><time>2026-04-25T12:33:10.844Z</time></trkpt><trkpt lat="45.9716245" lon="10.6613768"><ele>737.0</ele><time>2026-04-25T12:33:11.821Z</time></trkpt><trkpt lat="45.9714944" lon="10.6613098"><ele>735.75</ele><time>2026-04-25T12:33:12.834Z</time></trkpt><trkpt lat="45.9713642" lon="10.661267"><ele>734.5</ele><time>2026-04-25T12:33:13.826Z</time></trkpt><trkpt lat="45.9712358" lon="10.6612288"><ele>733.25</ele><time>2026-04-25T12:33:14.819Z</time></trkpt><trkpt lat="45.9711001" lon="10.6611961"><ele>732.0</ele><time>2026-04-25T12:33:15.814Z</time></trkpt><trkpt lat="45.9709558" lon="10.6611568"><ele>732.0</ele><time>2026-04-25T12:33:16.836Z</time></trkpt><trkpt lat="45.9708105" lon="10.6611217"><ele>732.0</ele><time>2026-04-25T12:33:17.82Z</time></trkpt><trkpt lat="45.9706599" lon="10.661083"><ele>732.0</ele><time>2026-04-25T12:33:18.835Z</time></trkpt><trkpt lat="45.9705126" lon="10.6610477"><ele>732.0</ele><time>2026-04-25T12:33:19.832Z</time></trkpt><trkpt lat="45.9703702" lon="10.6610171"><ele>732.0</ele><time>2026-04-25T12:33:20.827Z</time></trkpt><trkpt lat="45.9702254" lon="10.6609914"><ele>732.0</ele><time>2026-04-25T12:33:21.839Z</time></trkpt><trkpt lat="45.9700859" lon="10.6609769"><ele>732.0</ele><time>2026-04-25T12:33:22.823Z</time></trkpt><trkpt lat="45.9699417" lon="10.6609678"><ele>730.5</ele><time>2026-04-25T12:33:23.844Z</time></trkpt><trkpt lat="45.9698095" lon="10.660964"><ele>729.0</ele><time>2026-04-25T12:33:24.828Z</time></trkpt><trkpt lat="45.969678" lon="10.6609595"><ele>727.5</ele><time>2026-04-25T12:33:25.834Z</time></trkpt><trkpt lat="45.9695502" lon="10.6609549"><ele>726.0</ele><time>2026-04-25T12:33:26.826Z</time></trkpt><trkpt lat="45.9694133" lon="10.6609517"><ele>726.0</ele><time>2026-04-25T12:33:27.816Z</time></trkpt><trkpt lat="45.9692668" lon="10.6609455"><ele>726.0</ele><time>2026-04-25T12:33:28.818Z</time></trkpt><trkpt lat="45.9691086" lon="10.6609372"><ele>726.0</ele><time>2026-04-25T12:33:29.822Z</time></trkpt><trkpt lat="45.9689561" lon="10.6609244"><ele>724.5</ele><time>2026-04-25T12:33:30.822Z</time></trkpt><trkpt lat="45.9688072" lon="10.6609163"><ele>723.0</ele><time>2026-04-25T12:33:31.823Z</time></trkpt><trkpt lat="45.9686574" lon="10.6609049"><ele>721.5</ele><time>2026-04-25T12:33:32.852Z</time></trkpt><trkpt lat="45.9685121" lon="10.660898"><ele>720.0</ele><time>2026-04-25T12:33:33.827Z</time></trkpt><trkpt lat="45.9683652" lon="10.6608905"><ele>718.0</ele><time>2026-04-25T12:33:34.816Z</time></trkpt><trkpt lat="45.9682109" lon="10.6608856"><ele>716.0</ele><time>2026-04-25T12:33:35.835Z</time></trkpt><trkpt lat="45.9680522" lon="10.6608777"><ele>714.0</ele><time>2026-04-25T12:33:36.846Z</time></trkpt><trkpt lat="45.9678957" lon="10.6608747"><ele>714.0</ele><time>2026-04-25T12:33:37.823Z</time></trkpt><trkpt lat="45.9677365" lon="10.6608702"><ele>714.0</ele><time>2026-04-25T12:33:38.819Z</time></trkpt><trkpt lat="45.9675705" lon="10.6608635"><ele>714.0</ele><time>2026-04-25T12:33:39.845Z</time></trkpt><trkpt lat="45.9674129" lon="10.6608543"><ele>712.3333333333334</ele><time>2026-04-25T12:33:40.833Z</time></trkpt><trkpt lat="45.9672575" lon="10.6608406"><ele>710.6666666666667</ele><time>2026-04-25T12:33:41.834Z</time></trkpt><trkpt lat="45.9671062" lon="10.6608294"><ele>709.0</ele><time>2026-04-25T12:33:42.84Z</time></trkpt><trkpt lat="45.9669607" lon="10.6608203"><ele>709.0</ele><time>2026-04-25T12:33:43.85Z</time></trkpt><trkpt lat="45.9668225" lon="10.6608174"><ele>709.0</ele><time>2026-04-25T12:33:44.823Z</time></trkpt><trkpt lat="45.9666835" lon="10.6608152"><ele>709.0</ele><time>2026-04-25T12:33:45.83Z</time></trkpt><trkpt lat="45.9665506" lon="10.6608034"><ele>709.0</ele><time>2026-04-25T12:33:46.819Z</time></trkpt><trkpt lat="45.9664197" lon="10.6607946"><ele>708.5</ele><time>2026-04-25T12:33:47.825Z</time></trkpt><trkpt lat="45.9662972" lon="10.6607865"><ele>708.0</ele><time>2026-04-25T12:33:48.818Z</time></trkpt><trkpt lat="45.9661759" lon="10.6607794"><ele>707.5</ele><time>2026-04-25T12:33:49.829Z</time></trkpt><trkpt lat="45.9660561" lon="10.6607714"><ele>707.0</ele><time>2026-04-25T12:33:50.829Z</time></trkpt><trkpt lat="45.9659378" lon="10.6607599"><ele>705.5</ele><time>2026-04-25T12:33:51.847Z</time></trkpt><trkpt lat="45.9658231" lon="10.6607379"><ele>704.0</ele><time>2026-04-25T12:33:52.822Z</time></trkpt><trkpt lat="45.965702" lon="10.6607002"><ele>702.5</ele><time>2026-04-25T12:33:53.815Z</time></trkpt><trkpt lat="45.9655724" lon="10.6606441"><ele>701.0</ele><time>2026-04-25T12:33:54.839Z</time></trkpt><trkpt lat="45.9654478" lon="10.6605712"><ele>701.0</ele><time>2026-04-25T12:33:55.821Z</time></trkpt><trkpt lat="45.9653152" lon="10.6604914"><ele>701.0</ele><time>2026-04-25T12:33:56.83Z</time></trkpt><trkpt lat="45.9651753" lon="10.6604046"><ele>701.0</ele><time>2026-04-25T12:33:57.842Z</time></trkpt><trkpt lat="45.965033" lon="10.6603125"><ele>700.3333333333333</ele><time>2026-04-25T12:33:58.84Z</time></trkpt><trkpt lat="45.9648848" lon="10.6602155"><ele>699.6666666666666</ele><time>2026-04-25T12:33:59.843Z</time></trkpt><trkpt lat="45.9647382" lon="10.660121"><ele>699.0</ele><time>2026-04-25T12:34:00.823Z</time></trkpt><trkpt lat="45.9645906" lon="10.6600251"><ele>699.0</ele><time>2026-04-25T12:34:01.836Z</time></trkpt><trkpt lat="45.9644483" lon="10.6599378"><ele>699.0</ele><time>2026-04-25T12:34:02.837Z</time></trkpt><trkpt lat="45.964315" lon="10.659851"><ele>699.0</ele><time>2026-04-25T12:34:03.801Z</time></trkpt><trkpt lat="45.9641762" lon="10.6597497"><ele>701.3333333333334</ele><time>2026-04-25T12:34:04.84Z</time></trkpt><trkpt lat="45.9640462" lon="10.6596449"><ele>703.6666666666667</ele><time>2026-04-25T12:34:05.836Z</time></trkpt><trkpt lat="45.9639189" lon="10.6595283"><ele>706.0</ele><time>2026-04-25T12:34:06.832Z</time></trkpt><trkpt lat="45.9637932" lon="10.6593967"><ele>706.0</ele><time>2026-04-25T12:34:07.83Z</time></trkpt><trkpt lat="45.9636733" lon="10.6592626"><ele>706.0</ele><time>2026-04-25T12:34:08.809Z</time></trkpt><trkpt lat="45.96355" lon="10.659119"><ele>706.0</ele><time>2026-04-25T12:34:09.831Z</time></trkpt><trkpt lat="45.9634397" lon="10.6589825"><ele>702.75</ele><time>2026-04-25T12:34:10.835Z</time></trkpt><trkpt lat="45.9633391" lon="10.658856"><ele>699.5</ele><time>2026-04-25T12:34:11.845Z</time></trkpt><trkpt lat="45.9632538" lon="10.6587548"><ele>696.25</ele><time>2026-04-25T12:34:12.808Z</time></trkpt><trkpt lat="45.9631671" lon="10.6586471"><ele>693.0</ele><time>2026-04-25T12:34:13.84Z</time></trkpt><trkpt lat="45.9630845" lon="10.6585435"><ele>693.0</ele><time>2026-04-25T12:34:14.823Z</time></trkpt><trkpt lat="45.9630059" lon="10.6584407"><ele>693.0</ele><time>2026-04-25T12:34:15.818Z</time></trkpt><trkpt lat="45.9629279" lon="10.6583428"><ele>693.0</ele><time>2026-04-25T12:34:16.811Z</time></trkpt><trkpt lat="45.9628518" lon="10.6582433"><ele>693.0</ele><time>2026-04-25T12:34:17.818Z</time></trkpt><trkpt lat="45.9627801" lon="10.6581378"><ele>693.0</ele><time>2026-04-25T12:34:18.814Z</time></trkpt><trkpt lat="45.9627078" lon="10.6580183"><ele>693.0</ele><time>2026-04-25T12:34:19.838Z</time></trkpt><trkpt lat="45.9626418" lon="10.6578843"><ele>693.0</ele><time>2026-04-25T12:34:20.84Z</time></trkpt><trkpt lat="45.9625841" lon="10.6577381"><ele>693.0</ele><time>2026-04-25T12:34:21.815Z</time></trkpt><trkpt lat="45.9625286" lon="10.6575648"><ele>693.0</ele><time>2026-04-25T12:34:22.837Z</time></trkpt><trkpt lat="45.9624835" lon="10.6573876"><ele>691.5</ele><time>2026-04-25T12:34:23.829Z</time></trkpt><trkpt lat="45.9624441" lon="10.6572042"><ele>690.0</ele><time>2026-04-25T12:34:24.839Z</time></trkpt><trkpt lat="45.9624127" lon="10.6570395"><ele>688.5</ele><time>2026-04-25T12:34:25.823Z</time></trkpt><trkpt lat="45.9623839" lon="10.6568766"><ele>687.0</ele><time>2026-04-25T12:34:26.825Z</time></trkpt><trkpt lat="45.9623484" lon="10.6567275"><ele>687.0</ele><time>2026-04-25T12:34:27.848Z</time></trkpt><trkpt lat="45.9623037" lon="10.6566003"><ele>687.0</ele><time>2026-04-25T12:34:28.838Z</time></trkpt><trkpt lat="45.962255" lon="10.6564857"><ele>687.0</ele><time>2026-04-25T12:34:29.803Z</time></trkpt><trkpt lat="45.962211" lon="10.6563676"><ele>687.0</ele><time>2026-04-25T12:34:30.832Z</time></trkpt><trkpt lat="45.9621663" lon="10.6562611"><ele>687.0</ele><time>2026-04-25T12:34:31.844Z</time></trkpt><trkpt lat="45.9621103" lon="10.6561819"><ele>687.0</ele><time>2026-04-25T12:34:32.837Z</time></trkpt><trkpt lat="45.9620406" lon="10.6561403"><ele>687.0</ele><time>2026-04-25T12:34:33.828Z</time></trkpt><trkpt lat="45.9619618" lon="10.6561409"><ele>687.0</ele><time>2026-04-25T12:34:34.83Z</time></trkpt><trkpt lat="45.9618802" lon="10.6561505"><ele>687.0</ele><time>2026-04-25T12:34:35.814Z</time></trkpt><trkpt lat="45.9617887" lon="10.656127"><ele>687.0</ele><time>2026-04-25T12:34:36.842Z</time></trkpt><trkpt lat="45.9617059" lon="10.6560662"><ele>687.0</ele><time>2026-04-25T12:34:37.814Z</time></trkpt><trkpt lat="45.9616083" lon="10.6559473"><ele>681.3333333333334</ele><time>2026-04-25T12:34:38.853Z</time></trkpt><trkpt lat="45.9614929" lon="10.6558023"><ele>675.6666666666667</ele><time>2026-04-25T12:34:39.822Z</time></trkpt><trkpt lat="45.9613442" lon="10.6556532"><ele>670.0</ele><time>2026-04-25T12:34:40.842Z</time></trkpt><trkpt lat="45.9611717" lon="10.6554908"><ele>670.0</ele><time>2026-04-25T12:34:41.845Z</time></trkpt><trkpt lat="45.960985" lon="10.6553302"><ele>670.0</ele><time>2026-04-25T12:34:42.825Z</time></trkpt><trkpt lat="45.9607817" lon="10.6551445"><ele>666.5</ele><time>2026-04-25T12:34:43.845Z</time></trkpt><trkpt lat="45.9605763" lon="10.6549541"><ele>663.0</ele><time>2026-04-25T12:34:44.842Z</time></trkpt><trkpt lat="45.9603858" lon="10.654773"><ele>663.0</ele><time>2026-04-25T12:34:45.809Z</time></trkpt><trkpt lat="45.9601943" lon="10.6545864"><ele>663.0</ele><time>2026-04-25T12:34:46.847Z</time></trkpt><trkpt lat="45.9600172" lon="10.6544124"><ele>663.0</ele><time>2026-04-25T12:34:47.853Z</time></trkpt><trkpt lat="45.9598585" lon="10.6542565"><ele>662.3333333333334</ele><time>2026-04-25T12:34:48.809Z</time></trkpt><trkpt lat="45.9596966" lon="10.6541022"><ele>661.6666666666667</ele><time>2026-04-25T12:34:49.815Z</time></trkpt><trkpt lat="45.9595342" lon="10.6539575"><ele>661.0</ele><time>2026-04-25T12:34:50.816Z</time></trkpt><trkpt lat="45.9593732" lon="10.6538343"><ele>661.0</ele><time>2026-04-25T12:34:51.822Z</time></trkpt><trkpt lat="45.9592034" lon="10.6537427"><ele>661.0</ele><time>2026-04-25T12:34:52.84Z</time></trkpt><trkpt lat="45.9590065" lon="10.6536906"><ele>661.0</ele><time>2026-04-25T12:34:53.83Z</time></trkpt><trkpt lat="45.9587845" lon="10.6536762"><ele>644.0</ele><time>2026-04-25T12:34:54.834Z</time></trkpt><trkpt lat="45.9585361" lon="10.6536809"><ele>627.0</ele><time>2026-04-25T12:34:55.827Z</time></trkpt><trkpt lat="45.958273" lon="10.653677"><ele>625.5</ele><time>2026-04-25T12:34:56.828Z</time></trkpt><trkpt lat="45.9580257" lon="10.6536716"><ele>624.0</ele><time>2026-04-25T12:34:57.831Z</time></trkpt><trkpt lat="45.9578019" lon="10.653672"><ele>624.0</ele><time>2026-04-25T12:34:58.824Z</time></trkpt><trkpt lat="45.9576015" lon="10.6536766"><ele>624.0</ele><time>2026-04-25T12:34:59.828Z</time></trkpt><trkpt lat="45.9574179" lon="10.6536641"><ele>624.0</ele><time>2026-04-25T12:35:00.812Z</time></trkpt><trkpt lat="45.9572443" lon="10.6536144"><ele>622.3333333333334</ele><time>2026-04-25T12:35:01.834Z</time></trkpt><trkpt lat="45.9570659" lon="10.6535274"><ele>620.6666666666667</ele><time>2026-04-25T12:35:02.846Z</time></trkpt><trkpt lat="45.9568867" lon="10.6534155"><ele>619.0</ele><time>2026-04-25T12:35:03.833Z</time></trkpt><trkpt lat="45.9567045" lon="10.6532937"><ele>620.3333333333334</ele><time>2026-04-25T12:35:04.818Z</time></trkpt><trkpt lat="45.9565041" lon="10.653165"><ele>621.6666666666666</ele><time>2026-04-25T12:35:05.835Z</time></trkpt><trkpt lat="45.956311" lon="10.6530422"><ele>623.0</ele><time>2026-04-25T12:35:06.816Z</time></trkpt><trkpt lat="45.9561135" lon="10.6529206"><ele>623.0</ele><time>2026-04-25T12:35:07.809Z</time></trkpt><trkpt lat="45.9559082" lon="10.6528059"><ele>623.0</ele><time>2026-04-25T12:35:08.834Z</time></trkpt><trkpt lat="45.9557079" lon="10.6527086"><ele>623.0</ele><time>2026-04-25T12:35:09.818Z</time></trkpt><trkpt lat="45.9555016" lon="10.6526328"><ele>617.6666666666666</ele><time>2026-04-25T12:35:10.809Z</time></trkpt><trkpt lat="45.9552889" lon="10.6525758"><ele>612.3333333333334</ele><time>2026-04-25T12:35:11.823Z</time></trkpt><trkpt lat="45.9550694" lon="10.6525256"><ele>607.0</ele><time>2026-04-25T12:35:12.836Z</time></trkpt><trkpt lat="45.9548557" lon="10.6524561"><ele>606.0</ele><time>2026-04-25T12:35:13.829Z</time></trkpt><trkpt lat="45.9546442" lon="10.6523495"><ele>605.0</ele><time>2026-04-25T12:35:14.829Z</time></trkpt><trkpt lat="45.9544366" lon="10.6522023"><ele>605.0</ele><time>2026-04-25T12:35:15.834Z</time></trkpt><trkpt lat="45.9542252" lon="10.6520358"><ele>605.0</ele><time>2026-04-25T12:35:16.838Z</time></trkpt><trkpt lat="45.9540177" lon="10.6518604"><ele>601.0</ele><time>2026-04-25T12:35:17.835Z</time></trkpt><trkpt lat="45.9538033" lon="10.651682"><ele>597.0</ele><time>2026-04-25T12:35:18.844Z</time></trkpt><trkpt lat="45.9535949" lon="10.6515131"><ele>597.0</ele><time>2026-04-25T12:35:19.818Z</time></trkpt><trkpt lat="45.9533793" lon="10.6513369"><ele>597.0</ele><time>2026-04-25T12:35:20.825Z</time></trkpt><trkpt lat="45.9531705" lon="10.6511656"><ele>591.5</ele><time>2026-04-25T12:35:21.83Z</time></trkpt><trkpt lat="45.952971" lon="10.6509993"><ele>586.0</ele><time>2026-04-25T12:35:22.822Z</time></trkpt><trkpt lat="45.9527751" lon="10.6508465"><ele>586.0</ele><time>2026-04-25T12:35:23.82Z</time></trkpt><trkpt lat="45.9525744" lon="10.6507206"><ele>586.0</ele><time>2026-04-25T12:35:24.832Z</time></trkpt><trkpt lat="45.9523725" lon="10.6506234"><ele>586.0</ele><time>2026-04-25T12:35:25.837Z</time></trkpt><trkpt lat="45.9521625" lon="10.6505436"><ele>589.3333333333334</ele><time>2026-04-25T12:35:26.838Z</time></trkpt><trkpt lat="45.9519464" lon="10.6504826"><ele>592.6666666666666</ele><time>2026-04-25T12:35:27.823Z</time></trkpt><trkpt lat="45.9517322" lon="10.6504226"><ele>596.0</ele><time>2026-04-25T12:35:28.819Z</time></trkpt><trkpt lat="45.9515188" lon="10.650356"><ele>595.5</ele><time>2026-04-25T12:35:29.815Z</time></trkpt><trkpt lat="45.9512997" lon="10.6502696"><ele>595.0</ele><time>2026-04-25T12:35:30.833Z</time></trkpt><trkpt lat="45.9510846" lon="10.650161"><ele>591.5</ele><time>2026-04-25T12:35:31.834Z</time></trkpt><trkpt lat="45.9508733" lon="10.6500314"><ele>588.0</ele><time>2026-04-25T12:35:32.824Z</time></trkpt><trkpt lat="45.9506624" lon="10.6498856"><ele>588.0</ele><time>2026-04-25T12:35:33.831Z</time></trkpt><trkpt lat="45.9504514" lon="10.649719"><ele>588.0</ele><time>2026-04-25T12:35:34.832Z</time></trkpt><trkpt lat="45.9502494" lon="10.6495379"><ele>583.5</ele><time>2026-04-25T12:35:35.823Z</time></trkpt><trkpt lat="45.9500463" lon="10.6493439"><ele>579.0</ele><time>2026-04-25T12:35:36.836Z</time></trkpt><trkpt lat="45.9498441" lon="10.6491472"><ele>577.0</ele><time>2026-04-25T12:35:37.833Z</time></trkpt><trkpt lat="45.9496397" lon="10.6489713"><ele>575.0</ele><time>2026-04-25T12:35:38.832Z</time></trkpt><trkpt lat="45.9494257" lon="10.6488122"><ele>575.0</ele><time>2026-04-25T12:35:39.824Z</time></trkpt><trkpt lat="45.9492126" lon="10.6486728"><ele>575.0</ele><time>2026-04-25T12:35:40.805Z</time></trkpt><trkpt lat="45.9489917" lon="10.6485307"><ele>571.0</ele><time>2026-04-25T12:35:41.831Z</time></trkpt><trkpt lat="45.9487742" lon="10.6483964"><ele>567.0</ele><time>2026-04-25T12:35:42.823Z</time></trkpt><trkpt lat="45.9485572" lon="10.6482579"><ele>573.0</ele><time>2026-04-25T12:35:43.824Z</time></trkpt><trkpt lat="45.9483404" lon="10.6481254"><ele>579.0</ele><time>2026-04-25T12:35:44.834Z</time></trkpt><trkpt lat="45.9481358" lon="10.6480148"><ele>579.0</ele><time>2026-04-25T12:35:45.807Z</time></trkpt><trkpt lat="45.9479242" lon="10.647919"><ele>579.0</ele><time>2026-04-25T12:35:46.827Z</time></trkpt><trkpt lat="45.9477203" lon="10.6478342"><ele>579.0</ele><time>2026-04-25T12:35:47.825Z</time></trkpt><trkpt lat="45.947525" lon="10.6477446"><ele>573.6666666666666</ele><time>2026-04-25T12:35:48.816Z</time></trkpt><trkpt lat="45.9473216" lon="10.6476391"><ele>568.3333333333333</ele><time>2026-04-25T12:35:49.83Z</time></trkpt><trkpt lat="45.9471262" lon="10.6475197"><ele>563.0</ele><time>2026-04-25T12:35:50.823Z</time></trkpt><trkpt lat="45.9469243" lon="10.6473876"><ele>563.0</ele><time>2026-04-25T12:35:51.843Z</time></trkpt><trkpt lat="45.9467297" lon="10.6472397"><ele>563.0</ele><time>2026-04-25T12:35:52.849Z</time></trkpt><trkpt lat="45.9465482" lon="10.6470706"><ele>563.0</ele><time>2026-04-25T12:35:53.842Z</time></trkpt><trkpt lat="45.9463747" lon="10.6468879"><ele>563.0</ele><time>2026-04-25T12:35:54.83Z</time></trkpt><trkpt lat="45.946194" lon="10.6466911"><ele>563.0</ele><time>2026-04-25T12:35:55.845Z</time></trkpt><trkpt lat="45.9460201" lon="10.6465145"><ele>563.0</ele><time>2026-04-25T12:35:56.809Z</time></trkpt><trkpt lat="45.9458231" lon="10.6463486"><ele>563.0</ele><time>2026-04-25T12:35:57.841Z</time></trkpt><trkpt lat="45.9456202" lon="10.6462133"><ele>563.0</ele><time>2026-04-25T12:35:58.849Z</time></trkpt><trkpt lat="45.9454139" lon="10.6461065"><ele>563.0</ele><time>2026-04-25T12:35:59.837Z</time></trkpt><trkpt lat="45.9451981" lon="10.6460221"><ele>558.3333333333333</ele><time>2026-04-25T12:36:00.848Z</time></trkpt><trkpt lat="45.9449904" lon="10.6459488"><ele>553.6666666666666</ele><time>2026-04-25T12:36:01.843Z</time></trkpt><trkpt lat="45.9447898" lon="10.645865"><ele>549.0</ele><time>2026-04-25T12:36:02.823Z</time></trkpt><trkpt lat="45.9445911" lon="10.6457636"><ele>549.0</ele><time>2026-04-25T12:36:03.828Z</time></trkpt><trkpt lat="45.9444004" lon="10.6456415"><ele>549.0</ele><time>2026-04-25T12:36:04.837Z</time></trkpt><trkpt lat="45.9442276" lon="10.6455196"><ele>549.0</ele><time>2026-04-25T12:36:05.835Z</time></trkpt><trkpt lat="45.9440781" lon="10.6453968"><ele>548.25</ele><time>2026-04-25T12:36:06.838Z</time></trkpt><trkpt lat="45.9439508" lon="10.6452843"><ele>547.5</ele><time>2026-04-25T12:36:07.824Z</time></trkpt><trkpt lat="45.9438337" lon="10.6451739"><ele>546.75</ele><time>2026-04-25T12:36:08.839Z</time></trkpt><trkpt lat="45.9437307" lon="10.6450811"><ele>546.0</ele><time>2026-04-25T12:36:09.825Z</time></trkpt><trkpt lat="45.9436306" lon="10.6449896"><ele>546.0</ele><time>2026-04-25T12:36:10.822Z</time></trkpt><trkpt lat="45.9435375" lon="10.6449039"><ele>546.0</ele><time>2026-04-25T12:36:11.841Z</time></trkpt><trkpt lat="45.94346" lon="10.6448264"><ele>546.0</ele><time>2026-04-25T12:36:12.814Z</time></trkpt><trkpt lat="45.943389" lon="10.6447493"><ele>546.0</ele><time>2026-04-25T12:36:13.828Z</time></trkpt><trkpt lat="45.9433353" lon="10.6446628"><ele>546.0</ele><time>2026-04-25T12:36:14.844Z</time></trkpt><trkpt lat="45.9432997" lon="10.64457"><ele>546.0</ele><time>2026-04-25T12:36:15.824Z</time></trkpt><trkpt lat="45.9432793" lon="10.644459"><ele>545.6666666666666</ele><time>2026-04-25T12:36:16.823Z</time></trkpt><trkpt lat="45.9432506" lon="10.6443539"><ele>545.3333333333334</ele><time>2026-04-25T12:36:17.8Z</time></trkpt><trkpt lat="45.9432076" lon="10.6442608"><ele>545.0</ele><time>2026-04-25T12:36:18.832Z</time></trkpt><trkpt lat="45.9431472" lon="10.6442105"><ele>544.6666666666667</ele><time>2026-04-25T12:36:19.84Z</time></trkpt><trkpt lat="45.9430658" lon="10.644193"><ele>544.3333333333334</ele><time>2026-04-25T12:36:20.86Z</time></trkpt><trkpt lat="45.942972" lon="10.6441959"><ele>544.0</ele><time>2026-04-25T12:36:21.854Z</time></trkpt><trkpt lat="45.9428679" lon="10.6442053"><ele>544.0</ele><time>2026-04-25T12:36:22.815Z</time></trkpt><trkpt lat="45.9427336" lon="10.6442179"><ele>544.0</ele><time>2026-04-25T12:36:23.827Z</time></trkpt><trkpt lat="45.9425802" lon="10.6442154"><ele>544.0</ele><time>2026-04-25T12:36:24.863Z</time></trkpt><trkpt lat="45.9424296" lon="10.644196"><ele>544.0</ele><time>2026-04-25T12:36:25.826Z</time></trkpt><trkpt lat="45.9422606" lon="10.6441563"><ele>544.3333333333334</ele><time>2026-04-25T12:36:26.838Z</time></trkpt><trkpt lat="45.9420878" lon="10.6440954"><ele>544.6666666666666</ele><time>2026-04-25T12:36:27.846Z</time></trkpt><trkpt lat="45.9419135" lon="10.6440287"><ele>545.0</ele><time>2026-04-25T12:36:28.82Z</time></trkpt><trkpt lat="45.9417315" lon="10.6439563"><ele>547.0</ele><time>2026-04-25T12:36:29.811Z</time></trkpt><trkpt lat="45.9415416" lon="10.6438773"><ele>549.0</ele><time>2026-04-25T12:36:30.824Z</time></trkpt><trkpt lat="45.9413444" lon="10.643798"><ele>551.0</ele><time>2026-04-25T12:36:31.834Z</time></trkpt><trkpt lat="45.9411468" lon="10.6437246"><ele>551.0</ele><time>2026-04-25T12:36:32.808Z</time></trkpt><trkpt lat="45.9409519" lon="10.643668"><ele>551.0</ele><time>2026-04-25T12:36:33.814Z</time></trkpt><trkpt lat="45.9407585" lon="10.6436303"><ele>551.0</ele><time>2026-04-25T12:36:34.839Z</time></trkpt><trkpt lat="45.9405727" lon="10.6436046"><ele>555.3333333333333</ele><time>2026-04-25T12:36:35.823Z</time></trkpt><trkpt lat="45.9403885" lon="10.643579"><ele>559.6666666666666</ele><time>2026-04-25T12:36:36.802Z</time></trkpt><trkpt lat="45.9401267" lon="10.6435377"><ele>564.0</ele><time>2026-04-25T12:36:38.17Z</time></trkpt><trkpt lat="45.9398045" lon="10.6435032"><ele>564.0</ele><time>2026-04-25T12:36:39.859Z</time></trkpt><trkpt lat="45.9396136" lon="10.6434746"><ele>564.0</ele><time>2026-04-25T12:36:40.833Z</time></trkpt><trkpt lat="45.9394089" lon="10.6434371"><ele>564.0</ele><time>2026-04-25T12:36:41.862Z</time></trkpt><trkpt lat="45.9392208" lon="10.6433984"><ele>576.0</ele><time>2026-04-25T12:36:42.852Z</time></trkpt><trkpt lat="45.9390316" lon="10.6433609"><ele>588.0</ele><time>2026-04-25T12:36:43.857Z</time></trkpt><trkpt lat="45.9388238" lon="10.6433077"><ele>600.0</ele><time>2026-04-25T12:36:44.863Z</time></trkpt><trkpt lat="45.9386398" lon="10.6432634"><ele>600.0</ele><time>2026-04-25T12:36:45.842Z</time></trkpt><trkpt lat="45.9384613" lon="10.6432155"><ele>600.0</ele><time>2026-04-25T12:36:46.836Z</time></trkpt><trkpt lat="45.9383011" lon="10.6431656"><ele>600.0</ele><time>2026-04-25T12:36:47.76Z</time></trkpt><trkpt lat="45.9404005" lon="10.6435898"><ele>503.0</ele><time>2026-04-25T12:36:48.679Z</time></trkpt><trkpt lat="45.9321893" lon="10.6383827"><ele>503.0</ele><time>2026-04-25T12:37:22.66Z</time></trkpt><trkpt lat="45.9321162" lon="10.638264"><ele>503.0</ele><time>2026-04-25T12:37:23.66Z</time></trkpt><trkpt lat="45.9320536" lon="10.6381938"><ele>503.0</ele><time>2026-04-25T12:37:24.661Z</time></trkpt><trkpt lat="45.9323653" lon="10.6383703"><ele>501.5</ele><time>2026-04-25T12:37:25.89Z</time></trkpt><trkpt lat="45.9326486" lon="10.6385232"><ele>500.0</ele><time>2026-04-25T12:37:26.9Z</time></trkpt><trkpt lat="45.9329618" lon="10.6386933"><ele>500.0</ele><time>2026-04-25T12:37:27.906Z</time></trkpt><trkpt lat="45.9331847" lon="10.6388289"><ele>500.0</ele><time>2026-04-25T12:37:28.866Z</time></trkpt><trkpt lat="45.933147" lon="10.6387125"><ele>500.0</ele><time>2026-04-25T12:37:29.847Z</time></trkpt><trkpt lat="45.9330963" lon="10.6386135"><ele>500.0</ele><time>2026-04-25T12:37:30.858Z</time></trkpt><trkpt lat="45.93303" lon="10.6385742"><ele>500.0</ele><time>2026-04-25T12:37:31.83Z</time></trkpt><trkpt lat="45.932931" lon="10.6385673"><ele>500.0</ele><time>2026-04-25T12:37:32.83Z</time></trkpt><trkpt lat="45.9327971" lon="10.6385571"><ele>500.0</ele><time>2026-04-25T12:37:33.834Z</time></trkpt><trkpt lat="45.9326462" lon="10.6385073"><ele>500.0</ele><time>2026-04-25T12:37:34.837Z</time></trkpt><trkpt lat="45.9324806" lon="10.6384095"><ele>501.5</ele><time>2026-04-25T12:37:35.823Z</time></trkpt><trkpt lat="45.9322881" lon="10.638275"><ele>503.0</ele><time>2026-04-25T12:37:36.815Z</time></trkpt><trkpt lat="45.9320633" lon="10.6381074"><ele>503.0</ele><time>2026-04-25T12:37:37.838Z</time></trkpt><trkpt lat="45.931784" lon="10.6379173"><ele>503.0</ele><time>2026-04-25T12:37:38.836Z</time></trkpt><trkpt lat="45.9314726" lon="10.6376816"><ele>497.0</ele><time>2026-04-25T12:37:39.827Z</time></trkpt><trkpt lat="45.9310591" lon="10.6373813"><ele>497.0</ele><time>2026-04-25T12:37:40.835Z</time></trkpt><trkpt lat="45.9307064" lon="10.6371274"><ele>497.0</ele><time>2026-04-25T12:37:41.79Z</time></trkpt><trkpt lat="45.9302882" lon="10.6368308"><ele>497.0</ele><time>2026-04-25T12:37:42.824Z</time></trkpt><trkpt lat="45.9300993" lon="10.6367033"><ele>497.0</ele><time>2026-04-25T12:37:43.85Z</time></trkpt><trkpt lat="45.9299698" lon="10.6365312"><ele>497.0</ele><time>2026-04-25T12:37:45.836Z</time></trkpt><trkpt lat="45.9299036" lon="10.6364165"><ele>497.75</ele><time>2026-04-25T12:37:46.812Z</time></trkpt><trkpt lat="45.9298314" lon="10.6363008"><ele>498.5</ele><time>2026-04-25T12:37:47.818Z</time></trkpt><trkpt lat="45.9297392" lon="10.6361902"><ele>499.25</ele><time>2026-04-25T12:37:48.85Z</time></trkpt><trkpt lat="45.9296452" lon="10.6361104"><ele>500.0</ele><time>2026-04-25T12:37:49.827Z</time></trkpt><trkpt lat="45.9295386" lon="10.6360489"><ele>498.75</ele><time>2026-04-25T12:37:50.824Z</time></trkpt><trkpt lat="45.9294266" lon="10.6360101"><ele>497.5</ele><time>2026-04-25T12:37:51.822Z</time></trkpt><trkpt lat="45.9293182" lon="10.6359858"><ele>496.25</ele><time>2026-04-25T12:37:52.823Z</time></trkpt><trkpt lat="45.9291955" lon="10.6359578"><ele>495.0</ele><time>2026-04-25T12:37:53.829Z</time></trkpt><trkpt lat="45.9290884" lon="10.6359227"><ele>495.0</ele><time>2026-04-25T12:37:54.824Z</time></trkpt><trkpt lat="45.9289811" lon="10.6358669"><ele>495.0</ele><time>2026-04-25T12:37:55.837Z</time></trkpt><trkpt lat="45.9288908" lon="10.6357913"><ele>495.0</ele><time>2026-04-25T12:37:56.849Z</time></trkpt><trkpt lat="45.9288115" lon="10.6356999"><ele>495.0</ele><time>2026-04-25T12:37:57.821Z</time></trkpt><trkpt lat="45.9287578" lon="10.6355915"><ele>495.0</ele><time>2026-04-25T12:37:58.818Z</time></trkpt><trkpt lat="45.9287344" lon="10.6354718"><ele>495.0</ele><time>2026-04-25T12:37:59.829Z</time></trkpt><trkpt lat="45.9287041" lon="10.6353541"><ele>495.0</ele><time>2026-04-25T12:38:00.84Z</time></trkpt><trkpt lat="45.9286581" lon="10.6352613"><ele>495.0</ele><time>2026-04-25T12:38:01.838Z</time></trkpt><trkpt lat="45.9285866" lon="10.6352034"><ele>495.0</ele><time>2026-04-25T12:38:02.857Z</time></trkpt><trkpt lat="45.9284993" lon="10.6351966"><ele>495.0</ele><time>2026-04-25T12:38:03.833Z</time></trkpt><trkpt lat="45.9283964" lon="10.6352222"><ele>495.0</ele><time>2026-04-25T12:38:04.837Z</time></trkpt><trkpt lat="45.9282903" lon="10.635242"><ele>494.75</ele><time>2026-04-25T12:38:05.804Z</time></trkpt><trkpt lat="45.9281734" lon="10.6352372"><ele>494.5</ele><time>2026-04-25T12:38:06.815Z</time></trkpt><trkpt lat="45.9280546" lon="10.6351944"><ele>494.25</ele><time>2026-04-25T12:38:07.838Z</time></trkpt><trkpt lat="45.9279388" lon="10.6351421"><ele>494.0</ele><time>2026-04-25T12:38:08.827Z</time></trkpt><trkpt lat="45.9278116" lon="10.6350657"><ele>494.0</ele><time>2026-04-25T12:38:09.827Z</time></trkpt><trkpt lat="45.9276821" lon="10.6349828"><ele>494.0</ele><time>2026-04-25T12:38:10.831Z</time></trkpt><trkpt lat="45.9275512" lon="10.6348853"><ele>494.0</ele><time>2026-04-25T12:38:11.838Z</time></trkpt><trkpt lat="45.9274215" lon="10.6347832"><ele>494.0</ele><time>2026-04-25T12:38:12.816Z</time></trkpt><trkpt lat="45.927285" lon="10.6346702"><ele>493.3333333333333</ele><time>2026-04-25T12:38:13.819Z</time></trkpt><trkpt lat="45.9271393" lon="10.6345558"><ele>492.66666666666663</ele><time>2026-04-25T12:38:14.825Z</time></trkpt><trkpt lat="45.9269893" lon="10.6344396"><ele>492.0</ele><time>2026-04-25T12:38:15.83Z</time></trkpt><trkpt lat="45.9268332" lon="10.6343292"><ele>492.33333333333337</ele><time>2026-04-25T12:38:16.832Z</time></trkpt><trkpt lat="45.9266766" lon="10.6342221"><ele>492.6666666666667</ele><time>2026-04-25T12:38:17.814Z</time></trkpt><trkpt lat="45.9265092" lon="10.6341217"><ele>493.0</ele><time>2026-04-25T12:38:18.833Z</time></trkpt><trkpt lat="45.92634" lon="10.6340307"><ele>493.0</ele><time>2026-04-25T12:38:19.842Z</time></trkpt><trkpt lat="45.9261697" lon="10.6339474"><ele>493.0</ele><time>2026-04-25T12:38:20.826Z</time></trkpt><trkpt lat="45.9259938" lon="10.6338604"><ele>493.0</ele><time>2026-04-25T12:38:21.829Z</time></trkpt><trkpt lat="45.9258183" lon="10.6337607"><ele>491.6666666666667</ele><time>2026-04-25T12:38:22.834Z</time></trkpt><trkpt lat="45.9256497" lon="10.6336506"><ele>490.33333333333337</ele><time>2026-04-25T12:38:23.828Z</time></trkpt><trkpt lat="45.9254809" lon="10.6335348"><ele>489.0</ele><time>2026-04-25T12:38:24.835Z</time></trkpt><trkpt lat="45.9253129" lon="10.6334221"><ele>489.0</ele><time>2026-04-25T12:38:25.819Z</time></trkpt><trkpt lat="45.9251418" lon="10.6332915"><ele>489.0</ele><time>2026-04-25T12:38:26.84Z</time></trkpt><trkpt lat="45.9249789" lon="10.6331573"><ele>489.0</ele><time>2026-04-25T12:38:27.845Z</time></trkpt><trkpt lat="45.9248195" lon="10.6330152"><ele>489.0</ele><time>2026-04-25T12:38:28.832Z</time></trkpt><trkpt lat="45.9246594" lon="10.6328699"><ele>489.0</ele><time>2026-04-25T12:38:29.825Z</time></trkpt><trkpt lat="45.9244945" lon="10.6327189"><ele>489.0</ele><time>2026-04-25T12:38:30.84Z</time></trkpt><trkpt lat="45.924337" lon="10.6325725"><ele>490.0</ele><time>2026-04-25T12:38:31.819Z</time></trkpt><trkpt lat="45.9241764" lon="10.6324221"><ele>491.0</ele><time>2026-04-25T12:38:32.834Z</time></trkpt><trkpt lat="45.9240177" lon="10.6322737"><ele>492.0</ele><time>2026-04-25T12:38:33.825Z</time></trkpt><trkpt lat="45.923856" lon="10.6321222"><ele>492.0</ele><time>2026-04-25T12:38:34.844Z</time></trkpt><trkpt lat="45.9236907" lon="10.6319796"><ele>492.0</ele><time>2026-04-25T12:38:35.844Z</time></trkpt><trkpt lat="45.9235245" lon="10.631851"><ele>492.0</ele><time>2026-04-25T12:38:36.823Z</time></trkpt><trkpt lat="45.9233409" lon="10.6317211"><ele>490.33333333333337</ele><time>2026-04-25T12:38:37.852Z</time></trkpt><trkpt lat="45.9231654" lon="10.6315977"><ele>488.6666666666667</ele><time>2026-04-25T12:38:38.848Z</time></trkpt><trkpt lat="45.9229902" lon="10.6314763"><ele>487.0</ele><time>2026-04-25T12:38:39.832Z</time></trkpt><trkpt lat="45.9228171" lon="10.6313506"><ele>487.0</ele><time>2026-04-25T12:38:40.856Z</time></trkpt><trkpt lat="45.9226684" lon="10.6312154"><ele>487.0</ele><time>2026-04-25T12:38:41.816Z</time></trkpt><trkpt lat="45.9225319" lon="10.6310415"><ele>487.0</ele><time>2026-04-25T12:38:42.842Z</time></trkpt><trkpt lat="45.9224056" lon="10.6308471"><ele>487.33333333333337</ele><time>2026-04-25T12:38:43.837Z</time></trkpt><trkpt lat="45.9222863" lon="10.6306373"><ele>487.66666666666663</ele><time>2026-04-25T12:38:44.837Z</time></trkpt><trkpt lat="45.9221686" lon="10.6304257"><ele>488.0</ele><time>2026-04-25T12:38:45.836Z</time></trkpt><trkpt lat="45.9220626" lon="10.630209"><ele>487.3333333333333</ele><time>2026-04-25T12:38:46.83Z</time></trkpt><trkpt lat="45.9219691" lon="10.6299778"><ele>486.66666666666663</ele><time>2026-04-25T12:38:47.822Z</time></trkpt><trkpt lat="45.9218954" lon="10.6297298"><ele>486.0</ele><time>2026-04-25T12:38:48.82Z</time></trkpt><trkpt lat="45.921823" lon="10.6294654"><ele>486.0</ele><time>2026-04-25T12:38:49.829Z</time></trkpt><trkpt lat="45.9217534" lon="10.6291937"><ele>486.0</ele><time>2026-04-25T12:38:50.846Z</time></trkpt><trkpt lat="45.9216798" lon="10.6289327"><ele>486.0</ele><time>2026-04-25T12:38:51.834Z</time></trkpt><trkpt lat="45.9216058" lon="10.628672"><ele>486.66666666666663</ele><time>2026-04-25T12:38:52.84Z</time></trkpt><trkpt lat="45.9215286" lon="10.6284237"><ele>487.3333333333333</ele><time>2026-04-25T12:38:53.827Z</time></trkpt><trkpt lat="45.9214413" lon="10.6281834"><ele>488.0</ele><time>2026-04-25T12:38:54.837Z</time></trkpt><trkpt lat="45.9213395" lon="10.6279574"><ele>486.66666666666663</ele><time>2026-04-25T12:38:55.854Z</time></trkpt><trkpt lat="45.9212242" lon="10.62776"><ele>485.33333333333337</ele><time>2026-04-25T12:38:56.822Z</time></trkpt><trkpt lat="45.9210816" lon="10.6275713"><ele>484.0</ele><time>2026-04-25T12:38:57.854Z</time></trkpt><trkpt lat="45.9209329" lon="10.6274061"><ele>483.33333333333337</ele><time>2026-04-25T12:38:58.847Z</time></trkpt><trkpt lat="45.9207768" lon="10.6272702"><ele>482.66666666666663</ele><time>2026-04-25T12:38:59.835Z</time></trkpt><trkpt lat="45.9206144" lon="10.627155"><ele>482.0</ele><time>2026-04-25T12:39:00.831Z</time></trkpt><trkpt lat="45.9204441" lon="10.6270518"><ele>481.0</ele><time>2026-04-25T12:39:01.829Z</time></trkpt><trkpt lat="45.9202688" lon="10.6269539"><ele>480.0</ele><time>2026-04-25T12:39:02.813Z</time></trkpt><trkpt lat="45.9200915" lon="10.6268605"><ele>479.0</ele><time>2026-04-25T12:39:03.795Z</time></trkpt><trkpt lat="45.9199067" lon="10.6267608"><ele>479.0</ele><time>2026-04-25T12:39:04.83Z</time></trkpt><trkpt lat="45.9197245" lon="10.626667"><ele>479.0</ele><time>2026-04-25T12:39:05.832Z</time></trkpt><trkpt lat="45.9195565" lon="10.6265765"><ele>479.0</ele><time>2026-04-25T12:39:06.794Z</time></trkpt><trkpt lat="45.919383" lon="10.6264838"><ele>478.3333333333333</ele><time>2026-04-25T12:39:07.835Z</time></trkpt><trkpt lat="45.9192252" lon="10.6264005"><ele>477.66666666666663</ele><time>2026-04-25T12:39:08.851Z</time></trkpt><trkpt lat="45.9190834" lon="10.6263224"><ele>477.0</ele><time>2026-04-25T12:39:09.816Z</time></trkpt><trkpt lat="45.9189243" lon="10.6262363"><ele>477.0</ele><time>2026-04-25T12:39:10.83Z</time></trkpt><trkpt lat="45.9187623" lon="10.6261366"><ele>477.0</ele><time>2026-04-25T12:39:11.851Z</time></trkpt><trkpt lat="45.91861" lon="10.6260237"><ele>477.0</ele><time>2026-04-25T12:39:12.822Z</time></trkpt><trkpt lat="45.9184502" lon="10.6258909"><ele>476.66666666666663</ele><time>2026-04-25T12:39:13.841Z</time></trkpt><trkpt lat="45.9182868" lon="10.625749"><ele>476.3333333333333</ele><time>2026-04-25T12:39:14.849Z</time></trkpt><trkpt lat="45.9181205" lon="10.6256087"><ele>476.0</ele><time>2026-04-25T12:39:15.816Z</time></trkpt><trkpt lat="45.9179429" lon="10.625464"><ele>476.0</ele><time>2026-04-25T12:39:16.842Z</time></trkpt><trkpt lat="45.9177724" lon="10.6253223"><ele>476.0</ele><time>2026-04-25T12:39:17.832Z</time></trkpt><trkpt lat="45.917605" lon="10.6251692"><ele>476.0</ele><time>2026-04-25T12:39:18.832Z</time></trkpt><trkpt lat="45.9174444" lon="10.6250051"><ele>475.66666666666663</ele><time>2026-04-25T12:39:19.817Z</time></trkpt><trkpt lat="45.9172949" lon="10.6248216"><ele>475.33333333333337</ele><time>2026-04-25T12:39:20.811Z</time></trkpt><trkpt lat="45.9171514" lon="10.6246222"><ele>475.0</ele><time>2026-04-25T12:39:21.84Z</time></trkpt><trkpt lat="45.9170287" lon="10.6244319"><ele>475.0</ele><time>2026-04-25T12:39:22.83Z</time></trkpt><trkpt lat="45.9169091" lon="10.624245"><ele>475.0</ele><time>2026-04-25T12:39:23.831Z</time></trkpt><trkpt lat="45.916793" lon="10.6240752"><ele>475.0</ele><time>2026-04-25T12:39:24.826Z</time></trkpt><trkpt lat="45.9166874" lon="10.6239242"><ele>474.75</ele><time>2026-04-25T12:39:25.816Z</time></trkpt><trkpt lat="45.9165834" lon="10.6237667"><ele>474.5</ele><time>2026-04-25T12:39:26.836Z</time></trkpt><trkpt lat="45.9164912" lon="10.6236298"><ele>474.25</ele><time>2026-04-25T12:39:27.84Z</time></trkpt><trkpt lat="45.9163996" lon="10.623499"><ele>474.0</ele><time>2026-04-25T12:39:28.844Z</time></trkpt><trkpt lat="45.9163171" lon="10.6233769"><ele>474.4</ele><time>2026-04-25T12:39:29.816Z</time></trkpt><trkpt lat="45.9162365" lon="10.623256"><ele>474.79999999999995</ele><time>2026-04-25T12:39:30.844Z</time></trkpt><trkpt lat="45.916172" lon="10.6231399"><ele>475.20000000000005</ele><time>2026-04-25T12:39:31.838Z</time></trkpt><trkpt lat="45.9161315" lon="10.6230205"><ele>475.6</ele><time>2026-04-25T12:39:32.822Z</time></trkpt><trkpt lat="45.9161047" lon="10.6228924"><ele>476.0</ele><time>2026-04-25T12:39:33.831Z</time></trkpt><trkpt lat="45.9160751" lon="10.6227749"><ele>475.8333333333333</ele><time>2026-04-25T12:39:34.838Z</time></trkpt><trkpt lat="45.9160295" lon="10.6226692"><ele>475.66666666666663</ele><time>2026-04-25T12:39:35.834Z</time></trkpt><trkpt lat="45.9159709" lon="10.6225981"><ele>475.5</ele><time>2026-04-25T12:39:36.798Z</time></trkpt><trkpt lat="45.9158973" lon="10.6225739"><ele>475.33333333333337</ele><time>2026-04-25T12:39:37.841Z</time></trkpt><trkpt lat="45.9158121" lon="10.6225904"><ele>475.1666666666667</ele><time>2026-04-25T12:39:38.853Z</time></trkpt><trkpt lat="45.9157215" lon="10.6226134"><ele>475.0</ele><time>2026-04-25T12:39:39.853Z</time></trkpt><trkpt lat="45.9156332" lon="10.6226112"><ele>475.0</ele><time>2026-04-25T12:39:40.823Z</time></trkpt><trkpt lat="45.9155618" lon="10.6225648"><ele>475.0</ele><time>2026-04-25T12:39:41.809Z</time></trkpt><trkpt lat="45.9154932" lon="10.6224943"><ele>475.0</ele><time>2026-04-25T12:39:42.842Z</time></trkpt><trkpt lat="45.9154228" lon="10.6224144"><ele>475.0</ele><time>2026-04-25T12:39:43.832Z</time></trkpt><trkpt lat="45.915343" lon="10.6223058"><ele>475.0</ele><time>2026-04-25T12:39:44.846Z</time></trkpt><trkpt lat="45.9152558" lon="10.622194"><ele>475.0</ele><time>2026-04-25T12:39:45.849Z</time></trkpt><trkpt lat="45.915169" lon="10.6220788"><ele>475.0</ele><time>2026-04-25T12:39:46.822Z</time></trkpt><trkpt lat="45.9150816" lon="10.6219565"><ele>475.0</ele><time>2026-04-25T12:39:47.84Z</time></trkpt><trkpt lat="45.914997" lon="10.6218354"><ele>475.0</ele><time>2026-04-25T12:39:48.828Z</time></trkpt><trkpt lat="45.9149105" lon="10.6217079"><ele>474.25</ele><time>2026-04-25T12:39:49.851Z</time></trkpt><trkpt lat="45.9148275" lon="10.6215888"><ele>473.5</ele><time>2026-04-25T12:39:50.832Z</time></trkpt><trkpt lat="45.9147482" lon="10.6214732"><ele>472.75</ele><time>2026-04-25T12:39:51.811Z</time></trkpt><trkpt lat="45.9146645" lon="10.6213523"><ele>472.0</ele><time>2026-04-25T12:39:52.807Z</time></trkpt><trkpt lat="45.9145715" lon="10.6212242"><ele>471.75</ele><time>2026-04-25T12:39:53.831Z</time></trkpt><trkpt lat="45.914478" lon="10.6210927"><ele>471.5</ele><time>2026-04-25T12:39:54.846Z</time></trkpt><trkpt lat="45.9143791" lon="10.6209579"><ele>471.25</ele><time>2026-04-25T12:39:55.822Z</time></trkpt><trkpt lat="45.9142779" lon="10.6208194"><ele>471.0</ele><time>2026-04-25T12:39:56.839Z</time></trkpt><trkpt lat="45.9141681" lon="10.6206797"><ele>471.0</ele><time>2026-04-25T12:39:57.841Z</time></trkpt><trkpt lat="45.9140532" lon="10.6205474"><ele>471.0</ele><time>2026-04-25T12:39:58.821Z</time></trkpt><trkpt lat="45.9139296" lon="10.6204172"><ele>471.0</ele><time>2026-04-25T12:39:59.824Z</time></trkpt><trkpt lat="45.9137967" lon="10.6202839"><ele>471.33333333333337</ele><time>2026-04-25T12:40:00.818Z</time></trkpt><trkpt lat="45.9136573" lon="10.6201488"><ele>471.6666666666667</ele><time>2026-04-25T12:40:01.841Z</time></trkpt><trkpt lat="45.9135176" lon="10.6200186"><ele>472.0</ele><time>2026-04-25T12:40:02.843Z</time></trkpt><trkpt lat="45.9133773" lon="10.619885"><ele>470.6666666666667</ele><time>2026-04-25T12:40:03.84Z</time></trkpt><trkpt lat="45.9132338" lon="10.6197491"><ele>469.33333333333337</ele><time>2026-04-25T12:40:04.853Z</time></trkpt><trkpt lat="45.9130869" lon="10.6196093"><ele>468.0</ele><time>2026-04-25T12:40:05.847Z</time></trkpt><trkpt lat="45.9129329" lon="10.6194564"><ele>468.0</ele><time>2026-04-25T12:40:06.84Z</time></trkpt><trkpt lat="45.9127727" lon="10.6192974"><ele>468.0</ele><time>2026-04-25T12:40:07.835Z</time></trkpt><trkpt lat="45.9126031" lon="10.6191347"><ele>468.0</ele><time>2026-04-25T12:40:08.863Z</time></trkpt><trkpt lat="45.9124359" lon="10.6189848"><ele>468.0</ele><time>2026-04-25T12:40:09.828Z</time></trkpt><trkpt lat="45.9122617" lon="10.6188311"><ele>468.0</ele><time>2026-04-25T12:40:10.809Z</time></trkpt><trkpt lat="45.912077" lon="10.6186658"><ele>468.0</ele><time>2026-04-25T12:40:11.817Z</time></trkpt><trkpt lat="45.9118945" lon="10.6184928"><ele>467.33333333333337</ele><time>2026-04-25T12:40:12.819Z</time></trkpt><trkpt lat="45.9117152" lon="10.6183169"><ele>466.6666666666667</ele><time>2026-04-25T12:40:13.821Z</time></trkpt><trkpt lat="45.9115323" lon="10.6181463"><ele>466.0</ele><time>2026-04-25T12:40:14.825Z</time></trkpt><trkpt lat="45.9113452" lon="10.6179773"><ele>466.6666666666667</ele><time>2026-04-25T12:40:15.845Z</time></trkpt><trkpt lat="45.9111661" lon="10.6178143"><ele>467.33333333333337</ele><time>2026-04-25T12:40:16.827Z</time></trkpt><trkpt lat="45.9109808" lon="10.6176375"><ele>468.0</ele><time>2026-04-25T12:40:17.851Z</time></trkpt><trkpt lat="45.9107988" lon="10.6174664"><ele>468.66666666666663</ele><time>2026-04-25T12:40:18.842Z</time></trkpt><trkpt lat="45.91062" lon="10.6172979"><ele>469.3333333333333</ele><time>2026-04-25T12:40:19.836Z</time></trkpt><trkpt lat="45.910437" lon="10.6171241"><ele>470.0</ele><time>2026-04-25T12:40:20.844Z</time></trkpt><trkpt lat="45.9102587" lon="10.6169512"><ele>469.0</ele><time>2026-04-25T12:40:21.831Z</time></trkpt><trkpt lat="45.9100737" lon="10.6167742"><ele>468.0</ele><time>2026-04-25T12:40:22.843Z</time></trkpt><trkpt lat="45.9098942" lon="10.616606"><ele>467.0</ele><time>2026-04-25T12:40:23.819Z</time></trkpt><trkpt lat="45.909712" lon="10.6164392"><ele>467.0</ele><time>2026-04-25T12:40:24.826Z</time></trkpt><trkpt lat="45.9095377" lon="10.6162802"><ele>467.0</ele><time>2026-04-25T12:40:25.848Z</time></trkpt><trkpt lat="45.9093832" lon="10.6161315"><ele>467.0</ele><time>2026-04-25T12:40:26.824Z</time></trkpt><trkpt lat="45.9092289" lon="10.6159846"><ele>467.66666666666663</ele><time>2026-04-25T12:40:27.825Z</time></trkpt><trkpt lat="45.9090712" lon="10.6158231"><ele>468.33333333333337</ele><time>2026-04-25T12:40:28.841Z</time></trkpt><trkpt lat="45.908917" lon="10.615658"><ele>469.0</ele><time>2026-04-25T12:40:29.823Z</time></trkpt><trkpt lat="45.9087638" lon="10.6154755"><ele>471.0</ele><time>2026-04-25T12:40:30.826Z</time></trkpt><trkpt lat="45.9086114" lon="10.6152761"><ele>473.0</ele><time>2026-04-25T12:40:31.847Z</time></trkpt><trkpt lat="45.9084684" lon="10.6150646"><ele>475.0</ele><time>2026-04-25T12:40:32.851Z</time></trkpt><trkpt lat="45.9083269" lon="10.6148484"><ele>475.0</ele><time>2026-04-25T12:40:33.845Z</time></trkpt><trkpt lat="45.9081866" lon="10.6146292"><ele>475.0</ele><time>2026-04-25T12:40:34.826Z</time></trkpt><trkpt lat="45.9080446" lon="10.6144066"><ele>475.0</ele><time>2026-04-25T12:40:35.813Z</time></trkpt><trkpt lat="45.9078931" lon="10.6141726"><ele>475.33333333333337</ele><time>2026-04-25T12:40:36.834Z</time></trkpt><trkpt lat="45.9077477" lon="10.6139388"><ele>475.66666666666663</ele><time>2026-04-25T12:40:37.838Z</time></trkpt><trkpt lat="45.9076046" lon="10.6137107"><ele>476.0</ele><time>2026-04-25T12:40:38.839Z</time></trkpt><trkpt lat="45.9074644" lon="10.6134927"><ele>473.3333333333333</ele><time>2026-04-25T12:40:39.847Z</time></trkpt><trkpt lat="45.9073277" lon="10.6132886"><ele>470.66666666666663</ele><time>2026-04-25T12:40:40.824Z</time></trkpt><trkpt lat="45.9071887" lon="10.6130789"><ele>468.0</ele><time>2026-04-25T12:40:41.852Z</time></trkpt><trkpt lat="45.9070616" lon="10.6128822"><ele>467.0</ele><time>2026-04-25T12:40:42.832Z</time></trkpt><trkpt lat="45.9069349" lon="10.6126881"><ele>466.0</ele><time>2026-04-25T12:40:43.823Z</time></trkpt><trkpt lat="45.9068094" lon="10.6125001"><ele>465.0</ele><time>2026-04-25T12:40:44.834Z</time></trkpt><trkpt lat="45.9066828" lon="10.6123099"><ele>463.0</ele><time>2026-04-25T12:40:45.853Z</time></trkpt><trkpt lat="45.9065568" lon="10.6121204"><ele>461.0</ele><time>2026-04-25T12:40:46.826Z</time></trkpt><trkpt lat="45.9064305" lon="10.6119258"><ele>459.0</ele><time>2026-04-25T12:40:47.814Z</time></trkpt><trkpt lat="45.9062986" lon="10.6117173"><ele>459.0</ele><time>2026-04-25T12:40:48.828Z</time></trkpt><trkpt lat="45.9061646" lon="10.6115089"><ele>459.0</ele><time>2026-04-25T12:40:49.831Z</time></trkpt><trkpt lat="45.9060266" lon="10.6113005"><ele>459.0</ele><time>2026-04-25T12:40:50.822Z</time></trkpt><trkpt lat="45.9058827" lon="10.6110814"><ele>459.66666666666663</ele><time>2026-04-25T12:40:51.86Z</time></trkpt><trkpt lat="45.9057495" lon="10.6108753"><ele>460.3333333333333</ele><time>2026-04-25T12:40:52.835Z</time></trkpt><trkpt lat="45.9056086" lon="10.6106681"><ele>461.0</ele><time>2026-04-25T12:40:53.826Z</time></trkpt><trkpt lat="45.9054635" lon="10.6104615"><ele>459.66666666666663</ele><time>2026-04-25T12:40:54.831Z</time></trkpt><trkpt lat="45.9053151" lon="10.6102655"><ele>458.33333333333337</ele><time>2026-04-25T12:40:55.832Z</time></trkpt><trkpt lat="45.9051636" lon="10.6100749"><ele>457.0</ele><time>2026-04-25T12:40:56.825Z</time></trkpt><trkpt lat="45.9050058" lon="10.6098886"><ele>457.0</ele><time>2026-04-25T12:40:57.844Z</time></trkpt><trkpt lat="45.9048546" lon="10.6097133"><ele>457.0</ele><time>2026-04-25T12:40:58.82Z</time></trkpt><trkpt lat="45.904696" lon="10.6095348"><ele>457.0</ele><time>2026-04-25T12:40:59.836Z</time></trkpt><trkpt lat="45.9045428" lon="10.6093688"><ele>455.6666666666667</ele><time>2026-04-25T12:41:00.816Z</time></trkpt><trkpt lat="45.9043863" lon="10.6091988"><ele>454.33333333333337</ele><time>2026-04-25T12:41:01.838Z</time></trkpt><trkpt lat="45.9042264" lon="10.6090313"><ele>453.0</ele><time>2026-04-25T12:41:02.834Z</time></trkpt><trkpt lat="45.9040687" lon="10.6088641"><ele>452.33333333333337</ele><time>2026-04-25T12:41:03.851Z</time></trkpt><trkpt lat="45.9039273" lon="10.6087055"><ele>451.6666666666667</ele><time>2026-04-25T12:41:04.832Z</time></trkpt><trkpt lat="45.9037895" lon="10.6085579"><ele>451.0</ele><time>2026-04-25T12:41:05.838Z</time></trkpt><trkpt lat="45.9036568" lon="10.6084177"><ele>451.25</ele><time>2026-04-25T12:41:06.879Z</time></trkpt><trkpt lat="45.9035476" lon="10.6083026"><ele>451.5</ele><time>2026-04-25T12:41:07.828Z</time></trkpt><trkpt lat="45.9034359" lon="10.6081881"><ele>451.75</ele><time>2026-04-25T12:41:08.834Z</time></trkpt><trkpt lat="45.9033244" lon="10.6080909"><ele>452.0</ele><time>2026-04-25T12:41:09.832Z</time></trkpt><trkpt lat="45.9032179" lon="10.6080081"><ele>452.0</ele><time>2026-04-25T12:41:10.845Z</time></trkpt><trkpt lat="45.9031186" lon="10.6079415"><ele>452.00000000000006</ele><time>2026-04-25T12:41:11.826Z</time></trkpt><trkpt lat="45.9030223" lon="10.6078831"><ele>452.00000000000006</ele><time>2026-04-25T12:41:12.836Z</time></trkpt><trkpt lat="45.9029279" lon="10.6078356"><ele>452.0</ele><time>2026-04-25T12:41:13.839Z</time></trkpt><trkpt lat="45.9028384" lon="10.6077999"><ele>452.0</ele><time>2026-04-25T12:41:14.848Z</time></trkpt><trkpt lat="45.9027551" lon="10.6077708"><ele>452.42857142857144</ele><time>2026-04-25T12:41:15.853Z</time></trkpt><trkpt lat="45.902677" lon="10.6077482"><ele>452.85714285714283</ele><time>2026-04-25T12:41:16.817Z</time></trkpt><trkpt lat="45.9026001" lon="10.6077306"><ele>453.2857142857143</ele><time>2026-04-25T12:41:17.84Z</time></trkpt><trkpt lat="45.902528" lon="10.607718"><ele>453.7142857142857</ele><time>2026-04-25T12:41:18.825Z</time></trkpt><trkpt lat="45.9024597" lon="10.6077097"><ele>454.1428571428571</ele><time>2026-04-25T12:41:19.83Z</time></trkpt><trkpt lat="45.9023932" lon="10.6077103"><ele>454.57142857142856</ele><time>2026-04-25T12:41:20.814Z</time></trkpt><trkpt lat="45.9023302" lon="10.6077141"><ele>455.0</ele><time>2026-04-25T12:41:21.83Z</time></trkpt><trkpt lat="45.9022127" lon="10.6077085"><ele>454.99999999999994</ele><time>2026-04-25T12:41:23.831Z</time></trkpt><trkpt lat="45.9021151" lon="10.607703"><ele>455.0</ele><time>2026-04-25T12:41:25.838Z</time></trkpt><trkpt lat="45.902042" lon="10.6076689"><ele>455.0</ele><time>2026-04-25T12:41:28.815Z</time></trkpt><trkpt lat="45.9019599" lon="10.6076934"><ele>455.0</ele><time>2026-04-25T12:43:21.814Z</time></trkpt><trkpt lat="45.9018547" lon="10.607696"><ele>454.99999999999994</ele><time>2026-04-25T12:43:23.816Z</time></trkpt><trkpt lat="45.9017839" lon="10.6077112"><ele>455.0</ele><time>2026-04-25T12:43:24.825Z</time></trkpt><trkpt lat="45.9017006" lon="10.6077373"><ele>454.0</ele><time>2026-04-25T12:43:25.837Z</time></trkpt><trkpt lat="45.901609" lon="10.607773"><ele>453.0</ele><time>2026-04-25T12:43:26.81Z</time></trkpt><trkpt lat="45.9015058" lon="10.6078185"><ele>452.0</ele><time>2026-04-25T12:43:27.829Z</time></trkpt><trkpt lat="45.9014059" lon="10.6078518"><ele>451.0</ele><time>2026-04-25T12:43:28.818Z</time></trkpt><trkpt lat="45.9012966" lon="10.6078963"><ele>450.0</ele><time>2026-04-25T12:43:29.828Z</time></trkpt><trkpt lat="45.901174" lon="10.6079478"><ele>450.0</ele><time>2026-04-25T12:43:30.84Z</time></trkpt><trkpt lat="45.9010514" lon="10.6080071"><ele>450.0</ele><time>2026-04-25T12:43:31.831Z</time></trkpt><trkpt lat="45.9009257" lon="10.6080627"><ele>450.0</ele><time>2026-04-25T12:43:32.856Z</time></trkpt><trkpt lat="45.9008085" lon="10.6081181"><ele>450.0</ele><time>2026-04-25T12:43:33.838Z</time></trkpt><trkpt lat="45.9006827" lon="10.6081764"><ele>451.5</ele><time>2026-04-25T12:43:34.839Z</time></trkpt><trkpt lat="45.9005538" lon="10.6082331"><ele>453.0</ele><time>2026-04-25T12:43:35.851Z</time></trkpt><trkpt lat="45.9004246" lon="10.6082911"><ele>454.5</ele><time>2026-04-25T12:43:36.839Z</time></trkpt><trkpt lat="45.9002916" lon="10.6083516"><ele>456.0</ele><time>2026-04-25T12:43:37.828Z</time></trkpt><trkpt lat="45.9001606" lon="10.608413"><ele>456.5</ele><time>2026-04-25T12:43:38.828Z</time></trkpt><trkpt lat="45.9000241" lon="10.6084768"><ele>457.0</ele><time>2026-04-25T12:43:39.825Z</time></trkpt><trkpt lat="45.8998866" lon="10.6085382"><ele>457.5</ele><time>2026-04-25T12:43:40.821Z</time></trkpt><trkpt lat="45.8997481" lon="10.6086013"><ele>458.0</ele><time>2026-04-25T12:43:41.811Z</time></trkpt><trkpt lat="45.8996098" lon="10.6086602"><ele>456.3333333333333</ele><time>2026-04-25T12:43:42.819Z</time></trkpt><trkpt lat="45.8994598" lon="10.6087037"><ele>454.66666666666663</ele><time>2026-04-25T12:43:43.829Z</time></trkpt><trkpt lat="45.899305" lon="10.6087367"><ele>453.0</ele><time>2026-04-25T12:43:44.825Z</time></trkpt><trkpt lat="45.8991421" lon="10.6087489"><ele>452.66666666666663</ele><time>2026-04-25T12:43:45.848Z</time></trkpt><trkpt lat="45.8989835" lon="10.6087458"><ele>452.3333333333333</ele><time>2026-04-25T12:43:46.839Z</time></trkpt><trkpt lat="45.8988092" lon="10.6087234"><ele>452.0</ele><time>2026-04-25T12:43:47.846Z</time></trkpt><trkpt lat="45.8986467" lon="10.6086773"><ele>454.0</ele><time>2026-04-25T12:43:48.822Z</time></trkpt><trkpt lat="45.8984784" lon="10.608611"><ele>456.0</ele><time>2026-04-25T12:43:49.831Z</time></trkpt><trkpt lat="45.898314" lon="10.6085258"><ele>458.0</ele><time>2026-04-25T12:43:50.843Z</time></trkpt><trkpt lat="45.8981555" lon="10.6084253"><ele>458.0</ele><time>2026-04-25T12:43:51.843Z</time></trkpt><trkpt lat="45.8980011" lon="10.6083175"><ele>458.0</ele><time>2026-04-25T12:43:52.817Z</time></trkpt><trkpt lat="45.8978447" lon="10.6082055"><ele>458.0</ele><time>2026-04-25T12:43:53.854Z</time></trkpt><trkpt lat="45.8976934" lon="10.608098"><ele>456.66666666666663</ele><time>2026-04-25T12:43:54.828Z</time></trkpt><trkpt lat="45.8975432" lon="10.6079906"><ele>455.33333333333337</ele><time>2026-04-25T12:43:55.819Z</time></trkpt><trkpt lat="45.8973861" lon="10.6078758"><ele>454.0</ele><time>2026-04-25T12:43:56.835Z</time></trkpt><trkpt lat="45.8972265" lon="10.6077622"><ele>454.0</ele><time>2026-04-25T12:43:57.858Z</time></trkpt><trkpt lat="45.8970833" lon="10.6076625"><ele>454.0</ele><time>2026-04-25T12:43:58.844Z</time></trkpt><trkpt lat="45.8969313" lon="10.6075656"><ele>454.0</ele><time>2026-04-25T12:43:59.827Z</time></trkpt><trkpt lat="45.8967721" lon="10.607474"><ele>451.6666666666667</ele><time>2026-04-25T12:44:00.854Z</time></trkpt><trkpt lat="45.8966204" lon="10.6073779"><ele>449.33333333333337</ele><time>2026-04-25T12:44:01.843Z</time></trkpt><trkpt lat="45.8964647" lon="10.6072734"><ele>447.0</ele><time>2026-04-25T12:44:02.841Z</time></trkpt><trkpt lat="45.8963178" lon="10.6071664"><ele>447.0</ele><time>2026-04-25T12:44:03.816Z</time></trkpt><trkpt lat="45.8961565" lon="10.6070495"><ele>447.0</ele><time>2026-04-25T12:44:04.833Z</time></trkpt><trkpt lat="45.8959993" lon="10.6069363"><ele>447.0</ele><time>2026-04-25T12:44:05.833Z</time></trkpt><trkpt lat="45.8958409" lon="10.6068249"><ele>446.33333333333337</ele><time>2026-04-25T12:44:06.828Z</time></trkpt><trkpt lat="45.8956805" lon="10.6067103"><ele>445.6666666666667</ele><time>2026-04-25T12:44:07.84Z</time></trkpt><trkpt lat="45.895527" lon="10.6065976"><ele>445.0</ele><time>2026-04-25T12:44:08.838Z</time></trkpt><trkpt lat="45.8953674" lon="10.6064798"><ele>445.0</ele><time>2026-04-25T12:44:09.852Z</time></trkpt><trkpt lat="45.8952117" lon="10.606362"><ele>445.0</ele><time>2026-04-25T12:44:10.847Z</time></trkpt><trkpt lat="45.8950525" lon="10.606247"><ele>445.0</ele><time>2026-04-25T12:44:11.856Z</time></trkpt><trkpt lat="45.8948882" lon="10.6061244"><ele>444.33333333333337</ele><time>2026-04-25T12:44:12.859Z</time></trkpt><trkpt lat="45.8947251" lon="10.6060096"><ele>443.66666666666663</ele><time>2026-04-25T12:44:13.853Z</time></trkpt><trkpt lat="45.8945562" lon="10.6058917"><ele>443.0</ele><time>2026-04-25T12:44:14.831Z</time></trkpt><trkpt lat="45.8943811" lon="10.605791"><ele>442.3333333333333</ele><time>2026-04-25T12:44:15.816Z</time></trkpt><trkpt lat="45.8941952" lon="10.6057031"><ele>441.66666666666663</ele><time>2026-04-25T12:44:16.831Z</time></trkpt><trkpt lat="45.8940219" lon="10.6056347"><ele>441.0</ele><time>2026-04-25T12:44:17.811Z</time></trkpt><trkpt lat="45.8938473" lon="10.6055696"><ele>441.0</ele><time>2026-04-25T12:44:18.822Z</time></trkpt><trkpt lat="45.8936644" lon="10.6054989"><ele>441.0</ele><time>2026-04-25T12:44:19.851Z</time></trkpt><trkpt lat="45.8934892" lon="10.6054104"><ele>441.0</ele><time>2026-04-25T12:44:20.854Z</time></trkpt><trkpt lat="45.8933178" lon="10.6053253"><ele>439.66666666666663</ele><time>2026-04-25T12:44:21.829Z</time></trkpt><trkpt lat="45.8931361" lon="10.6052462"><ele>438.3333333333333</ele><time>2026-04-25T12:44:22.813Z</time></trkpt><trkpt lat="45.8929438" lon="10.6051696"><ele>437.0</ele><time>2026-04-25T12:44:23.831Z</time></trkpt><trkpt lat="45.8927476" lon="10.6050986"><ele>436.0</ele><time>2026-04-25T12:44:24.833Z</time></trkpt><trkpt lat="45.8925536" lon="10.605029"><ele>435.0</ele><time>2026-04-25T12:44:25.821Z</time></trkpt><trkpt lat="45.8923473" lon="10.6049553"><ele>434.0</ele><time>2026-04-25T12:44:26.831Z</time></trkpt><trkpt lat="45.8921419" lon="10.6048787"><ele>434.0</ele><time>2026-04-25T12:44:27.821Z</time></trkpt><trkpt lat="45.8919292" lon="10.6048"><ele>434.0</ele><time>2026-04-25T12:44:28.833Z</time></trkpt><trkpt lat="45.89171" lon="10.6047175"><ele>434.0</ele><time>2026-04-25T12:44:29.825Z</time></trkpt><trkpt lat="45.8914842" lon="10.6046333"><ele>434.0</ele><time>2026-04-25T12:44:30.836Z</time></trkpt><trkpt lat="45.8912619" lon="10.6045501"><ele>434.0</ele><time>2026-04-25T12:44:31.839Z</time></trkpt><trkpt lat="45.8910381" lon="10.6044538"><ele>432.5</ele><time>2026-04-25T12:44:32.823Z</time></trkpt><trkpt lat="45.8908109" lon="10.6043451"><ele>431.0</ele><time>2026-04-25T12:44:33.834Z</time></trkpt><trkpt lat="45.8905838" lon="10.6042208"><ele>431.0</ele><time>2026-04-25T12:44:34.837Z</time></trkpt><trkpt lat="45.8903522" lon="10.6040723"><ele>431.0</ele><time>2026-04-25T12:44:35.844Z</time></trkpt><trkpt lat="45.890123" lon="10.6039076"><ele>431.0</ele><time>2026-04-25T12:44:36.828Z</time></trkpt><trkpt lat="45.8898906" lon="10.6037321"><ele>431.0</ele><time>2026-04-25T12:44:37.84Z</time></trkpt><trkpt lat="45.8896736" lon="10.6035728"><ele>431.0</ele><time>2026-04-25T12:44:38.842Z</time></trkpt><trkpt lat="45.8894536" lon="10.6034151"><ele>431.0</ele><time>2026-04-25T12:44:39.835Z</time></trkpt><trkpt lat="45.8892372" lon="10.6032555"><ele>429.5</ele><time>2026-04-25T12:44:40.838Z</time></trkpt><trkpt lat="45.8890197" lon="10.6030956"><ele>428.0</ele><time>2026-04-25T12:44:41.846Z</time></trkpt><trkpt lat="45.8888095" lon="10.6029372"><ele>428.5</ele><time>2026-04-25T12:44:42.848Z</time></trkpt><trkpt lat="45.8885954" lon="10.6027832"><ele>429.0</ele><time>2026-04-25T12:44:43.841Z</time></trkpt><trkpt lat="45.8883786" lon="10.6026298"><ele>429.0</ele><time>2026-04-25T12:44:44.858Z</time></trkpt><trkpt lat="45.8881811" lon="10.6024897"><ele>429.0</ele><time>2026-04-25T12:44:45.847Z</time></trkpt><trkpt lat="45.887988" lon="10.6023567"><ele>429.0</ele><time>2026-04-25T12:44:46.842Z</time></trkpt><trkpt lat="45.8877914" lon="10.6022138"><ele>429.0</ele><time>2026-04-25T12:44:47.856Z</time></trkpt><trkpt lat="45.8876003" lon="10.6020752"><ele>429.0</ele><time>2026-04-25T12:44:48.836Z</time></trkpt><trkpt lat="45.8874037" lon="10.6019322"><ele>429.0</ele><time>2026-04-25T12:44:49.842Z</time></trkpt><trkpt lat="45.8872071" lon="10.6017843"><ele>428.0</ele><time>2026-04-25T12:44:50.82Z</time></trkpt><trkpt lat="45.8870105" lon="10.6016355"><ele>427.0</ele><time>2026-04-25T12:44:51.829Z</time></trkpt><trkpt lat="45.8868079" lon="10.6014686"><ele>426.5</ele><time>2026-04-25T12:44:52.843Z</time></trkpt><trkpt lat="45.8866104" lon="10.6012933"><ele>426.0</ele><time>2026-04-25T12:44:53.832Z</time></trkpt><trkpt lat="45.8864284" lon="10.6011106"><ele>427.0</ele><time>2026-04-25T12:44:54.807Z</time></trkpt><trkpt lat="45.8862394" lon="10.6009072"><ele>428.0</ele><time>2026-04-25T12:44:55.835Z</time></trkpt><trkpt lat="45.8860592" lon="10.6007133"><ele>428.0</ele><time>2026-04-25T12:44:56.841Z</time></trkpt><trkpt lat="45.8858898" lon="10.6005289"><ele>428.0</ele><time>2026-04-25T12:44:57.829Z</time></trkpt><trkpt lat="45.8857165" lon="10.6003484"><ele>428.0</ele><time>2026-04-25T12:44:58.831Z</time></trkpt><trkpt lat="45.8855474" lon="10.600164"><ele>427.66666666666663</ele><time>2026-04-25T12:44:59.854Z</time></trkpt><trkpt lat="45.8853837" lon="10.59999"><ele>427.33333333333337</ele><time>2026-04-25T12:45:00.834Z</time></trkpt><trkpt lat="45.8852166" lon="10.5998179"><ele>427.0</ele><time>2026-04-25T12:45:01.816Z</time></trkpt><trkpt lat="45.8850351" lon="10.599637"><ele>428.0</ele><time>2026-04-25T12:45:02.868Z</time></trkpt><trkpt lat="45.8848656" lon="10.5994822"><ele>429.0</ele><time>2026-04-25T12:45:03.825Z</time></trkpt><trkpt lat="45.884686" lon="10.5993356"><ele>430.0</ele><time>2026-04-25T12:45:04.813Z</time></trkpt><trkpt lat="45.8844918" lon="10.5991945"><ele>430.0</ele><time>2026-04-25T12:45:05.839Z</time></trkpt><trkpt lat="45.8843004" lon="10.5990692"><ele>430.0</ele><time>2026-04-25T12:45:06.826Z</time></trkpt><trkpt lat="45.8840973" lon="10.5989456"><ele>430.0</ele><time>2026-04-25T12:45:07.857Z</time></trkpt><trkpt lat="45.8838966" lon="10.5988281"><ele>428.0</ele><time>2026-04-25T12:45:08.83Z</time></trkpt><trkpt lat="45.8836829" lon="10.5987063"><ele>426.0</ele><time>2026-04-25T12:45:09.833Z</time></trkpt><trkpt lat="45.8834531" lon="10.5985719"><ele>424.0</ele><time>2026-04-25T12:45:10.834Z</time></trkpt><trkpt lat="45.8832099" lon="10.5984316"><ele>422.0</ele><time>2026-04-25T12:45:11.839Z</time></trkpt><trkpt lat="45.8829535" lon="10.5982778"><ele>422.0</ele><time>2026-04-25T12:45:12.846Z</time></trkpt><trkpt lat="45.8826864" lon="10.5981157"><ele>422.0</ele><time>2026-04-25T12:45:13.849Z</time></trkpt><trkpt lat="45.8824166" lon="10.5979385"><ele>422.0</ele><time>2026-04-25T12:45:14.842Z</time></trkpt><trkpt lat="45.8821368" lon="10.5977557"><ele>422.0</ele><time>2026-04-25T12:45:15.854Z</time></trkpt><trkpt lat="45.8818746" lon="10.5975924"><ele>421.5</ele><time>2026-04-25T12:45:16.83Z</time></trkpt><trkpt lat="45.8816177" lon="10.5974358"><ele>421.0</ele><time>2026-04-25T12:45:17.831Z</time></trkpt><trkpt lat="45.8813706" lon="10.5972848"><ele>421.0</ele><time>2026-04-25T12:45:18.85Z</time></trkpt><trkpt lat="45.8811327" lon="10.5971439"><ele>421.0</ele><time>2026-04-25T12:45:19.847Z</time></trkpt><trkpt lat="45.8809026" lon="10.5969995"><ele>420.0</ele><time>2026-04-25T12:45:20.843Z</time></trkpt><trkpt lat="45.8806688" lon="10.596854"><ele>419.0</ele><time>2026-04-25T12:45:21.83Z</time></trkpt><trkpt lat="45.8804343" lon="10.5967084"><ele>419.0</ele><time>2026-04-25T12:45:22.83Z</time></trkpt><trkpt lat="45.8801978" lon="10.5965599"><ele>419.0</ele><time>2026-04-25T12:45:23.838Z</time></trkpt><trkpt lat="45.8799609" lon="10.5964019"><ele>418.5</ele><time>2026-04-25T12:45:24.849Z</time></trkpt><trkpt lat="45.8797346" lon="10.5962343"><ele>418.0</ele><time>2026-04-25T12:45:25.838Z</time></trkpt><trkpt lat="45.8795117" lon="10.5960463"><ele>417.5</ele><time>2026-04-25T12:45:26.85Z</time></trkpt><trkpt lat="45.8793" lon="10.5958455"><ele>417.0</ele><time>2026-04-25T12:45:27.846Z</time></trkpt><trkpt lat="45.8791024" lon="10.5956374"><ele>417.0</ele><time>2026-04-25T12:45:28.807Z</time></trkpt><trkpt lat="45.87891" lon="10.5954093"><ele>417.0</ele><time>2026-04-25T12:45:29.785Z</time></trkpt><trkpt lat="45.8787146" lon="10.5951608"><ele>416.5</ele><time>2026-04-25T12:45:30.791Z</time></trkpt><trkpt lat="45.8785287" lon="10.5949006"><ele>416.0</ele><time>2026-04-25T12:45:31.815Z</time></trkpt><trkpt lat="45.8783556" lon="10.5946281"><ele>415.5</ele><time>2026-04-25T12:45:32.818Z</time></trkpt><trkpt lat="45.8781864" lon="10.5943475"><ele>415.0</ele><time>2026-04-25T12:45:33.82Z</time></trkpt><trkpt lat="45.8780275" lon="10.5940508"><ele>415.0</ele><time>2026-04-25T12:45:34.833Z</time></trkpt><trkpt lat="45.8778818" lon="10.5937472"><ele>415.0</ele><time>2026-04-25T12:45:35.819Z</time></trkpt><trkpt lat="45.8777416" lon="10.5934262"><ele>414.5</ele><time>2026-04-25T12:45:36.844Z</time></trkpt><trkpt lat="45.8776135" lon="10.5931118"><ele>414.0</ele><time>2026-04-25T12:45:37.824Z</time></trkpt><trkpt lat="45.8774883" lon="10.5927849"><ele>414.0</ele><time>2026-04-25T12:45:38.844Z</time></trkpt><trkpt lat="45.8773697" lon="10.5924875"><ele>414.0</ele><time>2026-04-25T12:45:39.839Z</time></trkpt><trkpt lat="45.8772588" lon="10.5922082"><ele>414.0</ele><time>2026-04-25T12:45:40.836Z</time></trkpt><trkpt lat="45.8771582" lon="10.5919496"><ele>414.0</ele><time>2026-04-25T12:45:41.829Z</time></trkpt><trkpt lat="45.8770592" lon="10.5917033"><ele>414.0</ele><time>2026-04-25T12:45:42.818Z</time></trkpt><trkpt lat="45.8769582" lon="10.5914784"><ele>414.0</ele><time>2026-04-25T12:45:43.817Z</time></trkpt><trkpt lat="45.8768509" lon="10.5912774"><ele>414.0</ele><time>2026-04-25T12:45:44.842Z</time></trkpt><trkpt lat="45.8767421" lon="10.5910992"><ele>414.0</ele><time>2026-04-25T12:45:45.86Z</time></trkpt><trkpt lat="45.8766401" lon="10.590949"><ele>413.75</ele><time>2026-04-25T12:45:46.834Z</time></trkpt><trkpt lat="45.8765427" lon="10.5908243"><ele>413.5</ele><time>2026-04-25T12:45:47.794Z</time></trkpt><trkpt lat="45.8764451" lon="10.5907111"><ele>413.25</ele><time>2026-04-25T12:45:48.797Z</time></trkpt><trkpt lat="45.8763509" lon="10.5906165"><ele>413.0</ele><time>2026-04-25T12:45:49.785Z</time></trkpt><trkpt lat="45.8762633" lon="10.5905311"><ele>412.99999999999994</ele><time>2026-04-25T12:45:50.796Z</time></trkpt><trkpt lat="45.8761886" lon="10.5904473"><ele>413.0</ele><time>2026-04-25T12:45:51.793Z</time></trkpt><trkpt lat="45.8761308" lon="10.5903508"><ele>413.0</ele><time>2026-04-25T12:45:52.806Z</time></trkpt><trkpt lat="45.8760983" lon="10.590242"><ele>413.0</ele><time>2026-04-25T12:45:53.801Z</time></trkpt><trkpt lat="45.8760955" lon="10.5901207"><ele>412.99999999999994</ele><time>2026-04-25T12:45:54.796Z</time></trkpt><trkpt lat="45.8761069" lon="10.5899841"><ele>413.0</ele><time>2026-04-25T12:45:55.803Z</time></trkpt><trkpt lat="45.8761125" lon="10.5898498"><ele>413.2</ele><time>2026-04-25T12:45:56.786Z</time></trkpt><trkpt lat="45.8760926" lon="10.5897159"><ele>413.4</ele><time>2026-04-25T12:45:57.795Z</time></trkpt><trkpt lat="45.8760467" lon="10.5895932"><ele>413.59999999999997</ele><time>2026-04-25T12:45:58.783Z</time></trkpt><trkpt lat="45.8759634" lon="10.5894779"><ele>413.79999999999995</ele><time>2026-04-25T12:45:59.79Z</time></trkpt><trkpt lat="45.8758482" lon="10.5893707"><ele>414.0</ele><time>2026-04-25T12:46:00.785Z</time></trkpt><trkpt lat="45.8756995" lon="10.5892693"><ele>414.0</ele><time>2026-04-25T12:46:01.825Z</time></trkpt><trkpt lat="45.8755456" lon="10.5891631"><ele>414.0</ele><time>2026-04-25T12:46:02.849Z</time></trkpt><trkpt lat="45.8753858" lon="10.5890457"><ele>414.0</ele><time>2026-04-25T12:46:03.832Z</time></trkpt><trkpt lat="45.8752155" lon="10.588907"><ele>413.33333333333337</ele><time>2026-04-25T12:46:04.838Z</time></trkpt><trkpt lat="45.875035" lon="10.588766"><ele>412.6666666666667</ele><time>2026-04-25T12:46:05.838Z</time></trkpt><trkpt lat="45.8748465" lon="10.5886323"><ele>412.0</ele><time>2026-04-25T12:46:06.832Z</time></trkpt><trkpt lat="45.874645" lon="10.5884962"><ele>412.6666666666667</ele><time>2026-04-25T12:46:07.845Z</time></trkpt><trkpt lat="45.8744464" lon="10.5883659"><ele>413.33333333333337</ele><time>2026-04-25T12:46:08.833Z</time></trkpt><trkpt lat="45.8742426" lon="10.5882288"><ele>414.0</ele><time>2026-04-25T12:46:09.847Z</time></trkpt><trkpt lat="45.874055" lon="10.5880991"><ele>414.0</ele><time>2026-04-25T12:46:10.824Z</time></trkpt><trkpt lat="45.873874" lon="10.5879707"><ele>414.0</ele><time>2026-04-25T12:46:11.832Z</time></trkpt><trkpt lat="45.873699" lon="10.5878479"><ele>414.0</ele><time>2026-04-25T12:46:12.854Z</time></trkpt><trkpt lat="45.8735372" lon="10.5877293"><ele>414.33333333333337</ele><time>2026-04-25T12:46:13.845Z</time></trkpt><trkpt lat="45.8733734" lon="10.5876141"><ele>414.6666666666667</ele><time>2026-04-25T12:46:14.857Z</time></trkpt><trkpt lat="45.8732181" lon="10.5875065"><ele>415.0</ele><time>2026-04-25T12:46:15.839Z</time></trkpt><trkpt lat="45.8730639" lon="10.5873996"><ele>415.0</ele><time>2026-04-25T12:46:16.869Z</time></trkpt><trkpt lat="45.8729237" lon="10.5873008"><ele>415.0</ele><time>2026-04-25T12:46:17.84Z</time></trkpt><trkpt lat="45.8727797" lon="10.587197"><ele>415.0</ele><time>2026-04-25T12:46:18.856Z</time></trkpt><trkpt lat="45.8726362" lon="10.5870923"><ele>415.33333333333337</ele><time>2026-04-25T12:46:19.864Z</time></trkpt><trkpt lat="45.8724974" lon="10.5869899"><ele>415.66666666666663</ele><time>2026-04-25T12:46:20.827Z</time></trkpt><trkpt lat="45.8723546" lon="10.586893"><ele>416.0</ele><time>2026-04-25T12:46:21.792Z</time></trkpt><trkpt lat="45.8722021" lon="10.5867877"><ele>416.0</ele><time>2026-04-25T12:46:22.823Z</time></trkpt><trkpt lat="45.8720521" lon="10.5866818"><ele>416.0</ele><time>2026-04-25T12:46:23.835Z</time></trkpt><trkpt lat="45.8719018" lon="10.5865729"><ele>416.0</ele><time>2026-04-25T12:46:24.833Z</time></trkpt><trkpt lat="45.8717495" lon="10.5864671"><ele>415.0</ele><time>2026-04-25T12:46:25.812Z</time></trkpt><trkpt lat="45.8715937" lon="10.586354"><ele>414.0</ele><time>2026-04-25T12:46:26.835Z</time></trkpt><trkpt lat="45.8714487" lon="10.5862468"><ele>413.0</ele><time>2026-04-25T12:46:27.801Z</time></trkpt><trkpt lat="45.871287" lon="10.5861287"><ele>413.0</ele><time>2026-04-25T12:46:28.85Z</time></trkpt><trkpt lat="45.8711412" lon="10.5860243"><ele>413.0</ele><time>2026-04-25T12:46:29.798Z</time></trkpt><trkpt lat="45.8709838" lon="10.5859133"><ele>413.0</ele><time>2026-04-25T12:46:30.807Z</time></trkpt><trkpt lat="45.870829" lon="10.5857953"><ele>411.0</ele><time>2026-04-25T12:46:31.813Z</time></trkpt><trkpt lat="45.8706723" lon="10.5856681"><ele>409.0</ele><time>2026-04-25T12:46:32.821Z</time></trkpt><trkpt lat="45.8705172" lon="10.5855279"><ele>407.0</ele><time>2026-04-25T12:46:33.842Z</time></trkpt><trkpt lat="45.8703693" lon="10.5853798"><ele>407.0</ele><time>2026-04-25T12:46:34.822Z</time></trkpt><trkpt lat="45.8702231" lon="10.58522"><ele>407.0</ele><time>2026-04-25T12:46:35.845Z</time></trkpt><trkpt lat="45.8700824" lon="10.5850509"><ele>407.0</ele><time>2026-04-25T12:46:36.84Z</time></trkpt><trkpt lat="45.8699449" lon="10.5848776"><ele>407.0</ele><time>2026-04-25T12:46:37.826Z</time></trkpt><trkpt lat="45.8698045" lon="10.5846941"><ele>407.0</ele><time>2026-04-25T12:46:38.834Z</time></trkpt><trkpt lat="45.8696662" lon="10.5845082"><ele>407.0</ele><time>2026-04-25T12:46:39.839Z</time></trkpt><trkpt lat="45.8695352" lon="10.584319"><ele>407.0</ele><time>2026-04-25T12:46:40.87Z</time></trkpt><trkpt lat="45.8694177" lon="10.5841436"><ele>407.0</ele><time>2026-04-25T12:46:41.851Z</time></trkpt><trkpt lat="45.8692997" lon="10.5839697"><ele>407.0</ele><time>2026-04-25T12:46:42.835Z</time></trkpt><trkpt lat="45.8691775" lon="10.5837914"><ele>406.3333333333333</ele><time>2026-04-25T12:46:43.842Z</time></trkpt><trkpt lat="45.8690538" lon="10.5836128"><ele>405.66666666666663</ele><time>2026-04-25T12:46:44.819Z</time></trkpt><trkpt lat="45.8689231" lon="10.5834188"><ele>405.0</ele><time>2026-04-25T12:46:45.844Z</time></trkpt><trkpt lat="45.8687958" lon="10.5832273"><ele>405.0</ele><time>2026-04-25T12:46:46.834Z</time></trkpt><trkpt lat="45.8686605" lon="10.5830335"><ele>405.0</ele><time>2026-04-25T12:46:47.844Z</time></trkpt><trkpt lat="45.8685303" lon="10.5828435"><ele>405.0</ele><time>2026-04-25T12:46:48.802Z</time></trkpt><trkpt lat="45.8683818" lon="10.5826294"><ele>404.66666666666663</ele><time>2026-04-25T12:46:49.84Z</time></trkpt><trkpt lat="45.8682402" lon="10.5824195"><ele>404.3333333333333</ele><time>2026-04-25T12:46:50.821Z</time></trkpt><trkpt lat="45.8680913" lon="10.5822003"><ele>404.0</ele><time>2026-04-25T12:46:51.834Z</time></trkpt><trkpt lat="45.867941" lon="10.5819805"><ele>403.66666666666663</ele><time>2026-04-25T12:46:52.838Z</time></trkpt><trkpt lat="45.8677888" lon="10.5817573"><ele>403.33333333333337</ele><time>2026-04-25T12:46:53.828Z</time></trkpt><trkpt lat="45.8676286" lon="10.5815227"><ele>403.0</ele><time>2026-04-25T12:46:54.852Z</time></trkpt><trkpt lat="45.8674752" lon="10.58129"><ele>402.0</ele><time>2026-04-25T12:46:55.839Z</time></trkpt><trkpt lat="45.8673133" lon="10.5810515"><ele>401.0</ele><time>2026-04-25T12:46:56.844Z</time></trkpt><trkpt lat="45.8671506" lon="10.5808119"><ele>401.0</ele><time>2026-04-25T12:46:57.843Z</time></trkpt><trkpt lat="45.8669865" lon="10.5805728"><ele>401.0</ele><time>2026-04-25T12:46:58.864Z</time></trkpt><trkpt lat="45.8668286" lon="10.5803439"><ele>401.0</ele><time>2026-04-25T12:46:59.829Z</time></trkpt><trkpt lat="45.8666751" lon="10.5801213"><ele>401.0</ele><time>2026-04-25T12:47:00.81Z</time></trkpt><trkpt lat="45.8665189" lon="10.5798906"><ele>401.0</ele><time>2026-04-25T12:47:01.835Z</time></trkpt><trkpt lat="45.866376" lon="10.579667"><ele>400.66666666666663</ele><time>2026-04-25T12:47:02.834Z</time></trkpt><trkpt lat="45.86623" lon="10.5794491"><ele>400.33333333333337</ele><time>2026-04-25T12:47:03.847Z</time></trkpt><trkpt lat="45.8660938" lon="10.5792494"><ele>400.0</ele><time>2026-04-25T12:47:04.829Z</time></trkpt><trkpt lat="45.8659547" lon="10.5790508"><ele>399.6666666666667</ele><time>2026-04-25T12:47:05.833Z</time></trkpt><trkpt lat="45.8658162" lon="10.5788482"><ele>399.33333333333337</ele><time>2026-04-25T12:47:06.848Z</time></trkpt><trkpt lat="45.8656836" lon="10.5786482"><ele>399.0</ele><time>2026-04-25T12:47:07.843Z</time></trkpt><trkpt lat="45.865546" lon="10.5784422"><ele>399.0</ele><time>2026-04-25T12:47:08.832Z</time></trkpt><trkpt lat="45.8654043" lon="10.5782333"><ele>399.0</ele><time>2026-04-25T12:47:09.832Z</time></trkpt><trkpt lat="45.8652615" lon="10.5780272"><ele>399.0</ele><time>2026-04-25T12:47:10.844Z</time></trkpt><trkpt lat="45.8651237" lon="10.5778234"><ele>399.66666666666663</ele><time>2026-04-25T12:47:11.835Z</time></trkpt><trkpt lat="45.8649783" lon="10.5776158"><ele>400.3333333333333</ele><time>2026-04-25T12:47:12.832Z</time></trkpt><trkpt lat="45.8648352" lon="10.5774127"><ele>401.0</ele><time>2026-04-25T12:47:13.814Z</time></trkpt><trkpt lat="45.8646821" lon="10.5772035"><ele>401.66666666666663</ele><time>2026-04-25T12:47:14.84Z</time></trkpt><trkpt lat="45.8645293" lon="10.5770046"><ele>402.33333333333337</ele><time>2026-04-25T12:47:15.835Z</time></trkpt><trkpt lat="45.8643652" lon="10.5768185"><ele>403.0</ele><time>2026-04-25T12:47:16.83Z</time></trkpt><trkpt lat="45.8641888" lon="10.5766394"><ele>403.0</ele><time>2026-04-25T12:47:17.851Z</time></trkpt><trkpt lat="45.8640152" lon="10.5764743"><ele>403.0</ele><time>2026-04-25T12:47:18.841Z</time></trkpt><trkpt lat="45.863836" lon="10.5763173"><ele>403.0</ele><time>2026-04-25T12:47:19.837Z</time></trkpt><trkpt lat="45.8636516" lon="10.5761567"><ele>403.0</ele><time>2026-04-25T12:47:20.85Z</time></trkpt><trkpt lat="45.8634675" lon="10.5759982"><ele>403.0</ele><time>2026-04-25T12:47:21.831Z</time></trkpt><trkpt lat="45.8632795" lon="10.5758351"><ele>403.0</ele><time>2026-04-25T12:47:22.841Z</time></trkpt><trkpt lat="45.8630947" lon="10.5756739"><ele>403.0</ele><time>2026-04-25T12:47:23.833Z</time></trkpt><trkpt lat="45.8629037" lon="10.575504"><ele>403.0</ele><time>2026-04-25T12:47:24.847Z</time></trkpt><trkpt lat="45.8627179" lon="10.5753341"><ele>403.0</ele><time>2026-04-25T12:47:25.845Z</time></trkpt><trkpt lat="45.8625382" lon="10.5751574"><ele>403.33333333333337</ele><time>2026-04-25T12:47:26.838Z</time></trkpt><trkpt lat="45.8623665" lon="10.574975"><ele>403.66666666666663</ele><time>2026-04-25T12:47:27.813Z</time></trkpt><trkpt lat="45.8621934" lon="10.5747704"><ele>404.0</ele><time>2026-04-25T12:47:28.833Z</time></trkpt><trkpt lat="45.862029" lon="10.5745593"><ele>403.66666666666663</ele><time>2026-04-25T12:47:29.837Z</time></trkpt><trkpt lat="45.861864" lon="10.5743343"><ele>403.33333333333337</ele><time>2026-04-25T12:47:30.86Z</time></trkpt><trkpt lat="45.8617112" lon="10.574108"><ele>403.0</ele><time>2026-04-25T12:47:31.847Z</time></trkpt><trkpt lat="45.8615622" lon="10.5738707"><ele>403.0</ele><time>2026-04-25T12:47:32.854Z</time></trkpt><trkpt lat="45.8614245" lon="10.5736275"><ele>403.0</ele><time>2026-04-25T12:47:33.832Z</time></trkpt><trkpt lat="45.8612915" lon="10.5733757"><ele>403.0</ele><time>2026-04-25T12:47:34.846Z</time></trkpt><trkpt lat="45.8611714" lon="10.5731425"><ele>403.0</ele><time>2026-04-25T12:47:35.835Z</time></trkpt><trkpt lat="45.8610511" lon="10.5729117"><ele>403.0</ele><time>2026-04-25T12:47:36.858Z</time></trkpt><trkpt lat="45.8609415" lon="10.5727045"><ele>403.0</ele><time>2026-04-25T12:47:37.824Z</time></trkpt><trkpt lat="45.8608343" lon="10.5724939"><ele>402.6666666666667</ele><time>2026-04-25T12:47:38.826Z</time></trkpt><trkpt lat="45.8607285" lon="10.572293"><ele>402.33333333333337</ele><time>2026-04-25T12:47:39.831Z</time></trkpt><trkpt lat="45.8606223" lon="10.572094"><ele>402.0</ele><time>2026-04-25T12:47:40.853Z</time></trkpt><trkpt lat="45.860523" lon="10.5719056"><ele>402.0</ele><time>2026-04-25T12:47:41.858Z</time></trkpt><trkpt lat="45.8604334" lon="10.5717277"><ele>402.0</ele><time>2026-04-25T12:47:42.843Z</time></trkpt><trkpt lat="45.8603462" lon="10.5715568"><ele>402.0</ele><time>2026-04-25T12:47:43.837Z</time></trkpt><trkpt lat="45.8602608" lon="10.5713972"><ele>402.0</ele><time>2026-04-25T12:47:44.83Z</time></trkpt><trkpt lat="45.8601865" lon="10.5712539"><ele>401.40000000000003</ele><time>2026-04-25T12:47:45.826Z</time></trkpt><trkpt lat="45.860116" lon="10.5711229"><ele>400.8</ele><time>2026-04-25T12:47:46.833Z</time></trkpt><trkpt lat="45.8600459" lon="10.5709972"><ele>400.2</ele><time>2026-04-25T12:47:47.845Z</time></trkpt><trkpt lat="45.8599802" lon="10.5708778"><ele>399.6</ele><time>2026-04-25T12:47:48.842Z</time></trkpt><trkpt lat="45.8599243" lon="10.5707719"><ele>399.0</ele><time>2026-04-25T12:47:49.83Z</time></trkpt><trkpt lat="45.8598729" lon="10.5706709"><ele>399.0</ele><time>2026-04-25T12:47:50.815Z</time></trkpt><trkpt lat="45.8598225" lon="10.5705685"><ele>399.0</ele><time>2026-04-25T12:47:51.848Z</time></trkpt><trkpt lat="45.8597754" lon="10.5704657"><ele>399.0</ele><time>2026-04-25T12:47:52.859Z</time></trkpt><trkpt lat="45.8597407" lon="10.5703553"><ele>399.0</ele><time>2026-04-25T12:47:53.842Z</time></trkpt><trkpt lat="45.8597258" lon="10.5702257"><ele>399.0</ele><time>2026-04-25T12:47:54.83Z</time></trkpt><trkpt lat="45.8597216" lon="10.5700784"><ele>399.2</ele><time>2026-04-25T12:47:55.836Z</time></trkpt><trkpt lat="45.8597131" lon="10.5699401"><ele>399.4</ele><time>2026-04-25T12:47:56.818Z</time></trkpt><trkpt lat="45.8596899" lon="10.5698111"><ele>399.6</ele><time>2026-04-25T12:47:57.847Z</time></trkpt><trkpt lat="45.8596438" lon="10.5696982"><ele>399.8</ele><time>2026-04-25T12:47:58.857Z</time></trkpt><trkpt lat="45.8595787" lon="10.5696161"><ele>400.0</ele><time>2026-04-25T12:47:59.858Z</time></trkpt><trkpt lat="45.859488" lon="10.5695611"><ele>401.0</ele><time>2026-04-25T12:48:00.831Z</time></trkpt><trkpt lat="45.8593818" lon="10.5695139"><ele>402.0</ele><time>2026-04-25T12:48:01.834Z</time></trkpt><trkpt lat="45.859268" lon="10.5694462"><ele>403.0</ele><time>2026-04-25T12:48:02.82Z</time></trkpt><trkpt lat="45.859148" lon="10.5693348"><ele>404.0</ele><time>2026-04-25T12:48:03.84Z</time></trkpt><trkpt lat="45.8590301" lon="10.5691756"><ele>401.66666666666663</ele><time>2026-04-25T12:48:04.841Z</time></trkpt><trkpt lat="45.8589085" lon="10.5689859"><ele>399.33333333333337</ele><time>2026-04-25T12:48:05.818Z</time></trkpt><trkpt lat="45.8587741" lon="10.56878"><ele>397.0</ele><time>2026-04-25T12:48:06.833Z</time></trkpt><trkpt lat="45.8586282" lon="10.5685478"><ele>397.0</ele><time>2026-04-25T12:48:07.836Z</time></trkpt><trkpt lat="45.8584744" lon="10.568296"><ele>397.0</ele><time>2026-04-25T12:48:08.852Z</time></trkpt><trkpt lat="45.8583221" lon="10.568033"><ele>395.5</ele><time>2026-04-25T12:48:09.845Z</time></trkpt><trkpt lat="45.858155" lon="10.5677634"><ele>394.0</ele><time>2026-04-25T12:48:10.849Z</time></trkpt><trkpt lat="45.8579784" lon="10.5674868"><ele>394.0</ele><time>2026-04-25T12:48:11.846Z</time></trkpt><trkpt lat="45.8578143" lon="10.5672206"><ele>394.0</ele><time>2026-04-25T12:48:12.84Z</time></trkpt><trkpt lat="45.8576539" lon="10.5669705"><ele>396.0</ele><time>2026-04-25T12:48:13.814Z</time></trkpt><trkpt lat="45.8574932" lon="10.5667138"><ele>398.0</ele><time>2026-04-25T12:48:14.854Z</time></trkpt><trkpt lat="45.8573513" lon="10.5664905"><ele>398.0</ele><time>2026-04-25T12:48:15.83Z</time></trkpt><trkpt lat="45.8572066" lon="10.5662847"><ele>398.0</ele><time>2026-04-25T12:48:16.821Z</time></trkpt><trkpt lat="45.8570456" lon="10.5660936"><ele>398.0</ele><time>2026-04-25T12:48:17.855Z</time></trkpt><trkpt lat="45.8568801" lon="10.5659257"><ele>398.66666666666663</ele><time>2026-04-25T12:48:18.848Z</time></trkpt><trkpt lat="45.8567026" lon="10.5657718"><ele>399.33333333333337</ele><time>2026-04-25T12:48:19.861Z</time></trkpt><trkpt lat="45.8565184" lon="10.5656385"><ele>400.0</ele><time>2026-04-25T12:48:20.853Z</time></trkpt><trkpt lat="45.8563399" lon="10.5655345"><ele>400.0</ele><time>2026-04-25T12:48:21.829Z</time></trkpt><trkpt lat="45.8561512" lon="10.5654497"><ele>400.0</ele><time>2026-04-25T12:48:22.831Z</time></trkpt><trkpt lat="45.8559616" lon="10.5653774"><ele>400.0</ele><time>2026-04-25T12:48:23.816Z</time></trkpt><trkpt lat="45.8557576" lon="10.5653151"><ele>401.6666666666667</ele><time>2026-04-25T12:48:24.823Z</time></trkpt><trkpt lat="45.8555487" lon="10.5652582"><ele>403.33333333333337</ele><time>2026-04-25T12:48:25.843Z</time></trkpt><trkpt lat="45.8553415" lon="10.5652102"><ele>405.0</ele><time>2026-04-25T12:48:26.827Z</time></trkpt><trkpt lat="45.8551239" lon="10.5651619"><ele>405.33333333333337</ele><time>2026-04-25T12:48:27.854Z</time></trkpt><trkpt lat="45.8549082" lon="10.5651107"><ele>405.6666666666667</ele><time>2026-04-25T12:48:28.847Z</time></trkpt><trkpt lat="45.8546964" lon="10.5650619"><ele>406.0</ele><time>2026-04-25T12:48:29.83Z</time></trkpt><trkpt lat="45.85447" lon="10.5650064"><ele>404.5</ele><time>2026-04-25T12:48:30.85Z</time></trkpt><trkpt lat="45.8542491" lon="10.5649502"><ele>403.0</ele><time>2026-04-25T12:48:31.827Z</time></trkpt><trkpt lat="45.8540208" lon="10.5648953"><ele>403.0</ele><time>2026-04-25T12:48:32.838Z</time></trkpt><trkpt lat="45.8537962" lon="10.5648395"><ele>403.0</ele><time>2026-04-25T12:48:33.838Z</time></trkpt><trkpt lat="45.8535769" lon="10.5647833"><ele>402.0</ele><time>2026-04-25T12:48:34.843Z</time></trkpt><trkpt lat="45.8533657" lon="10.5647233"><ele>401.0</ele><time>2026-04-25T12:48:35.832Z</time></trkpt><trkpt lat="45.8531538" lon="10.5646671"><ele>400.0</ele><time>2026-04-25T12:48:36.829Z</time></trkpt><trkpt lat="45.8529365" lon="10.5646089"><ele>400.0</ele><time>2026-04-25T12:48:37.844Z</time></trkpt><trkpt lat="45.8527209" lon="10.5645509"><ele>400.0</ele><time>2026-04-25T12:48:38.829Z</time></trkpt><trkpt lat="45.852502" lon="10.5644935"><ele>400.0</ele><time>2026-04-25T12:48:39.838Z</time></trkpt><trkpt lat="45.8522963" lon="10.5644393"><ele>400.6666666666667</ele><time>2026-04-25T12:48:40.844Z</time></trkpt><trkpt lat="45.8521063" lon="10.5643901"><ele>401.33333333333337</ele><time>2026-04-25T12:48:41.82Z</time></trkpt><trkpt lat="45.8519185" lon="10.5643351"><ele>402.0</ele><time>2026-04-25T12:48:42.84Z</time></trkpt><trkpt lat="45.851748" lon="10.5642735"><ele>400.0</ele><time>2026-04-25T12:48:43.851Z</time></trkpt><trkpt lat="45.8515917" lon="10.5641965"><ele>398.0</ele><time>2026-04-25T12:48:44.851Z</time></trkpt><trkpt lat="45.851439" lon="10.5641026"><ele>396.0</ele><time>2026-04-25T12:48:45.844Z</time></trkpt><trkpt lat="45.8512957" lon="10.563992"><ele>396.0</ele><time>2026-04-25T12:48:46.845Z</time></trkpt><trkpt lat="45.8511599" lon="10.5638698"><ele>396.0</ele><time>2026-04-25T12:48:47.835Z</time></trkpt><trkpt lat="45.851035" lon="10.5637361"><ele>396.0</ele><time>2026-04-25T12:48:48.84Z</time></trkpt><trkpt lat="45.8509145" lon="10.56359"><ele>395.0</ele><time>2026-04-25T12:48:49.84Z</time></trkpt><trkpt lat="45.8508084" lon="10.5634345"><ele>394.0</ele><time>2026-04-25T12:48:50.841Z</time></trkpt><trkpt lat="45.8507055" lon="10.5632645"><ele>393.0</ele><time>2026-04-25T12:48:51.85Z</time></trkpt><trkpt lat="45.8506084" lon="10.5630792"><ele>394.0</ele><time>2026-04-25T12:48:52.831Z</time></trkpt><trkpt lat="45.8505102" lon="10.5628616"><ele>395.0</ele><time>2026-04-25T12:48:53.86Z</time></trkpt><trkpt lat="45.8504173" lon="10.5626346"><ele>396.0</ele><time>2026-04-25T12:48:54.843Z</time></trkpt><trkpt lat="45.8503237" lon="10.5623899"><ele>396.0</ele><time>2026-04-25T12:48:55.847Z</time></trkpt><trkpt lat="45.8502272" lon="10.5621405"><ele>396.0</ele><time>2026-04-25T12:48:56.855Z</time></trkpt><trkpt lat="45.850125" lon="10.5618991"><ele>396.0</ele><time>2026-04-25T12:48:57.842Z</time></trkpt><trkpt lat="45.8500257" lon="10.5616595"><ele>394.0</ele><time>2026-04-25T12:48:58.85Z</time></trkpt><trkpt lat="45.849935" lon="10.5614274"><ele>392.0</ele><time>2026-04-25T12:48:59.838Z</time></trkpt><trkpt lat="45.8498491" lon="10.5612153"><ele>390.0</ele><time>2026-04-25T12:49:00.791Z</time></trkpt><trkpt lat="45.8497597" lon="10.5609967"><ele>390.0</ele><time>2026-04-25T12:49:01.805Z</time></trkpt><trkpt lat="45.8496737" lon="10.5607837"><ele>390.0</ele><time>2026-04-25T12:49:02.82Z</time></trkpt><trkpt lat="45.8495847" lon="10.5605638"><ele>390.0</ele><time>2026-04-25T12:49:03.855Z</time></trkpt><trkpt lat="45.8494964" lon="10.5603423"><ele>390.33333333333337</ele><time>2026-04-25T12:49:04.846Z</time></trkpt><trkpt lat="45.8494048" lon="10.5601152"><ele>390.6666666666667</ele><time>2026-04-25T12:49:05.839Z</time></trkpt><trkpt lat="45.8493077" lon="10.5598867"><ele>391.0</ele><time>2026-04-25T12:49:06.831Z</time></trkpt><trkpt lat="45.8492065" lon="10.5596461"><ele>391.0</ele><time>2026-04-25T12:49:07.845Z</time></trkpt><trkpt lat="45.8491095" lon="10.5594142"><ele>391.0</ele><time>2026-04-25T12:49:08.846Z</time></trkpt><trkpt lat="45.8490244" lon="10.5591885"><ele>391.0</ele><time>2026-04-25T12:49:09.84Z</time></trkpt><trkpt lat="45.8489399" lon="10.5589631"><ele>391.0</ele><time>2026-04-25T12:49:10.846Z</time></trkpt><trkpt lat="45.8488552" lon="10.558749"><ele>391.0</ele><time>2026-04-25T12:49:11.844Z</time></trkpt><trkpt lat="45.848767" lon="10.5585381"><ele>391.0</ele><time>2026-04-25T12:49:12.853Z</time></trkpt><trkpt lat="45.8486793" lon="10.5583386"><ele>390.0</ele><time>2026-04-25T12:49:13.845Z</time></trkpt><trkpt lat="45.8485944" lon="10.5581341"><ele>389.0</ele><time>2026-04-25T12:49:14.844Z</time></trkpt><trkpt lat="45.8485127" lon="10.557918"><ele>388.0</ele><time>2026-04-25T12:49:15.854Z</time></trkpt><trkpt lat="45.8484279" lon="10.5577038"><ele>387.6666666666667</ele><time>2026-04-25T12:49:16.839Z</time></trkpt><trkpt lat="45.8483434" lon="10.5574881"><ele>387.33333333333337</ele><time>2026-04-25T12:49:17.813Z</time></trkpt><trkpt lat="45.8482532" lon="10.5572602"><ele>387.0</ele><time>2026-04-25T12:49:18.832Z</time></trkpt><trkpt lat="45.8481596" lon="10.557026"><ele>388.0</ele><time>2026-04-25T12:49:19.845Z</time></trkpt><trkpt lat="45.8480636" lon="10.5567877"><ele>389.0</ele><time>2026-04-25T12:49:20.844Z</time></trkpt><trkpt lat="45.847964" lon="10.5565461"><ele>390.0</ele><time>2026-04-25T12:49:21.85Z</time></trkpt><trkpt lat="45.8478629" lon="10.5563012"><ele>390.0</ele><time>2026-04-25T12:49:22.851Z</time></trkpt><trkpt lat="45.8477644" lon="10.5560627"><ele>390.0</ele><time>2026-04-25T12:49:23.827Z</time></trkpt><trkpt lat="45.8476582" lon="10.5558099"><ele>390.0</ele><time>2026-04-25T12:49:24.849Z</time></trkpt><trkpt lat="45.8475541" lon="10.5555618"><ele>392.33333333333337</ele><time>2026-04-25T12:49:25.861Z</time></trkpt><trkpt lat="45.847449" lon="10.5553151"><ele>394.6666666666667</ele><time>2026-04-25T12:49:26.847Z</time></trkpt><trkpt lat="45.847333" lon="10.5550706"><ele>397.0</ele><time>2026-04-25T12:49:27.842Z</time></trkpt><trkpt lat="45.8472033" lon="10.5548311"><ele>397.0</ele><time>2026-04-25T12:49:28.859Z</time></trkpt><trkpt lat="45.8470633" lon="10.5546156"><ele>397.0</ele><time>2026-04-25T12:49:29.841Z</time></trkpt><trkpt lat="45.8469048" lon="10.5544121"><ele>397.0</ele><time>2026-04-25T12:49:30.841Z</time></trkpt><trkpt lat="45.8467383" lon="10.5542255"><ele>395.33333333333337</ele><time>2026-04-25T12:49:31.827Z</time></trkpt><trkpt lat="45.8465586" lon="10.5540414"><ele>393.66666666666663</ele><time>2026-04-25T12:49:32.863Z</time></trkpt><trkpt lat="45.8463872" lon="10.5538787"><ele>392.0</ele><time>2026-04-25T12:49:33.835Z</time></trkpt><trkpt lat="45.8462028" lon="10.5537078"><ele>393.0</ele><time>2026-04-25T12:49:34.861Z</time></trkpt><trkpt lat="45.8460238" lon="10.553543"><ele>394.0</ele><time>2026-04-25T12:49:35.859Z</time></trkpt><trkpt lat="45.8458457" lon="10.5533814"><ele>395.0</ele><time>2026-04-25T12:49:36.855Z</time></trkpt><trkpt lat="45.8456695" lon="10.5532234"><ele>395.0</ele><time>2026-04-25T12:49:37.827Z</time></trkpt><trkpt lat="45.8454865" lon="10.5530578"><ele>395.0</ele><time>2026-04-25T12:49:38.85Z</time></trkpt><trkpt lat="45.845305" lon="10.5529001"><ele>395.0</ele><time>2026-04-25T12:49:39.843Z</time></trkpt><trkpt lat="45.845122" lon="10.5527407"><ele>397.3333333333333</ele><time>2026-04-25T12:49:40.859Z</time></trkpt><trkpt lat="45.8449437" lon="10.5525905"><ele>399.66666666666663</ele><time>2026-04-25T12:49:41.842Z</time></trkpt><trkpt lat="45.8447673" lon="10.5524375"><ele>402.0</ele><time>2026-04-25T12:49:42.851Z</time></trkpt><trkpt lat="45.8446036" lon="10.5522877"><ele>402.0</ele><time>2026-04-25T12:49:43.85Z</time></trkpt><trkpt lat="45.8444438" lon="10.5521466"><ele>402.0</ele><time>2026-04-25T12:49:44.809Z</time></trkpt><trkpt lat="45.8442855" lon="10.5520046"><ele>402.0</ele><time>2026-04-25T12:49:45.797Z</time></trkpt><trkpt lat="45.8441355" lon="10.5518707"><ele>404.33333333333337</ele><time>2026-04-25T12:49:46.832Z</time></trkpt><trkpt lat="45.8439909" lon="10.5517419"><ele>406.6666666666667</ele><time>2026-04-25T12:49:47.845Z</time></trkpt><trkpt lat="45.8438564" lon="10.551628"><ele>409.0</ele><time>2026-04-25T12:49:48.805Z</time></trkpt><trkpt lat="45.8437187" lon="10.5515141"><ele>409.0</ele><time>2026-04-25T12:49:49.843Z</time></trkpt><trkpt lat="45.8435915" lon="10.5514105"><ele>409.0</ele><time>2026-04-25T12:49:50.834Z</time></trkpt><trkpt lat="45.843466" lon="10.5513142"><ele>409.0</ele><time>2026-04-25T12:49:51.83Z</time></trkpt><trkpt lat="45.8433421" lon="10.5512232"><ele>409.0</ele><time>2026-04-25T12:49:52.826Z</time></trkpt><trkpt lat="45.8432249" lon="10.5511351"><ele>409.5</ele><time>2026-04-25T12:49:53.829Z</time></trkpt><trkpt lat="45.8431175" lon="10.5510517"><ele>410.0</ele><time>2026-04-25T12:49:54.832Z</time></trkpt><trkpt lat="45.8430094" lon="10.5509726"><ele>410.5</ele><time>2026-04-25T12:49:55.819Z</time></trkpt><trkpt lat="45.842901" lon="10.5508936"><ele>411.0</ele><time>2026-04-25T12:49:56.864Z</time></trkpt><trkpt lat="45.8428008" lon="10.5508176"><ele>411.0</ele><time>2026-04-25T12:49:57.834Z</time></trkpt><trkpt lat="45.8426945" lon="10.5507397"><ele>411.0</ele><time>2026-04-25T12:49:58.849Z</time></trkpt><trkpt lat="45.8425923" lon="10.5506667"><ele>411.0</ele><time>2026-04-25T12:49:59.851Z</time></trkpt><trkpt lat="45.8424992" lon="10.5506028"><ele>411.0</ele><time>2026-04-25T12:50:00.823Z</time></trkpt><trkpt lat="45.8424018" lon="10.5505454"><ele>411.0</ele><time>2026-04-25T12:50:01.824Z</time></trkpt><trkpt lat="45.8422919" lon="10.5504885"><ele>411.75</ele><time>2026-04-25T12:50:02.833Z</time></trkpt><trkpt lat="45.842177" lon="10.5504345"><ele>412.5</ele><time>2026-04-25T12:50:03.838Z</time></trkpt><trkpt lat="45.8420605" lon="10.55038"><ele>413.25</ele><time>2026-04-25T12:50:04.847Z</time></trkpt><trkpt lat="45.8419482" lon="10.5503227"><ele>414.0</ele><time>2026-04-25T12:50:05.843Z</time></trkpt><trkpt lat="45.8418464" lon="10.5502532"><ele>413.0</ele><time>2026-04-25T12:50:06.814Z</time></trkpt><trkpt lat="45.8417509" lon="10.5501603"><ele>412.0</ele><time>2026-04-25T12:50:07.833Z</time></trkpt><trkpt lat="45.8416654" lon="10.5500744"><ele>411.0</ele><time>2026-04-25T12:50:08.851Z</time></trkpt><trkpt lat="45.8415848" lon="10.5499843"><ele>410.0</ele><time>2026-04-25T12:50:09.842Z</time></trkpt><trkpt lat="45.8415002" lon="10.5499125"><ele>409.0</ele><time>2026-04-25T12:50:10.83Z</time></trkpt><trkpt lat="45.8414016" lon="10.5498467"><ele>409.0</ele><time>2026-04-25T12:50:11.843Z</time></trkpt><trkpt lat="45.8412927" lon="10.5497903"><ele>409.0</ele><time>2026-04-25T12:50:12.852Z</time></trkpt><trkpt lat="45.8411737" lon="10.549748"><ele>409.0</ele><time>2026-04-25T12:50:13.852Z</time></trkpt><trkpt lat="45.8410495" lon="10.5497186"><ele>409.0</ele><time>2026-04-25T12:50:14.829Z</time></trkpt><trkpt lat="45.8408704" lon="10.5496879"><ele>407.6666666666667</ele><time>2026-04-25T12:50:16.177Z</time></trkpt><trkpt lat="45.8406308" lon="10.5496393"><ele>406.33333333333337</ele><time>2026-04-25T12:50:17.861Z</time></trkpt><trkpt lat="45.8404853" lon="10.5495948"><ele>405.0</ele><time>2026-04-25T12:50:18.891Z</time></trkpt><trkpt lat="45.8403519" lon="10.5495255"><ele>405.0</ele><time>2026-04-25T12:50:19.895Z</time></trkpt><trkpt lat="45.840222" lon="10.549427"><ele>405.0</ele><time>2026-04-25T12:50:20.903Z</time></trkpt><trkpt lat="45.8401045" lon="10.5493097"><ele>405.0</ele><time>2026-04-25T12:50:21.884Z</time></trkpt><trkpt lat="45.8399794" lon="10.5491721"><ele>405.0</ele><time>2026-04-25T12:50:22.922Z</time></trkpt><trkpt lat="45.8398551" lon="10.5490434"><ele>404.0</ele><time>2026-04-25T12:50:23.909Z</time></trkpt><trkpt lat="45.8397242" lon="10.5489218"><ele>403.0</ele><time>2026-04-25T12:50:24.886Z</time></trkpt><trkpt lat="45.8395779" lon="10.5488001"><ele>402.0</ele><time>2026-04-25T12:50:25.91Z</time></trkpt><trkpt lat="45.8394326" lon="10.5486873"><ele>398.66666666666663</ele><time>2026-04-25T12:50:26.902Z</time></trkpt><trkpt lat="45.8392939" lon="10.5485801"><ele>395.3333333333333</ele><time>2026-04-25T12:50:27.873Z</time></trkpt><trkpt lat="45.8391486" lon="10.548467"><ele>392.0</ele><time>2026-04-25T12:50:28.881Z</time></trkpt><trkpt lat="45.8390007" lon="10.5483505"><ele>392.0</ele><time>2026-04-25T12:50:29.882Z</time></trkpt><trkpt lat="45.8388476" lon="10.5482313"><ele>392.0</ele><time>2026-04-25T12:50:30.907Z</time></trkpt><trkpt lat="45.8386986" lon="10.5481257"><ele>392.0</ele><time>2026-04-25T12:50:31.924Z</time></trkpt><trkpt lat="45.8385511" lon="10.5480454"><ele>390.66666666666663</ele><time>2026-04-25T12:50:32.911Z</time></trkpt><trkpt lat="45.8383989" lon="10.5479611"><ele>389.33333333333337</ele><time>2026-04-25T12:50:33.927Z</time></trkpt><trkpt lat="45.8382586" lon="10.5478483"><ele>388.0</ele><time>2026-04-25T12:50:34.894Z</time></trkpt><trkpt lat="45.8381231" lon="10.5476892"><ele>388.0</ele><time>2026-04-25T12:50:35.917Z</time></trkpt><trkpt lat="45.8380006" lon="10.5475105"><ele>388.0</ele><time>2026-04-25T12:50:36.908Z</time></trkpt><trkpt lat="45.8378763" lon="10.5473209"><ele>388.0</ele><time>2026-04-25T12:50:37.902Z</time></trkpt><trkpt lat="45.8377506" lon="10.5471339"><ele>386.33333333333337</ele><time>2026-04-25T12:50:38.919Z</time></trkpt><trkpt lat="45.8376342" lon="10.5469631"><ele>384.6666666666667</ele><time>2026-04-25T12:50:39.882Z</time></trkpt><trkpt lat="45.8375177" lon="10.5467893"><ele>383.0</ele><time>2026-04-25T12:50:40.884Z</time></trkpt><trkpt lat="45.8374092" lon="10.5466152"><ele>383.0</ele><time>2026-04-25T12:50:41.882Z</time></trkpt><trkpt lat="45.8373058" lon="10.5464451"><ele>383.0</ele><time>2026-04-25T12:50:42.869Z</time></trkpt><trkpt lat="45.8372034" lon="10.5462675"><ele>383.0</ele><time>2026-04-25T12:50:43.884Z</time></trkpt><trkpt lat="45.8371046" lon="10.5460739"><ele>384.33333333333337</ele><time>2026-04-25T12:50:44.91Z</time></trkpt><trkpt lat="45.8370151" lon="10.5458726"><ele>385.6666666666667</ele><time>2026-04-25T12:50:45.893Z</time></trkpt><trkpt lat="45.8369292" lon="10.5456587"><ele>387.0</ele><time>2026-04-25T12:50:46.882Z</time></trkpt><trkpt lat="45.8368436" lon="10.5454309"><ele>385.0</ele><time>2026-04-25T12:50:47.893Z</time></trkpt><trkpt lat="45.8367581" lon="10.5451992"><ele>383.0</ele><time>2026-04-25T12:50:48.899Z</time></trkpt><trkpt lat="45.836674" lon="10.5449713"><ele>381.0</ele><time>2026-04-25T12:50:49.903Z</time></trkpt><trkpt lat="45.8365939" lon="10.5447558"><ele>383.0</ele><time>2026-04-25T12:50:50.868Z</time></trkpt><trkpt lat="45.8365095" lon="10.5445331"><ele>385.0</ele><time>2026-04-25T12:50:51.839Z</time></trkpt><trkpt lat="45.8364291" lon="10.5443165"><ele>387.0</ele><time>2026-04-25T12:50:52.808Z</time></trkpt><trkpt lat="45.8363434" lon="10.5440889"><ele>387.0</ele><time>2026-04-25T12:50:53.84Z</time></trkpt><trkpt lat="45.836255" lon="10.5438636"><ele>387.0</ele><time>2026-04-25T12:50:54.856Z</time></trkpt><trkpt lat="45.8361603" lon="10.5436561"><ele>387.0</ele><time>2026-04-25T12:50:55.851Z</time></trkpt><trkpt lat="45.8360491" lon="10.5434818"><ele>386.33333333333337</ele><time>2026-04-25T12:50:56.845Z</time></trkpt><trkpt lat="45.8359208" lon="10.5433466"><ele>385.6666666666667</ele><time>2026-04-25T12:50:57.816Z</time></trkpt><trkpt lat="45.8357571" lon="10.5432585"><ele>385.0</ele><time>2026-04-25T12:50:58.865Z</time></trkpt><trkpt lat="45.8355798" lon="10.5432026"><ele>385.0</ele><time>2026-04-25T12:50:59.842Z</time></trkpt><trkpt lat="45.835397" lon="10.5431597"><ele>385.0</ele><time>2026-04-25T12:51:00.806Z</time></trkpt><trkpt lat="45.8351838" lon="10.5431111"><ele>385.0</ele><time>2026-04-25T12:51:01.853Z</time></trkpt><trkpt lat="45.8349748" lon="10.5430652"><ele>382.6666666666667</ele><time>2026-04-25T12:51:02.846Z</time></trkpt><trkpt lat="45.8347614" lon="10.5430207"><ele>380.33333333333337</ele><time>2026-04-25T12:51:03.843Z</time></trkpt><trkpt lat="45.834548" lon="10.5429684"><ele>378.0</ele><time>2026-04-25T12:51:04.842Z</time></trkpt><trkpt lat="45.8343421" lon="10.5429206"><ele>379.0</ele><time>2026-04-25T12:51:05.856Z</time></trkpt><trkpt lat="45.834151" lon="10.5428677"><ele>380.0</ele><time>2026-04-25T12:51:06.862Z</time></trkpt><trkpt lat="45.8339682" lon="10.5428127"><ele>381.0</ele><time>2026-04-25T12:51:07.829Z</time></trkpt><trkpt lat="45.8337783" lon="10.5427336"><ele>381.0</ele><time>2026-04-25T12:51:08.86Z</time></trkpt><trkpt lat="45.8335976" lon="10.5426397"><ele>381.0</ele><time>2026-04-25T12:51:09.835Z</time></trkpt><trkpt lat="45.8334108" lon="10.5425358"><ele>381.0</ele><time>2026-04-25T12:51:10.84Z</time></trkpt><trkpt lat="45.8332351" lon="10.5424393"><ele>381.3333333333333</ele><time>2026-04-25T12:51:11.835Z</time></trkpt><trkpt lat="45.8330696" lon="10.5423436"><ele>381.66666666666663</ele><time>2026-04-25T12:51:12.845Z</time></trkpt><trkpt lat="45.8329113" lon="10.5422457"><ele>382.0</ele><time>2026-04-25T12:51:13.865Z</time></trkpt><trkpt lat="45.8327714" lon="10.5421493"><ele>382.3333333333333</ele><time>2026-04-25T12:51:14.827Z</time></trkpt><trkpt lat="45.8326246" lon="10.5420428"><ele>382.6666666666667</ele><time>2026-04-25T12:51:15.849Z</time></trkpt><trkpt lat="45.832477" lon="10.5419408"><ele>383.0</ele><time>2026-04-25T12:51:16.854Z</time></trkpt><trkpt lat="45.8323321" lon="10.5418318"><ele>383.0</ele><time>2026-04-25T12:51:17.854Z</time></trkpt><trkpt lat="45.8321968" lon="10.5417119"><ele>383.0</ele><time>2026-04-25T12:51:18.856Z</time></trkpt><trkpt lat="45.8320684" lon="10.5415788"><ele>383.0</ele><time>2026-04-25T12:51:19.842Z</time></trkpt><trkpt lat="45.8319486" lon="10.5414367"><ele>383.0</ele><time>2026-04-25T12:51:20.831Z</time></trkpt><trkpt lat="45.8318315" lon="10.541283"><ele>383.0</ele><time>2026-04-25T12:51:21.824Z</time></trkpt><trkpt lat="45.8317175" lon="10.5411183"><ele>383.0</ele><time>2026-04-25T12:51:22.827Z</time></trkpt><trkpt lat="45.8316112" lon="10.5409431"><ele>384.33333333333337</ele><time>2026-04-25T12:51:23.839Z</time></trkpt><trkpt lat="45.8315109" lon="10.5407586"><ele>385.6666666666667</ele><time>2026-04-25T12:51:24.847Z</time></trkpt><trkpt lat="45.8314173" lon="10.5405654"><ele>387.0</ele><time>2026-04-25T12:51:25.84Z</time></trkpt><trkpt lat="45.831328" lon="10.5403632"><ele>388.0</ele><time>2026-04-25T12:51:26.846Z</time></trkpt><trkpt lat="45.8312392" lon="10.5401674"><ele>389.0</ele><time>2026-04-25T12:51:27.836Z</time></trkpt><trkpt lat="45.8311461" lon="10.5399726"><ele>390.0</ele><time>2026-04-25T12:51:28.83Z</time></trkpt><trkpt lat="45.8310545" lon="10.5397817"><ele>390.0</ele><time>2026-04-25T12:51:29.841Z</time></trkpt><trkpt lat="45.8309694" lon="10.5395942"><ele>390.0</ele><time>2026-04-25T12:51:30.869Z</time></trkpt><trkpt lat="45.8308902" lon="10.5394223"><ele>390.0</ele><time>2026-04-25T12:51:31.849Z</time></trkpt><trkpt lat="45.8308082" lon="10.5392404"><ele>390.0</ele><time>2026-04-25T12:51:32.864Z</time></trkpt><trkpt lat="45.8307268" lon="10.5390626"><ele>390.0</ele><time>2026-04-25T12:51:33.855Z</time></trkpt><trkpt lat="45.8306392" lon="10.5388812"><ele>390.0</ele><time>2026-04-25T12:51:34.863Z</time></trkpt><trkpt lat="45.8305574" lon="10.5387116"><ele>390.0</ele><time>2026-04-25T12:51:35.853Z</time></trkpt><trkpt lat="45.8304792" lon="10.5385493"><ele>390.75</ele><time>2026-04-25T12:51:36.846Z</time></trkpt><trkpt lat="45.8304012" lon="10.538384"><ele>391.5</ele><time>2026-04-25T12:51:37.858Z</time></trkpt><trkpt lat="45.8303243" lon="10.538219"><ele>392.25</ele><time>2026-04-25T12:51:38.836Z</time></trkpt><trkpt lat="45.8302481" lon="10.5380463"><ele>393.0</ele><time>2026-04-25T12:51:39.857Z</time></trkpt><trkpt lat="45.8301824" lon="10.5378855"><ele>393.0</ele><time>2026-04-25T12:51:40.841Z</time></trkpt><trkpt lat="45.8301282" lon="10.5377268"><ele>393.0</ele><time>2026-04-25T12:51:41.852Z</time></trkpt><trkpt lat="45.8300807" lon="10.5375757"><ele>393.0</ele><time>2026-04-25T12:51:42.838Z</time></trkpt><trkpt lat="45.830038" lon="10.537424"><ele>393.0</ele><time>2026-04-25T12:51:43.854Z</time></trkpt><trkpt lat="45.8299959" lon="10.5372684"><ele>393.0</ele><time>2026-04-25T12:51:44.853Z</time></trkpt><trkpt lat="45.8299472" lon="10.5371081"><ele>393.0</ele><time>2026-04-25T12:51:45.848Z</time></trkpt><trkpt lat="45.8298954" lon="10.5369423"><ele>393.0</ele><time>2026-04-25T12:51:46.838Z</time></trkpt><trkpt lat="45.82984" lon="10.5367715"><ele>393.0</ele><time>2026-04-25T12:51:47.847Z</time></trkpt><trkpt lat="45.8297745" lon="10.5365951"><ele>394.25</ele><time>2026-04-25T12:51:48.853Z</time></trkpt><trkpt lat="45.8297117" lon="10.5364312"><ele>395.5</ele><time>2026-04-25T12:51:49.846Z</time></trkpt><trkpt lat="45.8296438" lon="10.5362582"><ele>396.75</ele><time>2026-04-25T12:51:50.861Z</time></trkpt><trkpt lat="45.8295661" lon="10.5360993"><ele>398.0</ele><time>2026-04-25T12:51:51.833Z</time></trkpt><trkpt lat="45.8294856" lon="10.5359365"><ele>398.75</ele><time>2026-04-25T12:51:52.855Z</time></trkpt><trkpt lat="45.8294002" lon="10.5357847"><ele>399.5</ele><time>2026-04-25T12:51:53.845Z</time></trkpt><trkpt lat="45.8293153" lon="10.5356361"><ele>400.25</ele><time>2026-04-25T12:51:54.839Z</time></trkpt><trkpt lat="45.8292285" lon="10.5354891"><ele>401.0</ele><time>2026-04-25T12:51:55.84Z</time></trkpt><trkpt lat="45.8291447" lon="10.5353527"><ele>398.75</ele><time>2026-04-25T12:51:56.837Z</time></trkpt><trkpt lat="45.8290602" lon="10.5352095"><ele>396.5</ele><time>2026-04-25T12:51:57.849Z</time></trkpt><trkpt lat="45.8289776" lon="10.5350682"><ele>394.25</ele><time>2026-04-25T12:51:58.841Z</time></trkpt><trkpt lat="45.8288874" lon="10.5349162"><ele>392.0</ele><time>2026-04-25T12:51:59.861Z</time></trkpt><trkpt lat="45.8288032" lon="10.5347679"><ele>392.0</ele><time>2026-04-25T12:52:00.831Z</time></trkpt><trkpt lat="45.8287116" lon="10.5346139"><ele>392.0</ele><time>2026-04-25T12:52:01.85Z</time></trkpt><trkpt lat="45.8285852" lon="10.5344133"><ele>392.0</ele><time>2026-04-25T12:52:03.213Z</time></trkpt><trkpt lat="45.8284238" lon="10.5341506"><ele>391.0</ele><time>2026-04-25T12:52:04.901Z</time></trkpt><trkpt lat="45.8283227" lon="10.5339958"><ele>390.0</ele><time>2026-04-25T12:52:05.88Z</time></trkpt><trkpt lat="45.8282162" lon="10.53383"><ele>389.0</ele><time>2026-04-25T12:52:06.903Z</time></trkpt><trkpt lat="45.82811" lon="10.5336661"><ele>397.3333333333333</ele><time>2026-04-25T12:52:07.898Z</time></trkpt><trkpt lat="45.8280077" lon="10.533509"><ele>405.66666666666663</ele><time>2026-04-25T12:52:08.85Z</time></trkpt><trkpt lat="45.8278995" lon="10.5333436"><ele>414.0</ele><time>2026-04-25T12:52:09.856Z</time></trkpt><trkpt lat="45.8277985" lon="10.5331823"><ele>414.0</ele><time>2026-04-25T12:52:10.834Z</time></trkpt><trkpt lat="45.827694" lon="10.5330134"><ele>414.0</ele><time>2026-04-25T12:52:11.853Z</time></trkpt><trkpt lat="45.8275902" lon="10.5328475"><ele>414.0</ele><time>2026-04-25T12:52:12.859Z</time></trkpt><trkpt lat="45.8274895" lon="10.5326918"><ele>409.0</ele><time>2026-04-25T12:52:13.848Z</time></trkpt><trkpt lat="45.827381" lon="10.5325522"><ele>404.0</ele><time>2026-04-25T12:52:14.856Z</time></trkpt><trkpt lat="45.8272694" lon="10.5324313"><ele>399.0</ele><time>2026-04-25T12:52:15.829Z</time></trkpt><trkpt lat="45.827134" lon="10.5323191"><ele>394.0</ele><time>2026-04-25T12:52:16.874Z</time></trkpt><trkpt lat="45.827002" lon="10.5322228"><ele>394.0</ele><time>2026-04-25T12:52:17.838Z</time></trkpt><trkpt lat="45.8268595" lon="10.5321238"><ele>394.0</ele><time>2026-04-25T12:52:18.852Z</time></trkpt><trkpt lat="45.8267199" lon="10.5320213"><ele>394.0</ele><time>2026-04-25T12:52:19.849Z</time></trkpt><trkpt lat="45.8265783" lon="10.5319126"><ele>392.0</ele><time>2026-04-25T12:52:20.853Z</time></trkpt><trkpt lat="45.8264384" lon="10.531795"><ele>390.0</ele><time>2026-04-25T12:52:21.846Z</time></trkpt><trkpt lat="45.8262961" lon="10.5316716"><ele>388.0</ele><time>2026-04-25T12:52:22.839Z</time></trkpt><trkpt lat="45.8261642" lon="10.5315467"><ele>388.0</ele><time>2026-04-25T12:52:23.838Z</time></trkpt><trkpt lat="45.8260391" lon="10.5314258"><ele>388.0</ele><time>2026-04-25T12:52:24.825Z</time></trkpt><trkpt lat="45.8259235" lon="10.5312976"><ele>388.0</ele><time>2026-04-25T12:52:25.864Z</time></trkpt><trkpt lat="45.8258237" lon="10.5311797"><ele>388.0</ele><time>2026-04-25T12:52:26.863Z</time></trkpt><trkpt lat="45.8257352" lon="10.5310702"><ele>387.1666666666667</ele><time>2026-04-25T12:52:27.844Z</time></trkpt><trkpt lat="45.8256548" lon="10.5309731"><ele>386.33333333333337</ele><time>2026-04-25T12:52:28.831Z</time></trkpt><trkpt lat="45.8255824" lon="10.5308979"><ele>385.5</ele><time>2026-04-25T12:52:29.831Z</time></trkpt><trkpt lat="45.8255045" lon="10.5308441"><ele>384.6666666666667</ele><time>2026-04-25T12:52:30.84Z</time></trkpt><trkpt lat="45.8254271" lon="10.5308026"><ele>383.83333333333337</ele><time>2026-04-25T12:52:31.845Z</time></trkpt><trkpt lat="45.8253584" lon="10.5307415"><ele>383.0</ele><time>2026-04-25T12:52:32.844Z</time></trkpt><trkpt lat="45.8253006" lon="10.5306636"><ele>383.0</ele><time>2026-04-25T12:52:33.855Z</time></trkpt><trkpt lat="45.8252407" lon="10.5305673"><ele>383.0</ele><time>2026-04-25T12:52:34.867Z</time></trkpt><trkpt lat="45.8251926" lon="10.5304582"><ele>383.0</ele><time>2026-04-25T12:52:35.852Z</time></trkpt><trkpt lat="45.8251572" lon="10.5303384"><ele>383.0</ele><time>2026-04-25T12:52:36.848Z</time></trkpt><trkpt lat="45.8251139" lon="10.5302163"><ele>383.0</ele><time>2026-04-25T12:52:37.844Z</time></trkpt><trkpt lat="45.8250545" lon="10.5301"><ele>383.75</ele><time>2026-04-25T12:52:38.842Z</time></trkpt><trkpt lat="45.8249679" lon="10.5299973"><ele>384.5</ele><time>2026-04-25T12:52:39.833Z</time></trkpt><trkpt lat="45.8248461" lon="10.5299024"><ele>385.25</ele><time>2026-04-25T12:52:40.866Z</time></trkpt><trkpt lat="45.8247136" lon="10.5298303"><ele>386.0</ele><time>2026-04-25T12:52:41.839Z</time></trkpt><trkpt lat="45.8245732" lon="10.529764"><ele>386.0</ele><time>2026-04-25T12:52:42.828Z</time></trkpt><trkpt lat="45.8244329" lon="10.5296971"><ele>386.0</ele><time>2026-04-25T12:52:43.832Z</time></trkpt><trkpt lat="45.8242995" lon="10.5296277"><ele>386.0</ele><time>2026-04-25T12:52:44.843Z</time></trkpt><trkpt lat="45.8241701" lon="10.529558"><ele>386.0</ele><time>2026-04-25T12:52:45.847Z</time></trkpt><trkpt lat="45.824043" lon="10.5294849"><ele>386.5</ele><time>2026-04-25T12:52:46.842Z</time></trkpt><trkpt lat="45.8239262" lon="10.5294003"><ele>387.0</ele><time>2026-04-25T12:52:47.819Z</time></trkpt><trkpt lat="45.8238076" lon="10.5293151"><ele>387.5</ele><time>2026-04-25T12:52:48.826Z</time></trkpt><trkpt lat="45.8236851" lon="10.529224"><ele>388.0</ele><time>2026-04-25T12:52:49.852Z</time></trkpt><trkpt lat="45.8235643" lon="10.5291343"><ele>386.5</ele><time>2026-04-25T12:52:50.835Z</time></trkpt><trkpt lat="45.823433" lon="10.529033"><ele>385.0</ele><time>2026-04-25T12:52:51.847Z</time></trkpt><trkpt lat="45.8233034" lon="10.5289372"><ele>383.5</ele><time>2026-04-25T12:52:52.848Z</time></trkpt><trkpt lat="45.8231796" lon="10.5288411"><ele>382.0</ele><time>2026-04-25T12:52:53.837Z</time></trkpt><trkpt lat="45.8230581" lon="10.5287501"><ele>381.25</ele><time>2026-04-25T12:52:54.827Z</time></trkpt><trkpt lat="45.8229366" lon="10.5286572"><ele>380.5</ele><time>2026-04-25T12:52:55.86Z</time></trkpt><trkpt lat="45.8228229" lon="10.5285733"><ele>379.75</ele><time>2026-04-25T12:52:56.846Z</time></trkpt><trkpt lat="45.8227065" lon="10.5284836"><ele>379.0</ele><time>2026-04-25T12:52:57.821Z</time></trkpt><trkpt lat="45.822582" lon="10.5283912"><ele>379.0</ele><time>2026-04-25T12:52:58.852Z</time></trkpt><trkpt lat="45.8224663" lon="10.5283046"><ele>379.0</ele><time>2026-04-25T12:52:59.84Z</time></trkpt><trkpt lat="45.8223571" lon="10.5282204"><ele>379.0</ele><time>2026-04-25T12:53:00.82Z</time></trkpt><trkpt lat="45.8222477" lon="10.5281386"><ele>379.0</ele><time>2026-04-25T12:53:01.829Z</time></trkpt><trkpt lat="45.8221429" lon="10.5280574"><ele>379.0</ele><time>2026-04-25T12:53:02.868Z</time></trkpt><trkpt lat="45.8220483" lon="10.5279868"><ele>379.0</ele><time>2026-04-25T12:53:03.854Z</time></trkpt><trkpt lat="45.8219524" lon="10.5279089"><ele>379.0</ele><time>2026-04-25T12:53:04.849Z</time></trkpt><trkpt lat="45.8218546" lon="10.5278238"><ele>379.0</ele><time>2026-04-25T12:53:05.849Z</time></trkpt><trkpt lat="45.8217568" lon="10.527733"><ele>379.0</ele><time>2026-04-25T12:53:06.834Z</time></trkpt><trkpt lat="45.8216613" lon="10.5276358"><ele>380.0</ele><time>2026-04-25T12:53:07.852Z</time></trkpt><trkpt lat="45.8215726" lon="10.5275308"><ele>381.0</ele><time>2026-04-25T12:53:08.846Z</time></trkpt><trkpt lat="45.8214804" lon="10.5274241"><ele>382.0</ele><time>2026-04-25T12:53:09.841Z</time></trkpt><trkpt lat="45.821388" lon="10.5273095"><ele>383.0</ele><time>2026-04-25T12:53:10.86Z</time></trkpt><trkpt lat="45.8213037" lon="10.5272028"><ele>383.0</ele><time>2026-04-25T12:53:11.844Z</time></trkpt><trkpt lat="45.8212265" lon="10.5271005"><ele>383.0</ele><time>2026-04-25T12:53:12.848Z</time></trkpt><trkpt lat="45.8211539" lon="10.5269932"><ele>383.0</ele><time>2026-04-25T12:53:13.841Z</time></trkpt><trkpt lat="45.8210789" lon="10.5268739"><ele>383.0</ele><time>2026-04-25T12:53:14.841Z</time></trkpt><trkpt lat="45.8210008" lon="10.5267472"><ele>383.0</ele><time>2026-04-25T12:53:15.818Z</time></trkpt><trkpt lat="45.8209189" lon="10.5266016"><ele>383.75</ele><time>2026-04-25T12:53:16.841Z</time></trkpt><trkpt lat="45.8208333" lon="10.5264532"><ele>384.5</ele><time>2026-04-25T12:53:17.835Z</time></trkpt><trkpt lat="45.8207417" lon="10.5262972"><ele>385.25</ele><time>2026-04-25T12:53:18.819Z</time></trkpt><trkpt lat="45.820646" lon="10.526132"><ele>386.0</ele><time>2026-04-25T12:53:19.825Z</time></trkpt><trkpt lat="45.8205509" lon="10.5259677"><ele>386.0</ele><time>2026-04-25T12:53:20.822Z</time></trkpt><trkpt lat="45.820454" lon="10.5257942"><ele>386.0</ele><time>2026-04-25T12:53:21.871Z</time></trkpt><trkpt lat="45.8203642" lon="10.5256376"><ele>386.0</ele><time>2026-04-25T12:53:22.861Z</time></trkpt><trkpt lat="45.8202751" lon="10.5254859"><ele>386.0</ele><time>2026-04-25T12:53:23.856Z</time></trkpt><trkpt lat="45.8201873" lon="10.5253334"><ele>383.75</ele><time>2026-04-25T12:53:24.827Z</time></trkpt><trkpt lat="45.8200971" lon="10.5251812"><ele>381.5</ele><time>2026-04-25T12:53:25.841Z</time></trkpt><trkpt lat="45.8200076" lon="10.5250293"><ele>379.25</ele><time>2026-04-25T12:53:26.86Z</time></trkpt><trkpt lat="45.8199305" lon="10.5248926"><ele>377.0</ele><time>2026-04-25T12:53:27.84Z</time></trkpt><trkpt lat="45.8198548" lon="10.5247604"><ele>377.0</ele><time>2026-04-25T12:53:28.832Z</time></trkpt><trkpt lat="45.8197872" lon="10.5246464"><ele>377.0</ele><time>2026-04-25T12:53:29.821Z</time></trkpt><trkpt lat="45.8197274" lon="10.524535"><ele>377.0</ele><time>2026-04-25T12:53:30.842Z</time></trkpt><trkpt lat="45.8196786" lon="10.524441"><ele>377.0</ele><time>2026-04-25T12:53:31.851Z</time></trkpt><trkpt lat="45.8196294" lon="10.5243656"><ele>377.0</ele><time>2026-04-25T12:53:32.841Z</time></trkpt><trkpt lat="45.8195771" lon="10.52431"><ele>377.0</ele><time>2026-04-25T12:53:33.846Z</time></trkpt><trkpt lat="45.8194744" lon="10.5242689"><ele>376.40000000000003</ele><time>2026-04-25T12:53:35.837Z</time></trkpt><trkpt lat="45.8193573" lon="10.5242132"><ele>375.8</ele><time>2026-04-25T12:53:37.865Z</time></trkpt><trkpt lat="45.8192966" lon="10.5241528"><ele>375.2</ele><time>2026-04-25T12:53:38.849Z</time></trkpt><trkpt lat="45.8192244" lon="10.5240753"><ele>374.6</ele><time>2026-04-25T12:53:39.853Z</time></trkpt><trkpt lat="45.8191473" lon="10.5239905"><ele>374.0</ele><time>2026-04-25T12:53:40.829Z</time></trkpt><trkpt lat="45.8190638" lon="10.5239011"><ele>374.0</ele><time>2026-04-25T12:53:41.841Z</time></trkpt><trkpt lat="45.8189793" lon="10.5238068"><ele>374.0</ele><time>2026-04-25T12:53:42.847Z</time></trkpt><trkpt lat="45.8188926" lon="10.5237019"><ele>374.0</ele><time>2026-04-25T12:53:43.859Z</time></trkpt><trkpt lat="45.8188048" lon="10.523609"><ele>374.0</ele><time>2026-04-25T12:53:44.851Z</time></trkpt><trkpt lat="45.8187265" lon="10.5235247"><ele>374.0</ele><time>2026-04-25T12:53:45.84Z</time></trkpt><trkpt lat="45.8186452" lon="10.5234425"><ele>373.79999999999995</ele><time>2026-04-25T12:53:46.854Z</time></trkpt><trkpt lat="45.8185684" lon="10.5233667"><ele>373.59999999999997</ele><time>2026-04-25T12:53:47.819Z</time></trkpt><trkpt lat="45.8184877" lon="10.5232955"><ele>373.4</ele><time>2026-04-25T12:53:48.841Z</time></trkpt><trkpt lat="45.8184103" lon="10.5232141"><ele>373.2</ele><time>2026-04-25T12:53:49.864Z</time></trkpt><trkpt lat="45.8183329" lon="10.5231403"><ele>373.0</ele><time>2026-04-25T12:53:50.853Z</time></trkpt><trkpt lat="45.8182584" lon="10.5230704"><ele>373.0</ele><time>2026-04-25T12:53:51.839Z</time></trkpt><trkpt lat="45.8181855" lon="10.5229989"><ele>373.0</ele><time>2026-04-25T12:53:52.844Z</time></trkpt><trkpt lat="45.8181175" lon="10.5229319"><ele>373.0</ele><time>2026-04-25T12:53:53.834Z</time></trkpt><trkpt lat="45.8180489" lon="10.522872"><ele>373.0</ele><time>2026-04-25T12:53:54.837Z</time></trkpt><trkpt lat="45.8179805" lon="10.5228062"><ele>373.0</ele><time>2026-04-25T12:53:55.837Z</time></trkpt><trkpt lat="45.8179178" lon="10.5227438"><ele>373.0</ele><time>2026-04-25T12:53:56.83Z</time></trkpt><trkpt lat="45.8178566" lon="10.5226795"><ele>373.2</ele><time>2026-04-25T12:53:57.81Z</time></trkpt><trkpt lat="45.8177796" lon="10.5226092"><ele>373.4</ele><time>2026-04-25T12:53:58.848Z</time></trkpt><trkpt lat="45.8177022" lon="10.5225404"><ele>373.59999999999997</ele><time>2026-04-25T12:53:59.846Z</time></trkpt><trkpt lat="45.8176217" lon="10.5224708"><ele>373.79999999999995</ele><time>2026-04-25T12:54:00.819Z</time></trkpt><trkpt lat="45.81754" lon="10.5223968"><ele>374.0</ele><time>2026-04-25T12:54:01.838Z</time></trkpt><trkpt lat="45.8174549" lon="10.5223358"><ele>374.0</ele><time>2026-04-25T12:54:02.845Z</time></trkpt><trkpt lat="45.8173672" lon="10.5222774"><ele>374.0</ele><time>2026-04-25T12:54:03.828Z</time></trkpt><trkpt lat="45.8172761" lon="10.522222"><ele>374.0</ele><time>2026-04-25T12:54:04.839Z</time></trkpt><trkpt lat="45.8171799" lon="10.5221691"><ele>374.0</ele><time>2026-04-25T12:54:05.861Z</time></trkpt><trkpt lat="45.8170923" lon="10.522122"><ele>374.0</ele><time>2026-04-25T12:54:06.846Z</time></trkpt><trkpt lat="45.8170045" lon="10.5220669"><ele>373.5</ele><time>2026-04-25T12:54:07.842Z</time></trkpt><trkpt lat="45.81692" lon="10.5220143"><ele>373.0</ele><time>2026-04-25T12:54:08.854Z</time></trkpt><trkpt lat="45.8168385" lon="10.5219633"><ele>372.5</ele><time>2026-04-25T12:54:09.829Z</time></trkpt><trkpt lat="45.8167523" lon="10.521908"><ele>372.0</ele><time>2026-04-25T12:54:10.849Z</time></trkpt><trkpt lat="45.8166712" lon="10.521865"><ele>371.5</ele><time>2026-04-25T12:54:11.859Z</time></trkpt><trkpt lat="45.816597" lon="10.521826"><ele>371.0</ele><time>2026-04-25T12:54:12.842Z</time></trkpt><trkpt lat="45.8165245" lon="10.5217884"><ele>371.0</ele><time>2026-04-25T12:54:13.855Z</time></trkpt><trkpt lat="45.816462" lon="10.5217455"><ele>371.0</ele><time>2026-04-25T12:54:14.866Z</time></trkpt><trkpt lat="45.816404" lon="10.5217069"><ele>371.0</ele><time>2026-04-25T12:54:15.85Z</time></trkpt><trkpt lat="45.8163092" lon="10.5216292"><ele>371.0</ele><time>2026-04-25T12:54:17.877Z</time></trkpt><trkpt lat="45.8162179" lon="10.5216288"><ele>371.0</ele><time>2026-04-25T12:54:19.86Z</time></trkpt><trkpt lat="45.8161532" lon="10.5217411"><ele>371.0</ele><time>2026-04-25T12:54:21.849Z</time></trkpt><trkpt lat="45.8161186" lon="10.5218307"><ele>371.0</ele><time>2026-04-25T12:54:22.855Z</time></trkpt><trkpt lat="45.8160683" lon="10.5219406"><ele>371.0</ele><time>2026-04-25T12:54:23.844Z</time></trkpt><trkpt lat="45.8160125" lon="10.5220557"><ele>371.0</ele><time>2026-04-25T12:54:24.845Z</time></trkpt><trkpt lat="45.8159522" lon="10.5221749"><ele>371.0</ele><time>2026-04-25T12:54:25.874Z</time></trkpt><trkpt lat="45.8158962" lon="10.5222867"><ele>371.0</ele><time>2026-04-25T12:54:26.824Z</time></trkpt><trkpt lat="45.815834" lon="10.5224139"><ele>370.6</ele><time>2026-04-25T12:54:27.841Z</time></trkpt><trkpt lat="45.815769" lon="10.5225412"><ele>370.20000000000005</ele><time>2026-04-25T12:54:28.847Z</time></trkpt><trkpt lat="45.8157124" lon="10.5226562"><ele>369.79999999999995</ele><time>2026-04-25T12:54:29.846Z</time></trkpt><trkpt lat="45.815656" lon="10.5227662"><ele>369.4</ele><time>2026-04-25T12:54:30.855Z</time></trkpt><trkpt lat="45.8156024" lon="10.5228685"><ele>369.0</ele><time>2026-04-25T12:54:31.85Z</time></trkpt><trkpt lat="45.8155509" lon="10.5229742"><ele>369.0</ele><time>2026-04-25T12:54:32.846Z</time></trkpt><trkpt lat="45.8154939" lon="10.5230876"><ele>369.0</ele><time>2026-04-25T12:54:33.838Z</time></trkpt><trkpt lat="45.8154365" lon="10.5232052"><ele>369.0</ele><time>2026-04-25T12:54:34.846Z</time></trkpt><trkpt lat="45.8153807" lon="10.5233205"><ele>369.0</ele><time>2026-04-25T12:54:35.845Z</time></trkpt><trkpt lat="45.8153219" lon="10.5234345"><ele>369.0</ele><time>2026-04-25T12:54:36.841Z</time></trkpt><trkpt lat="45.8152643" lon="10.523544"><ele>369.0</ele><time>2026-04-25T12:54:37.853Z</time></trkpt><trkpt lat="45.8152125" lon="10.5236477"><ele>369.0</ele><time>2026-04-25T12:54:38.857Z</time></trkpt><trkpt lat="45.81516" lon="10.5237524"><ele>369.0</ele><time>2026-04-25T12:54:39.863Z</time></trkpt><trkpt lat="45.8151078" lon="10.5238544"><ele>369.0</ele><time>2026-04-25T12:54:40.847Z</time></trkpt><trkpt lat="45.8150508" lon="10.5239679"><ele>369.0</ele><time>2026-04-25T12:54:41.86Z</time></trkpt><trkpt lat="45.8149955" lon="10.5240865"><ele>369.0</ele><time>2026-04-25T12:54:42.838Z</time></trkpt><trkpt lat="45.8149306" lon="10.524216"><ele>369.0</ele><time>2026-04-25T12:54:43.846Z</time></trkpt><trkpt lat="45.8148649" lon="10.5243468"><ele>369.0</ele><time>2026-04-25T12:54:44.846Z</time></trkpt><trkpt lat="45.8147942" lon="10.5244798"><ele>369.0</ele><time>2026-04-25T12:54:45.849Z</time></trkpt><trkpt lat="45.8147313" lon="10.524609"><ele>369.0</ele><time>2026-04-25T12:54:46.841Z</time></trkpt><trkpt lat="45.8146683" lon="10.5247352"><ele>369.0</ele><time>2026-04-25T12:54:47.831Z</time></trkpt><trkpt lat="45.8146046" lon="10.5248587"><ele>369.0</ele><time>2026-04-25T12:54:48.848Z</time></trkpt><trkpt lat="45.814545" lon="10.524974"><ele>369.0</ele><time>2026-04-25T12:54:49.857Z</time></trkpt><trkpt lat="45.8144922" lon="10.5250842"><ele>369.0</ele><time>2026-04-25T12:54:50.842Z</time></trkpt><trkpt lat="45.8144414" lon="10.5251917"><ele>369.0</ele><time>2026-04-25T12:54:51.856Z</time></trkpt><trkpt lat="45.8143896" lon="10.5252957"><ele>369.0</ele><time>2026-04-25T12:54:52.875Z</time></trkpt><trkpt lat="45.8143374" lon="10.5253992"><ele>369.0</ele><time>2026-04-25T12:54:53.843Z</time></trkpt><trkpt lat="45.8142799" lon="10.5255092"><ele>369.0</ele><time>2026-04-25T12:54:54.856Z</time></trkpt><trkpt lat="45.8142261" lon="10.5256214"><ele>369.0</ele><time>2026-04-25T12:54:55.855Z</time></trkpt><trkpt lat="45.8141683" lon="10.5257335"><ele>369.2</ele><time>2026-04-25T12:54:56.839Z</time></trkpt><trkpt lat="45.81411" lon="10.525852"><ele>369.4</ele><time>2026-04-25T12:54:57.832Z</time></trkpt><trkpt lat="45.8140448" lon="10.525978"><ele>369.6</ele><time>2026-04-25T12:54:58.86Z</time></trkpt><trkpt lat="45.8139787" lon="10.526102"><ele>369.8</ele><time>2026-04-25T12:54:59.853Z</time></trkpt><trkpt lat="45.8139165" lon="10.5262241"><ele>370.0</ele><time>2026-04-25T12:55:00.826Z</time></trkpt><trkpt lat="45.8138542" lon="10.526355"><ele>370.25</ele><time>2026-04-25T12:55:01.848Z</time></trkpt><trkpt lat="45.8137937" lon="10.5264808"><ele>370.5</ele><time>2026-04-25T12:55:02.84Z</time></trkpt><trkpt lat="45.8137331" lon="10.526604"><ele>370.75</ele><time>2026-04-25T12:55:03.838Z</time></trkpt><trkpt lat="45.8136541" lon="10.5267686"><ele>371.0</ele><time>2026-04-25T12:55:05.17Z</time></trkpt><trkpt lat="45.8135516" lon="10.52697"><ele>371.0</ele><time>2026-04-25T12:55:06.894Z</time></trkpt><trkpt lat="45.8134926" lon="10.5270856"><ele>371.0</ele><time>2026-04-25T12:55:07.894Z</time></trkpt><trkpt lat="45.8134398" lon="10.5271868"><ele>371.0</ele><time>2026-04-25T12:55:08.909Z</time></trkpt><trkpt lat="45.8133967" lon="10.5272688"><ele>371.0</ele><time>2026-04-25T12:55:09.896Z</time></trkpt><trkpt lat="45.8133514" lon="10.5273542"><ele>371.0</ele><time>2026-04-25T12:55:11.888Z</time></trkpt><trkpt lat="45.813306" lon="10.5274591"><ele>371.0</ele><time>2026-04-25T12:55:15.903Z</time></trkpt><trkpt lat="45.8132477" lon="10.5275519"><ele>371.0</ele><time>2026-04-25T12:55:18.874Z</time></trkpt><trkpt lat="45.8132" lon="10.5276225"><ele>371.0</ele><time>2026-04-25T12:55:21.903Z</time></trkpt><trkpt lat="45.8132666" lon="10.5276023"><ele>371.0</ele><time>2026-04-25T12:55:27.882Z</time></trkpt><trkpt lat="45.8132974" lon="10.5275215"><ele>371.0</ele><time>2026-04-25T12:55:29.875Z</time></trkpt><trkpt lat="45.8133174" lon="10.5274307"><ele>371.0</ele><time>2026-04-25T12:55:31.877Z</time></trkpt><trkpt lat="45.8132746" lon="10.5273296"><ele>371.0</ele><time>2026-04-25T12:55:33.878Z</time></trkpt><trkpt lat="45.8132258" lon="10.5272725"><ele>371.0</ele><time>2026-04-25T12:55:34.916Z</time></trkpt><trkpt lat="45.8131728" lon="10.5272218"><ele>371.0</ele><time>2026-04-25T12:55:35.902Z</time></trkpt><trkpt lat="45.8131079" lon="10.5271577"><ele>371.0</ele><time>2026-04-25T12:55:36.909Z</time></trkpt><trkpt lat="45.8130411" lon="10.5270914"><ele>371.0</ele><time>2026-04-25T12:55:37.882Z</time></trkpt><trkpt lat="45.8129716" lon="10.5270205"><ele>371.0</ele><time>2026-04-25T12:55:38.877Z</time></trkpt><trkpt lat="45.8128946" lon="10.5269337"><ele>371.0</ele><time>2026-04-25T12:55:39.923Z</time></trkpt><trkpt lat="45.8128236" lon="10.5268567"><ele>371.0</ele><time>2026-04-25T12:55:40.887Z</time></trkpt><trkpt lat="45.8127448" lon="10.5267762"><ele>370.8</ele><time>2026-04-25T12:55:41.908Z</time></trkpt><trkpt lat="45.8126696" lon="10.5266972"><ele>370.6</ele><time>2026-04-25T12:55:42.883Z</time></trkpt><trkpt lat="45.8125898" lon="10.5266152"><ele>370.4</ele><time>2026-04-25T12:55:43.905Z</time></trkpt><trkpt lat="45.8125123" lon="10.5265367"><ele>370.2</ele><time>2026-04-25T12:55:44.886Z</time></trkpt><trkpt lat="45.8124311" lon="10.526454"><ele>370.0</ele><time>2026-04-25T12:55:45.902Z</time></trkpt><trkpt lat="45.8123502" lon="10.5263733"><ele>369.8</ele><time>2026-04-25T12:55:46.908Z</time></trkpt><trkpt lat="45.8122715" lon="10.5262958"><ele>369.6</ele><time>2026-04-25T12:55:47.879Z</time></trkpt><trkpt lat="45.8121897" lon="10.5262127"><ele>369.4</ele><time>2026-04-25T12:55:48.897Z</time></trkpt><trkpt lat="45.8121115" lon="10.5261307"><ele>369.2</ele><time>2026-04-25T12:55:49.892Z</time></trkpt><trkpt lat="45.8120324" lon="10.5260454"><ele>369.0</ele><time>2026-04-25T12:55:50.926Z</time></trkpt><trkpt lat="45.8119584" lon="10.525968"><ele>369.0</ele><time>2026-04-25T12:55:51.902Z</time></trkpt><trkpt lat="45.8118819" lon="10.5258907"><ele>369.0</ele><time>2026-04-25T12:55:52.893Z</time></trkpt><trkpt lat="45.8118037" lon="10.5258123"><ele>369.0</ele><time>2026-04-25T12:55:53.9Z</time></trkpt><trkpt lat="45.8117234" lon="10.525733"><ele>369.0</ele><time>2026-04-25T12:55:54.919Z</time></trkpt><trkpt lat="45.811646" lon="10.5256575"><ele>369.0</ele><time>2026-04-25T12:55:55.896Z</time></trkpt><trkpt lat="45.8115661" lon="10.5255801"><ele>368.79999999999995</ele><time>2026-04-25T12:55:56.912Z</time></trkpt><trkpt lat="45.8114927" lon="10.5255073"><ele>368.59999999999997</ele><time>2026-04-25T12:55:57.877Z</time></trkpt><trkpt lat="45.8114171" lon="10.5254296"><ele>368.4</ele><time>2026-04-25T12:55:58.903Z</time></trkpt><trkpt lat="45.8113454" lon="10.525356"><ele>368.2</ele><time>2026-04-25T12:55:59.905Z</time></trkpt><trkpt lat="45.8112709" lon="10.5252782"><ele>368.0</ele><time>2026-04-25T12:56:00.904Z</time></trkpt><trkpt lat="45.8111921" lon="10.5251947"><ele>368.0</ele><time>2026-04-25T12:56:01.936Z</time></trkpt><trkpt lat="45.8111186" lon="10.5251159"><ele>368.0</ele><time>2026-04-25T12:56:02.894Z</time></trkpt><trkpt lat="45.8110408" lon="10.5250358"><ele>368.0</ele><time>2026-04-25T12:56:03.903Z</time></trkpt><trkpt lat="45.8109648" lon="10.5249589"><ele>368.0</ele><time>2026-04-25T12:56:04.899Z</time></trkpt><trkpt lat="45.8108906" lon="10.5248829"><ele>368.0</ele><time>2026-04-25T12:56:05.893Z</time></trkpt><trkpt lat="45.8108171" lon="10.5248068"><ele>368.0</ele><time>2026-04-25T12:56:06.901Z</time></trkpt><trkpt lat="45.8107477" lon="10.5247351"><ele>368.0</ele><time>2026-04-25T12:56:07.874Z</time></trkpt><trkpt lat="45.8106751" lon="10.5246614"><ele>368.0</ele><time>2026-04-25T12:56:08.906Z</time></trkpt><trkpt lat="45.8106063" lon="10.5245927"><ele>368.0</ele><time>2026-04-25T12:56:09.911Z</time></trkpt><trkpt lat="45.8105426" lon="10.5245334"><ele>368.0</ele><time>2026-04-25T12:56:10.903Z</time></trkpt><trkpt lat="45.8104824" lon="10.5244784"><ele>368.0</ele><time>2026-04-25T12:56:11.915Z</time></trkpt><trkpt lat="45.8103849" lon="10.5243753"><ele>368.0</ele><time>2026-04-25T12:56:13.946Z</time></trkpt><trkpt lat="45.8103353" lon="10.5242686"><ele>368.0</ele><time>2026-04-25T12:56:15.926Z</time></trkpt><trkpt lat="45.8103729" lon="10.5241914"><ele>368.0</ele><time>2026-04-25T12:56:19.89Z</time></trkpt></trkseg><trkseg><trkpt lat="45.8103658" lon="10.5242949"><ele>368.0</ele><time>2026-04-25T13:39:23.854Z</time></trkpt><trkpt lat="45.8104015" lon="10.5243705"><ele>368.0</ele><time>2026-04-25T13:39:30.849Z</time></trkpt><trkpt lat="45.810513" lon="10.5245111"><ele>368.0</ele><time>2026-04-25T13:39:44.847Z</time></trkpt><trkpt lat="45.8105986" lon="10.5246058"><ele>368.0</ele><time>2026-04-25T13:39:45.851Z</time></trkpt><trkpt lat="45.8106658" lon="10.5246847"><ele>368.0</ele><time>2026-04-25T13:39:46.868Z</time></trkpt><trkpt lat="45.8107206" lon="10.5247456"><ele>368.0</ele><time>2026-04-25T13:39:47.864Z</time></trkpt><trkpt lat="45.810776" lon="10.5247963"><ele>368.0</ele><time>2026-04-25T13:39:48.856Z</time></trkpt><trkpt lat="45.8108334" lon="10.5248511"><ele>368.0</ele><time>2026-04-25T13:39:49.879Z</time></trkpt><trkpt lat="45.8108903" lon="10.5249051"><ele>368.0</ele><time>2026-04-25T13:39:50.865Z</time></trkpt><trkpt lat="45.8109543" lon="10.5249664"><ele>368.0</ele><time>2026-04-25T13:39:51.891Z</time></trkpt><trkpt lat="45.8110148" lon="10.5250253"><ele>368.0</ele><time>2026-04-25T13:39:52.862Z</time></trkpt><trkpt lat="45.8110779" lon="10.525093"><ele>368.0</ele><time>2026-04-25T13:39:53.89Z</time></trkpt><trkpt lat="45.8111426" lon="10.5251611"><ele>368.0</ele><time>2026-04-25T13:39:54.851Z</time></trkpt><trkpt lat="45.8112198" lon="10.5252372"><ele>368.0</ele><time>2026-04-25T13:39:55.884Z</time></trkpt><trkpt lat="45.8112907" lon="10.5253089"><ele>368.0</ele><time>2026-04-25T13:39:56.873Z</time></trkpt><trkpt lat="45.811355" lon="10.5253744"><ele>368.0</ele><time>2026-04-25T13:39:57.889Z</time></trkpt><trkpt lat="45.8114541" lon="10.5254792"><ele>368.0</ele><time>2026-04-25T13:39:59.848Z</time></trkpt><trkpt lat="45.8115041" lon="10.5255357"><ele>368.0</ele><time>2026-04-25T13:40:00.872Z</time></trkpt><trkpt lat="45.8116044" lon="10.5256459"><ele>368.0</ele><time>2026-04-25T13:40:02.882Z</time></trkpt><trkpt lat="45.8116682" lon="10.5257087"><ele>368.0</ele><time>2026-04-25T13:40:03.889Z</time></trkpt><trkpt lat="45.8117384" lon="10.5257743"><ele>368.0</ele><time>2026-04-25T13:40:04.879Z</time></trkpt><trkpt lat="45.8118114" lon="10.525843"><ele>368.0</ele><time>2026-04-25T13:40:05.865Z</time></trkpt><trkpt lat="45.8118848" lon="10.5259182"><ele>368.0</ele><time>2026-04-25T13:40:06.889Z</time></trkpt><trkpt lat="45.8119591" lon="10.5259974"><ele>368.0</ele><time>2026-04-25T13:40:07.888Z</time></trkpt><trkpt lat="45.8120299" lon="10.5260739"><ele>368.0</ele><time>2026-04-25T13:40:08.871Z</time></trkpt><trkpt lat="45.812108" lon="10.5261514"><ele>368.0</ele><time>2026-04-25T13:40:09.884Z</time></trkpt><trkpt lat="45.8121836" lon="10.5262249"><ele>368.0</ele><time>2026-04-25T13:40:10.882Z</time></trkpt><trkpt lat="45.8122583" lon="10.5262986"><ele>368.0</ele><time>2026-04-25T13:40:11.884Z</time></trkpt><trkpt lat="45.8123291" lon="10.5263727"><ele>368.0</ele><time>2026-04-25T13:40:12.886Z</time></trkpt><trkpt lat="45.8124023" lon="10.5264471"><ele>368.0</ele><time>2026-04-25T13:40:13.896Z</time></trkpt><trkpt lat="45.8124726" lon="10.5265158"><ele>368.0</ele><time>2026-04-25T13:40:14.845Z</time></trkpt><trkpt lat="45.8125439" lon="10.5265873"><ele>368.0</ele><time>2026-04-25T13:40:15.846Z</time></trkpt><trkpt lat="45.812622" lon="10.5266635"><ele>368.0</ele><time>2026-04-25T13:40:16.889Z</time></trkpt><trkpt lat="45.8126928" lon="10.5267344"><ele>368.0</ele><time>2026-04-25T13:40:17.863Z</time></trkpt><trkpt lat="45.8127593" lon="10.5268028"><ele>368.0</ele><time>2026-04-25T13:40:18.847Z</time></trkpt><trkpt lat="45.8128313" lon="10.5268779"><ele>368.33333333333337</ele><time>2026-04-25T13:40:19.885Z</time></trkpt><trkpt lat="45.8129016" lon="10.5269518"><ele>368.6666666666667</ele><time>2026-04-25T13:40:20.885Z</time></trkpt><trkpt lat="45.8129693" lon="10.527027"><ele>369.0</ele><time>2026-04-25T13:40:21.891Z</time></trkpt><trkpt lat="45.8130317" lon="10.5270982"><ele>369.3333333333333</ele><time>2026-04-25T13:40:22.891Z</time></trkpt><trkpt lat="45.8130852" lon="10.5271581"><ele>369.66666666666663</ele><time>2026-04-25T13:40:23.883Z</time></trkpt><trkpt lat="45.8131353" lon="10.5272148"><ele>370.0</ele><time>2026-04-25T13:40:24.87Z</time></trkpt><trkpt lat="45.813228" lon="10.527313"><ele>370.2</ele><time>2026-04-25T13:40:26.886Z</time></trkpt><trkpt lat="45.8132942" lon="10.527383"><ele>370.4</ele><time>2026-04-25T13:40:28.884Z</time></trkpt><trkpt lat="45.813363" lon="10.5273643"><ele>370.6</ele><time>2026-04-25T13:40:32.855Z</time></trkpt><trkpt lat="45.8134522" lon="10.5272375"><ele>370.8</ele><time>2026-04-25T13:40:34.85Z</time></trkpt><trkpt lat="45.8135063" lon="10.5271138"><ele>371.0</ele><time>2026-04-25T13:40:35.886Z</time></trkpt><trkpt lat="45.8135644" lon="10.5269713"><ele>371.0</ele><time>2026-04-25T13:40:36.891Z</time></trkpt><trkpt lat="45.8136328" lon="10.5268218"><ele>371.0</ele><time>2026-04-25T13:40:37.868Z</time></trkpt><trkpt lat="45.8137114" lon="10.5266597"><ele>371.0</ele><time>2026-04-25T13:40:38.851Z</time></trkpt><trkpt lat="45.813796" lon="10.5264901"><ele>371.0</ele><time>2026-04-25T13:40:39.875Z</time></trkpt><trkpt lat="45.8138672" lon="10.5263449"><ele>370.8</ele><time>2026-04-25T13:40:40.89Z</time></trkpt><trkpt lat="45.8139245" lon="10.5262277"><ele>370.6</ele><time>2026-04-25T13:40:41.876Z</time></trkpt><trkpt lat="45.8139785" lon="10.5261159"><ele>370.4</ele><time>2026-04-25T13:40:42.891Z</time></trkpt><trkpt lat="45.8140332" lon="10.526007"><ele>370.2</ele><time>2026-04-25T13:40:43.882Z</time></trkpt><trkpt lat="45.8140934" lon="10.5258888"><ele>370.0</ele><time>2026-04-25T13:40:44.885Z</time></trkpt><trkpt lat="45.8141544" lon="10.5257687"><ele>370.0</ele><time>2026-04-25T13:40:45.889Z</time></trkpt><trkpt lat="45.8142134" lon="10.5256539"><ele>370.0</ele><time>2026-04-25T13:40:46.842Z</time></trkpt><trkpt lat="45.8142733" lon="10.5255344"><ele>370.0</ele><time>2026-04-25T13:40:47.845Z</time></trkpt><trkpt lat="45.8143332" lon="10.5254159"><ele>370.0</ele><time>2026-04-25T13:40:48.853Z</time></trkpt><trkpt lat="45.8143931" lon="10.5252987"><ele>370.0</ele><time>2026-04-25T13:40:49.861Z</time></trkpt><trkpt lat="45.8144517" lon="10.5251831"><ele>369.8</ele><time>2026-04-25T13:40:50.859Z</time></trkpt><trkpt lat="45.8145087" lon="10.5250616"><ele>369.6</ele><time>2026-04-25T13:40:51.859Z</time></trkpt><trkpt lat="45.8145657" lon="10.5249362"><ele>369.4</ele><time>2026-04-25T13:40:52.887Z</time></trkpt><trkpt lat="45.8146191" lon="10.5248227"><ele>369.2</ele><time>2026-04-25T13:40:53.845Z</time></trkpt><trkpt lat="45.8146707" lon="10.5247156"><ele>369.0</ele><time>2026-04-25T13:40:54.85Z</time></trkpt><trkpt lat="45.8147223" lon="10.5246121"><ele>369.0</ele><time>2026-04-25T13:40:55.905Z</time></trkpt><trkpt lat="45.8147638" lon="10.5245291"><ele>369.0</ele><time>2026-04-25T13:40:56.852Z</time></trkpt><trkpt lat="45.8148135" lon="10.5244291"><ele>369.0</ele><time>2026-04-25T13:40:57.887Z</time></trkpt><trkpt lat="45.8148656" lon="10.5243281"><ele>369.0</ele><time>2026-04-25T13:40:58.852Z</time></trkpt><trkpt lat="45.8149264" lon="10.5242179"><ele>369.0</ele><time>2026-04-25T13:40:59.853Z</time></trkpt><trkpt lat="45.8149883" lon="10.5241012"><ele>369.0</ele><time>2026-04-25T13:41:00.852Z</time></trkpt><trkpt lat="45.8150515" lon="10.5239778"><ele>369.0</ele><time>2026-04-25T13:41:01.854Z</time></trkpt><trkpt lat="45.8151127" lon="10.5238538"><ele>369.0</ele><time>2026-04-25T13:41:02.833Z</time></trkpt><trkpt lat="45.8151784" lon="10.5237235"><ele>369.0</ele><time>2026-04-25T13:41:03.852Z</time></trkpt><trkpt lat="45.8152322" lon="10.523608"><ele>369.0</ele><time>2026-04-25T13:41:04.892Z</time></trkpt><trkpt lat="45.8152792" lon="10.5235115"><ele>369.0</ele><time>2026-04-25T13:41:05.858Z</time></trkpt><trkpt lat="45.815328" lon="10.523414"><ele>369.0</ele><time>2026-04-25T13:41:06.876Z</time></trkpt><trkpt lat="45.8153778" lon="10.5233148"><ele>369.0</ele><time>2026-04-25T13:41:07.855Z</time></trkpt><trkpt lat="45.8154296" lon="10.5232093"><ele>369.0</ele><time>2026-04-25T13:41:08.87Z</time></trkpt><trkpt lat="45.815478" lon="10.5231057"><ele>369.0</ele><time>2026-04-25T13:41:09.857Z</time></trkpt><trkpt lat="45.8155284" lon="10.5230019"><ele>369.0</ele><time>2026-04-25T13:41:10.852Z</time></trkpt><trkpt lat="45.8155851" lon="10.5228932"><ele>369.0</ele><time>2026-04-25T13:41:11.855Z</time></trkpt><trkpt lat="45.8156511" lon="10.5227796"><ele>369.0</ele><time>2026-04-25T13:41:12.885Z</time></trkpt><trkpt lat="45.8157088" lon="10.5226731"><ele>369.0</ele><time>2026-04-25T13:41:13.872Z</time></trkpt><trkpt lat="45.8157621" lon="10.5225616"><ele>369.0</ele><time>2026-04-25T13:41:14.868Z</time></trkpt><trkpt lat="45.8158162" lon="10.5224434"><ele>369.0</ele><time>2026-04-25T13:41:15.868Z</time></trkpt><trkpt lat="45.8158686" lon="10.5223325"><ele>369.0</ele><time>2026-04-25T13:41:16.851Z</time></trkpt><trkpt lat="45.8159201" lon="10.5222232"><ele>369.0</ele><time>2026-04-25T13:41:17.874Z</time></trkpt><trkpt lat="45.8159714" lon="10.5221099"><ele>369.0</ele><time>2026-04-25T13:41:18.886Z</time></trkpt><trkpt lat="45.816017" lon="10.522004"><ele>369.0</ele><time>2026-04-25T13:41:19.833Z</time></trkpt><trkpt lat="45.8160719" lon="10.521892"><ele>369.0</ele><time>2026-04-25T13:41:20.887Z</time></trkpt><trkpt lat="45.8161209" lon="10.521798"><ele>369.0</ele><time>2026-04-25T13:41:21.858Z</time></trkpt><trkpt lat="45.8161655" lon="10.5217144"><ele>369.0</ele><time>2026-04-25T13:41:22.894Z</time></trkpt><trkpt lat="45.8162367" lon="10.5216062"><ele>369.5</ele><time>2026-04-25T13:41:24.877Z</time></trkpt><trkpt lat="45.8163171" lon="10.5215694"><ele>370.0</ele><time>2026-04-25T13:41:27.17Z</time></trkpt><trkpt lat="45.8164909" lon="10.5217564"><ele>370.5</ele><time>2026-04-25T13:41:28.921Z</time></trkpt><trkpt lat="45.8165881" lon="10.521823"><ele>371.0</ele><time>2026-04-25T13:41:29.926Z</time></trkpt><trkpt lat="45.8166882" lon="10.5218765"><ele>371.0</ele><time>2026-04-25T13:41:30.922Z</time></trkpt><trkpt lat="45.8167811" lon="10.5219287"><ele>371.0</ele><time>2026-04-25T13:41:31.941Z</time></trkpt><trkpt lat="45.8168612" lon="10.5219764"><ele>371.0</ele><time>2026-04-25T13:41:32.922Z</time></trkpt><trkpt lat="45.8169411" lon="10.5220257"><ele>371.0</ele><time>2026-04-25T13:41:33.931Z</time></trkpt><trkpt lat="45.8170204" lon="10.5220772"><ele>371.0</ele><time>2026-04-25T13:41:34.938Z</time></trkpt><trkpt lat="45.8170989" lon="10.5221287"><ele>371.0</ele><time>2026-04-25T13:41:35.911Z</time></trkpt><trkpt lat="45.8171851" lon="10.522181"><ele>371.6</ele><time>2026-04-25T13:41:36.927Z</time></trkpt><trkpt lat="45.8172732" lon="10.5222279"><ele>372.20000000000005</ele><time>2026-04-25T13:41:37.91Z</time></trkpt><trkpt lat="45.8173658" lon="10.5222789"><ele>372.79999999999995</ele><time>2026-04-25T13:41:38.912Z</time></trkpt><trkpt lat="45.8174589" lon="10.5223353"><ele>373.4</ele><time>2026-04-25T13:41:39.908Z</time></trkpt><trkpt lat="45.8175515" lon="10.5224005"><ele>374.0</ele><time>2026-04-25T13:41:40.903Z</time></trkpt><trkpt lat="45.8176433" lon="10.5224759"><ele>373.79999999999995</ele><time>2026-04-25T13:41:41.905Z</time></trkpt><trkpt lat="45.8177343" lon="10.5225577"><ele>373.59999999999997</ele><time>2026-04-25T13:41:42.911Z</time></trkpt><trkpt lat="45.817828" lon="10.5226471"><ele>373.4</ele><time>2026-04-25T13:41:43.942Z</time></trkpt><trkpt lat="45.8179156" lon="10.5227356"><ele>373.2</ele><time>2026-04-25T13:41:44.904Z</time></trkpt><trkpt lat="45.8180065" lon="10.5228302"><ele>373.0</ele><time>2026-04-25T13:41:45.911Z</time></trkpt><trkpt lat="45.8180987" lon="10.5229228"><ele>373.0</ele><time>2026-04-25T13:41:46.926Z</time></trkpt><trkpt lat="45.8181852" lon="10.5230056"><ele>373.0</ele><time>2026-04-25T13:41:47.901Z</time></trkpt><trkpt lat="45.818281" lon="10.523096"><ele>373.0</ele><time>2026-04-25T13:41:48.944Z</time></trkpt><trkpt lat="45.8183719" lon="10.5231794"><ele>373.0</ele><time>2026-04-25T13:41:49.909Z</time></trkpt><trkpt lat="45.818463" lon="10.5232633"><ele>373.0</ele><time>2026-04-25T13:41:50.949Z</time></trkpt><trkpt lat="45.8185419" lon="10.523337"><ele>375.4</ele><time>2026-04-25T13:41:51.908Z</time></trkpt><trkpt lat="45.8186242" lon="10.5234133"><ele>377.79999999999995</ele><time>2026-04-25T13:41:52.934Z</time></trkpt><trkpt lat="45.8187041" lon="10.5234881"><ele>380.2</ele><time>2026-04-25T13:41:53.952Z</time></trkpt><trkpt lat="45.8187777" lon="10.5235621"><ele>382.6</ele><time>2026-04-25T13:41:54.923Z</time></trkpt><trkpt lat="45.8188492" lon="10.5236411"><ele>385.0</ele><time>2026-04-25T13:41:55.91Z</time></trkpt><trkpt lat="45.8189214" lon="10.5237276"><ele>385.83333333333337</ele><time>2026-04-25T13:41:56.952Z</time></trkpt><trkpt lat="45.8189891" lon="10.5238099"><ele>386.6666666666667</ele><time>2026-04-25T13:41:57.947Z</time></trkpt><trkpt lat="45.8190575" lon="10.5238905"><ele>387.5</ele><time>2026-04-25T13:41:58.938Z</time></trkpt><trkpt lat="45.8191268" lon="10.523969"><ele>388.33333333333337</ele><time>2026-04-25T13:41:59.936Z</time></trkpt><trkpt lat="45.8191937" lon="10.5240439"><ele>389.1666666666667</ele><time>2026-04-25T13:42:00.908Z</time></trkpt><trkpt lat="45.8192588" lon="10.5241163"><ele>390.0</ele><time>2026-04-25T13:42:01.904Z</time></trkpt><trkpt lat="45.8193191" lon="10.5241864"><ele>390.0</ele><time>2026-04-25T13:42:02.933Z</time></trkpt><trkpt lat="45.8193734" lon="10.5242496"><ele>390.0</ele><time>2026-04-25T13:42:03.925Z</time></trkpt><trkpt lat="45.8194627" lon="10.5243399"><ele>390.0</ele><time>2026-04-25T13:42:05.908Z</time></trkpt><trkpt lat="45.8195308" lon="10.5243501"><ele>390.0</ele><time>2026-04-25T13:42:07.927Z</time></trkpt><trkpt lat="45.8195626" lon="10.5242571"><ele>390.0</ele><time>2026-04-25T13:42:18.914Z</time></trkpt><trkpt lat="45.8194895" lon="10.5240886"><ele>390.0</ele><time>2026-04-25T13:42:20.931Z</time></trkpt><trkpt lat="45.8194258" lon="10.5239825"><ele>390.0</ele><time>2026-04-25T13:42:21.935Z</time></trkpt><trkpt lat="45.8193464" lon="10.5238528"><ele>390.0</ele><time>2026-04-25T13:42:22.932Z</time></trkpt><trkpt lat="45.8192584" lon="10.523704"><ele>390.0</ele><time>2026-04-25T13:42:23.939Z</time></trkpt><trkpt lat="45.8191662" lon="10.5235417"><ele>388.33333333333337</ele><time>2026-04-25T13:42:24.928Z</time></trkpt><trkpt lat="45.8190643" lon="10.5233706"><ele>386.6666666666667</ele><time>2026-04-25T13:42:25.909Z</time></trkpt><trkpt lat="45.8189481" lon="10.5231892"><ele>385.0</ele><time>2026-04-25T13:42:26.936Z</time></trkpt><trkpt lat="45.8188307" lon="10.5230085"><ele>382.6666666666667</ele><time>2026-04-25T13:42:27.941Z</time></trkpt><trkpt lat="45.8187087" lon="10.5228269"><ele>380.33333333333337</ele><time>2026-04-25T13:42:28.946Z</time></trkpt><trkpt lat="45.8185745" lon="10.5226653"><ele>378.0</ele><time>2026-04-25T13:42:29.94Z</time></trkpt><trkpt lat="45.8184333" lon="10.5225435"><ele>378.0</ele><time>2026-04-25T13:42:30.901Z</time></trkpt><trkpt lat="45.8182777" lon="10.5224211"><ele>378.0</ele><time>2026-04-25T13:42:31.935Z</time></trkpt><trkpt lat="45.8181389" lon="10.5222836"><ele>378.0</ele><time>2026-04-25T13:42:32.92Z</time></trkpt><trkpt lat="45.8180177" lon="10.5221112"><ele>385.0</ele><time>2026-04-25T13:42:33.914Z</time></trkpt><trkpt lat="45.8179057" lon="10.5219224"><ele>392.0</ele><time>2026-04-25T13:42:34.899Z</time></trkpt><trkpt lat="45.8177879" lon="10.5217204"><ele>399.0</ele><time>2026-04-25T13:42:35.932Z</time></trkpt><trkpt lat="45.8176755" lon="10.5215278"><ele>401.0</ele><time>2026-04-25T13:42:36.906Z</time></trkpt><trkpt lat="45.8175552" lon="10.5213295"><ele>403.0</ele><time>2026-04-25T13:42:37.91Z</time></trkpt><trkpt lat="45.8174332" lon="10.5211359"><ele>405.0</ele><time>2026-04-25T13:42:38.901Z</time></trkpt><trkpt lat="45.8173072" lon="10.5209354"><ele>405.0</ele><time>2026-04-25T13:42:39.922Z</time></trkpt><trkpt lat="45.8171851" lon="10.5207349"><ele>405.0</ele><time>2026-04-25T13:42:40.927Z</time></trkpt><trkpt lat="45.8170697" lon="10.520536"><ele>405.0</ele><time>2026-04-25T13:42:41.906Z</time></trkpt><trkpt lat="45.8169572" lon="10.5203332"><ele>403.0</ele><time>2026-04-25T13:42:42.9Z</time></trkpt><trkpt lat="45.8168418" lon="10.5201297"><ele>401.0</ele><time>2026-04-25T13:42:43.905Z</time></trkpt><trkpt lat="45.8167239" lon="10.5199377"><ele>399.0</ele><time>2026-04-25T13:42:44.903Z</time></trkpt><trkpt lat="45.8165942" lon="10.5197567"><ele>399.0</ele><time>2026-04-25T13:42:45.938Z</time></trkpt><trkpt lat="45.8164558" lon="10.5196072"><ele>399.0</ele><time>2026-04-25T13:42:46.945Z</time></trkpt><trkpt lat="45.8163041" lon="10.5194862"><ele>399.0</ele><time>2026-04-25T13:42:47.949Z</time></trkpt><trkpt lat="45.8161508" lon="10.519391"><ele>401.66666666666663</ele><time>2026-04-25T13:42:48.905Z</time></trkpt><trkpt lat="45.8159766" lon="10.5192985"><ele>404.3333333333333</ele><time>2026-04-25T13:42:49.959Z</time></trkpt><trkpt lat="45.8158178" lon="10.5192199"><ele>407.0</ele><time>2026-04-25T13:42:50.917Z</time></trkpt><trkpt lat="45.8156473" lon="10.519134"><ele>407.0</ele><time>2026-04-25T13:42:51.959Z</time></trkpt><trkpt lat="45.8155092" lon="10.5190652"><ele>407.0</ele><time>2026-04-25T13:42:52.907Z</time></trkpt><trkpt lat="45.815377" lon="10.5189985"><ele>407.0</ele><time>2026-04-25T13:42:53.938Z</time></trkpt><trkpt lat="45.8152682" lon="10.518935"><ele>407.0</ele><time>2026-04-25T13:42:54.916Z</time></trkpt><trkpt lat="45.8151653" lon="10.518855"><ele>406.75</ele><time>2026-04-25T13:42:55.91Z</time></trkpt><trkpt lat="45.8150689" lon="10.5187457"><ele>406.5</ele><time>2026-04-25T13:42:56.902Z</time></trkpt><trkpt lat="45.8149789" lon="10.5185985"><ele>406.25</ele><time>2026-04-25T13:42:57.928Z</time></trkpt><trkpt lat="45.8149013" lon="10.5184256"><ele>406.0</ele><time>2026-04-25T13:42:58.944Z</time></trkpt><trkpt lat="45.8148211" lon="10.5182494"><ele>410.33333333333337</ele><time>2026-04-25T13:42:59.943Z</time></trkpt><trkpt lat="45.8147219" lon="10.518085"><ele>414.66666666666663</ele><time>2026-04-25T13:43:00.932Z</time></trkpt><trkpt lat="45.8146041" lon="10.5179289"><ele>419.0</ele><time>2026-04-25T13:43:01.943Z</time></trkpt><trkpt lat="45.8144791" lon="10.5177886"><ele>420.0</ele><time>2026-04-25T13:43:02.927Z</time></trkpt><trkpt lat="45.8143448" lon="10.5176524"><ele>421.0</ele><time>2026-04-25T13:43:03.914Z</time></trkpt><trkpt lat="45.8142006" lon="10.5175046"><ele>422.0</ele><time>2026-04-25T13:43:04.956Z</time></trkpt><trkpt lat="45.814071" lon="10.5173663"><ele>422.0</ele><time>2026-04-25T13:43:05.93Z</time></trkpt><trkpt lat="45.813946" lon="10.5172273"><ele>422.0</ele><time>2026-04-25T13:43:06.934Z</time></trkpt><trkpt lat="45.8138273" lon="10.5170829"><ele>422.0</ele><time>2026-04-25T13:43:07.925Z</time></trkpt><trkpt lat="45.8137126" lon="10.5169279"><ele>420.0</ele><time>2026-04-25T13:43:08.933Z</time></trkpt><trkpt lat="45.8136003" lon="10.516763"><ele>418.0</ele><time>2026-04-25T13:43:09.934Z</time></trkpt><trkpt lat="45.8134891" lon="10.5165942"><ele>416.0</ele><time>2026-04-25T13:43:10.93Z</time></trkpt><trkpt lat="45.8133756" lon="10.5164183"><ele>416.0</ele><time>2026-04-25T13:43:11.949Z</time></trkpt><trkpt lat="45.8132683" lon="10.5162463"><ele>416.0</ele><time>2026-04-25T13:43:12.953Z</time></trkpt><trkpt lat="45.813173" lon="10.5160769"><ele>416.0</ele><time>2026-04-25T13:43:13.912Z</time></trkpt><trkpt lat="45.8130778" lon="10.5158827"><ele>423.0</ele><time>2026-04-25T13:43:14.942Z</time></trkpt><trkpt lat="45.8129907" lon="10.5156851"><ele>430.0</ele><time>2026-04-25T13:43:15.937Z</time></trkpt><trkpt lat="45.8129027" lon="10.5154856"><ele>437.0</ele><time>2026-04-25T13:43:16.926Z</time></trkpt><trkpt lat="45.8128047" lon="10.5152932"><ele>434.66666666666663</ele><time>2026-04-25T13:43:17.929Z</time></trkpt><trkpt lat="45.8126864" lon="10.5151209"><ele>432.33333333333337</ele><time>2026-04-25T13:43:18.956Z</time></trkpt><trkpt lat="45.8125604" lon="10.5149837"><ele>430.0</ele><time>2026-04-25T13:43:19.904Z</time></trkpt><trkpt lat="45.8124139" lon="10.5148556"><ele>430.0</ele><time>2026-04-25T13:43:20.91Z</time></trkpt><trkpt lat="45.8122543" lon="10.5147342"><ele>430.0</ele><time>2026-04-25T13:43:21.954Z</time></trkpt><trkpt lat="45.8121006" lon="10.5146211"><ele>430.0</ele><time>2026-04-25T13:43:22.932Z</time></trkpt><trkpt lat="45.8119466" lon="10.5144989"><ele>429.0</ele><time>2026-04-25T13:43:23.926Z</time></trkpt><trkpt lat="45.8118008" lon="10.5143517"><ele>428.0</ele><time>2026-04-25T13:43:24.964Z</time></trkpt><trkpt lat="45.8116874" lon="10.5141928"><ele>427.0</ele><time>2026-04-25T13:43:25.912Z</time></trkpt><trkpt lat="45.8115801" lon="10.5140042"><ele>427.0</ele><time>2026-04-25T13:43:26.927Z</time></trkpt><trkpt lat="45.8114788" lon="10.5138073"><ele>427.0</ele><time>2026-04-25T13:43:27.928Z</time></trkpt><trkpt lat="45.8113735" lon="10.5136093"><ele>427.0</ele><time>2026-04-25T13:43:28.93Z</time></trkpt><trkpt lat="45.8112581" lon="10.5134204"><ele>426.0</ele><time>2026-04-25T13:43:29.913Z</time></trkpt><trkpt lat="45.8111188" lon="10.5132325"><ele>425.0</ele><time>2026-04-25T13:43:30.96Z</time></trkpt><trkpt lat="45.8109791" lon="10.5130832"><ele>424.0</ele><time>2026-04-25T13:43:31.912Z</time></trkpt><trkpt lat="45.8108301" lon="10.512942"><ele>428.6666666666667</ele><time>2026-04-25T13:43:32.942Z</time></trkpt><trkpt lat="45.8106963" lon="10.512817"><ele>433.33333333333337</ele><time>2026-04-25T13:43:33.958Z</time></trkpt><trkpt lat="45.8105756" lon="10.5126938"><ele>438.0</ele><time>2026-04-25T13:43:34.939Z</time></trkpt><trkpt lat="45.8104654" lon="10.5125577"><ele>438.0</ele><time>2026-04-25T13:43:35.909Z</time></trkpt><trkpt lat="45.8103633" lon="10.5124"><ele>438.0</ele><time>2026-04-25T13:43:36.912Z</time></trkpt><trkpt lat="45.8102713" lon="10.5122278"><ele>438.0</ele><time>2026-04-25T13:43:37.913Z</time></trkpt><trkpt lat="45.8101811" lon="10.51205"><ele>438.0</ele><time>2026-04-25T13:43:38.91Z</time></trkpt><trkpt lat="45.8100863" lon="10.5118668"><ele>438.0</ele><time>2026-04-25T13:43:39.932Z</time></trkpt><trkpt lat="45.8099909" lon="10.5116849"><ele>438.0</ele><time>2026-04-25T13:43:40.931Z</time></trkpt><trkpt lat="45.8098974" lon="10.5115059"><ele>438.0</ele><time>2026-04-25T13:43:41.909Z</time></trkpt><trkpt lat="45.8098" lon="10.5113249"><ele>438.0</ele><time>2026-04-25T13:43:42.902Z</time></trkpt><trkpt lat="45.809699" lon="10.5111431"><ele>438.0</ele><time>2026-04-25T13:43:43.906Z</time></trkpt><trkpt lat="45.8095952" lon="10.5109617"><ele>435.33333333333337</ele><time>2026-04-25T13:43:44.902Z</time></trkpt><trkpt lat="45.8094835" lon="10.5107748"><ele>432.6666666666667</ele><time>2026-04-25T13:43:45.934Z</time></trkpt><trkpt lat="45.80937" lon="10.5105887"><ele>430.0</ele><time>2026-04-25T13:43:46.943Z</time></trkpt><trkpt lat="45.8092559" lon="10.5104081"><ele>435.33333333333337</ele><time>2026-04-25T13:43:47.921Z</time></trkpt><trkpt lat="45.8091374" lon="10.5102257"><ele>440.66666666666663</ele><time>2026-04-25T13:43:48.903Z</time></trkpt><trkpt lat="45.809012" lon="10.5100278"><ele>446.0</ele><time>2026-04-25T13:43:49.944Z</time></trkpt><trkpt lat="45.8088947" lon="10.5098347"><ele>446.0</ele><time>2026-04-25T13:43:50.951Z</time></trkpt><trkpt lat="45.8087804" lon="10.5096577"><ele>446.0</ele><time>2026-04-25T13:43:51.911Z</time></trkpt><trkpt lat="45.8086471" lon="10.5094834"><ele>446.0</ele><time>2026-04-25T13:43:52.954Z</time></trkpt><trkpt lat="45.8085135" lon="10.5093327"><ele>445.3333333333333</ele><time>2026-04-25T13:43:53.934Z</time></trkpt><trkpt lat="45.8083695" lon="10.5091843"><ele>444.66666666666663</ele><time>2026-04-25T13:43:54.936Z</time></trkpt><trkpt lat="45.8082216" lon="10.5090338"><ele>444.0</ele><time>2026-04-25T13:43:55.944Z</time></trkpt><trkpt lat="45.8080756" lon="10.5088884"><ele>444.0</ele><time>2026-04-25T13:43:56.963Z</time></trkpt><trkpt lat="45.8079481" lon="10.5087628"><ele>444.0</ele><time>2026-04-25T13:43:57.908Z</time></trkpt><trkpt lat="45.8078241" lon="10.5086353"><ele>444.0</ele><time>2026-04-25T13:43:58.915Z</time></trkpt><trkpt lat="45.807718" lon="10.508508"><ele>444.0</ele><time>2026-04-25T13:43:59.918Z</time></trkpt><trkpt lat="45.8076335" lon="10.5083676"><ele>441.75</ele><time>2026-04-25T13:44:00.903Z</time></trkpt><trkpt lat="45.8075757" lon="10.508206"><ele>439.5</ele><time>2026-04-25T13:44:01.932Z</time></trkpt><trkpt lat="45.8075448" lon="10.5080481"><ele>437.25</ele><time>2026-04-25T13:44:02.89Z</time></trkpt><trkpt lat="45.8075163" lon="10.5078881"><ele>435.0</ele><time>2026-04-25T13:44:03.943Z</time></trkpt><trkpt lat="45.8074642" lon="10.5077602"><ele>439.75</ele><time>2026-04-25T13:44:04.945Z</time></trkpt><trkpt lat="45.8073877" lon="10.507664"><ele>444.5</ele><time>2026-04-25T13:44:05.944Z</time></trkpt><trkpt lat="45.8072869" lon="10.5075955"><ele>449.25</ele><time>2026-04-25T13:44:06.91Z</time></trkpt><trkpt lat="45.8071629" lon="10.5075435"><ele>454.0</ele><time>2026-04-25T13:44:07.928Z</time></trkpt><trkpt lat="45.8070332" lon="10.5074928"><ele>454.0</ele><time>2026-04-25T13:44:08.909Z</time></trkpt><trkpt lat="45.8068962" lon="10.5074306"><ele>454.0</ele><time>2026-04-25T13:44:09.903Z</time></trkpt><trkpt lat="45.8067523" lon="10.5073444"><ele>454.0</ele><time>2026-04-25T13:44:10.944Z</time></trkpt><trkpt lat="45.8066231" lon="10.5072306"><ele>453.33333333333337</ele><time>2026-04-25T13:44:11.916Z</time></trkpt><trkpt lat="45.8064921" lon="10.5070858"><ele>452.66666666666663</ele><time>2026-04-25T13:44:12.945Z</time></trkpt><trkpt lat="45.8063678" lon="10.5069569"><ele>452.0</ele><time>2026-04-25T13:44:13.933Z</time></trkpt><trkpt lat="45.8062315" lon="10.5068415"><ele>452.0</ele><time>2026-04-25T13:44:14.938Z</time></trkpt><trkpt lat="45.8060928" lon="10.5067476"><ele>452.0</ele><time>2026-04-25T13:44:15.953Z</time></trkpt><trkpt lat="45.8059601" lon="10.5066719"><ele>452.0</ele><time>2026-04-25T13:44:16.933Z</time></trkpt><trkpt lat="45.8058254" lon="10.5066185"><ele>452.0</ele><time>2026-04-25T13:44:17.939Z</time></trkpt><trkpt lat="45.805696" lon="10.5066021"><ele>447.5</ele><time>2026-04-25T13:44:18.909Z</time></trkpt><trkpt lat="45.8055582" lon="10.5066234"><ele>443.0</ele><time>2026-04-25T13:44:19.923Z</time></trkpt><trkpt lat="45.8054182" lon="10.5066585"><ele>438.5</ele><time>2026-04-25T13:44:20.915Z</time></trkpt><trkpt lat="45.8052623" lon="10.5066856"><ele>434.0</ele><time>2026-04-25T13:44:21.952Z</time></trkpt><trkpt lat="45.8051059" lon="10.5066903"><ele>432.3333333333333</ele><time>2026-04-25T13:44:22.941Z</time></trkpt><trkpt lat="45.8049474" lon="10.5066834"><ele>430.66666666666663</ele><time>2026-04-25T13:44:23.914Z</time></trkpt><trkpt lat="45.8047789" lon="10.5066641"><ele>429.0</ele><time>2026-04-25T13:44:24.937Z</time></trkpt><trkpt lat="45.8046235" lon="10.5066216"><ele>429.0</ele><time>2026-04-25T13:44:25.933Z</time></trkpt><trkpt lat="45.8044777" lon="10.5065695"><ele>429.0</ele><time>2026-04-25T13:44:26.908Z</time></trkpt><trkpt lat="45.8043342" lon="10.5065163"><ele>429.0</ele><time>2026-04-25T13:44:27.904Z</time></trkpt><trkpt lat="45.8041907" lon="10.5064601"><ele>429.0</ele><time>2026-04-25T13:44:28.944Z</time></trkpt><trkpt lat="45.8040607" lon="10.5063884"><ele>426.25</ele><time>2026-04-25T13:44:29.948Z</time></trkpt><trkpt lat="45.8039362" lon="10.5062878"><ele>423.5</ele><time>2026-04-25T13:44:30.942Z</time></trkpt><trkpt lat="45.8038192" lon="10.5061526"><ele>420.75</ele><time>2026-04-25T13:44:31.936Z</time></trkpt><trkpt lat="45.8037142" lon="10.5060063"><ele>418.0</ele><time>2026-04-25T13:44:32.911Z</time></trkpt><trkpt lat="45.803602" lon="10.5058686"><ele>418.6666666666667</ele><time>2026-04-25T13:44:33.908Z</time></trkpt><trkpt lat="45.8034698" lon="10.5057553"><ele>419.33333333333337</ele><time>2026-04-25T13:44:34.94Z</time></trkpt><trkpt lat="45.803321" lon="10.5056813"><ele>420.0</ele><time>2026-04-25T13:44:35.943Z</time></trkpt><trkpt lat="45.8031553" lon="10.5056318"><ele>420.0</ele><time>2026-04-25T13:44:36.93Z</time></trkpt><trkpt lat="45.8029842" lon="10.5055819"><ele>420.0</ele><time>2026-04-25T13:44:37.903Z</time></trkpt><trkpt lat="45.8028039" lon="10.5055278"><ele>420.0</ele><time>2026-04-25T13:44:38.917Z</time></trkpt><trkpt lat="45.8026325" lon="10.5054784"><ele>417.75</ele><time>2026-04-25T13:44:39.933Z</time></trkpt><trkpt lat="45.8024787" lon="10.505434"><ele>415.5</ele><time>2026-04-25T13:44:40.932Z</time></trkpt><trkpt lat="45.8023397" lon="10.5053771"><ele>413.25</ele><time>2026-04-25T13:44:41.935Z</time></trkpt><trkpt lat="45.8022171" lon="10.5052889"><ele>411.0</ele><time>2026-04-25T13:44:42.945Z</time></trkpt><trkpt lat="45.8021096" lon="10.5051704"><ele>413.5</ele><time>2026-04-25T13:44:43.93Z</time></trkpt><trkpt lat="45.8020154" lon="10.5050254"><ele>416.0</ele><time>2026-04-25T13:44:44.943Z</time></trkpt><trkpt lat="45.8019258" lon="10.5048937"><ele>418.5</ele><time>2026-04-25T13:44:45.971Z</time></trkpt><trkpt lat="45.8018324" lon="10.5048095"><ele>421.0</ele><time>2026-04-25T13:44:46.927Z</time></trkpt><trkpt lat="45.8017217" lon="10.5047653"><ele>421.0</ele><time>2026-04-25T13:44:47.932Z</time></trkpt><trkpt lat="45.8016081" lon="10.5047685"><ele>421.0</ele><time>2026-04-25T13:44:48.934Z</time></trkpt><trkpt lat="45.8014921" lon="10.5047803"><ele>421.0</ele><time>2026-04-25T13:44:49.939Z</time></trkpt><trkpt lat="45.8013722" lon="10.5047584"><ele>421.0</ele><time>2026-04-25T13:44:50.935Z</time></trkpt><trkpt lat="45.8012474" lon="10.504696"><ele>421.0</ele><time>2026-04-25T13:44:51.933Z</time></trkpt><trkpt lat="45.801122" lon="10.5045996"><ele>421.0</ele><time>2026-04-25T13:44:52.919Z</time></trkpt><trkpt lat="45.8009909" lon="10.5044947"><ele>421.0</ele><time>2026-04-25T13:44:53.946Z</time></trkpt><trkpt lat="45.8008612" lon="10.5044166"><ele>421.0</ele><time>2026-04-25T13:44:54.943Z</time></trkpt><trkpt lat="45.8007367" lon="10.5043622"><ele>425.0</ele><time>2026-04-25T13:44:55.93Z</time></trkpt><trkpt lat="45.8006232" lon="10.5043164"><ele>429.0</ele><time>2026-04-25T13:44:56.902Z</time></trkpt><trkpt lat="45.8005139" lon="10.5042598"><ele>433.0</ele><time>2026-04-25T13:44:57.905Z</time></trkpt><trkpt lat="45.8004135" lon="10.504169"><ele>437.0</ele><time>2026-04-25T13:44:58.912Z</time></trkpt><trkpt lat="45.800329" lon="10.5040525"><ele>436.99999999999994</ele><time>2026-04-25T13:44:59.906Z</time></trkpt><trkpt lat="45.8002527" lon="10.5039359"><ele>437.0</ele><time>2026-04-25T13:45:00.931Z</time></trkpt><trkpt lat="45.8001865" lon="10.5038323"><ele>437.0</ele><time>2026-04-25T13:45:01.95Z</time></trkpt><trkpt lat="45.80013" lon="10.5037424"><ele>437.0</ele><time>2026-04-25T13:45:02.94Z</time></trkpt><trkpt lat="45.8000811" lon="10.5036645"><ele>436.99999999999994</ele><time>2026-04-25T13:45:03.913Z</time></trkpt><trkpt lat="45.8000342" lon="10.5035839"><ele>437.0</ele><time>2026-04-25T13:45:04.91Z</time></trkpt><trkpt lat="45.7999856" lon="10.50349"><ele>439.99999999999994</ele><time>2026-04-25T13:45:05.94Z</time></trkpt><trkpt lat="45.7999319" lon="10.5034032"><ele>443.0</ele><time>2026-04-25T13:45:06.939Z</time></trkpt><trkpt lat="45.7998704" lon="10.5033481"><ele>446.0</ele><time>2026-04-25T13:45:07.913Z</time></trkpt><trkpt lat="45.7997992" lon="10.5033373"><ele>449.0</ele><time>2026-04-25T13:45:08.903Z</time></trkpt><trkpt lat="45.7997283" lon="10.5033763"><ele>451.99999999999994</ele><time>2026-04-25T13:45:09.941Z</time></trkpt><trkpt lat="45.7996777" lon="10.5034577"><ele>455.0</ele><time>2026-04-25T13:45:10.915Z</time></trkpt><trkpt lat="45.799637" lon="10.5035777"><ele>455.0</ele><time>2026-04-25T13:45:11.949Z</time></trkpt><trkpt lat="45.7995848" lon="10.503697"><ele>455.0</ele><time>2026-04-25T13:45:12.929Z</time></trkpt><trkpt lat="45.7995014" lon="10.5038028"><ele>455.0</ele><time>2026-04-25T13:45:13.933Z</time></trkpt><trkpt lat="45.7994117" lon="10.5039055"><ele>455.0</ele><time>2026-04-25T13:45:14.903Z</time></trkpt><trkpt lat="45.7993312" lon="10.5040169"><ele>455.0</ele><time>2026-04-25T13:45:15.915Z</time></trkpt><trkpt lat="45.7992644" lon="10.5041272"><ele>453.16666666666663</ele><time>2026-04-25T13:45:16.934Z</time></trkpt><trkpt lat="45.7991995" lon="10.5042221"><ele>451.3333333333333</ele><time>2026-04-25T13:45:17.909Z</time></trkpt><trkpt lat="45.7991266" lon="10.5042836"><ele>449.5</ele><time>2026-04-25T13:45:18.909Z</time></trkpt><trkpt lat="45.7990408" lon="10.5043092"><ele>447.66666666666663</ele><time>2026-04-25T13:45:19.942Z</time></trkpt><trkpt lat="45.7989528" lon="10.5043072"><ele>445.8333333333333</ele><time>2026-04-25T13:45:20.946Z</time></trkpt><trkpt lat="45.7988669" lon="10.5042603"><ele>444.0</ele><time>2026-04-25T13:45:21.915Z</time></trkpt><trkpt lat="45.7987744" lon="10.5041942"><ele>444.0</ele><time>2026-04-25T13:45:22.918Z</time></trkpt><trkpt lat="45.7986713" lon="10.5041194"><ele>444.0</ele><time>2026-04-25T13:45:23.936Z</time></trkpt><trkpt lat="45.7985588" lon="10.5040568"><ele>444.0</ele><time>2026-04-25T13:45:24.908Z</time></trkpt><trkpt lat="45.7984263" lon="10.5040071"><ele>444.0</ele><time>2026-04-25T13:45:25.934Z</time></trkpt><trkpt lat="45.7982888" lon="10.5039734"><ele>443.25</ele><time>2026-04-25T13:45:26.913Z</time></trkpt><trkpt lat="45.7981459" lon="10.503933"><ele>442.5</ele><time>2026-04-25T13:45:27.931Z</time></trkpt><trkpt lat="45.7980131" lon="10.5038676"><ele>441.75</ele><time>2026-04-25T13:45:28.938Z</time></trkpt><trkpt lat="45.7978899" lon="10.5037805"><ele>441.0</ele><time>2026-04-25T13:45:29.942Z</time></trkpt><trkpt lat="45.7977785" lon="10.5036934"><ele>445.25</ele><time>2026-04-25T13:45:30.932Z</time></trkpt><trkpt lat="45.7976696" lon="10.5036235"><ele>449.5</ele><time>2026-04-25T13:45:31.909Z</time></trkpt><trkpt lat="45.7975586" lon="10.503565"><ele>453.75</ele><time>2026-04-25T13:45:32.911Z</time></trkpt><trkpt lat="45.797444" lon="10.5034975"><ele>458.0</ele><time>2026-04-25T13:45:33.94Z</time></trkpt><trkpt lat="45.7973348" lon="10.503416"><ele>458.0</ele><time>2026-04-25T13:45:34.906Z</time></trkpt><trkpt lat="45.7972214" lon="10.5033043"><ele>458.0</ele><time>2026-04-25T13:45:35.93Z</time></trkpt><trkpt lat="45.7971201" lon="10.5031611"><ele>458.0</ele><time>2026-04-25T13:45:36.942Z</time></trkpt><trkpt lat="45.7970213" lon="10.5030067"><ele>458.0</ele><time>2026-04-25T13:45:37.934Z</time></trkpt><trkpt lat="45.7969278" lon="10.5028558"><ele>455.25</ele><time>2026-04-25T13:45:38.903Z</time></trkpt><trkpt lat="45.7968393" lon="10.5026879"><ele>452.5</ele><time>2026-04-25T13:45:39.951Z</time></trkpt><trkpt lat="45.7967776" lon="10.5025203"><ele>449.75</ele><time>2026-04-25T13:45:40.935Z</time></trkpt><trkpt lat="45.7967345" lon="10.5023541"><ele>447.0</ele><time>2026-04-25T13:45:41.932Z</time></trkpt><trkpt lat="45.7966917" lon="10.5022107"><ele>447.0</ele><time>2026-04-25T13:45:42.915Z</time></trkpt><trkpt lat="45.7966307" lon="10.5020856"><ele>447.0</ele><time>2026-04-25T13:45:43.906Z</time></trkpt><trkpt lat="45.7965413" lon="10.5019797"><ele>447.0</ele><time>2026-04-25T13:45:44.945Z</time></trkpt><trkpt lat="45.7964341" lon="10.5019088"><ele>447.0</ele><time>2026-04-25T13:45:45.944Z</time></trkpt><trkpt lat="45.7963147" lon="10.5018669"><ele>446.75</ele><time>2026-04-25T13:45:46.929Z</time></trkpt><trkpt lat="45.7961836" lon="10.5018234"><ele>446.5</ele><time>2026-04-25T13:45:47.941Z</time></trkpt><trkpt lat="45.7960582" lon="10.5017508"><ele>446.25</ele><time>2026-04-25T13:45:48.909Z</time></trkpt><trkpt lat="45.7959335" lon="10.5016497"><ele>446.0</ele><time>2026-04-25T13:45:49.911Z</time></trkpt><trkpt lat="45.7958035" lon="10.5015753"><ele>446.0</ele><time>2026-04-25T13:45:50.913Z</time></trkpt><trkpt lat="45.7956576" lon="10.5015412"><ele>446.0</ele><time>2026-04-25T13:45:51.926Z</time></trkpt><trkpt lat="45.7955008" lon="10.5015142"><ele>446.0</ele><time>2026-04-25T13:45:52.948Z</time></trkpt><trkpt lat="45.795349" lon="10.5014687"><ele>446.0</ele><time>2026-04-25T13:45:53.926Z</time></trkpt><trkpt lat="45.7951921" lon="10.5014136"><ele>446.0</ele><time>2026-04-25T13:45:54.951Z</time></trkpt><trkpt lat="45.7950458" lon="10.5013601"><ele>446.0</ele><time>2026-04-25T13:45:55.941Z</time></trkpt><trkpt lat="45.7949118" lon="10.5012951"><ele>449.75</ele><time>2026-04-25T13:45:56.938Z</time></trkpt><trkpt lat="45.7948008" lon="10.5012092"><ele>453.5</ele><time>2026-04-25T13:45:57.92Z</time></trkpt><trkpt lat="45.7947032" lon="10.5010972"><ele>457.25</ele><time>2026-04-25T13:45:58.942Z</time></trkpt><trkpt lat="45.7946092" lon="10.5010026"><ele>461.0</ele><time>2026-04-25T13:45:59.942Z</time></trkpt><trkpt lat="45.7945038" lon="10.5009501"><ele>461.0</ele><time>2026-04-25T13:46:00.93Z</time></trkpt><trkpt lat="45.7943783" lon="10.5009385"><ele>461.0</ele><time>2026-04-25T13:46:01.955Z</time></trkpt><trkpt lat="45.7942462" lon="10.5009392"><ele>461.0</ele><time>2026-04-25T13:46:02.934Z</time></trkpt><trkpt lat="45.7941052" lon="10.5009226"><ele>461.0</ele><time>2026-04-25T13:46:03.903Z</time></trkpt><trkpt lat="45.7939486" lon="10.5008931"><ele>454.0</ele><time>2026-04-25T13:46:04.913Z</time></trkpt><trkpt lat="45.793786" lon="10.5008586"><ele>447.0</ele><time>2026-04-25T13:46:05.931Z</time></trkpt><trkpt lat="45.7936235" lon="10.5008245"><ele>440.0</ele><time>2026-04-25T13:46:06.916Z</time></trkpt><trkpt lat="45.7934608" lon="10.5007861"><ele>436.66666666666663</ele><time>2026-04-25T13:46:07.91Z</time></trkpt><trkpt lat="45.7933052" lon="10.5007427"><ele>433.33333333333337</ele><time>2026-04-25T13:46:08.91Z</time></trkpt><trkpt lat="45.7931574" lon="10.500697"><ele>430.0</ele><time>2026-04-25T13:46:09.908Z</time></trkpt><trkpt lat="45.7930136" lon="10.5006479"><ele>430.0</ele><time>2026-04-25T13:46:10.907Z</time></trkpt><trkpt lat="45.7928694" lon="10.5005935"><ele>430.0</ele><time>2026-04-25T13:46:11.949Z</time></trkpt><trkpt lat="45.7927331" lon="10.5005353"><ele>430.0</ele><time>2026-04-25T13:46:12.954Z</time></trkpt><trkpt lat="45.7926033" lon="10.5004606"><ele>430.0</ele><time>2026-04-25T13:46:13.919Z</time></trkpt><trkpt lat="45.7924716" lon="10.5003512"><ele>433.25</ele><time>2026-04-25T13:46:14.935Z</time></trkpt><trkpt lat="45.792357" lon="10.5002221"><ele>436.5</ele><time>2026-04-25T13:46:15.918Z</time></trkpt><trkpt lat="45.7922525" lon="10.5000742"><ele>439.75</ele><time>2026-04-25T13:46:16.957Z</time></trkpt><trkpt lat="45.7921627" lon="10.4999428"><ele>443.0</ele><time>2026-04-25T13:46:17.938Z</time></trkpt><trkpt lat="45.7920782" lon="10.4998282"><ele>443.0</ele><time>2026-04-25T13:46:18.922Z</time></trkpt><trkpt lat="45.791996" lon="10.4997421"><ele>442.99999999999994</ele><time>2026-04-25T13:46:19.908Z</time></trkpt><trkpt lat="45.7919074" lon="10.4996897"><ele>442.99999999999994</ele><time>2026-04-25T13:46:20.905Z</time></trkpt><trkpt lat="45.7918099" lon="10.4996842"><ele>443.0</ele><time>2026-04-25T13:46:21.948Z</time></trkpt><trkpt lat="45.7917167" lon="10.4997351"><ele>443.0</ele><time>2026-04-25T13:46:22.965Z</time></trkpt><trkpt lat="45.7916273" lon="10.4998216"><ele>439.5</ele><time>2026-04-25T13:46:23.913Z</time></trkpt><trkpt lat="45.791515" lon="10.4999275"><ele>436.0</ele><time>2026-04-25T13:46:24.953Z</time></trkpt><trkpt lat="45.7913981" lon="10.5000107"><ele>432.5</ele><time>2026-04-25T13:46:25.911Z</time></trkpt><trkpt lat="45.7912789" lon="10.5000838"><ele>429.0</ele><time>2026-04-25T13:46:26.922Z</time></trkpt><trkpt lat="45.7911646" lon="10.5001436"><ele>429.0</ele><time>2026-04-25T13:46:27.949Z</time></trkpt><trkpt lat="45.7910542" lon="10.5001749"><ele>429.0</ele><time>2026-04-25T13:46:28.91Z</time></trkpt><trkpt lat="45.7909268" lon="10.5001686"><ele>429.0</ele><time>2026-04-25T13:46:29.938Z</time></trkpt><trkpt lat="45.790801" lon="10.5001352"><ele>429.0</ele><time>2026-04-25T13:46:30.911Z</time></trkpt><trkpt lat="45.7906633" lon="10.5000918"><ele>428.66666666666663</ele><time>2026-04-25T13:46:31.932Z</time></trkpt><trkpt lat="45.7905236" lon="10.500062"><ele>428.3333333333333</ele><time>2026-04-25T13:46:32.901Z</time></trkpt><trkpt lat="45.7903639" lon="10.5000485"><ele>428.0</ele><time>2026-04-25T13:46:33.935Z</time></trkpt><trkpt lat="45.7901972" lon="10.5000492"><ele>426.66666666666663</ele><time>2026-04-25T13:46:34.947Z</time></trkpt><trkpt lat="45.7900318" lon="10.5000538"><ele>425.33333333333337</ele><time>2026-04-25T13:46:35.936Z</time></trkpt><trkpt lat="45.7898636" lon="10.5000633"><ele>424.0</ele><time>2026-04-25T13:46:36.905Z</time></trkpt><trkpt lat="45.7896824" lon="10.5000866"><ele>424.0</ele><time>2026-04-25T13:46:37.913Z</time></trkpt><trkpt lat="45.7894986" lon="10.5001285"><ele>424.0</ele><time>2026-04-25T13:46:38.935Z</time></trkpt><trkpt lat="45.7893306" lon="10.5001753"><ele>424.0</ele><time>2026-04-25T13:46:39.905Z</time></trkpt><trkpt lat="45.7891466" lon="10.5002307"><ele>423.6666666666667</ele><time>2026-04-25T13:46:40.951Z</time></trkpt><trkpt lat="45.7889763" lon="10.5002878"><ele>423.33333333333337</ele><time>2026-04-25T13:46:41.916Z</time></trkpt><trkpt lat="45.7887975" lon="10.5003539"><ele>423.0</ele><time>2026-04-25T13:46:42.938Z</time></trkpt><trkpt lat="45.7886287" lon="10.50042"><ele>416.33333333333337</ele><time>2026-04-25T13:46:43.949Z</time></trkpt><trkpt lat="45.7884644" lon="10.5004863"><ele>409.6666666666667</ele><time>2026-04-25T13:46:44.937Z</time></trkpt><trkpt lat="45.7882901" lon="10.5005493"><ele>403.0</ele><time>2026-04-25T13:46:45.967Z</time></trkpt><trkpt lat="45.7881193" lon="10.5005989"><ele>403.0</ele><time>2026-04-25T13:46:46.955Z</time></trkpt><trkpt lat="45.7879533" lon="10.500646"><ele>403.0</ele><time>2026-04-25T13:46:47.912Z</time></trkpt><trkpt lat="45.7877766" lon="10.5007047"><ele>403.0</ele><time>2026-04-25T13:46:48.932Z</time></trkpt><trkpt lat="45.7876157" lon="10.5007713"><ele>405.33333333333337</ele><time>2026-04-25T13:46:49.908Z</time></trkpt><trkpt lat="45.7874528" lon="10.5008442"><ele>407.66666666666663</ele><time>2026-04-25T13:46:50.931Z</time></trkpt><trkpt lat="45.7872973" lon="10.5009107"><ele>410.0</ele><time>2026-04-25T13:46:51.934Z</time></trkpt><trkpt lat="45.7871392" lon="10.5009614"><ele>410.0</ele><time>2026-04-25T13:46:52.956Z</time></trkpt><trkpt lat="45.786985" lon="10.5009895"><ele>410.0</ele><time>2026-04-25T13:46:53.94Z</time></trkpt><trkpt lat="45.7868259" lon="10.501006"><ele>410.0</ele><time>2026-04-25T13:46:54.944Z</time></trkpt><trkpt lat="45.7866681" lon="10.5010171"><ele>408.66666666666663</ele><time>2026-04-25T13:46:55.937Z</time></trkpt><trkpt lat="45.7865081" lon="10.5010274"><ele>407.33333333333337</ele><time>2026-04-25T13:46:56.944Z</time></trkpt><trkpt lat="45.7863549" lon="10.5010372"><ele>406.0</ele><time>2026-04-25T13:46:57.914Z</time></trkpt><trkpt lat="45.7861953" lon="10.5010415"><ele>406.0</ele><time>2026-04-25T13:46:58.931Z</time></trkpt><trkpt lat="45.7860433" lon="10.5010514"><ele>406.0</ele><time>2026-04-25T13:46:59.936Z</time></trkpt><trkpt lat="45.7859017" lon="10.5010651"><ele>406.0</ele><time>2026-04-25T13:47:00.908Z</time></trkpt><trkpt lat="45.7857589" lon="10.5010781"><ele>406.0</ele><time>2026-04-25T13:47:01.912Z</time></trkpt><trkpt lat="45.7856184" lon="10.5010799"><ele>404.75</ele><time>2026-04-25T13:47:02.906Z</time></trkpt><trkpt lat="45.7854729" lon="10.5010565"><ele>403.5</ele><time>2026-04-25T13:47:03.941Z</time></trkpt><trkpt lat="45.7853317" lon="10.5010017"><ele>402.25</ele><time>2026-04-25T13:47:04.953Z</time></trkpt><trkpt lat="45.7851939" lon="10.5009341"><ele>401.0</ele><time>2026-04-25T13:47:05.94Z</time></trkpt><trkpt lat="45.7850506" lon="10.5008645"><ele>399.5</ele><time>2026-04-25T13:47:06.948Z</time></trkpt><trkpt lat="45.7849192" lon="10.5008018"><ele>398.0</ele><time>2026-04-25T13:47:07.915Z</time></trkpt><trkpt lat="45.784791" lon="10.5007306"><ele>396.5</ele><time>2026-04-25T13:47:08.928Z</time></trkpt><trkpt lat="45.7846712" lon="10.5006536"><ele>395.0</ele><time>2026-04-25T13:47:09.953Z</time></trkpt><trkpt lat="45.7845558" lon="10.5005913"><ele>395.0</ele><time>2026-04-25T13:47:10.937Z</time></trkpt><trkpt lat="45.7844284" lon="10.5005506"><ele>395.0</ele><time>2026-04-25T13:47:11.944Z</time></trkpt><trkpt lat="45.7842952" lon="10.5005452"><ele>395.0</ele><time>2026-04-25T13:47:12.96Z</time></trkpt><trkpt lat="45.7841645" lon="10.5005761"><ele>395.0</ele><time>2026-04-25T13:47:13.957Z</time></trkpt><trkpt lat="45.7840395" lon="10.5006357"><ele>394.5</ele><time>2026-04-25T13:47:14.905Z</time></trkpt><trkpt lat="45.783906" lon="10.5007297"><ele>394.0</ele><time>2026-04-25T13:47:15.951Z</time></trkpt><trkpt lat="45.7837815" lon="10.5008426"><ele>393.5</ele><time>2026-04-25T13:47:16.952Z</time></trkpt><trkpt lat="45.783661" lon="10.500978"><ele>393.0</ele><time>2026-04-25T13:47:17.946Z</time></trkpt><trkpt lat="45.7835446" lon="10.5011393"><ele>393.0</ele><time>2026-04-25T13:47:18.961Z</time></trkpt><trkpt lat="45.783454" lon="10.5013074"><ele>393.0</ele><time>2026-04-25T13:47:19.927Z</time></trkpt><trkpt lat="45.7833761" lon="10.5014882"><ele>393.0</ele><time>2026-04-25T13:47:20.946Z</time></trkpt><trkpt lat="45.7832944" lon="10.5016496"><ele>393.0</ele><time>2026-04-25T13:47:21.945Z</time></trkpt><trkpt lat="45.7831952" lon="10.5017899"><ele>393.0</ele><time>2026-04-25T13:47:22.905Z</time></trkpt><trkpt lat="45.7830784" lon="10.5019274"><ele>393.0</ele><time>2026-04-25T13:47:23.904Z</time></trkpt><trkpt lat="45.7829499" lon="10.5020621"><ele>393.0</ele><time>2026-04-25T13:47:24.921Z</time></trkpt><trkpt lat="45.782808" lon="10.502196"><ele>393.66666666666663</ele><time>2026-04-25T13:47:25.969Z</time></trkpt><trkpt lat="45.7826706" lon="10.5023094"><ele>394.3333333333333</ele><time>2026-04-25T13:47:26.916Z</time></trkpt><trkpt lat="45.7825183" lon="10.5024223"><ele>395.0</ele><time>2026-04-25T13:47:27.913Z</time></trkpt><trkpt lat="45.782357" lon="10.5025311"><ele>395.0</ele><time>2026-04-25T13:47:28.95Z</time></trkpt><trkpt lat="45.7822114" lon="10.5026233"><ele>395.0</ele><time>2026-04-25T13:47:29.933Z</time></trkpt><trkpt lat="45.7820713" lon="10.5027081"><ele>395.0</ele><time>2026-04-25T13:47:30.92Z</time></trkpt><trkpt lat="45.7819249" lon="10.5027964"><ele>396.66666666666663</ele><time>2026-04-25T13:47:31.959Z</time></trkpt><trkpt lat="45.7817854" lon="10.5028711"><ele>398.33333333333337</ele><time>2026-04-25T13:47:32.912Z</time></trkpt><trkpt lat="45.7816326" lon="10.502941"><ele>400.0</ele><time>2026-04-25T13:47:33.933Z</time></trkpt><trkpt lat="45.7814895" lon="10.5029962"><ele>396.5</ele><time>2026-04-25T13:47:34.915Z</time></trkpt><trkpt lat="45.7813445" lon="10.50305"><ele>393.0</ele><time>2026-04-25T13:47:35.95Z</time></trkpt><trkpt lat="45.7812142" lon="10.5030913"><ele>389.5</ele><time>2026-04-25T13:47:36.911Z</time></trkpt><trkpt lat="45.781072" lon="10.5031183"><ele>386.0</ele><time>2026-04-25T13:47:37.937Z</time></trkpt><trkpt lat="45.7809262" lon="10.503131"><ele>386.0</ele><time>2026-04-25T13:47:38.954Z</time></trkpt><trkpt lat="45.7807857" lon="10.5031396"><ele>386.0</ele><time>2026-04-25T13:47:39.911Z</time></trkpt><trkpt lat="45.7806303" lon="10.5031491"><ele>386.0</ele><time>2026-04-25T13:47:40.955Z</time></trkpt><trkpt lat="45.7804816" lon="10.5031642"><ele>386.0</ele><time>2026-04-25T13:47:41.942Z</time></trkpt><trkpt lat="45.7803314" lon="10.5031958"><ele>386.0</ele><time>2026-04-25T13:47:42.935Z</time></trkpt><trkpt lat="45.780184" lon="10.5032404"><ele>386.0</ele><time>2026-04-25T13:47:43.917Z</time></trkpt><trkpt lat="45.7800316" lon="10.5032971"><ele>386.0</ele><time>2026-04-25T13:47:44.939Z</time></trkpt><trkpt lat="45.7798845" lon="10.5033444"><ele>387.66666666666663</ele><time>2026-04-25T13:47:45.917Z</time></trkpt><trkpt lat="45.7797268" lon="10.5033756"><ele>389.33333333333337</ele><time>2026-04-25T13:47:46.934Z</time></trkpt><trkpt lat="45.779571" lon="10.503393"><ele>391.0</ele><time>2026-04-25T13:47:47.945Z</time></trkpt><trkpt lat="45.7794288" lon="10.5034059"><ele>391.0</ele><time>2026-04-25T13:47:48.91Z</time></trkpt><trkpt lat="45.7792846" lon="10.5034188"><ele>391.0</ele><time>2026-04-25T13:47:49.936Z</time></trkpt><trkpt lat="45.7791505" lon="10.5034243"><ele>391.0</ele><time>2026-04-25T13:47:50.933Z</time></trkpt><trkpt lat="45.7790204" lon="10.5034144"><ele>391.0</ele><time>2026-04-25T13:47:51.92Z</time></trkpt><trkpt lat="45.7788842" lon="10.5033865"><ele>391.0</ele><time>2026-04-25T13:47:52.947Z</time></trkpt><trkpt lat="45.7787525" lon="10.5033396"><ele>391.0</ele><time>2026-04-25T13:47:53.936Z</time></trkpt><trkpt lat="45.7786177" lon="10.5032779"><ele>391.0</ele><time>2026-04-25T13:47:54.939Z</time></trkpt><trkpt lat="45.7784778" lon="10.5032159"><ele>391.0</ele><time>2026-04-25T13:47:55.937Z</time></trkpt><trkpt lat="45.7783338" lon="10.5031642"><ele>389.6666666666667</ele><time>2026-04-25T13:47:56.924Z</time></trkpt><trkpt lat="45.7781808" lon="10.5031442"><ele>388.33333333333337</ele><time>2026-04-25T13:47:57.913Z</time></trkpt><trkpt lat="45.778011" lon="10.5031561"><ele>387.0</ele><time>2026-04-25T13:47:58.942Z</time></trkpt><trkpt lat="45.7778541" lon="10.5031859"><ele>387.0</ele><time>2026-04-25T13:47:59.911Z</time></trkpt><trkpt lat="45.7777013" lon="10.503222"><ele>387.0</ele><time>2026-04-25T13:48:00.899Z</time></trkpt><trkpt lat="45.7775507" lon="10.5032634"><ele>387.0</ele><time>2026-04-25T13:48:01.904Z</time></trkpt><trkpt lat="45.7773949" lon="10.50332"><ele>387.25</ele><time>2026-04-25T13:48:02.943Z</time></trkpt><trkpt lat="45.7772495" lon="10.5033937"><ele>387.5</ele><time>2026-04-25T13:48:03.943Z</time></trkpt><trkpt lat="45.7771105" lon="10.5034735"><ele>387.75</ele><time>2026-04-25T13:48:04.952Z</time></trkpt><trkpt lat="45.7769819" lon="10.503549"><ele>388.0</ele><time>2026-04-25T13:48:05.934Z</time></trkpt><trkpt lat="45.7768561" lon="10.5036257"><ele>390.5</ele><time>2026-04-25T13:48:06.952Z</time></trkpt><trkpt lat="45.7767397" lon="10.5036946"><ele>393.0</ele><time>2026-04-25T13:48:07.949Z</time></trkpt><trkpt lat="45.7766199" lon="10.5037452"><ele>395.5</ele><time>2026-04-25T13:48:08.96Z</time></trkpt><trkpt lat="45.7765022" lon="10.5037618"><ele>398.0</ele><time>2026-04-25T13:48:09.911Z</time></trkpt><trkpt lat="45.7763703" lon="10.503742"><ele>398.0</ele><time>2026-04-25T13:48:10.936Z</time></trkpt><trkpt lat="45.7762401" lon="10.5036806"><ele>398.0</ele><time>2026-04-25T13:48:11.924Z</time></trkpt><trkpt lat="45.7761014" lon="10.5035872"><ele>398.0</ele><time>2026-04-25T13:48:12.945Z</time></trkpt><trkpt lat="45.7759606" lon="10.5034719"><ele>394.0</ele><time>2026-04-25T13:48:13.945Z</time></trkpt><trkpt lat="45.77582" lon="10.5033407"><ele>390.0</ele><time>2026-04-25T13:48:14.911Z</time></trkpt><trkpt lat="45.7756722" lon="10.5031947"><ele>386.0</ele><time>2026-04-25T13:48:15.936Z</time></trkpt><trkpt lat="45.7755381" lon="10.5030611"><ele>386.0</ele><time>2026-04-25T13:48:16.937Z</time></trkpt><trkpt lat="45.7754038" lon="10.502936"><ele>386.0</ele><time>2026-04-25T13:48:17.947Z</time></trkpt><trkpt lat="45.7752617" lon="10.5028213"><ele>386.0</ele><time>2026-04-25T13:48:18.948Z</time></trkpt><trkpt lat="45.7751147" lon="10.5027153"><ele>390.0</ele><time>2026-04-25T13:48:19.926Z</time></trkpt><trkpt lat="45.7749546" lon="10.5026115"><ele>394.0</ele><time>2026-04-25T13:48:20.944Z</time></trkpt><trkpt lat="45.7747967" lon="10.5025315"><ele>398.0</ele><time>2026-04-25T13:48:21.928Z</time></trkpt><trkpt lat="45.7746397" lon="10.5024733"><ele>398.0</ele><time>2026-04-25T13:48:22.909Z</time></trkpt><trkpt lat="45.7744742" lon="10.5024274"><ele>398.0</ele><time>2026-04-25T13:48:23.945Z</time></trkpt><trkpt lat="45.7743201" lon="10.5023954"><ele>398.0</ele><time>2026-04-25T13:48:24.919Z</time></trkpt><trkpt lat="45.7741572" lon="10.5023586"><ele>394.3333333333333</ele><time>2026-04-25T13:48:25.953Z</time></trkpt><trkpt lat="45.7740163" lon="10.5023064"><ele>390.66666666666663</ele><time>2026-04-25T13:48:26.916Z</time></trkpt><trkpt lat="45.7738721" lon="10.5022335"><ele>387.0</ele><time>2026-04-25T13:48:27.912Z</time></trkpt><trkpt lat="45.7737289" lon="10.5021493"><ele>391.66666666666663</ele><time>2026-04-25T13:48:28.931Z</time></trkpt><trkpt lat="45.7735894" lon="10.5020643"><ele>396.3333333333333</ele><time>2026-04-25T13:48:29.923Z</time></trkpt><trkpt lat="45.7734456" lon="10.5019752"><ele>401.0</ele><time>2026-04-25T13:48:30.942Z</time></trkpt><trkpt lat="45.7733117" lon="10.5018757"><ele>401.0</ele><time>2026-04-25T13:48:31.912Z</time></trkpt><trkpt lat="45.7731844" lon="10.5017582"><ele>401.0</ele><time>2026-04-25T13:48:32.935Z</time></trkpt><trkpt lat="45.7730686" lon="10.5016372"><ele>401.0</ele><time>2026-04-25T13:48:33.916Z</time></trkpt><trkpt lat="45.7729524" lon="10.5015039"><ele>401.0</ele><time>2026-04-25T13:48:34.915Z</time></trkpt><trkpt lat="45.7728345" lon="10.5013566"><ele>400.66666666666663</ele><time>2026-04-25T13:48:35.938Z</time></trkpt><trkpt lat="45.7727203" lon="10.5012087"><ele>400.33333333333337</ele><time>2026-04-25T13:48:36.908Z</time></trkpt><trkpt lat="45.7725973" lon="10.5010429"><ele>400.0</ele><time>2026-04-25T13:48:37.936Z</time></trkpt><trkpt lat="45.7724798" lon="10.5008787"><ele>400.0</ele><time>2026-04-25T13:48:38.876Z</time></trkpt><trkpt lat="45.7723553" lon="10.5006995"><ele>400.0</ele><time>2026-04-25T13:48:39.889Z</time></trkpt><trkpt lat="45.7722325" lon="10.5005212"><ele>400.0</ele><time>2026-04-25T13:48:40.902Z</time></trkpt><trkpt lat="45.7721078" lon="10.5003441"><ele>397.0</ele><time>2026-04-25T13:48:41.886Z</time></trkpt><trkpt lat="45.7719829" lon="10.5001702"><ele>394.0</ele><time>2026-04-25T13:48:42.864Z</time></trkpt><trkpt lat="45.7718521" lon="10.4999933"><ele>391.0</ele><time>2026-04-25T13:48:43.858Z</time></trkpt><trkpt lat="45.7717212" lon="10.4998122"><ele>391.0</ele><time>2026-04-25T13:48:44.888Z</time></trkpt><trkpt lat="45.7715917" lon="10.4996359"><ele>391.0</ele><time>2026-04-25T13:48:45.889Z</time></trkpt><trkpt lat="45.7714669" lon="10.499463"><ele>391.0</ele><time>2026-04-25T13:48:46.856Z</time></trkpt><trkpt lat="45.771332" lon="10.4992868"><ele>391.33333333333337</ele><time>2026-04-25T13:48:47.851Z</time></trkpt><trkpt lat="45.7711916" lon="10.4991169"><ele>391.66666666666663</ele><time>2026-04-25T13:48:48.858Z</time></trkpt><trkpt lat="45.7710436" lon="10.4989502"><ele>392.0</ele><time>2026-04-25T13:48:49.883Z</time></trkpt><trkpt lat="45.7708984" lon="10.4987872"><ele>403.3333333333333</ele><time>2026-04-25T13:48:50.861Z</time></trkpt><trkpt lat="45.7707381" lon="10.4986195"><ele>414.66666666666663</ele><time>2026-04-25T13:48:51.891Z</time></trkpt><trkpt lat="45.7705884" lon="10.4984581"><ele>426.0</ele><time>2026-04-25T13:48:52.879Z</time></trkpt><trkpt lat="45.7704447" lon="10.4983038"><ele>426.0</ele><time>2026-04-25T13:48:53.878Z</time></trkpt><trkpt lat="45.7703069" lon="10.4981642"><ele>426.0</ele><time>2026-04-25T13:48:54.879Z</time></trkpt><trkpt lat="45.770178" lon="10.4980196"><ele>426.0</ele><time>2026-04-25T13:48:55.883Z</time></trkpt><trkpt lat="45.7700639" lon="10.497861"><ele>422.5</ele><time>2026-04-25T13:48:56.893Z</time></trkpt><trkpt lat="45.7699691" lon="10.497683"><ele>419.0</ele><time>2026-04-25T13:48:57.899Z</time></trkpt><trkpt lat="45.7698889" lon="10.4975124"><ele>415.5</ele><time>2026-04-25T13:48:58.863Z</time></trkpt><trkpt lat="45.7698073" lon="10.4973397"><ele>412.0</ele><time>2026-04-25T13:48:59.897Z</time></trkpt><trkpt lat="45.7697319" lon="10.4971918"><ele>409.5</ele><time>2026-04-25T13:49:00.845Z</time></trkpt><trkpt lat="45.7696391" lon="10.4970396"><ele>407.0</ele><time>2026-04-25T13:49:01.874Z</time></trkpt><trkpt lat="45.7695261" lon="10.4969071"><ele>404.5</ele><time>2026-04-25T13:49:02.887Z</time></trkpt><trkpt lat="45.7694051" lon="10.4968081"><ele>402.0</ele><time>2026-04-25T13:49:03.875Z</time></trkpt><trkpt lat="45.7692908" lon="10.4967037"><ele>402.0</ele><time>2026-04-25T13:49:04.879Z</time></trkpt><trkpt lat="45.7691806" lon="10.4966013"><ele>402.0</ele><time>2026-04-25T13:49:05.894Z</time></trkpt><trkpt lat="45.7690861" lon="10.496478"><ele>402.0</ele><time>2026-04-25T13:49:06.888Z</time></trkpt><trkpt lat="45.7690024" lon="10.4963258"><ele>402.0</ele><time>2026-04-25T13:49:07.886Z</time></trkpt><trkpt lat="45.7689296" lon="10.4961459"><ele>405.5</ele><time>2026-04-25T13:49:08.888Z</time></trkpt><trkpt lat="45.768868" lon="10.4959575"><ele>409.0</ele><time>2026-04-25T13:49:09.878Z</time></trkpt><trkpt lat="45.7688247" lon="10.4957626"><ele>412.5</ele><time>2026-04-25T13:49:10.887Z</time></trkpt><trkpt lat="45.7688059" lon="10.4955616"><ele>416.0</ele><time>2026-04-25T13:49:11.892Z</time></trkpt><trkpt lat="45.7687989" lon="10.4953635"><ele>419.25</ele><time>2026-04-25T13:49:12.893Z</time></trkpt><trkpt lat="45.7687863" lon="10.4951677"><ele>422.5</ele><time>2026-04-25T13:49:13.89Z</time></trkpt><trkpt lat="45.7687605" lon="10.4949836"><ele>425.75</ele><time>2026-04-25T13:49:14.848Z</time></trkpt><trkpt lat="45.7687241" lon="10.4948009"><ele>429.0</ele><time>2026-04-25T13:49:15.86Z</time></trkpt><trkpt lat="45.7686846" lon="10.4946164"><ele>433.5</ele><time>2026-04-25T13:49:16.891Z</time></trkpt><trkpt lat="45.7686315" lon="10.4944437"><ele>438.0</ele><time>2026-04-25T13:49:17.9Z</time></trkpt><trkpt lat="45.7685685" lon="10.4942862"><ele>442.5</ele><time>2026-04-25T13:49:18.891Z</time></trkpt><trkpt lat="45.7684968" lon="10.4941357"><ele>447.0</ele><time>2026-04-25T13:49:19.892Z</time></trkpt><trkpt lat="45.7684165" lon="10.4939928"><ele>441.0</ele><time>2026-04-25T13:49:20.851Z</time></trkpt><trkpt lat="45.7683199" lon="10.4938463"><ele>435.0</ele><time>2026-04-25T13:49:21.863Z</time></trkpt><trkpt lat="45.7682114" lon="10.4936982"><ele>429.0</ele><time>2026-04-25T13:49:22.886Z</time></trkpt><trkpt lat="45.768101" lon="10.4935502"><ele>423.0</ele><time>2026-04-25T13:49:23.877Z</time></trkpt><trkpt lat="45.7679933" lon="10.4933897"><ele>423.0</ele><time>2026-04-25T13:49:24.888Z</time></trkpt><trkpt lat="45.7678992" lon="10.493233"><ele>423.0</ele><time>2026-04-25T13:49:25.875Z</time></trkpt><trkpt lat="45.7678062" lon="10.4930817"><ele>423.0</ele><time>2026-04-25T13:49:26.879Z</time></trkpt><trkpt lat="45.7677112" lon="10.4929406"><ele>423.0</ele><time>2026-04-25T13:49:27.895Z</time></trkpt><trkpt lat="45.7676186" lon="10.4928196"><ele>418.5</ele><time>2026-04-25T13:49:28.896Z</time></trkpt><trkpt lat="45.767527" lon="10.49271"><ele>414.0</ele><time>2026-04-25T13:49:29.884Z</time></trkpt><trkpt lat="45.7674308" lon="10.4926303"><ele>409.5</ele><time>2026-04-25T13:49:30.857Z</time></trkpt><trkpt lat="45.7673147" lon="10.4925824"><ele>405.0</ele><time>2026-04-25T13:49:31.886Z</time></trkpt><trkpt lat="45.7672003" lon="10.4925633"><ele>405.0</ele><time>2026-04-25T13:49:32.879Z</time></trkpt><trkpt lat="45.7670896" lon="10.4925447"><ele>405.0</ele><time>2026-04-25T13:49:33.88Z</time></trkpt><trkpt lat="45.7669828" lon="10.4925173"><ele>405.0</ele><time>2026-04-25T13:49:34.89Z</time></trkpt><trkpt lat="45.7668876" lon="10.4924422"><ele>405.0</ele><time>2026-04-25T13:49:35.902Z</time></trkpt><trkpt lat="45.7667944" lon="10.4923741"><ele>405.0</ele><time>2026-04-25T13:49:36.896Z</time></trkpt><trkpt lat="45.7666977" lon="10.4922829"><ele>404.75</ele><time>2026-04-25T13:49:37.895Z</time></trkpt><trkpt lat="45.7665899" lon="10.4921918"><ele>404.5</ele><time>2026-04-25T13:49:38.879Z</time></trkpt><trkpt lat="45.76648" lon="10.4920984"><ele>404.25</ele><time>2026-04-25T13:49:39.875Z</time></trkpt><trkpt lat="45.7663569" lon="10.4920172"><ele>404.0</ele><time>2026-04-25T13:49:40.882Z</time></trkpt><trkpt lat="45.7662389" lon="10.491952"><ele>404.0</ele><time>2026-04-25T13:49:41.887Z</time></trkpt><trkpt lat="45.7661185" lon="10.4918825"><ele>404.0</ele><time>2026-04-25T13:49:42.89Z</time></trkpt><trkpt lat="45.7660006" lon="10.4918242"><ele>404.0</ele><time>2026-04-25T13:49:43.875Z</time></trkpt><trkpt lat="45.7658316" lon="10.4917561"><ele>404.0</ele><time>2026-04-25T13:49:45.251Z</time></trkpt><trkpt lat="45.7656127" lon="10.491756"><ele>403.5</ele><time>2026-04-25T13:49:46.911Z</time></trkpt><trkpt lat="45.7654872" lon="10.4917537"><ele>403.0</ele><time>2026-04-25T13:49:47.92Z</time></trkpt><trkpt lat="45.765367" lon="10.4917275"><ele>402.5</ele><time>2026-04-25T13:49:48.922Z</time></trkpt><trkpt lat="45.7652523" lon="10.4916892"><ele>402.0</ele><time>2026-04-25T13:49:49.941Z</time></trkpt><trkpt lat="45.7651434" lon="10.4916444"><ele>400.40000000000003</ele><time>2026-04-25T13:49:50.946Z</time></trkpt><trkpt lat="45.7650385" lon="10.4915918"><ele>398.8</ele><time>2026-04-25T13:49:51.918Z</time></trkpt><trkpt lat="45.7649291" lon="10.4915325"><ele>397.2</ele><time>2026-04-25T13:49:52.965Z</time></trkpt><trkpt lat="45.7648334" lon="10.4914728"><ele>395.6</ele><time>2026-04-25T13:49:53.949Z</time></trkpt><trkpt lat="45.7647401" lon="10.4914174"><ele>394.0</ele><time>2026-04-25T13:49:54.926Z</time></trkpt><trkpt lat="45.7646417" lon="10.4913848"><ele>394.0</ele><time>2026-04-25T13:49:55.909Z</time></trkpt><trkpt lat="45.764525" lon="10.4913945"><ele>394.0</ele><time>2026-04-25T13:49:56.956Z</time></trkpt><trkpt lat="45.7644052" lon="10.4914105"><ele>394.0</ele><time>2026-04-25T13:49:57.936Z</time></trkpt><trkpt lat="45.7642711" lon="10.4914005"><ele>394.0</ele><time>2026-04-25T13:49:58.921Z</time></trkpt><trkpt lat="45.7641167" lon="10.4913633"><ele>390.6666666666667</ele><time>2026-04-25T13:49:59.945Z</time></trkpt><trkpt lat="45.7639547" lon="10.4913098"><ele>387.33333333333337</ele><time>2026-04-25T13:50:00.908Z</time></trkpt><trkpt lat="45.7637793" lon="10.4912508"><ele>384.0</ele><time>2026-04-25T13:50:01.926Z</time></trkpt><trkpt lat="45.7636111" lon="10.4911958"><ele>389.33333333333337</ele><time>2026-04-25T13:50:02.904Z</time></trkpt><trkpt lat="45.7634384" lon="10.4911379"><ele>394.6666666666667</ele><time>2026-04-25T13:50:03.938Z</time></trkpt><trkpt lat="45.7632829" lon="10.4910713"><ele>400.0</ele><time>2026-04-25T13:50:04.957Z</time></trkpt><trkpt lat="45.763144" lon="10.4910056"><ele>400.0</ele><time>2026-04-25T13:50:05.914Z</time></trkpt><trkpt lat="45.7629964" lon="10.490934"><ele>400.0</ele><time>2026-04-25T13:50:06.935Z</time></trkpt><trkpt lat="45.762847" lon="10.4908524"><ele>400.0</ele><time>2026-04-25T13:50:07.951Z</time></trkpt><trkpt lat="45.7627044" lon="10.4907666"><ele>394.33333333333337</ele><time>2026-04-25T13:50:08.915Z</time></trkpt><trkpt lat="45.7625489" lon="10.4906664"><ele>388.6666666666667</ele><time>2026-04-25T13:50:09.956Z</time></trkpt><trkpt lat="45.762404" lon="10.4905596"><ele>383.0</ele><time>2026-04-25T13:50:10.945Z</time></trkpt><trkpt lat="45.7622611" lon="10.4904401"><ele>392.6666666666667</ele><time>2026-04-25T13:50:11.966Z</time></trkpt><trkpt lat="45.7621377" lon="10.4903197"><ele>402.33333333333337</ele><time>2026-04-25T13:50:12.909Z</time></trkpt><trkpt lat="45.7620189" lon="10.4901884"><ele>412.0</ele><time>2026-04-25T13:50:13.88Z</time></trkpt><trkpt lat="45.7619029" lon="10.4900258"><ele>409.0</ele><time>2026-04-25T13:50:14.901Z</time></trkpt><trkpt lat="45.7618025" lon="10.48986"><ele>406.0</ele><time>2026-04-25T13:50:15.891Z</time></trkpt><trkpt lat="45.7617118" lon="10.4896772"><ele>403.0</ele><time>2026-04-25T13:50:16.89Z</time></trkpt><trkpt lat="45.7616382" lon="10.4894808"><ele>403.0</ele><time>2026-04-25T13:50:17.895Z</time></trkpt><trkpt lat="45.7615892" lon="10.4892774"><ele>403.0</ele><time>2026-04-25T13:50:18.896Z</time></trkpt><trkpt lat="45.7615192" lon="10.4890087"><ele>403.0</ele><time>2026-04-25T13:50:20.267Z</time></trkpt><trkpt lat="45.7613811" lon="10.4886793"><ele>400.0</ele><time>2026-04-25T13:50:21.938Z</time></trkpt><trkpt lat="45.7612741" lon="10.4885012"><ele>397.0</ele><time>2026-04-25T13:50:22.938Z</time></trkpt><trkpt lat="45.7611557" lon="10.4883406"><ele>394.0</ele><time>2026-04-25T13:50:23.943Z</time></trkpt><trkpt lat="45.7610255" lon="10.4881899"><ele>394.0</ele><time>2026-04-25T13:50:24.917Z</time></trkpt><trkpt lat="45.7608821" lon="10.4880647"><ele>394.0</ele><time>2026-04-25T13:50:25.94Z</time></trkpt><trkpt lat="45.7607487" lon="10.4879687"><ele>394.0</ele><time>2026-04-25T13:50:26.903Z</time></trkpt><trkpt lat="45.7606183" lon="10.4878977"><ele>397.0</ele><time>2026-04-25T13:50:27.931Z</time></trkpt><trkpt lat="45.7604848" lon="10.4878177"><ele>400.0</ele><time>2026-04-25T13:50:28.953Z</time></trkpt><trkpt lat="45.7603471" lon="10.4877385"><ele>403.0</ele><time>2026-04-25T13:50:29.905Z</time></trkpt><trkpt lat="45.7602214" lon="10.4876499"><ele>406.0</ele><time>2026-04-25T13:50:30.924Z</time></trkpt><trkpt lat="45.7601254" lon="10.4875614"><ele>467.0</ele><time>2026-04-25T13:50:31.9Z</time></trkpt><trkpt lat="45.760372" lon="10.4868898"><ele>467.0</ele><time>2026-04-25T13:50:32.886Z</time></trkpt><trkpt lat="45.7602033" lon="10.4866973"><ele>467.0</ele><time>2026-04-25T13:50:33.862Z</time></trkpt><trkpt lat="45.7548725" lon="10.4814472"><ele>454.0</ele><time>2026-04-25T13:51:06.728Z</time></trkpt><trkpt lat="45.7547373" lon="10.481349"><ele>441.0</ele><time>2026-04-25T13:51:07.729Z</time></trkpt><trkpt lat="45.7546156" lon="10.4812686"><ele>428.0</ele><time>2026-04-25T13:51:08.727Z</time></trkpt><trkpt lat="45.7544043" lon="10.4811539"><ele>420.0</ele><time>2026-04-25T13:51:10.94Z</time></trkpt><trkpt lat="45.754243" lon="10.4810672"><ele>412.0</ele><time>2026-04-25T13:51:11.922Z</time></trkpt><trkpt lat="45.7540856" lon="10.4809815"><ele>404.0</ele><time>2026-04-25T13:51:12.957Z</time></trkpt><trkpt lat="45.7539594" lon="10.4809104"><ele>404.0</ele><time>2026-04-25T13:51:13.95Z</time></trkpt><trkpt lat="45.7538277" lon="10.4808335"><ele>404.0</ele><time>2026-04-25T13:51:14.922Z</time></trkpt><trkpt lat="45.7536905" lon="10.4807505"><ele>404.0</ele><time>2026-04-25T13:51:15.943Z</time></trkpt><trkpt lat="45.7535601" lon="10.4806763"><ele>404.0</ele><time>2026-04-25T13:51:16.943Z</time></trkpt><trkpt lat="45.7534431" lon="10.4806071"><ele>404.75</ele><time>2026-04-25T13:51:17.954Z</time></trkpt><trkpt lat="45.7533333" lon="10.4805447"><ele>405.5</ele><time>2026-04-25T13:51:18.944Z</time></trkpt><trkpt lat="45.7532314" lon="10.4804852"><ele>406.25</ele><time>2026-04-25T13:51:19.911Z</time></trkpt><trkpt lat="45.7531264" lon="10.4804232"><ele>407.0</ele><time>2026-04-25T13:51:20.92Z</time></trkpt><trkpt lat="45.7530183" lon="10.480362"><ele>407.0</ele><time>2026-04-25T13:51:21.965Z</time></trkpt><trkpt lat="45.7529148" lon="10.4803025"><ele>407.0</ele><time>2026-04-25T13:51:22.94Z</time></trkpt><trkpt lat="45.7528107" lon="10.4802402"><ele>407.0</ele><time>2026-04-25T13:51:23.92Z</time></trkpt><trkpt lat="45.7527099" lon="10.4801821"><ele>407.0</ele><time>2026-04-25T13:51:24.909Z</time></trkpt><trkpt lat="45.7526037" lon="10.4801219"><ele>407.0</ele><time>2026-04-25T13:51:25.957Z</time></trkpt><trkpt lat="45.7525039" lon="10.4800665"><ele>403.25</ele><time>2026-04-25T13:51:26.915Z</time></trkpt><trkpt lat="45.7523909" lon="10.4800029"><ele>399.5</ele><time>2026-04-25T13:51:27.954Z</time></trkpt><trkpt lat="45.7522799" lon="10.4799396"><ele>395.75</ele><time>2026-04-25T13:51:28.938Z</time></trkpt><trkpt lat="45.7521745" lon="10.4798817"><ele>392.0</ele><time>2026-04-25T13:51:29.915Z</time></trkpt><trkpt lat="45.7520709" lon="10.4798261"><ele>392.0</ele><time>2026-04-25T13:51:30.913Z</time></trkpt><trkpt lat="45.7519665" lon="10.4797701"><ele>392.0</ele><time>2026-04-25T13:51:31.934Z</time></trkpt><trkpt lat="45.7518633" lon="10.4797134"><ele>392.0</ele><time>2026-04-25T13:51:32.913Z</time></trkpt><trkpt lat="45.7517459" lon="10.479648"><ele>392.0</ele><time>2026-04-25T13:51:33.953Z</time></trkpt><trkpt lat="45.7516269" lon="10.4795853"><ele>394.0</ele><time>2026-04-25T13:51:34.951Z</time></trkpt><trkpt lat="45.7515102" lon="10.4795256"><ele>396.0</ele><time>2026-04-25T13:51:35.923Z</time></trkpt><trkpt lat="45.7513873" lon="10.4794609"><ele>398.0</ele><time>2026-04-25T13:51:36.937Z</time></trkpt><trkpt lat="45.7512615" lon="10.479393"><ele>400.0</ele><time>2026-04-25T13:51:37.971Z</time></trkpt><trkpt lat="45.7511433" lon="10.4793257"><ele>398.5</ele><time>2026-04-25T13:51:38.948Z</time></trkpt><trkpt lat="45.7510261" lon="10.4792578"><ele>397.0</ele><time>2026-04-25T13:51:39.914Z</time></trkpt><trkpt lat="45.7509019" lon="10.4791876"><ele>395.5</ele><time>2026-04-25T13:51:40.917Z</time></trkpt><trkpt lat="45.7507721" lon="10.4791178"><ele>394.0</ele><time>2026-04-25T13:51:41.911Z</time></trkpt><trkpt lat="45.7506351" lon="10.4790466"><ele>394.0</ele><time>2026-04-25T13:51:42.913Z</time></trkpt><trkpt lat="45.7504934" lon="10.4789729"><ele>394.0</ele><time>2026-04-25T13:51:43.914Z</time></trkpt><trkpt lat="45.7503429" lon="10.4788913"><ele>394.0</ele><time>2026-04-25T13:51:44.954Z</time></trkpt><trkpt lat="45.7502002" lon="10.4788091"><ele>394.6666666666667</ele><time>2026-04-25T13:51:45.916Z</time></trkpt><trkpt lat="45.7500496" lon="10.4787158"><ele>395.33333333333337</ele><time>2026-04-25T13:51:46.931Z</time></trkpt><trkpt lat="45.7499012" lon="10.4786133"><ele>396.0</ele><time>2026-04-25T13:51:47.944Z</time></trkpt><trkpt lat="45.7497648" lon="10.478505"><ele>396.0</ele><time>2026-04-25T13:51:48.906Z</time></trkpt><trkpt lat="45.7496259" lon="10.4783812"><ele>396.0</ele><time>2026-04-25T13:51:49.919Z</time></trkpt><trkpt lat="45.7494902" lon="10.4782467"><ele>396.0</ele><time>2026-04-25T13:51:50.934Z</time></trkpt><trkpt lat="45.749357" lon="10.4781072"><ele>395.33333333333337</ele><time>2026-04-25T13:51:51.938Z</time></trkpt><trkpt lat="45.7492274" lon="10.4779632"><ele>394.6666666666667</ele><time>2026-04-25T13:51:52.926Z</time></trkpt><trkpt lat="45.7491011" lon="10.4778166"><ele>394.0</ele><time>2026-04-25T13:51:53.939Z</time></trkpt><trkpt lat="45.7489831" lon="10.4776772"><ele>394.0</ele><time>2026-04-25T13:51:54.962Z</time></trkpt><trkpt lat="45.7488803" lon="10.4775575"><ele>394.0</ele><time>2026-04-25T13:51:55.903Z</time></trkpt><trkpt lat="45.7487731" lon="10.4774314"><ele>394.0</ele><time>2026-04-25T13:51:56.879Z</time></trkpt><trkpt lat="45.7486623" lon="10.4773111"><ele>394.0</ele><time>2026-04-25T13:51:57.891Z</time></trkpt><trkpt lat="45.748551" lon="10.477194"><ele>394.0</ele><time>2026-04-25T13:51:58.851Z</time></trkpt><trkpt lat="45.7484327" lon="10.4770659"><ele>394.0</ele><time>2026-04-25T13:51:59.875Z</time></trkpt><trkpt lat="45.7483151" lon="10.4769422"><ele>394.0</ele><time>2026-04-25T13:52:00.849Z</time></trkpt><trkpt lat="45.7481805" lon="10.4768058"><ele>394.0</ele><time>2026-04-25T13:52:01.892Z</time></trkpt><trkpt lat="45.7480529" lon="10.4766777"><ele>394.0</ele><time>2026-04-25T13:52:02.861Z</time></trkpt><trkpt lat="45.7479165" lon="10.476537"><ele>394.0</ele><time>2026-04-25T13:52:03.874Z</time></trkpt><trkpt lat="45.7477835" lon="10.4763925"><ele>394.33333333333337</ele><time>2026-04-25T13:52:04.865Z</time></trkpt><trkpt lat="45.7476454" lon="10.4762379"><ele>394.66666666666663</ele><time>2026-04-25T13:52:05.902Z</time></trkpt><trkpt lat="45.7475173" lon="10.4760936"><ele>395.0</ele><time>2026-04-25T13:52:06.878Z</time></trkpt><trkpt lat="45.7473914" lon="10.4759547"><ele>395.0</ele><time>2026-04-25T13:52:07.888Z</time></trkpt><trkpt lat="45.7472724" lon="10.4758255"><ele>395.0</ele><time>2026-04-25T13:52:08.89Z</time></trkpt><trkpt lat="45.7471639" lon="10.4757078"><ele>395.0</ele><time>2026-04-25T13:52:09.866Z</time></trkpt><trkpt lat="45.7470508" lon="10.4755875"><ele>395.0</ele><time>2026-04-25T13:52:10.895Z</time></trkpt><trkpt lat="45.7469439" lon="10.4754728"><ele>393.75</ele><time>2026-04-25T13:52:11.884Z</time></trkpt><trkpt lat="45.7468372" lon="10.4753529"><ele>392.5</ele><time>2026-04-25T13:52:12.897Z</time></trkpt><trkpt lat="45.7467358" lon="10.4752393"><ele>391.25</ele><time>2026-04-25T13:52:13.898Z</time></trkpt><trkpt lat="45.746638" lon="10.4751225"><ele>390.0</ele><time>2026-04-25T13:52:14.91Z</time></trkpt><trkpt lat="45.746547" lon="10.4750125"><ele>390.0</ele><time>2026-04-25T13:52:15.896Z</time></trkpt><trkpt lat="45.7464562" lon="10.4749063"><ele>390.0</ele><time>2026-04-25T13:52:16.878Z</time></trkpt><trkpt lat="45.7463646" lon="10.4747873"><ele>390.0</ele><time>2026-04-25T13:52:17.896Z</time></trkpt><trkpt lat="45.7462829" lon="10.4746568"><ele>390.0</ele><time>2026-04-25T13:52:18.871Z</time></trkpt><trkpt lat="45.7462089" lon="10.4745046"><ele>387.0</ele><time>2026-04-25T13:52:19.887Z</time></trkpt><trkpt lat="45.7461418" lon="10.4743507"><ele>384.0</ele><time>2026-04-25T13:52:20.863Z</time></trkpt><trkpt lat="45.7460696" lon="10.4741834"><ele>381.0</ele><time>2026-04-25T13:52:21.903Z</time></trkpt><trkpt lat="45.7459963" lon="10.47402"><ele>378.0</ele><time>2026-04-25T13:52:22.889Z</time></trkpt><trkpt lat="45.7459185" lon="10.4738518"><ele>382.0</ele><time>2026-04-25T13:52:23.874Z</time></trkpt><trkpt lat="45.7458315" lon="10.4736829"><ele>386.0</ele><time>2026-04-25T13:52:24.865Z</time></trkpt><trkpt lat="45.7457341" lon="10.4735177"><ele>390.0</ele><time>2026-04-25T13:52:25.894Z</time></trkpt><trkpt lat="45.7456265" lon="10.4733815"><ele>394.0</ele><time>2026-04-25T13:52:26.88Z</time></trkpt><trkpt lat="45.7454962" lon="10.4732686"><ele>394.0</ele><time>2026-04-25T13:52:27.889Z</time></trkpt><trkpt lat="45.7453586" lon="10.4731713"><ele>394.0</ele><time>2026-04-25T13:52:28.891Z</time></trkpt><trkpt lat="45.7452301" lon="10.4730816"><ele>394.0</ele><time>2026-04-25T13:52:29.857Z</time></trkpt><trkpt lat="45.7450945" lon="10.4729843"><ele>394.0</ele><time>2026-04-25T13:52:30.888Z</time></trkpt><trkpt lat="45.7449664" lon="10.4728938"><ele>395.75</ele><time>2026-04-25T13:52:31.861Z</time></trkpt><trkpt lat="45.7448255" lon="10.4727994"><ele>397.5</ele><time>2026-04-25T13:52:32.9Z</time></trkpt><trkpt lat="45.7446915" lon="10.4727177"><ele>399.25</ele><time>2026-04-25T13:52:33.884Z</time></trkpt><trkpt lat="45.744558" lon="10.4726384"><ele>401.0</ele><time>2026-04-25T13:52:34.887Z</time></trkpt><trkpt lat="45.744431" lon="10.4725603"><ele>395.75</ele><time>2026-04-25T13:52:35.901Z</time></trkpt><trkpt lat="45.7443159" lon="10.4724755"><ele>390.5</ele><time>2026-04-25T13:52:36.866Z</time></trkpt><trkpt lat="45.7442003" lon="10.4723681"><ele>385.25</ele><time>2026-04-25T13:52:37.866Z</time></trkpt><trkpt lat="45.7440822" lon="10.4722434"><ele>380.0</ele><time>2026-04-25T13:52:38.904Z</time></trkpt><trkpt lat="45.743971" lon="10.4721258"><ele>379.75</ele><time>2026-04-25T13:52:39.857Z</time></trkpt><trkpt lat="45.7438499" lon="10.472005"><ele>379.5</ele><time>2026-04-25T13:52:40.86Z</time></trkpt><trkpt lat="45.7437313" lon="10.4718814"><ele>379.25</ele><time>2026-04-25T13:52:41.865Z</time></trkpt><trkpt lat="45.7436102" lon="10.4717545"><ele>379.0</ele><time>2026-04-25T13:52:42.881Z</time></trkpt><trkpt lat="45.7434945" lon="10.4716313"><ele>379.0</ele><time>2026-04-25T13:52:43.866Z</time></trkpt><trkpt lat="45.7433733" lon="10.4714995"><ele>379.0</ele><time>2026-04-25T13:52:44.888Z</time></trkpt><trkpt lat="45.7432555" lon="10.4713822"><ele>379.0</ele><time>2026-04-25T13:52:45.884Z</time></trkpt><trkpt lat="45.7431428" lon="10.4712715"><ele>379.0</ele><time>2026-04-25T13:52:46.887Z</time></trkpt><trkpt lat="45.743036" lon="10.4711571"><ele>378.75</ele><time>2026-04-25T13:52:47.915Z</time></trkpt><trkpt lat="45.7429341" lon="10.471036"><ele>378.5</ele><time>2026-04-25T13:52:48.913Z</time></trkpt><trkpt lat="45.74284" lon="10.4708961"><ele>378.25</ele><time>2026-04-25T13:52:49.901Z</time></trkpt><trkpt lat="45.7427533" lon="10.4707447"><ele>378.0</ele><time>2026-04-25T13:52:50.866Z</time></trkpt><trkpt lat="45.7426629" lon="10.4705692"><ele>382.33333333333337</ele><time>2026-04-25T13:52:51.904Z</time></trkpt><trkpt lat="45.7425716" lon="10.4703977"><ele>386.6666666666667</ele><time>2026-04-25T13:52:52.894Z</time></trkpt><trkpt lat="45.742471" lon="10.4702221"><ele>391.0</ele><time>2026-04-25T13:52:53.906Z</time></trkpt><trkpt lat="45.7423623" lon="10.470062"><ele>391.0</ele><time>2026-04-25T13:52:54.881Z</time></trkpt><trkpt lat="45.7422364" lon="10.4699087"><ele>391.0</ele><time>2026-04-25T13:52:55.897Z</time></trkpt><trkpt lat="45.7421018" lon="10.4697718"><ele>391.0</ele><time>2026-04-25T13:52:56.898Z</time></trkpt><trkpt lat="45.7419541" lon="10.4696499"><ele>389.33333333333337</ele><time>2026-04-25T13:52:57.908Z</time></trkpt><trkpt lat="45.7418107" lon="10.4695506"><ele>387.66666666666663</ele><time>2026-04-25T13:52:58.892Z</time></trkpt><trkpt lat="45.7416683" lon="10.4694609"><ele>386.0</ele><time>2026-04-25T13:52:59.89Z</time></trkpt><trkpt lat="45.7415395" lon="10.4693804"><ele>386.0</ele><time>2026-04-25T13:53:00.849Z</time></trkpt><trkpt lat="45.7414063" lon="10.4692916"><ele>386.0</ele><time>2026-04-25T13:53:01.872Z</time></trkpt><trkpt lat="45.7412809" lon="10.4691996"><ele>386.0</ele><time>2026-04-25T13:53:02.879Z</time></trkpt><trkpt lat="45.741157" lon="10.4690951"><ele>386.0</ele><time>2026-04-25T13:53:03.889Z</time></trkpt><trkpt lat="45.7410411" lon="10.4689832"><ele>384.75</ele><time>2026-04-25T13:53:04.869Z</time></trkpt><trkpt lat="45.7409267" lon="10.4688502"><ele>383.5</ele><time>2026-04-25T13:53:05.889Z</time></trkpt><trkpt lat="45.7408298" lon="10.4687013"><ele>382.25</ele><time>2026-04-25T13:53:06.873Z</time></trkpt><trkpt lat="45.7407481" lon="10.468534"><ele>381.0</ele><time>2026-04-25T13:53:07.867Z</time></trkpt><trkpt lat="45.7406775" lon="10.4683528"><ele>381.0</ele><time>2026-04-25T13:53:08.86Z</time></trkpt><trkpt lat="45.7406224" lon="10.4681521"><ele>381.0</ele><time>2026-04-25T13:53:09.882Z</time></trkpt><trkpt lat="45.7405857" lon="10.4679432"><ele>381.0</ele><time>2026-04-25T13:53:10.903Z</time></trkpt><trkpt lat="45.7405609" lon="10.4677408"><ele>381.0</ele><time>2026-04-25T13:53:11.869Z</time></trkpt><trkpt lat="45.7405373" lon="10.4675351"><ele>382.33333333333337</ele><time>2026-04-25T13:53:12.859Z</time></trkpt><trkpt lat="45.7405128" lon="10.4673167"><ele>383.6666666666667</ele><time>2026-04-25T13:53:13.884Z</time></trkpt><trkpt lat="45.7404864" lon="10.4671012"><ele>385.0</ele><time>2026-04-25T13:53:14.883Z</time></trkpt><trkpt lat="45.7404573" lon="10.4668859"><ele>386.25</ele><time>2026-04-25T13:53:15.89Z</time></trkpt><trkpt lat="45.7404251" lon="10.4666809"><ele>387.5</ele><time>2026-04-25T13:53:16.896Z</time></trkpt><trkpt lat="45.7403853" lon="10.4664819"><ele>388.75</ele><time>2026-04-25T13:53:17.895Z</time></trkpt><trkpt lat="45.7403324" lon="10.4662868"><ele>390.0</ele><time>2026-04-25T13:53:18.894Z</time></trkpt><trkpt lat="45.7402674" lon="10.4660958"><ele>385.0</ele><time>2026-04-25T13:53:19.852Z</time></trkpt><trkpt lat="45.7401906" lon="10.4658901"><ele>380.0</ele><time>2026-04-25T13:53:20.861Z</time></trkpt><trkpt lat="45.7401064" lon="10.4656882"><ele>375.0</ele><time>2026-04-25T13:53:21.877Z</time></trkpt><trkpt lat="45.7400196" lon="10.4654925"><ele>378.25</ele><time>2026-04-25T13:53:22.879Z</time></trkpt><trkpt lat="45.7399281" lon="10.4653124"><ele>381.5</ele><time>2026-04-25T13:53:23.882Z</time></trkpt><trkpt lat="45.7398316" lon="10.4651554"><ele>384.75</ele><time>2026-04-25T13:53:24.9Z</time></trkpt><trkpt lat="45.739729" lon="10.4650162"><ele>388.0</ele><time>2026-04-25T13:53:25.884Z</time></trkpt><trkpt lat="45.739635" lon="10.4648795"><ele>388.0</ele><time>2026-04-25T13:53:26.857Z</time></trkpt><trkpt lat="45.739539" lon="10.464719"><ele>388.0</ele><time>2026-04-25T13:53:27.896Z</time></trkpt><trkpt lat="45.7394566" lon="10.4645453"><ele>388.0</ele><time>2026-04-25T13:53:28.883Z</time></trkpt><trkpt lat="45.7393944" lon="10.4643547"><ele>388.0</ele><time>2026-04-25T13:53:29.87Z</time></trkpt><trkpt lat="45.7393495" lon="10.4641542"><ele>387.0</ele><time>2026-04-25T13:53:30.871Z</time></trkpt><trkpt lat="45.7393078" lon="10.4639549"><ele>386.0</ele><time>2026-04-25T13:53:31.883Z</time></trkpt><trkpt lat="45.7392566" lon="10.4637649"><ele>385.0</ele><time>2026-04-25T13:53:32.862Z</time></trkpt><trkpt lat="45.739189" lon="10.4635601"><ele>384.0</ele><time>2026-04-25T13:53:33.896Z</time></trkpt><trkpt lat="45.7391089" lon="10.4633702"><ele>384.0</ele><time>2026-04-25T13:53:34.893Z</time></trkpt><trkpt lat="45.7390191" lon="10.4631938"><ele>384.0</ele><time>2026-04-25T13:53:35.864Z</time></trkpt><trkpt lat="45.7389181" lon="10.4630154"><ele>384.0</ele><time>2026-04-25T13:53:36.884Z</time></trkpt><trkpt lat="45.7388138" lon="10.4628381"><ele>382.75</ele><time>2026-04-25T13:53:37.903Z</time></trkpt><trkpt lat="45.7387176" lon="10.4626804"><ele>381.5</ele><time>2026-04-25T13:53:38.861Z</time></trkpt><trkpt lat="45.7386156" lon="10.4625269"><ele>380.25</ele><time>2026-04-25T13:53:39.883Z</time></trkpt><trkpt lat="45.7385057" lon="10.4624015"><ele>379.0</ele><time>2026-04-25T13:53:40.866Z</time></trkpt><trkpt lat="45.7383845" lon="10.4622898"><ele>379.0</ele><time>2026-04-25T13:53:41.891Z</time></trkpt><trkpt lat="45.7382512" lon="10.462199"><ele>379.0</ele><time>2026-04-25T13:53:42.91Z</time></trkpt><trkpt lat="45.7381193" lon="10.4621225"><ele>379.0</ele><time>2026-04-25T13:53:43.892Z</time></trkpt><trkpt lat="45.7379832" lon="10.46206"><ele>379.0</ele><time>2026-04-25T13:53:44.901Z</time></trkpt><trkpt lat="45.7378578" lon="10.4619947"><ele>379.5</ele><time>2026-04-25T13:53:45.891Z</time></trkpt><trkpt lat="45.7377359" lon="10.4619321"><ele>380.0</ele><time>2026-04-25T13:53:46.89Z</time></trkpt><trkpt lat="45.7376157" lon="10.4618718"><ele>380.5</ele><time>2026-04-25T13:53:47.885Z</time></trkpt><trkpt lat="45.7374941" lon="10.4618146"><ele>381.0</ele><time>2026-04-25T13:53:48.868Z</time></trkpt><trkpt lat="45.7373723" lon="10.4617799"><ele>381.0</ele><time>2026-04-25T13:53:49.859Z</time></trkpt><trkpt lat="45.737255" lon="10.4617782"><ele>381.0</ele><time>2026-04-25T13:53:50.897Z</time></trkpt><trkpt lat="45.7371497" lon="10.4617918"><ele>381.0</ele><time>2026-04-25T13:53:51.89Z</time></trkpt><trkpt lat="45.7370556" lon="10.4618042"><ele>381.0</ele><time>2026-04-25T13:53:52.894Z</time></trkpt><trkpt lat="45.7369632" lon="10.4618204"><ele>381.0</ele><time>2026-04-25T13:53:53.882Z</time></trkpt><trkpt lat="45.7368702" lon="10.4618358"><ele>379.75</ele><time>2026-04-25T13:53:54.864Z</time></trkpt><trkpt lat="45.7367672" lon="10.4618418"><ele>378.5</ele><time>2026-04-25T13:53:55.887Z</time></trkpt><trkpt lat="45.736655" lon="10.4618248"><ele>377.25</ele><time>2026-04-25T13:53:56.895Z</time></trkpt><trkpt lat="45.7365439" lon="10.4617684"><ele>376.0</ele><time>2026-04-25T13:53:57.9Z</time></trkpt><trkpt lat="45.7364393" lon="10.4616912"><ele>376.0</ele><time>2026-04-25T13:53:58.896Z</time></trkpt><trkpt lat="45.7363547" lon="10.4615873"><ele>376.0</ele><time>2026-04-25T13:53:59.857Z</time></trkpt><trkpt lat="45.7362722" lon="10.4614776"><ele>376.0</ele><time>2026-04-25T13:54:00.866Z</time></trkpt><trkpt lat="45.7361993" lon="10.4613732"><ele>376.0</ele><time>2026-04-25T13:54:01.89Z</time></trkpt><trkpt lat="45.7361343" lon="10.4612707"><ele>376.0</ele><time>2026-04-25T13:54:02.884Z</time></trkpt><trkpt lat="45.7360708" lon="10.4611679"><ele>375.5</ele><time>2026-04-25T13:54:03.842Z</time></trkpt><trkpt lat="45.7360009" lon="10.4610529"><ele>375.0</ele><time>2026-04-25T13:54:04.869Z</time></trkpt><trkpt lat="45.7359265" lon="10.460921"><ele>374.5</ele><time>2026-04-25T13:54:05.896Z</time></trkpt><trkpt lat="45.7358535" lon="10.4607851"><ele>374.0</ele><time>2026-04-25T13:54:06.899Z</time></trkpt><trkpt lat="45.7357903" lon="10.4606434"><ele>374.0</ele><time>2026-04-25T13:54:07.89Z</time></trkpt><trkpt lat="45.7357395" lon="10.4604956"><ele>374.0</ele><time>2026-04-25T13:54:08.865Z</time></trkpt><trkpt lat="45.7357001" lon="10.4603297"><ele>374.0</ele><time>2026-04-25T13:54:09.898Z</time></trkpt><trkpt lat="45.735665" lon="10.4601712"><ele>374.0</ele><time>2026-04-25T13:54:10.87Z</time></trkpt><trkpt lat="45.7356152" lon="10.4600032"><ele>374.6666666666667</ele><time>2026-04-25T13:54:11.898Z</time></trkpt><trkpt lat="45.7355292" lon="10.4597871"><ele>375.3333333333333</ele><time>2026-04-25T13:54:13.277Z</time></trkpt><trkpt lat="45.7353746" lon="10.4595534"><ele>376.0</ele><time>2026-04-25T13:54:14.966Z</time></trkpt><trkpt lat="45.7352924" lon="10.4594169"><ele>375.6</ele><time>2026-04-25T13:54:15.939Z</time></trkpt><trkpt lat="45.7352129" lon="10.4592829"><ele>375.20000000000005</ele><time>2026-04-25T13:54:16.958Z</time></trkpt><trkpt lat="45.7351392" lon="10.4591586"><ele>374.79999999999995</ele><time>2026-04-25T13:54:17.955Z</time></trkpt><trkpt lat="45.7350708" lon="10.4590447"><ele>374.4</ele><time>2026-04-25T13:54:18.941Z</time></trkpt><trkpt lat="45.7350099" lon="10.4589396"><ele>374.0</ele><time>2026-04-25T13:54:19.914Z</time></trkpt><trkpt lat="45.7349517" lon="10.4588354"><ele>374.6</ele><time>2026-04-25T13:54:20.916Z</time></trkpt><trkpt lat="45.7348968" lon="10.4587392"><ele>375.2</ele><time>2026-04-25T13:54:21.914Z</time></trkpt><trkpt lat="45.7348422" lon="10.4586433"><ele>375.8</ele><time>2026-04-25T13:54:22.931Z</time></trkpt><trkpt lat="45.7347857" lon="10.4585384"><ele>376.40000000000003</ele><time>2026-04-25T13:54:23.955Z</time></trkpt><trkpt lat="45.7347304" lon="10.4584346"><ele>377.0</ele><time>2026-04-25T13:54:24.92Z</time></trkpt><trkpt lat="45.734672" lon="10.4583187"><ele>377.0</ele><time>2026-04-25T13:54:25.917Z</time></trkpt><trkpt lat="45.7346119" lon="10.4581938"><ele>377.0</ele><time>2026-04-25T13:54:26.943Z</time></trkpt><trkpt lat="45.7345618" lon="10.4580705"><ele>377.0</ele><time>2026-04-25T13:54:27.973Z</time></trkpt><trkpt lat="45.7345188" lon="10.4579562"><ele>377.0</ele><time>2026-04-25T13:54:28.951Z</time></trkpt><trkpt lat="45.734477" lon="10.4578355"><ele>377.0</ele><time>2026-04-25T13:54:29.942Z</time></trkpt><trkpt lat="45.7344366" lon="10.4577086"><ele>378.0</ele><time>2026-04-25T13:54:30.943Z</time></trkpt><trkpt lat="45.7343935" lon="10.4575763"><ele>379.0</ele><time>2026-04-25T13:54:31.962Z</time></trkpt><trkpt lat="45.7343507" lon="10.4574503"><ele>380.0</ele><time>2026-04-25T13:54:32.913Z</time></trkpt><trkpt lat="45.7343035" lon="10.4573118"><ele>381.0</ele><time>2026-04-25T13:54:33.936Z</time></trkpt><trkpt lat="45.7342546" lon="10.4571709"><ele>382.0</ele><time>2026-04-25T13:54:34.944Z</time></trkpt><trkpt lat="45.7342044" lon="10.4570231"><ele>382.0</ele><time>2026-04-25T13:54:35.949Z</time></trkpt><trkpt lat="45.7341536" lon="10.4568767"><ele>382.0</ele><time>2026-04-25T13:54:36.911Z</time></trkpt><trkpt lat="45.7340963" lon="10.4567131"><ele>382.0</ele><time>2026-04-25T13:54:37.95Z</time></trkpt><trkpt lat="45.7340427" lon="10.4565581"><ele>382.0</ele><time>2026-04-25T13:54:38.944Z</time></trkpt><trkpt lat="45.7339874" lon="10.456399"><ele>381.5</ele><time>2026-04-25T13:54:39.947Z</time></trkpt><trkpt lat="45.73393" lon="10.4562388"><ele>381.0</ele><time>2026-04-25T13:54:40.939Z</time></trkpt><trkpt lat="45.7338711" lon="10.4560772"><ele>380.5</ele><time>2026-04-25T13:54:41.916Z</time></trkpt><trkpt lat="45.7338096" lon="10.4559062"><ele>380.0</ele><time>2026-04-25T13:54:42.918Z</time></trkpt><trkpt lat="45.7337468" lon="10.4557326"><ele>380.0</ele><time>2026-04-25T13:54:43.933Z</time></trkpt><trkpt lat="45.7336868" lon="10.4555688"><ele>380.0</ele><time>2026-04-25T13:54:44.916Z</time></trkpt><trkpt lat="45.7336293" lon="10.4554097"><ele>380.0</ele><time>2026-04-25T13:54:45.916Z</time></trkpt><trkpt lat="45.733581" lon="10.4552521"><ele>380.0</ele><time>2026-04-25T13:54:46.923Z</time></trkpt><trkpt lat="45.7335485" lon="10.455091"><ele>381.75</ele><time>2026-04-25T13:54:47.948Z</time></trkpt><trkpt lat="45.733542" lon="10.4549385"><ele>383.5</ele><time>2026-04-25T13:54:48.92Z</time></trkpt><trkpt lat="45.7335672" lon="10.4547845"><ele>385.25</ele><time>2026-04-25T13:54:49.922Z</time></trkpt><trkpt lat="45.7336292" lon="10.454639"><ele>387.0</ele><time>2026-04-25T13:54:50.946Z</time></trkpt><trkpt lat="45.7337165" lon="10.4545125"><ele>388.5</ele><time>2026-04-25T13:54:51.91Z</time></trkpt><trkpt lat="45.7338118" lon="10.45438"><ele>390.0</ele><time>2026-04-25T13:54:52.912Z</time></trkpt><trkpt lat="45.733896" lon="10.4542129"><ele>391.5</ele><time>2026-04-25T13:54:53.955Z</time></trkpt><trkpt lat="45.7339634" lon="10.4540426"><ele>393.0</ele><time>2026-04-25T13:54:54.924Z</time></trkpt><trkpt lat="45.7340256" lon="10.4538731"><ele>390.75</ele><time>2026-04-25T13:54:55.922Z</time></trkpt><trkpt lat="45.7340814" lon="10.4536972"><ele>388.5</ele><time>2026-04-25T13:54:56.965Z</time></trkpt><trkpt lat="45.7341297" lon="10.4535405"><ele>386.25</ele><time>2026-04-25T13:54:57.919Z</time></trkpt><trkpt lat="45.7341915" lon="10.453384"><ele>384.0</ele><time>2026-04-25T13:54:58.935Z</time></trkpt><trkpt lat="45.7342724" lon="10.4532565"><ele>384.0</ele><time>2026-04-25T13:54:59.913Z</time></trkpt><trkpt lat="45.7343812" lon="10.4531584"><ele>384.0</ele><time>2026-04-25T13:55:00.945Z</time></trkpt><trkpt lat="45.7344981" lon="10.4530782"><ele>384.0</ele><time>2026-04-25T13:55:01.939Z</time></trkpt><trkpt lat="45.7346134" lon="10.452974"><ele>384.0</ele><time>2026-04-25T13:55:02.936Z</time></trkpt><trkpt lat="45.734722" lon="10.4528432"><ele>384.5</ele><time>2026-04-25T13:55:03.936Z</time></trkpt><trkpt lat="45.734824" lon="10.4526902"><ele>385.0</ele><time>2026-04-25T13:55:04.956Z</time></trkpt><trkpt lat="45.7349111" lon="10.4525337"><ele>385.5</ele><time>2026-04-25T13:55:05.965Z</time></trkpt><trkpt lat="45.7349827" lon="10.4523771"><ele>386.0</ele><time>2026-04-25T13:55:06.94Z</time></trkpt><trkpt lat="45.7350485" lon="10.452222"><ele>383.75</ele><time>2026-04-25T13:55:07.917Z</time></trkpt><trkpt lat="45.7351122" lon="10.4520613"><ele>381.5</ele><time>2026-04-25T13:55:08.928Z</time></trkpt><trkpt lat="45.7351707" lon="10.4518975"><ele>379.25</ele><time>2026-04-25T13:55:09.947Z</time></trkpt><trkpt lat="45.7352211" lon="10.4517319"><ele>377.0</ele><time>2026-04-25T13:55:10.963Z</time></trkpt><trkpt lat="45.7352629" lon="10.451572"><ele>384.0</ele><time>2026-04-25T13:55:11.935Z</time></trkpt><trkpt lat="45.735295" lon="10.4514032"><ele>391.0</ele><time>2026-04-25T13:55:12.949Z</time></trkpt><trkpt lat="45.7353086" lon="10.451239"><ele>398.0</ele><time>2026-04-25T13:55:13.921Z</time></trkpt><trkpt lat="45.7353049" lon="10.4510656"><ele>405.0</ele><time>2026-04-25T13:55:14.938Z</time></trkpt><trkpt lat="45.7352841" lon="10.4508942"><ele>405.0</ele><time>2026-04-25T13:55:15.948Z</time></trkpt><trkpt lat="45.7352443" lon="10.4507306"><ele>405.0</ele><time>2026-04-25T13:55:16.946Z</time></trkpt><trkpt lat="45.7351857" lon="10.4505713"><ele>405.0</ele><time>2026-04-25T13:55:17.942Z</time></trkpt><trkpt lat="45.7351261" lon="10.4504048"><ele>405.0</ele><time>2026-04-25T13:55:18.932Z</time></trkpt><trkpt lat="45.7350831" lon="10.4502273"><ele>396.25</ele><time>2026-04-25T13:55:19.916Z</time></trkpt><trkpt lat="45.7350637" lon="10.4500324"><ele>387.5</ele><time>2026-04-25T13:55:20.95Z</time></trkpt><trkpt lat="45.7350626" lon="10.4498369"><ele>378.75</ele><time>2026-04-25T13:55:21.955Z</time></trkpt><trkpt lat="45.7350718" lon="10.4496455"><ele>370.0</ele><time>2026-04-25T13:55:22.946Z</time></trkpt><trkpt lat="45.7350944" lon="10.4494542"><ele>370.25</ele><time>2026-04-25T13:55:23.961Z</time></trkpt><trkpt lat="45.7351348" lon="10.4492846"><ele>370.5</ele><time>2026-04-25T13:55:24.922Z</time></trkpt><trkpt lat="45.735196" lon="10.4491092"><ele>370.75</ele><time>2026-04-25T13:55:25.94Z</time></trkpt><trkpt lat="45.7352572" lon="10.4489467"><ele>371.0</ele><time>2026-04-25T13:55:26.868Z</time></trkpt><trkpt lat="45.7353356" lon="10.4487828"><ele>371.0</ele><time>2026-04-25T13:55:27.898Z</time></trkpt><trkpt lat="45.7354069" lon="10.448618"><ele>371.0</ele><time>2026-04-25T13:55:28.863Z</time></trkpt><trkpt lat="45.7354818" lon="10.4484439"><ele>371.0</ele><time>2026-04-25T13:55:29.9Z</time></trkpt><trkpt lat="45.7355611" lon="10.4482957"><ele>371.0</ele><time>2026-04-25T13:55:30.897Z</time></trkpt><trkpt lat="45.7356605" lon="10.4481752"><ele>371.0</ele><time>2026-04-25T13:55:31.917Z</time></trkpt><trkpt lat="45.7357941" lon="10.4480072"><ele>371.0</ele><time>2026-04-25T13:55:33.279Z</time></trkpt><trkpt lat="45.735988" lon="10.4477835"><ele>371.0</ele><time>2026-04-25T13:55:34.939Z</time></trkpt><trkpt lat="45.736107" lon="10.4476768"><ele>368.0</ele><time>2026-04-25T13:55:35.923Z</time></trkpt><trkpt lat="45.7362419" lon="10.4475739"><ele>365.0</ele><time>2026-04-25T13:55:36.945Z</time></trkpt><trkpt lat="45.7363818" lon="10.4474834"><ele>362.0</ele><time>2026-04-25T13:55:37.937Z</time></trkpt><trkpt lat="45.7365239" lon="10.4473991"><ele>362.0</ele><time>2026-04-25T13:55:38.922Z</time></trkpt><trkpt lat="45.7366691" lon="10.4473104"><ele>362.0</ele><time>2026-04-25T13:55:39.936Z</time></trkpt><trkpt lat="45.7368126" lon="10.447224"><ele>362.0</ele><time>2026-04-25T13:55:40.947Z</time></trkpt><trkpt lat="45.7369449" lon="10.4471451"><ele>359.0</ele><time>2026-04-25T13:55:41.887Z</time></trkpt><trkpt lat="45.7370868" lon="10.4470545"><ele>356.0</ele><time>2026-04-25T13:55:42.901Z</time></trkpt><trkpt lat="45.7372276" lon="10.4469744"><ele>353.0</ele><time>2026-04-25T13:55:43.901Z</time></trkpt><trkpt lat="45.7373716" lon="10.4468639"><ele>353.0</ele><time>2026-04-25T13:55:44.894Z</time></trkpt><trkpt lat="45.7375095" lon="10.4467377"><ele>353.0</ele><time>2026-04-25T13:55:45.908Z</time></trkpt><trkpt lat="45.7376539" lon="10.4465943"><ele>353.0</ele><time>2026-04-25T13:55:46.894Z</time></trkpt><trkpt lat="45.7378134" lon="10.4464341"><ele>352.33333333333337</ele><time>2026-04-25T13:55:47.914Z</time></trkpt><trkpt lat="45.7379646" lon="10.4462796"><ele>351.6666666666667</ele><time>2026-04-25T13:55:48.87Z</time></trkpt><trkpt lat="45.7381281" lon="10.4461207"><ele>351.0</ele><time>2026-04-25T13:55:49.9Z</time></trkpt><trkpt lat="45.7382879" lon="10.4459711"><ele>351.0</ele><time>2026-04-25T13:55:50.887Z</time></trkpt><trkpt lat="45.7384496" lon="10.4458225"><ele>351.0</ele><time>2026-04-25T13:55:51.871Z</time></trkpt><trkpt lat="45.73861" lon="10.4456614"><ele>351.0</ele><time>2026-04-25T13:55:52.866Z</time></trkpt><trkpt lat="45.7387619" lon="10.4455029"><ele>352.3333333333333</ele><time>2026-04-25T13:55:53.895Z</time></trkpt><trkpt lat="45.7388929" lon="10.4453526"><ele>353.66666666666663</ele><time>2026-04-25T13:55:54.892Z</time></trkpt><trkpt lat="45.739011" lon="10.4452106"><ele>355.0</ele><time>2026-04-25T13:55:55.866Z</time></trkpt><trkpt lat="45.7391145" lon="10.4450848"><ele>355.0</ele><time>2026-04-25T13:55:56.891Z</time></trkpt><trkpt lat="45.7392046" lon="10.4449767"><ele>355.0</ele><time>2026-04-25T13:55:57.87Z</time></trkpt><trkpt lat="45.7392975" lon="10.4448806"><ele>355.0</ele><time>2026-04-25T13:55:58.867Z</time></trkpt><trkpt lat="45.7394014" lon="10.4448154"><ele>355.0</ele><time>2026-04-25T13:55:59.888Z</time></trkpt><trkpt lat="45.7395118" lon="10.4447807"><ele>355.4</ele><time>2026-04-25T13:56:00.845Z</time></trkpt><trkpt lat="45.7396341" lon="10.4447557"><ele>355.8</ele><time>2026-04-25T13:56:01.859Z</time></trkpt><trkpt lat="45.7397434" lon="10.4447314"><ele>356.20000000000005</ele><time>2026-04-25T13:56:02.866Z</time></trkpt><trkpt lat="45.7398497" lon="10.4447067"><ele>356.6</ele><time>2026-04-25T13:56:03.887Z</time></trkpt><trkpt lat="45.7399349" lon="10.4446602"><ele>357.0</ele><time>2026-04-25T13:56:04.897Z</time></trkpt><trkpt lat="45.7399973" lon="10.4445927"><ele>357.0</ele><time>2026-04-25T13:56:05.877Z</time></trkpt><trkpt lat="45.7400442" lon="10.4444995"><ele>357.0</ele><time>2026-04-25T13:56:06.894Z</time></trkpt><trkpt lat="45.7400616" lon="10.4443814"><ele>357.0</ele><time>2026-04-25T13:56:07.902Z</time></trkpt><trkpt lat="45.7400557" lon="10.4442482"><ele>357.0</ele><time>2026-04-25T13:56:08.865Z</time></trkpt><trkpt lat="45.7400316" lon="10.4440813"><ele>357.0</ele><time>2026-04-25T13:56:09.891Z</time></trkpt><trkpt lat="45.7400072" lon="10.4439091"><ele>359.3333333333333</ele><time>2026-04-25T13:56:10.876Z</time></trkpt><trkpt lat="45.739975" lon="10.443708"><ele>361.66666666666663</ele><time>2026-04-25T13:56:11.908Z</time></trkpt><trkpt lat="45.739945" lon="10.4434981"><ele>364.0</ele><time>2026-04-25T13:56:12.911Z</time></trkpt><trkpt lat="45.7399145" lon="10.4432779"><ele>364.0</ele><time>2026-04-25T13:56:13.903Z</time></trkpt><trkpt lat="45.7398803" lon="10.4430489"><ele>364.0</ele><time>2026-04-25T13:56:14.898Z</time></trkpt><trkpt lat="45.7398503" lon="10.4428415"><ele>364.0</ele><time>2026-04-25T13:56:15.871Z</time></trkpt><trkpt lat="45.7398209" lon="10.4426387"><ele>367.75</ele><time>2026-04-25T13:56:16.892Z</time></trkpt><trkpt lat="45.7397907" lon="10.4424532"><ele>371.5</ele><time>2026-04-25T13:56:17.9Z</time></trkpt><trkpt lat="45.7397638" lon="10.4422711"><ele>375.25</ele><time>2026-04-25T13:56:18.863Z</time></trkpt><trkpt lat="45.7397335" lon="10.4420693"><ele>379.0</ele><time>2026-04-25T13:56:19.897Z</time></trkpt><trkpt lat="45.7397037" lon="10.4418748"><ele>381.25</ele><time>2026-04-25T13:56:20.869Z</time></trkpt><trkpt lat="45.7396729" lon="10.4416658"><ele>383.5</ele><time>2026-04-25T13:56:21.902Z</time></trkpt><trkpt lat="45.739642" lon="10.4414569"><ele>385.75</ele><time>2026-04-25T13:56:22.906Z</time></trkpt><trkpt lat="45.7396134" lon="10.4412486"><ele>388.0</ele><time>2026-04-25T13:56:23.883Z</time></trkpt><trkpt lat="45.739584" lon="10.441026"><ele>391.33333333333337</ele><time>2026-04-25T13:56:24.918Z</time></trkpt><trkpt lat="45.7395561" lon="10.4408121"><ele>394.66666666666663</ele><time>2026-04-25T13:56:25.911Z</time></trkpt><trkpt lat="45.739525" lon="10.4405945"><ele>398.0</ele><time>2026-04-25T13:56:26.91Z</time></trkpt><trkpt lat="45.7394938" lon="10.4403863"><ele>398.75</ele><time>2026-04-25T13:56:27.867Z</time></trkpt><trkpt lat="45.7394594" lon="10.4401823"><ele>399.5</ele><time>2026-04-25T13:56:28.899Z</time></trkpt><trkpt lat="45.7394326" lon="10.4400063"><ele>400.25</ele><time>2026-04-25T13:56:29.868Z</time></trkpt><trkpt lat="45.7394099" lon="10.439842"><ele>401.0</ele><time>2026-04-25T13:56:30.884Z</time></trkpt><trkpt lat="45.739387" lon="10.4396939"><ele>397.8333333333333</ele><time>2026-04-25T13:56:31.901Z</time></trkpt><trkpt lat="45.7393613" lon="10.4395625"><ele>394.66666666666663</ele><time>2026-04-25T13:56:32.895Z</time></trkpt><trkpt lat="45.7393374" lon="10.4394421"><ele>391.5</ele><time>2026-04-25T13:56:33.871Z</time></trkpt><trkpt lat="45.7393054" lon="10.4393254"><ele>388.3333333333333</ele><time>2026-04-25T13:56:34.91Z</time></trkpt><trkpt lat="45.7392622" lon="10.439228"><ele>385.16666666666663</ele><time>2026-04-25T13:56:35.879Z</time></trkpt><trkpt lat="45.7392039" lon="10.4391464"><ele>382.0</ele><time>2026-04-25T13:56:36.863Z</time></trkpt><trkpt lat="45.7391392" lon="10.4390759"><ele>382.0</ele><time>2026-04-25T13:56:37.87Z</time></trkpt><trkpt lat="45.7390771" lon="10.4389987"><ele>382.0</ele><time>2026-04-25T13:56:38.906Z</time></trkpt><trkpt lat="45.7390328" lon="10.4389228"><ele>382.0</ele><time>2026-04-25T13:56:39.885Z</time></trkpt><trkpt lat="45.7389909" lon="10.4388431"><ele>382.0</ele><time>2026-04-25T13:56:40.885Z</time></trkpt><trkpt lat="45.7389524" lon="10.438758"><ele>382.0</ele><time>2026-04-25T13:56:41.872Z</time></trkpt><trkpt lat="45.7389164" lon="10.4386721"><ele>382.0</ele><time>2026-04-25T13:56:42.86Z</time></trkpt><trkpt lat="45.7388875" lon="10.4385684"><ele>382.0</ele><time>2026-04-25T13:56:43.896Z</time></trkpt><trkpt lat="45.7388672" lon="10.4384569"><ele>383.0</ele><time>2026-04-25T13:56:44.898Z</time></trkpt><trkpt lat="45.7388535" lon="10.4383487"><ele>384.0</ele><time>2026-04-25T13:56:45.87Z</time></trkpt><trkpt lat="45.738843" lon="10.4382228"><ele>385.0</ele><time>2026-04-25T13:56:46.9Z</time></trkpt><trkpt lat="45.7388328" lon="10.4381046"><ele>386.0</ele><time>2026-04-25T13:56:47.86Z</time></trkpt><trkpt lat="45.7388157" lon="10.4379702"><ele>387.00000000000006</ele><time>2026-04-25T13:56:48.914Z</time></trkpt><trkpt lat="45.7387963" lon="10.4378463"><ele>388.0</ele><time>2026-04-25T13:56:49.886Z</time></trkpt><trkpt lat="45.7387704" lon="10.4376707"><ele>387.79999999999995</ele><time>2026-04-25T13:56:51.251Z</time></trkpt><trkpt lat="45.7387439" lon="10.4374666"><ele>387.6</ele><time>2026-04-25T13:56:52.934Z</time></trkpt><trkpt lat="45.738715" lon="10.4373575"><ele>387.4</ele><time>2026-04-25T13:56:53.919Z</time></trkpt><trkpt lat="45.7386725" lon="10.437258"><ele>387.20000000000005</ele><time>2026-04-25T13:56:54.943Z</time></trkpt><trkpt lat="45.7386168" lon="10.4371668"><ele>387.0</ele><time>2026-04-25T13:56:55.945Z</time></trkpt><trkpt lat="45.7385452" lon="10.4370826"><ele>387.0</ele><time>2026-04-25T13:56:56.948Z</time></trkpt><trkpt lat="45.7384732" lon="10.4369895"><ele>387.0</ele><time>2026-04-25T13:56:57.96Z</time></trkpt><trkpt lat="45.7384027" lon="10.4368827"><ele>387.0</ele><time>2026-04-25T13:56:58.956Z</time></trkpt><trkpt lat="45.7383276" lon="10.4367612"><ele>387.0</ele><time>2026-04-25T13:56:59.967Z</time></trkpt><trkpt lat="45.7382537" lon="10.4366395"><ele>387.0</ele><time>2026-04-25T13:57:00.917Z</time></trkpt><trkpt lat="45.7381714" lon="10.4365132"><ele>387.0</ele><time>2026-04-25T13:57:01.926Z</time></trkpt><trkpt lat="45.7380832" lon="10.4364153"><ele>387.0</ele><time>2026-04-25T13:57:02.921Z</time></trkpt><trkpt lat="45.7379831" lon="10.4363557"><ele>387.0</ele><time>2026-04-25T13:57:03.946Z</time></trkpt><trkpt lat="45.7378836" lon="10.4363371"><ele>387.0</ele><time>2026-04-25T13:57:04.921Z</time></trkpt><trkpt lat="45.7377816" lon="10.4363332"><ele>387.0</ele><time>2026-04-25T13:57:05.945Z</time></trkpt><trkpt lat="45.7376855" lon="10.4363213"><ele>385.25</ele><time>2026-04-25T13:57:06.949Z</time></trkpt><trkpt lat="45.7375851" lon="10.436289"><ele>383.5</ele><time>2026-04-25T13:57:07.957Z</time></trkpt><trkpt lat="45.7374871" lon="10.4362315"><ele>381.75</ele><time>2026-04-25T13:57:08.919Z</time></trkpt><trkpt lat="45.7373891" lon="10.4361345"><ele>380.0</ele><time>2026-04-25T13:57:09.93Z</time></trkpt><trkpt lat="45.7372934" lon="10.4360109"><ele>380.0</ele><time>2026-04-25T13:57:10.945Z</time></trkpt><trkpt lat="45.7371968" lon="10.4358753"><ele>380.0</ele><time>2026-04-25T13:57:11.941Z</time></trkpt><trkpt lat="45.7371039" lon="10.4357447"><ele>380.0</ele><time>2026-04-25T13:57:12.912Z</time></trkpt><trkpt lat="45.7370083" lon="10.4356137"><ele>380.0</ele><time>2026-04-25T13:57:13.922Z</time></trkpt><trkpt lat="45.7369072" lon="10.4354949"><ele>379.5</ele><time>2026-04-25T13:57:14.933Z</time></trkpt><trkpt lat="45.7367929" lon="10.4354021"><ele>379.0</ele><time>2026-04-25T13:57:15.921Z</time></trkpt><trkpt lat="45.7366605" lon="10.4353342"><ele>378.5</ele><time>2026-04-25T13:57:16.935Z</time></trkpt><trkpt lat="45.7365221" lon="10.4352689"><ele>378.0</ele><time>2026-04-25T13:57:17.925Z</time></trkpt><trkpt lat="45.7363737" lon="10.4351833"><ele>378.0</ele><time>2026-04-25T13:57:18.951Z</time></trkpt><trkpt lat="45.7362264" lon="10.4350827"><ele>378.0</ele><time>2026-04-25T13:57:19.947Z</time></trkpt><trkpt lat="45.7360867" lon="10.4349827"><ele>378.0</ele><time>2026-04-25T13:57:20.919Z</time></trkpt><trkpt lat="45.7359422" lon="10.4348776"><ele>379.3333333333333</ele><time>2026-04-25T13:57:21.953Z</time></trkpt><trkpt lat="45.7358098" lon="10.4347867"><ele>380.66666666666663</ele><time>2026-04-25T13:57:22.918Z</time></trkpt><trkpt lat="45.7356735" lon="10.4346917"><ele>382.0</ele><time>2026-04-25T13:57:23.923Z</time></trkpt><trkpt lat="45.7355356" lon="10.434597"><ele>382.0</ele><time>2026-04-25T13:57:24.917Z</time></trkpt><trkpt lat="45.7353938" lon="10.4345018"><ele>382.0</ele><time>2026-04-25T13:57:25.953Z</time></trkpt><trkpt lat="45.7352526" lon="10.4344301"><ele>382.0</ele><time>2026-04-25T13:57:26.949Z</time></trkpt><trkpt lat="45.7351028" lon="10.4343872"><ele>377.0</ele><time>2026-04-25T13:57:27.945Z</time></trkpt><trkpt lat="45.7349523" lon="10.4343857"><ele>372.0</ele><time>2026-04-25T13:57:28.914Z</time></trkpt><trkpt lat="45.7347885" lon="10.4344173"><ele>367.0</ele><time>2026-04-25T13:57:29.95Z</time></trkpt><trkpt lat="45.7346289" lon="10.4344616"><ele>367.0</ele><time>2026-04-25T13:57:30.932Z</time></trkpt><trkpt lat="45.7344641" lon="10.4344958"><ele>367.0</ele><time>2026-04-25T13:57:31.92Z</time></trkpt><trkpt lat="45.7342863" lon="10.4345149"><ele>367.0</ele><time>2026-04-25T13:57:32.947Z</time></trkpt><trkpt lat="45.7341176" lon="10.4345266"><ele>366.5</ele><time>2026-04-25T13:57:33.958Z</time></trkpt><trkpt lat="45.7339603" lon="10.4345406"><ele>366.0</ele><time>2026-04-25T13:57:34.942Z</time></trkpt><trkpt lat="45.7338114" lon="10.4345577"><ele>365.5</ele><time>2026-04-25T13:57:35.953Z</time></trkpt><trkpt lat="45.7336732" lon="10.4345745"><ele>365.0</ele><time>2026-04-25T13:57:36.953Z</time></trkpt><trkpt lat="45.7335366" lon="10.4345824"><ele>363.25</ele><time>2026-04-25T13:57:37.947Z</time></trkpt><trkpt lat="45.7334019" lon="10.4345656"><ele>361.5</ele><time>2026-04-25T13:57:38.945Z</time></trkpt><trkpt lat="45.7332704" lon="10.4345216"><ele>359.75</ele><time>2026-04-25T13:57:39.953Z</time></trkpt><trkpt lat="45.7331402" lon="10.4344649"><ele>358.0</ele><time>2026-04-25T13:57:40.945Z</time></trkpt><trkpt lat="45.7330084" lon="10.4343995"><ele>358.0</ele><time>2026-04-25T13:57:41.922Z</time></trkpt><trkpt lat="45.7328688" lon="10.434326"><ele>358.0</ele><time>2026-04-25T13:57:42.921Z</time></trkpt><trkpt lat="45.7327225" lon="10.434253"><ele>358.0</ele><time>2026-04-25T13:57:43.915Z</time></trkpt><trkpt lat="45.732563" lon="10.4341773"><ele>355.25</ele><time>2026-04-25T13:57:44.958Z</time></trkpt><trkpt lat="45.7324197" lon="10.4341064"><ele>352.5</ele><time>2026-04-25T13:57:45.922Z</time></trkpt><trkpt lat="45.7322745" lon="10.4340328"><ele>349.75</ele><time>2026-04-25T13:57:46.937Z</time></trkpt><trkpt lat="45.7321425" lon="10.4339686"><ele>347.0</ele><time>2026-04-25T13:57:47.931Z</time></trkpt><trkpt lat="45.7320226" lon="10.4339209"><ele>347.0</ele><time>2026-04-25T13:57:48.909Z</time></trkpt><trkpt lat="45.7319083" lon="10.4339084"><ele>347.0</ele><time>2026-04-25T13:57:49.895Z</time></trkpt><trkpt lat="45.7317926" lon="10.4339351"><ele>347.0</ele><time>2026-04-25T13:57:50.893Z</time></trkpt><trkpt lat="45.7316753" lon="10.433998"><ele>347.0</ele><time>2026-04-25T13:57:51.907Z</time></trkpt><trkpt lat="45.7315514" lon="10.4340766"><ele>346.75</ele><time>2026-04-25T13:57:52.917Z</time></trkpt><trkpt lat="45.731431" lon="10.4341435"><ele>346.5</ele><time>2026-04-25T13:57:53.89Z</time></trkpt><trkpt lat="45.7313043" lon="10.4342123"><ele>346.25</ele><time>2026-04-25T13:57:54.866Z</time></trkpt><trkpt lat="45.7311805" lon="10.4342733"><ele>346.0</ele><time>2026-04-25T13:57:55.905Z</time></trkpt><trkpt lat="45.7310664" lon="10.4343358"><ele>345.0</ele><time>2026-04-25T13:57:56.874Z</time></trkpt><trkpt lat="45.7309485" lon="10.4343976"><ele>344.0</ele><time>2026-04-25T13:57:57.907Z</time></trkpt><trkpt lat="45.7308295" lon="10.4344483"><ele>343.0</ele><time>2026-04-25T13:57:58.915Z</time></trkpt><trkpt lat="45.7307157" lon="10.4345027"><ele>342.0</ele><time>2026-04-25T13:57:59.907Z</time></trkpt><trkpt lat="45.7306036" lon="10.4345405"><ele>342.0</ele><time>2026-04-25T13:58:00.85Z</time></trkpt><trkpt lat="45.7304712" lon="10.4345534"><ele>342.0</ele><time>2026-04-25T13:58:01.894Z</time></trkpt><trkpt lat="45.7303395" lon="10.4345294"><ele>342.0</ele><time>2026-04-25T13:58:02.867Z</time></trkpt><trkpt lat="45.7301877" lon="10.4344568"><ele>342.0</ele><time>2026-04-25T13:58:03.901Z</time></trkpt><trkpt lat="45.7300294" lon="10.434374"><ele>341.0</ele><time>2026-04-25T13:58:04.897Z</time></trkpt><trkpt lat="45.7298707" lon="10.4342967"><ele>340.0</ele><time>2026-04-25T13:58:05.887Z</time></trkpt><trkpt lat="45.7297296" lon="10.4342173"><ele>339.0</ele><time>2026-04-25T13:58:06.849Z</time></trkpt><trkpt lat="45.7295883" lon="10.4341136"><ele>339.0</ele><time>2026-04-25T13:58:07.887Z</time></trkpt><trkpt lat="45.7294745" lon="10.4339903"><ele>339.0</ele><time>2026-04-25T13:58:08.87Z</time></trkpt><trkpt lat="45.729367" lon="10.4338453"><ele>339.0</ele><time>2026-04-25T13:58:09.874Z</time></trkpt><trkpt lat="45.7292672" lon="10.4336766"><ele>339.0</ele><time>2026-04-25T13:58:10.873Z</time></trkpt><trkpt lat="45.7291754" lon="10.4334955"><ele>339.3333333333333</ele><time>2026-04-25T13:58:11.878Z</time></trkpt><trkpt lat="45.7290815" lon="10.4333149"><ele>339.66666666666663</ele><time>2026-04-25T13:58:12.902Z</time></trkpt><trkpt lat="45.7289907" lon="10.4331501"><ele>340.0</ele><time>2026-04-25T13:58:13.897Z</time></trkpt><trkpt lat="45.7288959" lon="10.4329886"><ele>339.5</ele><time>2026-04-25T13:58:14.902Z</time></trkpt><trkpt lat="45.7287951" lon="10.4328432"><ele>339.0</ele><time>2026-04-25T13:58:15.903Z</time></trkpt><trkpt lat="45.7286897" lon="10.4327099"><ele>338.5</ele><time>2026-04-25T13:58:16.897Z</time></trkpt><trkpt lat="45.7285752" lon="10.4325977"><ele>338.0</ele><time>2026-04-25T13:58:17.906Z</time></trkpt><trkpt lat="45.7284586" lon="10.4325111"><ele>338.0</ele><time>2026-04-25T13:58:18.905Z</time></trkpt><trkpt lat="45.7283467" lon="10.4324614"><ele>338.0</ele><time>2026-04-25T13:58:19.881Z</time></trkpt><trkpt lat="45.7282259" lon="10.4324489"><ele>338.0</ele><time>2026-04-25T13:58:20.885Z</time></trkpt><trkpt lat="45.7281036" lon="10.4324683"><ele>338.0</ele><time>2026-04-25T13:58:21.913Z</time></trkpt><trkpt lat="45.7279906" lon="10.4325081"><ele>338.0</ele><time>2026-04-25T13:58:22.87Z</time></trkpt><trkpt lat="45.7278794" lon="10.4325313"><ele>338.0</ele><time>2026-04-25T13:58:23.866Z</time></trkpt><trkpt lat="45.7277687" lon="10.4325316"><ele>338.0</ele><time>2026-04-25T13:58:24.905Z</time></trkpt><trkpt lat="45.7276629" lon="10.432496"><ele>338.0</ele><time>2026-04-25T13:58:25.886Z</time></trkpt><trkpt lat="45.7275663" lon="10.4324237"><ele>338.0</ele><time>2026-04-25T13:58:26.9Z</time></trkpt><trkpt lat="45.727466" lon="10.43231"><ele>336.25</ele><time>2026-04-25T13:58:27.88Z</time></trkpt><trkpt lat="45.7273554" lon="10.432179"><ele>334.5</ele><time>2026-04-25T13:58:28.911Z</time></trkpt><trkpt lat="45.7272433" lon="10.4320518"><ele>332.75</ele><time>2026-04-25T13:58:29.897Z</time></trkpt><trkpt lat="45.7271225" lon="10.4319205"><ele>331.0</ele><time>2026-04-25T13:58:30.883Z</time></trkpt><trkpt lat="45.7269902" lon="10.4317822"><ele>330.0</ele><time>2026-04-25T13:58:31.894Z</time></trkpt><trkpt lat="45.7268618" lon="10.4316399"><ele>329.0</ele><time>2026-04-25T13:58:32.903Z</time></trkpt><trkpt lat="45.7267363" lon="10.4314949"><ele>328.0</ele><time>2026-04-25T13:58:33.898Z</time></trkpt><trkpt lat="45.7266099" lon="10.4313423"><ele>330.3333333333333</ele><time>2026-04-25T13:58:34.89Z</time></trkpt><trkpt lat="45.7264816" lon="10.4311755"><ele>332.6666666666667</ele><time>2026-04-25T13:58:35.895Z</time></trkpt><trkpt lat="45.7263551" lon="10.4310031"><ele>335.0</ele><time>2026-04-25T13:58:36.874Z</time></trkpt><trkpt lat="45.7262205" lon="10.4308227"><ele>335.0</ele><time>2026-04-25T13:58:37.899Z</time></trkpt><trkpt lat="45.7260938" lon="10.4306542"><ele>335.0</ele><time>2026-04-25T13:58:38.895Z</time></trkpt><trkpt lat="45.7259715" lon="10.4304929"><ele>335.0</ele><time>2026-04-25T13:58:39.899Z</time></trkpt><trkpt lat="45.7258561" lon="10.4303374"><ele>334.6666666666667</ele><time>2026-04-25T13:58:40.907Z</time></trkpt><trkpt lat="45.7257445" lon="10.4301895"><ele>334.3333333333333</ele><time>2026-04-25T13:58:41.903Z</time></trkpt><trkpt lat="45.7256324" lon="10.4300394"><ele>334.0</ele><time>2026-04-25T13:58:42.88Z</time></trkpt><trkpt lat="45.7255127" lon="10.4298769"><ele>334.0</ele><time>2026-04-25T13:58:43.898Z</time></trkpt><trkpt lat="45.7254002" lon="10.4297178"><ele>334.0</ele><time>2026-04-25T13:58:44.866Z</time></trkpt><trkpt lat="45.7252782" lon="10.4295541"><ele>334.0</ele><time>2026-04-25T13:58:45.892Z</time></trkpt><trkpt lat="45.7251566" lon="10.4293835"><ele>334.0</ele><time>2026-04-25T13:58:46.917Z</time></trkpt><trkpt lat="45.7250466" lon="10.4292029"><ele>334.0</ele><time>2026-04-25T13:58:47.893Z</time></trkpt><trkpt lat="45.7249485" lon="10.4290026"><ele>334.0</ele><time>2026-04-25T13:58:48.865Z</time></trkpt><trkpt lat="45.7248474" lon="10.4287762"><ele>336.66666666666663</ele><time>2026-04-25T13:58:49.911Z</time></trkpt><trkpt lat="45.7247471" lon="10.4285722"><ele>339.3333333333333</ele><time>2026-04-25T13:58:50.884Z</time></trkpt><trkpt lat="45.7246286" lon="10.4283628"><ele>342.0</ele><time>2026-04-25T13:58:51.913Z</time></trkpt><trkpt lat="45.7245087" lon="10.428179"><ele>339.3333333333333</ele><time>2026-04-25T13:58:52.893Z</time></trkpt><trkpt lat="45.7243755" lon="10.4279968"><ele>336.66666666666663</ele><time>2026-04-25T13:58:53.87Z</time></trkpt><trkpt lat="45.7242292" lon="10.4277883"><ele>334.0</ele><time>2026-04-25T13:58:54.902Z</time></trkpt><trkpt lat="45.7240956" lon="10.427593"><ele>334.0</ele><time>2026-04-25T13:58:55.86Z</time></trkpt><trkpt lat="45.7239549" lon="10.4273923"><ele>334.0</ele><time>2026-04-25T13:58:56.905Z</time></trkpt><trkpt lat="45.7238222" lon="10.4272194"><ele>334.0</ele><time>2026-04-25T13:58:57.895Z</time></trkpt><trkpt lat="45.7236907" lon="10.4270579"><ele>333.3333333333333</ele><time>2026-04-25T13:58:58.899Z</time></trkpt><trkpt lat="45.7235652" lon="10.4269004"><ele>332.6666666666667</ele><time>2026-04-25T13:58:59.907Z</time></trkpt><trkpt lat="45.7234423" lon="10.4267447"><ele>332.0</ele><time>2026-04-25T13:59:00.898Z</time></trkpt><trkpt lat="45.7233267" lon="10.42659"><ele>332.0</ele><time>2026-04-25T13:59:01.9Z</time></trkpt><trkpt lat="45.7232215" lon="10.4264347"><ele>332.0</ele><time>2026-04-25T13:59:02.868Z</time></trkpt><trkpt lat="45.7231194" lon="10.4262692"><ele>332.0</ele><time>2026-04-25T13:59:03.875Z</time></trkpt><trkpt lat="45.723025" lon="10.4260957"><ele>331.25</ele><time>2026-04-25T13:59:04.897Z</time></trkpt><trkpt lat="45.7229422" lon="10.4259296"><ele>330.5</ele><time>2026-04-25T13:59:05.891Z</time></trkpt><trkpt lat="45.7228588" lon="10.4257702"><ele>329.75</ele><time>2026-04-25T13:59:06.884Z</time></trkpt><trkpt lat="45.7227717" lon="10.4256048"><ele>329.0</ele><time>2026-04-25T13:59:07.911Z</time></trkpt><trkpt lat="45.7226895" lon="10.4254437"><ele>329.0</ele><time>2026-04-25T13:59:08.894Z</time></trkpt><trkpt lat="45.7226049" lon="10.4252755"><ele>329.0</ele><time>2026-04-25T13:59:09.9Z</time></trkpt><trkpt lat="45.7225226" lon="10.4251146"><ele>329.0</ele><time>2026-04-25T13:59:10.885Z</time></trkpt><trkpt lat="45.7224333" lon="10.4249562"><ele>329.0</ele><time>2026-04-25T13:59:11.891Z</time></trkpt><trkpt lat="45.7223387" lon="10.4248177"><ele>329.0</ele><time>2026-04-25T13:59:12.889Z</time></trkpt><trkpt lat="45.7222383" lon="10.4246934"><ele>329.0</ele><time>2026-04-25T13:59:13.891Z</time></trkpt><trkpt lat="45.7221368" lon="10.4245828"><ele>329.0</ele><time>2026-04-25T13:59:14.895Z</time></trkpt><trkpt lat="45.7220414" lon="10.4244781"><ele>329.0</ele><time>2026-04-25T13:59:15.896Z</time></trkpt><trkpt lat="45.7219542" lon="10.4243743"><ele>329.25</ele><time>2026-04-25T13:59:16.901Z</time></trkpt><trkpt lat="45.7218683" lon="10.4242652"><ele>329.5</ele><time>2026-04-25T13:59:17.911Z</time></trkpt><trkpt lat="45.721786" lon="10.4241448"><ele>329.75</ele><time>2026-04-25T13:59:18.869Z</time></trkpt><trkpt lat="45.7217038" lon="10.4239969"><ele>330.0</ele><time>2026-04-25T13:59:19.889Z</time></trkpt><trkpt lat="45.7216315" lon="10.4238382"><ele>329.5</ele><time>2026-04-25T13:59:20.862Z</time></trkpt><trkpt lat="45.7215642" lon="10.4236636"><ele>329.0</ele><time>2026-04-25T13:59:21.873Z</time></trkpt><trkpt lat="45.7215014" lon="10.4234832"><ele>328.5</ele><time>2026-04-25T13:59:22.874Z</time></trkpt><trkpt lat="45.721439" lon="10.4232907"><ele>328.0</ele><time>2026-04-25T13:59:23.887Z</time></trkpt><trkpt lat="45.7213687" lon="10.4230916"><ele>329.66666666666663</ele><time>2026-04-25T13:59:24.908Z</time></trkpt><trkpt lat="45.7212958" lon="10.4228896"><ele>331.3333333333333</ele><time>2026-04-25T13:59:25.905Z</time></trkpt><trkpt lat="45.7212227" lon="10.4226904"><ele>333.0</ele><time>2026-04-25T13:59:26.864Z</time></trkpt><trkpt lat="45.7211436" lon="10.4224758"><ele>331.6666666666667</ele><time>2026-04-25T13:59:27.872Z</time></trkpt><trkpt lat="45.7210602" lon="10.422257"><ele>330.33333333333337</ele><time>2026-04-25T13:59:28.872Z</time></trkpt><trkpt lat="45.7209631" lon="10.422041"><ele>329.0</ele><time>2026-04-25T13:59:29.899Z</time></trkpt><trkpt lat="45.7208542" lon="10.4218465"><ele>329.0</ele><time>2026-04-25T13:59:30.897Z</time></trkpt><trkpt lat="45.7207378" lon="10.4216651"><ele>329.0</ele><time>2026-04-25T13:59:31.897Z</time></trkpt><trkpt lat="45.7206227" lon="10.4214983"><ele>329.0</ele><time>2026-04-25T13:59:32.884Z</time></trkpt><trkpt lat="45.7205031" lon="10.4213281"><ele>329.6666666666667</ele><time>2026-04-25T13:59:33.907Z</time></trkpt><trkpt lat="45.720392" lon="10.4211623"><ele>330.3333333333333</ele><time>2026-04-25T13:59:34.871Z</time></trkpt><trkpt lat="45.720277" lon="10.4209891"><ele>331.0</ele><time>2026-04-25T13:59:35.865Z</time></trkpt><trkpt lat="45.7201582" lon="10.4208052"><ele>331.0</ele><time>2026-04-25T13:59:36.895Z</time></trkpt><trkpt lat="45.7200425" lon="10.420633"><ele>331.0</ele><time>2026-04-25T13:59:37.886Z</time></trkpt><trkpt lat="45.7199201" lon="10.4204599"><ele>331.0</ele><time>2026-04-25T13:59:38.902Z</time></trkpt><trkpt lat="45.7198008" lon="10.4202921"><ele>332.3333333333333</ele><time>2026-04-25T13:59:39.873Z</time></trkpt><trkpt lat="45.7196749" lon="10.4201078"><ele>333.6666666666667</ele><time>2026-04-25T13:59:40.904Z</time></trkpt><trkpt lat="45.7195528" lon="10.4199242"><ele>335.0</ele><time>2026-04-25T13:59:41.901Z</time></trkpt><trkpt lat="45.7194292" lon="10.4197369"><ele>334.0</ele><time>2026-04-25T13:59:42.909Z</time></trkpt><trkpt lat="45.7193132" lon="10.4195589"><ele>333.0</ele><time>2026-04-25T13:59:43.869Z</time></trkpt><trkpt lat="45.7191865" lon="10.4193722"><ele>332.0</ele><time>2026-04-25T13:59:44.907Z</time></trkpt><trkpt lat="45.7190736" lon="10.4192061"><ele>332.0</ele><time>2026-04-25T13:59:45.863Z</time></trkpt><trkpt lat="45.7189487" lon="10.4190259"><ele>332.0</ele><time>2026-04-25T13:59:46.903Z</time></trkpt><trkpt lat="45.7188312" lon="10.4188538"><ele>332.0</ele><time>2026-04-25T13:59:47.868Z</time></trkpt><trkpt lat="45.7187033" lon="10.4186638"><ele>331.33333333333337</ele><time>2026-04-25T13:59:48.903Z</time></trkpt><trkpt lat="45.718576" lon="10.4184802"><ele>330.6666666666667</ele><time>2026-04-25T13:59:49.905Z</time></trkpt><trkpt lat="45.7184523" lon="10.4183014"><ele>330.0</ele><time>2026-04-25T13:59:50.899Z</time></trkpt><trkpt lat="45.7183363" lon="10.4181346"><ele>336.3333333333333</ele><time>2026-04-25T13:59:51.89Z</time></trkpt><trkpt lat="45.7182212" lon="10.4179656"><ele>342.66666666666663</ele><time>2026-04-25T13:59:52.91Z</time></trkpt><trkpt lat="45.7181124" lon="10.4178032"><ele>349.0</ele><time>2026-04-25T13:59:53.899Z</time></trkpt><trkpt lat="45.7180018" lon="10.4176398"><ele>349.0</ele><time>2026-04-25T13:59:54.895Z</time></trkpt><trkpt lat="45.7178902" lon="10.4174734"><ele>349.0</ele><time>2026-04-25T13:59:55.889Z</time></trkpt><trkpt lat="45.7177794" lon="10.4173107"><ele>349.0</ele><time>2026-04-25T13:59:56.867Z</time></trkpt><trkpt lat="45.7176668" lon="10.4171465"><ele>348.3333333333333</ele><time>2026-04-25T13:59:57.865Z</time></trkpt><trkpt lat="45.7175507" lon="10.4169773"><ele>347.6666666666667</ele><time>2026-04-25T13:59:58.905Z</time></trkpt><trkpt lat="45.7174456" lon="10.416824"><ele>347.0</ele><time>2026-04-25T13:59:59.869Z</time></trkpt><trkpt lat="45.717341" lon="10.4166707"><ele>347.0</ele><time>2026-04-25T14:00:00.865Z</time></trkpt><trkpt lat="45.7172444" lon="10.4165185"><ele>347.0</ele><time>2026-04-25T14:00:01.86Z</time></trkpt><trkpt lat="45.7171556" lon="10.4163747"><ele>347.0</ele><time>2026-04-25T14:00:02.876Z</time></trkpt><trkpt lat="45.7170743" lon="10.4162414"><ele>347.0</ele><time>2026-04-25T14:00:03.875Z</time></trkpt><trkpt lat="45.7169937" lon="10.4161173"><ele>344.40000000000003</ele><time>2026-04-25T14:00:04.908Z</time></trkpt><trkpt lat="45.7169213" lon="10.4160027"><ele>341.8</ele><time>2026-04-25T14:00:05.9Z</time></trkpt><trkpt lat="45.7168573" lon="10.4158912"><ele>339.2</ele><time>2026-04-25T14:00:06.906Z</time></trkpt><trkpt lat="45.7168115" lon="10.4157824"><ele>336.6</ele><time>2026-04-25T14:00:07.902Z</time></trkpt><trkpt lat="45.7167839" lon="10.4156708"><ele>334.0</ele><time>2026-04-25T14:00:08.91Z</time></trkpt><trkpt lat="45.7167702" lon="10.4155659"><ele>337.0</ele><time>2026-04-25T14:00:09.898Z</time></trkpt><trkpt lat="45.7167505" lon="10.4154641"><ele>340.0</ele><time>2026-04-25T14:00:10.904Z</time></trkpt><trkpt lat="45.7167118" lon="10.4153868"><ele>343.0</ele><time>2026-04-25T14:00:11.902Z</time></trkpt><trkpt lat="45.7166531" lon="10.4153384"><ele>346.0</ele><time>2026-04-25T14:00:12.862Z</time></trkpt><trkpt lat="45.7165728" lon="10.4152977"><ele>349.0</ele><time>2026-04-25T14:00:13.887Z</time></trkpt><trkpt lat="45.7164866" lon="10.4152553"><ele>352.0</ele><time>2026-04-25T14:00:14.875Z</time></trkpt><trkpt lat="45.7163993" lon="10.4151833"><ele>352.0</ele><time>2026-04-25T14:00:15.894Z</time></trkpt><trkpt lat="45.7163194" lon="10.4150803"><ele>352.0</ele><time>2026-04-25T14:00:16.932Z</time></trkpt><trkpt lat="45.7162403" lon="10.4149728"><ele>352.0</ele><time>2026-04-25T14:00:17.898Z</time></trkpt><trkpt lat="45.7161548" lon="10.4148515"><ele>352.0</ele><time>2026-04-25T14:00:18.902Z</time></trkpt><trkpt lat="45.7160671" lon="10.4147292"><ele>348.5</ele><time>2026-04-25T14:00:19.87Z</time></trkpt><trkpt lat="45.7159794" lon="10.4146051"><ele>345.0</ele><time>2026-04-25T14:00:20.905Z</time></trkpt><trkpt lat="45.7159024" lon="10.4144929"><ele>341.5</ele><time>2026-04-25T14:00:21.888Z</time></trkpt><trkpt lat="45.7158267" lon="10.4143769"><ele>338.0</ele><time>2026-04-25T14:00:22.878Z</time></trkpt><trkpt lat="45.7157517" lon="10.4142524"><ele>338.0</ele><time>2026-04-25T14:00:23.867Z</time></trkpt><trkpt lat="45.7156678" lon="10.4141207"><ele>338.0</ele><time>2026-04-25T14:00:24.914Z</time></trkpt><trkpt lat="45.715589" lon="10.4139995"><ele>338.0</ele><time>2026-04-25T14:00:25.855Z</time></trkpt><trkpt lat="45.7155012" lon="10.4138682"><ele>338.0</ele><time>2026-04-25T14:00:26.875Z</time></trkpt><trkpt lat="45.7154154" lon="10.4137375"><ele>337.75</ele><time>2026-04-25T14:00:27.86Z</time></trkpt><trkpt lat="45.715333" lon="10.4136057"><ele>337.5</ele><time>2026-04-25T14:00:28.875Z</time></trkpt><trkpt lat="45.7152526" lon="10.4134815"><ele>337.25</ele><time>2026-04-25T14:00:29.901Z</time></trkpt><trkpt lat="45.7151766" lon="10.4133669"><ele>337.0</ele><time>2026-04-25T14:00:30.908Z</time></trkpt><trkpt lat="45.7151009" lon="10.4132616"><ele>337.0</ele><time>2026-04-25T14:00:31.879Z</time></trkpt><trkpt lat="45.7150106" lon="10.4131548"><ele>337.0</ele><time>2026-04-25T14:00:32.92Z</time></trkpt><trkpt lat="45.7149175" lon="10.4130599"><ele>337.0</ele><time>2026-04-25T14:00:33.872Z</time></trkpt><trkpt lat="45.7148104" lon="10.4129584"><ele>337.0</ele><time>2026-04-25T14:00:34.865Z</time></trkpt><trkpt lat="45.7146924" lon="10.4128561"><ele>338.66666666666663</ele><time>2026-04-25T14:00:35.866Z</time></trkpt><trkpt lat="45.7145618" lon="10.4127569"><ele>340.3333333333333</ele><time>2026-04-25T14:00:36.905Z</time></trkpt><trkpt lat="45.7144299" lon="10.4126679"><ele>342.0</ele><time>2026-04-25T14:00:37.887Z</time></trkpt><trkpt lat="45.7142839" lon="10.4125767"><ele>342.0</ele><time>2026-04-25T14:00:38.914Z</time></trkpt><trkpt lat="45.7141354" lon="10.412482"><ele>342.0</ele><time>2026-04-25T14:00:39.915Z</time></trkpt><trkpt lat="45.7139849" lon="10.4123804"><ele>342.0</ele><time>2026-04-25T14:00:40.913Z</time></trkpt><trkpt lat="45.713841" lon="10.4122822"><ele>342.0</ele><time>2026-04-25T14:00:41.892Z</time></trkpt><trkpt lat="45.7137026" lon="10.4121786"><ele>342.0</ele><time>2026-04-25T14:00:42.919Z</time></trkpt><trkpt lat="45.713583" lon="10.4120621"><ele>342.0</ele><time>2026-04-25T14:00:43.884Z</time></trkpt><trkpt lat="45.7134693" lon="10.4119191"><ele>339.0</ele><time>2026-04-25T14:00:44.921Z</time></trkpt><trkpt lat="45.713369" lon="10.4117549"><ele>336.0</ele><time>2026-04-25T14:00:45.911Z</time></trkpt><trkpt lat="45.7132774" lon="10.4115758"><ele>333.0</ele><time>2026-04-25T14:00:46.904Z</time></trkpt><trkpt lat="45.7132024" lon="10.4113793"><ele>335.3333333333333</ele><time>2026-04-25T14:00:47.911Z</time></trkpt><trkpt lat="45.7131355" lon="10.411187"><ele>337.66666666666663</ele><time>2026-04-25T14:00:48.864Z</time></trkpt><trkpt lat="45.7130636" lon="10.4109762"><ele>340.0</ele><time>2026-04-25T14:00:49.871Z</time></trkpt><trkpt lat="45.7129842" lon="10.4107522"><ele>340.0</ele><time>2026-04-25T14:00:50.905Z</time></trkpt><trkpt lat="45.712906" lon="10.4105209"><ele>340.0</ele><time>2026-04-25T14:00:51.904Z</time></trkpt><trkpt lat="45.7128261" lon="10.4102905"><ele>340.0</ele><time>2026-04-25T14:00:52.875Z</time></trkpt><trkpt lat="45.7127355" lon="10.4100442"><ele>337.3333333333333</ele><time>2026-04-25T14:00:53.892Z</time></trkpt><trkpt lat="45.7126418" lon="10.4097828"><ele>334.6666666666667</ele><time>2026-04-25T14:00:54.878Z</time></trkpt><trkpt lat="45.7125515" lon="10.4095159"><ele>332.0</ele><time>2026-04-25T14:00:55.877Z</time></trkpt><trkpt lat="45.7124602" lon="10.4092469"><ele>332.0</ele><time>2026-04-25T14:00:56.909Z</time></trkpt><trkpt lat="45.7123822" lon="10.4090081"><ele>332.0</ele><time>2026-04-25T14:00:57.874Z</time></trkpt><trkpt lat="45.7123008" lon="10.408776"><ele>332.0</ele><time>2026-04-25T14:00:58.891Z</time></trkpt><trkpt lat="45.7122209" lon="10.4085544"><ele>332.0</ele><time>2026-04-25T14:00:59.905Z</time></trkpt><trkpt lat="45.7121469" lon="10.4083359"><ele>332.0</ele><time>2026-04-25T14:01:00.904Z</time></trkpt><trkpt lat="45.7120732" lon="10.4081157"><ele>332.0</ele><time>2026-04-25T14:01:01.914Z</time></trkpt><trkpt lat="45.7119971" lon="10.4078949"><ele>331.0</ele><time>2026-04-25T14:01:02.911Z</time></trkpt><trkpt lat="45.7119278" lon="10.4076992"><ele>330.0</ele><time>2026-04-25T14:01:03.877Z</time></trkpt><trkpt lat="45.7118552" lon="10.4075053"><ele>329.0</ele><time>2026-04-25T14:01:04.907Z</time></trkpt><trkpt lat="45.7117818" lon="10.4073303"><ele>328.0</ele><time>2026-04-25T14:01:05.877Z</time></trkpt><trkpt lat="45.7116943" lon="10.4071472"><ele>328.0</ele><time>2026-04-25T14:01:06.897Z</time></trkpt><trkpt lat="45.7116066" lon="10.4069726"><ele>328.0</ele><time>2026-04-25T14:01:07.913Z</time></trkpt><trkpt lat="45.7115097" lon="10.4068136"><ele>328.0</ele><time>2026-04-25T14:01:08.896Z</time></trkpt><trkpt lat="45.7114049" lon="10.4066486"><ele>328.0</ele><time>2026-04-25T14:01:09.903Z</time></trkpt><trkpt lat="45.7113002" lon="10.4064886"><ele>328.0</ele><time>2026-04-25T14:01:10.866Z</time></trkpt><trkpt lat="45.7111888" lon="10.4063178"><ele>328.0</ele><time>2026-04-25T14:01:11.9Z</time></trkpt><trkpt lat="45.7110878" lon="10.4061697"><ele>326.59999999999997</ele><time>2026-04-25T14:01:12.903Z</time></trkpt><trkpt lat="45.7109981" lon="10.4060419"><ele>325.2</ele><time>2026-04-25T14:01:13.899Z</time></trkpt><trkpt lat="45.7109175" lon="10.4059367"><ele>323.8</ele><time>2026-04-25T14:01:14.876Z</time></trkpt><trkpt lat="45.7108358" lon="10.4058346"><ele>322.4</ele><time>2026-04-25T14:01:15.909Z</time></trkpt><trkpt lat="45.7107539" lon="10.4057515"><ele>321.0</ele><time>2026-04-25T14:01:16.899Z</time></trkpt><trkpt lat="45.7106701" lon="10.4056764"><ele>321.0</ele><time>2026-04-25T14:01:17.888Z</time></trkpt><trkpt lat="45.7105784" lon="10.4056017"><ele>321.0</ele><time>2026-04-25T14:01:18.9Z</time></trkpt><trkpt lat="45.7104886" lon="10.4055307"><ele>321.0</ele><time>2026-04-25T14:01:19.891Z</time></trkpt><trkpt lat="45.7103993" lon="10.4054759"><ele>321.0</ele><time>2026-04-25T14:01:20.897Z</time></trkpt><trkpt lat="45.7103125" lon="10.4054301"><ele>321.0</ele><time>2026-04-25T14:01:21.91Z</time></trkpt><trkpt lat="45.710229" lon="10.4053948"><ele>320.40000000000003</ele><time>2026-04-25T14:01:22.873Z</time></trkpt><trkpt lat="45.7101413" lon="10.4053666"><ele>319.8</ele><time>2026-04-25T14:01:23.892Z</time></trkpt><trkpt lat="45.7100458" lon="10.4053423"><ele>319.20000000000005</ele><time>2026-04-25T14:01:24.875Z</time></trkpt><trkpt lat="45.7099419" lon="10.4053065"><ele>318.6</ele><time>2026-04-25T14:01:25.902Z</time></trkpt><trkpt lat="45.7098318" lon="10.4052755"><ele>318.0</ele><time>2026-04-25T14:01:26.906Z</time></trkpt><trkpt lat="45.7097213" lon="10.4052444"><ele>318.0</ele><time>2026-04-25T14:01:27.889Z</time></trkpt><trkpt lat="45.7096129" lon="10.4052114"><ele>318.0</ele><time>2026-04-25T14:01:28.894Z</time></trkpt><trkpt lat="45.7095139" lon="10.40518"><ele>318.0</ele><time>2026-04-25T14:01:29.875Z</time></trkpt><trkpt lat="45.7094153" lon="10.4051441"><ele>318.0</ele><time>2026-04-25T14:01:30.886Z</time></trkpt><trkpt lat="45.7093146" lon="10.4051008"><ele>318.0</ele><time>2026-04-25T14:01:31.903Z</time></trkpt><trkpt lat="45.7092186" lon="10.4050433"><ele>318.0</ele><time>2026-04-25T14:01:32.869Z</time></trkpt><trkpt lat="45.7091186" lon="10.4049631"><ele>318.0</ele><time>2026-04-25T14:01:33.9Z</time></trkpt><trkpt lat="45.7090302" lon="10.4048748"><ele>318.0</ele><time>2026-04-25T14:01:34.901Z</time></trkpt><trkpt lat="45.7089502" lon="10.4047681"><ele>318.0</ele><time>2026-04-25T14:01:35.905Z</time></trkpt><trkpt lat="45.70888" lon="10.4046493"><ele>318.0</ele><time>2026-04-25T14:01:36.857Z</time></trkpt><trkpt lat="45.7088043" lon="10.4045097"><ele>318.25</ele><time>2026-04-25T14:01:37.896Z</time></trkpt><trkpt lat="45.7087407" lon="10.4043704"><ele>318.5</ele><time>2026-04-25T14:01:38.893Z</time></trkpt><trkpt lat="45.7086779" lon="10.4042236"><ele>318.75</ele><time>2026-04-25T14:01:39.89Z</time></trkpt><trkpt lat="45.7086111" lon="10.4040705"><ele>319.0</ele><time>2026-04-25T14:01:40.904Z</time></trkpt><trkpt lat="45.7085457" lon="10.4039235"><ele>318.25</ele><time>2026-04-25T14:01:41.869Z</time></trkpt><trkpt lat="45.7084779" lon="10.4037645"><ele>317.5</ele><time>2026-04-25T14:01:42.882Z</time></trkpt><trkpt lat="45.7084069" lon="10.4035982"><ele>316.75</ele><time>2026-04-25T14:01:43.914Z</time></trkpt><trkpt lat="45.7083394" lon="10.4034363"><ele>316.0</ele><time>2026-04-25T14:01:44.896Z</time></trkpt><trkpt lat="45.708275" lon="10.4032736"><ele>316.0</ele><time>2026-04-25T14:01:45.868Z</time></trkpt><trkpt lat="45.7082052" lon="10.4031001"><ele>316.0</ele><time>2026-04-25T14:01:46.912Z</time></trkpt><trkpt lat="45.708136" lon="10.402943"><ele>316.0</ele><time>2026-04-25T14:01:47.874Z</time></trkpt><trkpt lat="45.7080592" lon="10.4027746"><ele>316.0</ele><time>2026-04-25T14:01:48.895Z</time></trkpt><trkpt lat="45.707991" lon="10.4026098"><ele>315.75</ele><time>2026-04-25T14:01:49.89Z</time></trkpt><trkpt lat="45.7079212" lon="10.4024397"><ele>315.5</ele><time>2026-04-25T14:01:50.894Z</time></trkpt><trkpt lat="45.7078498" lon="10.4022751"><ele>315.25</ele><time>2026-04-25T14:01:51.904Z</time></trkpt><trkpt lat="45.7077772" lon="10.4021124"><ele>315.0</ele><time>2026-04-25T14:01:52.915Z</time></trkpt><trkpt lat="45.707707" lon="10.401958"><ele>314.75</ele><time>2026-04-25T14:01:53.874Z</time></trkpt><trkpt lat="45.7076278" lon="10.4018005"><ele>314.5</ele><time>2026-04-25T14:01:54.895Z</time></trkpt><trkpt lat="45.7075465" lon="10.4016432"><ele>314.25</ele><time>2026-04-25T14:01:55.905Z</time></trkpt><trkpt lat="45.7074638" lon="10.4014881"><ele>314.0</ele><time>2026-04-25T14:01:56.909Z</time></trkpt><trkpt lat="45.7073738" lon="10.4013319"><ele>315.0</ele><time>2026-04-25T14:01:57.883Z</time></trkpt><trkpt lat="45.7072797" lon="10.4011653"><ele>316.0</ele><time>2026-04-25T14:01:58.868Z</time></trkpt><trkpt lat="45.7071772" lon="10.4009751"><ele>317.0</ele><time>2026-04-25T14:01:59.916Z</time></trkpt><trkpt lat="45.7070898" lon="10.4007977"><ele>317.0</ele><time>2026-04-25T14:02:00.857Z</time></trkpt><trkpt lat="45.7069951" lon="10.4006051"><ele>317.0</ele><time>2026-04-25T14:02:01.882Z</time></trkpt><trkpt lat="45.7069087" lon="10.400417"><ele>317.0</ele><time>2026-04-25T14:02:02.9Z</time></trkpt><trkpt lat="45.706829" lon="10.4002373"><ele>317.0</ele><time>2026-04-25T14:02:03.909Z</time></trkpt><trkpt lat="45.7067531" lon="10.4000646"><ele>317.0</ele><time>2026-04-25T14:02:04.875Z</time></trkpt><trkpt lat="45.7066759" lon="10.3998766"><ele>317.0</ele><time>2026-04-25T14:02:05.905Z</time></trkpt><trkpt lat="45.7065999" lon="10.3997007"><ele>317.0</ele><time>2026-04-25T14:02:06.892Z</time></trkpt><trkpt lat="45.7065236" lon="10.3995155"><ele>318.33333333333337</ele><time>2026-04-25T14:02:07.905Z</time></trkpt><trkpt lat="45.7064494" lon="10.3993387"><ele>319.6666666666667</ele><time>2026-04-25T14:02:08.871Z</time></trkpt><trkpt lat="45.706373" lon="10.3991448"><ele>321.0</ele><time>2026-04-25T14:02:09.906Z</time></trkpt><trkpt lat="45.7063016" lon="10.3989531"><ele>323.6666666666667</ele><time>2026-04-25T14:02:10.899Z</time></trkpt><trkpt lat="45.7062395" lon="10.3987529"><ele>326.33333333333337</ele><time>2026-04-25T14:02:11.901Z</time></trkpt><trkpt lat="45.7061836" lon="10.3985487"><ele>329.0</ele><time>2026-04-25T14:02:12.898Z</time></trkpt><trkpt lat="45.7061358" lon="10.3983468"><ele>329.0</ele><time>2026-04-25T14:02:13.882Z</time></trkpt><trkpt lat="45.7060957" lon="10.3981406"><ele>329.0</ele><time>2026-04-25T14:02:14.877Z</time></trkpt><trkpt lat="45.7060584" lon="10.3979322"><ele>329.0</ele><time>2026-04-25T14:02:15.892Z</time></trkpt><trkpt lat="45.7060257" lon="10.397727"><ele>329.0</ele><time>2026-04-25T14:02:16.875Z</time></trkpt><trkpt lat="45.7059905" lon="10.3975152"><ele>324.0</ele><time>2026-04-25T14:02:17.892Z</time></trkpt><trkpt lat="45.7059576" lon="10.3972985"><ele>319.0</ele><time>2026-04-25T14:02:18.902Z</time></trkpt><trkpt lat="45.7059208" lon="10.3970804"><ele>314.0</ele><time>2026-04-25T14:02:19.894Z</time></trkpt><trkpt lat="45.7058806" lon="10.3968665"><ele>313.6666666666667</ele><time>2026-04-25T14:02:20.868Z</time></trkpt><trkpt lat="45.705836" lon="10.3966423"><ele>313.3333333333333</ele><time>2026-04-25T14:02:21.898Z</time></trkpt><trkpt lat="45.7057921" lon="10.3964283"><ele>313.0</ele><time>2026-04-25T14:02:22.894Z</time></trkpt><trkpt lat="45.705752" lon="10.3962217"><ele>314.5</ele><time>2026-04-25T14:02:23.878Z</time></trkpt><trkpt lat="45.7057054" lon="10.3960154"><ele>316.0</ele><time>2026-04-25T14:02:24.884Z</time></trkpt><trkpt lat="45.7056583" lon="10.3958229"><ele>317.5</ele><time>2026-04-25T14:02:25.891Z</time></trkpt><trkpt lat="45.7056078" lon="10.3956307"><ele>319.0</ele><time>2026-04-25T14:02:26.909Z</time></trkpt><trkpt lat="45.7055526" lon="10.3954459"><ele>320.5</ele><time>2026-04-25T14:02:27.868Z</time></trkpt><trkpt lat="45.7054901" lon="10.3952563"><ele>322.0</ele><time>2026-04-25T14:02:28.882Z</time></trkpt><trkpt lat="45.7054271" lon="10.3950762"><ele>323.5</ele><time>2026-04-25T14:02:29.869Z</time></trkpt><trkpt lat="45.7053565" lon="10.394876"><ele>325.0</ele><time>2026-04-25T14:02:30.917Z</time></trkpt><trkpt lat="45.7052988" lon="10.3946888"><ele>327.25</ele><time>2026-04-25T14:02:31.913Z</time></trkpt><trkpt lat="45.7052537" lon="10.3945084"><ele>329.5</ele><time>2026-04-25T14:02:32.897Z</time></trkpt><trkpt lat="45.7052178" lon="10.3943243"><ele>331.75</ele><time>2026-04-25T14:02:33.897Z</time></trkpt><trkpt lat="45.7051848" lon="10.3941405"><ele>334.0</ele><time>2026-04-25T14:02:34.901Z</time></trkpt><trkpt lat="45.7051476" lon="10.3939551"><ele>330.0</ele><time>2026-04-25T14:02:35.908Z</time></trkpt><trkpt lat="45.7051105" lon="10.3937628"><ele>326.0</ele><time>2026-04-25T14:02:36.896Z</time></trkpt><trkpt lat="45.7050706" lon="10.3935679"><ele>322.0</ele><time>2026-04-25T14:02:37.878Z</time></trkpt><trkpt lat="45.7050304" lon="10.393358"><ele>318.0</ele><time>2026-04-25T14:02:38.899Z</time></trkpt><trkpt lat="45.7049883" lon="10.3931528"><ele>319.6666666666667</ele><time>2026-04-25T14:02:39.868Z</time></trkpt><trkpt lat="45.704945" lon="10.3929335"><ele>321.33333333333337</ele><time>2026-04-25T14:02:40.887Z</time></trkpt><trkpt lat="45.7049002" lon="10.3927154"><ele>323.0</ele><time>2026-04-25T14:02:41.89Z</time></trkpt><trkpt lat="45.7048546" lon="10.3924944"><ele>323.0</ele><time>2026-04-25T14:02:42.88Z</time></trkpt><trkpt lat="45.7048088" lon="10.3922593"><ele>323.0</ele><time>2026-04-25T14:02:43.913Z</time></trkpt><trkpt lat="45.7047681" lon="10.3920329"><ele>323.0</ele><time>2026-04-25T14:02:44.897Z</time></trkpt><trkpt lat="45.7047241" lon="10.3918034"><ele>324.33333333333337</ele><time>2026-04-25T14:02:45.903Z</time></trkpt><trkpt lat="45.7046797" lon="10.3915763"><ele>325.6666666666667</ele><time>2026-04-25T14:02:46.866Z</time></trkpt><trkpt lat="45.704633" lon="10.3913303"><ele>327.0</ele><time>2026-04-25T14:02:47.904Z</time></trkpt><trkpt lat="45.7045869" lon="10.3910888"><ele>326.3333333333333</ele><time>2026-04-25T14:02:48.912Z</time></trkpt><trkpt lat="45.704542" lon="10.3908558"><ele>325.66666666666663</ele><time>2026-04-25T14:02:49.891Z</time></trkpt><trkpt lat="45.704498" lon="10.3906275"><ele>325.0</ele><time>2026-04-25T14:02:50.906Z</time></trkpt><trkpt lat="45.7044553" lon="10.3904108"><ele>325.0</ele><time>2026-04-25T14:02:51.912Z</time></trkpt><trkpt lat="45.7044149" lon="10.3902034"><ele>325.0</ele><time>2026-04-25T14:02:52.912Z</time></trkpt><trkpt lat="45.7043724" lon="10.3900018"><ele>325.0</ele><time>2026-04-25T14:02:53.892Z</time></trkpt><trkpt lat="45.7043246" lon="10.3897927"><ele>319.3333333333333</ele><time>2026-04-25T14:02:54.903Z</time></trkpt><trkpt lat="45.7042746" lon="10.3895821"><ele>313.6666666666667</ele><time>2026-04-25T14:02:55.914Z</time></trkpt><trkpt lat="45.7042173" lon="10.3893813"><ele>308.0</ele><time>2026-04-25T14:02:56.878Z</time></trkpt><trkpt lat="45.7041484" lon="10.3891887"><ele>308.0</ele><time>2026-04-25T14:02:57.907Z</time></trkpt><trkpt lat="45.7040801" lon="10.3890257"><ele>308.0</ele><time>2026-04-25T14:02:58.894Z</time></trkpt><trkpt lat="45.704013" lon="10.3888672"><ele>308.0</ele><time>2026-04-25T14:02:59.9Z</time></trkpt><trkpt lat="45.7039539" lon="10.3887256"><ele>308.0</ele><time>2026-04-25T14:03:00.849Z</time></trkpt><trkpt lat="45.7038884" lon="10.3885725"><ele>308.75</ele><time>2026-04-25T14:03:01.876Z</time></trkpt><trkpt lat="45.7038196" lon="10.3884233"><ele>309.5</ele><time>2026-04-25T14:03:02.915Z</time></trkpt><trkpt lat="45.7037587" lon="10.3882936"><ele>310.25</ele><time>2026-04-25T14:03:03.895Z</time></trkpt><trkpt lat="45.7036982" lon="10.3881599"><ele>311.0</ele><time>2026-04-25T14:03:04.881Z</time></trkpt><trkpt lat="45.7036363" lon="10.3880223"><ele>310.2</ele><time>2026-04-25T14:03:05.896Z</time></trkpt><trkpt lat="45.7035775" lon="10.3878985"><ele>309.40000000000003</ele><time>2026-04-25T14:03:06.902Z</time></trkpt><trkpt lat="45.703515" lon="10.3877935"><ele>308.6</ele><time>2026-04-25T14:03:07.899Z</time></trkpt><trkpt lat="45.7034445" lon="10.3876925"><ele>307.8</ele><time>2026-04-25T14:03:08.904Z</time></trkpt><trkpt lat="45.7033718" lon="10.3876019"><ele>307.0</ele><time>2026-04-25T14:03:09.908Z</time></trkpt><trkpt lat="45.7032994" lon="10.3875258"><ele>306.99999999999994</ele><time>2026-04-25T14:03:10.905Z</time></trkpt><trkpt lat="45.7032309" lon="10.3874575"><ele>307.0</ele><time>2026-04-25T14:03:11.905Z</time></trkpt><trkpt lat="45.7031692" lon="10.3873904"><ele>307.0</ele><time>2026-04-25T14:03:12.901Z</time></trkpt><trkpt lat="45.7031105" lon="10.3873284"><ele>307.0</ele><time>2026-04-25T14:03:13.88Z</time></trkpt><trkpt lat="45.7030478" lon="10.3872699"><ele>307.0</ele><time>2026-04-25T14:03:14.904Z</time></trkpt><trkpt lat="45.7029904" lon="10.3872159"><ele>306.99999999999994</ele><time>2026-04-25T14:03:15.907Z</time></trkpt><trkpt lat="45.7029346" lon="10.3871558"><ele>307.0</ele><time>2026-04-25T14:03:16.9Z</time></trkpt><trkpt lat="45.7028765" lon="10.3870909"><ele>307.3333333333333</ele><time>2026-04-25T14:03:17.912Z</time></trkpt><trkpt lat="45.7028169" lon="10.3870314"><ele>307.66666666666663</ele><time>2026-04-25T14:03:18.896Z</time></trkpt><trkpt lat="45.7027434" lon="10.3869916"><ele>308.0</ele><time>2026-04-25T14:03:19.91Z</time></trkpt><trkpt lat="45.7026705" lon="10.3869776"><ele>308.3333333333333</ele><time>2026-04-25T14:03:20.895Z</time></trkpt><trkpt lat="45.7025938" lon="10.3869703"><ele>308.6666666666667</ele><time>2026-04-25T14:03:21.895Z</time></trkpt><trkpt lat="45.7025267" lon="10.3869665"><ele>309.0</ele><time>2026-04-25T14:03:22.897Z</time></trkpt><trkpt lat="45.7024123" lon="10.3869618"><ele>309.0</ele><time>2026-04-25T14:03:24.915Z</time></trkpt><trkpt lat="45.7023157" lon="10.386922"><ele>309.0</ele><time>2026-04-25T14:03:26.9Z</time></trkpt><trkpt lat="45.7022093" lon="10.3868218"><ele>309.0</ele><time>2026-04-25T14:03:28.899Z</time></trkpt><trkpt lat="45.7020963" lon="10.3867852"><ele>309.0</ele><time>2026-04-25T14:03:30.905Z</time></trkpt><trkpt lat="45.701997" lon="10.386892"><ele>309.0</ele><time>2026-04-25T14:03:32.9Z</time></trkpt><trkpt lat="45.7019705" lon="10.3869992"><ele>309.0</ele><time>2026-04-25T14:03:33.902Z</time></trkpt><trkpt lat="45.7019376" lon="10.3871298"><ele>309.0</ele><time>2026-04-25T14:03:34.904Z</time></trkpt><trkpt lat="45.7018941" lon="10.3872573"><ele>309.0</ele><time>2026-04-25T14:03:35.906Z</time></trkpt><trkpt lat="45.701832" lon="10.3873687"><ele>309.0</ele><time>2026-04-25T14:03:36.907Z</time></trkpt><trkpt lat="45.7017502" lon="10.3874688"><ele>308.75</ele><time>2026-04-25T14:03:37.904Z</time></trkpt><trkpt lat="45.7016622" lon="10.3875605"><ele>308.5</ele><time>2026-04-25T14:03:38.874Z</time></trkpt><trkpt lat="45.7015536" lon="10.3876394"><ele>308.25</ele><time>2026-04-25T14:03:39.899Z</time></trkpt><trkpt lat="45.701414" lon="10.3877416"><ele>308.0</ele><time>2026-04-25T14:03:41.26Z</time></trkpt><trkpt lat="45.7012138" lon="10.3877883"><ele>307.6666666666667</ele><time>2026-04-25T14:03:42.921Z</time></trkpt><trkpt lat="45.7010563" lon="10.3878263"><ele>307.3333333333333</ele><time>2026-04-25T14:03:43.946Z</time></trkpt><trkpt lat="45.7008967" lon="10.3878579"><ele>307.0</ele><time>2026-04-25T14:03:44.953Z</time></trkpt><trkpt lat="45.7007423" lon="10.3878926"><ele>307.0</ele><time>2026-04-25T14:03:45.958Z</time></trkpt><trkpt lat="45.7005945" lon="10.3879287"><ele>307.0</ele><time>2026-04-25T14:03:46.962Z</time></trkpt><trkpt lat="45.7004546" lon="10.3879626"><ele>307.0</ele><time>2026-04-25T14:03:47.924Z</time></trkpt><trkpt lat="45.7003045" lon="10.3879962"><ele>307.0</ele><time>2026-04-25T14:03:48.95Z</time></trkpt><trkpt lat="45.7001623" lon="10.3880308"><ele>306.0</ele><time>2026-04-25T14:03:49.955Z</time></trkpt><trkpt lat="45.700023" lon="10.3880595"><ele>305.0</ele><time>2026-04-25T14:03:50.95Z</time></trkpt><trkpt lat="45.6998822" lon="10.3880901"><ele>304.0</ele><time>2026-04-25T14:03:51.949Z</time></trkpt><trkpt lat="45.6997435" lon="10.3881233"><ele>303.0</ele><time>2026-04-25T14:03:52.934Z</time></trkpt><trkpt lat="45.6996063" lon="10.3881546"><ele>303.0</ele><time>2026-04-25T14:03:53.959Z</time></trkpt><trkpt lat="45.6994855" lon="10.3881793"><ele>303.0</ele><time>2026-04-25T14:03:54.932Z</time></trkpt><trkpt lat="45.6993685" lon="10.3882025"><ele>303.0</ele><time>2026-04-25T14:03:55.945Z</time></trkpt><trkpt lat="45.6992634" lon="10.388223"><ele>303.0</ele><time>2026-04-25T14:03:56.96Z</time></trkpt><trkpt lat="45.6991739" lon="10.3882355"><ele>303.0</ele><time>2026-04-25T14:03:57.909Z</time></trkpt><trkpt lat="45.6990858" lon="10.3882305"><ele>303.0</ele><time>2026-04-25T14:03:58.934Z</time></trkpt><trkpt lat="45.6990039" lon="10.3882014"><ele>303.0</ele><time>2026-04-25T14:03:59.939Z</time></trkpt><trkpt lat="45.6989212" lon="10.3881592"><ele>303.0</ele><time>2026-04-25T14:04:00.925Z</time></trkpt><trkpt lat="45.6988391" lon="10.3881289"><ele>303.0</ele><time>2026-04-25T14:04:01.956Z</time></trkpt><trkpt lat="45.6987651" lon="10.3881293"><ele>303.0</ele><time>2026-04-25T14:04:02.948Z</time></trkpt><trkpt lat="45.6986956" lon="10.3881791"><ele>303.0</ele><time>2026-04-25T14:04:03.928Z</time></trkpt><trkpt lat="45.6986165" lon="10.388265"><ele>303.5</ele><time>2026-04-25T14:04:04.931Z</time></trkpt><trkpt lat="45.6985096" lon="10.388344"><ele>304.0</ele><time>2026-04-25T14:04:05.948Z</time></trkpt><trkpt lat="45.6983822" lon="10.3883969"><ele>304.5</ele><time>2026-04-25T14:04:06.957Z</time></trkpt><trkpt lat="45.698233" lon="10.388431"><ele>305.0</ele><time>2026-04-25T14:04:07.97Z</time></trkpt><trkpt lat="45.6980734" lon="10.3884608"><ele>305.0</ele><time>2026-04-25T14:04:08.969Z</time></trkpt><trkpt lat="45.6979112" lon="10.3884922"><ele>305.0</ele><time>2026-04-25T14:04:09.925Z</time></trkpt><trkpt lat="45.697736" lon="10.3885283"><ele>305.0</ele><time>2026-04-25T14:04:10.956Z</time></trkpt><trkpt lat="45.6975753" lon="10.388565"><ele>305.0</ele><time>2026-04-25T14:04:11.951Z</time></trkpt><trkpt lat="45.6974193" lon="10.3886001"><ele>305.0</ele><time>2026-04-25T14:04:12.955Z</time></trkpt><trkpt lat="45.6972683" lon="10.3886335"><ele>305.0</ele><time>2026-04-25T14:04:13.933Z</time></trkpt><trkpt lat="45.6971141" lon="10.3886739"><ele>305.0</ele><time>2026-04-25T14:04:14.943Z</time></trkpt><trkpt lat="45.6969648" lon="10.3887306"><ele>305.0</ele><time>2026-04-25T14:04:15.93Z</time></trkpt><trkpt lat="45.6968153" lon="10.388819"><ele>305.0</ele><time>2026-04-25T14:04:16.93Z</time></trkpt><trkpt lat="45.6966619" lon="10.3889385"><ele>304.6666666666667</ele><time>2026-04-25T14:04:17.968Z</time></trkpt><trkpt lat="45.6965202" lon="10.3890617"><ele>304.3333333333333</ele><time>2026-04-25T14:04:18.924Z</time></trkpt><trkpt lat="45.696371" lon="10.3892015"><ele>304.0</ele><time>2026-04-25T14:04:19.934Z</time></trkpt><trkpt lat="45.69622" lon="10.389346"><ele>303.0</ele><time>2026-04-25T14:04:20.95Z</time></trkpt><trkpt lat="45.6960767" lon="10.3894843"><ele>302.0</ele><time>2026-04-25T14:04:21.929Z</time></trkpt><trkpt lat="45.6959295" lon="10.3896254"><ele>301.0</ele><time>2026-04-25T14:04:22.933Z</time></trkpt><trkpt lat="45.6957789" lon="10.3897625"><ele>301.0</ele><time>2026-04-25T14:04:23.953Z</time></trkpt><trkpt lat="45.6956313" lon="10.3898806"><ele>301.0</ele><time>2026-04-25T14:04:24.921Z</time></trkpt><trkpt lat="45.6954678" lon="10.3899875"><ele>301.0</ele><time>2026-04-25T14:04:25.955Z</time></trkpt><trkpt lat="45.6953099" lon="10.3900801"><ele>303.3333333333333</ele><time>2026-04-25T14:04:26.935Z</time></trkpt><trkpt lat="45.6951451" lon="10.3901782"><ele>305.6666666666667</ele><time>2026-04-25T14:04:27.961Z</time></trkpt><trkpt lat="45.694988" lon="10.3902812"><ele>308.0</ele><time>2026-04-25T14:04:28.946Z</time></trkpt><trkpt lat="45.6948341" lon="10.3903892"><ele>308.0</ele><time>2026-04-25T14:04:29.927Z</time></trkpt><trkpt lat="45.6946773" lon="10.3905012"><ele>308.0</ele><time>2026-04-25T14:04:30.93Z</time></trkpt><trkpt lat="45.6945103" lon="10.3906244"><ele>308.0</ele><time>2026-04-25T14:04:31.98Z</time></trkpt><trkpt lat="45.6943576" lon="10.3907351"><ele>306.33333333333337</ele><time>2026-04-25T14:04:32.918Z</time></trkpt><trkpt lat="45.6941917" lon="10.3908456"><ele>304.6666666666667</ele><time>2026-04-25T14:04:33.927Z</time></trkpt><trkpt lat="45.6940235" lon="10.3909404"><ele>303.0</ele><time>2026-04-25T14:04:34.934Z</time></trkpt><trkpt lat="45.6938519" lon="10.3910223"><ele>303.0</ele><time>2026-04-25T14:04:35.956Z</time></trkpt><trkpt lat="45.6936897" lon="10.3910968"><ele>303.0</ele><time>2026-04-25T14:04:36.948Z</time></trkpt><trkpt lat="45.6935336" lon="10.3911687"><ele>303.0</ele><time>2026-04-25T14:04:37.945Z</time></trkpt><trkpt lat="45.6933834" lon="10.391242"><ele>301.6666666666667</ele><time>2026-04-25T14:04:38.934Z</time></trkpt><trkpt lat="45.6932341" lon="10.3913265"><ele>300.33333333333337</ele><time>2026-04-25T14:04:39.95Z</time></trkpt><trkpt lat="45.6930891" lon="10.3914302"><ele>299.0</ele><time>2026-04-25T14:04:40.948Z</time></trkpt><trkpt lat="45.6929482" lon="10.3915596"><ele>299.0</ele><time>2026-04-25T14:04:41.949Z</time></trkpt><trkpt lat="45.6928198" lon="10.3917186"><ele>299.0</ele><time>2026-04-25T14:04:42.947Z</time></trkpt><trkpt lat="45.6927044" lon="10.3919087"><ele>299.0</ele><time>2026-04-25T14:04:43.962Z</time></trkpt><trkpt lat="45.6926117" lon="10.3921115"><ele>300.0</ele><time>2026-04-25T14:04:44.919Z</time></trkpt><trkpt lat="45.6925279" lon="10.3923542"><ele>301.0</ele><time>2026-04-25T14:04:45.954Z</time></trkpt><trkpt lat="45.6924597" lon="10.3926018"><ele>302.0</ele><time>2026-04-25T14:04:46.931Z</time></trkpt><trkpt lat="45.6923904" lon="10.392871"><ele>299.0</ele><time>2026-04-25T14:04:47.953Z</time></trkpt><trkpt lat="45.6923208" lon="10.3931348"><ele>296.0</ele><time>2026-04-25T14:04:48.96Z</time></trkpt><trkpt lat="45.6922585" lon="10.3933764"><ele>293.0</ele><time>2026-04-25T14:04:49.926Z</time></trkpt><trkpt lat="45.6921988" lon="10.3936099"><ele>293.33333333333337</ele><time>2026-04-25T14:04:50.895Z</time></trkpt><trkpt lat="45.6921392" lon="10.3938503"><ele>293.6666666666667</ele><time>2026-04-25T14:04:51.907Z</time></trkpt><trkpt lat="45.6920753" lon="10.3940818"><ele>294.0</ele><time>2026-04-25T14:04:52.897Z</time></trkpt><trkpt lat="45.6920231" lon="10.3943008"><ele>294.0</ele><time>2026-04-25T14:04:53.908Z</time></trkpt><trkpt lat="45.6919691" lon="10.3945185"><ele>294.0</ele><time>2026-04-25T14:04:54.919Z</time></trkpt><trkpt lat="45.6919243" lon="10.3947182"><ele>294.0</ele><time>2026-04-25T14:04:55.905Z</time></trkpt><trkpt lat="45.6918686" lon="10.3949185"><ele>295.6666666666667</ele><time>2026-04-25T14:04:56.912Z</time></trkpt><trkpt lat="45.6918061" lon="10.395113"><ele>297.33333333333337</ele><time>2026-04-25T14:04:57.906Z</time></trkpt><trkpt lat="45.6917315" lon="10.3953019"><ele>299.0</ele><time>2026-04-25T14:04:58.903Z</time></trkpt><trkpt lat="45.6916418" lon="10.395487"><ele>297.33333333333337</ele><time>2026-04-25T14:04:59.899Z</time></trkpt><trkpt lat="45.6915309" lon="10.3956635"><ele>295.6666666666667</ele><time>2026-04-25T14:05:00.915Z</time></trkpt><trkpt lat="45.6914093" lon="10.3958362"><ele>294.0</ele><time>2026-04-25T14:05:01.903Z</time></trkpt><trkpt lat="45.69128" lon="10.3960058"><ele>294.0</ele><time>2026-04-25T14:05:02.89Z</time></trkpt><trkpt lat="45.6911465" lon="10.3961769"><ele>294.0</ele><time>2026-04-25T14:05:03.895Z</time></trkpt><trkpt lat="45.6910126" lon="10.396343"><ele>294.0</ele><time>2026-04-25T14:05:04.897Z</time></trkpt><trkpt lat="45.6908843" lon="10.3965031"><ele>295.6666666666667</ele><time>2026-04-25T14:05:05.898Z</time></trkpt><trkpt lat="45.6907705" lon="10.39666"><ele>297.33333333333337</ele><time>2026-04-25T14:05:06.866Z</time></trkpt><trkpt lat="45.6906566" lon="10.3968289"><ele>299.0</ele><time>2026-04-25T14:05:07.904Z</time></trkpt><trkpt lat="45.6905605" lon="10.3970091"><ele>298.33333333333337</ele><time>2026-04-25T14:05:08.908Z</time></trkpt><trkpt lat="45.6904771" lon="10.3971983"><ele>297.6666666666667</ele><time>2026-04-25T14:05:09.875Z</time></trkpt><trkpt lat="45.6903937" lon="10.3973938"><ele>297.0</ele><time>2026-04-25T14:05:10.897Z</time></trkpt><trkpt lat="45.6903129" lon="10.3975791"><ele>298.0</ele><time>2026-04-25T14:05:11.871Z</time></trkpt><trkpt lat="45.6902249" lon="10.3977669"><ele>299.0</ele><time>2026-04-25T14:05:12.891Z</time></trkpt><trkpt lat="45.6901305" lon="10.3979491"><ele>300.0</ele><time>2026-04-25T14:05:13.896Z</time></trkpt><trkpt lat="45.6900301" lon="10.3981196"><ele>300.0</ele><time>2026-04-25T14:05:14.883Z</time></trkpt><trkpt lat="45.6899111" lon="10.3982869"><ele>300.0</ele><time>2026-04-25T14:05:15.913Z</time></trkpt><trkpt lat="45.6897859" lon="10.3984327"><ele>300.0</ele><time>2026-04-25T14:05:16.873Z</time></trkpt><trkpt lat="45.689633" lon="10.3985695"><ele>300.0</ele><time>2026-04-25T14:05:17.904Z</time></trkpt><trkpt lat="45.6894681" lon="10.3986774"><ele>300.0</ele><time>2026-04-25T14:05:18.911Z</time></trkpt><trkpt lat="45.6892938" lon="10.3987586"><ele>300.0</ele><time>2026-04-25T14:05:19.895Z</time></trkpt><trkpt lat="45.6891101" lon="10.3988325"><ele>298.3333333333333</ele><time>2026-04-25T14:05:20.902Z</time></trkpt><trkpt lat="45.6889213" lon="10.398909"><ele>296.66666666666663</ele><time>2026-04-25T14:05:21.906Z</time></trkpt><trkpt lat="45.6887321" lon="10.3989943"><ele>295.0</ele><time>2026-04-25T14:05:22.913Z</time></trkpt><trkpt lat="45.6885509" lon="10.3990865"><ele>295.0</ele><time>2026-04-25T14:05:23.892Z</time></trkpt><trkpt lat="45.6883696" lon="10.3992015"><ele>295.0</ele><time>2026-04-25T14:05:24.901Z</time></trkpt><trkpt lat="45.6882018" lon="10.3993314"><ele>295.0</ele><time>2026-04-25T14:05:25.875Z</time></trkpt><trkpt lat="45.6880333" lon="10.399487"><ele>295.0</ele><time>2026-04-25T14:05:26.899Z</time></trkpt><trkpt lat="45.6878798" lon="10.3996626"><ele>295.0</ele><time>2026-04-25T14:05:27.909Z</time></trkpt><trkpt lat="45.6877408" lon="10.3998528"><ele>295.0</ele><time>2026-04-25T14:05:28.873Z</time></trkpt><trkpt lat="45.6876016" lon="10.4000658"><ele>295.3333333333333</ele><time>2026-04-25T14:05:29.91Z</time></trkpt><trkpt lat="45.6874818" lon="10.400285"><ele>295.6666666666667</ele><time>2026-04-25T14:05:30.901Z</time></trkpt><trkpt lat="45.6873678" lon="10.4005109"><ele>296.0</ele><time>2026-04-25T14:05:31.9Z</time></trkpt><trkpt lat="45.6872597" lon="10.4007368"><ele>296.0</ele><time>2026-04-25T14:05:32.879Z</time></trkpt><trkpt lat="45.687141" lon="10.4009722"><ele>296.0</ele><time>2026-04-25T14:05:33.909Z</time></trkpt><trkpt lat="45.6870318" lon="10.401193"><ele>296.0</ele><time>2026-04-25T14:05:34.896Z</time></trkpt><trkpt lat="45.6869233" lon="10.4014141"><ele>295.33333333333337</ele><time>2026-04-25T14:05:35.891Z</time></trkpt><trkpt lat="45.6868206" lon="10.4016258"><ele>294.6666666666667</ele><time>2026-04-25T14:05:36.868Z</time></trkpt><trkpt lat="45.6867163" lon="10.4018392"><ele>294.0</ele><time>2026-04-25T14:05:37.9Z</time></trkpt><trkpt lat="45.6866108" lon="10.4020405"><ele>300.0</ele><time>2026-04-25T14:05:38.912Z</time></trkpt><trkpt lat="45.6865047" lon="10.4022295"><ele>306.0</ele><time>2026-04-25T14:05:39.878Z</time></trkpt><trkpt lat="45.6863854" lon="10.4024199"><ele>312.0</ele><time>2026-04-25T14:05:40.892Z</time></trkpt><trkpt lat="45.6862569" lon="10.4025959"><ele>312.0</ele><time>2026-04-25T14:05:41.877Z</time></trkpt><trkpt lat="45.6861179" lon="10.402762"><ele>312.0</ele><time>2026-04-25T14:05:42.882Z</time></trkpt><trkpt lat="45.6859806" lon="10.4029304"><ele>312.0</ele><time>2026-04-25T14:05:43.874Z</time></trkpt><trkpt lat="45.6858366" lon="10.4031031"><ele>314.0</ele><time>2026-04-25T14:05:44.904Z</time></trkpt><trkpt lat="45.6856975" lon="10.4032743"><ele>316.0</ele><time>2026-04-25T14:05:45.9Z</time></trkpt><trkpt lat="45.6855605" lon="10.403458"><ele>318.0</ele><time>2026-04-25T14:05:46.896Z</time></trkpt><trkpt lat="45.6854226" lon="10.4036371"><ele>352.0</ele><time>2026-04-25T14:05:47.89Z</time></trkpt><trkpt lat="45.6852347" lon="10.4038707"><ele>386.0</ele><time>2026-04-25T14:05:49.242Z</time></trkpt><trkpt lat="45.6850001" lon="10.4041395"><ele>386.0</ele><time>2026-04-25T14:05:50.936Z</time></trkpt><trkpt lat="45.6848641" lon="10.4043168"><ele>386.0</ele><time>2026-04-25T14:05:51.956Z</time></trkpt><trkpt lat="45.6847239" lon="10.4045005"><ele>386.0</ele><time>2026-04-25T14:05:52.936Z</time></trkpt><trkpt lat="45.6845866" lon="10.4046786"><ele>400.66666666666663</ele><time>2026-04-25T14:05:53.927Z</time></trkpt><trkpt lat="45.6844515" lon="10.4048527"><ele>415.33333333333337</ele><time>2026-04-25T14:05:54.943Z</time></trkpt><trkpt lat="45.6843026" lon="10.4050229"><ele>430.0</ele><time>2026-04-25T14:05:55.915Z</time></trkpt><trkpt lat="45.6841506" lon="10.4051971"><ele>430.0</ele><time>2026-04-25T14:05:56.915Z</time></trkpt><trkpt lat="45.6839968" lon="10.4053755"><ele>430.0</ele><time>2026-04-25T14:05:57.91Z</time></trkpt><trkpt lat="45.6838416" lon="10.4055482"><ele>430.0</ele><time>2026-04-25T14:05:58.862Z</time></trkpt><trkpt lat="45.6837304" lon="10.4056785"><ele>374.0</ele><time>2026-04-25T14:05:59.823Z</time></trkpt><trkpt lat="45.6836157" lon="10.4058107"><ele>318.0</ele><time>2026-04-25T14:06:00.81Z</time></trkpt><trkpt lat="45.6854489" lon="10.4036165"><ele>310.0</ele><time>2026-04-25T14:06:01.778Z</time></trkpt><trkpt lat="45.681553" lon="10.408877"><ele>310.0</ele><time>2026-04-25T14:06:15.742Z</time></trkpt><trkpt lat="45.6814381" lon="10.4090643"><ele>310.0</ele><time>2026-04-25T14:06:16.743Z</time></trkpt><trkpt lat="45.6814443" lon="10.409589"><ele>306.5</ele><time>2026-04-25T14:06:18.94Z</time></trkpt><trkpt lat="45.6814044" lon="10.4099451"><ele>303.0</ele><time>2026-04-25T14:06:19.925Z</time></trkpt><trkpt lat="45.6809323" lon="10.4098456"><ele>303.0</ele><time>2026-04-25T14:06:20.955Z</time></trkpt><trkpt lat="45.6806912" lon="10.4099531"><ele>303.0</ele><time>2026-04-25T14:06:21.918Z</time></trkpt><trkpt lat="45.6805112" lon="10.4100729"><ele>303.0</ele><time>2026-04-25T14:06:22.917Z</time></trkpt><trkpt lat="45.680335" lon="10.4101833"><ele>303.0</ele><time>2026-04-25T14:06:23.906Z</time></trkpt><trkpt lat="45.6801727" lon="10.4102889"><ele>303.0</ele><time>2026-04-25T14:06:24.871Z</time></trkpt><trkpt lat="45.6799977" lon="10.4103973"><ele>303.3333333333333</ele><time>2026-04-25T14:06:25.894Z</time></trkpt><trkpt lat="45.6798335" lon="10.4105055"><ele>303.66666666666663</ele><time>2026-04-25T14:06:26.911Z</time></trkpt><trkpt lat="45.6796777" lon="10.4106047"><ele>304.0</ele><time>2026-04-25T14:06:27.878Z</time></trkpt><trkpt lat="45.6795205" lon="10.4107088"><ele>300.66666666666663</ele><time>2026-04-25T14:06:28.907Z</time></trkpt><trkpt lat="45.6793695" lon="10.41081"><ele>297.3333333333333</ele><time>2026-04-25T14:06:29.9Z</time></trkpt><trkpt lat="45.6792136" lon="10.4109042"><ele>294.0</ele><time>2026-04-25T14:06:30.9Z</time></trkpt><trkpt lat="45.6790525" lon="10.4110059"><ele>294.0</ele><time>2026-04-25T14:06:31.904Z</time></trkpt><trkpt lat="45.6788922" lon="10.411106"><ele>294.0</ele><time>2026-04-25T14:06:32.906Z</time></trkpt><trkpt lat="45.6787293" lon="10.4112116"><ele>294.0</ele><time>2026-04-25T14:06:33.919Z</time></trkpt><trkpt lat="45.6785716" lon="10.4113124"><ele>297.3333333333333</ele><time>2026-04-25T14:06:34.872Z</time></trkpt><trkpt lat="45.6784015" lon="10.4114229"><ele>300.66666666666663</ele><time>2026-04-25T14:06:35.911Z</time></trkpt><trkpt lat="45.6782424" lon="10.4115296"><ele>304.0</ele><time>2026-04-25T14:06:36.871Z</time></trkpt><trkpt lat="45.6780703" lon="10.4116402"><ele>304.0</ele><time>2026-04-25T14:06:37.889Z</time></trkpt><trkpt lat="45.6779028" lon="10.4117499"><ele>304.0</ele><time>2026-04-25T14:06:38.87Z</time></trkpt><trkpt lat="45.6777253" lon="10.4118676"><ele>304.0</ele><time>2026-04-25T14:06:39.919Z</time></trkpt><trkpt lat="45.6775109" lon="10.4120106"><ele>328.5</ele><time>2026-04-25T14:06:41.246Z</time></trkpt><trkpt lat="45.6772299" lon="10.4121799"><ele>353.0</ele><time>2026-04-25T14:06:42.929Z</time></trkpt><trkpt lat="45.6770564" lon="10.4122924"><ele>356.0</ele><time>2026-04-25T14:06:43.959Z</time></trkpt><trkpt lat="45.6768917" lon="10.4123855"><ele>359.0</ele><time>2026-04-25T14:06:44.923Z</time></trkpt><trkpt lat="45.676764" lon="10.4124517"><ele>362.0</ele><time>2026-04-25T14:06:45.937Z</time></trkpt><trkpt lat="45.6765981" lon="10.4125179"><ele>362.0</ele><time>2026-04-25T14:06:46.916Z</time></trkpt><trkpt lat="45.6763952" lon="10.4125892"><ele>362.0</ele><time>2026-04-25T14:06:47.942Z</time></trkpt><trkpt lat="45.6761988" lon="10.4126438"><ele>362.0</ele><time>2026-04-25T14:06:48.921Z</time></trkpt><trkpt lat="45.6760208" lon="10.412665"><ele>304.0</ele><time>2026-04-25T14:06:49.866Z</time></trkpt><trkpt lat="45.6779216" lon="10.411742"><ele>302.0</ele><time>2026-04-25T14:06:50.802Z</time></trkpt><trkpt lat="45.6712204" lon="10.4110657"><ele>300.6666666666667</ele><time>2026-04-25T14:07:16.744Z</time></trkpt><trkpt lat="45.6710768" lon="10.4109973"><ele>299.3333333333333</ele><time>2026-04-25T14:07:17.743Z</time></trkpt><trkpt lat="45.6709114" lon="10.4109281"><ele>298.0</ele><time>2026-04-25T14:07:18.744Z</time></trkpt><trkpt lat="45.6706292" lon="10.4108355"><ele>298.0</ele><time>2026-04-25T14:07:20.971Z</time></trkpt><trkpt lat="45.6704052" lon="10.4107726"><ele>298.0</ele><time>2026-04-25T14:07:21.981Z</time></trkpt><trkpt lat="45.6702019" lon="10.4107317"><ele>298.0</ele><time>2026-04-25T14:07:22.916Z</time></trkpt><trkpt lat="45.6700232" lon="10.4107018"><ele>299.66666666666663</ele><time>2026-04-25T14:07:23.923Z</time></trkpt><trkpt lat="45.6698496" lon="10.4106827"><ele>301.3333333333333</ele><time>2026-04-25T14:07:24.875Z</time></trkpt><trkpt lat="45.6696591" lon="10.4106761"><ele>303.0</ele><time>2026-04-25T14:07:25.919Z</time></trkpt><trkpt lat="45.6694716" lon="10.4106847"><ele>303.3333333333333</ele><time>2026-04-25T14:07:26.924Z</time></trkpt><trkpt lat="45.6692958" lon="10.4107045"><ele>303.66666666666663</ele><time>2026-04-25T14:07:27.872Z</time></trkpt><trkpt lat="45.6691098" lon="10.4107402"><ele>304.0</ele><time>2026-04-25T14:07:28.874Z</time></trkpt><trkpt lat="45.6689181" lon="10.4107856"><ele>304.0</ele><time>2026-04-25T14:07:29.911Z</time></trkpt><trkpt lat="45.6687386" lon="10.4108412"><ele>304.0</ele><time>2026-04-25T14:07:30.895Z</time></trkpt><trkpt lat="45.6685566" lon="10.4109088"><ele>304.0</ele><time>2026-04-25T14:07:31.882Z</time></trkpt><trkpt lat="45.6683619" lon="10.4109935"><ele>302.66666666666663</ele><time>2026-04-25T14:07:32.93Z</time></trkpt><trkpt lat="45.6681851" lon="10.4110864"><ele>301.3333333333333</ele><time>2026-04-25T14:07:33.91Z</time></trkpt><trkpt lat="45.6680078" lon="10.4111965"><ele>300.0</ele><time>2026-04-25T14:07:34.924Z</time></trkpt><trkpt lat="45.6678447" lon="10.4113161"><ele>298.6666666666667</ele><time>2026-04-25T14:07:35.899Z</time></trkpt><trkpt lat="45.6676896" lon="10.4114351"><ele>297.33333333333337</ele><time>2026-04-25T14:07:36.891Z</time></trkpt><trkpt lat="45.6675375" lon="10.4115579"><ele>296.0</ele><time>2026-04-25T14:07:37.926Z</time></trkpt><trkpt lat="45.6674001" lon="10.4116806"><ele>296.0</ele><time>2026-04-25T14:07:38.893Z</time></trkpt><trkpt lat="45.667261" lon="10.4118181"><ele>296.0</ele><time>2026-04-25T14:07:39.895Z</time></trkpt><trkpt lat="45.6671204" lon="10.411975"><ele>296.0</ele><time>2026-04-25T14:07:40.917Z</time></trkpt><trkpt lat="45.6669834" lon="10.4121377"><ele>297.0</ele><time>2026-04-25T14:07:41.926Z</time></trkpt><trkpt lat="45.6668601" lon="10.4123023"><ele>298.0</ele><time>2026-04-25T14:07:42.875Z</time></trkpt><trkpt lat="45.6667357" lon="10.4124846"><ele>299.0</ele><time>2026-04-25T14:07:43.912Z</time></trkpt><trkpt lat="45.6666291" lon="10.4126601"><ele>299.0</ele><time>2026-04-25T14:07:44.878Z</time></trkpt><trkpt lat="45.6665249" lon="10.412842"><ele>299.0</ele><time>2026-04-25T14:07:45.886Z</time></trkpt><trkpt lat="45.6664261" lon="10.4130198"><ele>299.0</ele><time>2026-04-25T14:07:46.907Z</time></trkpt><trkpt lat="45.6663345" lon="10.4132019"><ele>304.33333333333337</ele><time>2026-04-25T14:07:47.904Z</time></trkpt><trkpt lat="45.6662508" lon="10.413386"><ele>309.6666666666667</ele><time>2026-04-25T14:07:48.873Z</time></trkpt><trkpt lat="45.6661337" lon="10.4136472"><ele>315.0</ele><time>2026-04-25T14:07:50.212Z</time></trkpt><trkpt lat="45.6659966" lon="10.4140116"><ele>317.6666666666667</ele><time>2026-04-25T14:07:51.944Z</time></trkpt><trkpt lat="45.6659291" lon="10.4142002"><ele>320.33333333333337</ele><time>2026-04-25T14:07:52.948Z</time></trkpt><trkpt lat="45.6658522" lon="10.4144007"><ele>323.0</ele><time>2026-04-25T14:07:53.951Z</time></trkpt><trkpt lat="45.6657757" lon="10.4145942"><ele>326.33333333333337</ele><time>2026-04-25T14:07:54.946Z</time></trkpt><trkpt lat="45.6656903" lon="10.4147977"><ele>329.6666666666667</ele><time>2026-04-25T14:07:55.953Z</time></trkpt><trkpt lat="45.6656089" lon="10.4149844"><ele>333.0</ele><time>2026-04-25T14:07:56.949Z</time></trkpt><trkpt lat="45.6655164" lon="10.4151743"><ele>333.0</ele><time>2026-04-25T14:07:57.957Z</time></trkpt><trkpt lat="45.6654372" lon="10.4153427"><ele>333.0</ele><time>2026-04-25T14:07:58.933Z</time></trkpt><trkpt lat="45.6653697" lon="10.4155179"><ele>333.0</ele><time>2026-04-25T14:07:59.842Z</time></trkpt><trkpt lat="45.6653019" lon="10.4156908"><ele>333.0</ele><time>2026-04-25T14:08:00.827Z</time></trkpt><trkpt lat="45.6652367" lon="10.4158559"><ele>315.0</ele><time>2026-04-25T14:08:01.812Z</time></trkpt><trkpt lat="45.6662933" lon="10.4133712"><ele>291.0</ele><time>2026-04-25T14:08:02.796Z</time></trkpt><trkpt lat="45.6624551" lon="10.4239852"><ele>291.0</ele><time>2026-04-25T14:08:33.745Z</time></trkpt><trkpt lat="45.66234" lon="10.4241661"><ele>291.0</ele><time>2026-04-25T14:08:34.745Z</time></trkpt><trkpt lat="45.6622369" lon="10.424334"><ele>291.0</ele><time>2026-04-25T14:08:35.745Z</time></trkpt><trkpt lat="45.6620969" lon="10.4245472"><ele>289.25</ele><time>2026-04-25T14:08:37.996Z</time></trkpt><trkpt lat="45.6619852" lon="10.4246786"><ele>287.5</ele><time>2026-04-25T14:08:38.965Z</time></trkpt><trkpt lat="45.6618801" lon="10.4247691"><ele>285.75</ele><time>2026-04-25T14:08:39.884Z</time></trkpt><trkpt lat="45.6617855" lon="10.4248143"><ele>284.0</ele><time>2026-04-25T14:08:40.884Z</time></trkpt><trkpt lat="45.661677" lon="10.4248354"><ele>284.0</ele><time>2026-04-25T14:08:41.923Z</time></trkpt><trkpt lat="45.6615701" lon="10.4248208"><ele>284.0</ele><time>2026-04-25T14:08:42.904Z</time></trkpt><trkpt lat="45.6614589" lon="10.4247688"><ele>284.0</ele><time>2026-04-25T14:08:43.88Z</time></trkpt><trkpt lat="45.6613492" lon="10.4246833"><ele>284.0</ele><time>2026-04-25T14:08:44.908Z</time></trkpt><trkpt lat="45.6612471" lon="10.4245707"><ele>284.25</ele><time>2026-04-25T14:08:45.923Z</time></trkpt><trkpt lat="45.6611538" lon="10.4244377"><ele>284.5</ele><time>2026-04-25T14:08:46.919Z</time></trkpt><trkpt lat="45.661063" lon="10.4242918"><ele>284.75</ele><time>2026-04-25T14:08:47.923Z</time></trkpt><trkpt lat="45.6609663" lon="10.4241603"><ele>285.0</ele><time>2026-04-25T14:08:48.885Z</time></trkpt><trkpt lat="45.6608452" lon="10.4240338"><ele>283.6666666666667</ele><time>2026-04-25T14:08:49.881Z</time></trkpt><trkpt lat="45.6607028" lon="10.4239262"><ele>282.33333333333337</ele><time>2026-04-25T14:08:50.898Z</time></trkpt><trkpt lat="45.6605487" lon="10.4238465"><ele>281.0</ele><time>2026-04-25T14:08:51.908Z</time></trkpt><trkpt lat="45.660391" lon="10.4237984"><ele>280.33333333333337</ele><time>2026-04-25T14:08:52.886Z</time></trkpt><trkpt lat="45.6602303" lon="10.4237839"><ele>279.6666666666667</ele><time>2026-04-25T14:08:53.874Z</time></trkpt><trkpt lat="45.6600687" lon="10.4237957"><ele>279.0</ele><time>2026-04-25T14:08:54.874Z</time></trkpt><trkpt lat="45.6598973" lon="10.4238197"><ele>277.6666666666667</ele><time>2026-04-25T14:08:55.906Z</time></trkpt><trkpt lat="45.659731" lon="10.4238435"><ele>276.33333333333337</ele><time>2026-04-25T14:08:56.903Z</time></trkpt><trkpt lat="45.659563" lon="10.4238643"><ele>275.0</ele><time>2026-04-25T14:08:57.905Z</time></trkpt><trkpt lat="45.6593934" lon="10.4238772"><ele>275.0</ele><time>2026-04-25T14:08:58.893Z</time></trkpt><trkpt lat="45.6592148" lon="10.4238819"><ele>275.0</ele><time>2026-04-25T14:08:59.904Z</time></trkpt><trkpt lat="45.6590367" lon="10.4238767"><ele>275.0</ele><time>2026-04-25T14:09:00.891Z</time></trkpt><trkpt lat="45.6588622" lon="10.4238646"><ele>275.0</ele><time>2026-04-25T14:09:01.883Z</time></trkpt><trkpt lat="45.6586933" lon="10.4238516"><ele>275.0</ele><time>2026-04-25T14:09:02.873Z</time></trkpt><trkpt lat="45.6585302" lon="10.4238377"><ele>275.0</ele><time>2026-04-25T14:09:03.883Z</time></trkpt><trkpt lat="45.6583852" lon="10.4238365"><ele>274.8</ele><time>2026-04-25T14:09:04.877Z</time></trkpt><trkpt lat="45.658257" lon="10.4238287"><ele>274.6</ele><time>2026-04-25T14:09:05.88Z</time></trkpt><trkpt lat="45.6581531" lon="10.4238006"><ele>274.4</ele><time>2026-04-25T14:09:06.898Z</time></trkpt><trkpt lat="45.6580697" lon="10.4237525"><ele>274.2</ele><time>2026-04-25T14:09:07.885Z</time></trkpt><trkpt lat="45.6579973" lon="10.4236755"><ele>274.0</ele><time>2026-04-25T14:09:08.897Z</time></trkpt><trkpt lat="45.6579302" lon="10.4235922"><ele>274.16666666666663</ele><time>2026-04-25T14:09:09.891Z</time></trkpt><trkpt lat="45.6578563" lon="10.4235373"><ele>274.3333333333333</ele><time>2026-04-25T14:09:10.874Z</time></trkpt><trkpt lat="45.6577778" lon="10.4235227"><ele>274.5</ele><time>2026-04-25T14:09:11.897Z</time></trkpt><trkpt lat="45.6577087" lon="10.4235561"><ele>274.6666666666667</ele><time>2026-04-25T14:09:12.878Z</time></trkpt><trkpt lat="45.657652" lon="10.4236333"><ele>274.83333333333337</ele><time>2026-04-25T14:09:13.912Z</time></trkpt><trkpt lat="45.657621" lon="10.42375"><ele>275.0</ele><time>2026-04-25T14:09:14.904Z</time></trkpt><trkpt lat="45.657606" lon="10.4238858"><ele>274.5</ele><time>2026-04-25T14:09:15.885Z</time></trkpt><trkpt lat="45.6575799" lon="10.4240511"><ele>274.0</ele><time>2026-04-25T14:09:16.927Z</time></trkpt><trkpt lat="45.6575579" lon="10.4242092"><ele>273.5</ele><time>2026-04-25T14:09:17.882Z</time></trkpt><trkpt lat="45.6575254" lon="10.4244035"><ele>273.0</ele><time>2026-04-25T14:09:18.921Z</time></trkpt><trkpt lat="45.6574933" lon="10.424601"><ele>272.3333333333333</ele><time>2026-04-25T14:09:19.906Z</time></trkpt><trkpt lat="45.6574539" lon="10.4248133"><ele>271.66666666666663</ele><time>2026-04-25T14:09:20.919Z</time></trkpt><trkpt lat="45.6574021" lon="10.4250245"><ele>271.0</ele><time>2026-04-25T14:09:21.916Z</time></trkpt><trkpt lat="45.6573316" lon="10.425237"><ele>271.0</ele><time>2026-04-25T14:09:22.915Z</time></trkpt><trkpt lat="45.6572374" lon="10.4254483"><ele>271.0</ele><time>2026-04-25T14:09:23.913Z</time></trkpt><trkpt lat="45.6571298" lon="10.4256472"><ele>271.0</ele><time>2026-04-25T14:09:24.874Z</time></trkpt><trkpt lat="45.6570009" lon="10.42584"><ele>272.5</ele><time>2026-04-25T14:09:25.897Z</time></trkpt><trkpt lat="45.6568296" lon="10.4260563"><ele>274.0</ele><time>2026-04-25T14:09:27.236Z</time></trkpt><trkpt lat="45.6565905" lon="10.4262857"><ele>280.0</ele><time>2026-04-25T14:09:28.927Z</time></trkpt><trkpt lat="45.6564502" lon="10.4264334"><ele>286.0</ele><time>2026-04-25T14:09:29.937Z</time></trkpt><trkpt lat="45.6563098" lon="10.4265788"><ele>292.0</ele><time>2026-04-25T14:09:30.925Z</time></trkpt><trkpt lat="45.656158" lon="10.4267344"><ele>288.66666666666663</ele><time>2026-04-25T14:09:31.975Z</time></trkpt><trkpt lat="45.6560116" lon="10.4268843"><ele>285.3333333333333</ele><time>2026-04-25T14:09:32.979Z</time></trkpt><trkpt lat="45.6558732" lon="10.4270213"><ele>282.0</ele><time>2026-04-25T14:09:33.933Z</time></trkpt><trkpt lat="45.6557286" lon="10.4271564"><ele>282.0</ele><time>2026-04-25T14:09:34.934Z</time></trkpt><trkpt lat="45.6555839" lon="10.4272857"><ele>282.0</ele><time>2026-04-25T14:09:35.961Z</time></trkpt><trkpt lat="45.655451" lon="10.4273992"><ele>282.0</ele><time>2026-04-25T14:09:36.941Z</time></trkpt><trkpt lat="45.6553198" lon="10.4275045"><ele>279.0</ele><time>2026-04-25T14:09:37.939Z</time></trkpt><trkpt lat="45.6551938" lon="10.4275987"><ele>276.0</ele><time>2026-04-25T14:09:38.953Z</time></trkpt><trkpt lat="45.655081" lon="10.4276775"><ele>273.0</ele><time>2026-04-25T14:09:39.942Z</time></trkpt><trkpt lat="45.6549753" lon="10.4277458"><ele>270.0</ele><time>2026-04-25T14:09:40.971Z</time></trkpt><trkpt lat="45.6548778" lon="10.4278026"><ele>270.0</ele><time>2026-04-25T14:09:41.984Z</time></trkpt><trkpt lat="45.6547844" lon="10.4278479"><ele>270.0</ele><time>2026-04-25T14:09:42.941Z</time></trkpt><trkpt lat="45.6546777" lon="10.4278811"><ele>270.0</ele><time>2026-04-25T14:09:43.963Z</time></trkpt><trkpt lat="45.6545714" lon="10.4278891"><ele>270.0</ele><time>2026-04-25T14:09:44.93Z</time></trkpt><trkpt lat="45.6544581" lon="10.4278749"><ele>270.0</ele><time>2026-04-25T14:09:45.934Z</time></trkpt><trkpt lat="45.6543525" lon="10.4278281"><ele>269.25</ele><time>2026-04-25T14:09:46.931Z</time></trkpt><trkpt lat="45.6542596" lon="10.4277401"><ele>268.5</ele><time>2026-04-25T14:09:47.942Z</time></trkpt><trkpt lat="45.6541862" lon="10.4276164"><ele>267.75</ele><time>2026-04-25T14:09:48.933Z</time></trkpt><trkpt lat="45.6541128" lon="10.4274566"><ele>267.0</ele><time>2026-04-25T14:09:49.96Z</time></trkpt><trkpt lat="45.6540394" lon="10.4272901"><ele>268.0</ele><time>2026-04-25T14:09:50.934Z</time></trkpt><trkpt lat="45.6539583" lon="10.4271084"><ele>269.0</ele><time>2026-04-25T14:09:51.96Z</time></trkpt><trkpt lat="45.6538799" lon="10.4269324"><ele>270.0</ele><time>2026-04-25T14:09:52.94Z</time></trkpt><trkpt lat="45.653799" lon="10.4267463"><ele>270.0</ele><time>2026-04-25T14:09:53.971Z</time></trkpt><trkpt lat="45.6537194" lon="10.4265666"><ele>270.0</ele><time>2026-04-25T14:09:54.958Z</time></trkpt><trkpt lat="45.6536435" lon="10.426395"><ele>270.0</ele><time>2026-04-25T14:09:55.953Z</time></trkpt><trkpt lat="45.6535664" lon="10.4262179"><ele>270.0</ele><time>2026-04-25T14:09:56.98Z</time></trkpt><trkpt lat="45.653492" lon="10.4260434"><ele>273.0</ele><time>2026-04-25T14:09:57.976Z</time></trkpt><trkpt lat="45.653347" lon="10.4256899"><ele>276.0</ele><time>2026-04-25T14:09:59.897Z</time></trkpt><trkpt lat="45.6532717" lon="10.4255015"><ele>279.0</ele><time>2026-04-25T14:10:00.891Z</time></trkpt><trkpt lat="45.6532002" lon="10.4253014"><ele>280.3333333333333</ele><time>2026-04-25T14:10:01.901Z</time></trkpt><trkpt lat="45.6531216" lon="10.4250816"><ele>281.66666666666663</ele><time>2026-04-25T14:10:02.912Z</time></trkpt><trkpt lat="45.6530492" lon="10.424862"><ele>283.0</ele><time>2026-04-25T14:10:03.873Z</time></trkpt><trkpt lat="45.6529691" lon="10.4246254"><ele>284.3333333333333</ele><time>2026-04-25T14:10:04.87Z</time></trkpt><trkpt lat="45.6528872" lon="10.4243863"><ele>285.6666666666667</ele><time>2026-04-25T14:10:05.871Z</time></trkpt><trkpt lat="45.652804" lon="10.4241157"><ele>287.0</ele><time>2026-04-25T14:10:06.872Z</time></trkpt><trkpt lat="45.6527161" lon="10.4238545"><ele>288.6666666666667</ele><time>2026-04-25T14:10:07.873Z</time></trkpt><trkpt lat="45.6526278" lon="10.4235808"><ele>290.3333333333333</ele><time>2026-04-25T14:10:08.88Z</time></trkpt><trkpt lat="45.6525383" lon="10.4233195"><ele>292.0</ele><time>2026-04-25T14:10:09.873Z</time></trkpt><trkpt lat="45.652447" lon="10.4230699"><ele>290.66666666666663</ele><time>2026-04-25T14:10:10.89Z</time></trkpt><trkpt lat="45.6523653" lon="10.422842"><ele>289.3333333333333</ele><time>2026-04-25T14:10:11.897Z</time></trkpt><trkpt lat="45.6522939" lon="10.4226284"><ele>288.0</ele><time>2026-04-25T14:10:12.911Z</time></trkpt><trkpt lat="45.652231" lon="10.422433"><ele>288.0</ele><time>2026-04-25T14:10:13.88Z</time></trkpt><trkpt lat="45.6521689" lon="10.4222361"><ele>288.0</ele><time>2026-04-25T14:10:14.914Z</time></trkpt><trkpt lat="45.6521026" lon="10.4220505"><ele>288.0</ele><time>2026-04-25T14:10:15.911Z</time></trkpt><trkpt lat="45.6520393" lon="10.4218644"><ele>288.0</ele><time>2026-04-25T14:10:16.906Z</time></trkpt><trkpt lat="45.6519769" lon="10.4216758"><ele>286.3333333333333</ele><time>2026-04-25T14:10:17.878Z</time></trkpt><trkpt lat="45.6519115" lon="10.4214813"><ele>284.66666666666663</ele><time>2026-04-25T14:10:18.875Z</time></trkpt><trkpt lat="45.6518425" lon="10.4212725"><ele>283.0</ele><time>2026-04-25T14:10:19.916Z</time></trkpt><trkpt lat="45.6517729" lon="10.4210679"><ele>283.0</ele><time>2026-04-25T14:10:20.907Z</time></trkpt><trkpt lat="45.6517015" lon="10.4208562"><ele>283.0</ele><time>2026-04-25T14:10:21.916Z</time></trkpt><trkpt lat="45.6516305" lon="10.4206414"><ele>283.0</ele><time>2026-04-25T14:10:22.913Z</time></trkpt><trkpt lat="45.6515608" lon="10.4204349"><ele>287.0</ele><time>2026-04-25T14:10:23.878Z</time></trkpt><trkpt lat="45.6514908" lon="10.4202253"><ele>291.0</ele><time>2026-04-25T14:10:24.901Z</time></trkpt><trkpt lat="45.6514289" lon="10.4200276"><ele>295.0</ele><time>2026-04-25T14:10:25.928Z</time></trkpt><trkpt lat="45.6513689" lon="10.4198387"><ele>295.0</ele><time>2026-04-25T14:10:26.899Z</time></trkpt><trkpt lat="45.6513057" lon="10.4196503"><ele>295.0</ele><time>2026-04-25T14:10:27.883Z</time></trkpt><trkpt lat="45.6512199" lon="10.4193994"><ele>295.0</ele><time>2026-04-25T14:10:29.254Z</time></trkpt><trkpt lat="45.6511226" lon="10.4190957"><ele>297.25</ele><time>2026-04-25T14:10:30.934Z</time></trkpt><trkpt lat="45.651061" lon="10.4189127"><ele>299.5</ele><time>2026-04-25T14:10:31.943Z</time></trkpt><trkpt lat="45.6509994" lon="10.4187247"><ele>301.75</ele><time>2026-04-25T14:10:32.941Z</time></trkpt><trkpt lat="45.6509399" lon="10.4185427"><ele>304.0</ele><time>2026-04-25T14:10:33.928Z</time></trkpt><trkpt lat="45.6508937" lon="10.4184052"><ele>304.0</ele><time>2026-04-25T14:10:34.927Z</time></trkpt><trkpt lat="45.6508406" lon="10.4182663"><ele>304.0</ele><time>2026-04-25T14:10:35.958Z</time></trkpt><trkpt lat="45.6507905" lon="10.4181019"><ele>304.0</ele><time>2026-04-25T14:10:36.949Z</time></trkpt><trkpt lat="45.6507352" lon="10.4179353"><ele>304.0</ele><time>2026-04-25T14:10:37.938Z</time></trkpt><trkpt lat="45.6506746" lon="10.4177537"><ele>300.3333333333333</ele><time>2026-04-25T14:10:38.904Z</time></trkpt><trkpt lat="45.6505988" lon="10.4175247"><ele>296.6666666666667</ele><time>2026-04-25T14:10:39.92Z</time></trkpt><trkpt lat="45.6505399" lon="10.4173933"><ele>293.0</ele><time>2026-04-25T14:10:40.909Z</time></trkpt><trkpt lat="45.6504659" lon="10.4171617"><ele>292.6666666666667</ele><time>2026-04-25T14:10:41.944Z</time></trkpt><trkpt lat="45.6504022" lon="10.4169705"><ele>292.3333333333333</ele><time>2026-04-25T14:10:42.955Z</time></trkpt><trkpt lat="45.6503361" lon="10.4167781"><ele>292.0</ele><time>2026-04-25T14:10:43.94Z</time></trkpt><trkpt lat="45.6502665" lon="10.4165799"><ele>292.0</ele><time>2026-04-25T14:10:44.943Z</time></trkpt><trkpt lat="45.6501931" lon="10.416369"><ele>292.0</ele><time>2026-04-25T14:10:45.984Z</time></trkpt><trkpt lat="45.6501237" lon="10.4161664"><ele>292.0</ele><time>2026-04-25T14:10:46.964Z</time></trkpt><trkpt lat="45.650057" lon="10.4159648"><ele>290.3333333333333</ele><time>2026-04-25T14:10:47.925Z</time></trkpt><trkpt lat="45.6499872" lon="10.4157517"><ele>288.6666666666667</ele><time>2026-04-25T14:10:48.916Z</time></trkpt><trkpt lat="45.6499152" lon="10.4155218"><ele>287.0</ele><time>2026-04-25T14:10:49.945Z</time></trkpt><trkpt lat="45.6498569" lon="10.4153106"><ele>287.0</ele><time>2026-04-25T14:10:50.878Z</time></trkpt><trkpt lat="45.649797" lon="10.4150679"><ele>287.0</ele><time>2026-04-25T14:10:51.907Z</time></trkpt><trkpt lat="45.6497446" lon="10.4148134"><ele>287.0</ele><time>2026-04-25T14:10:52.931Z</time></trkpt><trkpt lat="45.649701" lon="10.4145719"><ele>289.6666666666667</ele><time>2026-04-25T14:10:53.896Z</time></trkpt><trkpt lat="45.649666" lon="10.414333"><ele>292.3333333333333</ele><time>2026-04-25T14:10:54.9Z</time></trkpt><trkpt lat="45.6496365" lon="10.4140899"><ele>295.0</ele><time>2026-04-25T14:10:55.918Z</time></trkpt><trkpt lat="45.6496116" lon="10.4138557"><ele>296.3333333333333</ele><time>2026-04-25T14:10:56.907Z</time></trkpt><trkpt lat="45.6495917" lon="10.4136067"><ele>297.6666666666667</ele><time>2026-04-25T14:10:57.916Z</time></trkpt><trkpt lat="45.6495789" lon="10.4133523"><ele>299.0</ele><time>2026-04-25T14:10:58.922Z</time></trkpt><trkpt lat="45.6495726" lon="10.4131001"><ele>299.0</ele><time>2026-04-25T14:10:59.924Z</time></trkpt><trkpt lat="45.649576" lon="10.412849"><ele>299.0</ele><time>2026-04-25T14:11:00.886Z</time></trkpt><trkpt lat="45.6495859" lon="10.4125861"><ele>299.0</ele><time>2026-04-25T14:11:01.881Z</time></trkpt><trkpt lat="45.6496071" lon="10.4123164"><ele>299.0</ele><time>2026-04-25T14:11:02.929Z</time></trkpt><trkpt lat="45.6496322" lon="10.412085"><ele>299.0</ele><time>2026-04-25T14:11:03.859Z</time></trkpt><trkpt lat="45.6496681" lon="10.411834"><ele>299.0</ele><time>2026-04-25T14:11:04.883Z</time></trkpt><trkpt lat="45.649706" lon="10.4115904"><ele>299.0</ele><time>2026-04-25T14:11:05.913Z</time></trkpt><trkpt lat="45.6497498" lon="10.4113595"><ele>299.0</ele><time>2026-04-25T14:11:06.899Z</time></trkpt><trkpt lat="45.6497994" lon="10.4111212"><ele>299.0</ele><time>2026-04-25T14:11:07.901Z</time></trkpt><trkpt lat="45.6498588" lon="10.4108798"><ele>298.0</ele><time>2026-04-25T14:11:08.92Z</time></trkpt><trkpt lat="45.6499204" lon="10.4106482"><ele>297.0</ele><time>2026-04-25T14:11:09.9Z</time></trkpt><trkpt lat="45.6499911" lon="10.4104148"><ele>296.0</ele><time>2026-04-25T14:11:10.899Z</time></trkpt><trkpt lat="45.6500637" lon="10.4101873"><ele>296.0</ele><time>2026-04-25T14:11:11.883Z</time></trkpt><trkpt lat="45.6501414" lon="10.409958"><ele>296.0</ele><time>2026-04-25T14:11:12.907Z</time></trkpt><trkpt lat="45.6502163" lon="10.4097361"><ele>296.0</ele><time>2026-04-25T14:11:13.891Z</time></trkpt><trkpt lat="45.6502923" lon="10.409503"><ele>297.33333333333337</ele><time>2026-04-25T14:11:14.909Z</time></trkpt><trkpt lat="45.6503713" lon="10.409266"><ele>298.6666666666667</ele><time>2026-04-25T14:11:15.923Z</time></trkpt><trkpt lat="45.650451" lon="10.4090271"><ele>300.0</ele><time>2026-04-25T14:11:16.925Z</time></trkpt><trkpt lat="45.6505283" lon="10.4087842"><ele>300.0</ele><time>2026-04-25T14:11:17.913Z</time></trkpt><trkpt lat="45.6506082" lon="10.4085404"><ele>300.0</ele><time>2026-04-25T14:11:18.909Z</time></trkpt><trkpt lat="45.6506955" lon="10.4082945"><ele>300.0</ele><time>2026-04-25T14:11:19.915Z</time></trkpt><trkpt lat="45.6507771" lon="10.4080622"><ele>299.0</ele><time>2026-04-25T14:11:20.865Z</time></trkpt><trkpt lat="45.6508666" lon="10.4078113"><ele>298.0</ele><time>2026-04-25T14:11:21.885Z</time></trkpt><trkpt lat="45.6509534" lon="10.4075546"><ele>297.0</ele><time>2026-04-25T14:11:22.909Z</time></trkpt><trkpt lat="45.6510374" lon="10.4073106"><ele>297.0</ele><time>2026-04-25T14:11:23.88Z</time></trkpt><trkpt lat="45.651121" lon="10.4070522"><ele>297.0</ele><time>2026-04-25T14:11:24.877Z</time></trkpt><trkpt lat="45.6512095" lon="10.4067819"><ele>297.0</ele><time>2026-04-25T14:11:25.896Z</time></trkpt><trkpt lat="45.6512951" lon="10.4065211"><ele>298.0</ele><time>2026-04-25T14:11:26.899Z</time></trkpt><trkpt lat="45.6513736" lon="10.4062738"><ele>299.0</ele><time>2026-04-25T14:11:27.863Z</time></trkpt><trkpt lat="45.6514611" lon="10.4060062"><ele>300.0</ele><time>2026-04-25T14:11:28.912Z</time></trkpt><trkpt lat="45.6515419" lon="10.4057614"><ele>300.0</ele><time>2026-04-25T14:11:29.885Z</time></trkpt><trkpt lat="45.6516282" lon="10.4055068"><ele>300.0</ele><time>2026-04-25T14:11:30.889Z</time></trkpt><trkpt lat="45.6517185" lon="10.4052446"><ele>300.0</ele><time>2026-04-25T14:11:31.917Z</time></trkpt><trkpt lat="45.6518038" lon="10.40499"><ele>300.3333333333333</ele><time>2026-04-25T14:11:32.919Z</time></trkpt><trkpt lat="45.6518813" lon="10.4047473"><ele>300.66666666666663</ele><time>2026-04-25T14:11:33.884Z</time></trkpt><trkpt lat="45.6519659" lon="10.4044888"><ele>301.0</ele><time>2026-04-25T14:11:34.91Z</time></trkpt><trkpt lat="45.6520487" lon="10.4042431"><ele>302.66666666666663</ele><time>2026-04-25T14:11:35.911Z</time></trkpt><trkpt lat="45.6521326" lon="10.4039901"><ele>304.3333333333333</ele><time>2026-04-25T14:11:36.924Z</time></trkpt><trkpt lat="45.6522159" lon="10.4037412"><ele>306.0</ele><time>2026-04-25T14:11:37.896Z</time></trkpt><trkpt lat="45.6522962" lon="10.4034815"><ele>306.0</ele><time>2026-04-25T14:11:38.876Z</time></trkpt><trkpt lat="45.652386" lon="10.4031886"><ele>306.0</ele><time>2026-04-25T14:11:39.906Z</time></trkpt><trkpt lat="45.6524788" lon="10.4028962"><ele>306.0</ele><time>2026-04-25T14:11:40.863Z</time></trkpt><trkpt lat="45.6525938" lon="10.4025556"><ele>305.0</ele><time>2026-04-25T14:11:41.883Z</time></trkpt><trkpt lat="45.6527183" lon="10.4021893"><ele>304.0</ele><time>2026-04-25T14:11:42.896Z</time></trkpt><trkpt lat="45.6528499" lon="10.4017989"><ele>305.0</ele><time>2026-04-25T14:11:43.906Z</time></trkpt><trkpt lat="45.6529887" lon="10.4013824"><ele>306.0</ele><time>2026-04-25T14:11:44.899Z</time></trkpt><trkpt lat="45.653131" lon="10.4009797"><ele>306.0</ele><time>2026-04-25T14:11:45.897Z</time></trkpt><trkpt lat="45.6532689" lon="10.4005897"><ele>306.0</ele><time>2026-04-25T14:11:46.916Z</time></trkpt><trkpt lat="45.6533872" lon="10.40023"><ele>305.5</ele><time>2026-04-25T14:11:47.914Z</time></trkpt><trkpt lat="45.653495" lon="10.3999041"><ele>305.0</ele><time>2026-04-25T14:11:48.891Z</time></trkpt><trkpt lat="45.6535974" lon="10.3995903"><ele>305.6666666666667</ele><time>2026-04-25T14:11:49.891Z</time></trkpt><trkpt lat="45.6536964" lon="10.3993002"><ele>306.3333333333333</ele><time>2026-04-25T14:11:50.884Z</time></trkpt><trkpt lat="45.6537916" lon="10.3990194"><ele>307.0</ele><time>2026-04-25T14:11:51.909Z</time></trkpt><trkpt lat="45.6538787" lon="10.3987599"><ele>307.0</ele><time>2026-04-25T14:11:52.915Z</time></trkpt><trkpt lat="45.6539623" lon="10.3985062"><ele>307.0</ele><time>2026-04-25T14:11:53.896Z</time></trkpt><trkpt lat="45.6540465" lon="10.3982511"><ele>307.0</ele><time>2026-04-25T14:11:54.908Z</time></trkpt><trkpt lat="45.6541277" lon="10.3980157"><ele>306.3333333333333</ele><time>2026-04-25T14:11:55.877Z</time></trkpt><trkpt lat="45.6542107" lon="10.3977771"><ele>305.6666666666667</ele><time>2026-04-25T14:11:56.901Z</time></trkpt><trkpt lat="45.6542874" lon="10.3975589"><ele>305.0</ele><time>2026-04-25T14:11:57.925Z</time></trkpt><trkpt lat="45.6543552" lon="10.3973573"><ele>305.0</ele><time>2026-04-25T14:11:58.915Z</time></trkpt><trkpt lat="45.654419" lon="10.3971499"><ele>305.0</ele><time>2026-04-25T14:11:59.897Z</time></trkpt><trkpt lat="45.6544762" lon="10.3969425"><ele>305.0</ele><time>2026-04-25T14:12:00.891Z</time></trkpt><trkpt lat="45.6545339" lon="10.396717"><ele>306.33333333333337</ele><time>2026-04-25T14:12:01.911Z</time></trkpt><trkpt lat="45.6545864" lon="10.3964876"><ele>307.6666666666667</ele><time>2026-04-25T14:12:02.884Z</time></trkpt><trkpt lat="45.6546415" lon="10.3962441"><ele>309.0</ele><time>2026-04-25T14:12:03.872Z</time></trkpt><trkpt lat="45.6546993" lon="10.3959734"><ele>309.0</ele><time>2026-04-25T14:12:04.906Z</time></trkpt><trkpt lat="45.6547496" lon="10.3957061"><ele>309.0</ele><time>2026-04-25T14:12:05.9Z</time></trkpt><trkpt lat="45.6547947" lon="10.3954277"><ele>309.0</ele><time>2026-04-25T14:12:06.901Z</time></trkpt><trkpt lat="45.6548335" lon="10.3951438"><ele>308.6666666666667</ele><time>2026-04-25T14:12:07.884Z</time></trkpt><trkpt lat="45.6548678" lon="10.394839"><ele>308.33333333333337</ele><time>2026-04-25T14:12:08.921Z</time></trkpt><trkpt lat="45.654893" lon="10.3945661"><ele>308.0</ele><time>2026-04-25T14:12:09.876Z</time></trkpt><trkpt lat="45.6549151" lon="10.3942848"><ele>308.0</ele><time>2026-04-25T14:12:10.88Z</time></trkpt><trkpt lat="45.6549349" lon="10.3939924"><ele>308.0</ele><time>2026-04-25T14:12:11.905Z</time></trkpt><trkpt lat="45.654947" lon="10.3936914"><ele>308.0</ele><time>2026-04-25T14:12:12.915Z</time></trkpt><trkpt lat="45.654953" lon="10.393386"><ele>308.6666666666667</ele><time>2026-04-25T14:12:13.91Z</time></trkpt><trkpt lat="45.6549519" lon="10.3930858"><ele>309.3333333333333</ele><time>2026-04-25T14:12:14.875Z</time></trkpt><trkpt lat="45.6549435" lon="10.3927521"><ele>310.0</ele><time>2026-04-25T14:12:15.913Z</time></trkpt><trkpt lat="45.6549274" lon="10.3924188"><ele>311.0</ele><time>2026-04-25T14:12:16.879Z</time></trkpt><trkpt lat="45.6549284" lon="10.3920418"><ele>312.0</ele><time>2026-04-25T14:12:17.914Z</time></trkpt><trkpt lat="45.6549368" lon="10.391658"><ele>310.5</ele><time>2026-04-25T14:12:18.917Z</time></trkpt><trkpt lat="45.6549405" lon="10.3912638"><ele>309.0</ele><time>2026-04-25T14:12:19.911Z</time></trkpt><trkpt lat="45.6549354" lon="10.3908805"><ele>309.5</ele><time>2026-04-25T14:12:20.878Z</time></trkpt><trkpt lat="45.6549308" lon="10.3905039"><ele>310.0</ele><time>2026-04-25T14:12:21.887Z</time></trkpt><trkpt lat="45.6549277" lon="10.3901569"><ele>310.0</ele><time>2026-04-25T14:12:22.883Z</time></trkpt><trkpt lat="45.6549267" lon="10.3898123"><ele>310.0</ele><time>2026-04-25T14:12:23.923Z</time></trkpt><trkpt lat="45.6549244" lon="10.3895085"><ele>309.3333333333333</ele><time>2026-04-25T14:12:24.898Z</time></trkpt><trkpt lat="45.6549198" lon="10.3892094"><ele>308.6666666666667</ele><time>2026-04-25T14:12:25.886Z</time></trkpt><trkpt lat="45.6549155" lon="10.3888987"><ele>308.0</ele><time>2026-04-25T14:12:26.916Z</time></trkpt><trkpt lat="45.6549108" lon="10.388605"><ele>308.0</ele><time>2026-04-25T14:12:27.903Z</time></trkpt><trkpt lat="45.6549094" lon="10.3883166"><ele>308.0</ele><time>2026-04-25T14:12:28.884Z</time></trkpt><trkpt lat="45.6549046" lon="10.3880331"><ele>308.0</ele><time>2026-04-25T14:12:29.881Z</time></trkpt><trkpt lat="45.6549032" lon="10.3877557"><ele>308.0</ele><time>2026-04-25T14:12:30.897Z</time></trkpt><trkpt lat="45.6549026" lon="10.3874934"><ele>308.0</ele><time>2026-04-25T14:12:31.919Z</time></trkpt><trkpt lat="45.6549035" lon="10.3872576"><ele>308.0</ele><time>2026-04-25T14:12:32.907Z</time></trkpt><trkpt lat="45.654906" lon="10.3870294"><ele>308.33333333333337</ele><time>2026-04-25T14:12:33.9Z</time></trkpt><trkpt lat="45.6549031" lon="10.3867973"><ele>308.6666666666667</ele><time>2026-04-25T14:12:34.902Z</time></trkpt><trkpt lat="45.6549009" lon="10.3865736"><ele>309.0</ele><time>2026-04-25T14:12:35.897Z</time></trkpt><trkpt lat="45.6549" lon="10.3863556"><ele>309.0</ele><time>2026-04-25T14:12:36.903Z</time></trkpt><trkpt lat="45.6548986" lon="10.3861464"><ele>309.0</ele><time>2026-04-25T14:12:37.886Z</time></trkpt><trkpt lat="45.6549011" lon="10.3859317"><ele>309.0</ele><time>2026-04-25T14:12:38.881Z</time></trkpt><trkpt lat="45.6549081" lon="10.3857228"><ele>309.0</ele><time>2026-04-25T14:12:39.911Z</time></trkpt><trkpt lat="45.6549171" lon="10.3855259"><ele>308.75</ele><time>2026-04-25T14:12:40.926Z</time></trkpt><trkpt lat="45.6549315" lon="10.3853451"><ele>308.5</ele><time>2026-04-25T14:12:41.914Z</time></trkpt><trkpt lat="45.6549652" lon="10.3851927"><ele>308.25</ele><time>2026-04-25T14:12:42.88Z</time></trkpt><trkpt lat="45.6550171" lon="10.3850537"><ele>308.0</ele><time>2026-04-25T14:12:43.917Z</time></trkpt><trkpt lat="45.6550572" lon="10.3849209"><ele>308.0</ele><time>2026-04-25T14:12:44.906Z</time></trkpt><trkpt lat="45.6550681" lon="10.3847666"><ele>308.0</ele><time>2026-04-25T14:12:45.914Z</time></trkpt><trkpt lat="45.6550496" lon="10.3846017"><ele>308.0</ele><time>2026-04-25T14:12:46.888Z</time></trkpt><trkpt lat="45.6550116" lon="10.384419"><ele>308.0</ele><time>2026-04-25T14:12:47.895Z</time></trkpt><trkpt lat="45.6549769" lon="10.3842434"><ele>307.75</ele><time>2026-04-25T14:12:48.917Z</time></trkpt><trkpt lat="45.6549462" lon="10.3840839"><ele>307.5</ele><time>2026-04-25T14:12:49.872Z</time></trkpt><trkpt lat="45.6549163" lon="10.3838985"><ele>307.25</ele><time>2026-04-25T14:12:50.914Z</time></trkpt><trkpt lat="45.6548945" lon="10.3837032"><ele>307.0</ele><time>2026-04-25T14:12:51.914Z</time></trkpt><trkpt lat="45.65488" lon="10.383494"><ele>307.66666666666663</ele><time>2026-04-25T14:12:52.889Z</time></trkpt><trkpt lat="45.6548733" lon="10.3832649"><ele>308.3333333333333</ele><time>2026-04-25T14:12:53.897Z</time></trkpt><trkpt lat="45.6548689" lon="10.3830228"><ele>309.0</ele><time>2026-04-25T14:12:54.93Z</time></trkpt><trkpt lat="45.6548662" lon="10.3827892"><ele>309.6666666666667</ele><time>2026-04-25T14:12:55.911Z</time></trkpt><trkpt lat="45.6548641" lon="10.3825471"><ele>310.33333333333337</ele><time>2026-04-25T14:12:56.885Z</time></trkpt><trkpt lat="45.6548626" lon="10.3822894"><ele>311.0</ele><time>2026-04-25T14:12:57.908Z</time></trkpt><trkpt lat="45.6548596" lon="10.3820371"><ele>311.0</ele><time>2026-04-25T14:12:58.902Z</time></trkpt><trkpt lat="45.6548644" lon="10.3817793"><ele>311.0</ele><time>2026-04-25T14:12:59.912Z</time></trkpt><trkpt lat="45.6548749" lon="10.3815369"><ele>311.0</ele><time>2026-04-25T14:13:00.888Z</time></trkpt><trkpt lat="45.6548936" lon="10.3812936"><ele>311.0</ele><time>2026-04-25T14:13:01.883Z</time></trkpt><trkpt lat="45.6549169" lon="10.381054"><ele>311.0</ele><time>2026-04-25T14:13:02.883Z</time></trkpt><trkpt lat="45.6549471" lon="10.3808165"><ele>311.0</ele><time>2026-04-25T14:13:03.878Z</time></trkpt><trkpt lat="45.6549875" lon="10.3805746"><ele>311.6666666666667</ele><time>2026-04-25T14:13:04.901Z</time></trkpt><trkpt lat="45.655036" lon="10.3803373"><ele>312.3333333333333</ele><time>2026-04-25T14:13:05.884Z</time></trkpt><trkpt lat="45.6550946" lon="10.3800916"><ele>313.0</ele><time>2026-04-25T14:13:06.882Z</time></trkpt><trkpt lat="45.6551618" lon="10.3798408"><ele>313.3333333333333</ele><time>2026-04-25T14:13:07.899Z</time></trkpt><trkpt lat="45.6552388" lon="10.3795849"><ele>313.6666666666667</ele><time>2026-04-25T14:13:08.913Z</time></trkpt><trkpt lat="45.655317" lon="10.3793324"><ele>314.0</ele><time>2026-04-25T14:13:09.917Z</time></trkpt><trkpt lat="45.6553949" lon="10.3790769"><ele>314.6666666666667</ele><time>2026-04-25T14:13:10.907Z</time></trkpt><trkpt lat="45.6554726" lon="10.378828"><ele>315.3333333333333</ele><time>2026-04-25T14:13:11.878Z</time></trkpt><trkpt lat="45.6555541" lon="10.378564"><ele>316.0</ele><time>2026-04-25T14:13:12.899Z</time></trkpt><trkpt lat="45.6556328" lon="10.378316"><ele>316.0</ele><time>2026-04-25T14:13:13.878Z</time></trkpt><trkpt lat="45.6557138" lon="10.3780548"><ele>316.0</ele><time>2026-04-25T14:13:14.931Z</time></trkpt><trkpt lat="45.6557891" lon="10.3778143"><ele>316.0</ele><time>2026-04-25T14:13:15.925Z</time></trkpt><trkpt lat="45.6558603" lon="10.3775751"><ele>315.66666666666663</ele><time>2026-04-25T14:13:16.907Z</time></trkpt><trkpt lat="45.6559332" lon="10.3773292"><ele>315.3333333333333</ele><time>2026-04-25T14:13:17.907Z</time></trkpt><trkpt lat="45.6560027" lon="10.3770793"><ele>315.0</ele><time>2026-04-25T14:13:18.891Z</time></trkpt><trkpt lat="45.6560652" lon="10.3768249"><ele>317.6666666666667</ele><time>2026-04-25T14:13:19.893Z</time></trkpt><trkpt lat="45.6561235" lon="10.3765668"><ele>320.33333333333337</ele><time>2026-04-25T14:13:20.891Z</time></trkpt><trkpt lat="45.6561729" lon="10.3763007"><ele>323.0</ele><time>2026-04-25T14:13:21.911Z</time></trkpt><trkpt lat="45.656207" lon="10.3760407"><ele>323.0</ele><time>2026-04-25T14:13:22.914Z</time></trkpt><trkpt lat="45.6562312" lon="10.3757849"><ele>323.0</ele><time>2026-04-25T14:13:23.918Z</time></trkpt><trkpt lat="45.6562458" lon="10.3755416"><ele>323.0</ele><time>2026-04-25T14:13:24.876Z</time></trkpt><trkpt lat="45.6562543" lon="10.3752871"><ele>322.0</ele><time>2026-04-25T14:13:25.879Z</time></trkpt><trkpt lat="45.6562517" lon="10.3750275"><ele>321.0</ele><time>2026-04-25T14:13:26.902Z</time></trkpt><trkpt lat="45.656238" lon="10.3747614"><ele>320.0</ele><time>2026-04-25T14:13:27.913Z</time></trkpt><trkpt lat="45.6562169" lon="10.3744984"><ele>319.33333333333337</ele><time>2026-04-25T14:13:28.906Z</time></trkpt><trkpt lat="45.6561926" lon="10.3742303"><ele>318.6666666666667</ele><time>2026-04-25T14:13:29.899Z</time></trkpt><trkpt lat="45.6561679" lon="10.3739568"><ele>318.0</ele><time>2026-04-25T14:13:30.92Z</time></trkpt><trkpt lat="45.6561502" lon="10.373689"><ele>318.0</ele><time>2026-04-25T14:13:31.908Z</time></trkpt><trkpt lat="45.6561315" lon="10.3734182"><ele>318.0</ele><time>2026-04-25T14:13:32.926Z</time></trkpt><trkpt lat="45.6561144" lon="10.3731525"><ele>318.0</ele><time>2026-04-25T14:13:33.916Z</time></trkpt><trkpt lat="45.6560932" lon="10.3728877"><ele>317.6666666666667</ele><time>2026-04-25T14:13:34.926Z</time></trkpt><trkpt lat="45.6560745" lon="10.3726298"><ele>317.33333333333337</ele><time>2026-04-25T14:13:35.915Z</time></trkpt><trkpt lat="45.6560547" lon="10.3723698"><ele>317.0</ele><time>2026-04-25T14:13:36.904Z</time></trkpt><trkpt lat="45.6560355" lon="10.3721025"><ele>317.6666666666667</ele><time>2026-04-25T14:13:37.921Z</time></trkpt><trkpt lat="45.6560155" lon="10.3718415"><ele>318.3333333333333</ele><time>2026-04-25T14:13:38.915Z</time></trkpt><trkpt lat="45.6559968" lon="10.3715814"><ele>319.0</ele><time>2026-04-25T14:13:39.915Z</time></trkpt><trkpt lat="45.6559764" lon="10.3713193"><ele>319.66666666666663</ele><time>2026-04-25T14:13:40.91Z</time></trkpt><trkpt lat="45.6559592" lon="10.3710496"><ele>320.3333333333333</ele><time>2026-04-25T14:13:41.925Z</time></trkpt><trkpt lat="45.6559424" lon="10.3707896"><ele>321.0</ele><time>2026-04-25T14:13:42.916Z</time></trkpt><trkpt lat="45.6559226" lon="10.3705311"><ele>321.3333333333333</ele><time>2026-04-25T14:13:43.92Z</time></trkpt><trkpt lat="45.6559025" lon="10.3702781"><ele>321.66666666666663</ele><time>2026-04-25T14:13:44.913Z</time></trkpt><trkpt lat="45.6558797" lon="10.3700207"><ele>322.0</ele><time>2026-04-25T14:13:45.908Z</time></trkpt><trkpt lat="45.6558596" lon="10.3697571"><ele>322.3333333333333</ele><time>2026-04-25T14:13:46.925Z</time></trkpt><trkpt lat="45.655843" lon="10.3695049"><ele>322.6666666666667</ele><time>2026-04-25T14:13:47.901Z</time></trkpt><trkpt lat="45.6558254" lon="10.3692404"><ele>323.0</ele><time>2026-04-25T14:13:48.913Z</time></trkpt><trkpt lat="45.655803" lon="10.3689843"><ele>324.0</ele><time>2026-04-25T14:13:49.9Z</time></trkpt><trkpt lat="45.6557801" lon="10.368717"><ele>325.0</ele><time>2026-04-25T14:13:50.932Z</time></trkpt><trkpt lat="45.6557603" lon="10.368459"><ele>326.0</ele><time>2026-04-25T14:13:51.916Z</time></trkpt><trkpt lat="45.6557406" lon="10.3681953"><ele>326.0</ele><time>2026-04-25T14:13:52.922Z</time></trkpt><trkpt lat="45.6557248" lon="10.3679339"><ele>326.0</ele><time>2026-04-25T14:13:53.919Z</time></trkpt><trkpt lat="45.6557185" lon="10.3676699"><ele>326.0</ele><time>2026-04-25T14:13:54.914Z</time></trkpt><trkpt lat="45.6557187" lon="10.3674161"><ele>325.6666666666667</ele><time>2026-04-25T14:13:55.877Z</time></trkpt><trkpt lat="45.6557295" lon="10.3671538"><ele>325.3333333333333</ele><time>2026-04-25T14:13:56.876Z</time></trkpt><trkpt lat="45.655754" lon="10.3668827"><ele>325.0</ele><time>2026-04-25T14:13:57.92Z</time></trkpt><trkpt lat="45.6557863" lon="10.3666292"><ele>325.0</ele><time>2026-04-25T14:13:58.911Z</time></trkpt><trkpt lat="45.6558257" lon="10.3663792"><ele>325.0</ele><time>2026-04-25T14:13:59.899Z</time></trkpt><trkpt lat="45.6558721" lon="10.3661309"><ele>325.0</ele><time>2026-04-25T14:14:00.881Z</time></trkpt><trkpt lat="45.6559347" lon="10.3658808"><ele>325.0</ele><time>2026-04-25T14:14:01.889Z</time></trkpt><trkpt lat="45.6560037" lon="10.3656365"><ele>325.0</ele><time>2026-04-25T14:14:02.916Z</time></trkpt><trkpt lat="45.6560827" lon="10.3654026"><ele>325.0</ele><time>2026-04-25T14:14:03.905Z</time></trkpt><trkpt lat="45.656167" lon="10.3651697"><ele>327.3333333333333</ele><time>2026-04-25T14:14:04.912Z</time></trkpt><trkpt lat="45.6562582" lon="10.3649423"><ele>329.6666666666667</ele><time>2026-04-25T14:14:05.895Z</time></trkpt><trkpt lat="45.6563519" lon="10.3647008"><ele>332.0</ele><time>2026-04-25T14:14:06.913Z</time></trkpt><trkpt lat="45.6564359" lon="10.3644691"><ele>332.33333333333337</ele><time>2026-04-25T14:14:07.888Z</time></trkpt><trkpt lat="45.6565242" lon="10.3642275"><ele>332.6666666666667</ele><time>2026-04-25T14:14:08.91Z</time></trkpt><trkpt lat="45.6566085" lon="10.3640004"><ele>333.0</ele><time>2026-04-25T14:14:09.889Z</time></trkpt><trkpt lat="45.6566952" lon="10.3637677"><ele>333.3333333333333</ele><time>2026-04-25T14:14:10.885Z</time></trkpt><trkpt lat="45.6567828" lon="10.3635281"><ele>333.66666666666663</ele><time>2026-04-25T14:14:11.902Z</time></trkpt><trkpt lat="45.6568739" lon="10.3632976"><ele>334.0</ele><time>2026-04-25T14:14:12.918Z</time></trkpt><trkpt lat="45.656957" lon="10.3630787"><ele>336.66666666666663</ele><time>2026-04-25T14:14:13.888Z</time></trkpt><trkpt lat="45.6570439" lon="10.3628512"><ele>339.3333333333333</ele><time>2026-04-25T14:14:14.885Z</time></trkpt><trkpt lat="45.6571316" lon="10.3626197"><ele>342.0</ele><time>2026-04-25T14:14:15.912Z</time></trkpt><trkpt lat="45.6572187" lon="10.3623944"><ele>342.0</ele><time>2026-04-25T14:14:16.907Z</time></trkpt><trkpt lat="45.6572986" lon="10.3621711"><ele>342.0</ele><time>2026-04-25T14:14:17.891Z</time></trkpt><trkpt lat="45.6573903" lon="10.3619332"><ele>342.0</ele><time>2026-04-25T14:14:18.916Z</time></trkpt><trkpt lat="45.657477" lon="10.3617032"><ele>342.0</ele><time>2026-04-25T14:14:19.916Z</time></trkpt><trkpt lat="45.6575591" lon="10.3614827"><ele>342.0</ele><time>2026-04-25T14:14:20.877Z</time></trkpt><trkpt lat="45.6576527" lon="10.3612508"><ele>342.0</ele><time>2026-04-25T14:14:21.885Z</time></trkpt><trkpt lat="45.6577499" lon="10.3610144"><ele>342.3333333333333</ele><time>2026-04-25T14:14:22.926Z</time></trkpt><trkpt lat="45.6578443" lon="10.3607938"><ele>342.66666666666663</ele><time>2026-04-25T14:14:23.904Z</time></trkpt><trkpt lat="45.6579469" lon="10.3605677"><ele>343.0</ele><time>2026-04-25T14:14:24.907Z</time></trkpt><trkpt lat="45.6580555" lon="10.3603395"><ele>344.0</ele><time>2026-04-25T14:14:25.938Z</time></trkpt><trkpt lat="45.6581577" lon="10.36012"><ele>345.0</ele><time>2026-04-25T14:14:26.909Z</time></trkpt><trkpt lat="45.6582632" lon="10.3598969"><ele>346.0</ele><time>2026-04-25T14:14:27.891Z</time></trkpt><trkpt lat="45.6583729" lon="10.3596673"><ele>346.3333333333333</ele><time>2026-04-25T14:14:28.881Z</time></trkpt><trkpt lat="45.6584844" lon="10.3594221"><ele>346.6666666666667</ele><time>2026-04-25T14:14:29.923Z</time></trkpt><trkpt lat="45.6585908" lon="10.3591898"><ele>347.0</ele><time>2026-04-25T14:14:30.917Z</time></trkpt><trkpt lat="45.6586937" lon="10.3589601"><ele>349.0</ele><time>2026-04-25T14:14:31.886Z</time></trkpt><trkpt lat="45.6588068" lon="10.3587177"><ele>351.0</ele><time>2026-04-25T14:14:32.92Z</time></trkpt><trkpt lat="45.6589142" lon="10.3584849"><ele>353.0</ele><time>2026-04-25T14:14:33.913Z</time></trkpt><trkpt lat="45.6590202" lon="10.3582542"><ele>353.6666666666667</ele><time>2026-04-25T14:14:34.886Z</time></trkpt><trkpt lat="45.6591271" lon="10.3580133"><ele>354.3333333333333</ele><time>2026-04-25T14:14:35.888Z</time></trkpt><trkpt lat="45.6592396" lon="10.3577644"><ele>355.0</ele><time>2026-04-25T14:14:36.924Z</time></trkpt><trkpt lat="45.6593463" lon="10.3575354"><ele>355.3333333333333</ele><time>2026-04-25T14:14:37.882Z</time></trkpt><trkpt lat="45.6594568" lon="10.3572955"><ele>355.6666666666667</ele><time>2026-04-25T14:14:38.884Z</time></trkpt><trkpt lat="45.6595728" lon="10.3570462"><ele>356.0</ele><time>2026-04-25T14:14:39.925Z</time></trkpt><trkpt lat="45.6596792" lon="10.3568175"><ele>357.33333333333337</ele><time>2026-04-25T14:14:40.891Z</time></trkpt><trkpt lat="45.6597908" lon="10.3565779"><ele>358.6666666666667</ele><time>2026-04-25T14:14:41.899Z</time></trkpt><trkpt lat="45.6599022" lon="10.3563408"><ele>360.0</ele><time>2026-04-25T14:14:42.905Z</time></trkpt><trkpt lat="45.6600127" lon="10.3561023"><ele>360.3333333333333</ele><time>2026-04-25T14:14:43.912Z</time></trkpt><trkpt lat="45.6601219" lon="10.3558635"><ele>360.66666666666663</ele><time>2026-04-25T14:14:44.907Z</time></trkpt><trkpt lat="45.6602258" lon="10.3556332"><ele>361.0</ele><time>2026-04-25T14:14:45.887Z</time></trkpt><trkpt lat="45.6603374" lon="10.3553946"><ele>364.3333333333333</ele><time>2026-04-25T14:14:46.912Z</time></trkpt><trkpt lat="45.6604449" lon="10.355159"><ele>367.6666666666667</ele><time>2026-04-25T14:14:47.92Z</time></trkpt><trkpt lat="45.6605512" lon="10.3549283"><ele>371.0</ele><time>2026-04-25T14:14:48.909Z</time></trkpt><trkpt lat="45.6606533" lon="10.3547013"><ele>371.0</ele><time>2026-04-25T14:14:49.885Z</time></trkpt><trkpt lat="45.6607599" lon="10.3544641"><ele>371.0</ele><time>2026-04-25T14:14:50.917Z</time></trkpt><trkpt lat="45.6608662" lon="10.3542371"><ele>371.0</ele><time>2026-04-25T14:14:51.913Z</time></trkpt><trkpt lat="45.6609734" lon="10.3540142"><ele>370.6666666666667</ele><time>2026-04-25T14:14:52.874Z</time></trkpt><trkpt lat="45.6610816" lon="10.3537758"><ele>370.3333333333333</ele><time>2026-04-25T14:14:53.886Z</time></trkpt><trkpt lat="45.6611887" lon="10.3535354"><ele>370.0</ele><time>2026-04-25T14:14:54.906Z</time></trkpt><trkpt lat="45.6612964" lon="10.3533032"><ele>373.0</ele><time>2026-04-25T14:14:55.907Z</time></trkpt><trkpt lat="45.6614039" lon="10.3530701"><ele>376.0</ele><time>2026-04-25T14:14:56.915Z</time></trkpt><trkpt lat="45.661512" lon="10.3528486"><ele>379.0</ele><time>2026-04-25T14:14:57.878Z</time></trkpt><trkpt lat="45.6616243" lon="10.3526098"><ele>379.0</ele><time>2026-04-25T14:14:58.898Z</time></trkpt><trkpt lat="45.661741" lon="10.3523808"><ele>379.0</ele><time>2026-04-25T14:14:59.913Z</time></trkpt><trkpt lat="45.6618652" lon="10.3521734"><ele>379.0</ele><time>2026-04-25T14:15:00.881Z</time></trkpt><trkpt lat="45.6620041" lon="10.3519805"><ele>382.66666666666663</ele><time>2026-04-25T14:15:01.895Z</time></trkpt><trkpt lat="45.6621522" lon="10.3518006"><ele>386.3333333333333</ele><time>2026-04-25T14:15:02.884Z</time></trkpt><trkpt lat="45.6623107" lon="10.351627"><ele>390.0</ele><time>2026-04-25T14:15:03.882Z</time></trkpt><trkpt lat="45.6624817" lon="10.3514614"><ele>392.0</ele><time>2026-04-25T14:15:04.899Z</time></trkpt><trkpt lat="45.6626533" lon="10.3513068"><ele>394.0</ele><time>2026-04-25T14:15:05.898Z</time></trkpt><trkpt lat="45.6628293" lon="10.3511443"><ele>396.0</ele><time>2026-04-25T14:15:06.914Z</time></trkpt><trkpt lat="45.6629938" lon="10.3509877"><ele>396.0</ele><time>2026-04-25T14:15:07.889Z</time></trkpt><trkpt lat="45.663168" lon="10.3508234"><ele>396.0</ele><time>2026-04-25T14:15:08.908Z</time></trkpt><trkpt lat="45.6633243" lon="10.3506657"><ele>396.0</ele><time>2026-04-25T14:15:09.886Z</time></trkpt><trkpt lat="45.6634719" lon="10.3505024"><ele>398.0</ele><time>2026-04-25T14:15:10.878Z</time></trkpt><trkpt lat="45.6636158" lon="10.350329"><ele>400.0</ele><time>2026-04-25T14:15:11.906Z</time></trkpt><trkpt lat="45.6637429" lon="10.3501544"><ele>402.0</ele><time>2026-04-25T14:15:12.9Z</time></trkpt><trkpt lat="45.6638636" lon="10.3499786"><ele>402.0</ele><time>2026-04-25T14:15:13.91Z</time></trkpt><trkpt lat="45.6639786" lon="10.3498115"><ele>402.0</ele><time>2026-04-25T14:15:14.89Z</time></trkpt><trkpt lat="45.6640966" lon="10.3496525"><ele>402.0</ele><time>2026-04-25T14:15:15.874Z</time></trkpt><trkpt lat="45.6642221" lon="10.3494889"><ele>400.66666666666663</ele><time>2026-04-25T14:15:16.925Z</time></trkpt><trkpt lat="45.6643384" lon="10.3493327"><ele>399.3333333333333</ele><time>2026-04-25T14:15:17.911Z</time></trkpt><trkpt lat="45.664457" lon="10.3491759"><ele>398.0</ele><time>2026-04-25T14:15:18.888Z</time></trkpt><trkpt lat="45.664577" lon="10.3490191"><ele>401.25</ele><time>2026-04-25T14:15:19.919Z</time></trkpt><trkpt lat="45.6646833" lon="10.3488765"><ele>404.5</ele><time>2026-04-25T14:15:20.912Z</time></trkpt><trkpt lat="45.6647828" lon="10.3487437"><ele>407.75</ele><time>2026-04-25T14:15:21.907Z</time></trkpt><trkpt lat="45.6648684" lon="10.3486098"><ele>411.0</ele><time>2026-04-25T14:15:22.919Z</time></trkpt><trkpt lat="45.6649286" lon="10.3484713"><ele>411.0</ele><time>2026-04-25T14:15:23.91Z</time></trkpt><trkpt lat="45.6649565" lon="10.3483258"><ele>411.0</ele><time>2026-04-25T14:15:24.908Z</time></trkpt><trkpt lat="45.6649436" lon="10.3481842"><ele>411.0</ele><time>2026-04-25T14:15:25.902Z</time></trkpt><trkpt lat="45.6648986" lon="10.3480562"><ele>411.0</ele><time>2026-04-25T14:15:26.921Z</time></trkpt><trkpt lat="45.6648183" lon="10.3479486"><ele>411.0</ele><time>2026-04-25T14:15:27.91Z</time></trkpt><trkpt lat="45.6647119" lon="10.3478981"><ele>409.5</ele><time>2026-04-25T14:15:28.92Z</time></trkpt><trkpt lat="45.6645968" lon="10.3479092"><ele>408.0</ele><time>2026-04-25T14:15:29.916Z</time></trkpt><trkpt lat="45.6644678" lon="10.3479435"><ele>406.5</ele><time>2026-04-25T14:15:30.884Z</time></trkpt><trkpt lat="45.6643308" lon="10.347996"><ele>405.0</ele><time>2026-04-25T14:15:31.883Z</time></trkpt><trkpt lat="45.6641843" lon="10.3480521"><ele>405.0</ele><time>2026-04-25T14:15:32.903Z</time></trkpt><trkpt lat="45.6640369" lon="10.3480951"><ele>405.0</ele><time>2026-04-25T14:15:33.916Z</time></trkpt><trkpt lat="45.6638882" lon="10.3481435"><ele>405.0</ele><time>2026-04-25T14:15:34.892Z</time></trkpt><trkpt lat="45.6637296" lon="10.3481996"><ele>405.33333333333337</ele><time>2026-04-25T14:15:35.901Z</time></trkpt><trkpt lat="45.6635636" lon="10.3482571"><ele>405.6666666666667</ele><time>2026-04-25T14:15:36.916Z</time></trkpt><trkpt lat="45.6634006" lon="10.3483116"><ele>406.0</ele><time>2026-04-25T14:15:37.916Z</time></trkpt><trkpt lat="45.6632349" lon="10.3483657"><ele>406.0</ele><time>2026-04-25T14:15:38.929Z</time></trkpt><trkpt lat="45.6630852" lon="10.348419"><ele>406.0</ele><time>2026-04-25T14:15:39.902Z</time></trkpt><trkpt lat="45.6629411" lon="10.3484708"><ele>406.0</ele><time>2026-04-25T14:15:40.914Z</time></trkpt><trkpt lat="45.6628141" lon="10.3485041"><ele>406.0</ele><time>2026-04-25T14:15:41.899Z</time></trkpt><trkpt lat="45.662696" lon="10.3485114"><ele>406.5</ele><time>2026-04-25T14:15:42.917Z</time></trkpt><trkpt lat="45.6626038" lon="10.3484695"><ele>407.0</ele><time>2026-04-25T14:15:43.91Z</time></trkpt><trkpt lat="45.6625277" lon="10.3483595"><ele>407.5</ele><time>2026-04-25T14:15:44.913Z</time></trkpt><trkpt lat="45.6624926" lon="10.3481767"><ele>408.0</ele><time>2026-04-25T14:15:46.288Z</time></trkpt><trkpt lat="45.66256" lon="10.3478587"><ele>408.0</ele><time>2026-04-25T14:15:47.942Z</time></trkpt><trkpt lat="45.66265" lon="10.3476691"><ele>408.0</ele><time>2026-04-25T14:15:48.962Z</time></trkpt><trkpt lat="45.6627516" lon="10.3474741"><ele>408.0</ele><time>2026-04-25T14:15:49.947Z</time></trkpt><trkpt lat="45.662857" lon="10.3472544"><ele>413.0</ele><time>2026-04-25T14:15:50.975Z</time></trkpt><trkpt lat="45.6629593" lon="10.3470349"><ele>418.0</ele><time>2026-04-25T14:15:51.972Z</time></trkpt><trkpt lat="45.6630596" lon="10.3468231"><ele>423.0</ele><time>2026-04-25T14:15:52.924Z</time></trkpt><trkpt lat="45.6631635" lon="10.3465941"><ele>420.5</ele><time>2026-04-25T14:15:53.93Z</time></trkpt><trkpt lat="45.6633008" lon="10.3462634"><ele>418.0</ele><time>2026-04-25T14:15:55.309Z</time></trkpt><trkpt lat="45.663435" lon="10.345868"><ele>418.0</ele><time>2026-04-25T14:15:56.966Z</time></trkpt><trkpt lat="45.6635055" lon="10.3456179"><ele>418.0</ele><time>2026-04-25T14:15:57.973Z</time></trkpt><trkpt lat="45.6635701" lon="10.3453682"><ele>418.0</ele><time>2026-04-25T14:15:58.972Z</time></trkpt><trkpt lat="45.6636273" lon="10.3451185"><ele>427.33333333333337</ele><time>2026-04-25T14:15:59.97Z</time></trkpt><trkpt lat="45.6636807" lon="10.3448703"><ele>436.66666666666663</ele><time>2026-04-25T14:16:00.974Z</time></trkpt><trkpt lat="45.6637315" lon="10.3446246"><ele>446.0</ele><time>2026-04-25T14:16:01.982Z</time></trkpt><trkpt lat="45.6637847" lon="10.3443859"><ele>446.3333333333333</ele><time>2026-04-25T14:16:02.975Z</time></trkpt><trkpt lat="45.6638374" lon="10.3441602"><ele>446.66666666666663</ele><time>2026-04-25T14:16:03.94Z</time></trkpt><trkpt lat="45.6638913" lon="10.3439235"><ele>447.0</ele><time>2026-04-25T14:16:04.958Z</time></trkpt><trkpt lat="45.6639418" lon="10.3436939"><ele>445.66666666666663</ele><time>2026-04-25T14:16:05.943Z</time></trkpt><trkpt lat="45.663994" lon="10.3434587"><ele>444.3333333333333</ele><time>2026-04-25T14:16:06.96Z</time></trkpt><trkpt lat="45.6640417" lon="10.343231"><ele>443.0</ele><time>2026-04-25T14:16:07.935Z</time></trkpt><trkpt lat="45.6640795" lon="10.3429844"><ele>441.66666666666663</ele><time>2026-04-25T14:16:08.973Z</time></trkpt><trkpt lat="45.6641074" lon="10.3427603"><ele>440.33333333333337</ele><time>2026-04-25T14:16:09.909Z</time></trkpt><trkpt lat="45.6641222" lon="10.3425022"><ele>439.0</ele><time>2026-04-25T14:16:10.928Z</time></trkpt><trkpt lat="45.6641189" lon="10.3422684"><ele>441.6666666666667</ele><time>2026-04-25T14:16:11.89Z</time></trkpt><trkpt lat="45.6640993" lon="10.3420148"><ele>444.33333333333337</ele><time>2026-04-25T14:16:12.919Z</time></trkpt><trkpt lat="45.6640602" lon="10.341783"><ele>447.0</ele><time>2026-04-25T14:16:13.878Z</time></trkpt><trkpt lat="45.6640191" lon="10.3415504"><ele>450.25</ele><time>2026-04-25T14:16:14.899Z</time></trkpt><trkpt lat="45.6639823" lon="10.3413376"><ele>453.5</ele><time>2026-04-25T14:16:15.916Z</time></trkpt><trkpt lat="45.6639374" lon="10.3411607"><ele>456.75</ele><time>2026-04-25T14:16:16.891Z</time></trkpt><trkpt lat="45.6638669" lon="10.3410002"><ele>460.0</ele><time>2026-04-25T14:16:17.916Z</time></trkpt><trkpt lat="45.6637688" lon="10.3408879"><ele>460.0</ele><time>2026-04-25T14:16:18.934Z</time></trkpt><trkpt lat="45.6636638" lon="10.340812"><ele>460.0</ele><time>2026-04-25T14:16:19.92Z</time></trkpt><trkpt lat="45.6635442" lon="10.3407815"><ele>460.0</ele><time>2026-04-25T14:16:20.889Z</time></trkpt><trkpt lat="45.663413" lon="10.340802"><ele>460.0</ele><time>2026-04-25T14:16:21.883Z</time></trkpt><trkpt lat="45.66328" lon="10.3408769"><ele>459.0</ele><time>2026-04-25T14:16:22.89Z</time></trkpt><trkpt lat="45.6631427" lon="10.3409906"><ele>458.0</ele><time>2026-04-25T14:16:23.885Z</time></trkpt><trkpt lat="45.663001" lon="10.3411276"><ele>457.0</ele><time>2026-04-25T14:16:24.912Z</time></trkpt><trkpt lat="45.6628576" lon="10.3412602"><ele>461.0</ele><time>2026-04-25T14:16:25.905Z</time></trkpt><trkpt lat="45.6626595" lon="10.3414405"><ele>465.0</ele><time>2026-04-25T14:16:27.274Z</time></trkpt><trkpt lat="45.6623749" lon="10.3416974"><ele>465.0</ele><time>2026-04-25T14:16:28.97Z</time></trkpt><trkpt lat="45.6622191" lon="10.3418394"><ele>465.0</ele><time>2026-04-25T14:16:29.945Z</time></trkpt><trkpt lat="45.6620584" lon="10.3419843"><ele>465.0</ele><time>2026-04-25T14:16:30.942Z</time></trkpt><trkpt lat="45.6619057" lon="10.3421282"><ele>465.66666666666663</ele><time>2026-04-25T14:16:31.936Z</time></trkpt><trkpt lat="45.6617588" lon="10.3422726"><ele>466.3333333333333</ele><time>2026-04-25T14:16:32.932Z</time></trkpt><trkpt lat="45.6616176" lon="10.3424237"><ele>467.0</ele><time>2026-04-25T14:16:33.94Z</time></trkpt><trkpt lat="45.6614835" lon="10.3425746"><ele>467.0</ele><time>2026-04-25T14:16:34.938Z</time></trkpt><trkpt lat="45.6613536" lon="10.3427291"><ele>467.0</ele><time>2026-04-25T14:16:35.933Z</time></trkpt><trkpt lat="45.661226" lon="10.3428844"><ele>467.0</ele><time>2026-04-25T14:16:36.938Z</time></trkpt><trkpt lat="45.6610948" lon="10.3430397"><ele>469.66666666666663</ele><time>2026-04-25T14:16:37.962Z</time></trkpt><trkpt lat="45.6609693" lon="10.3431835"><ele>472.33333333333337</ele><time>2026-04-25T14:16:38.935Z</time></trkpt><trkpt lat="45.6608339" lon="10.3433349"><ele>475.0</ele><time>2026-04-25T14:16:39.977Z</time></trkpt><trkpt lat="45.6607005" lon="10.3434697"><ele>475.0</ele><time>2026-04-25T14:16:40.963Z</time></trkpt><trkpt lat="45.6605585" lon="10.3435855"><ele>475.0</ele><time>2026-04-25T14:16:41.947Z</time></trkpt><trkpt lat="45.6604102" lon="10.3436836"><ele>475.0</ele><time>2026-04-25T14:16:42.937Z</time></trkpt><trkpt lat="45.6602581" lon="10.3437651"><ele>478.0</ele><time>2026-04-25T14:16:43.946Z</time></trkpt><trkpt lat="45.6600977" lon="10.343823"><ele>481.0</ele><time>2026-04-25T14:16:44.989Z</time></trkpt><trkpt lat="45.6599484" lon="10.3438533"><ele>484.0</ele><time>2026-04-25T14:16:45.972Z</time></trkpt><trkpt lat="45.6598065" lon="10.3438699"><ele>483.0</ele><time>2026-04-25T14:16:46.934Z</time></trkpt><trkpt lat="45.6596691" lon="10.3438818"><ele>482.0</ele><time>2026-04-25T14:16:47.941Z</time></trkpt><trkpt lat="45.6595414" lon="10.3438879"><ele>481.0</ele><time>2026-04-25T14:16:48.942Z</time></trkpt><trkpt lat="45.6594205" lon="10.3438943"><ele>480.0</ele><time>2026-04-25T14:16:49.942Z</time></trkpt><trkpt lat="45.659312" lon="10.3439037"><ele>480.0</ele><time>2026-04-25T14:16:50.963Z</time></trkpt><trkpt lat="45.6592261" lon="10.3439058"><ele>480.0</ele><time>2026-04-25T14:16:51.941Z</time></trkpt><trkpt lat="45.6591487" lon="10.3438856"><ele>480.0</ele><time>2026-04-25T14:16:52.984Z</time></trkpt><trkpt lat="45.6590458" lon="10.343767"><ele>480.0</ele><time>2026-04-25T14:16:54.985Z</time></trkpt><trkpt lat="45.6589888" lon="10.3437036"><ele>480.0</ele><time>2026-04-25T14:16:55.964Z</time></trkpt><trkpt lat="45.6589201" lon="10.3436697"><ele>480.0</ele><time>2026-04-25T14:16:56.953Z</time></trkpt><trkpt lat="45.658846" lon="10.3436774"><ele>481.6666666666667</ele><time>2026-04-25T14:16:57.973Z</time></trkpt><trkpt lat="45.6587759" lon="10.3437227"><ele>483.33333333333337</ele><time>2026-04-25T14:16:58.936Z</time></trkpt><trkpt lat="45.6587041" lon="10.3437853"><ele>485.0</ele><time>2026-04-25T14:16:59.94Z</time></trkpt><trkpt lat="45.658629" lon="10.3438414"><ele>486.6666666666667</ele><time>2026-04-25T14:17:00.947Z</time></trkpt><trkpt lat="45.6585463" lon="10.3438851"><ele>488.33333333333337</ele><time>2026-04-25T14:17:01.959Z</time></trkpt><trkpt lat="45.6584603" lon="10.3439137"><ele>490.0</ele><time>2026-04-25T14:17:02.96Z</time></trkpt><trkpt lat="45.6583698" lon="10.3439301"><ele>490.0</ele><time>2026-04-25T14:17:03.964Z</time></trkpt><trkpt lat="45.6582775" lon="10.3439397"><ele>490.0</ele><time>2026-04-25T14:17:04.948Z</time></trkpt><trkpt lat="45.6581805" lon="10.343951"><ele>490.0</ele><time>2026-04-25T14:17:05.975Z</time></trkpt><trkpt lat="45.6580866" lon="10.3439723"><ele>490.0</ele><time>2026-04-25T14:17:06.968Z</time></trkpt><trkpt lat="45.6579899" lon="10.3440026"><ele>490.0</ele><time>2026-04-25T14:17:07.988Z</time></trkpt><trkpt lat="45.6579011" lon="10.344039"><ele>490.0</ele><time>2026-04-25T14:17:08.938Z</time></trkpt><trkpt lat="45.65781" lon="10.3440885"><ele>490.0</ele><time>2026-04-25T14:17:09.934Z</time></trkpt><trkpt lat="45.6577171" lon="10.3441461"><ele>490.0</ele><time>2026-04-25T14:17:10.964Z</time></trkpt><trkpt lat="45.6576294" lon="10.3442043"><ele>490.0</ele><time>2026-04-25T14:17:11.964Z</time></trkpt><trkpt lat="45.6575464" lon="10.3442646"><ele>490.0</ele><time>2026-04-25T14:17:12.959Z</time></trkpt><trkpt lat="45.6574667" lon="10.344329"><ele>491.50000000000006</ele><time>2026-04-25T14:17:13.984Z</time></trkpt><trkpt lat="45.6573938" lon="10.3443826"><ele>493.0</ele><time>2026-04-25T14:17:14.942Z</time></trkpt><trkpt lat="45.6573134" lon="10.344436"><ele>494.5</ele><time>2026-04-25T14:17:15.965Z</time></trkpt><trkpt lat="45.6572328" lon="10.3444927"><ele>496.0</ele><time>2026-04-25T14:17:16.978Z</time></trkpt><trkpt lat="45.6571491" lon="10.3445487"><ele>497.50000000000006</ele><time>2026-04-25T14:17:17.983Z</time></trkpt><trkpt lat="45.657074" lon="10.344592"><ele>499.0</ele><time>2026-04-25T14:17:18.965Z</time></trkpt><trkpt lat="45.6570028" lon="10.3446242"><ele>498.0</ele><time>2026-04-25T14:17:19.966Z</time></trkpt><trkpt lat="45.656916" lon="10.3446721"><ele>497.0</ele><time>2026-04-25T14:17:21.983Z</time></trkpt><trkpt lat="45.6568549" lon="10.3447705"><ele>496.0</ele><time>2026-04-25T14:20:04.93Z</time></trkpt><trkpt lat="45.656775" lon="10.3448396"><ele>495.0</ele><time>2026-04-25T14:20:06.925Z</time></trkpt><trkpt lat="45.6566996" lon="10.34489"><ele>494.0</ele><time>2026-04-25T14:20:07.93Z</time></trkpt><trkpt lat="45.6566032" lon="10.3449373"><ele>494.0</ele><time>2026-04-25T14:20:08.922Z</time></trkpt><trkpt lat="45.6564938" lon="10.344987"><ele>494.0</ele><time>2026-04-25T14:20:09.927Z</time></trkpt><trkpt lat="45.656376" lon="10.3450268"><ele>494.0</ele><time>2026-04-25T14:20:10.926Z</time></trkpt><trkpt lat="45.6562522" lon="10.3450568"><ele>494.0</ele><time>2026-04-25T14:20:11.924Z</time></trkpt><trkpt lat="45.6561202" lon="10.3450803"><ele>496.5</ele><time>2026-04-25T14:20:12.93Z</time></trkpt><trkpt lat="45.6559859" lon="10.3450935"><ele>499.0</ele><time>2026-04-25T14:20:13.93Z</time></trkpt><trkpt lat="45.6558503" lon="10.3450959"><ele>501.5</ele><time>2026-04-25T14:20:14.947Z</time></trkpt><trkpt lat="45.6557119" lon="10.345089"><ele>504.0</ele><time>2026-04-25T14:20:15.952Z</time></trkpt><trkpt lat="45.6555746" lon="10.3450774"><ele>504.0</ele><time>2026-04-25T14:20:16.937Z</time></trkpt><trkpt lat="45.6554314" lon="10.3450646"><ele>504.0</ele><time>2026-04-25T14:20:17.962Z</time></trkpt><trkpt lat="45.655292" lon="10.3450532"><ele>504.0</ele><time>2026-04-25T14:20:18.962Z</time></trkpt><trkpt lat="45.6551556" lon="10.3450472"><ele>504.0</ele><time>2026-04-25T14:20:19.947Z</time></trkpt><trkpt lat="45.6550155" lon="10.3450499"><ele>505.0</ele><time>2026-04-25T14:20:20.965Z</time></trkpt><trkpt lat="45.6548808" lon="10.345061"><ele>506.0</ele><time>2026-04-25T14:20:21.942Z</time></trkpt><trkpt lat="45.6547394" lon="10.3450818"><ele>507.0</ele><time>2026-04-25T14:20:22.964Z</time></trkpt><trkpt lat="45.654595" lon="10.3451099"><ele>508.0</ele><time>2026-04-25T14:20:23.962Z</time></trkpt><trkpt lat="45.6544368" lon="10.3451479"><ele>511.33333333333337</ele><time>2026-04-25T14:20:24.941Z</time></trkpt><trkpt lat="45.6542561" lon="10.3452107"><ele>514.6666666666666</ele><time>2026-04-25T14:20:25.954Z</time></trkpt><trkpt lat="45.6540665" lon="10.3453007"><ele>518.0</ele><time>2026-04-25T14:20:26.969Z</time></trkpt><trkpt lat="45.6538708" lon="10.3454099"><ele>518.0</ele><time>2026-04-25T14:20:27.989Z</time></trkpt><trkpt lat="45.6536698" lon="10.3455184"><ele>518.0</ele><time>2026-04-25T14:20:28.98Z</time></trkpt><trkpt lat="45.6534537" lon="10.3456251"><ele>518.0</ele><time>2026-04-25T14:20:29.99Z</time></trkpt><trkpt lat="45.6532492" lon="10.3457279"><ele>515.0</ele><time>2026-04-25T14:20:30.938Z</time></trkpt><trkpt lat="45.6530294" lon="10.3458471"><ele>512.0</ele><time>2026-04-25T14:20:31.945Z</time></trkpt><trkpt lat="45.6528097" lon="10.3459678"><ele>519.0</ele><time>2026-04-25T14:20:32.934Z</time></trkpt><trkpt lat="45.6525768" lon="10.3460922"><ele>526.0</ele><time>2026-04-25T14:20:33.952Z</time></trkpt><trkpt lat="45.6523433" lon="10.3462117"><ele>526.0</ele><time>2026-04-25T14:20:34.949Z</time></trkpt><trkpt lat="45.6521072" lon="10.3463296"><ele>526.0</ele><time>2026-04-25T14:20:35.951Z</time></trkpt><trkpt lat="45.6518601" lon="10.3464582"><ele>527.5</ele><time>2026-04-25T14:20:36.99Z</time></trkpt><trkpt lat="45.651622" lon="10.3465816"><ele>529.0</ele><time>2026-04-25T14:20:37.987Z</time></trkpt><trkpt lat="45.6514056" lon="10.3466921"><ele>529.0</ele><time>2026-04-25T14:20:38.936Z</time></trkpt><trkpt lat="45.6511857" lon="10.3468039"><ele>529.0</ele><time>2026-04-25T14:20:39.988Z</time></trkpt><trkpt lat="45.6509862" lon="10.3469098"><ele>529.0</ele><time>2026-04-25T14:20:40.984Z</time></trkpt><trkpt lat="45.6508099" lon="10.3470072"><ele>528.3333333333334</ele><time>2026-04-25T14:20:41.926Z</time></trkpt><trkpt lat="45.6506365" lon="10.3471095"><ele>527.6666666666666</ele><time>2026-04-25T14:20:42.941Z</time></trkpt><trkpt lat="45.6504695" lon="10.3472406"><ele>527.0</ele><time>2026-04-25T14:20:43.986Z</time></trkpt><trkpt lat="45.6503418" lon="10.3473991"><ele>534.0</ele><time>2026-04-25T14:20:44.963Z</time></trkpt><trkpt lat="45.650233" lon="10.3476038"><ele>541.0</ele><time>2026-04-25T14:20:45.98Z</time></trkpt><trkpt lat="45.650161" lon="10.3478413"><ele>548.0</ele><time>2026-04-25T14:20:46.988Z</time></trkpt><trkpt lat="45.6500912" lon="10.348052"><ele>548.0</ele><time>2026-04-25T14:20:47.944Z</time></trkpt><trkpt lat="45.6499872" lon="10.3482615"><ele>548.0</ele><time>2026-04-25T14:20:48.972Z</time></trkpt><trkpt lat="45.6498533" lon="10.3484428"><ele>548.0</ele><time>2026-04-25T14:20:49.959Z</time></trkpt><trkpt lat="45.6496999" lon="10.3486176"><ele>548.0</ele><time>2026-04-25T14:20:50.948Z</time></trkpt><trkpt lat="45.6495384" lon="10.3487964"><ele>548.0</ele><time>2026-04-25T14:20:51.944Z</time></trkpt><trkpt lat="45.6493756" lon="10.3489845"><ele>548.0</ele><time>2026-04-25T14:20:52.967Z</time></trkpt><trkpt lat="45.6492356" lon="10.349146"><ele>550.3333333333333</ele><time>2026-04-25T14:20:53.939Z</time></trkpt><trkpt lat="45.6491057" lon="10.349286"><ele>552.6666666666666</ele><time>2026-04-25T14:20:54.954Z</time></trkpt><trkpt lat="45.6489774" lon="10.3493954"><ele>555.0</ele><time>2026-04-25T14:20:55.936Z</time></trkpt><trkpt lat="45.6488238" lon="10.3494668"><ele>555.0</ele><time>2026-04-25T14:20:56.981Z</time></trkpt><trkpt lat="45.6486711" lon="10.3494691"><ele>555.0</ele><time>2026-04-25T14:20:57.967Z</time></trkpt><trkpt lat="45.6485234" lon="10.3493972"><ele>555.0</ele><time>2026-04-25T14:20:58.975Z</time></trkpt><trkpt lat="45.6483821" lon="10.3492644"><ele>555.0</ele><time>2026-04-25T14:20:59.991Z</time></trkpt><trkpt lat="45.6482489" lon="10.3490955"><ele>555.0</ele><time>2026-04-25T14:21:00.96Z</time></trkpt><trkpt lat="45.6481081" lon="10.3489104"><ele>555.0</ele><time>2026-04-25T14:21:01.94Z</time></trkpt><trkpt lat="45.6479494" lon="10.3487222"><ele>555.6666666666666</ele><time>2026-04-25T14:21:02.966Z</time></trkpt><trkpt lat="45.6478024" lon="10.3485561"><ele>556.3333333333333</ele><time>2026-04-25T14:21:03.983Z</time></trkpt><trkpt lat="45.647681" lon="10.3484083"><ele>557.0</ele><time>2026-04-25T14:21:04.946Z</time></trkpt><trkpt lat="45.647569" lon="10.3482509"><ele>557.0</ele><time>2026-04-25T14:21:05.938Z</time></trkpt><trkpt lat="45.6474689" lon="10.3480676"><ele>557.0</ele><time>2026-04-25T14:21:06.968Z</time></trkpt><trkpt lat="45.6473903" lon="10.3478656"><ele>557.0</ele><time>2026-04-25T14:21:07.97Z</time></trkpt><trkpt lat="45.6473374" lon="10.3476419"><ele>563.3333333333333</ele><time>2026-04-25T14:21:08.962Z</time></trkpt><trkpt lat="45.6473103" lon="10.3474077"><ele>569.6666666666666</ele><time>2026-04-25T14:21:09.943Z</time></trkpt><trkpt lat="45.6472901" lon="10.3471608"><ele>576.0</ele><time>2026-04-25T14:21:10.99Z</time></trkpt><trkpt lat="45.6472669" lon="10.3469478"><ele>576.6</ele><time>2026-04-25T14:21:11.969Z</time></trkpt><trkpt lat="45.6472435" lon="10.346759"><ele>577.2</ele><time>2026-04-25T14:21:12.933Z</time></trkpt><trkpt lat="45.6472222" lon="10.3465973"><ele>577.8</ele><time>2026-04-25T14:21:13.938Z</time></trkpt><trkpt lat="45.6472007" lon="10.3464541"><ele>578.4</ele><time>2026-04-25T14:21:14.972Z</time></trkpt><trkpt lat="45.6471789" lon="10.3463464"><ele>579.0</ele><time>2026-04-25T14:21:15.944Z</time></trkpt><trkpt lat="45.6471582" lon="10.3462572"><ele>580.0</ele><time>2026-04-25T14:21:16.943Z</time></trkpt><trkpt lat="45.6471357" lon="10.346136"><ele>581.0</ele><time>2026-04-25T14:21:18.959Z</time></trkpt><trkpt lat="45.6471333" lon="10.3460429"><ele>582.0</ele><time>2026-04-25T14:22:09.882Z</time></trkpt><trkpt lat="45.6470894" lon="10.3459522"><ele>583.0</ele><time>2026-04-25T14:22:11.888Z</time></trkpt><trkpt lat="45.6470574" lon="10.3458537"><ele>584.0</ele><time>2026-04-25T14:22:12.929Z</time></trkpt><trkpt lat="45.6470267" lon="10.3457388"><ele>585.0</ele><time>2026-04-25T14:22:13.902Z</time></trkpt><trkpt lat="45.6469928" lon="10.3455846"><ele>578.3333333333334</ele><time>2026-04-25T14:22:14.918Z</time></trkpt><trkpt lat="45.6469508" lon="10.3454104"><ele>571.6666666666667</ele><time>2026-04-25T14:22:15.922Z</time></trkpt><trkpt lat="45.6468931" lon="10.3451988"><ele>565.0</ele><time>2026-04-25T14:22:16.929Z</time></trkpt><trkpt lat="45.6468351" lon="10.3449686"><ele>565.0</ele><time>2026-04-25T14:22:17.933Z</time></trkpt><trkpt lat="45.6467766" lon="10.3447272"><ele>565.0</ele><time>2026-04-25T14:22:18.89Z</time></trkpt><trkpt lat="45.6467098" lon="10.3444563"><ele>565.0</ele><time>2026-04-25T14:22:19.911Z</time></trkpt><trkpt lat="45.6466458" lon="10.3441854"><ele>569.3333333333334</ele><time>2026-04-25T14:22:20.899Z</time></trkpt><trkpt lat="45.6465744" lon="10.3438906"><ele>573.6666666666666</ele><time>2026-04-25T14:22:21.938Z</time></trkpt><trkpt lat="45.6465002" lon="10.3436174"><ele>578.0</ele><time>2026-04-25T14:22:22.894Z</time></trkpt><trkpt lat="45.6464231" lon="10.3433233"><ele>579.3333333333333</ele><time>2026-04-25T14:22:23.925Z</time></trkpt><trkpt lat="45.6463486" lon="10.3430574"><ele>580.6666666666666</ele><time>2026-04-25T14:22:24.941Z</time></trkpt><trkpt lat="45.6462912" lon="10.3428149"><ele>582.0</ele><time>2026-04-25T14:22:25.927Z</time></trkpt><trkpt lat="45.6462355" lon="10.3425948"><ele>582.0</ele><time>2026-04-25T14:22:26.928Z</time></trkpt><trkpt lat="45.6461829" lon="10.3424083"><ele>582.0</ele><time>2026-04-25T14:22:27.924Z</time></trkpt><trkpt lat="45.6461502" lon="10.3422427"><ele>582.0</ele><time>2026-04-25T14:22:28.919Z</time></trkpt><trkpt lat="45.6461561" lon="10.3421001"><ele>582.0</ele><time>2026-04-25T14:22:29.916Z</time></trkpt><trkpt lat="45.646199" lon="10.3419949"><ele>582.0</ele><time>2026-04-25T14:22:30.931Z</time></trkpt><trkpt lat="45.64626" lon="10.3419226"><ele>582.0</ele><time>2026-04-25T14:22:31.932Z</time></trkpt><trkpt lat="45.6463589" lon="10.341898"><ele>582.0</ele><time>2026-04-25T14:22:32.929Z</time></trkpt><trkpt lat="45.6464737" lon="10.3419393"><ele>582.0</ele><time>2026-04-25T14:22:33.924Z</time></trkpt><trkpt lat="45.6465631" lon="10.3420694"><ele>582.0</ele><time>2026-04-25T14:22:34.929Z</time></trkpt><trkpt lat="45.6466318" lon="10.3422754"><ele>582.0</ele><time>2026-04-25T14:22:35.932Z</time></trkpt><trkpt lat="45.6467137" lon="10.3425351"><ele>582.0</ele><time>2026-04-25T14:22:36.919Z</time></trkpt><trkpt lat="45.6468083" lon="10.342834"><ele>582.0</ele><time>2026-04-25T14:22:37.92Z</time></trkpt><trkpt lat="45.6469063" lon="10.3431437"><ele>589.6666666666666</ele><time>2026-04-25T14:22:38.929Z</time></trkpt><trkpt lat="45.6469649" lon="10.3434202"><ele>597.3333333333333</ele><time>2026-04-25T14:22:39.927Z</time></trkpt><trkpt lat="45.647036" lon="10.3436633"><ele>605.0</ele><time>2026-04-25T14:22:40.891Z</time></trkpt><trkpt lat="45.6471085" lon="10.3438938"><ele>605.0</ele><time>2026-04-25T14:22:41.938Z</time></trkpt><trkpt lat="45.6471692" lon="10.3440943"><ele>605.0</ele><time>2026-04-25T14:22:42.915Z</time></trkpt><trkpt lat="45.6472335" lon="10.3442809"><ele>605.0</ele><time>2026-04-25T14:22:43.916Z</time></trkpt><trkpt lat="45.6472978" lon="10.3444526"><ele>605.0</ele><time>2026-04-25T14:22:44.915Z</time></trkpt><trkpt lat="45.6473581" lon="10.3446211"><ele>602.5</ele><time>2026-04-25T14:22:45.904Z</time></trkpt><trkpt lat="45.6474399" lon="10.3447996"><ele>600.0</ele><time>2026-04-25T14:22:46.917Z</time></trkpt><trkpt lat="45.6475098" lon="10.3449633"><ele>597.5</ele><time>2026-04-25T14:22:47.928Z</time></trkpt><trkpt lat="45.647583" lon="10.3451109"><ele>595.0</ele><time>2026-04-25T14:22:48.891Z</time></trkpt><trkpt lat="45.6476556" lon="10.3452668"><ele>595.0</ele><time>2026-04-25T14:22:49.923Z</time></trkpt><trkpt lat="45.6477234" lon="10.3454087"><ele>595.0</ele><time>2026-04-25T14:22:50.924Z</time></trkpt><trkpt lat="45.6477767" lon="10.3455287"><ele>595.0</ele><time>2026-04-25T14:22:51.892Z</time></trkpt><trkpt lat="45.6478319" lon="10.3456384"><ele>595.0</ele><time>2026-04-25T14:22:52.937Z</time></trkpt><trkpt lat="45.6478759" lon="10.3457271"><ele>595.0</ele><time>2026-04-25T14:22:53.925Z</time></trkpt><trkpt lat="45.6479152" lon="10.3458124"><ele>599.8333333333334</ele><time>2026-04-25T14:22:54.931Z</time></trkpt><trkpt lat="45.6479561" lon="10.3458965"><ele>604.6666666666667</ele><time>2026-04-25T14:22:55.919Z</time></trkpt><trkpt lat="45.6480136" lon="10.3459691"><ele>609.5</ele><time>2026-04-25T14:22:56.923Z</time></trkpt><trkpt lat="45.6480901" lon="10.3460043"><ele>614.3333333333334</ele><time>2026-04-25T14:22:57.915Z</time></trkpt><trkpt lat="45.6481683" lon="10.3459859"><ele>619.1666666666666</ele><time>2026-04-25T14:22:58.893Z</time></trkpt><trkpt lat="45.6482274" lon="10.3459199"><ele>624.0</ele><time>2026-04-25T14:22:59.893Z</time></trkpt><trkpt lat="45.6482629" lon="10.3457857"><ele>624.0</ele><time>2026-04-25T14:23:00.889Z</time></trkpt><trkpt lat="45.6482512" lon="10.3456186"><ele>624.0</ele><time>2026-04-25T14:23:01.888Z</time></trkpt><trkpt lat="45.6482046" lon="10.3454531"><ele>624.0</ele><time>2026-04-25T14:23:02.909Z</time></trkpt><trkpt lat="45.6481486" lon="10.3452682"><ele>624.0</ele><time>2026-04-25T14:23:03.916Z</time></trkpt><trkpt lat="45.6480947" lon="10.3450705"><ele>626.0</ele><time>2026-04-25T14:23:04.888Z</time></trkpt><trkpt lat="45.6480173" lon="10.3447858"><ele>628.0</ele><time>2026-04-25T14:23:06.285Z</time></trkpt><trkpt lat="45.6479433" lon="10.3443943"><ele>632.0</ele><time>2026-04-25T14:23:07.971Z</time></trkpt><trkpt lat="45.6479035" lon="10.344178"><ele>636.0</ele><time>2026-04-25T14:23:08.93Z</time></trkpt><trkpt lat="45.6478682" lon="10.3439498"><ele>640.0</ele><time>2026-04-25T14:23:09.946Z</time></trkpt><trkpt lat="45.6478494" lon="10.3437215"><ele>639.6666666666667</ele><time>2026-04-25T14:23:10.949Z</time></trkpt><trkpt lat="45.6478454" lon="10.3434918"><ele>639.3333333333334</ele><time>2026-04-25T14:23:11.966Z</time></trkpt><trkpt lat="45.647857" lon="10.3432629"><ele>639.0</ele><time>2026-04-25T14:23:12.971Z</time></trkpt><trkpt lat="45.647885" lon="10.3430389"><ele>639.0</ele><time>2026-04-25T14:23:13.952Z</time></trkpt><trkpt lat="45.6479346" lon="10.3428067"><ele>639.0</ele><time>2026-04-25T14:23:14.981Z</time></trkpt><trkpt lat="45.6479998" lon="10.3425905"><ele>639.0</ele><time>2026-04-25T14:23:15.952Z</time></trkpt><trkpt lat="45.6480861" lon="10.3423709"><ele>634.6666666666666</ele><time>2026-04-25T14:23:16.973Z</time></trkpt><trkpt lat="45.6481867" lon="10.3421662"><ele>630.3333333333333</ele><time>2026-04-25T14:23:17.969Z</time></trkpt><trkpt lat="45.6482972" lon="10.3419811"><ele>626.0</ele><time>2026-04-25T14:23:18.944Z</time></trkpt><trkpt lat="45.6484139" lon="10.3418036"><ele>626.0</ele><time>2026-04-25T14:23:19.956Z</time></trkpt><trkpt lat="45.6485222" lon="10.3416375"><ele>626.0</ele><time>2026-04-25T14:23:20.979Z</time></trkpt><trkpt lat="45.648625" lon="10.3414748"><ele>626.0</ele><time>2026-04-25T14:23:21.987Z</time></trkpt><trkpt lat="45.6487288" lon="10.341324"><ele>629.75</ele><time>2026-04-25T14:23:22.98Z</time></trkpt><trkpt lat="45.6488309" lon="10.341177"><ele>633.5</ele><time>2026-04-25T14:23:23.971Z</time></trkpt><trkpt lat="45.6489328" lon="10.3410235"><ele>637.25</ele><time>2026-04-25T14:23:24.998Z</time></trkpt><trkpt lat="45.6490279" lon="10.3408791"><ele>641.0</ele><time>2026-04-25T14:23:25.955Z</time></trkpt><trkpt lat="45.6491288" lon="10.3407167"><ele>639.25</ele><time>2026-04-25T14:23:26.983Z</time></trkpt><trkpt lat="45.6492181" lon="10.3405455"><ele>637.5</ele><time>2026-04-25T14:23:27.981Z</time></trkpt><trkpt lat="45.6492876" lon="10.3403585"><ele>635.75</ele><time>2026-04-25T14:23:28.961Z</time></trkpt><trkpt lat="45.649337" lon="10.3401541"><ele>634.0</ele><time>2026-04-25T14:23:29.949Z</time></trkpt><trkpt lat="45.6493614" lon="10.3399352"><ele>635.6666666666667</ele><time>2026-04-25T14:23:30.967Z</time></trkpt><trkpt lat="45.6493592" lon="10.3397083"><ele>637.3333333333334</ele><time>2026-04-25T14:23:31.991Z</time></trkpt><trkpt lat="45.6493297" lon="10.3394914"><ele>639.0</ele><time>2026-04-25T14:23:32.985Z</time></trkpt><trkpt lat="45.6492753" lon="10.339281"><ele>639.0</ele><time>2026-04-25T14:23:33.988Z</time></trkpt><trkpt lat="45.6491952" lon="10.3390857"><ele>639.0</ele><time>2026-04-25T14:23:34.972Z</time></trkpt><trkpt lat="45.6490863" lon="10.3389057"><ele>639.0</ele><time>2026-04-25T14:23:35.994Z</time></trkpt><trkpt lat="45.6489592" lon="10.3387664"><ele>642.0</ele><time>2026-04-25T14:23:36.945Z</time></trkpt><trkpt lat="45.6488074" lon="10.3386512"><ele>645.0</ele><time>2026-04-25T14:23:37.941Z</time></trkpt><trkpt lat="45.6486355" lon="10.3385512"><ele>648.0</ele><time>2026-04-25T14:23:38.977Z</time></trkpt><trkpt lat="45.6484687" lon="10.3384596"><ele>649.6666666666666</ele><time>2026-04-25T14:23:39.978Z</time></trkpt><trkpt lat="45.6483117" lon="10.3383703"><ele>651.3333333333333</ele><time>2026-04-25T14:23:40.988Z</time></trkpt><trkpt lat="45.6481572" lon="10.3382837"><ele>653.0</ele><time>2026-04-25T14:23:41.979Z</time></trkpt><trkpt lat="45.6480032" lon="10.3381891"><ele>653.0</ele><time>2026-04-25T14:23:42.978Z</time></trkpt><trkpt lat="45.6478572" lon="10.3380795"><ele>653.0</ele><time>2026-04-25T14:23:43.959Z</time></trkpt><trkpt lat="45.6477194" lon="10.3379475"><ele>653.0</ele><time>2026-04-25T14:23:44.946Z</time></trkpt><trkpt lat="45.6475886" lon="10.337788"><ele>655.0</ele><time>2026-04-25T14:23:45.968Z</time></trkpt><trkpt lat="45.6474742" lon="10.3376135"><ele>657.0</ele><time>2026-04-25T14:23:46.951Z</time></trkpt><trkpt lat="45.6473706" lon="10.3374128"><ele>659.0</ele><time>2026-04-25T14:23:47.974Z</time></trkpt><trkpt lat="45.6472841" lon="10.3371987"><ele>666.3333333333333</ele><time>2026-04-25T14:23:48.968Z</time></trkpt><trkpt lat="45.6472142" lon="10.3369775"><ele>673.6666666666666</ele><time>2026-04-25T14:23:49.941Z</time></trkpt><trkpt lat="45.6471611" lon="10.3367271"><ele>681.0</ele><time>2026-04-25T14:23:50.976Z</time></trkpt><trkpt lat="45.6471305" lon="10.3364745"><ele>681.6666666666666</ele><time>2026-04-25T14:23:51.977Z</time></trkpt><trkpt lat="45.6471173" lon="10.336224"><ele>682.3333333333333</ele><time>2026-04-25T14:23:52.943Z</time></trkpt><trkpt lat="45.6471195" lon="10.3359614"><ele>683.0</ele><time>2026-04-25T14:23:53.945Z</time></trkpt><trkpt lat="45.6471341" lon="10.3356934"><ele>682.0</ele><time>2026-04-25T14:23:54.957Z</time></trkpt><trkpt lat="45.6471533" lon="10.3354232"><ele>681.0</ele><time>2026-04-25T14:23:55.955Z</time></trkpt><trkpt lat="45.6471702" lon="10.3351414"><ele>680.0</ele><time>2026-04-25T14:23:56.966Z</time></trkpt><trkpt lat="45.6471863" lon="10.3348602"><ele>680.3333333333333</ele><time>2026-04-25T14:23:57.952Z</time></trkpt><trkpt lat="45.6471991" lon="10.3345833"><ele>680.6666666666666</ele><time>2026-04-25T14:23:58.975Z</time></trkpt><trkpt lat="45.6472032" lon="10.3343208"><ele>681.0</ele><time>2026-04-25T14:23:59.956Z</time></trkpt><trkpt lat="45.6471982" lon="10.3340608"><ele>682.0</ele><time>2026-04-25T14:24:00.94Z</time></trkpt><trkpt lat="45.6471842" lon="10.3337945"><ele>683.0</ele><time>2026-04-25T14:24:01.983Z</time></trkpt><trkpt lat="45.6471685" lon="10.3335595"><ele>684.0</ele><time>2026-04-25T14:24:02.926Z</time></trkpt><trkpt lat="45.647146" lon="10.3333121"><ele>684.0</ele><time>2026-04-25T14:24:03.915Z</time></trkpt><trkpt lat="45.6471161" lon="10.3330773"><ele>684.0</ele><time>2026-04-25T14:24:04.875Z</time></trkpt><trkpt lat="45.6470833" lon="10.332837"><ele>684.0</ele><time>2026-04-25T14:24:05.898Z</time></trkpt><trkpt lat="45.6470492" lon="10.3326138"><ele>690.6666666666666</ele><time>2026-04-25T14:24:06.889Z</time></trkpt><trkpt lat="45.6470153" lon="10.3323865"><ele>697.3333333333333</ele><time>2026-04-25T14:24:07.893Z</time></trkpt><trkpt lat="45.646972" lon="10.3320848"><ele>704.0</ele><time>2026-04-25T14:24:09.224Z</time></trkpt><trkpt lat="45.6469147" lon="10.3316341"><ele>711.3333333333333</ele><time>2026-04-25T14:24:10.958Z</time></trkpt><trkpt lat="45.6468881" lon="10.3314282"><ele>718.6666666666666</ele><time>2026-04-25T14:24:11.971Z</time></trkpt><trkpt lat="45.6468555" lon="10.3312065"><ele>726.0</ele><time>2026-04-25T14:24:12.983Z</time></trkpt><trkpt lat="45.6468234" lon="10.3309839"><ele>731.6666666666666</ele><time>2026-04-25T14:24:13.96Z</time></trkpt><trkpt lat="45.646799" lon="10.3307508"><ele>737.3333333333333</ele><time>2026-04-25T14:24:14.967Z</time></trkpt><trkpt lat="45.6467738" lon="10.3305429"><ele>743.0</ele><time>2026-04-25T14:24:15.971Z</time></trkpt><trkpt lat="45.6467486" lon="10.3303258"><ele>748.3333333333333</ele><time>2026-04-25T14:24:16.955Z</time></trkpt><trkpt lat="45.6467267" lon="10.3301078"><ele>753.6666666666666</ele><time>2026-04-25T14:24:17.906Z</time></trkpt><trkpt lat="45.6467013" lon="10.3298953"><ele>759.0</ele><time>2026-04-25T14:24:18.879Z</time></trkpt><trkpt lat="45.6469971" lon="10.3323845"><ele>722.0</ele><time>2026-04-25T14:24:19.805Z</time></trkpt><trkpt lat="45.6463771" lon="10.3237534"><ele>722.0</ele><time>2026-04-25T14:24:42.761Z</time></trkpt><trkpt lat="45.6464498" lon="10.3235242"><ele>722.0</ele><time>2026-04-25T14:24:43.76Z</time></trkpt><trkpt lat="45.6465245" lon="10.3232914"><ele>722.0</ele><time>2026-04-25T14:24:44.76Z</time></trkpt><trkpt lat="45.6469055" lon="10.3240957"><ele>826.0</ele><time>2026-04-25T14:24:45.946Z</time></trkpt><trkpt lat="45.6479184" lon="10.3257675"><ele>812.0</ele><time>2026-04-25T14:24:46.97Z</time></trkpt><trkpt lat="45.648086" lon="10.3255069"><ele>798.0</ele><time>2026-04-25T14:24:47.976Z</time></trkpt><trkpt lat="45.6482225" lon="10.3252383"><ele>798.0</ele><time>2026-04-25T14:24:48.942Z</time></trkpt><trkpt lat="45.648352" lon="10.3249603"><ele>798.0</ele><time>2026-04-25T14:24:49.951Z</time></trkpt><trkpt lat="45.6484558" lon="10.3246949"><ele>798.0</ele><time>2026-04-25T14:24:50.958Z</time></trkpt><trkpt lat="45.6485371" lon="10.3244938"><ele>792.5</ele><time>2026-04-25T14:24:51.972Z</time></trkpt><trkpt lat="45.648609" lon="10.3243208"><ele>787.0</ele><time>2026-04-25T14:24:52.941Z</time></trkpt><trkpt lat="45.6472371" lon="10.3209491"><ele>787.0</ele><time>2026-04-25T14:24:53.95Z</time></trkpt><trkpt lat="45.6472818" lon="10.3207166"><ele>787.0</ele><time>2026-04-25T14:24:54.924Z</time></trkpt><trkpt lat="45.6483815" lon="10.3175825"><ele>763.0</ele><time>2026-04-25T14:25:08.762Z</time></trkpt><trkpt lat="45.6484187" lon="10.3173493"><ele>739.0</ele><time>2026-04-25T14:25:09.762Z</time></trkpt><trkpt lat="45.6484561" lon="10.3171156"><ele>715.0</ele><time>2026-04-25T14:25:10.761Z</time></trkpt><trkpt lat="45.6484658" lon="10.3168776"><ele>709.0</ele><time>2026-04-25T14:25:11.76Z</time></trkpt><trkpt lat="45.6484518" lon="10.3166302"><ele>703.0</ele><time>2026-04-25T14:25:12.762Z</time></trkpt><trkpt lat="45.6483977" lon="10.3162141"><ele>694.5</ele><time>2026-04-25T14:25:14.94Z</time></trkpt><trkpt lat="45.6483408" lon="10.3158758"><ele>686.0</ele><time>2026-04-25T14:25:15.955Z</time></trkpt><trkpt lat="45.6482879" lon="10.3155667"><ele>680.6666666666666</ele><time>2026-04-25T14:25:16.964Z</time></trkpt><trkpt lat="45.6482468" lon="10.3153396"><ele>675.3333333333334</ele><time>2026-04-25T14:25:17.947Z</time></trkpt><trkpt lat="45.648208" lon="10.3151086"><ele>670.0</ele><time>2026-04-25T14:25:18.955Z</time></trkpt><trkpt lat="45.6481737" lon="10.3148778"><ele>678.0</ele><time>2026-04-25T14:25:19.945Z</time></trkpt><trkpt lat="45.6481361" lon="10.3146376"><ele>686.0</ele><time>2026-04-25T14:25:20.951Z</time></trkpt><trkpt lat="45.6480952" lon="10.3143955"><ele>694.0</ele><time>2026-04-25T14:25:21.955Z</time></trkpt><trkpt lat="45.6480513" lon="10.3141439"><ele>709.6666666666667</ele><time>2026-04-25T14:25:22.977Z</time></trkpt><trkpt lat="45.6480076" lon="10.3138947"><ele>725.3333333333334</ele><time>2026-04-25T14:25:23.973Z</time></trkpt><trkpt lat="45.6479617" lon="10.3136318"><ele>741.0</ele><time>2026-04-25T14:25:25.003Z</time></trkpt><trkpt lat="45.6479197" lon="10.3133826"><ele>741.0</ele><time>2026-04-25T14:25:25.979Z</time></trkpt><trkpt lat="45.6478766" lon="10.3131224"><ele>741.0</ele><time>2026-04-25T14:25:26.948Z</time></trkpt><trkpt lat="45.6478262" lon="10.3128344"><ele>741.0</ele><time>2026-04-25T14:25:27.976Z</time></trkpt><trkpt lat="45.6477766" lon="10.3124959"><ele>744.3333333333334</ele><time>2026-04-25T14:25:28.962Z</time></trkpt><trkpt lat="45.6477255" lon="10.3122279"><ele>747.6666666666667</ele><time>2026-04-25T14:25:29.973Z</time></trkpt><trkpt lat="45.6476789" lon="10.3120067"><ele>751.0</ele><time>2026-04-25T14:25:30.963Z</time></trkpt><trkpt lat="45.647621" lon="10.3117344"><ele>751.0</ele><time>2026-04-25T14:25:31.948Z</time></trkpt><trkpt lat="45.6475678" lon="10.3114448"><ele>751.0</ele><time>2026-04-25T14:25:32.971Z</time></trkpt><trkpt lat="45.6475154" lon="10.3111908"><ele>751.0</ele><time>2026-04-25T14:25:33.955Z</time></trkpt><trkpt lat="45.6474678" lon="10.3109564"><ele>746.0</ele><time>2026-04-25T14:25:34.953Z</time></trkpt><trkpt lat="45.6474152" lon="10.3107288"><ele>741.0</ele><time>2026-04-25T14:25:35.958Z</time></trkpt><trkpt lat="45.647484" lon="10.3104204"><ele>736.0</ele><time>2026-04-25T14:25:36.971Z</time></trkpt><trkpt lat="45.647525" lon="10.3100973"><ele>732.3333333333334</ele><time>2026-04-25T14:25:37.949Z</time></trkpt><trkpt lat="45.6475099" lon="10.3098113"><ele>728.6666666666666</ele><time>2026-04-25T14:25:38.974Z</time></trkpt><trkpt lat="45.6474927" lon="10.3095229"><ele>725.0</ele><time>2026-04-25T14:25:39.942Z</time></trkpt><trkpt lat="45.6474676" lon="10.3091767"><ele>716.6666666666666</ele><time>2026-04-25T14:25:40.968Z</time></trkpt><trkpt lat="45.6474459" lon="10.3088941"><ele>708.3333333333334</ele><time>2026-04-25T14:25:41.984Z</time></trkpt><trkpt lat="45.6474227" lon="10.3086011"><ele>700.0</ele><time>2026-04-25T14:25:42.986Z</time></trkpt><trkpt lat="45.6473995" lon="10.3083293"><ele>698.0</ele><time>2026-04-25T14:25:43.95Z</time></trkpt><trkpt lat="45.6473756" lon="10.3080601"><ele>696.0</ele><time>2026-04-25T14:25:44.974Z</time></trkpt><trkpt lat="45.6473522" lon="10.307806"><ele>694.0</ele><time>2026-04-25T14:25:46.002Z</time></trkpt><trkpt lat="45.6473331" lon="10.3075784"><ele>694.0</ele><time>2026-04-25T14:25:46.983Z</time></trkpt><trkpt lat="45.6473126" lon="10.307346"><ele>694.0</ele><time>2026-04-25T14:25:48.005Z</time></trkpt><trkpt lat="45.6472931" lon="10.307131"><ele>694.0</ele><time>2026-04-25T14:25:48.955Z</time></trkpt><trkpt lat="45.6472735" lon="10.3068954"><ele>699.3333333333334</ele><time>2026-04-25T14:25:49.989Z</time></trkpt><trkpt lat="45.6472556" lon="10.3066753"><ele>704.6666666666666</ele><time>2026-04-25T14:25:50.952Z</time></trkpt><trkpt lat="45.6472358" lon="10.3064362"><ele>710.0</ele><time>2026-04-25T14:25:51.993Z</time></trkpt><trkpt lat="45.6472153" lon="10.3062066"><ele>714.0</ele><time>2026-04-25T14:25:52.976Z</time></trkpt><trkpt lat="45.6471951" lon="10.3059754"><ele>718.0</ele><time>2026-04-25T14:25:53.954Z</time></trkpt><trkpt lat="45.647175" lon="10.3057387"><ele>722.0</ele><time>2026-04-25T14:25:54.953Z</time></trkpt><trkpt lat="45.6471529" lon="10.3054928"><ele>728.3333333333333</ele><time>2026-04-25T14:25:55.984Z</time></trkpt><trkpt lat="45.6471316" lon="10.3052591"><ele>734.6666666666666</ele><time>2026-04-25T14:25:56.958Z</time></trkpt><trkpt lat="45.647113" lon="10.3050136"><ele>741.0</ele><time>2026-04-25T14:25:57.97Z</time></trkpt><trkpt lat="45.6471026" lon="10.3047669"><ele>743.6666666666666</ele><time>2026-04-25T14:25:59.001Z</time></trkpt><trkpt lat="45.6471081" lon="10.3045419"><ele>746.3333333333333</ele><time>2026-04-25T14:25:59.948Z</time></trkpt><trkpt lat="45.6471293" lon="10.3043032"><ele>749.0</ele><time>2026-04-25T14:26:00.964Z</time></trkpt><trkpt lat="45.6471657" lon="10.3040656"><ele>748.6666666666666</ele><time>2026-04-25T14:26:01.985Z</time></trkpt><trkpt lat="45.6472139" lon="10.3038469"><ele>748.3333333333334</ele><time>2026-04-25T14:26:02.941Z</time></trkpt><trkpt lat="45.6472744" lon="10.3036053"><ele>748.0</ele><time>2026-04-25T14:26:03.994Z</time></trkpt><trkpt lat="45.6473312" lon="10.3033713"><ele>748.0</ele><time>2026-04-25T14:26:04.992Z</time></trkpt><trkpt lat="45.6473872" lon="10.3031354"><ele>748.0</ele><time>2026-04-25T14:26:05.977Z</time></trkpt><trkpt lat="45.6474437" lon="10.3028942"><ele>748.0</ele><time>2026-04-25T14:26:06.96Z</time></trkpt><trkpt lat="45.6474997" lon="10.3026562"><ele>742.3333333333334</ele><time>2026-04-25T14:26:07.95Z</time></trkpt><trkpt lat="45.6475561" lon="10.3024234"><ele>736.6666666666666</ele><time>2026-04-25T14:26:08.945Z</time></trkpt><trkpt lat="45.6476133" lon="10.302189"><ele>731.0</ele><time>2026-04-25T14:26:09.97Z</time></trkpt><trkpt lat="45.6476666" lon="10.3019699"><ele>735.3333333333333</ele><time>2026-04-25T14:26:10.948Z</time></trkpt><trkpt lat="45.6477214" lon="10.301744"><ele>739.6666666666666</ele><time>2026-04-25T14:26:11.984Z</time></trkpt><trkpt lat="45.647772" lon="10.3015335"><ele>744.0</ele><time>2026-04-25T14:26:12.971Z</time></trkpt><trkpt lat="45.6478225" lon="10.301325"><ele>744.0</ele><time>2026-04-25T14:26:13.97Z</time></trkpt><trkpt lat="45.6478711" lon="10.3011241"><ele>744.0</ele><time>2026-04-25T14:26:14.945Z</time></trkpt><trkpt lat="45.6479228" lon="10.3009045"><ele>744.0</ele><time>2026-04-25T14:26:15.984Z</time></trkpt><trkpt lat="45.6479649" lon="10.3006839"><ele>744.3333333333334</ele><time>2026-04-25T14:26:16.982Z</time></trkpt><trkpt lat="45.6479899" lon="10.3004504"><ele>744.6666666666667</ele><time>2026-04-25T14:26:17.979Z</time></trkpt><trkpt lat="45.6479918" lon="10.3002091"><ele>745.0</ele><time>2026-04-25T14:26:18.973Z</time></trkpt><trkpt lat="45.6479706" lon="10.2999573"><ele>747.6666666666667</ele><time>2026-04-25T14:26:19.986Z</time></trkpt><trkpt lat="45.6479329" lon="10.2997057"><ele>750.3333333333334</ele><time>2026-04-25T14:26:20.984Z</time></trkpt><trkpt lat="45.6478905" lon="10.2994568"><ele>753.0</ele><time>2026-04-25T14:26:21.955Z</time></trkpt><trkpt lat="45.6478485" lon="10.2991897"><ele>753.0</ele><time>2026-04-25T14:26:22.987Z</time></trkpt><trkpt lat="45.6478185" lon="10.2989346"><ele>753.0</ele><time>2026-04-25T14:26:23.992Z</time></trkpt><trkpt lat="45.6478069" lon="10.2986833"><ele>753.0</ele><time>2026-04-25T14:26:24.998Z</time></trkpt><trkpt lat="45.647816" lon="10.2984481"><ele>752.6666666666666</ele><time>2026-04-25T14:26:25.95Z</time></trkpt><trkpt lat="45.6478476" lon="10.2981973"><ele>752.3333333333333</ele><time>2026-04-25T14:26:26.966Z</time></trkpt><trkpt lat="45.647891" lon="10.2979651"><ele>752.0</ele><time>2026-04-25T14:26:27.926Z</time></trkpt><trkpt lat="45.6479536" lon="10.2977269"><ele>742.5</ele><time>2026-04-25T14:26:28.899Z</time></trkpt><trkpt lat="45.6480311" lon="10.2974731"><ele>733.0</ele><time>2026-04-25T14:26:29.939Z</time></trkpt><trkpt lat="45.6481359" lon="10.2971384"><ele>725.0</ele><time>2026-04-25T14:26:31.327Z</time></trkpt><trkpt lat="45.6483185" lon="10.2967048"><ele>717.0</ele><time>2026-04-25T14:26:32.975Z</time></trkpt><trkpt lat="45.6484034" lon="10.2964755"><ele>719.3333333333334</ele><time>2026-04-25T14:26:33.937Z</time></trkpt><trkpt lat="45.6484751" lon="10.2962335"><ele>721.6666666666667</ele><time>2026-04-25T14:26:34.962Z</time></trkpt><trkpt lat="45.6485577" lon="10.2959623"><ele>724.0</ele><time>2026-04-25T14:26:35.961Z</time></trkpt><trkpt lat="45.6486425" lon="10.2957148"><ele>710.0</ele><time>2026-04-25T14:26:36.962Z</time></trkpt><trkpt lat="45.648746" lon="10.2953862"><ele>696.0</ele><time>2026-04-25T14:26:37.951Z</time></trkpt><trkpt lat="45.6488512" lon="10.2950572"><ele>696.0</ele><time>2026-04-25T14:26:38.975Z</time></trkpt><trkpt lat="45.6489311" lon="10.2948122"><ele>696.0</ele><time>2026-04-25T14:26:39.96Z</time></trkpt><trkpt lat="45.6490176" lon="10.2945567"><ele>696.0</ele><time>2026-04-25T14:26:40.996Z</time></trkpt><trkpt lat="45.6490965" lon="10.2943199"><ele>696.6666666666666</ele><time>2026-04-25T14:26:41.978Z</time></trkpt><trkpt lat="45.6491759" lon="10.2940773"><ele>697.3333333333333</ele><time>2026-04-25T14:26:42.976Z</time></trkpt><trkpt lat="45.6492537" lon="10.2938437"><ele>698.0</ele><time>2026-04-25T14:26:43.958Z</time></trkpt><trkpt lat="45.6493256" lon="10.2936206"><ele>700.3333333333333</ele><time>2026-04-25T14:26:44.945Z</time></trkpt><trkpt lat="45.6493993" lon="10.2934003"><ele>702.6666666666666</ele><time>2026-04-25T14:26:45.954Z</time></trkpt><trkpt lat="45.649471" lon="10.2931878"><ele>705.0</ele><time>2026-04-25T14:26:46.943Z</time></trkpt><trkpt lat="45.6495449" lon="10.2929648"><ele>705.0</ele><time>2026-04-25T14:26:47.98Z</time></trkpt><trkpt lat="45.6496191" lon="10.292743"><ele>705.0</ele><time>2026-04-25T14:26:48.985Z</time></trkpt><trkpt lat="45.6496945" lon="10.2925362"><ele>705.0</ele><time>2026-04-25T14:26:49.95Z</time></trkpt><trkpt lat="45.6497851" lon="10.2923257"><ele>694.3333333333334</ele><time>2026-04-25T14:26:50.948Z</time></trkpt><trkpt lat="45.6498964" lon="10.2921211"><ele>683.6666666666667</ele><time>2026-04-25T14:26:51.971Z</time></trkpt><trkpt lat="45.6500249" lon="10.2919216"><ele>673.0</ele><time>2026-04-25T14:26:52.997Z</time></trkpt><trkpt lat="45.6501402" lon="10.2917475"><ele>673.0</ele><time>2026-04-25T14:26:53.93Z</time></trkpt><trkpt lat="45.6502758" lon="10.2915567"><ele>673.0</ele><time>2026-04-25T14:26:54.919Z</time></trkpt><trkpt lat="45.6504179" lon="10.2913741"><ele>673.0</ele><time>2026-04-25T14:26:55.906Z</time></trkpt><trkpt lat="45.6505684" lon="10.2911933"><ele>675.3333333333334</ele><time>2026-04-25T14:26:56.899Z</time></trkpt><trkpt lat="45.650722" lon="10.2910148"><ele>677.6666666666666</ele><time>2026-04-25T14:26:57.919Z</time></trkpt><trkpt lat="45.6508597" lon="10.2908577"><ele>680.0</ele><time>2026-04-25T14:26:58.901Z</time></trkpt><trkpt lat="45.6510061" lon="10.2906915"><ele>679.6666666666666</ele><time>2026-04-25T14:26:59.922Z</time></trkpt><trkpt lat="45.6511381" lon="10.2905541"><ele>679.3333333333334</ele><time>2026-04-25T14:27:00.894Z</time></trkpt><trkpt lat="45.6512799" lon="10.2904064"><ele>679.0</ele><time>2026-04-25T14:27:01.919Z</time></trkpt><trkpt lat="45.651424" lon="10.290255"><ele>679.0</ele><time>2026-04-25T14:27:02.936Z</time></trkpt><trkpt lat="45.6515648" lon="10.2901019"><ele>679.0</ele><time>2026-04-25T14:27:03.926Z</time></trkpt><trkpt lat="45.6516952" lon="10.2899572"><ele>679.0</ele><time>2026-04-25T14:27:04.905Z</time></trkpt><trkpt lat="45.6518303" lon="10.2898136"><ele>677.0</ele><time>2026-04-25T14:27:05.894Z</time></trkpt><trkpt lat="45.6519662" lon="10.2896726"><ele>675.0</ele><time>2026-04-25T14:27:06.937Z</time></trkpt><trkpt lat="45.6520989" lon="10.2895359"><ele>673.0</ele><time>2026-04-25T14:27:07.92Z</time></trkpt><trkpt lat="45.6522287" lon="10.2893984"><ele>673.0</ele><time>2026-04-25T14:27:08.933Z</time></trkpt><trkpt lat="45.6523561" lon="10.2892619"><ele>673.0</ele><time>2026-04-25T14:27:09.939Z</time></trkpt><trkpt lat="45.6524893" lon="10.289106"><ele>673.0</ele><time>2026-04-25T14:27:10.938Z</time></trkpt><trkpt lat="45.6526044" lon="10.2889406"><ele>669.0</ele><time>2026-04-25T14:27:11.916Z</time></trkpt><trkpt lat="45.6527058" lon="10.2887595"><ele>665.0</ele><time>2026-04-25T14:27:12.902Z</time></trkpt><trkpt lat="45.652796" lon="10.288537"><ele>661.0</ele><time>2026-04-25T14:27:13.94Z</time></trkpt><trkpt lat="45.652868" lon="10.2883041"><ele>673.6666666666667</ele><time>2026-04-25T14:27:14.933Z</time></trkpt><trkpt lat="45.652927" lon="10.2880574"><ele>686.3333333333334</ele><time>2026-04-25T14:27:15.888Z</time></trkpt><trkpt lat="45.6529697" lon="10.2877957"><ele>699.0</ele><time>2026-04-25T14:27:16.926Z</time></trkpt><trkpt lat="45.6530093" lon="10.287549"><ele>699.0</ele><time>2026-04-25T14:27:17.938Z</time></trkpt><trkpt lat="45.6530486" lon="10.2873204"><ele>699.0</ele><time>2026-04-25T14:27:18.896Z</time></trkpt><trkpt lat="45.6530923" lon="10.2870952"><ele>699.0</ele><time>2026-04-25T14:27:19.928Z</time></trkpt><trkpt lat="45.6531323" lon="10.2868676"><ele>695.3333333333334</ele><time>2026-04-25T14:27:20.923Z</time></trkpt><trkpt lat="45.6531713" lon="10.2866353"><ele>691.6666666666667</ele><time>2026-04-25T14:27:21.934Z</time></trkpt><trkpt lat="45.6532172" lon="10.286394"><ele>688.0</ele><time>2026-04-25T14:27:22.936Z</time></trkpt><trkpt lat="45.6532697" lon="10.2861619"><ele>684.6666666666667</ele><time>2026-04-25T14:27:23.93Z</time></trkpt><trkpt lat="45.6533323" lon="10.285941"><ele>681.3333333333334</ele><time>2026-04-25T14:27:24.897Z</time></trkpt><trkpt lat="45.6534159" lon="10.285725"><ele>678.0</ele><time>2026-04-25T14:27:25.92Z</time></trkpt><trkpt lat="45.6535275" lon="10.28551"><ele>681.3333333333334</ele><time>2026-04-25T14:27:26.932Z</time></trkpt><trkpt lat="45.6536507" lon="10.2853145"><ele>684.6666666666667</ele><time>2026-04-25T14:27:27.922Z</time></trkpt><trkpt lat="45.6537871" lon="10.2851138"><ele>688.0</ele><time>2026-04-25T14:27:28.942Z</time></trkpt><trkpt lat="45.6539251" lon="10.284917"><ele>683.0</ele><time>2026-04-25T14:27:29.91Z</time></trkpt><trkpt lat="45.6540683" lon="10.2847091"><ele>678.0</ele><time>2026-04-25T14:27:30.942Z</time></trkpt><trkpt lat="45.6541851" lon="10.2845255"><ele>673.0</ele><time>2026-04-25T14:27:31.92Z</time></trkpt><trkpt lat="45.6542861" lon="10.2843287"><ele>673.0</ele><time>2026-04-25T14:27:32.938Z</time></trkpt><trkpt lat="45.6543642" lon="10.284123"><ele>673.0</ele><time>2026-04-25T14:27:33.932Z</time></trkpt><trkpt lat="45.6544062" lon="10.283895"><ele>673.0</ele><time>2026-04-25T14:27:34.941Z</time></trkpt><trkpt lat="45.6544111" lon="10.2836386"><ele>670.6666666666667</ele><time>2026-04-25T14:27:35.931Z</time></trkpt><trkpt lat="45.6543966" lon="10.2833477"><ele>668.3333333333334</ele><time>2026-04-25T14:27:36.939Z</time></trkpt><trkpt lat="45.654391" lon="10.2830866"><ele>666.0</ele><time>2026-04-25T14:27:37.936Z</time></trkpt><trkpt lat="45.6543908" lon="10.2828367"><ele>665.25</ele><time>2026-04-25T14:27:38.937Z</time></trkpt><trkpt lat="45.6543967" lon="10.2826183"><ele>664.5</ele><time>2026-04-25T14:27:39.918Z</time></trkpt><trkpt lat="45.6544093" lon="10.2824041"><ele>663.75</ele><time>2026-04-25T14:27:40.941Z</time></trkpt><trkpt lat="45.6544429" lon="10.2822254"><ele>663.0</ele><time>2026-04-25T14:27:41.931Z</time></trkpt><trkpt lat="45.654504" lon="10.2820915"><ele>664.75</ele><time>2026-04-25T14:27:42.933Z</time></trkpt><trkpt lat="45.6546066" lon="10.2819934"><ele>666.5</ele><time>2026-04-25T14:27:43.944Z</time></trkpt><trkpt lat="45.6547362" lon="10.2819519"><ele>668.25</ele><time>2026-04-25T14:27:44.93Z</time></trkpt><trkpt lat="45.6548718" lon="10.2819655"><ele>670.0</ele><time>2026-04-25T14:27:45.893Z</time></trkpt><trkpt lat="45.6550229" lon="10.282008"><ele>670.0</ele><time>2026-04-25T14:27:46.897Z</time></trkpt><trkpt lat="45.6551462" lon="10.2820488"><ele>670.0</ele><time>2026-04-25T14:27:47.935Z</time></trkpt><trkpt lat="45.6552531" lon="10.2820748"><ele>670.0</ele><time>2026-04-25T14:27:48.93Z</time></trkpt><trkpt lat="45.6553576" lon="10.2820851"><ele>670.0</ele><time>2026-04-25T14:27:49.89Z</time></trkpt><trkpt lat="45.6554585" lon="10.282057"><ele>670.0</ele><time>2026-04-25T14:27:50.911Z</time></trkpt><trkpt lat="45.6555473" lon="10.2819989"><ele>673.2</ele><time>2026-04-25T14:27:51.908Z</time></trkpt><trkpt lat="45.6556181" lon="10.2819043"><ele>676.4</ele><time>2026-04-25T14:27:52.916Z</time></trkpt><trkpt lat="45.6556712" lon="10.2817701"><ele>679.5999999999999</ele><time>2026-04-25T14:27:53.933Z</time></trkpt><trkpt lat="45.6556987" lon="10.2816116"><ele>682.8</ele><time>2026-04-25T14:27:54.952Z</time></trkpt><trkpt lat="45.6556981" lon="10.2814573"><ele>686.0</ele><time>2026-04-25T14:27:55.91Z</time></trkpt><trkpt lat="45.6556606" lon="10.2812689"><ele>686.0</ele><time>2026-04-25T14:27:56.94Z</time></trkpt><trkpt lat="45.6556147" lon="10.2811072"><ele>686.0</ele><time>2026-04-25T14:27:57.891Z</time></trkpt><trkpt lat="45.6555546" lon="10.2809383"><ele>686.0</ele><time>2026-04-25T14:27:58.941Z</time></trkpt><trkpt lat="45.655504" lon="10.2807841"><ele>686.0</ele><time>2026-04-25T14:27:59.896Z</time></trkpt><trkpt lat="45.6554584" lon="10.2806269"><ele>685.0</ele><time>2026-04-25T14:28:00.898Z</time></trkpt><trkpt lat="45.6554267" lon="10.2804707"><ele>684.0</ele><time>2026-04-25T14:28:01.904Z</time></trkpt><trkpt lat="45.6554121" lon="10.2802995"><ele>683.0</ele><time>2026-04-25T14:28:02.94Z</time></trkpt><trkpt lat="45.6554119" lon="10.2801214"><ele>682.0</ele><time>2026-04-25T14:28:03.933Z</time></trkpt><trkpt lat="45.6554159" lon="10.2799566"><ele>682.0</ele><time>2026-04-25T14:28:04.922Z</time></trkpt><trkpt lat="45.655423" lon="10.2797939"><ele>682.0</ele><time>2026-04-25T14:28:05.922Z</time></trkpt><trkpt lat="45.6554289" lon="10.2796312"><ele>682.0</ele><time>2026-04-25T14:28:06.896Z</time></trkpt><trkpt lat="45.6554288" lon="10.2794331"><ele>682.0</ele><time>2026-04-25T14:28:07.937Z</time></trkpt><trkpt lat="45.6554257" lon="10.2792267"><ele>679.3333333333334</ele><time>2026-04-25T14:28:08.937Z</time></trkpt><trkpt lat="45.6554232" lon="10.2790226"><ele>676.6666666666666</ele><time>2026-04-25T14:28:09.936Z</time></trkpt><trkpt lat="45.6554302" lon="10.2788053"><ele>674.0</ele><time>2026-04-25T14:28:10.896Z</time></trkpt><trkpt lat="45.6554356" lon="10.2785555"><ele>673.3333333333333</ele><time>2026-04-25T14:28:11.902Z</time></trkpt><trkpt lat="45.6554407" lon="10.2782948"><ele>672.6666666666666</ele><time>2026-04-25T14:28:12.933Z</time></trkpt><trkpt lat="45.6554387" lon="10.2780443"><ele>672.0</ele><time>2026-04-25T14:28:13.929Z</time></trkpt><trkpt lat="45.6554197" lon="10.2778188"><ele>673.75</ele><time>2026-04-25T14:28:14.9Z</time></trkpt><trkpt lat="45.6553897" lon="10.2776047"><ele>675.5</ele><time>2026-04-25T14:28:15.92Z</time></trkpt><trkpt lat="45.6553616" lon="10.2774074"><ele>677.25</ele><time>2026-04-25T14:28:16.942Z</time></trkpt><trkpt lat="45.655339" lon="10.2772311"><ele>679.0</ele><time>2026-04-25T14:28:17.9Z</time></trkpt><trkpt lat="45.6553167" lon="10.2770356"><ele>678.5</ele><time>2026-04-25T14:28:18.908Z</time></trkpt><trkpt lat="45.6553031" lon="10.2768384"><ele>678.0</ele><time>2026-04-25T14:28:19.933Z</time></trkpt><trkpt lat="45.6553002" lon="10.2766432"><ele>677.5</ele><time>2026-04-25T14:28:20.875Z</time></trkpt><trkpt lat="45.6553111" lon="10.2764459"><ele>677.0</ele><time>2026-04-25T14:28:21.873Z</time></trkpt><trkpt lat="45.6553384" lon="10.2762239"><ele>677.0</ele><time>2026-04-25T14:28:22.88Z</time></trkpt><trkpt lat="45.6553864" lon="10.2759969"><ele>677.0</ele><time>2026-04-25T14:28:23.917Z</time></trkpt><trkpt lat="45.655456" lon="10.2757632"><ele>677.0</ele><time>2026-04-25T14:28:24.934Z</time></trkpt><trkpt lat="45.6555384" lon="10.275539"><ele>671.3333333333333</ele><time>2026-04-25T14:28:25.941Z</time></trkpt><trkpt lat="45.6556108" lon="10.2753233"><ele>665.6666666666666</ele><time>2026-04-25T14:28:26.919Z</time></trkpt><trkpt lat="45.6556793" lon="10.2751298"><ele>660.0</ele><time>2026-04-25T14:28:27.903Z</time></trkpt><trkpt lat="45.6557466" lon="10.2749427"><ele>659.0</ele><time>2026-04-25T14:28:28.92Z</time></trkpt><trkpt lat="45.6558096" lon="10.2747641"><ele>658.0</ele><time>2026-04-25T14:28:29.895Z</time></trkpt><trkpt lat="45.6558782" lon="10.2745791"><ele>657.0</ele><time>2026-04-25T14:28:30.922Z</time></trkpt><trkpt lat="45.6559434" lon="10.2743989"><ele>656.0</ele><time>2026-04-25T14:28:31.911Z</time></trkpt><trkpt lat="45.656006" lon="10.2742166"><ele>656.0</ele><time>2026-04-25T14:28:32.901Z</time></trkpt><trkpt lat="45.6560681" lon="10.2740401"><ele>656.0</ele><time>2026-04-25T14:28:33.903Z</time></trkpt><trkpt lat="45.6561264" lon="10.273857"><ele>656.0</ele><time>2026-04-25T14:28:34.925Z</time></trkpt><trkpt lat="45.6561773" lon="10.2736933"><ele>656.0</ele><time>2026-04-25T14:28:35.9Z</time></trkpt><trkpt lat="45.6562443" lon="10.273521"><ele>658.4</ele><time>2026-04-25T14:28:36.904Z</time></trkpt><trkpt lat="45.656297" lon="10.2733687"><ele>660.8</ele><time>2026-04-25T14:28:37.925Z</time></trkpt><trkpt lat="45.6563377" lon="10.2732322"><ele>663.1999999999999</ele><time>2026-04-25T14:28:38.934Z</time></trkpt><trkpt lat="45.6563421" lon="10.2731177"><ele>665.5999999999999</ele><time>2026-04-25T14:28:39.92Z</time></trkpt><trkpt lat="45.6563176" lon="10.2730056"><ele>668.0</ele><time>2026-04-25T14:28:40.913Z</time></trkpt><trkpt lat="45.6562571" lon="10.2728923"><ele>668.0</ele><time>2026-04-25T14:28:41.898Z</time></trkpt><trkpt lat="45.6561911" lon="10.2728163"><ele>668.0</ele><time>2026-04-25T14:28:42.916Z</time></trkpt><trkpt lat="45.6561026" lon="10.2727844"><ele>668.0</ele><time>2026-04-25T14:28:43.921Z</time></trkpt><trkpt lat="45.6559987" lon="10.2728023"><ele>668.0</ele><time>2026-04-25T14:28:44.924Z</time></trkpt><trkpt lat="45.6559107" lon="10.272888"><ele>668.0</ele><time>2026-04-25T14:28:45.935Z</time></trkpt><trkpt lat="45.6558234" lon="10.273025"><ele>663.5</ele><time>2026-04-25T14:28:46.927Z</time></trkpt><trkpt lat="45.6557485" lon="10.2731811"><ele>659.0</ele><time>2026-04-25T14:28:47.938Z</time></trkpt><trkpt lat="45.6556925" lon="10.2733174"><ele>654.5</ele><time>2026-04-25T14:28:48.938Z</time></trkpt><trkpt lat="45.6556344" lon="10.2734606"><ele>650.0</ele><time>2026-04-25T14:28:49.908Z</time></trkpt><trkpt lat="45.6555746" lon="10.2736054"><ele>650.0</ele><time>2026-04-25T14:28:50.924Z</time></trkpt><trkpt lat="45.6555104" lon="10.2737517"><ele>650.0</ele><time>2026-04-25T14:28:51.9Z</time></trkpt><trkpt lat="45.6554401" lon="10.2739167"><ele>650.0</ele><time>2026-04-25T14:28:52.929Z</time></trkpt><trkpt lat="45.6553788" lon="10.2740529"><ele>650.0</ele><time>2026-04-25T14:28:53.94Z</time></trkpt><trkpt lat="45.6553062" lon="10.2742074"><ele>648.5</ele><time>2026-04-25T14:28:54.928Z</time></trkpt><trkpt lat="45.6552335" lon="10.274381"><ele>647.0</ele><time>2026-04-25T14:28:55.901Z</time></trkpt><trkpt lat="45.655161" lon="10.274545"><ele>645.5</ele><time>2026-04-25T14:28:56.907Z</time></trkpt><trkpt lat="45.6550977" lon="10.2746845"><ele>644.0</ele><time>2026-04-25T14:28:57.919Z</time></trkpt><trkpt lat="45.6550408" lon="10.2748143"><ele>644.0</ele><time>2026-04-25T14:28:58.905Z</time></trkpt><trkpt lat="45.654984" lon="10.2749369"><ele>644.0</ele><time>2026-04-25T14:28:59.922Z</time></trkpt><trkpt lat="45.6549284" lon="10.2750662"><ele>644.0</ele><time>2026-04-25T14:29:00.933Z</time></trkpt><trkpt lat="45.6548898" lon="10.2751811"><ele>644.0</ele><time>2026-04-25T14:29:01.894Z</time></trkpt><trkpt lat="45.654849" lon="10.2753293"><ele>644.0</ele><time>2026-04-25T14:29:02.899Z</time></trkpt><trkpt lat="45.6548352" lon="10.2754926"><ele>644.0</ele><time>2026-04-25T14:29:03.926Z</time></trkpt><trkpt lat="45.6548424" lon="10.2756579"><ele>644.0</ele><time>2026-04-25T14:29:04.919Z</time></trkpt><trkpt lat="45.6548633" lon="10.2758215"><ele>644.0</ele><time>2026-04-25T14:29:05.945Z</time></trkpt><trkpt lat="45.6548852" lon="10.2759556"><ele>644.0</ele><time>2026-04-25T14:29:06.911Z</time></trkpt><trkpt lat="45.6549059" lon="10.2760919"><ele>644.0</ele><time>2026-04-25T14:29:07.931Z</time></trkpt><trkpt lat="45.6549177" lon="10.276199"><ele>644.0</ele><time>2026-04-25T14:29:08.921Z</time></trkpt><trkpt lat="45.6548976" lon="10.2763014"><ele>644.0</ele><time>2026-04-25T14:29:09.93Z</time></trkpt><trkpt lat="45.6548565" lon="10.2763891"><ele>644.0</ele><time>2026-04-25T14:29:10.903Z</time></trkpt><trkpt lat="45.6547812" lon="10.2764169"><ele>644.0</ele><time>2026-04-25T14:29:11.892Z</time></trkpt><trkpt lat="45.6547022" lon="10.2763925"><ele>644.0</ele><time>2026-04-25T14:29:12.94Z</time></trkpt><trkpt lat="45.6546487" lon="10.2763001"><ele>644.0</ele><time>2026-04-25T14:29:13.93Z</time></trkpt><trkpt lat="45.6546159" lon="10.2761775"><ele>644.0</ele><time>2026-04-25T14:29:14.924Z</time></trkpt><trkpt lat="45.6546216" lon="10.2760427"><ele>644.0</ele><time>2026-04-25T14:29:15.942Z</time></trkpt><trkpt lat="45.6546523" lon="10.2758764"><ele>644.0</ele><time>2026-04-25T14:29:16.945Z</time></trkpt><trkpt lat="45.6546876" lon="10.2757206"><ele>644.0</ele><time>2026-04-25T14:29:17.913Z</time></trkpt><trkpt lat="45.6547054" lon="10.2755462"><ele>644.0</ele><time>2026-04-25T14:29:18.917Z</time></trkpt><trkpt lat="45.6547113" lon="10.2753549"><ele>644.0</ele><time>2026-04-25T14:29:19.939Z</time></trkpt><trkpt lat="45.6547112" lon="10.2751743"><ele>644.0</ele><time>2026-04-25T14:29:20.937Z</time></trkpt><trkpt lat="45.6547129" lon="10.2750013"><ele>644.0</ele><time>2026-04-25T14:29:21.903Z</time></trkpt><trkpt lat="45.6547109" lon="10.2748328"><ele>642.6</ele><time>2026-04-25T14:29:22.927Z</time></trkpt><trkpt lat="45.6547092" lon="10.2746695"><ele>641.2</ele><time>2026-04-25T14:29:23.919Z</time></trkpt><trkpt lat="45.6547071" lon="10.2745178"><ele>639.8000000000001</ele><time>2026-04-25T14:29:24.918Z</time></trkpt><trkpt lat="45.6547035" lon="10.2743539"><ele>638.4000000000001</ele><time>2026-04-25T14:29:25.921Z</time></trkpt><trkpt lat="45.6547003" lon="10.2742024"><ele>637.0</ele><time>2026-04-25T14:29:26.942Z</time></trkpt><trkpt lat="45.6546959" lon="10.274051"><ele>636.1666666666667</ele><time>2026-04-25T14:29:27.899Z</time></trkpt><trkpt lat="45.6546907" lon="10.2739077"><ele>635.3333333333334</ele><time>2026-04-25T14:29:28.918Z</time></trkpt><trkpt lat="45.6546893" lon="10.2737645"><ele>634.5</ele><time>2026-04-25T14:29:29.932Z</time></trkpt><trkpt lat="45.6546825" lon="10.273644"><ele>633.6666666666666</ele><time>2026-04-25T14:29:30.9Z</time></trkpt><trkpt lat="45.6546838" lon="10.2735403"><ele>632.8333333333333</ele><time>2026-04-25T14:29:31.935Z</time></trkpt><trkpt lat="45.654683" lon="10.2734303"><ele>632.0</ele><time>2026-04-25T14:29:32.908Z</time></trkpt><trkpt lat="45.6546906" lon="10.2733122"><ele>632.0</ele><time>2026-04-25T14:29:33.911Z</time></trkpt><trkpt lat="45.6546996" lon="10.2731957"><ele>632.0</ele><time>2026-04-25T14:29:34.929Z</time></trkpt><trkpt lat="45.6547202" lon="10.2730559"><ele>632.0</ele><time>2026-04-25T14:29:35.896Z</time></trkpt><trkpt lat="45.6547516" lon="10.2729126"><ele>632.0</ele><time>2026-04-25T14:29:36.941Z</time></trkpt><trkpt lat="45.6547842" lon="10.2727872"><ele>632.0</ele><time>2026-04-25T14:29:37.897Z</time></trkpt><trkpt lat="45.6548232" lon="10.2726612"><ele>631.0</ele><time>2026-04-25T14:29:38.919Z</time></trkpt><trkpt lat="45.6548526" lon="10.2725467"><ele>630.0</ele><time>2026-04-25T14:29:39.925Z</time></trkpt><trkpt lat="45.6548849" lon="10.2724276"><ele>629.0</ele><time>2026-04-25T14:29:40.918Z</time></trkpt><trkpt lat="45.6549213" lon="10.272325"><ele>628.0</ele><time>2026-04-25T14:29:41.893Z</time></trkpt><trkpt lat="45.6549571" lon="10.2722275"><ele>627.0</ele><time>2026-04-25T14:29:42.903Z</time></trkpt><trkpt lat="45.6549856" lon="10.2721192"><ele>626.0</ele><time>2026-04-25T14:29:43.932Z</time></trkpt><trkpt lat="45.6550038" lon="10.272011"><ele>625.6666666666666</ele><time>2026-04-25T14:29:44.906Z</time></trkpt><trkpt lat="45.6550013" lon="10.2718988"><ele>625.3333333333333</ele><time>2026-04-25T14:29:45.932Z</time></trkpt><trkpt lat="45.6549524" lon="10.2718197"><ele>625.0</ele><time>2026-04-25T14:29:46.933Z</time></trkpt><trkpt lat="45.6548903" lon="10.2717458"><ele>624.6666666666666</ele><time>2026-04-25T14:29:47.94Z</time></trkpt><trkpt lat="45.654811" lon="10.2717042"><ele>624.3333333333334</ele><time>2026-04-25T14:29:48.938Z</time></trkpt><trkpt lat="45.6547276" lon="10.2717229"><ele>624.0</ele><time>2026-04-25T14:29:49.925Z</time></trkpt><trkpt lat="45.6546463" lon="10.2717754"><ele>624.0</ele><time>2026-04-25T14:29:50.937Z</time></trkpt><trkpt lat="45.6545865" lon="10.2718863"><ele>624.0</ele><time>2026-04-25T14:29:51.919Z</time></trkpt><trkpt lat="45.654518" lon="10.2720134"><ele>624.0</ele><time>2026-04-25T14:29:52.934Z</time></trkpt><trkpt lat="45.6544478" lon="10.2721242"><ele>624.0</ele><time>2026-04-25T14:29:53.899Z</time></trkpt><trkpt lat="45.654375" lon="10.2722484"><ele>624.0</ele><time>2026-04-25T14:29:54.949Z</time></trkpt><trkpt lat="45.6543035" lon="10.272354"><ele>620.5</ele><time>2026-04-25T14:29:55.921Z</time></trkpt><trkpt lat="45.6542212" lon="10.2724705"><ele>617.0</ele><time>2026-04-25T14:29:56.934Z</time></trkpt><trkpt lat="45.6541341" lon="10.2726072"><ele>613.5</ele><time>2026-04-25T14:29:57.938Z</time></trkpt><trkpt lat="45.65406" lon="10.2727417"><ele>610.0</ele><time>2026-04-25T14:29:58.895Z</time></trkpt><trkpt lat="45.653989" lon="10.2728959"><ele>610.0</ele><time>2026-04-25T14:29:59.946Z</time></trkpt><trkpt lat="45.653941" lon="10.2730373"><ele>610.0</ele><time>2026-04-25T14:30:00.9Z</time></trkpt><trkpt lat="45.6538951" lon="10.2732093"><ele>610.0</ele><time>2026-04-25T14:30:01.91Z</time></trkpt><trkpt lat="45.6538648" lon="10.2733827"><ele>610.0</ele><time>2026-04-25T14:30:02.925Z</time></trkpt><trkpt lat="45.6538314" lon="10.2735527"><ele>611.6666666666667</ele><time>2026-04-25T14:30:03.927Z</time></trkpt><trkpt lat="45.6538006" lon="10.2737292"><ele>613.3333333333334</ele><time>2026-04-25T14:30:04.927Z</time></trkpt><trkpt lat="45.6537549" lon="10.2739611"><ele>615.0</ele><time>2026-04-25T14:30:06.288Z</time></trkpt><trkpt lat="45.6536771" lon="10.274211"><ele>615.75</ele><time>2026-04-25T14:30:07.978Z</time></trkpt><trkpt lat="45.6536445" lon="10.274374"><ele>616.5</ele><time>2026-04-25T14:30:08.994Z</time></trkpt><trkpt lat="45.6536128" lon="10.2745323"><ele>617.25</ele><time>2026-04-25T14:30:09.971Z</time></trkpt><trkpt lat="45.6535888" lon="10.2746965"><ele>618.0</ele><time>2026-04-25T14:30:10.971Z</time></trkpt><trkpt lat="45.6535751" lon="10.2748582"><ele>617.75</ele><time>2026-04-25T14:30:11.957Z</time></trkpt><trkpt lat="45.6535785" lon="10.2750244"><ele>617.5</ele><time>2026-04-25T14:30:12.98Z</time></trkpt><trkpt lat="45.6535899" lon="10.2751918"><ele>617.25</ele><time>2026-04-25T14:30:13.996Z</time></trkpt><trkpt lat="45.6536085" lon="10.2753609"><ele>617.0</ele><time>2026-04-25T14:30:14.994Z</time></trkpt><trkpt lat="45.653628" lon="10.2755193"><ele>616.6</ele><time>2026-04-25T14:30:15.962Z</time></trkpt><trkpt lat="45.6536433" lon="10.2756812"><ele>616.2</ele><time>2026-04-25T14:30:16.982Z</time></trkpt><trkpt lat="45.6536434" lon="10.2758349"><ele>615.8</ele><time>2026-04-25T14:30:17.99Z</time></trkpt><trkpt lat="45.6536118" lon="10.2759671"><ele>615.4</ele><time>2026-04-25T14:30:18.955Z</time></trkpt><trkpt lat="45.6535419" lon="10.2760705"><ele>615.0</ele><time>2026-04-25T14:30:19.973Z</time></trkpt><trkpt lat="45.6534542" lon="10.2761111"><ele>611.4</ele><time>2026-04-25T14:30:20.956Z</time></trkpt><trkpt lat="45.6533659" lon="10.2761177"><ele>607.8</ele><time>2026-04-25T14:30:21.906Z</time></trkpt><trkpt lat="45.6532652" lon="10.2760684"><ele>604.2</ele><time>2026-04-25T14:30:22.947Z</time></trkpt><trkpt lat="45.6532162" lon="10.275983"><ele>600.6</ele><time>2026-04-25T14:30:23.932Z</time></trkpt><trkpt lat="45.653152" lon="10.2758018"><ele>597.0</ele><time>2026-04-25T14:30:24.922Z</time></trkpt><trkpt lat="45.6531231" lon="10.2755744"><ele>596.75</ele><time>2026-04-25T14:30:25.927Z</time></trkpt><trkpt lat="45.6531234" lon="10.2753522"><ele>596.5</ele><time>2026-04-25T14:30:26.958Z</time></trkpt><trkpt lat="45.6531124" lon="10.2751968"><ele>596.25</ele><time>2026-04-25T14:30:27.917Z</time></trkpt><trkpt lat="45.653107" lon="10.2750443"><ele>596.0</ele><time>2026-04-25T14:30:28.927Z</time></trkpt><trkpt lat="45.6531014" lon="10.2749235"><ele>596.0</ele><time>2026-04-25T14:30:29.944Z</time></trkpt><trkpt lat="45.6530971" lon="10.2748051"><ele>596.0</ele><time>2026-04-25T14:30:30.919Z</time></trkpt><trkpt lat="45.653074" lon="10.2747173"><ele>596.0</ele><time>2026-04-25T14:30:31.921Z</time></trkpt><trkpt lat="45.652973" lon="10.2746764"><ele>596.0</ele><time>2026-04-25T14:30:33.893Z</time></trkpt><trkpt lat="45.6528895" lon="10.2748104"><ele>596.0</ele><time>2026-04-25T14:30:35.903Z</time></trkpt><trkpt lat="45.6528783" lon="10.2749558"><ele>596.0</ele><time>2026-04-25T14:30:36.937Z</time></trkpt><trkpt lat="45.6528638" lon="10.2751277"><ele>596.0</ele><time>2026-04-25T14:30:38.291Z</time></trkpt><trkpt lat="45.6528344" lon="10.2754209"><ele>596.0</ele><time>2026-04-25T14:30:39.961Z</time></trkpt><trkpt lat="45.6528182" lon="10.2755506"><ele>596.0</ele><time>2026-04-25T14:30:40.956Z</time></trkpt><trkpt lat="45.6528099" lon="10.2756756"><ele>596.1666666666666</ele><time>2026-04-25T14:30:41.991Z</time></trkpt><trkpt lat="45.6527993" lon="10.2757955"><ele>596.3333333333333</ele><time>2026-04-25T14:30:42.954Z</time></trkpt><trkpt lat="45.6527875" lon="10.275911"><ele>596.5</ele><time>2026-04-25T14:30:43.955Z</time></trkpt><trkpt lat="45.6527746" lon="10.2760233"><ele>596.6666666666666</ele><time>2026-04-25T14:30:44.993Z</time></trkpt><trkpt lat="45.6527446" lon="10.2761098"><ele>596.8333333333334</ele><time>2026-04-25T14:30:45.947Z</time></trkpt><trkpt lat="45.6526901" lon="10.276185"><ele>597.0</ele><time>2026-04-25T14:30:46.999Z</time></trkpt><trkpt lat="45.6526237" lon="10.2762166"><ele>594.3333333333334</ele><time>2026-04-25T14:30:47.959Z</time></trkpt><trkpt lat="45.6525484" lon="10.2762073"><ele>591.6666666666666</ele><time>2026-04-25T14:30:49Z</time></trkpt><trkpt lat="45.6524832" lon="10.2761574"><ele>589.0</ele><time>2026-04-25T14:30:50.002Z</time></trkpt><trkpt lat="45.6524388" lon="10.2760772"><ele>586.3333333333333</ele><time>2026-04-25T14:30:50.953Z</time></trkpt><trkpt lat="45.6524112" lon="10.2759616"><ele>583.6666666666666</ele><time>2026-04-25T14:30:51.973Z</time></trkpt><trkpt lat="45.6523947" lon="10.2758335"><ele>581.0</ele><time>2026-04-25T14:30:52.971Z</time></trkpt><trkpt lat="45.652377" lon="10.2757047"><ele>580.2</ele><time>2026-04-25T14:30:53.977Z</time></trkpt><trkpt lat="45.6523588" lon="10.2755813"><ele>579.4000000000001</ele><time>2026-04-25T14:30:54.946Z</time></trkpt><trkpt lat="45.6523421" lon="10.2754523"><ele>578.6</ele><time>2026-04-25T14:30:55.955Z</time></trkpt><trkpt lat="45.6523258" lon="10.27532"><ele>577.8000000000001</ele><time>2026-04-25T14:30:56.985Z</time></trkpt><trkpt lat="45.6523103" lon="10.2751884"><ele>577.0</ele><time>2026-04-25T14:30:57.99Z</time></trkpt><trkpt lat="45.6522938" lon="10.2750542"><ele>577.0</ele><time>2026-04-25T14:30:58.995Z</time></trkpt><trkpt lat="45.6522781" lon="10.2749226"><ele>577.0</ele><time>2026-04-25T14:30:59.974Z</time></trkpt><trkpt lat="45.652264" lon="10.2747873"><ele>577.0</ele><time>2026-04-25T14:31:00.961Z</time></trkpt><trkpt lat="45.6522497" lon="10.274645"><ele>577.0</ele><time>2026-04-25T14:31:01.977Z</time></trkpt><trkpt lat="45.6522348" lon="10.2745152"><ele>577.0</ele><time>2026-04-25T14:31:02.96Z</time></trkpt><trkpt lat="45.6522162" lon="10.2743993"><ele>576.5</ele><time>2026-04-25T14:31:03.995Z</time></trkpt><trkpt lat="45.652184" lon="10.2743067"><ele>576.0</ele><time>2026-04-25T14:31:04.984Z</time></trkpt><trkpt lat="45.6521369" lon="10.2742332"><ele>575.5</ele><time>2026-04-25T14:31:05.991Z</time></trkpt><trkpt lat="45.6520722" lon="10.2742285"><ele>575.0</ele><time>2026-04-25T14:31:06.978Z</time></trkpt><trkpt lat="45.6520146" lon="10.2742659"><ele>574.5</ele><time>2026-04-25T14:31:08.001Z</time></trkpt><trkpt lat="45.6519786" lon="10.274429"><ele>574.0</ele><time>2026-04-25T14:31:09.965Z</time></trkpt><trkpt lat="45.6519713" lon="10.2745537"><ele>574.0</ele><time>2026-04-25T14:31:10.984Z</time></trkpt><trkpt lat="45.651962" lon="10.2746802"><ele>574.0</ele><time>2026-04-25T14:31:11.987Z</time></trkpt><trkpt lat="45.6519555" lon="10.2747987"><ele>574.0</ele><time>2026-04-25T14:31:12.995Z</time></trkpt><trkpt lat="45.6519507" lon="10.2749056"><ele>574.0</ele><time>2026-04-25T14:31:13.979Z</time></trkpt><trkpt lat="45.6519472" lon="10.2750068"><ele>574.0</ele><time>2026-04-25T14:31:14.952Z</time></trkpt><trkpt lat="45.6519425" lon="10.2751064"><ele>574.0</ele><time>2026-04-25T14:31:15.979Z</time></trkpt><trkpt lat="45.6519385" lon="10.2751992"><ele>572.7142857142857</ele><time>2026-04-25T14:31:16.982Z</time></trkpt><trkpt lat="45.6519345" lon="10.2752918"><ele>571.4285714285714</ele><time>2026-04-25T14:31:17.998Z</time></trkpt><trkpt lat="45.6519261" lon="10.2753823"><ele>570.1428571428571</ele><time>2026-04-25T14:31:18.978Z</time></trkpt><trkpt lat="45.6519101" lon="10.2754749"><ele>568.8571428571429</ele><time>2026-04-25T14:31:19.956Z</time></trkpt><trkpt lat="45.6518783" lon="10.2755697"><ele>567.5714285714286</ele><time>2026-04-25T14:31:20.98Z</time></trkpt><trkpt lat="45.6518338" lon="10.2756567"><ele>566.2857142857142</ele><time>2026-04-25T14:31:21.982Z</time></trkpt><trkpt lat="45.6517873" lon="10.2757336"><ele>565.0</ele><time>2026-04-25T14:31:22.988Z</time></trkpt><trkpt lat="45.6517369" lon="10.2758063"><ele>565.0</ele><time>2026-04-25T14:31:23.981Z</time></trkpt><trkpt lat="45.6516813" lon="10.2758777"><ele>565.0</ele><time>2026-04-25T14:31:24.952Z</time></trkpt><trkpt lat="45.6516203" lon="10.275944"><ele>565.0</ele><time>2026-04-25T14:31:25.958Z</time></trkpt><trkpt lat="45.6515551" lon="10.2760039"><ele>565.0</ele><time>2026-04-25T14:31:26.987Z</time></trkpt><trkpt lat="45.6514914" lon="10.2760557"><ele>565.0</ele><time>2026-04-25T14:31:27.947Z</time></trkpt><trkpt lat="45.651417" lon="10.2761079"><ele>565.0</ele><time>2026-04-25T14:31:28.983Z</time></trkpt><trkpt lat="45.6513399" lon="10.2761573"><ele>565.0</ele><time>2026-04-25T14:31:29.997Z</time></trkpt><trkpt lat="45.6512657" lon="10.2762005"><ele>565.0</ele><time>2026-04-25T14:31:30.973Z</time></trkpt><trkpt lat="45.6511895" lon="10.2762413"><ele>565.0</ele><time>2026-04-25T14:31:31.972Z</time></trkpt><trkpt lat="45.6511096" lon="10.2762858"><ele>565.0</ele><time>2026-04-25T14:31:32.976Z</time></trkpt><trkpt lat="45.6510276" lon="10.2763337"><ele>565.0</ele><time>2026-04-25T14:31:33.981Z</time></trkpt><trkpt lat="45.6509452" lon="10.2763809"><ele>565.0</ele><time>2026-04-25T14:31:34.952Z</time></trkpt><trkpt lat="45.6508538" lon="10.2764319"><ele>563.4</ele><time>2026-04-25T14:31:35.993Z</time></trkpt><trkpt lat="45.6507644" lon="10.2764823"><ele>561.8</ele><time>2026-04-25T14:31:36.998Z</time></trkpt><trkpt lat="45.6506762" lon="10.2765309"><ele>560.2</ele><time>2026-04-25T14:31:37.959Z</time></trkpt><trkpt lat="45.6505866" lon="10.2765804"><ele>558.6</ele><time>2026-04-25T14:31:38.981Z</time></trkpt><trkpt lat="45.650499" lon="10.2766263"><ele>557.0</ele><time>2026-04-25T14:31:39.956Z</time></trkpt><trkpt lat="45.650409" lon="10.2766649"><ele>557.0</ele><time>2026-04-25T14:31:40.977Z</time></trkpt><trkpt lat="45.6503267" lon="10.2767113"><ele>557.0</ele><time>2026-04-25T14:31:41.967Z</time></trkpt><trkpt lat="45.650252" lon="10.276778"><ele>557.0</ele><time>2026-04-25T14:31:42.956Z</time></trkpt><trkpt lat="45.6501826" lon="10.2768577"><ele>557.0</ele><time>2026-04-25T14:31:43.96Z</time></trkpt><trkpt lat="45.6501154" lon="10.2769387"><ele>557.0</ele><time>2026-04-25T14:31:44.956Z</time></trkpt><trkpt lat="45.6500522" lon="10.2770045"><ele>557.0</ele><time>2026-04-25T14:31:45.954Z</time></trkpt><trkpt lat="45.6499884" lon="10.2770372"><ele>554.4</ele><time>2026-04-25T14:31:46.954Z</time></trkpt><trkpt lat="45.6499245" lon="10.2770206"><ele>551.8000000000001</ele><time>2026-04-25T14:31:47.958Z</time></trkpt><trkpt lat="45.6498578" lon="10.2768989"><ele>549.2</ele><time>2026-04-25T14:31:49.981Z</time></trkpt><trkpt lat="45.6498588" lon="10.2767494"><ele>546.6</ele><time>2026-04-25T14:31:51.949Z</time></trkpt><trkpt lat="45.649874" lon="10.2765922"><ele>544.0</ele><time>2026-04-25T14:31:54.003Z</time></trkpt><trkpt lat="45.6498783" lon="10.2764564"><ele>543.0</ele><time>2026-04-25T14:31:55.997Z</time></trkpt><trkpt lat="45.6498656" lon="10.2762975"><ele>542.0</ele><time>2026-04-25T14:31:58.001Z</time></trkpt><trkpt lat="45.649859" lon="10.2762023"><ele>541.0</ele><time>2026-04-25T14:31:58.979Z</time></trkpt><trkpt lat="45.6498537" lon="10.276095"><ele>540.0</ele><time>2026-04-25T14:31:59.979Z</time></trkpt><trkpt lat="45.6498511" lon="10.2759867"><ele>539.0</ele><time>2026-04-25T14:32:00.952Z</time></trkpt><trkpt lat="45.6498543" lon="10.2758751"><ele>538.0</ele><time>2026-04-25T14:32:01.951Z</time></trkpt><trkpt lat="45.6498641" lon="10.2757585"><ele>538.0</ele><time>2026-04-25T14:32:02.988Z</time></trkpt><trkpt lat="45.6498788" lon="10.2756396"><ele>538.0</ele><time>2026-04-25T14:32:03.987Z</time></trkpt><trkpt lat="45.6498966" lon="10.2755104"><ele>538.0</ele><time>2026-04-25T14:32:04.984Z</time></trkpt><trkpt lat="45.6499172" lon="10.2753711"><ele>538.0</ele><time>2026-04-25T14:32:05.997Z</time></trkpt><trkpt lat="45.6499367" lon="10.275239"><ele>538.0</ele><time>2026-04-25T14:32:06.959Z</time></trkpt><trkpt lat="45.6499558" lon="10.2751"><ele>537.0</ele><time>2026-04-25T14:32:07.984Z</time></trkpt><trkpt lat="45.6499765" lon="10.2749633"><ele>536.0</ele><time>2026-04-25T14:32:08.988Z</time></trkpt><trkpt lat="45.6499966" lon="10.2748274"><ele>535.0</ele><time>2026-04-25T14:32:09.987Z</time></trkpt><trkpt lat="45.6500151" lon="10.2746882"><ele>534.0</ele><time>2026-04-25T14:32:10.992Z</time></trkpt><trkpt lat="45.6500346" lon="10.2745548"><ele>533.0</ele><time>2026-04-25T14:32:11.963Z</time></trkpt><trkpt lat="45.6500561" lon="10.2744165"><ele>531.8</ele><time>2026-04-25T14:32:12.989Z</time></trkpt><trkpt lat="45.6500733" lon="10.2742736"><ele>530.5999999999999</ele><time>2026-04-25T14:32:13.984Z</time></trkpt><trkpt lat="45.6500881" lon="10.2741207"><ele>529.4000000000001</ele><time>2026-04-25T14:32:14.984Z</time></trkpt><trkpt lat="45.6501022" lon="10.2739555"><ele>528.2</ele><time>2026-04-25T14:32:16Z</time></trkpt><trkpt lat="45.6501154" lon="10.2737837"><ele>527.0</ele><time>2026-04-25T14:32:16.995Z</time></trkpt><trkpt lat="45.6501261" lon="10.2736198"><ele>527.0</ele><time>2026-04-25T14:32:17.952Z</time></trkpt><trkpt lat="45.6501263" lon="10.2734482"><ele>527.0</ele><time>2026-04-25T14:32:18.962Z</time></trkpt><trkpt lat="45.6501082" lon="10.2732838"><ele>527.0</ele><time>2026-04-25T14:32:19.962Z</time></trkpt><trkpt lat="45.6500751" lon="10.2731281"><ele>527.0</ele><time>2026-04-25T14:32:20.968Z</time></trkpt><trkpt lat="45.6500232" lon="10.2729775"><ele>527.0</ele><time>2026-04-25T14:32:21.996Z</time></trkpt><trkpt lat="45.6499609" lon="10.2728382"><ele>527.0</ele><time>2026-04-25T14:32:22.985Z</time></trkpt><trkpt lat="45.6498932" lon="10.272694"><ele>527.0</ele><time>2026-04-25T14:32:23.997Z</time></trkpt><trkpt lat="45.6498288" lon="10.2725549"><ele>527.0</ele><time>2026-04-25T14:32:24.957Z</time></trkpt><trkpt lat="45.6497634" lon="10.2724102"><ele>527.0</ele><time>2026-04-25T14:32:25.98Z</time></trkpt><trkpt lat="45.6497036" lon="10.2722696"><ele>527.0</ele><time>2026-04-25T14:32:26.989Z</time></trkpt><trkpt lat="45.6496539" lon="10.2721305"><ele>527.0</ele><time>2026-04-25T14:32:27.954Z</time></trkpt><trkpt lat="45.6496124" lon="10.2719615"><ele>527.0</ele><time>2026-04-25T14:32:29Z</time></trkpt><trkpt lat="45.6495819" lon="10.271793"><ele>527.0</ele><time>2026-04-25T14:32:29.988Z</time></trkpt><trkpt lat="45.6495609" lon="10.2716248"><ele>527.0</ele><time>2026-04-25T14:32:30.983Z</time></trkpt><trkpt lat="45.6495461" lon="10.2714554"><ele>527.0</ele><time>2026-04-25T14:32:32.003Z</time></trkpt><trkpt lat="45.6495396" lon="10.2712953"><ele>527.0</ele><time>2026-04-25T14:32:32.96Z</time></trkpt><trkpt lat="45.6495439" lon="10.2711221"><ele>526.75</ele><time>2026-04-25T14:32:33.955Z</time></trkpt><trkpt lat="45.6495533" lon="10.2709289"><ele>526.5</ele><time>2026-04-25T14:32:35.025Z</time></trkpt><trkpt lat="45.6495617" lon="10.2707606"><ele>526.25</ele><time>2026-04-25T14:32:35.991Z</time></trkpt><trkpt lat="45.6495692" lon="10.270595"><ele>526.0</ele><time>2026-04-25T14:32:36.971Z</time></trkpt><trkpt lat="45.6495736" lon="10.2704343"><ele>525.0</ele><time>2026-04-25T14:32:37.953Z</time></trkpt><trkpt lat="45.64958" lon="10.2702714"><ele>524.0</ele><time>2026-04-25T14:32:38.979Z</time></trkpt><trkpt lat="45.6495947" lon="10.2701139"><ele>523.0</ele><time>2026-04-25T14:32:39.981Z</time></trkpt><trkpt lat="45.6496141" lon="10.2699483"><ele>522.0</ele><time>2026-04-25T14:32:40.985Z</time></trkpt><trkpt lat="45.6496372" lon="10.2697795"><ele>519.75</ele><time>2026-04-25T14:32:41.964Z</time></trkpt><trkpt lat="45.6496616" lon="10.2696001"><ele>517.5</ele><time>2026-04-25T14:32:42.959Z</time></trkpt><trkpt lat="45.6496848" lon="10.2694115"><ele>515.25</ele><time>2026-04-25T14:32:43.957Z</time></trkpt><trkpt lat="45.6497049" lon="10.2692226"><ele>513.0</ele><time>2026-04-25T14:32:44.957Z</time></trkpt><trkpt lat="45.6497244" lon="10.2690161"><ele>512.0</ele><time>2026-04-25T14:32:45.958Z</time></trkpt><trkpt lat="45.6497481" lon="10.2688369"><ele>511.0</ele><time>2026-04-25T14:32:46.951Z</time></trkpt><trkpt lat="45.6497686" lon="10.2686617"><ele>510.0</ele><time>2026-04-25T14:32:47.949Z</time></trkpt><trkpt lat="45.6497906" lon="10.2684887"><ele>509.0</ele><time>2026-04-25T14:32:48.986Z</time></trkpt><trkpt lat="45.6498099" lon="10.2683194"><ele>509.0</ele><time>2026-04-25T14:32:50Z</time></trkpt><trkpt lat="45.6498296" lon="10.2681473"><ele>509.0</ele><time>2026-04-25T14:32:51.012Z</time></trkpt><trkpt lat="45.6498487" lon="10.2679856"><ele>509.0</ele><time>2026-04-25T14:32:51.958Z</time></trkpt><trkpt lat="45.6498695" lon="10.2678105"><ele>509.0</ele><time>2026-04-25T14:32:52.96Z</time></trkpt><trkpt lat="45.6498885" lon="10.2676377"><ele>508.25</ele><time>2026-04-25T14:32:53.953Z</time></trkpt><trkpt lat="45.6499096" lon="10.2674596"><ele>507.5</ele><time>2026-04-25T14:32:54.972Z</time></trkpt><trkpt lat="45.6499299" lon="10.2672854"><ele>506.75</ele><time>2026-04-25T14:32:55.96Z</time></trkpt><trkpt lat="45.6499493" lon="10.2671116"><ele>506.0</ele><time>2026-04-25T14:32:56.955Z</time></trkpt><trkpt lat="45.6499711" lon="10.2669436"><ele>504.8333333333333</ele><time>2026-04-25T14:32:57.966Z</time></trkpt><trkpt lat="45.6500029" lon="10.2667947"><ele>503.66666666666663</ele><time>2026-04-25T14:32:58.979Z</time></trkpt><trkpt lat="45.650058" lon="10.2666794"><ele>502.5</ele><time>2026-04-25T14:32:59.973Z</time></trkpt><trkpt lat="45.6501192" lon="10.2665872"><ele>501.33333333333337</ele><time>2026-04-25T14:33:00.992Z</time></trkpt><trkpt lat="45.6501498" lon="10.2664932"><ele>500.1666666666667</ele><time>2026-04-25T14:33:01.963Z</time></trkpt><trkpt lat="45.6501424" lon="10.2663922"><ele>499.0</ele><time>2026-04-25T14:33:02.976Z</time></trkpt><trkpt lat="45.6501004" lon="10.2663198"><ele>499.0</ele><time>2026-04-25T14:33:03.952Z</time></trkpt><trkpt lat="45.6500325" lon="10.2662925"><ele>499.0</ele><time>2026-04-25T14:33:05.004Z</time></trkpt><trkpt lat="45.6499534" lon="10.2663215"><ele>499.0</ele><time>2026-04-25T14:33:06.006Z</time></trkpt><trkpt lat="45.6498614" lon="10.2664036"><ele>499.0</ele><time>2026-04-25T14:33:07Z</time></trkpt><trkpt lat="45.6497596" lon="10.2664963"><ele>499.0</ele><time>2026-04-25T14:33:07.978Z</time></trkpt><trkpt lat="45.6496586" lon="10.2665956"><ele>499.0</ele><time>2026-04-25T14:33:09.014Z</time></trkpt><trkpt lat="45.649572" lon="10.2666916"><ele>499.0</ele><time>2026-04-25T14:33:09.997Z</time></trkpt><trkpt lat="45.6494954" lon="10.2668162"><ele>499.0</ele><time>2026-04-25T14:33:10.996Z</time></trkpt><trkpt lat="45.6494372" lon="10.2669571"><ele>499.0</ele><time>2026-04-25T14:33:11.989Z</time></trkpt><trkpt lat="45.6493831" lon="10.2670888"><ele>499.0</ele><time>2026-04-25T14:33:12.988Z</time></trkpt><trkpt lat="45.6493346" lon="10.2672167"><ele>498.00000000000006</ele><time>2026-04-25T14:33:14.006Z</time></trkpt><trkpt lat="45.6492902" lon="10.2673352"><ele>497.0</ele><time>2026-04-25T14:33:14.998Z</time></trkpt><trkpt lat="45.6492469" lon="10.2674435"><ele>496.0</ele><time>2026-04-25T14:33:15.959Z</time></trkpt><trkpt lat="45.649202" lon="10.2675418"><ele>495.0</ele><time>2026-04-25T14:33:16.989Z</time></trkpt><trkpt lat="45.6491628" lon="10.2676197"><ele>494.00000000000006</ele><time>2026-04-25T14:33:17.991Z</time></trkpt><trkpt lat="45.6491023" lon="10.2677317"><ele>493.0</ele><time>2026-04-25T14:33:20Z</time></trkpt><trkpt lat="45.649056" lon="10.2678136"><ele>493.00000000000006</ele><time>2026-04-25T14:33:21.994Z</time></trkpt><trkpt lat="45.6490116" lon="10.2678886"><ele>493.0</ele><time>2026-04-25T14:33:23.956Z</time></trkpt><trkpt lat="45.6489632" lon="10.2679541"><ele>493.0</ele><time>2026-04-25T14:33:25.955Z</time></trkpt><trkpt lat="45.6489051" lon="10.2680159"><ele>493.0</ele><time>2026-04-25T14:33:28.948Z</time></trkpt><trkpt lat="45.6488514" lon="10.2680705"><ele>493.00000000000006</ele><time>2026-04-25T14:33:40.963Z</time></trkpt><trkpt lat="45.6487672" lon="10.2681656"><ele>493.0</ele><time>2026-04-25T14:33:42.947Z</time></trkpt><trkpt lat="45.6486858" lon="10.2682331"><ele>492.2</ele><time>2026-04-25T14:33:43.987Z</time></trkpt><trkpt lat="45.648592" lon="10.2683047"><ele>491.4</ele><time>2026-04-25T14:33:44.992Z</time></trkpt><trkpt lat="45.6484984" lon="10.2683849"><ele>490.59999999999997</ele><time>2026-04-25T14:33:45.999Z</time></trkpt><trkpt lat="45.6484153" lon="10.2684604"><ele>489.79999999999995</ele><time>2026-04-25T14:33:46.963Z</time></trkpt><trkpt lat="45.6483336" lon="10.2685355"><ele>489.0</ele><time>2026-04-25T14:33:47.958Z</time></trkpt><trkpt lat="45.6482529" lon="10.2686017"><ele>489.0</ele><time>2026-04-25T14:33:48.952Z</time></trkpt><trkpt lat="45.6481704" lon="10.2686645"><ele>489.0</ele><time>2026-04-25T14:33:49.997Z</time></trkpt><trkpt lat="45.6480953" lon="10.2687173"><ele>489.0</ele><time>2026-04-25T14:33:50.994Z</time></trkpt><trkpt lat="45.648024" lon="10.2687613"><ele>489.0</ele><time>2026-04-25T14:33:51.969Z</time></trkpt><trkpt lat="45.6479513" lon="10.2687954"><ele>489.0</ele><time>2026-04-25T14:33:52.984Z</time></trkpt><trkpt lat="45.6478824" lon="10.2688027"><ele>489.0</ele><time>2026-04-25T14:33:53.983Z</time></trkpt><trkpt lat="45.6477909" lon="10.2687004"><ele>489.0</ele><time>2026-04-25T14:33:55.998Z</time></trkpt><trkpt lat="45.6478171" lon="10.2685181"><ele>489.0</ele><time>2026-04-25T14:33:57.948Z</time></trkpt><trkpt lat="45.6478628" lon="10.2684059"><ele>489.0</ele><time>2026-04-25T14:33:58.973Z</time></trkpt><trkpt lat="45.6479163" lon="10.2682847"><ele>489.0</ele><time>2026-04-25T14:34:00.007Z</time></trkpt><trkpt lat="45.6479674" lon="10.2681636"><ele>489.0</ele><time>2026-04-25T14:34:00.956Z</time></trkpt><trkpt lat="45.6480239" lon="10.2680349"><ele>488.2</ele><time>2026-04-25T14:34:01.944Z</time></trkpt><trkpt lat="45.6480811" lon="10.2679116"><ele>487.4</ele><time>2026-04-25T14:34:02.949Z</time></trkpt><trkpt lat="45.6481335" lon="10.2677897"><ele>486.6</ele><time>2026-04-25T14:34:03.974Z</time></trkpt><trkpt lat="45.6481859" lon="10.2676734"><ele>485.8</ele><time>2026-04-25T14:34:04.958Z</time></trkpt><trkpt lat="45.6482458" lon="10.2675503"><ele>485.0</ele><time>2026-04-25T14:34:05.954Z</time></trkpt><trkpt lat="45.6483067" lon="10.2674238"><ele>485.0</ele><time>2026-04-25T14:34:06.993Z</time></trkpt><trkpt lat="45.6483555" lon="10.26731"><ele>485.0</ele><time>2026-04-25T14:34:07.944Z</time></trkpt><trkpt lat="45.6483928" lon="10.26718"><ele>485.0</ele><time>2026-04-25T14:34:08.968Z</time></trkpt><trkpt lat="45.6484034" lon="10.2670373"><ele>485.0</ele><time>2026-04-25T14:34:09.957Z</time></trkpt><trkpt lat="45.6483838" lon="10.2668881"><ele>485.0</ele><time>2026-04-25T14:34:10.969Z</time></trkpt><trkpt lat="45.6483489" lon="10.2667401"><ele>484.2</ele><time>2026-04-25T14:34:11.94Z</time></trkpt><trkpt lat="45.6483029" lon="10.2665958"><ele>483.4</ele><time>2026-04-25T14:34:12.959Z</time></trkpt><trkpt lat="45.6482568" lon="10.2664634"><ele>482.6</ele><time>2026-04-25T14:34:13.95Z</time></trkpt><trkpt lat="45.6482112" lon="10.2663386"><ele>481.8</ele><time>2026-04-25T14:34:14.957Z</time></trkpt><trkpt lat="45.6481711" lon="10.2662105"><ele>481.0</ele><time>2026-04-25T14:34:15.946Z</time></trkpt><trkpt lat="45.6481344" lon="10.2660645"><ele>480.75</ele><time>2026-04-25T14:34:16.993Z</time></trkpt><trkpt lat="45.6481183" lon="10.2659072"><ele>480.5</ele><time>2026-04-25T14:34:18Z</time></trkpt><trkpt lat="45.6481292" lon="10.2657429"><ele>480.25</ele><time>2026-04-25T14:34:18.978Z</time></trkpt><trkpt lat="45.6481682" lon="10.2655713"><ele>480.0</ele><time>2026-04-25T14:34:19.995Z</time></trkpt><trkpt lat="45.6482122" lon="10.2653996"><ele>478.0</ele><time>2026-04-25T14:34:20.981Z</time></trkpt><trkpt lat="45.6483098" lon="10.2652634"><ele>476.0</ele><time>2026-04-25T14:34:21.987Z</time></trkpt><trkpt lat="45.6484026" lon="10.2651394"><ele>474.0</ele><time>2026-04-25T14:34:22.978Z</time></trkpt><trkpt lat="45.6484863" lon="10.265019"><ele>472.0</ele><time>2026-04-25T14:34:23.963Z</time></trkpt><trkpt lat="45.6485619" lon="10.2648856"><ele>472.0</ele><time>2026-04-25T14:34:24.983Z</time></trkpt><trkpt lat="45.6486208" lon="10.2647427"><ele>472.0</ele><time>2026-04-25T14:34:25.959Z</time></trkpt><trkpt lat="45.6486713" lon="10.2645816"><ele>472.0</ele><time>2026-04-25T14:34:27.006Z</time></trkpt><trkpt lat="45.648713" lon="10.2644316"><ele>472.0</ele><time>2026-04-25T14:34:27.988Z</time></trkpt><trkpt lat="45.6487516" lon="10.2642882"><ele>472.0</ele><time>2026-04-25T14:34:28.967Z</time></trkpt><trkpt lat="45.6487914" lon="10.2641437"><ele>472.00000000000006</ele><time>2026-04-25T14:34:29.974Z</time></trkpt><trkpt lat="45.6488304" lon="10.2639989"><ele>472.00000000000006</ele><time>2026-04-25T14:34:31Z</time></trkpt><trkpt lat="45.6488705" lon="10.2638515"><ele>472.0</ele><time>2026-04-25T14:34:32.002Z</time></trkpt><trkpt lat="45.648908" lon="10.263714"><ele>472.0</ele><time>2026-04-25T14:34:32.961Z</time></trkpt><trkpt lat="45.6489451" lon="10.2635756"><ele>470.6</ele><time>2026-04-25T14:34:33.956Z</time></trkpt><trkpt lat="45.6489814" lon="10.2634322"><ele>469.20000000000005</ele><time>2026-04-25T14:34:35.009Z</time></trkpt><trkpt lat="45.6490107" lon="10.2633149"><ele>467.8</ele><time>2026-04-25T14:34:35.983Z</time></trkpt><trkpt lat="45.6490396" lon="10.2632064"><ele>466.4</ele><time>2026-04-25T14:34:36.995Z</time></trkpt><trkpt lat="45.6490643" lon="10.2631139"><ele>465.0</ele><time>2026-04-25T14:34:37.961Z</time></trkpt><trkpt lat="45.6491026" lon="10.2629679"><ele>464.1428571428571</ele><time>2026-04-25T14:34:39.971Z</time></trkpt><trkpt lat="45.6491288" lon="10.2628714"><ele>463.28571428571433</ele><time>2026-04-25T14:34:41.992Z</time></trkpt><trkpt lat="45.6491546" lon="10.2627804"><ele>462.42857142857144</ele><time>2026-04-25T14:34:44.976Z</time></trkpt><trkpt lat="45.6491784" lon="10.2626863"><ele>461.57142857142856</ele><time>2026-04-25T14:34:59.965Z</time></trkpt><trkpt lat="45.6492005" lon="10.2626005"><ele>460.71428571428567</ele><time>2026-04-25T14:35:04.952Z</time></trkpt><trkpt lat="45.6492274" lon="10.2624855"><ele>459.8571428571429</ele><time>2026-04-25T14:35:06.951Z</time></trkpt><trkpt lat="45.6492559" lon="10.2623975"><ele>459.0</ele><time>2026-04-25T14:35:08.964Z</time></trkpt><trkpt lat="45.6492937" lon="10.2623142"><ele>459.3333333333333</ele><time>2026-04-25T14:35:10.951Z</time></trkpt><trkpt lat="45.6493664" lon="10.262208"><ele>459.66666666666663</ele><time>2026-04-25T14:35:12.96Z</time></trkpt><trkpt lat="45.6494548" lon="10.2620913"><ele>460.0</ele><time>2026-04-25T14:35:14.961Z</time></trkpt><trkpt lat="45.649513" lon="10.2620252"><ele>460.3333333333333</ele><time>2026-04-25T14:35:15.988Z</time></trkpt><trkpt lat="45.6495725" lon="10.261967"><ele>460.66666666666663</ele><time>2026-04-25T14:35:16.966Z</time></trkpt><trkpt lat="45.6496299" lon="10.2619107"><ele>461.0</ele><time>2026-04-25T14:35:17.989Z</time></trkpt><trkpt lat="45.6496824" lon="10.2618435"><ele>461.0</ele><time>2026-04-25T14:35:18.958Z</time></trkpt><trkpt lat="45.6497579" lon="10.2617102"><ele>461.0</ele><time>2026-04-25T14:35:19.979Z</time></trkpt><trkpt lat="45.6498329" lon="10.2615372"><ele>461.0</ele><time>2026-04-25T14:35:20.95Z</time></trkpt><trkpt lat="45.6499139" lon="10.261355"><ele>461.0</ele><time>2026-04-25T14:35:21.991Z</time></trkpt><trkpt lat="45.6499669" lon="10.2612196"><ele>459.6</ele><time>2026-04-25T14:35:22.968Z</time></trkpt><trkpt lat="45.6500131" lon="10.2610476"><ele>458.20000000000005</ele><time>2026-04-25T14:35:24.004Z</time></trkpt><trkpt lat="45.6499812" lon="10.2609208"><ele>456.79999999999995</ele><time>2026-04-25T14:35:27.971Z</time></trkpt><trkpt lat="45.6499865" lon="10.2607788"><ele>455.4</ele><time>2026-04-25T14:35:30.01Z</time></trkpt><trkpt lat="45.6499859" lon="10.260653"><ele>454.0</ele><time>2026-04-25T14:35:31.995Z</time></trkpt><trkpt lat="45.6499856" lon="10.2605321"><ele>453.2</ele><time>2026-04-25T14:35:33.954Z</time></trkpt><trkpt lat="45.6499869" lon="10.2604057"><ele>452.4</ele><time>2026-04-25T14:35:35.959Z</time></trkpt><trkpt lat="45.6499902" lon="10.2602596"><ele>451.6</ele><time>2026-04-25T14:35:37.956Z</time></trkpt><trkpt lat="45.6499957" lon="10.2600708"><ele>450.8</ele><time>2026-04-25T14:35:39.954Z</time></trkpt><trkpt lat="45.6499981" lon="10.2599523"><ele>450.0</ele><time>2026-04-25T14:35:40.95Z</time></trkpt><trkpt lat="45.6500027" lon="10.2598186"><ele>449.6</ele><time>2026-04-25T14:35:41.986Z</time></trkpt><trkpt lat="45.6500066" lon="10.2596707"><ele>449.2</ele><time>2026-04-25T14:35:43.004Z</time></trkpt><trkpt lat="45.650006" lon="10.2595147"><ele>448.79999999999995</ele><time>2026-04-25T14:35:43.984Z</time></trkpt><trkpt lat="45.6500002" lon="10.2593553"><ele>448.4</ele><time>2026-04-25T14:35:44.964Z</time></trkpt><trkpt lat="45.6499905" lon="10.2591835"><ele>448.0</ele><time>2026-04-25T14:35:45.997Z</time></trkpt><trkpt lat="45.6499721" lon="10.2590197"><ele>447.79999999999995</ele><time>2026-04-25T14:35:46.987Z</time></trkpt><trkpt lat="45.6499567" lon="10.2588602"><ele>447.59999999999997</ele><time>2026-04-25T14:35:47.966Z</time></trkpt><trkpt lat="45.6499423" lon="10.2586931"><ele>447.40000000000003</ele><time>2026-04-25T14:35:48.994Z</time></trkpt><trkpt lat="45.6499275" lon="10.2585428"><ele>447.20000000000005</ele><time>2026-04-25T14:35:49.952Z</time></trkpt><trkpt lat="45.6499161" lon="10.2583818"><ele>447.0</ele><time>2026-04-25T14:35:50.975Z</time></trkpt><trkpt lat="45.6499255" lon="10.2582151"><ele>444.66666666666663</ele><time>2026-04-25T14:35:51.963Z</time></trkpt><trkpt lat="45.6499531" lon="10.2580183"><ele>442.3333333333333</ele><time>2026-04-25T14:35:52.958Z</time></trkpt><trkpt lat="45.6499689" lon="10.2578074"><ele>440.0</ele><time>2026-04-25T14:35:53.957Z</time></trkpt><trkpt lat="45.6499843" lon="10.2575542"><ele>440.0</ele><time>2026-04-25T14:35:54.97Z</time></trkpt><trkpt lat="45.6500078" lon="10.2573022"><ele>440.0</ele><time>2026-04-25T14:35:56.005Z</time></trkpt><trkpt lat="45.6500044" lon="10.2571045"><ele>440.0</ele><time>2026-04-25T14:35:56.963Z</time></trkpt><trkpt lat="45.6500398" lon="10.2568876"><ele>440.0</ele><time>2026-04-25T14:35:58Z</time></trkpt><trkpt lat="45.6500263" lon="10.2567742"><ele>440.0</ele><time>2026-04-25T14:35:58.984Z</time></trkpt><trkpt lat="45.6499248" lon="10.2566887"><ele>440.0</ele><time>2026-04-25T14:36:01.997Z</time></trkpt><trkpt lat="45.6498412" lon="10.2566359"><ele>440.0</ele><time>2026-04-25T14:36:02.961Z</time></trkpt><trkpt lat="45.649753" lon="10.2565868"><ele>440.0</ele><time>2026-04-25T14:36:03.993Z</time></trkpt><trkpt lat="45.6496772" lon="10.2565291"><ele>440.6</ele><time>2026-04-25T14:36:04.971Z</time></trkpt><trkpt lat="45.6496124" lon="10.2564448"><ele>441.2</ele><time>2026-04-25T14:36:05.994Z</time></trkpt><trkpt lat="45.6495714" lon="10.2563337"><ele>441.79999999999995</ele><time>2026-04-25T14:36:06.99Z</time></trkpt><trkpt lat="45.6495533" lon="10.256195"><ele>442.4</ele><time>2026-04-25T14:36:08.002Z</time></trkpt><trkpt lat="45.6495399" lon="10.2560526"><ele>443.0</ele><time>2026-04-25T14:36:08.987Z</time></trkpt><trkpt lat="45.6495246" lon="10.2559137"><ele>443.0</ele><time>2026-04-25T14:36:09.955Z</time></trkpt><trkpt lat="45.6495007" lon="10.2557645"><ele>442.99999999999994</ele><time>2026-04-25T14:36:10.999Z</time></trkpt><trkpt lat="45.6494625" lon="10.2556256"><ele>442.99999999999994</ele><time>2026-04-25T14:36:11.987Z</time></trkpt><trkpt lat="45.6494061" lon="10.255487"><ele>443.0</ele><time>2026-04-25T14:36:13.004Z</time></trkpt><trkpt lat="45.6493368" lon="10.2553665"><ele>443.0</ele><time>2026-04-25T14:36:13.957Z</time></trkpt><trkpt lat="45.649245" lon="10.2552473"><ele>438.5</ele><time>2026-04-25T14:36:14.983Z</time></trkpt><trkpt lat="45.649143" lon="10.2551406"><ele>434.0</ele><time>2026-04-25T14:36:15.964Z</time></trkpt><trkpt lat="45.6490278" lon="10.255035"><ele>429.5</ele><time>2026-04-25T14:36:16.968Z</time></trkpt><trkpt lat="45.6489105" lon="10.2549298"><ele>425.0</ele><time>2026-04-25T14:36:17.986Z</time></trkpt><trkpt lat="45.6488003" lon="10.2548196"><ele>425.5</ele><time>2026-04-25T14:36:19.002Z</time></trkpt><trkpt lat="45.6487106" lon="10.2546988"><ele>426.0</ele><time>2026-04-25T14:36:19.96Z</time></trkpt><trkpt lat="45.6486377" lon="10.2545418"><ele>426.5</ele><time>2026-04-25T14:36:20.988Z</time></trkpt><trkpt lat="45.6486007" lon="10.2543732"><ele>427.0</ele><time>2026-04-25T14:36:21.948Z</time></trkpt><trkpt lat="45.6485926" lon="10.2541783"><ele>425.6666666666667</ele><time>2026-04-25T14:36:22.985Z</time></trkpt><trkpt lat="45.6486179" lon="10.2539805"><ele>424.33333333333337</ele><time>2026-04-25T14:36:24.002Z</time></trkpt><trkpt lat="45.6486726" lon="10.253776"><ele>423.0</ele><time>2026-04-25T14:36:24.992Z</time></trkpt><trkpt lat="45.6487356" lon="10.2535624"><ele>423.0</ele><time>2026-04-25T14:36:26.011Z</time></trkpt><trkpt lat="45.6487987" lon="10.2533404"><ele>423.0</ele><time>2026-04-25T14:36:27.008Z</time></trkpt><trkpt lat="45.6488587" lon="10.2531292"><ele>423.0</ele><time>2026-04-25T14:36:27.992Z</time></trkpt><trkpt lat="45.6489193" lon="10.2529209"><ele>422.0</ele><time>2026-04-25T14:36:29.001Z</time></trkpt><trkpt lat="45.6489733" lon="10.2527257"><ele>421.0</ele><time>2026-04-25T14:36:29.987Z</time></trkpt><trkpt lat="45.6490275" lon="10.2525303"><ele>420.0</ele><time>2026-04-25T14:36:30.99Z</time></trkpt><trkpt lat="45.6490808" lon="10.2523438"><ele>419.0</ele><time>2026-04-25T14:36:31.971Z</time></trkpt><trkpt lat="45.6491362" lon="10.2521539"><ele>416.0</ele><time>2026-04-25T14:36:32.958Z</time></trkpt><trkpt lat="45.6491943" lon="10.2519509"><ele>413.0</ele><time>2026-04-25T14:36:34.01Z</time></trkpt><trkpt lat="45.6492477" lon="10.251763"><ele>410.0</ele><time>2026-04-25T14:36:35.008Z</time></trkpt><trkpt lat="45.6492984" lon="10.2515888"><ele>407.0</ele><time>2026-04-25T14:36:35.963Z</time></trkpt><trkpt lat="45.6493496" lon="10.251415"><ele>407.25</ele><time>2026-04-25T14:36:36.956Z</time></trkpt><trkpt lat="45.6493991" lon="10.2512499"><ele>407.5</ele><time>2026-04-25T14:36:37.958Z</time></trkpt><trkpt lat="45.6494481" lon="10.2510868"><ele>407.75</ele><time>2026-04-25T14:36:38.981Z</time></trkpt><trkpt lat="45.6494944" lon="10.2509374"><ele>408.0</ele><time>2026-04-25T14:36:39.984Z</time></trkpt><trkpt lat="45.6495377" lon="10.2507975"><ele>408.0</ele><time>2026-04-25T14:36:40.954Z</time></trkpt><trkpt lat="45.6495796" lon="10.2506571"><ele>408.0</ele><time>2026-04-25T14:36:41.956Z</time></trkpt><trkpt lat="45.6496206" lon="10.2505148"><ele>408.0</ele><time>2026-04-25T14:36:42.961Z</time></trkpt><trkpt lat="45.6496589" lon="10.2503629"><ele>408.0</ele><time>2026-04-25T14:36:43.987Z</time></trkpt><trkpt lat="45.6496927" lon="10.2502071"><ele>408.0</ele><time>2026-04-25T14:36:45Z</time></trkpt><trkpt lat="45.6497193" lon="10.2500561"><ele>408.0</ele><time>2026-04-25T14:36:45.967Z</time></trkpt><trkpt lat="45.6497423" lon="10.2499045"><ele>408.0</ele><time>2026-04-25T14:36:46.967Z</time></trkpt><trkpt lat="45.6497641" lon="10.2497538"><ele>408.0</ele><time>2026-04-25T14:36:48Z</time></trkpt><trkpt lat="45.6497804" lon="10.2496188"><ele>408.0</ele><time>2026-04-25T14:36:48.984Z</time></trkpt><trkpt lat="45.6497852" lon="10.2494838"><ele>408.0</ele><time>2026-04-25T14:36:50.004Z</time></trkpt><trkpt lat="45.6497719" lon="10.2493636"><ele>408.0</ele><time>2026-04-25T14:36:50.971Z</time></trkpt><trkpt lat="45.6497343" lon="10.2492606"><ele>408.0</ele><time>2026-04-25T14:36:51.957Z</time></trkpt><trkpt lat="45.6496738" lon="10.2491864"><ele>408.0</ele><time>2026-04-25T14:36:52.962Z</time></trkpt><trkpt lat="45.6495991" lon="10.2491524"><ele>408.0</ele><time>2026-04-25T14:36:53.986Z</time></trkpt><trkpt lat="45.6495236" lon="10.2491623"><ele>408.0</ele><time>2026-04-25T14:36:54.952Z</time></trkpt><trkpt lat="45.649449" lon="10.249224"><ele>408.0</ele><time>2026-04-25T14:36:55.992Z</time></trkpt><trkpt lat="45.6493925" lon="10.2493325"><ele>402.0</ele><time>2026-04-25T14:36:56.988Z</time></trkpt><trkpt lat="45.6493526" lon="10.2494821"><ele>396.0</ele><time>2026-04-25T14:36:57.987Z</time></trkpt><trkpt lat="45.6493185" lon="10.2496667"><ele>390.0</ele><time>2026-04-25T14:36:59.003Z</time></trkpt><trkpt lat="45.649283" lon="10.2498671"><ele>384.0</ele><time>2026-04-25T14:37:00.005Z</time></trkpt><trkpt lat="45.6492511" lon="10.250061"><ele>384.0</ele><time>2026-04-25T14:37:00.96Z</time></trkpt><trkpt lat="45.649215" lon="10.2502834"><ele>384.0</ele><time>2026-04-25T14:37:01.996Z</time></trkpt><trkpt lat="45.6491754" lon="10.2505072"><ele>384.0</ele><time>2026-04-25T14:37:03Z</time></trkpt><trkpt lat="45.6491304" lon="10.2507213"><ele>387.33333333333337</ele><time>2026-04-25T14:37:03.949Z</time></trkpt><trkpt lat="45.6490791" lon="10.2509409"><ele>390.6666666666667</ele><time>2026-04-25T14:37:04.957Z</time></trkpt><trkpt lat="45.6490242" lon="10.2511582"><ele>394.0</ele><time>2026-04-25T14:37:05.999Z</time></trkpt><trkpt lat="45.6489699" lon="10.251349"><ele>397.25</ele><time>2026-04-25T14:37:06.979Z</time></trkpt><trkpt lat="45.6489078" lon="10.2515362"><ele>400.5</ele><time>2026-04-25T14:37:07.993Z</time></trkpt><trkpt lat="45.6488407" lon="10.2517133"><ele>403.75</ele><time>2026-04-25T14:37:09.005Z</time></trkpt><trkpt lat="45.6487744" lon="10.2518829"><ele>407.0</ele><time>2026-04-25T14:37:10.002Z</time></trkpt><trkpt lat="45.6487134" lon="10.2520427"><ele>407.0</ele><time>2026-04-25T14:37:10.958Z</time></trkpt><trkpt lat="45.6486513" lon="10.252206"><ele>407.0</ele><time>2026-04-25T14:37:11.957Z</time></trkpt><trkpt lat="45.6485904" lon="10.2523721"><ele>407.0</ele><time>2026-04-25T14:37:12.987Z</time></trkpt><trkpt lat="45.6485377" lon="10.2525287"><ele>407.0</ele><time>2026-04-25T14:37:13.957Z</time></trkpt><trkpt lat="45.6484889" lon="10.2526879"><ele>403.20000000000005</ele><time>2026-04-25T14:37:14.969Z</time></trkpt><trkpt lat="45.6484454" lon="10.2528374"><ele>399.4</ele><time>2026-04-25T14:37:16.002Z</time></trkpt><trkpt lat="45.6484029" lon="10.2529572"><ele>395.6</ele><time>2026-04-25T14:37:16.997Z</time></trkpt><trkpt lat="45.6483502" lon="10.2530421"><ele>391.79999999999995</ele><time>2026-04-25T14:37:17.993Z</time></trkpt><trkpt lat="45.6482891" lon="10.253076"><ele>388.0</ele><time>2026-04-25T14:37:18.994Z</time></trkpt><trkpt lat="45.6481908" lon="10.2529975"><ele>388.0</ele><time>2026-04-25T14:37:21.011Z</time></trkpt><trkpt lat="45.6482006" lon="10.2528137"><ele>388.0</ele><time>2026-04-25T14:37:23.005Z</time></trkpt><trkpt lat="45.6482429" lon="10.2527155"><ele>388.0</ele><time>2026-04-25T14:37:23.957Z</time></trkpt><trkpt lat="45.6482905" lon="10.2526027"><ele>388.0</ele><time>2026-04-25T14:37:24.954Z</time></trkpt><trkpt lat="45.6483423" lon="10.2524797"><ele>388.0</ele><time>2026-04-25T14:37:25.987Z</time></trkpt><trkpt lat="45.648399" lon="10.2523517"><ele>385.5</ele><time>2026-04-25T14:37:27.012Z</time></trkpt><trkpt lat="45.6484588" lon="10.2522172"><ele>383.0</ele><time>2026-04-25T14:37:27.991Z</time></trkpt><trkpt lat="45.6485214" lon="10.2520674"><ele>380.5</ele><time>2026-04-25T14:37:29.001Z</time></trkpt><trkpt lat="45.6485779" lon="10.2519253"><ele>378.0</ele><time>2026-04-25T14:37:29.957Z</time></trkpt><trkpt lat="45.6486375" lon="10.2517636"><ele>382.0</ele><time>2026-04-25T14:37:30.994Z</time></trkpt><trkpt lat="45.6486894" lon="10.2516022"><ele>386.0</ele><time>2026-04-25T14:37:31.964Z</time></trkpt><trkpt lat="45.6487402" lon="10.2514205"><ele>390.0</ele><time>2026-04-25T14:37:32.997Z</time></trkpt><trkpt lat="45.6487832" lon="10.251237"><ele>394.0</ele><time>2026-04-25T14:37:33.996Z</time></trkpt><trkpt lat="45.6488197" lon="10.2510409"><ele>394.0</ele><time>2026-04-25T14:37:34.99Z</time></trkpt><trkpt lat="45.648852" lon="10.2508342"><ele>394.0</ele><time>2026-04-25T14:37:35.983Z</time></trkpt><trkpt lat="45.6488846" lon="10.2506179"><ele>394.0</ele><time>2026-04-25T14:37:36.976Z</time></trkpt><trkpt lat="45.6489213" lon="10.2503856"><ele>390.6666666666667</ele><time>2026-04-25T14:37:38.014Z</time></trkpt><trkpt lat="45.6489541" lon="10.2501684"><ele>387.33333333333337</ele><time>2026-04-25T14:37:38.96Z</time></trkpt><trkpt lat="45.6489883" lon="10.2499337"><ele>384.0</ele><time>2026-04-25T14:37:39.982Z</time></trkpt><trkpt lat="45.6490193" lon="10.2497037"><ele>382.6666666666667</ele><time>2026-04-25T14:37:40.981Z</time></trkpt><trkpt lat="45.6490469" lon="10.2494731"><ele>381.33333333333337</ele><time>2026-04-25T14:37:41.99Z</time></trkpt><trkpt lat="45.6490701" lon="10.249253"><ele>380.0</ele><time>2026-04-25T14:37:42.963Z</time></trkpt><trkpt lat="45.6490954" lon="10.2490254"><ele>379.33333333333337</ele><time>2026-04-25T14:37:43.983Z</time></trkpt><trkpt lat="45.6491208" lon="10.2488086"><ele>378.6666666666667</ele><time>2026-04-25T14:37:44.961Z</time></trkpt><trkpt lat="45.6491477" lon="10.2485831"><ele>378.0</ele><time>2026-04-25T14:37:45.965Z</time></trkpt><trkpt lat="45.6491761" lon="10.2483523"><ele>378.0</ele><time>2026-04-25T14:37:46.985Z</time></trkpt><trkpt lat="45.6492117" lon="10.248129"><ele>378.0</ele><time>2026-04-25T14:37:47.977Z</time></trkpt><trkpt lat="45.6492632" lon="10.2479128"><ele>378.0</ele><time>2026-04-25T14:37:48.961Z</time></trkpt><trkpt lat="45.6493396" lon="10.2476933"><ele>379.0</ele><time>2026-04-25T14:37:50.015Z</time></trkpt><trkpt lat="45.6494219" lon="10.2475088"><ele>380.0</ele><time>2026-04-25T14:37:50.954Z</time></trkpt><trkpt lat="45.6495224" lon="10.2473167"><ele>381.0</ele><time>2026-04-25T14:37:52.001Z</time></trkpt><trkpt lat="45.6496105" lon="10.2471536"><ele>381.0</ele><time>2026-04-25T14:37:52.983Z</time></trkpt><trkpt lat="45.6496899" lon="10.2470052"><ele>381.0</ele><time>2026-04-25T14:37:53.961Z</time></trkpt><trkpt lat="45.6497673" lon="10.2468498"><ele>381.0</ele><time>2026-04-25T14:37:54.981Z</time></trkpt><trkpt lat="45.6498382" lon="10.2467069"><ele>381.0</ele><time>2026-04-25T14:37:55.969Z</time></trkpt><trkpt lat="45.6499054" lon="10.2465601"><ele>378.0</ele><time>2026-04-25T14:37:56.981Z</time></trkpt><trkpt lat="45.6499674" lon="10.2464127"><ele>375.0</ele><time>2026-04-25T14:37:58.005Z</time></trkpt><trkpt lat="45.6500264" lon="10.2462706"><ele>372.0</ele><time>2026-04-25T14:37:58.983Z</time></trkpt><trkpt lat="45.6500913" lon="10.2461091"><ele>369.0</ele><time>2026-04-25T14:38:00.012Z</time></trkpt><trkpt lat="45.6501566" lon="10.2459644"><ele>369.0</ele><time>2026-04-25T14:38:00.959Z</time></trkpt><trkpt lat="45.6502358" lon="10.2458202"><ele>369.0</ele><time>2026-04-25T14:38:01.983Z</time></trkpt><trkpt lat="45.6503224" lon="10.2456915"><ele>369.0</ele><time>2026-04-25T14:38:02.961Z</time></trkpt><trkpt lat="45.6504246" lon="10.2455624"><ele>369.0</ele><time>2026-04-25T14:38:03.983Z</time></trkpt><trkpt lat="45.6505285" lon="10.2454494"><ele>369.0</ele><time>2026-04-25T14:38:04.995Z</time></trkpt><trkpt lat="45.6506348" lon="10.2453531"><ele>369.0</ele><time>2026-04-25T14:38:05.996Z</time></trkpt><trkpt lat="45.6507387" lon="10.2452714"><ele>369.0</ele><time>2026-04-25T14:38:06.977Z</time></trkpt><trkpt lat="45.650833" lon="10.2451986"><ele>369.0</ele><time>2026-04-25T14:38:07.944Z</time></trkpt><trkpt lat="45.6509258" lon="10.2451226"><ele>369.0</ele><time>2026-04-25T14:38:08.913Z</time></trkpt><trkpt lat="45.6510208" lon="10.2450301"><ele>369.0</ele><time>2026-04-25T14:38:09.935Z</time></trkpt><trkpt lat="45.6510987" lon="10.2449404"><ele>369.0</ele><time>2026-04-25T14:38:10.925Z</time></trkpt><trkpt lat="45.6511697" lon="10.2448328"><ele>369.0</ele><time>2026-04-25T14:38:11.935Z</time></trkpt><trkpt lat="45.6512367" lon="10.2447006"><ele>369.0</ele><time>2026-04-25T14:38:12.946Z</time></trkpt><trkpt lat="45.6512908" lon="10.2445752"><ele>369.0</ele><time>2026-04-25T14:38:13.907Z</time></trkpt><trkpt lat="45.651336" lon="10.2444485"><ele>369.0</ele><time>2026-04-25T14:38:14.929Z</time></trkpt><trkpt lat="45.6513603" lon="10.2443341"><ele>369.0</ele><time>2026-04-25T14:38:15.91Z</time></trkpt><trkpt lat="45.6513708" lon="10.2442237"><ele>369.0</ele><time>2026-04-25T14:38:16.948Z</time></trkpt><trkpt lat="45.6513678" lon="10.2441252"><ele>369.0</ele><time>2026-04-25T14:38:17.953Z</time></trkpt><trkpt lat="45.6513423" lon="10.2439473"><ele>369.0</ele><time>2026-04-25T14:38:19.95Z</time></trkpt><trkpt lat="45.6512916" lon="10.2438121"><ele>369.0</ele><time>2026-04-25T14:38:21.907Z</time></trkpt><trkpt lat="45.6512218" lon="10.2437074"><ele>369.0</ele><time>2026-04-25T14:38:23.951Z</time></trkpt><trkpt lat="45.6511661" lon="10.2436247"><ele>369.0</ele><time>2026-04-25T14:38:26.912Z</time></trkpt><trkpt lat="45.6511171" lon="10.2435332"><ele>369.0</ele><time>2026-04-25T14:38:28.912Z</time></trkpt><trkpt lat="45.6510105" lon="10.2434561"><ele>367.0</ele><time>2026-04-25T14:38:30.929Z</time></trkpt><trkpt lat="45.6509329" lon="10.2434589"><ele>365.0</ele><time>2026-04-25T14:38:31.94Z</time></trkpt><trkpt lat="45.6508442" lon="10.2434667"><ele>363.0</ele><time>2026-04-25T14:38:32.948Z</time></trkpt><trkpt lat="45.6507429" lon="10.2434595"><ele>361.0</ele><time>2026-04-25T14:38:33.948Z</time></trkpt><trkpt lat="45.6506415" lon="10.2434235"><ele>359.0</ele><time>2026-04-25T14:38:34.912Z</time></trkpt><trkpt lat="45.6505507" lon="10.2433442"><ele>359.0</ele><time>2026-04-25T14:38:35.903Z</time></trkpt><trkpt lat="45.6504609" lon="10.2432203"><ele>359.0</ele><time>2026-04-25T14:38:36.951Z</time></trkpt><trkpt lat="45.6503929" lon="10.2430772"><ele>359.0</ele><time>2026-04-25T14:38:37.903Z</time></trkpt><trkpt lat="45.6503381" lon="10.2428951"><ele>359.0</ele><time>2026-04-25T14:38:38.938Z</time></trkpt><trkpt lat="45.6503101" lon="10.2427026"><ele>358.5</ele><time>2026-04-25T14:38:39.947Z</time></trkpt><trkpt lat="45.6503144" lon="10.2425098"><ele>358.0</ele><time>2026-04-25T14:38:40.932Z</time></trkpt><trkpt lat="45.6503389" lon="10.2423076"><ele>357.5</ele><time>2026-04-25T14:38:41.954Z</time></trkpt><trkpt lat="45.6503892" lon="10.2421253"><ele>357.0</ele><time>2026-04-25T14:38:42.934Z</time></trkpt><trkpt lat="45.650463" lon="10.2419436"><ele>357.0</ele><time>2026-04-25T14:38:43.955Z</time></trkpt><trkpt lat="45.6505324" lon="10.2417701"><ele>357.0</ele><time>2026-04-25T14:38:44.943Z</time></trkpt><trkpt lat="45.6505962" lon="10.2415982"><ele>357.0</ele><time>2026-04-25T14:38:45.911Z</time></trkpt><trkpt lat="45.650646" lon="10.2414037"><ele>357.0</ele><time>2026-04-25T14:38:46.935Z</time></trkpt><trkpt lat="45.65069" lon="10.2411866"><ele>355.3333333333333</ele><time>2026-04-25T14:38:47.942Z</time></trkpt><trkpt lat="45.6507371" lon="10.2409656"><ele>353.66666666666663</ele><time>2026-04-25T14:38:48.942Z</time></trkpt><trkpt lat="45.6507834" lon="10.240758"><ele>352.0</ele><time>2026-04-25T14:38:49.915Z</time></trkpt><trkpt lat="45.6508323" lon="10.2405522"><ele>351.75</ele><time>2026-04-25T14:38:50.924Z</time></trkpt><trkpt lat="45.6508747" lon="10.2403459"><ele>351.5</ele><time>2026-04-25T14:38:51.945Z</time></trkpt><trkpt lat="45.6509106" lon="10.2401581"><ele>351.25</ele><time>2026-04-25T14:38:52.95Z</time></trkpt><trkpt lat="45.6509513" lon="10.239979"><ele>351.0</ele><time>2026-04-25T14:38:53.937Z</time></trkpt><trkpt lat="45.6509897" lon="10.2398088"><ele>350.75</ele><time>2026-04-25T14:38:54.905Z</time></trkpt><trkpt lat="45.6510209" lon="10.2396262"><ele>350.5</ele><time>2026-04-25T14:38:55.911Z</time></trkpt><trkpt lat="45.6510642" lon="10.2394221"><ele>350.25</ele><time>2026-04-25T14:38:56.942Z</time></trkpt><trkpt lat="45.6511066" lon="10.2392131"><ele>350.0</ele><time>2026-04-25T14:38:57.946Z</time></trkpt><trkpt lat="45.6511498" lon="10.2389959"><ele>349.6666666666667</ele><time>2026-04-25T14:38:58.943Z</time></trkpt><trkpt lat="45.6511919" lon="10.2387826"><ele>349.3333333333333</ele><time>2026-04-25T14:38:59.947Z</time></trkpt><trkpt lat="45.6512314" lon="10.2385518"><ele>349.0</ele><time>2026-04-25T14:39:00.94Z</time></trkpt><trkpt lat="45.6512782" lon="10.238303"><ele>347.3333333333333</ele><time>2026-04-25T14:39:01.927Z</time></trkpt><trkpt lat="45.6513306" lon="10.2380481"><ele>345.6666666666667</ele><time>2026-04-25T14:39:02.914Z</time></trkpt><trkpt lat="45.6513846" lon="10.237799"><ele>344.0</ele><time>2026-04-25T14:39:03.926Z</time></trkpt><trkpt lat="45.6514263" lon="10.2375779"><ele>344.0</ele><time>2026-04-25T14:39:04.903Z</time></trkpt><trkpt lat="45.6514622" lon="10.2373529"><ele>344.0</ele><time>2026-04-25T14:39:05.951Z</time></trkpt><trkpt lat="45.6514895" lon="10.2371578"><ele>344.0</ele><time>2026-04-25T14:39:06.91Z</time></trkpt><trkpt lat="45.6515186" lon="10.2369622"><ele>344.0</ele><time>2026-04-25T14:39:07.961Z</time></trkpt><trkpt lat="45.6515465" lon="10.236793"><ele>343.4</ele><time>2026-04-25T14:39:08.958Z</time></trkpt><trkpt lat="45.651578" lon="10.2366456"><ele>342.79999999999995</ele><time>2026-04-25T14:39:09.901Z</time></trkpt><trkpt lat="45.6516181" lon="10.2364984"><ele>342.20000000000005</ele><time>2026-04-25T14:39:10.909Z</time></trkpt><trkpt lat="45.651667" lon="10.2363531"><ele>341.6</ele><time>2026-04-25T14:39:11.943Z</time></trkpt><trkpt lat="45.6517243" lon="10.2362184"><ele>341.0</ele><time>2026-04-25T14:39:12.935Z</time></trkpt><trkpt lat="45.6517985" lon="10.2360901"><ele>340.25</ele><time>2026-04-25T14:39:13.941Z</time></trkpt><trkpt lat="45.6518803" lon="10.235964"><ele>339.5</ele><time>2026-04-25T14:39:14.913Z</time></trkpt><trkpt lat="45.6519787" lon="10.2358258"><ele>338.75</ele><time>2026-04-25T14:39:15.942Z</time></trkpt><trkpt lat="45.6520766" lon="10.2356842"><ele>338.0</ele><time>2026-04-25T14:39:16.981Z</time></trkpt><trkpt lat="45.652161" lon="10.235555"><ele>340.5</ele><time>2026-04-25T14:39:17.938Z</time></trkpt><trkpt lat="45.6522429" lon="10.2354199"><ele>343.0</ele><time>2026-04-25T14:39:18.947Z</time></trkpt><trkpt lat="45.6523045" lon="10.2352798"><ele>345.5</ele><time>2026-04-25T14:39:19.943Z</time></trkpt><trkpt lat="45.6523485" lon="10.2351241"><ele>348.0</ele><time>2026-04-25T14:39:20.945Z</time></trkpt><trkpt lat="45.6523723" lon="10.2349504"><ele>346.25</ele><time>2026-04-25T14:39:21.943Z</time></trkpt><trkpt lat="45.6523766" lon="10.2347674"><ele>344.5</ele><time>2026-04-25T14:39:22.936Z</time></trkpt><trkpt lat="45.6523604" lon="10.2345776"><ele>342.75</ele><time>2026-04-25T14:39:23.926Z</time></trkpt><trkpt lat="45.6523422" lon="10.2343877"><ele>341.0</ele><time>2026-04-25T14:39:24.942Z</time></trkpt><trkpt lat="45.6523182" lon="10.2342045"><ele>341.0</ele><time>2026-04-25T14:39:25.93Z</time></trkpt><trkpt lat="45.6522978" lon="10.2340264"><ele>341.0</ele><time>2026-04-25T14:39:26.94Z</time></trkpt><trkpt lat="45.6522854" lon="10.2338535"><ele>341.0</ele><time>2026-04-25T14:39:27.942Z</time></trkpt><trkpt lat="45.6522838" lon="10.2336882"><ele>341.0</ele><time>2026-04-25T14:39:28.951Z</time></trkpt><trkpt lat="45.6522867" lon="10.2335364"><ele>339.4</ele><time>2026-04-25T14:39:29.935Z</time></trkpt><trkpt lat="45.6522942" lon="10.233389"><ele>337.8</ele><time>2026-04-25T14:39:30.913Z</time></trkpt><trkpt lat="45.6523107" lon="10.2332353"><ele>336.2</ele><time>2026-04-25T14:39:31.951Z</time></trkpt><trkpt lat="45.6523451" lon="10.2330811"><ele>334.59999999999997</ele><time>2026-04-25T14:39:32.956Z</time></trkpt><trkpt lat="45.6523992" lon="10.2329307"><ele>333.0</ele><time>2026-04-25T14:39:33.937Z</time></trkpt><trkpt lat="45.6524744" lon="10.2327808"><ele>332.75</ele><time>2026-04-25T14:39:34.915Z</time></trkpt><trkpt lat="45.6525723" lon="10.2326293"><ele>332.5</ele><time>2026-04-25T14:39:35.948Z</time></trkpt><trkpt lat="45.6526795" lon="10.2325072"><ele>332.25</ele><time>2026-04-25T14:39:36.917Z</time></trkpt><trkpt lat="45.6527969" lon="10.2323928"><ele>332.0</ele><time>2026-04-25T14:39:37.949Z</time></trkpt><trkpt lat="45.6529088" lon="10.2322834"><ele>332.0</ele><time>2026-04-25T14:39:38.929Z</time></trkpt><trkpt lat="45.6530228" lon="10.2321651"><ele>332.0</ele><time>2026-04-25T14:39:39.949Z</time></trkpt><trkpt lat="45.6531281" lon="10.232036"><ele>332.0</ele><time>2026-04-25T14:39:40.939Z</time></trkpt><trkpt lat="45.6532198" lon="10.2318791"><ele>332.0</ele><time>2026-04-25T14:39:41.953Z</time></trkpt><trkpt lat="45.6532907" lon="10.2316924"><ele>332.0</ele><time>2026-04-25T14:39:42.949Z</time></trkpt><trkpt lat="45.6533366" lon="10.2314885"><ele>332.0</ele><time>2026-04-25T14:39:43.939Z</time></trkpt><trkpt lat="45.6533775" lon="10.2312832"><ele>332.0</ele><time>2026-04-25T14:39:44.948Z</time></trkpt><trkpt lat="45.6534114" lon="10.2310815"><ele>332.0</ele><time>2026-04-25T14:39:45.935Z</time></trkpt><trkpt lat="45.6534454" lon="10.2308847"><ele>330.5</ele><time>2026-04-25T14:39:46.914Z</time></trkpt><trkpt lat="45.6534696" lon="10.2306855"><ele>329.0</ele><time>2026-04-25T14:39:47.94Z</time></trkpt><trkpt lat="45.6534805" lon="10.2304981"><ele>327.5</ele><time>2026-04-25T14:39:48.939Z</time></trkpt><trkpt lat="45.6534767" lon="10.2303123"><ele>326.0</ele><time>2026-04-25T14:39:49.955Z</time></trkpt><trkpt lat="45.6534609" lon="10.2301443"><ele>325.0</ele><time>2026-04-25T14:39:50.918Z</time></trkpt><trkpt lat="45.6534376" lon="10.2299835"><ele>324.0</ele><time>2026-04-25T14:39:51.906Z</time></trkpt><trkpt lat="45.6533986" lon="10.2298219"><ele>323.0</ele><time>2026-04-25T14:39:52.908Z</time></trkpt><trkpt lat="45.65335" lon="10.2296506"><ele>322.0</ele><time>2026-04-25T14:39:53.956Z</time></trkpt><trkpt lat="45.6532987" lon="10.2294771"><ele>322.0</ele><time>2026-04-25T14:39:54.936Z</time></trkpt><trkpt lat="45.6532459" lon="10.2292969"><ele>322.0</ele><time>2026-04-25T14:39:55.927Z</time></trkpt><trkpt lat="45.6531964" lon="10.2291088"><ele>322.0</ele><time>2026-04-25T14:39:56.916Z</time></trkpt><trkpt lat="45.6531459" lon="10.2289161"><ele>322.0</ele><time>2026-04-25T14:39:57.934Z</time></trkpt><trkpt lat="45.6530999" lon="10.2287269"><ele>322.25</ele><time>2026-04-25T14:39:58.931Z</time></trkpt><trkpt lat="45.6530549" lon="10.2285334"><ele>322.5</ele><time>2026-04-25T14:39:59.953Z</time></trkpt><trkpt lat="45.6530153" lon="10.2283543"><ele>322.75</ele><time>2026-04-25T14:40:00.912Z</time></trkpt><trkpt lat="45.6529871" lon="10.2281625"><ele>323.0</ele><time>2026-04-25T14:40:01.94Z</time></trkpt><trkpt lat="45.6529645" lon="10.2279683"><ele>323.75</ele><time>2026-04-25T14:40:02.951Z</time></trkpt><trkpt lat="45.6529469" lon="10.2277866"><ele>324.5</ele><time>2026-04-25T14:40:03.906Z</time></trkpt><trkpt lat="45.6529216" lon="10.227589"><ele>325.25</ele><time>2026-04-25T14:40:04.942Z</time></trkpt><trkpt lat="45.6528967" lon="10.2273983"><ele>326.0</ele><time>2026-04-25T14:40:05.913Z</time></trkpt><trkpt lat="45.6528676" lon="10.2271944"><ele>326.75</ele><time>2026-04-25T14:40:06.935Z</time></trkpt><trkpt lat="45.6528448" lon="10.2269884"><ele>327.5</ele><time>2026-04-25T14:40:07.961Z</time></trkpt><trkpt lat="45.6528304" lon="10.2267861"><ele>328.25</ele><time>2026-04-25T14:40:08.958Z</time></trkpt><trkpt lat="45.6528233" lon="10.2265981"><ele>329.0</ele><time>2026-04-25T14:40:09.922Z</time></trkpt><trkpt lat="45.6528172" lon="10.2264048"><ele>327.25</ele><time>2026-04-25T14:40:10.936Z</time></trkpt><trkpt lat="45.6528178" lon="10.2262226"><ele>325.5</ele><time>2026-04-25T14:40:11.941Z</time></trkpt><trkpt lat="45.6528213" lon="10.2260425"><ele>323.75</ele><time>2026-04-25T14:40:12.94Z</time></trkpt><trkpt lat="45.6528249" lon="10.2258737"><ele>322.0</ele><time>2026-04-25T14:40:13.909Z</time></trkpt><trkpt lat="45.6528348" lon="10.2256928"><ele>322.0</ele><time>2026-04-25T14:40:14.958Z</time></trkpt><trkpt lat="45.6528507" lon="10.2255306"><ele>322.0</ele><time>2026-04-25T14:40:15.924Z</time></trkpt><trkpt lat="45.6528644" lon="10.2253599"><ele>322.0</ele><time>2026-04-25T14:40:16.951Z</time></trkpt><trkpt lat="45.6528716" lon="10.2252017"><ele>322.0</ele><time>2026-04-25T14:40:17.917Z</time></trkpt><trkpt lat="45.6528766" lon="10.2250276"><ele>322.0</ele><time>2026-04-25T14:40:18.953Z</time></trkpt><trkpt lat="45.6528817" lon="10.2248716"><ele>322.0</ele><time>2026-04-25T14:40:19.938Z</time></trkpt><trkpt lat="45.6528791" lon="10.2247104"><ele>322.0</ele><time>2026-04-25T14:40:20.946Z</time></trkpt><trkpt lat="45.6528709" lon="10.2245598"><ele>322.0</ele><time>2026-04-25T14:40:21.947Z</time></trkpt><trkpt lat="45.6528632" lon="10.2244104"><ele>322.0</ele><time>2026-04-25T14:40:22.932Z</time></trkpt><trkpt lat="45.6528507" lon="10.2242452"><ele>320.5</ele><time>2026-04-25T14:40:23.946Z</time></trkpt><trkpt lat="45.6528294" lon="10.2240819"><ele>319.0</ele><time>2026-04-25T14:40:24.924Z</time></trkpt><trkpt lat="45.6527969" lon="10.2239085"><ele>317.5</ele><time>2026-04-25T14:40:25.953Z</time></trkpt><trkpt lat="45.6527586" lon="10.2237524"><ele>316.0</ele><time>2026-04-25T14:40:26.928Z</time></trkpt><trkpt lat="45.6527135" lon="10.2235973"><ele>316.0</ele><time>2026-04-25T14:40:27.915Z</time></trkpt><trkpt lat="45.6526625" lon="10.2234359"><ele>316.0</ele><time>2026-04-25T14:40:28.934Z</time></trkpt><trkpt lat="45.6526043" lon="10.2232761"><ele>316.0</ele><time>2026-04-25T14:40:29.948Z</time></trkpt><trkpt lat="45.6525414" lon="10.2231196"><ele>316.0</ele><time>2026-04-25T14:40:30.958Z</time></trkpt><trkpt lat="45.6524756" lon="10.2229638"><ele>318.25</ele><time>2026-04-25T14:40:31.943Z</time></trkpt><trkpt lat="45.6524115" lon="10.2228095"><ele>320.5</ele><time>2026-04-25T14:40:32.914Z</time></trkpt><trkpt lat="45.6523405" lon="10.2226391"><ele>322.75</ele><time>2026-04-25T14:40:33.925Z</time></trkpt><trkpt lat="45.6522653" lon="10.2224538"><ele>325.0</ele><time>2026-04-25T14:40:34.95Z</time></trkpt><trkpt lat="45.652189" lon="10.2222678"><ele>328.66666666666663</ele><time>2026-04-25T14:40:35.949Z</time></trkpt><trkpt lat="45.6521116" lon="10.2220781"><ele>332.3333333333333</ele><time>2026-04-25T14:40:36.919Z</time></trkpt><trkpt lat="45.6520259" lon="10.2218719"><ele>336.0</ele><time>2026-04-25T14:40:37.948Z</time></trkpt><trkpt lat="45.6519448" lon="10.2216717"><ele>328.0</ele><time>2026-04-25T14:40:38.943Z</time></trkpt><trkpt lat="45.6518721" lon="10.2214766"><ele>320.0</ele><time>2026-04-25T14:40:39.928Z</time></trkpt><trkpt lat="45.6518017" lon="10.2212887"><ele>312.0</ele><time>2026-04-25T14:40:40.913Z</time></trkpt><trkpt lat="45.6517311" lon="10.2211062"><ele>304.0</ele><time>2026-04-25T14:40:41.925Z</time></trkpt><trkpt lat="45.651654" lon="10.2209263"><ele>304.0</ele><time>2026-04-25T14:40:42.943Z</time></trkpt><trkpt lat="45.6515742" lon="10.2207422"><ele>304.0</ele><time>2026-04-25T14:40:43.962Z</time></trkpt><trkpt lat="45.6515014" lon="10.2205646"><ele>304.0</ele><time>2026-04-25T14:40:44.943Z</time></trkpt><trkpt lat="45.6514303" lon="10.2203929"><ele>304.0</ele><time>2026-04-25T14:40:45.919Z</time></trkpt><trkpt lat="45.6513562" lon="10.2202194"><ele>306.25</ele><time>2026-04-25T14:40:46.944Z</time></trkpt><trkpt lat="45.6512864" lon="10.2200541"><ele>308.5</ele><time>2026-04-25T14:40:47.94Z</time></trkpt><trkpt lat="45.6512164" lon="10.2198904"><ele>310.75</ele><time>2026-04-25T14:40:48.927Z</time></trkpt><trkpt lat="45.6511498" lon="10.2197263"><ele>313.0</ele><time>2026-04-25T14:40:49.913Z</time></trkpt><trkpt lat="45.6510815" lon="10.2195594"><ele>311.5</ele><time>2026-04-25T14:40:50.934Z</time></trkpt><trkpt lat="45.6510074" lon="10.219396"><ele>310.0</ele><time>2026-04-25T14:40:51.955Z</time></trkpt><trkpt lat="45.6509396" lon="10.2192356"><ele>308.5</ele><time>2026-04-25T14:40:52.945Z</time></trkpt><trkpt lat="45.6508733" lon="10.2190776"><ele>307.0</ele><time>2026-04-25T14:40:53.939Z</time></trkpt><trkpt lat="45.6508046" lon="10.2189181"><ele>307.0</ele><time>2026-04-25T14:40:54.951Z</time></trkpt><trkpt lat="45.6507412" lon="10.2187617"><ele>307.0</ele><time>2026-04-25T14:40:55.938Z</time></trkpt><trkpt lat="45.6506797" lon="10.2185991"><ele>307.0</ele><time>2026-04-25T14:40:56.944Z</time></trkpt><trkpt lat="45.6506209" lon="10.2184352"><ele>307.0</ele><time>2026-04-25T14:40:57.931Z</time></trkpt><trkpt lat="45.6505613" lon="10.2182683"><ele>313.0</ele><time>2026-04-25T14:40:58.908Z</time></trkpt><trkpt lat="45.6504969" lon="10.2180831"><ele>319.0</ele><time>2026-04-25T14:40:59.956Z</time></trkpt><trkpt lat="45.6504393" lon="10.2179176"><ele>325.0</ele><time>2026-04-25T14:41:00.9Z</time></trkpt><trkpt lat="45.6503827" lon="10.2177409"><ele>331.0</ele><time>2026-04-25T14:41:01.928Z</time></trkpt><trkpt lat="45.650334" lon="10.2175803"><ele>321.75</ele><time>2026-04-25T14:41:02.928Z</time></trkpt><trkpt lat="45.6502821" lon="10.2174207"><ele>312.5</ele><time>2026-04-25T14:41:03.957Z</time></trkpt><trkpt lat="45.6502352" lon="10.2172785"><ele>303.25</ele><time>2026-04-25T14:41:04.913Z</time></trkpt><trkpt lat="45.6501877" lon="10.2171309"><ele>294.0</ele><time>2026-04-25T14:41:05.923Z</time></trkpt><trkpt lat="45.6501415" lon="10.2169877"><ele>294.0</ele><time>2026-04-25T14:41:06.911Z</time></trkpt><trkpt lat="45.6500946" lon="10.2168295"><ele>294.0</ele><time>2026-04-25T14:41:07.934Z</time></trkpt><trkpt lat="45.6500499" lon="10.216674"><ele>294.0</ele><time>2026-04-25T14:41:08.919Z</time></trkpt><trkpt lat="45.6500043" lon="10.2165278"><ele>294.0</ele><time>2026-04-25T14:41:09.912Z</time></trkpt><trkpt lat="45.6499569" lon="10.2163773"><ele>296.5</ele><time>2026-04-25T14:41:10.943Z</time></trkpt><trkpt lat="45.6499093" lon="10.216228"><ele>299.0</ele><time>2026-04-25T14:41:11.931Z</time></trkpt><trkpt lat="45.6498613" lon="10.2160749"><ele>301.5</ele><time>2026-04-25T14:41:12.95Z</time></trkpt><trkpt lat="45.649816" lon="10.2159232"><ele>304.0</ele><time>2026-04-25T14:41:13.934Z</time></trkpt><trkpt lat="45.6497674" lon="10.21577"><ele>303.5</ele><time>2026-04-25T14:41:14.944Z</time></trkpt><trkpt lat="45.6497182" lon="10.2156214"><ele>303.0</ele><time>2026-04-25T14:41:15.917Z</time></trkpt><trkpt lat="45.6496665" lon="10.2154643"><ele>302.5</ele><time>2026-04-25T14:41:16.91Z</time></trkpt><trkpt lat="45.649611" lon="10.2153045"><ele>302.0</ele><time>2026-04-25T14:41:17.937Z</time></trkpt><trkpt lat="45.6495584" lon="10.2151425"><ele>302.0</ele><time>2026-04-25T14:41:18.95Z</time></trkpt><trkpt lat="45.649511" lon="10.2149833"><ele>302.0</ele><time>2026-04-25T14:41:19.956Z</time></trkpt><trkpt lat="45.6494607" lon="10.2148341"><ele>302.0</ele><time>2026-04-25T14:41:20.941Z</time></trkpt><trkpt lat="45.6494122" lon="10.2146876"><ele>302.0</ele><time>2026-04-25T14:41:21.934Z</time></trkpt><trkpt lat="45.649367" lon="10.2145355"><ele>296.25</ele><time>2026-04-25T14:41:22.937Z</time></trkpt><trkpt lat="45.6493209" lon="10.2143833"><ele>290.5</ele><time>2026-04-25T14:41:23.944Z</time></trkpt><trkpt lat="45.6492743" lon="10.2142393"><ele>284.75</ele><time>2026-04-25T14:41:24.917Z</time></trkpt><trkpt lat="45.6492258" lon="10.2140842"><ele>279.0</ele><time>2026-04-25T14:41:25.948Z</time></trkpt><trkpt lat="45.6491818" lon="10.2139336"><ele>279.0</ele><time>2026-04-25T14:41:26.941Z</time></trkpt><trkpt lat="45.6491353" lon="10.2137805"><ele>279.0</ele><time>2026-04-25T14:41:27.939Z</time></trkpt><trkpt lat="45.6490912" lon="10.2136158"><ele>279.0</ele><time>2026-04-25T14:41:28.929Z</time></trkpt><trkpt lat="45.6490555" lon="10.2134421"><ele>279.0</ele><time>2026-04-25T14:41:29.944Z</time></trkpt><trkpt lat="45.6490302" lon="10.2132757"><ele>279.0</ele><time>2026-04-25T14:41:30.917Z</time></trkpt><trkpt lat="45.6490048" lon="10.2130975"><ele>279.0</ele><time>2026-04-25T14:41:31.917Z</time></trkpt><trkpt lat="45.6489855" lon="10.2129149"><ele>279.0</ele><time>2026-04-25T14:41:32.955Z</time></trkpt><trkpt lat="45.6489736" lon="10.2127386"><ele>279.0</ele><time>2026-04-25T14:41:33.95Z</time></trkpt><trkpt lat="45.6489653" lon="10.212553"><ele>279.0</ele><time>2026-04-25T14:41:34.954Z</time></trkpt><trkpt lat="45.6489646" lon="10.2123663"><ele>279.0</ele><time>2026-04-25T14:41:35.95Z</time></trkpt><trkpt lat="45.6489693" lon="10.2121818"><ele>279.0</ele><time>2026-04-25T14:41:36.933Z</time></trkpt><trkpt lat="45.6489812" lon="10.2119911"><ele>279.0</ele><time>2026-04-25T14:41:37.934Z</time></trkpt><trkpt lat="45.6489983" lon="10.2117893"><ele>278.0</ele><time>2026-04-25T14:41:38.94Z</time></trkpt><trkpt lat="45.6490156" lon="10.2115777"><ele>277.0</ele><time>2026-04-25T14:41:39.954Z</time></trkpt><trkpt lat="45.6490341" lon="10.2113553"><ele>276.0</ele><time>2026-04-25T14:41:40.952Z</time></trkpt><trkpt lat="45.6490495" lon="10.21113"><ele>275.3333333333333</ele><time>2026-04-25T14:41:41.917Z</time></trkpt><trkpt lat="45.6490699" lon="10.2108814"><ele>274.66666666666663</ele><time>2026-04-25T14:41:42.904Z</time></trkpt><trkpt lat="45.6490973" lon="10.2106039"><ele>274.0</ele><time>2026-04-25T14:41:43.935Z</time></trkpt><trkpt lat="45.6491235" lon="10.2103154"><ele>274.0</ele><time>2026-04-25T14:41:44.959Z</time></trkpt><trkpt lat="45.6491511" lon="10.2100282"><ele>274.0</ele><time>2026-04-25T14:41:45.952Z</time></trkpt><trkpt lat="45.6491782" lon="10.209757"><ele>274.0</ele><time>2026-04-25T14:41:46.942Z</time></trkpt><trkpt lat="45.6492064" lon="10.2095085"><ele>273.75</ele><time>2026-04-25T14:41:47.943Z</time></trkpt><trkpt lat="45.6492311" lon="10.209275"><ele>273.5</ele><time>2026-04-25T14:41:48.951Z</time></trkpt><trkpt lat="45.6492544" lon="10.2090795"><ele>273.25</ele><time>2026-04-25T14:41:49.909Z</time></trkpt><trkpt lat="45.6492743" lon="10.2088924"><ele>273.0</ele><time>2026-04-25T14:41:50.921Z</time></trkpt><trkpt lat="45.6492908" lon="10.2087136"><ele>272.25</ele><time>2026-04-25T14:41:51.939Z</time></trkpt><trkpt lat="45.6493093" lon="10.2085391"><ele>271.5</ele><time>2026-04-25T14:41:52.939Z</time></trkpt><trkpt lat="45.649326" lon="10.208368"><ele>270.75</ele><time>2026-04-25T14:41:53.946Z</time></trkpt><trkpt lat="45.6493437" lon="10.2082034"><ele>270.0</ele><time>2026-04-25T14:41:54.946Z</time></trkpt><trkpt lat="45.6493592" lon="10.2080425"><ele>270.0</ele><time>2026-04-25T14:41:55.966Z</time></trkpt><trkpt lat="45.6493697" lon="10.2079004"><ele>270.0</ele><time>2026-04-25T14:41:56.946Z</time></trkpt><trkpt lat="45.649382" lon="10.2077505"><ele>270.0</ele><time>2026-04-25T14:41:57.908Z</time></trkpt><trkpt lat="45.6493878" lon="10.2075901"><ele>270.0</ele><time>2026-04-25T14:41:58.956Z</time></trkpt><trkpt lat="45.6493912" lon="10.2074371"><ele>270.0</ele><time>2026-04-25T14:41:59.952Z</time></trkpt><trkpt lat="45.6493961" lon="10.2072837"><ele>269.5</ele><time>2026-04-25T14:42:00.911Z</time></trkpt><trkpt lat="45.6493969" lon="10.2071173"><ele>269.0</ele><time>2026-04-25T14:42:01.947Z</time></trkpt><trkpt lat="45.6493946" lon="10.2069569"><ele>268.5</ele><time>2026-04-25T14:42:02.942Z</time></trkpt><trkpt lat="45.6493922" lon="10.2067991"><ele>268.0</ele><time>2026-04-25T14:42:03.951Z</time></trkpt><trkpt lat="45.6493879" lon="10.2066336"><ele>267.8</ele><time>2026-04-25T14:42:04.945Z</time></trkpt><trkpt lat="45.6493796" lon="10.2064736"><ele>267.6</ele><time>2026-04-25T14:42:05.936Z</time></trkpt><trkpt lat="45.6493739" lon="10.2063111"><ele>267.4</ele><time>2026-04-25T14:42:06.944Z</time></trkpt><trkpt lat="45.6493651" lon="10.2061535"><ele>267.2</ele><time>2026-04-25T14:42:07.941Z</time></trkpt><trkpt lat="45.6493578" lon="10.2059957"><ele>267.0</ele><time>2026-04-25T14:42:08.954Z</time></trkpt><trkpt lat="45.6493494" lon="10.2058417"><ele>267.0</ele><time>2026-04-25T14:42:09.939Z</time></trkpt><trkpt lat="45.6493375" lon="10.2056855"><ele>267.0</ele><time>2026-04-25T14:42:10.944Z</time></trkpt><trkpt lat="45.6493286" lon="10.2055376"><ele>267.0</ele><time>2026-04-25T14:42:11.947Z</time></trkpt><trkpt lat="45.64932" lon="10.2053934"><ele>267.0</ele><time>2026-04-25T14:42:12.931Z</time></trkpt><trkpt lat="45.6493136" lon="10.205254"><ele>267.0</ele><time>2026-04-25T14:42:13.908Z</time></trkpt><trkpt lat="45.6493086" lon="10.2051153"><ele>266.4</ele><time>2026-04-25T14:42:14.913Z</time></trkpt><trkpt lat="45.649302" lon="10.2049688"><ele>265.79999999999995</ele><time>2026-04-25T14:42:15.95Z</time></trkpt><trkpt lat="45.6492965" lon="10.2048298"><ele>265.2</ele><time>2026-04-25T14:42:16.942Z</time></trkpt><trkpt lat="45.6492916" lon="10.2046873"><ele>264.59999999999997</ele><time>2026-04-25T14:42:17.931Z</time></trkpt><trkpt lat="45.6492837" lon="10.2045429"><ele>264.0</ele><time>2026-04-25T14:42:18.934Z</time></trkpt><trkpt lat="45.6492774" lon="10.2043954"><ele>263.8</ele><time>2026-04-25T14:42:19.96Z</time></trkpt><trkpt lat="45.6492676" lon="10.2042635"><ele>263.59999999999997</ele><time>2026-04-25T14:42:20.932Z</time></trkpt><trkpt lat="45.6492601" lon="10.2041271"><ele>263.4</ele><time>2026-04-25T14:42:21.953Z</time></trkpt><trkpt lat="45.6492556" lon="10.2040016"><ele>263.2</ele><time>2026-04-25T14:42:22.906Z</time></trkpt><trkpt lat="45.6492502" lon="10.2038654"><ele>263.0</ele><time>2026-04-25T14:42:23.941Z</time></trkpt><trkpt lat="45.6492412" lon="10.2037359"><ele>262.83333333333337</ele><time>2026-04-25T14:42:24.939Z</time></trkpt><trkpt lat="45.6492353" lon="10.2036114"><ele>262.6666666666667</ele><time>2026-04-25T14:42:25.924Z</time></trkpt><trkpt lat="45.6492293" lon="10.2034885"><ele>262.5</ele><time>2026-04-25T14:42:26.934Z</time></trkpt><trkpt lat="45.6492226" lon="10.2033691"><ele>262.3333333333333</ele><time>2026-04-25T14:42:27.919Z</time></trkpt><trkpt lat="45.6492148" lon="10.2032463"><ele>262.16666666666663</ele><time>2026-04-25T14:42:28.939Z</time></trkpt><trkpt lat="45.649207" lon="10.2031206"><ele>262.0</ele><time>2026-04-25T14:42:29.948Z</time></trkpt><trkpt lat="45.6491983" lon="10.202993"><ele>261.8</ele><time>2026-04-25T14:42:30.91Z</time></trkpt><trkpt lat="45.6491901" lon="10.2028483"><ele>261.6</ele><time>2026-04-25T14:42:31.921Z</time></trkpt><trkpt lat="45.6491801" lon="10.2027095"><ele>261.40000000000003</ele><time>2026-04-25T14:42:32.926Z</time></trkpt><trkpt lat="45.6491716" lon="10.2025773"><ele>261.2</ele><time>2026-04-25T14:42:33.952Z</time></trkpt><trkpt lat="45.6491669" lon="10.2024543"><ele>261.0</ele><time>2026-04-25T14:42:34.938Z</time></trkpt><trkpt lat="45.6491615" lon="10.2023486"><ele>261.0</ele><time>2026-04-25T14:42:35.916Z</time></trkpt><trkpt lat="45.6491577" lon="10.2022407"><ele>261.0</ele><time>2026-04-25T14:42:36.951Z</time></trkpt><trkpt lat="45.6491501" lon="10.2021365"><ele>261.0</ele><time>2026-04-25T14:42:37.954Z</time></trkpt><trkpt lat="45.649136" lon="10.2020295"><ele>261.0</ele><time>2026-04-25T14:42:38.949Z</time></trkpt><trkpt lat="45.6491165" lon="10.2019241"><ele>261.0</ele><time>2026-04-25T14:42:39.89Z</time></trkpt><trkpt lat="45.6490847" lon="10.201811"><ele>261.0</ele><time>2026-04-25T14:42:40.921Z</time></trkpt><trkpt lat="45.6490491" lon="10.2017098"><ele>261.0</ele><time>2026-04-25T14:42:41.922Z</time></trkpt><trkpt lat="45.649015" lon="10.2016162"><ele>261.0</ele><time>2026-04-25T14:42:42.936Z</time></trkpt><trkpt lat="45.648987" lon="10.2015228"><ele>261.0</ele><time>2026-04-25T14:42:43.953Z</time></trkpt><trkpt lat="45.648972" lon="10.2014353"><ele>261.0</ele><time>2026-04-25T14:42:44.924Z</time></trkpt><trkpt lat="45.6489737" lon="10.201344"><ele>261.0</ele><time>2026-04-25T14:42:45.962Z</time></trkpt><trkpt lat="45.6490393" lon="10.2012008"><ele>261.0</ele><time>2026-04-25T14:42:47.96Z</time></trkpt><trkpt lat="45.649111" lon="10.2011573"><ele>261.0</ele><time>2026-04-25T14:42:48.943Z</time></trkpt><trkpt lat="45.6492168" lon="10.2011421"><ele>261.0</ele><time>2026-04-25T14:42:49.951Z</time></trkpt><trkpt lat="45.6493378" lon="10.2011261"><ele>261.0</ele><time>2026-04-25T14:42:50.943Z</time></trkpt><trkpt lat="45.6494685" lon="10.2011064"><ele>261.0</ele><time>2026-04-25T14:42:51.92Z</time></trkpt><trkpt lat="45.6496153" lon="10.2010877"><ele>261.0</ele><time>2026-04-25T14:42:52.96Z</time></trkpt><trkpt lat="45.6497569" lon="10.2010738"><ele>261.0</ele><time>2026-04-25T14:42:53.95Z</time></trkpt><trkpt lat="45.6499126" lon="10.2010507"><ele>261.0</ele><time>2026-04-25T14:42:54.955Z</time></trkpt><trkpt lat="45.6500677" lon="10.2010328"><ele>261.0</ele><time>2026-04-25T14:42:55.94Z</time></trkpt><trkpt lat="45.6502245" lon="10.2010105"><ele>261.0</ele><time>2026-04-25T14:42:56.935Z</time></trkpt><trkpt lat="45.6503695" lon="10.2009863"><ele>261.0</ele><time>2026-04-25T14:42:57.906Z</time></trkpt><trkpt lat="45.6505249" lon="10.200964"><ele>261.5</ele><time>2026-04-25T14:42:58.96Z</time></trkpt><trkpt lat="45.6506624" lon="10.2009472"><ele>262.0</ele><time>2026-04-25T14:42:59.93Z</time></trkpt><trkpt lat="45.6508081" lon="10.2009287"><ele>262.5</ele><time>2026-04-25T14:43:00.942Z</time></trkpt><trkpt lat="45.6509505" lon="10.2009128"><ele>263.0</ele><time>2026-04-25T14:43:01.942Z</time></trkpt><trkpt lat="45.6510893" lon="10.2008961"><ele>263.5</ele><time>2026-04-25T14:43:02.947Z</time></trkpt><trkpt lat="45.6512302" lon="10.2008825"><ele>264.0</ele><time>2026-04-25T14:43:03.943Z</time></trkpt><trkpt lat="45.6513673" lon="10.2008647"><ele>264.5</ele><time>2026-04-25T14:43:04.924Z</time></trkpt><trkpt lat="45.6515086" lon="10.2008455"><ele>265.0</ele><time>2026-04-25T14:43:05.946Z</time></trkpt><trkpt lat="45.6516448" lon="10.2008221"><ele>265.0</ele><time>2026-04-25T14:43:06.913Z</time></trkpt><trkpt lat="45.6517899" lon="10.2007913"><ele>265.0</ele><time>2026-04-25T14:43:07.946Z</time></trkpt><trkpt lat="45.6519307" lon="10.2007519"><ele>265.0</ele><time>2026-04-25T14:43:08.944Z</time></trkpt><trkpt lat="45.6521247" lon="10.2006858"><ele>265.3333333333333</ele><time>2026-04-25T14:43:10.322Z</time></trkpt><trkpt lat="45.6523488" lon="10.2005765"><ele>265.6666666666667</ele><time>2026-04-25T14:43:12.005Z</time></trkpt><trkpt lat="45.652479" lon="10.200514"><ele>266.0</ele><time>2026-04-25T14:43:13.01Z</time></trkpt><trkpt lat="45.6526027" lon="10.2004538"><ele>266.0</ele><time>2026-04-25T14:43:13.995Z</time></trkpt><trkpt lat="45.6527239" lon="10.2003982"><ele>266.0</ele><time>2026-04-25T14:43:15.024Z</time></trkpt><trkpt lat="45.6528339" lon="10.2003482"><ele>266.0</ele><time>2026-04-25T14:43:16.01Z</time></trkpt><trkpt lat="45.6529324" lon="10.2003075"><ele>266.0</ele><time>2026-04-25T14:43:16.972Z</time></trkpt><trkpt lat="45.6530302" lon="10.2002698"><ele>266.0</ele><time>2026-04-25T14:43:18.006Z</time></trkpt><trkpt lat="45.6531179" lon="10.2002377"><ele>266.1666666666667</ele><time>2026-04-25T14:43:19.006Z</time></trkpt><trkpt lat="45.6531896" lon="10.2002107"><ele>266.33333333333337</ele><time>2026-04-25T14:43:19.969Z</time></trkpt><trkpt lat="45.6532543" lon="10.2001915"><ele>266.5</ele><time>2026-04-25T14:43:20.996Z</time></trkpt><trkpt lat="45.6533633" lon="10.2001676"><ele>266.6666666666667</ele><time>2026-04-25T14:43:23.011Z</time></trkpt><trkpt lat="45.6534586" lon="10.2001482"><ele>266.8333333333333</ele><time>2026-04-25T14:43:24.966Z</time></trkpt><trkpt lat="45.6535529" lon="10.200117"><ele>267.0</ele><time>2026-04-25T14:43:26.969Z</time></trkpt><trkpt lat="45.6536546" lon="10.2000823"><ele>267.1666666666667</ele><time>2026-04-25T14:43:29.02Z</time></trkpt><trkpt lat="45.6537315" lon="10.2000693"><ele>267.3333333333333</ele><time>2026-04-25T14:43:30.973Z</time></trkpt><trkpt lat="45.6537998" lon="10.2000743"><ele>267.5</ele><time>2026-04-25T14:43:32.995Z</time></trkpt><trkpt lat="45.6538907" lon="10.2001325"><ele>267.66666666666663</ele><time>2026-04-25T14:43:34.975Z</time></trkpt><trkpt lat="45.6539487" lon="10.2001866"><ele>267.8333333333333</ele><time>2026-04-25T14:43:36.014Z</time></trkpt><trkpt lat="45.6540134" lon="10.2002121"><ele>268.0</ele><time>2026-04-25T14:43:36.998Z</time></trkpt><trkpt lat="45.6540808" lon="10.2001969"><ele>268.0</ele><time>2026-04-25T14:43:37.999Z</time></trkpt><trkpt lat="45.6541357" lon="10.2001426"><ele>268.0</ele><time>2026-04-25T14:43:38.963Z</time></trkpt><trkpt lat="45.6541785" lon="10.2000551"><ele>268.0</ele><time>2026-04-25T14:43:40.001Z</time></trkpt><trkpt lat="45.654213" lon="10.1999605"><ele>268.0</ele><time>2026-04-25T14:43:40.971Z</time></trkpt><trkpt lat="45.6542683" lon="10.1998671"><ele>268.0</ele><time>2026-04-25T14:43:41.987Z</time></trkpt><trkpt lat="45.6543496" lon="10.1997927"><ele>268.0</ele><time>2026-04-25T14:43:42.965Z</time></trkpt><trkpt lat="45.6544567" lon="10.1997276"><ele>267.75</ele><time>2026-04-25T14:43:44.013Z</time></trkpt><trkpt lat="45.654572" lon="10.1996761"><ele>267.5</ele><time>2026-04-25T14:43:45.013Z</time></trkpt><trkpt lat="45.6546996" lon="10.1996245"><ele>267.25</ele><time>2026-04-25T14:43:45.996Z</time></trkpt><trkpt lat="45.6548353" lon="10.1995713"><ele>267.0</ele><time>2026-04-25T14:43:46.975Z</time></trkpt><trkpt lat="45.6549759" lon="10.1995236"><ele>267.0</ele><time>2026-04-25T14:43:47.958Z</time></trkpt><trkpt lat="45.6551216" lon="10.1994845"><ele>267.0</ele><time>2026-04-25T14:43:48.979Z</time></trkpt><trkpt lat="45.6552663" lon="10.1994467"><ele>267.0</ele><time>2026-04-25T14:43:49.989Z</time></trkpt><trkpt lat="45.6554147" lon="10.1994072"><ele>267.0</ele><time>2026-04-25T14:43:51Z</time></trkpt><trkpt lat="45.6555613" lon="10.1993693"><ele>268.0</ele><time>2026-04-25T14:43:51.991Z</time></trkpt><trkpt lat="45.6557035" lon="10.1993311"><ele>269.0</ele><time>2026-04-25T14:43:52.961Z</time></trkpt><trkpt lat="45.6558575" lon="10.1992852"><ele>270.0</ele><time>2026-04-25T14:43:54.022Z</time></trkpt><trkpt lat="45.6559911" lon="10.1992443"><ele>271.0</ele><time>2026-04-25T14:43:54.963Z</time></trkpt><trkpt lat="45.6561263" lon="10.1992023"><ele>271.0</ele><time>2026-04-25T14:43:55.96Z</time></trkpt><trkpt lat="45.6562618" lon="10.1991594"><ele>271.0</ele><time>2026-04-25T14:43:56.991Z</time></trkpt><trkpt lat="45.6563996" lon="10.1991143"><ele>271.0</ele><time>2026-04-25T14:43:58.021Z</time></trkpt><trkpt lat="45.6565355" lon="10.1990631"><ele>271.0</ele><time>2026-04-25T14:43:58.997Z</time></trkpt><trkpt lat="45.6566853" lon="10.1990039"><ele>271.0</ele><time>2026-04-25T14:44:00.027Z</time></trkpt><trkpt lat="45.6568247" lon="10.1989474"><ele>271.0</ele><time>2026-04-25T14:44:00.962Z</time></trkpt><trkpt lat="45.6569757" lon="10.1988856"><ele>271.0</ele><time>2026-04-25T14:44:02Z</time></trkpt><trkpt lat="45.6571095" lon="10.1988328"><ele>271.0</ele><time>2026-04-25T14:44:02.96Z</time></trkpt><trkpt lat="45.6572467" lon="10.1987797"><ele>271.0</ele><time>2026-04-25T14:44:03.969Z</time></trkpt><trkpt lat="45.6573869" lon="10.1987224"><ele>271.0</ele><time>2026-04-25T14:44:05.009Z</time></trkpt><trkpt lat="45.6575201" lon="10.1986645"><ele>271.0</ele><time>2026-04-25T14:44:05.971Z</time></trkpt><trkpt lat="45.6576658" lon="10.1986008"><ele>271.0</ele><time>2026-04-25T14:44:06.986Z</time></trkpt><trkpt lat="45.6578118" lon="10.19854"><ele>271.3333333333333</ele><time>2026-04-25T14:44:07.963Z</time></trkpt><trkpt lat="45.6579731" lon="10.1984743"><ele>271.6666666666667</ele><time>2026-04-25T14:44:09.013Z</time></trkpt><trkpt lat="45.6581233" lon="10.1984125"><ele>272.0</ele><time>2026-04-25T14:44:09.975Z</time></trkpt><trkpt lat="45.6582805" lon="10.1983467"><ele>272.0</ele><time>2026-04-25T14:44:10.974Z</time></trkpt><trkpt lat="45.6584452" lon="10.1982789"><ele>272.0</ele><time>2026-04-25T14:44:12.007Z</time></trkpt><trkpt lat="45.6585995" lon="10.1982154"><ele>272.0</ele><time>2026-04-25T14:44:12.995Z</time></trkpt><trkpt lat="45.6587456" lon="10.1981565"><ele>272.0</ele><time>2026-04-25T14:44:13.978Z</time></trkpt><trkpt lat="45.6588883" lon="10.198099"><ele>272.0</ele><time>2026-04-25T14:44:14.995Z</time></trkpt><trkpt lat="45.6590219" lon="10.1980456"><ele>272.0</ele><time>2026-04-25T14:44:16.009Z</time></trkpt><trkpt lat="45.659136" lon="10.198"><ele>272.0</ele><time>2026-04-25T14:44:16.965Z</time></trkpt><trkpt lat="45.6592475" lon="10.1979563"><ele>272.0</ele><time>2026-04-25T14:44:17.971Z</time></trkpt><trkpt lat="45.6593475" lon="10.1979206"><ele>272.0</ele><time>2026-04-25T14:44:18.996Z</time></trkpt><trkpt lat="45.6594341" lon="10.1978996"><ele>272.0</ele><time>2026-04-25T14:44:19.995Z</time></trkpt><trkpt lat="45.659517" lon="10.1979065"><ele>272.0</ele><time>2026-04-25T14:44:21.021Z</time></trkpt><trkpt lat="45.6595921" lon="10.1979363"><ele>272.0</ele><time>2026-04-25T14:44:22.002Z</time></trkpt><trkpt lat="45.6596646" lon="10.1979588"><ele>272.0</ele><time>2026-04-25T14:44:22.969Z</time></trkpt><trkpt lat="45.6597417" lon="10.1979536"><ele>272.2</ele><time>2026-04-25T14:44:23.991Z</time></trkpt><trkpt lat="45.6598095" lon="10.1979147"><ele>272.4</ele><time>2026-04-25T14:44:24.975Z</time></trkpt><trkpt lat="45.6598741" lon="10.1978445"><ele>272.6</ele><time>2026-04-25T14:44:26.007Z</time></trkpt><trkpt lat="45.6599505" lon="10.1977711"><ele>272.8</ele><time>2026-04-25T14:44:27.016Z</time></trkpt><trkpt lat="45.6600491" lon="10.1977228"><ele>273.0</ele><time>2026-04-25T14:44:27.992Z</time></trkpt><trkpt lat="45.6601726" lon="10.1976926"><ele>273.75</ele><time>2026-04-25T14:44:28.985Z</time></trkpt><trkpt lat="45.6603125" lon="10.1976708"><ele>274.5</ele><time>2026-04-25T14:44:29.979Z</time></trkpt><trkpt lat="45.6604564" lon="10.1976521"><ele>275.25</ele><time>2026-04-25T14:44:30.969Z</time></trkpt><trkpt lat="45.6606103" lon="10.197633"><ele>276.0</ele><time>2026-04-25T14:44:31.977Z</time></trkpt><trkpt lat="45.6607652" lon="10.1976131"><ele>276.0</ele><time>2026-04-25T14:44:32.992Z</time></trkpt><trkpt lat="45.6609148" lon="10.1975951"><ele>276.0</ele><time>2026-04-25T14:44:34.005Z</time></trkpt><trkpt lat="45.6610568" lon="10.1975792"><ele>276.0</ele><time>2026-04-25T14:44:34.965Z</time></trkpt><trkpt lat="45.6612058" lon="10.1975614"><ele>276.0</ele><time>2026-04-25T14:44:35.967Z</time></trkpt><trkpt lat="45.6613608" lon="10.1975403"><ele>276.25</ele><time>2026-04-25T14:44:37.011Z</time></trkpt><trkpt lat="45.6615051" lon="10.1975214"><ele>276.5</ele><time>2026-04-25T14:44:37.981Z</time></trkpt><trkpt lat="45.6616467" lon="10.1975062"><ele>276.75</ele><time>2026-04-25T14:44:38.996Z</time></trkpt><trkpt lat="45.6617783" lon="10.1974898"><ele>277.0</ele><time>2026-04-25T14:44:40.008Z</time></trkpt><trkpt lat="45.6618978" lon="10.1974705"><ele>278.0</ele><time>2026-04-25T14:44:40.985Z</time></trkpt><trkpt lat="45.6620102" lon="10.1974527"><ele>279.0</ele><time>2026-04-25T14:44:41.96Z</time></trkpt><trkpt lat="45.6621192" lon="10.1974356"><ele>280.0</ele><time>2026-04-25T14:44:42.956Z</time></trkpt><trkpt lat="45.6622306" lon="10.197419"><ele>281.0</ele><time>2026-04-25T14:44:43.986Z</time></trkpt><trkpt lat="45.6623429" lon="10.197406"><ele>282.0</ele><time>2026-04-25T14:44:45.009Z</time></trkpt><trkpt lat="45.6624519" lon="10.1973975"><ele>282.0</ele><time>2026-04-25T14:44:45.962Z</time></trkpt><trkpt lat="45.6625764" lon="10.1973882"><ele>282.0</ele><time>2026-04-25T14:44:47.01Z</time></trkpt><trkpt lat="45.6626929" lon="10.1973784"><ele>282.0</ele><time>2026-04-25T14:44:47.965Z</time></trkpt><trkpt lat="45.6628115" lon="10.1973628"><ele>282.0</ele><time>2026-04-25T14:44:48.991Z</time></trkpt><trkpt lat="45.6629195" lon="10.1973359"><ele>281.8</ele><time>2026-04-25T14:44:49.992Z</time></trkpt><trkpt lat="45.6630197" lon="10.197292"><ele>281.6</ele><time>2026-04-25T14:44:51.003Z</time></trkpt><trkpt lat="45.6631052" lon="10.1972415"><ele>281.40000000000003</ele><time>2026-04-25T14:44:51.966Z</time></trkpt><trkpt lat="45.6631967" lon="10.1971776"><ele>281.2</ele><time>2026-04-25T14:44:53.005Z</time></trkpt><trkpt lat="45.6632935" lon="10.1970996"><ele>281.0</ele><time>2026-04-25T14:44:53.997Z</time></trkpt><trkpt lat="45.6634045" lon="10.1970039"><ele>281.0</ele><time>2026-04-25T14:44:54.992Z</time></trkpt><trkpt lat="45.6635156" lon="10.1969045"><ele>281.0</ele><time>2026-04-25T14:44:55.968Z</time></trkpt><trkpt lat="45.66363" lon="10.196802"><ele>281.0</ele><time>2026-04-25T14:44:57.005Z</time></trkpt><trkpt lat="45.6637419" lon="10.1967025"><ele>281.0</ele><time>2026-04-25T14:44:57.972Z</time></trkpt><trkpt lat="45.6638672" lon="10.1965916"><ele>280.33333333333337</ele><time>2026-04-25T14:44:59.003Z</time></trkpt><trkpt lat="45.6639903" lon="10.1964814"><ele>279.6666666666667</ele><time>2026-04-25T14:44:59.984Z</time></trkpt><trkpt lat="45.6641174" lon="10.1963618"><ele>279.0</ele><time>2026-04-25T14:45:00.974Z</time></trkpt><trkpt lat="45.6642485" lon="10.1962316"><ele>279.0</ele><time>2026-04-25T14:45:01.966Z</time></trkpt><trkpt lat="45.664393" lon="10.1960909"><ele>279.0</ele><time>2026-04-25T14:45:03.003Z</time></trkpt><trkpt lat="45.6645325" lon="10.1959562"><ele>279.0</ele><time>2026-04-25T14:45:03.99Z</time></trkpt><trkpt lat="45.6646716" lon="10.1958182"><ele>280.0</ele><time>2026-04-25T14:45:04.957Z</time></trkpt><trkpt lat="45.6648172" lon="10.1956718"><ele>281.0</ele><time>2026-04-25T14:45:05.972Z</time></trkpt><trkpt lat="45.6649595" lon="10.1955315"><ele>282.0</ele><time>2026-04-25T14:45:07.007Z</time></trkpt><trkpt lat="45.6650907" lon="10.1954029"><ele>282.0</ele><time>2026-04-25T14:45:08.009Z</time></trkpt><trkpt lat="45.665215" lon="10.1952777"><ele>282.0</ele><time>2026-04-25T14:45:09.013Z</time></trkpt><trkpt lat="45.6653307" lon="10.1951546"><ele>282.0</ele><time>2026-04-25T14:45:10.013Z</time></trkpt><trkpt lat="45.6654345" lon="10.1950417"><ele>282.0</ele><time>2026-04-25T14:45:10.96Z</time></trkpt><trkpt lat="45.6655401" lon="10.1949222"><ele>282.75</ele><time>2026-04-25T14:45:11.967Z</time></trkpt><trkpt lat="45.6656453" lon="10.1947984"><ele>283.5</ele><time>2026-04-25T14:45:12.966Z</time></trkpt><trkpt lat="45.6657569" lon="10.1946669"><ele>284.25</ele><time>2026-04-25T14:45:13.99Z</time></trkpt><trkpt lat="45.6658665" lon="10.1945389"><ele>285.0</ele><time>2026-04-25T14:45:14.96Z</time></trkpt><trkpt lat="45.6659846" lon="10.1943973"><ele>285.0</ele><time>2026-04-25T14:45:15.992Z</time></trkpt><trkpt lat="45.666101" lon="10.1942545"><ele>285.0</ele><time>2026-04-25T14:45:16.996Z</time></trkpt><trkpt lat="45.6662187" lon="10.1941113"><ele>285.0</ele><time>2026-04-25T14:45:17.997Z</time></trkpt><trkpt lat="45.66634" lon="10.1939653"><ele>285.6666666666667</ele><time>2026-04-25T14:45:19.015Z</time></trkpt><trkpt lat="45.6664604" lon="10.1938233"><ele>286.33333333333337</ele><time>2026-04-25T14:45:20.008Z</time></trkpt><trkpt lat="45.6665786" lon="10.1936846"><ele>287.0</ele><time>2026-04-25T14:45:20.981Z</time></trkpt><trkpt lat="45.6666985" lon="10.1935429"><ele>287.0</ele><time>2026-04-25T14:45:21.973Z</time></trkpt><trkpt lat="45.666821" lon="10.1933968"><ele>287.0</ele><time>2026-04-25T14:45:22.991Z</time></trkpt><trkpt lat="45.6669421" lon="10.1932508"><ele>287.0</ele><time>2026-04-25T14:45:24.006Z</time></trkpt><trkpt lat="45.6670495" lon="10.1931203"><ele>287.0</ele><time>2026-04-25T14:45:24.963Z</time></trkpt><trkpt lat="45.6671492" lon="10.1929981"><ele>287.0</ele><time>2026-04-25T14:45:25.967Z</time></trkpt><trkpt lat="45.6672401" lon="10.1928884"><ele>287.0</ele><time>2026-04-25T14:45:27.002Z</time></trkpt><trkpt lat="45.6673152" lon="10.1927986"><ele>287.0</ele><time>2026-04-25T14:45:27.959Z</time></trkpt><trkpt lat="45.6673915" lon="10.1927106"><ele>287.0</ele><time>2026-04-25T14:45:28.972Z</time></trkpt><trkpt lat="45.6674628" lon="10.1926284"><ele>287.0</ele><time>2026-04-25T14:45:29.969Z</time></trkpt><trkpt lat="45.6675278" lon="10.1925501"><ele>287.0</ele><time>2026-04-25T14:45:30.972Z</time></trkpt><trkpt lat="45.6675883" lon="10.1924735"><ele>287.0</ele><time>2026-04-25T14:45:31.994Z</time></trkpt><trkpt lat="45.6676416" lon="10.1924013"><ele>287.0</ele><time>2026-04-25T14:45:32.972Z</time></trkpt><trkpt lat="45.6676984" lon="10.1923279"><ele>287.0</ele><time>2026-04-25T14:45:34.013Z</time></trkpt><trkpt lat="45.6677608" lon="10.1922614"><ele>287.0</ele><time>2026-04-25T14:45:35.011Z</time></trkpt><trkpt lat="45.6678304" lon="10.1921946"><ele>287.4</ele><time>2026-04-25T14:45:35.997Z</time></trkpt><trkpt lat="45.6679016" lon="10.1921195"><ele>287.79999999999995</ele><time>2026-04-25T14:45:36.966Z</time></trkpt><trkpt lat="45.6679758" lon="10.1920291"><ele>288.2</ele><time>2026-04-25T14:45:37.971Z</time></trkpt><trkpt lat="45.6680544" lon="10.1919321"><ele>288.59999999999997</ele><time>2026-04-25T14:45:38.992Z</time></trkpt><trkpt lat="45.668139" lon="10.1918323"><ele>289.0</ele><time>2026-04-25T14:45:39.993Z</time></trkpt><trkpt lat="45.6682303" lon="10.1917239"><ele>289.0</ele><time>2026-04-25T14:45:41.007Z</time></trkpt><trkpt lat="45.668324" lon="10.1916112"><ele>289.0</ele><time>2026-04-25T14:45:42.016Z</time></trkpt><trkpt lat="45.6684143" lon="10.1915043"><ele>289.0</ele><time>2026-04-25T14:45:42.962Z</time></trkpt><trkpt lat="45.6685134" lon="10.1913887"><ele>289.0</ele><time>2026-04-25T14:45:43.97Z</time></trkpt><trkpt lat="45.668616" lon="10.1912706"><ele>289.75</ele><time>2026-04-25T14:45:45.013Z</time></trkpt><trkpt lat="45.6687141" lon="10.1911562"><ele>290.5</ele><time>2026-04-25T14:45:45.963Z</time></trkpt><trkpt lat="45.6688186" lon="10.1910309"><ele>291.25</ele><time>2026-04-25T14:45:46.981Z</time></trkpt><trkpt lat="45.668919" lon="10.1909094"><ele>292.0</ele><time>2026-04-25T14:45:47.979Z</time></trkpt><trkpt lat="45.6690229" lon="10.1907873"><ele>291.75</ele><time>2026-04-25T14:45:48.967Z</time></trkpt><trkpt lat="45.6691318" lon="10.1906603"><ele>291.5</ele><time>2026-04-25T14:45:49.976Z</time></trkpt><trkpt lat="45.6692462" lon="10.1905236"><ele>291.25</ele><time>2026-04-25T14:45:51.015Z</time></trkpt><trkpt lat="45.6693589" lon="10.1903873"><ele>291.0</ele><time>2026-04-25T14:45:52.02Z</time></trkpt><trkpt lat="45.6694684" lon="10.1902545"><ele>290.5</ele><time>2026-04-25T14:45:52.999Z</time></trkpt><trkpt lat="45.6695768" lon="10.1901222"><ele>290.0</ele><time>2026-04-25T14:45:53.976Z</time></trkpt><trkpt lat="45.6696812" lon="10.1899922"><ele>289.5</ele><time>2026-04-25T14:45:54.977Z</time></trkpt><trkpt lat="45.6697817" lon="10.1898655"><ele>289.0</ele><time>2026-04-25T14:45:55.999Z</time></trkpt><trkpt lat="45.6698744" lon="10.1897436"><ele>289.0</ele><time>2026-04-25T14:45:56.97Z</time></trkpt><trkpt lat="45.6699703" lon="10.1896118"><ele>289.0</ele><time>2026-04-25T14:45:57.982Z</time></trkpt><trkpt lat="45.6700672" lon="10.1894707"><ele>289.0</ele><time>2026-04-25T14:45:59Z</time></trkpt><trkpt lat="45.6701574" lon="10.1893291"><ele>289.0</ele><time>2026-04-25T14:45:59.988Z</time></trkpt><trkpt lat="45.6702413" lon="10.1891907"><ele>289.4</ele><time>2026-04-25T14:46:00.973Z</time></trkpt><trkpt lat="45.6703213" lon="10.1890604"><ele>289.79999999999995</ele><time>2026-04-25T14:46:01.968Z</time></trkpt><trkpt lat="45.6703982" lon="10.1889423"><ele>290.20000000000005</ele><time>2026-04-25T14:46:02.97Z</time></trkpt><trkpt lat="45.6704722" lon="10.1888333"><ele>290.6</ele><time>2026-04-25T14:46:03.999Z</time></trkpt><trkpt lat="45.6705373" lon="10.1887377"><ele>291.0</ele><time>2026-04-25T14:46:05.002Z</time></trkpt><trkpt lat="45.6705931" lon="10.1886545"><ele>291.0</ele><time>2026-04-25T14:46:05.939Z</time></trkpt><trkpt lat="45.6706508" lon="10.1885685"><ele>291.0</ele><time>2026-04-25T14:46:06.947Z</time></trkpt><trkpt lat="45.6707054" lon="10.1884888"><ele>291.0</ele><time>2026-04-25T14:46:07.959Z</time></trkpt><trkpt lat="45.6707534" lon="10.1884128"><ele>291.0</ele><time>2026-04-25T14:46:08.953Z</time></trkpt><trkpt lat="45.6707964" lon="10.1883449"><ele>291.0</ele><time>2026-04-25T14:46:09.928Z</time></trkpt><trkpt lat="45.6708396" lon="10.1882769"><ele>291.0</ele><time>2026-04-25T14:46:10.95Z</time></trkpt><trkpt lat="45.6709099" lon="10.1881762"><ele>291.40000000000003</ele><time>2026-04-25T14:46:12.923Z</time></trkpt><trkpt lat="45.6709715" lon="10.1880859"><ele>291.8</ele><time>2026-04-25T14:46:15.907Z</time></trkpt><trkpt lat="45.6710203" lon="10.1880053"><ele>292.20000000000005</ele><time>2026-04-25T14:47:28.912Z</time></trkpt><trkpt lat="45.6710851" lon="10.1879249"><ele>292.6</ele><time>2026-04-25T14:47:30.921Z</time></trkpt><trkpt lat="45.6711891" lon="10.1877969"><ele>293.0</ele><time>2026-04-25T14:47:32.951Z</time></trkpt><trkpt lat="45.6712437" lon="10.1877289"><ele>293.2</ele><time>2026-04-25T14:47:33.955Z</time></trkpt><trkpt lat="45.6713034" lon="10.1876588"><ele>293.4</ele><time>2026-04-25T14:47:34.959Z</time></trkpt><trkpt lat="45.6713551" lon="10.1875936"><ele>293.59999999999997</ele><time>2026-04-25T14:47:35.957Z</time></trkpt><trkpt lat="45.6714104" lon="10.1874629"><ele>293.8</ele><time>2026-04-25T14:47:37.93Z</time></trkpt><trkpt lat="45.6713937" lon="10.187322"><ele>294.0</ele><time>2026-04-25T14:47:39.946Z</time></trkpt><trkpt lat="45.6713011" lon="10.1872326"><ele>294.0</ele><time>2026-04-25T14:47:41.952Z</time></trkpt><trkpt lat="45.67119" lon="10.1871319"><ele>294.0</ele><time>2026-04-25T14:47:43.915Z</time></trkpt><trkpt lat="45.6711344" lon="10.1870586"><ele>294.0</ele><time>2026-04-25T14:47:44.944Z</time></trkpt><trkpt lat="45.6710709" lon="10.1869401"><ele>294.0</ele><time>2026-04-25T14:47:46.954Z</time></trkpt><trkpt lat="45.6710188" lon="10.1868369"><ele>294.0</ele><time>2026-04-25T14:47:49.934Z</time></trkpt><trkpt lat="45.6709707" lon="10.186739"><ele>293.8</ele><time>2026-04-25T14:47:53.917Z</time></trkpt><trkpt lat="45.6709226" lon="10.1866451"><ele>293.59999999999997</ele><time>2026-04-25T14:47:56.931Z</time></trkpt><trkpt lat="45.6708706" lon="10.1865546"><ele>293.4</ele><time>2026-04-25T14:47:58.933Z</time></trkpt><trkpt lat="45.6708258" lon="10.1864679"><ele>293.2</ele><time>2026-04-25T14:47:59.964Z</time></trkpt><trkpt lat="45.6707579" lon="10.1863408"><ele>293.0</ele><time>2026-04-25T14:48:00.937Z</time></trkpt><trkpt lat="45.6706778" lon="10.1862113"><ele>293.5</ele><time>2026-04-25T14:48:01.927Z</time></trkpt><trkpt lat="45.6705955" lon="10.1860709"><ele>294.0</ele><time>2026-04-25T14:48:02.951Z</time></trkpt><trkpt lat="45.6705179" lon="10.1859225"><ele>294.5</ele><time>2026-04-25T14:48:03.923Z</time></trkpt><trkpt lat="45.6704363" lon="10.185776"><ele>295.0</ele><time>2026-04-25T14:48:04.945Z</time></trkpt><trkpt lat="45.6703624" lon="10.1856522"><ele>295.0</ele><time>2026-04-25T14:48:05.893Z</time></trkpt><trkpt lat="45.670285" lon="10.1855219"><ele>295.0</ele><time>2026-04-25T14:48:06.923Z</time></trkpt><trkpt lat="45.6702136" lon="10.1853892"><ele>295.0</ele><time>2026-04-25T14:48:07.927Z</time></trkpt><trkpt lat="45.6701378" lon="10.1852406"><ele>295.0</ele><time>2026-04-25T14:48:08.963Z</time></trkpt><trkpt lat="45.670075" lon="10.1850803"><ele>295.0</ele><time>2026-04-25T14:48:09.963Z</time></trkpt><trkpt lat="45.6700234" lon="10.1849003"><ele>295.0</ele><time>2026-04-25T14:48:10.953Z</time></trkpt><trkpt lat="45.6699794" lon="10.1847099"><ele>295.0</ele><time>2026-04-25T14:48:11.957Z</time></trkpt><trkpt lat="45.66995" lon="10.1845049"><ele>295.0</ele><time>2026-04-25T14:48:12.957Z</time></trkpt><trkpt lat="45.6699346" lon="10.1842943"><ele>296.25</ele><time>2026-04-25T14:48:13.954Z</time></trkpt><trkpt lat="45.6699344" lon="10.184089"><ele>297.5</ele><time>2026-04-25T14:48:14.952Z</time></trkpt><trkpt lat="45.6699375" lon="10.1838916"><ele>298.75</ele><time>2026-04-25T14:48:15.907Z</time></trkpt><trkpt lat="45.6699464" lon="10.1836763"><ele>300.0</ele><time>2026-04-25T14:48:16.923Z</time></trkpt><trkpt lat="45.6699501" lon="10.1834635"><ele>301.5</ele><time>2026-04-25T14:48:17.946Z</time></trkpt><trkpt lat="45.6699601" lon="10.1832662"><ele>303.0</ele><time>2026-04-25T14:48:18.939Z</time></trkpt><trkpt lat="45.6699784" lon="10.1830786"><ele>304.5</ele><time>2026-04-25T14:48:19.938Z</time></trkpt><trkpt lat="45.6700131" lon="10.1828812"><ele>306.0</ele><time>2026-04-25T14:48:20.96Z</time></trkpt><trkpt lat="45.670064" lon="10.1826771"><ele>306.0</ele><time>2026-04-25T14:48:21.954Z</time></trkpt><trkpt lat="45.6701221" lon="10.1824714"><ele>306.0</ele><time>2026-04-25T14:48:22.947Z</time></trkpt><trkpt lat="45.6701744" lon="10.1822678"><ele>306.0</ele><time>2026-04-25T14:48:23.939Z</time></trkpt><trkpt lat="45.6702236" lon="10.1820608"><ele>305.25</ele><time>2026-04-25T14:48:24.947Z</time></trkpt><trkpt lat="45.6702726" lon="10.1818568"><ele>304.5</ele><time>2026-04-25T14:48:25.939Z</time></trkpt><trkpt lat="45.670323" lon="10.1816501"><ele>303.75</ele><time>2026-04-25T14:48:26.971Z</time></trkpt><trkpt lat="45.6703618" lon="10.1814717"><ele>303.0</ele><time>2026-04-25T14:48:27.922Z</time></trkpt><trkpt lat="45.6703949" lon="10.1812784"><ele>306.25</ele><time>2026-04-25T14:48:28.92Z</time></trkpt><trkpt lat="45.6704239" lon="10.1810756"><ele>309.5</ele><time>2026-04-25T14:48:29.95Z</time></trkpt><trkpt lat="45.6704413" lon="10.1808797"><ele>312.75</ele><time>2026-04-25T14:48:30.962Z</time></trkpt><trkpt lat="45.6704556" lon="10.1807001"><ele>316.0</ele><time>2026-04-25T14:48:31.959Z</time></trkpt><trkpt lat="45.670468" lon="10.1805384"><ele>316.0</ele><time>2026-04-25T14:48:32.949Z</time></trkpt><trkpt lat="45.6704797" lon="10.1803837"><ele>316.0</ele><time>2026-04-25T14:48:33.919Z</time></trkpt><trkpt lat="45.6704914" lon="10.1802089"><ele>316.0</ele><time>2026-04-25T14:48:34.95Z</time></trkpt><trkpt lat="45.6705036" lon="10.1800132"><ele>316.0</ele><time>2026-04-25T14:48:35.948Z</time></trkpt><trkpt lat="45.6705199" lon="10.1797975"><ele>315.0</ele><time>2026-04-25T14:48:36.923Z</time></trkpt><trkpt lat="45.6705351" lon="10.1795712"><ele>314.0</ele><time>2026-04-25T14:48:37.94Z</time></trkpt><trkpt lat="45.6705511" lon="10.1793533"><ele>313.0</ele><time>2026-04-25T14:48:38.924Z</time></trkpt><trkpt lat="45.6705686" lon="10.1791241"><ele>313.0</ele><time>2026-04-25T14:48:39.966Z</time></trkpt><trkpt lat="45.6705871" lon="10.1789018"><ele>313.0</ele><time>2026-04-25T14:48:40.954Z</time></trkpt><trkpt lat="45.6706033" lon="10.1786716"><ele>313.0</ele><time>2026-04-25T14:48:41.963Z</time></trkpt><trkpt lat="45.6706246" lon="10.1784486"><ele>313.0</ele><time>2026-04-25T14:48:42.948Z</time></trkpt><trkpt lat="45.6706436" lon="10.1782395"><ele>313.0</ele><time>2026-04-25T14:48:43.915Z</time></trkpt><trkpt lat="45.6706678" lon="10.1780226"><ele>313.0</ele><time>2026-04-25T14:48:44.954Z</time></trkpt><trkpt lat="45.6707015" lon="10.1778222"><ele>313.0</ele><time>2026-04-25T14:48:45.954Z</time></trkpt><trkpt lat="45.6707556" lon="10.1776231"><ele>313.0</ele><time>2026-04-25T14:48:46.953Z</time></trkpt><trkpt lat="45.6708245" lon="10.1774209"><ele>313.0</ele><time>2026-04-25T14:48:47.965Z</time></trkpt><trkpt lat="45.6709005" lon="10.1772256"><ele>313.0</ele><time>2026-04-25T14:48:48.959Z</time></trkpt><trkpt lat="45.6709653" lon="10.1770296"><ele>313.0</ele><time>2026-04-25T14:48:49.95Z</time></trkpt><trkpt lat="45.6710186" lon="10.1768156"><ele>313.0</ele><time>2026-04-25T14:48:50.972Z</time></trkpt><trkpt lat="45.6710491" lon="10.1766022"><ele>313.0</ele><time>2026-04-25T14:48:51.961Z</time></trkpt><trkpt lat="45.6710621" lon="10.1763669"><ele>313.3333333333333</ele><time>2026-04-25T14:48:52.958Z</time></trkpt><trkpt lat="45.6710596" lon="10.176112"><ele>313.6666666666667</ele><time>2026-04-25T14:48:53.959Z</time></trkpt><trkpt lat="45.6710507" lon="10.1758383"><ele>314.0</ele><time>2026-04-25T14:48:54.927Z</time></trkpt><trkpt lat="45.6710368" lon="10.1755718"><ele>315.33333333333337</ele><time>2026-04-25T14:48:55.92Z</time></trkpt><trkpt lat="45.6710234" lon="10.1753191"><ele>316.6666666666667</ele><time>2026-04-25T14:48:56.924Z</time></trkpt><trkpt lat="45.6710159" lon="10.175092"><ele>318.0</ele><time>2026-04-25T14:48:57.914Z</time></trkpt><trkpt lat="45.6710212" lon="10.1748591"><ele>318.6666666666667</ele><time>2026-04-25T14:48:58.967Z</time></trkpt><trkpt lat="45.6710531" lon="10.1746517"><ele>319.33333333333337</ele><time>2026-04-25T14:48:59.92Z</time></trkpt><trkpt lat="45.6711077" lon="10.1744477"><ele>320.0</ele><time>2026-04-25T14:49:00.908Z</time></trkpt><trkpt lat="45.6711876" lon="10.1742273"><ele>323.0</ele><time>2026-04-25T14:49:01.906Z</time></trkpt><trkpt lat="45.6712672" lon="10.1739969"><ele>326.0</ele><time>2026-04-25T14:49:02.906Z</time></trkpt><trkpt lat="45.6713343" lon="10.1737769"><ele>329.0</ele><time>2026-04-25T14:49:03.901Z</time></trkpt><trkpt lat="45.6713813" lon="10.1735371"><ele>329.0</ele><time>2026-04-25T14:49:04.899Z</time></trkpt><trkpt lat="45.6714043" lon="10.1732674"><ele>329.0</ele><time>2026-04-25T14:49:05.94Z</time></trkpt><trkpt lat="45.6714021" lon="10.1730282"><ele>329.0</ele><time>2026-04-25T14:49:06.937Z</time></trkpt><trkpt lat="45.6713823" lon="10.1728121"><ele>328.5</ele><time>2026-04-25T14:49:07.913Z</time></trkpt><trkpt lat="45.6713573" lon="10.1725999"><ele>328.0</ele><time>2026-04-25T14:49:08.919Z</time></trkpt><trkpt lat="45.6713249" lon="10.1723943"><ele>327.5</ele><time>2026-04-25T14:49:09.922Z</time></trkpt><trkpt lat="45.6712919" lon="10.1721926"><ele>327.0</ele><time>2026-04-25T14:49:10.906Z</time></trkpt><trkpt lat="45.6712594" lon="10.1719945"><ele>327.0</ele><time>2026-04-25T14:49:11.948Z</time></trkpt><trkpt lat="45.6712274" lon="10.1718176"><ele>327.0</ele><time>2026-04-25T14:49:12.916Z</time></trkpt><trkpt lat="45.6711936" lon="10.1716394"><ele>327.0</ele><time>2026-04-25T14:49:13.963Z</time></trkpt><trkpt lat="45.6711672" lon="10.1714751"><ele>327.0</ele><time>2026-04-25T14:49:14.94Z</time></trkpt><trkpt lat="45.6711397" lon="10.1713013"><ele>327.0</ele><time>2026-04-25T14:49:15.938Z</time></trkpt><trkpt lat="45.6711108" lon="10.1711174"><ele>327.0</ele><time>2026-04-25T14:49:16.928Z</time></trkpt><trkpt lat="45.6710807" lon="10.1709197"><ele>327.0</ele><time>2026-04-25T14:49:17.963Z</time></trkpt><trkpt lat="45.6710491" lon="10.1707239"><ele>327.0</ele><time>2026-04-25T14:49:18.977Z</time></trkpt><trkpt lat="45.6710174" lon="10.1705333"><ele>327.0</ele><time>2026-04-25T14:49:19.97Z</time></trkpt><trkpt lat="45.6709862" lon="10.1703494"><ele>327.0</ele><time>2026-04-25T14:49:20.95Z</time></trkpt><trkpt lat="45.6709559" lon="10.1701738"><ele>327.0</ele><time>2026-04-25T14:49:21.938Z</time></trkpt><trkpt lat="45.6709258" lon="10.169999"><ele>327.0</ele><time>2026-04-25T14:49:22.948Z</time></trkpt><trkpt lat="45.6708955" lon="10.1698189"><ele>327.6666666666667</ele><time>2026-04-25T14:49:23.965Z</time></trkpt><trkpt lat="45.6708673" lon="10.1696258"><ele>328.33333333333337</ele><time>2026-04-25T14:49:24.92Z</time></trkpt><trkpt lat="45.6708366" lon="10.1694092"><ele>329.0</ele><time>2026-04-25T14:49:25.947Z</time></trkpt><trkpt lat="45.6708063" lon="10.1691808"><ele>329.33333333333337</ele><time>2026-04-25T14:49:26.945Z</time></trkpt><trkpt lat="45.6707682" lon="10.1689325"><ele>329.6666666666667</ele><time>2026-04-25T14:49:28.004Z</time></trkpt><trkpt lat="45.6707305" lon="10.1686993"><ele>330.0</ele><time>2026-04-25T14:49:28.959Z</time></trkpt><trkpt lat="45.6706917" lon="10.1684405"><ele>330.3333333333333</ele><time>2026-04-25T14:49:29.949Z</time></trkpt><trkpt lat="45.6706498" lon="10.1681762"><ele>330.66666666666663</ele><time>2026-04-25T14:49:30.939Z</time></trkpt><trkpt lat="45.6706071" lon="10.1679078"><ele>331.0</ele><time>2026-04-25T14:49:31.947Z</time></trkpt><trkpt lat="45.6705618" lon="10.1676373"><ele>331.0</ele><time>2026-04-25T14:49:32.962Z</time></trkpt><trkpt lat="45.670517" lon="10.1673674"><ele>331.0</ele><time>2026-04-25T14:49:33.959Z</time></trkpt><trkpt lat="45.6704729" lon="10.1671004"><ele>331.0</ele><time>2026-04-25T14:49:34.922Z</time></trkpt><trkpt lat="45.6704205" lon="10.1668063"><ele>334.3333333333333</ele><time>2026-04-25T14:49:35.941Z</time></trkpt><trkpt lat="45.670365" lon="10.1665042"><ele>337.6666666666667</ele><time>2026-04-25T14:49:36.954Z</time></trkpt><trkpt lat="45.6703206" lon="10.1662003"><ele>341.0</ele><time>2026-04-25T14:49:37.943Z</time></trkpt><trkpt lat="45.6702816" lon="10.1658822"><ele>339.33333333333337</ele><time>2026-04-25T14:49:38.959Z</time></trkpt><trkpt lat="45.6702382" lon="10.1655838"><ele>337.6666666666667</ele><time>2026-04-25T14:49:39.922Z</time></trkpt><trkpt lat="45.6701994" lon="10.1652925"><ele>336.0</ele><time>2026-04-25T14:49:40.918Z</time></trkpt><trkpt lat="45.6701579" lon="10.165012"><ele>337.3333333333333</ele><time>2026-04-25T14:49:41.967Z</time></trkpt><trkpt lat="45.6701213" lon="10.1647566"><ele>338.66666666666663</ele><time>2026-04-25T14:49:42.933Z</time></trkpt><trkpt lat="45.6700797" lon="10.1644924"><ele>340.0</ele><time>2026-04-25T14:49:43.933Z</time></trkpt><trkpt lat="45.6700382" lon="10.1642264"><ele>341.0</ele><time>2026-04-25T14:49:44.929Z</time></trkpt><trkpt lat="45.6699963" lon="10.1639621"><ele>342.0</ele><time>2026-04-25T14:49:45.928Z</time></trkpt><trkpt lat="45.6699519" lon="10.1636973"><ele>343.0</ele><time>2026-04-25T14:49:46.958Z</time></trkpt><trkpt lat="45.6699136" lon="10.1634445"><ele>343.3333333333333</ele><time>2026-04-25T14:49:47.966Z</time></trkpt><trkpt lat="45.6698794" lon="10.1631936"><ele>343.6666666666667</ele><time>2026-04-25T14:49:48.962Z</time></trkpt><trkpt lat="45.6698415" lon="10.1629523"><ele>344.0</ele><time>2026-04-25T14:49:49.909Z</time></trkpt><trkpt lat="45.6697965" lon="10.1626844"><ele>344.0</ele><time>2026-04-25T14:49:50.95Z</time></trkpt><trkpt lat="45.6697513" lon="10.1624231"><ele>344.0</ele><time>2026-04-25T14:49:51.955Z</time></trkpt><trkpt lat="45.6697015" lon="10.1621689"><ele>344.0</ele><time>2026-04-25T14:49:52.934Z</time></trkpt><trkpt lat="45.669644" lon="10.1619048"><ele>346.0</ele><time>2026-04-25T14:49:53.96Z</time></trkpt><trkpt lat="45.6695884" lon="10.1616562"><ele>348.0</ele><time>2026-04-25T14:49:54.95Z</time></trkpt><trkpt lat="45.6695371" lon="10.1614182"><ele>350.0</ele><time>2026-04-25T14:49:55.926Z</time></trkpt><trkpt lat="45.6694858" lon="10.1611789"><ele>348.33333333333337</ele><time>2026-04-25T14:49:56.948Z</time></trkpt><trkpt lat="45.6694357" lon="10.160942"><ele>346.6666666666667</ele><time>2026-04-25T14:49:57.943Z</time></trkpt><trkpt lat="45.6693833" lon="10.1606976"><ele>345.0</ele><time>2026-04-25T14:49:58.979Z</time></trkpt><trkpt lat="45.6693307" lon="10.1604679"><ele>345.0</ele><time>2026-04-25T14:49:59.962Z</time></trkpt><trkpt lat="45.6692817" lon="10.1602442"><ele>345.0</ele><time>2026-04-25T14:50:00.915Z</time></trkpt><trkpt lat="45.6692294" lon="10.1600013"><ele>345.0</ele><time>2026-04-25T14:50:01.923Z</time></trkpt><trkpt lat="45.6691753" lon="10.1597534"><ele>345.6666666666667</ele><time>2026-04-25T14:50:02.944Z</time></trkpt><trkpt lat="45.6691228" lon="10.1595114"><ele>346.33333333333337</ele><time>2026-04-25T14:50:03.941Z</time></trkpt><trkpt lat="45.6690719" lon="10.1592689"><ele>347.0</ele><time>2026-04-25T14:50:04.945Z</time></trkpt><trkpt lat="45.6690191" lon="10.159029"><ele>350.33333333333337</ele><time>2026-04-25T14:50:05.952Z</time></trkpt><trkpt lat="45.6689694" lon="10.1587923"><ele>353.6666666666667</ele><time>2026-04-25T14:50:06.927Z</time></trkpt><trkpt lat="45.668918" lon="10.1585446"><ele>357.0</ele><time>2026-04-25T14:50:07.952Z</time></trkpt><trkpt lat="45.6688642" lon="10.1582987"><ele>362.3333333333333</ele><time>2026-04-25T14:50:08.96Z</time></trkpt><trkpt lat="45.6688085" lon="10.1580575"><ele>367.66666666666663</ele><time>2026-04-25T14:50:09.949Z</time></trkpt><trkpt lat="45.6687562" lon="10.1578146"><ele>373.0</ele><time>2026-04-25T14:50:10.952Z</time></trkpt><trkpt lat="45.6687072" lon="10.1575751"><ele>376.0</ele><time>2026-04-25T14:50:11.935Z</time></trkpt><trkpt lat="45.6686536" lon="10.157338"><ele>379.0</ele><time>2026-04-25T14:50:12.956Z</time></trkpt><trkpt lat="45.6686031" lon="10.1571144"><ele>382.0</ele><time>2026-04-25T14:50:13.959Z</time></trkpt><trkpt lat="45.66855" lon="10.1568972"><ele>374.3333333333333</ele><time>2026-04-25T14:50:14.957Z</time></trkpt><trkpt lat="45.6684941" lon="10.1566774"><ele>366.6666666666667</ele><time>2026-04-25T14:50:15.948Z</time></trkpt><trkpt lat="45.6684378" lon="10.1564531"><ele>359.0</ele><time>2026-04-25T14:50:16.926Z</time></trkpt><trkpt lat="45.6683742" lon="10.156222"><ele>359.0</ele><time>2026-04-25T14:50:17.941Z</time></trkpt><trkpt lat="45.6683103" lon="10.1559816"><ele>359.0</ele><time>2026-04-25T14:50:18.963Z</time></trkpt><trkpt lat="45.6682509" lon="10.1557573"><ele>359.0</ele><time>2026-04-25T14:50:19.92Z</time></trkpt><trkpt lat="45.6681872" lon="10.1555257"><ele>360.0</ele><time>2026-04-25T14:50:20.914Z</time></trkpt><trkpt lat="45.6681222" lon="10.1552874"><ele>361.0</ele><time>2026-04-25T14:50:21.931Z</time></trkpt><trkpt lat="45.6680587" lon="10.1550572"><ele>362.0</ele><time>2026-04-25T14:50:22.922Z</time></trkpt><trkpt lat="45.6679919" lon="10.154821"><ele>364.33333333333337</ele><time>2026-04-25T14:50:23.942Z</time></trkpt><trkpt lat="45.6679294" lon="10.1546007"><ele>366.6666666666667</ele><time>2026-04-25T14:50:24.914Z</time></trkpt><trkpt lat="45.6678642" lon="10.1543643"><ele>369.0</ele><time>2026-04-25T14:50:25.97Z</time></trkpt><trkpt lat="45.6678027" lon="10.1541567"><ele>367.3333333333333</ele><time>2026-04-25T14:50:26.945Z</time></trkpt><trkpt lat="45.667745" lon="10.1539525"><ele>365.66666666666663</ele><time>2026-04-25T14:50:27.939Z</time></trkpt><trkpt lat="45.667687" lon="10.1537507"><ele>364.0</ele><time>2026-04-25T14:50:28.941Z</time></trkpt><trkpt lat="45.667629" lon="10.1535578"><ele>364.0</ele><time>2026-04-25T14:50:29.921Z</time></trkpt><trkpt lat="45.6675713" lon="10.1533526"><ele>364.0</ele><time>2026-04-25T14:50:30.953Z</time></trkpt><trkpt lat="45.6675286" lon="10.1531658"><ele>364.0</ele><time>2026-04-25T14:50:31.948Z</time></trkpt><trkpt lat="45.6675067" lon="10.1529625"><ele>364.0</ele><time>2026-04-25T14:50:32.967Z</time></trkpt><trkpt lat="45.6675138" lon="10.152752"><ele>365.66666666666663</ele><time>2026-04-25T14:50:33.964Z</time></trkpt><trkpt lat="45.6675368" lon="10.1525204"><ele>367.3333333333333</ele><time>2026-04-25T14:50:34.952Z</time></trkpt><trkpt lat="45.6675569" lon="10.1522953"><ele>369.0</ele><time>2026-04-25T14:50:35.953Z</time></trkpt><trkpt lat="45.6675748" lon="10.1520717"><ele>369.6666666666667</ele><time>2026-04-25T14:50:36.945Z</time></trkpt><trkpt lat="45.6675975" lon="10.1518549"><ele>370.33333333333337</ele><time>2026-04-25T14:50:37.914Z</time></trkpt><trkpt lat="45.6676128" lon="10.1516356"><ele>371.0</ele><time>2026-04-25T14:50:38.953Z</time></trkpt><trkpt lat="45.6676293" lon="10.1514298"><ele>373.75</ele><time>2026-04-25T14:50:39.951Z</time></trkpt><trkpt lat="45.6676424" lon="10.151238"><ele>376.5</ele><time>2026-04-25T14:50:40.933Z</time></trkpt><trkpt lat="45.6676609" lon="10.1510351"><ele>379.25</ele><time>2026-04-25T14:50:41.967Z</time></trkpt><trkpt lat="45.6676903" lon="10.1508497"><ele>382.0</ele><time>2026-04-25T14:50:42.943Z</time></trkpt><trkpt lat="45.667734" lon="10.1506663"><ele>382.0</ele><time>2026-04-25T14:50:43.937Z</time></trkpt><trkpt lat="45.6677958" lon="10.1504831"><ele>382.0</ele><time>2026-04-25T14:50:44.941Z</time></trkpt><trkpt lat="45.6678734" lon="10.1502863"><ele>382.0</ele><time>2026-04-25T14:50:45.97Z</time></trkpt><trkpt lat="45.6679598" lon="10.1500957"><ele>382.0</ele><time>2026-04-25T14:50:46.945Z</time></trkpt><trkpt lat="45.6680514" lon="10.1499001"><ele>382.0</ele><time>2026-04-25T14:50:47.955Z</time></trkpt><trkpt lat="45.6681421" lon="10.1497364"><ele>382.0</ele><time>2026-04-25T14:50:48.957Z</time></trkpt><trkpt lat="45.668247" lon="10.1495884"><ele>383.3333333333333</ele><time>2026-04-25T14:50:49.951Z</time></trkpt><trkpt lat="45.6683621" lon="10.1494477"><ele>384.66666666666663</ele><time>2026-04-25T14:50:50.944Z</time></trkpt><trkpt lat="45.6684886" lon="10.1493183"><ele>386.0</ele><time>2026-04-25T14:50:51.914Z</time></trkpt><trkpt lat="45.6686171" lon="10.1491752"><ele>387.3333333333333</ele><time>2026-04-25T14:50:52.957Z</time></trkpt><trkpt lat="45.6687369" lon="10.1490361"><ele>388.66666666666663</ele><time>2026-04-25T14:50:53.924Z</time></trkpt><trkpt lat="45.6688584" lon="10.1488949"><ele>390.0</ele><time>2026-04-25T14:50:54.95Z</time></trkpt><trkpt lat="45.6689706" lon="10.1487671"><ele>390.0</ele><time>2026-04-25T14:50:55.919Z</time></trkpt><trkpt lat="45.6690755" lon="10.1486339"><ele>390.0</ele><time>2026-04-25T14:50:56.921Z</time></trkpt><trkpt lat="45.6691565" lon="10.1484762"><ele>390.0</ele><time>2026-04-25T14:50:57.954Z</time></trkpt><trkpt lat="45.6692138" lon="10.1483096"><ele>390.0</ele><time>2026-04-25T14:50:58.939Z</time></trkpt><trkpt lat="45.6692564" lon="10.1481179"><ele>391.33333333333337</ele><time>2026-04-25T14:50:59.949Z</time></trkpt><trkpt lat="45.6692702" lon="10.1479148"><ele>392.6666666666667</ele><time>2026-04-25T14:51:00.923Z</time></trkpt><trkpt lat="45.6692737" lon="10.1476965"><ele>394.0</ele><time>2026-04-25T14:51:01.92Z</time></trkpt><trkpt lat="45.6692655" lon="10.147458"><ele>396.6666666666667</ele><time>2026-04-25T14:51:02.963Z</time></trkpt><trkpt lat="45.6692378" lon="10.1472385"><ele>399.33333333333337</ele><time>2026-04-25T14:51:03.901Z</time></trkpt><trkpt lat="45.6691991" lon="10.147014"><ele>402.0</ele><time>2026-04-25T14:51:04.922Z</time></trkpt><trkpt lat="45.669148" lon="10.1468064"><ele>402.0</ele><time>2026-04-25T14:51:05.948Z</time></trkpt><trkpt lat="45.6690845" lon="10.1466218"><ele>402.0</ele><time>2026-04-25T14:51:06.938Z</time></trkpt><trkpt lat="45.6690009" lon="10.1464528"><ele>402.0</ele><time>2026-04-25T14:51:07.938Z</time></trkpt><trkpt lat="45.6688967" lon="10.1462841"><ele>402.0</ele><time>2026-04-25T14:51:08.953Z</time></trkpt><trkpt lat="45.6687935" lon="10.1461322"><ele>405.0</ele><time>2026-04-25T14:51:09.943Z</time></trkpt><trkpt lat="45.6686989" lon="10.1459915"><ele>408.0</ele><time>2026-04-25T14:51:10.93Z</time></trkpt><trkpt lat="45.6686255" lon="10.1458448"><ele>411.0</ele><time>2026-04-25T14:51:11.942Z</time></trkpt><trkpt lat="45.66858" lon="10.1457001"><ele>414.0</ele><time>2026-04-25T14:51:12.947Z</time></trkpt><trkpt lat="45.6685628" lon="10.1455255"><ele>414.5</ele><time>2026-04-25T14:51:13.975Z</time></trkpt><trkpt lat="45.6685745" lon="10.1453365"><ele>415.0</ele><time>2026-04-25T14:51:14.955Z</time></trkpt><trkpt lat="45.668587" lon="10.1451355"><ele>415.5</ele><time>2026-04-25T14:51:15.97Z</time></trkpt><trkpt lat="45.6686022" lon="10.1449499"><ele>416.0</ele><time>2026-04-25T14:51:16.93Z</time></trkpt><trkpt lat="45.6686095" lon="10.1447549"><ele>415.0</ele><time>2026-04-25T14:51:17.965Z</time></trkpt><trkpt lat="45.6685877" lon="10.1445717"><ele>414.0</ele><time>2026-04-25T14:51:18.937Z</time></trkpt><trkpt lat="45.6685349" lon="10.1443833"><ele>413.0</ele><time>2026-04-25T14:51:19.92Z</time></trkpt><trkpt lat="45.6684477" lon="10.1441867"><ele>412.0</ele><time>2026-04-25T14:51:20.962Z</time></trkpt><trkpt lat="45.6683336" lon="10.1440114"><ele>416.33333333333337</ele><time>2026-04-25T14:51:21.953Z</time></trkpt><trkpt lat="45.6682097" lon="10.1438295"><ele>420.66666666666663</ele><time>2026-04-25T14:51:22.963Z</time></trkpt><trkpt lat="45.6680911" lon="10.1436586"><ele>425.0</ele><time>2026-04-25T14:51:23.93Z</time></trkpt><trkpt lat="45.6679806" lon="10.1434904"><ele>425.0</ele><time>2026-04-25T14:51:24.959Z</time></trkpt><trkpt lat="45.6678844" lon="10.143335"><ele>425.0</ele><time>2026-04-25T14:51:25.913Z</time></trkpt><trkpt lat="45.6677835" lon="10.1431687"><ele>425.0</ele><time>2026-04-25T14:51:26.968Z</time></trkpt><trkpt lat="45.667691" lon="10.1430412"><ele>425.0</ele><time>2026-04-25T14:51:27.956Z</time></trkpt><trkpt lat="45.6676057" lon="10.1429135"><ele>424.75</ele><time>2026-04-25T14:51:28.951Z</time></trkpt><trkpt lat="45.6675284" lon="10.1427908"><ele>424.5</ele><time>2026-04-25T14:51:29.96Z</time></trkpt><trkpt lat="45.6674555" lon="10.1426526"><ele>424.25</ele><time>2026-04-25T14:51:30.962Z</time></trkpt><trkpt lat="45.6673896" lon="10.1425076"><ele>424.0</ele><time>2026-04-25T14:51:31.937Z</time></trkpt><trkpt lat="45.6673302" lon="10.1423168"><ele>425.25</ele><time>2026-04-25T14:51:32.949Z</time></trkpt><trkpt lat="45.6672769" lon="10.1421467"><ele>426.5</ele><time>2026-04-25T14:51:33.942Z</time></trkpt><trkpt lat="45.6672164" lon="10.1419701"><ele>427.75</ele><time>2026-04-25T14:51:34.932Z</time></trkpt><trkpt lat="45.6671415" lon="10.1417934"><ele>429.0</ele><time>2026-04-25T14:51:35.948Z</time></trkpt><trkpt lat="45.6670623" lon="10.1416139"><ele>428.33333333333337</ele><time>2026-04-25T14:51:36.958Z</time></trkpt><trkpt lat="45.6669708" lon="10.1414379"><ele>427.6666666666667</ele><time>2026-04-25T14:51:37.948Z</time></trkpt><trkpt lat="45.6668739" lon="10.141263"><ele>427.0</ele><time>2026-04-25T14:51:38.934Z</time></trkpt><trkpt lat="45.6667793" lon="10.1410882"><ele>427.0</ele><time>2026-04-25T14:51:39.93Z</time></trkpt><trkpt lat="45.6666837" lon="10.1409098"><ele>427.0</ele><time>2026-04-25T14:51:40.926Z</time></trkpt><trkpt lat="45.6665823" lon="10.1407269"><ele>427.0</ele><time>2026-04-25T14:51:41.953Z</time></trkpt><trkpt lat="45.6664721" lon="10.1405607"><ele>427.6666666666667</ele><time>2026-04-25T14:51:42.958Z</time></trkpt><trkpt lat="45.6663524" lon="10.1404102"><ele>428.33333333333337</ele><time>2026-04-25T14:51:43.946Z</time></trkpt><trkpt lat="45.6662205" lon="10.1402602"><ele>429.0</ele><time>2026-04-25T14:51:44.963Z</time></trkpt><trkpt lat="45.6660895" lon="10.1401078"><ele>429.0</ele><time>2026-04-25T14:51:45.951Z</time></trkpt><trkpt lat="45.6659538" lon="10.1399472"><ele>429.0</ele><time>2026-04-25T14:51:46.954Z</time></trkpt><trkpt lat="45.6658126" lon="10.1397955"><ele>429.0</ele><time>2026-04-25T14:51:47.948Z</time></trkpt><trkpt lat="45.6656704" lon="10.1396294"><ele>430.0</ele><time>2026-04-25T14:51:48.963Z</time></trkpt><trkpt lat="45.6655363" lon="10.1394655"><ele>431.0</ele><time>2026-04-25T14:51:49.926Z</time></trkpt><trkpt lat="45.6653853" lon="10.1392708"><ele>432.0</ele><time>2026-04-25T14:51:50.976Z</time></trkpt><trkpt lat="45.6652502" lon="10.1390857"><ele>439.33333333333337</ele><time>2026-04-25T14:51:51.948Z</time></trkpt><trkpt lat="45.6651182" lon="10.1389039"><ele>446.6666666666667</ele><time>2026-04-25T14:51:52.925Z</time></trkpt><trkpt lat="45.6649927" lon="10.1387261"><ele>454.0</ele><time>2026-04-25T14:51:53.962Z</time></trkpt><trkpt lat="45.6648827" lon="10.1385672"><ele>454.0</ele><time>2026-04-25T14:51:54.96Z</time></trkpt><trkpt lat="45.6647736" lon="10.1384158"><ele>454.0</ele><time>2026-04-25T14:51:55.97Z</time></trkpt><trkpt lat="45.6646752" lon="10.1382787"><ele>454.0</ele><time>2026-04-25T14:51:56.92Z</time></trkpt><trkpt lat="45.664579" lon="10.1381459"><ele>454.0</ele><time>2026-04-25T14:51:57.917Z</time></trkpt><trkpt lat="45.6644939" lon="10.1380205"><ele>454.25</ele><time>2026-04-25T14:51:58.955Z</time></trkpt><trkpt lat="45.6644365" lon="10.1378886"><ele>454.5</ele><time>2026-04-25T14:51:59.918Z</time></trkpt><trkpt lat="45.6643945" lon="10.1377253"><ele>454.75</ele><time>2026-04-25T14:52:00.923Z</time></trkpt><trkpt lat="45.6643732" lon="10.1375413"><ele>455.0</ele><time>2026-04-25T14:52:01.952Z</time></trkpt><trkpt lat="45.6643642" lon="10.1373514"><ele>455.0</ele><time>2026-04-25T14:52:02.951Z</time></trkpt><trkpt lat="45.6643526" lon="10.1371591"><ele>455.0</ele><time>2026-04-25T14:52:03.965Z</time></trkpt><trkpt lat="45.6643467" lon="10.1369621"><ele>455.0</ele><time>2026-04-25T14:52:04.967Z</time></trkpt><trkpt lat="45.6643557" lon="10.1367682"><ele>455.0</ele><time>2026-04-25T14:52:05.962Z</time></trkpt><trkpt lat="45.6643791" lon="10.1365792"><ele>455.75</ele><time>2026-04-25T14:52:06.969Z</time></trkpt><trkpt lat="45.6644058" lon="10.1363924"><ele>456.5</ele><time>2026-04-25T14:52:07.969Z</time></trkpt><trkpt lat="45.6644341" lon="10.1362041"><ele>457.25</ele><time>2026-04-25T14:52:08.977Z</time></trkpt><trkpt lat="45.6644501" lon="10.1360139"><ele>458.0</ele><time>2026-04-25T14:52:09.941Z</time></trkpt><trkpt lat="45.6644482" lon="10.1358243"><ele>460.5</ele><time>2026-04-25T14:52:10.956Z</time></trkpt><trkpt lat="45.6644364" lon="10.1356447"><ele>463.0</ele><time>2026-04-25T14:52:11.968Z</time></trkpt><trkpt lat="45.6644243" lon="10.1354641"><ele>465.5</ele><time>2026-04-25T14:52:12.963Z</time></trkpt><trkpt lat="45.6644124" lon="10.1352937"><ele>468.0</ele><time>2026-04-25T14:52:13.964Z</time></trkpt><trkpt lat="45.6644005" lon="10.1351197"><ele>468.0</ele><time>2026-04-25T14:52:14.926Z</time></trkpt><trkpt lat="45.6643885" lon="10.1349264"><ele>468.0</ele><time>2026-04-25T14:52:15.923Z</time></trkpt><trkpt lat="45.6643741" lon="10.1347355"><ele>468.0</ele><time>2026-04-25T14:52:16.912Z</time></trkpt><trkpt lat="45.6643591" lon="10.1345517"><ele>468.0</ele><time>2026-04-25T14:52:17.963Z</time></trkpt><trkpt lat="45.6643535" lon="10.1343876"><ele>468.75</ele><time>2026-04-25T14:52:18.958Z</time></trkpt><trkpt lat="45.664361" lon="10.1342178"><ele>469.5</ele><time>2026-04-25T14:52:19.933Z</time></trkpt><trkpt lat="45.6643963" lon="10.134054"><ele>470.25</ele><time>2026-04-25T14:52:20.958Z</time></trkpt><trkpt lat="45.6644302" lon="10.1339089"><ele>471.0</ele><time>2026-04-25T14:52:21.922Z</time></trkpt><trkpt lat="45.6644566" lon="10.1337579"><ele>472.4</ele><time>2026-04-25T14:52:22.946Z</time></trkpt><trkpt lat="45.6644537" lon="10.1336141"><ele>473.8</ele><time>2026-04-25T14:52:23.945Z</time></trkpt><trkpt lat="45.6644084" lon="10.1334772"><ele>475.19999999999993</ele><time>2026-04-25T14:52:24.951Z</time></trkpt><trkpt lat="45.6643392" lon="10.1333641"><ele>476.59999999999997</ele><time>2026-04-25T14:52:25.958Z</time></trkpt><trkpt lat="45.6642588" lon="10.1332685"><ele>478.0</ele><time>2026-04-25T14:52:26.943Z</time></trkpt><trkpt lat="45.6641821" lon="10.1331839"><ele>480.1666666666667</ele><time>2026-04-25T14:52:27.941Z</time></trkpt><trkpt lat="45.6641215" lon="10.1331089"><ele>482.33333333333337</ele><time>2026-04-25T14:52:28.928Z</time></trkpt><trkpt lat="45.6640542" lon="10.1330275"><ele>484.5</ele><time>2026-04-25T14:52:29.948Z</time></trkpt><trkpt lat="45.6640007" lon="10.1329475"><ele>486.66666666666663</ele><time>2026-04-25T14:52:30.949Z</time></trkpt><trkpt lat="45.6639679" lon="10.1328527"><ele>488.8333333333333</ele><time>2026-04-25T14:52:31.954Z</time></trkpt><trkpt lat="45.6639664" lon="10.1327505"><ele>491.0</ele><time>2026-04-25T14:52:32.918Z</time></trkpt><trkpt lat="45.664006" lon="10.1326083"><ele>491.0</ele><time>2026-04-25T14:52:33.962Z</time></trkpt><trkpt lat="45.6640752" lon="10.1324811"><ele>491.0</ele><time>2026-04-25T14:52:34.95Z</time></trkpt><trkpt lat="45.6641403" lon="10.1323436"><ele>491.0</ele><time>2026-04-25T14:52:35.95Z</time></trkpt><trkpt lat="45.6641995" lon="10.1321887"><ele>491.0</ele><time>2026-04-25T14:52:36.953Z</time></trkpt><trkpt lat="45.6642423" lon="10.1319976"><ele>492.0</ele><time>2026-04-25T14:52:37.955Z</time></trkpt><trkpt lat="45.6642628" lon="10.1318363"><ele>493.0</ele><time>2026-04-25T14:52:38.952Z</time></trkpt><trkpt lat="45.6642731" lon="10.1316779"><ele>494.0</ele><time>2026-04-25T14:52:39.964Z</time></trkpt><trkpt lat="45.6642728" lon="10.1315232"><ele>495.0</ele><time>2026-04-25T14:52:40.98Z</time></trkpt><trkpt lat="45.6642544" lon="10.1313807"><ele>496.0</ele><time>2026-04-25T14:52:41.941Z</time></trkpt><trkpt lat="45.6642132" lon="10.1312387"><ele>498.5</ele><time>2026-04-25T14:52:42.947Z</time></trkpt><trkpt lat="45.6641567" lon="10.131098"><ele>501.0</ele><time>2026-04-25T14:52:43.961Z</time></trkpt><trkpt lat="45.6640886" lon="10.1309607"><ele>503.5</ele><time>2026-04-25T14:52:44.959Z</time></trkpt><trkpt lat="45.6640198" lon="10.1308116"><ele>506.0</ele><time>2026-04-25T14:52:45.956Z</time></trkpt><trkpt lat="45.6639443" lon="10.1306361"><ele>514.3333333333333</ele><time>2026-04-25T14:52:46.949Z</time></trkpt><trkpt lat="45.6638585" lon="10.1304415"><ele>522.6666666666666</ele><time>2026-04-25T14:52:47.944Z</time></trkpt><trkpt lat="45.6637762" lon="10.1302214"><ele>531.0</ele><time>2026-04-25T14:52:48.922Z</time></trkpt><trkpt lat="45.6636868" lon="10.1299875"><ele>527.25</ele><time>2026-04-25T14:52:49.935Z</time></trkpt><trkpt lat="45.6636076" lon="10.1297744"><ele>523.5</ele><time>2026-04-25T14:52:50.943Z</time></trkpt><trkpt lat="45.6635409" lon="10.1295818"><ele>519.75</ele><time>2026-04-25T14:52:51.968Z</time></trkpt><trkpt lat="45.6634743" lon="10.129422"><ele>516.0</ele><time>2026-04-25T14:52:52.922Z</time></trkpt><trkpt lat="45.6633826" lon="10.1292801"><ele>516.0</ele><time>2026-04-25T14:52:53.959Z</time></trkpt><trkpt lat="45.6632618" lon="10.1291934"><ele>516.0</ele><time>2026-04-25T14:52:54.927Z</time></trkpt><trkpt lat="45.663103" lon="10.1291417"><ele>516.0</ele><time>2026-04-25T14:52:55.953Z</time></trkpt><trkpt lat="45.6629219" lon="10.1291138"><ele>513.0</ele><time>2026-04-25T14:52:56.946Z</time></trkpt><trkpt lat="45.6627197" lon="10.129081"><ele>510.0</ele><time>2026-04-25T14:52:57.955Z</time></trkpt><trkpt lat="45.6625125" lon="10.1290333"><ele>507.0</ele><time>2026-04-25T14:52:58.949Z</time></trkpt><trkpt lat="45.6622983" lon="10.1289664"><ele>515.6666666666666</ele><time>2026-04-25T14:52:59.955Z</time></trkpt><trkpt lat="45.6621003" lon="10.1289048"><ele>524.3333333333333</ele><time>2026-04-25T14:53:00.919Z</time></trkpt><trkpt lat="45.6619204" lon="10.1288397"><ele>533.0</ele><time>2026-04-25T14:53:01.926Z</time></trkpt><trkpt lat="45.6617643" lon="10.1287648"><ele>533.0</ele><time>2026-04-25T14:53:02.959Z</time></trkpt><trkpt lat="45.6616439" lon="10.1286546"><ele>533.0</ele><time>2026-04-25T14:53:03.965Z</time></trkpt><trkpt lat="45.6615433" lon="10.1284988"><ele>533.0</ele><time>2026-04-25T14:53:04.953Z</time></trkpt><trkpt lat="45.6614465" lon="10.1283025"><ele>543.0</ele><time>2026-04-25T14:53:05.929Z</time></trkpt><trkpt lat="45.6613461" lon="10.1280715"><ele>553.0</ele><time>2026-04-25T14:53:06.961Z</time></trkpt><trkpt lat="45.661256" lon="10.1278532"><ele>563.0</ele><time>2026-04-25T14:53:07.921Z</time></trkpt><trkpt lat="45.6611586" lon="10.1276399"><ele>561.0</ele><time>2026-04-25T14:53:08.954Z</time></trkpt><trkpt lat="45.6610554" lon="10.1274667"><ele>559.0</ele><time>2026-04-25T14:53:09.944Z</time></trkpt><trkpt lat="45.6609287" lon="10.1273236"><ele>557.0</ele><time>2026-04-25T14:53:10.933Z</time></trkpt><trkpt lat="45.6607666" lon="10.1272298"><ele>557.0</ele><time>2026-04-25T14:53:11.946Z</time></trkpt><trkpt lat="45.6605939" lon="10.1271858"><ele>557.0</ele><time>2026-04-25T14:53:12.921Z</time></trkpt><trkpt lat="45.6603901" lon="10.1271937"><ele>557.0</ele><time>2026-04-25T14:53:13.965Z</time></trkpt><trkpt lat="45.6601993" lon="10.127221"><ele>552.6666666666666</ele><time>2026-04-25T14:53:14.96Z</time></trkpt><trkpt lat="45.6600292" lon="10.1272545"><ele>548.3333333333334</ele><time>2026-04-25T14:53:15.925Z</time></trkpt><trkpt lat="45.6598725" lon="10.1272832"><ele>544.0</ele><time>2026-04-25T14:53:16.928Z</time></trkpt><trkpt lat="45.6597461" lon="10.1272942"><ele>544.0</ele><time>2026-04-25T14:53:17.92Z</time></trkpt><trkpt lat="45.6596506" lon="10.1272749"><ele>544.0</ele><time>2026-04-25T14:53:18.938Z</time></trkpt><trkpt lat="45.6595966" lon="10.1272127"><ele>544.0</ele><time>2026-04-25T14:53:19.918Z</time></trkpt><trkpt lat="45.6595794" lon="10.1271107"><ele>544.0</ele><time>2026-04-25T14:53:20.918Z</time></trkpt><trkpt lat="45.6595997" lon="10.1269585"><ele>544.0</ele><time>2026-04-25T14:53:21.921Z</time></trkpt><trkpt lat="45.6596505" lon="10.1267625"><ele>545.6666666666667</ele><time>2026-04-25T14:53:22.944Z</time></trkpt><trkpt lat="45.6597232" lon="10.1265308"><ele>547.3333333333334</ele><time>2026-04-25T14:53:23.979Z</time></trkpt><trkpt lat="45.6597862" lon="10.126293"><ele>549.0</ele><time>2026-04-25T14:53:24.925Z</time></trkpt><trkpt lat="45.65984" lon="10.126013"><ele>549.0</ele><time>2026-04-25T14:53:25.958Z</time></trkpt><trkpt lat="45.6598726" lon="10.1257577"><ele>549.0</ele><time>2026-04-25T14:53:26.963Z</time></trkpt><trkpt lat="45.6598935" lon="10.1255362"><ele>549.0</ele><time>2026-04-25T14:53:27.958Z</time></trkpt><trkpt lat="45.6599118" lon="10.1253516"><ele>548.6</ele><time>2026-04-25T14:53:28.931Z</time></trkpt><trkpt lat="45.6599249" lon="10.1251972"><ele>548.2</ele><time>2026-04-25T14:53:29.974Z</time></trkpt><trkpt lat="45.6599347" lon="10.125071"><ele>547.8000000000001</ele><time>2026-04-25T14:53:30.93Z</time></trkpt><trkpt lat="45.6599557" lon="10.1249614"><ele>547.4</ele><time>2026-04-25T14:53:31.958Z</time></trkpt><trkpt lat="45.66006" lon="10.1248932"><ele>547.0</ele><time>2026-04-25T14:53:33.967Z</time></trkpt><trkpt lat="45.6601164" lon="10.1249511"><ele>547.0</ele><time>2026-04-25T14:53:34.975Z</time></trkpt><trkpt lat="45.6601404" lon="10.1250604"><ele>547.0</ele><time>2026-04-25T14:53:35.935Z</time></trkpt><trkpt lat="45.6601256" lon="10.1252222"><ele>547.0</ele><time>2026-04-25T14:53:36.932Z</time></trkpt><trkpt lat="45.6600851" lon="10.1254278"><ele>547.0</ele><time>2026-04-25T14:53:37.958Z</time></trkpt><trkpt lat="45.6600409" lon="10.1256555"><ele>547.5</ele><time>2026-04-25T14:53:38.944Z</time></trkpt><trkpt lat="45.6600083" lon="10.1258746"><ele>548.0</ele><time>2026-04-25T14:53:39.927Z</time></trkpt><trkpt lat="45.6599889" lon="10.1260716"><ele>548.5</ele><time>2026-04-25T14:53:40.958Z</time></trkpt><trkpt lat="45.659974" lon="10.126219"><ele>549.0</ele><time>2026-04-25T14:53:41.955Z</time></trkpt><trkpt lat="45.6599663" lon="10.1263373"><ele>549.0</ele><time>2026-04-25T14:53:42.921Z</time></trkpt><trkpt lat="45.6599704" lon="10.1264478"><ele>549.0</ele><time>2026-04-25T14:53:43.951Z</time></trkpt><trkpt lat="45.6600294" lon="10.1266007"><ele>549.0</ele><time>2026-04-25T14:53:45.969Z</time></trkpt><trkpt lat="45.6601473" lon="10.1266227"><ele>549.0</ele><time>2026-04-25T14:53:47.927Z</time></trkpt><trkpt lat="45.6602003" lon="10.1265627"><ele>549.0</ele><time>2026-04-25T14:53:48.966Z</time></trkpt><trkpt lat="45.6602307" lon="10.1264557"><ele>549.0</ele><time>2026-04-25T14:53:49.929Z</time></trkpt><trkpt lat="45.6602381" lon="10.1262926"><ele>549.0</ele><time>2026-04-25T14:53:50.965Z</time></trkpt><trkpt lat="45.6602327" lon="10.1261101"><ele>549.0</ele><time>2026-04-25T14:53:51.942Z</time></trkpt><trkpt lat="45.6602302" lon="10.1259067"><ele>549.0</ele><time>2026-04-25T14:53:52.924Z</time></trkpt><trkpt lat="45.6602369" lon="10.1256763"><ele>548.3333333333334</ele><time>2026-04-25T14:53:53.969Z</time></trkpt><trkpt lat="45.6602582" lon="10.1254499"><ele>547.6666666666667</ele><time>2026-04-25T14:53:54.951Z</time></trkpt><trkpt lat="45.6602924" lon="10.1252167"><ele>547.0</ele><time>2026-04-25T14:53:55.97Z</time></trkpt><trkpt lat="45.6603313" lon="10.125006"><ele>550.6</ele><time>2026-04-25T14:53:56.989Z</time></trkpt><trkpt lat="45.660375" lon="10.1248416"><ele>554.2</ele><time>2026-04-25T14:53:57.952Z</time></trkpt><trkpt lat="45.6604248" lon="10.1247027"><ele>557.8</ele><time>2026-04-25T14:53:58.966Z</time></trkpt><trkpt lat="45.6604774" lon="10.12459"><ele>561.4</ele><time>2026-04-25T14:53:59.955Z</time></trkpt><trkpt lat="45.6605283" lon="10.1245112"><ele>565.0</ele><time>2026-04-25T14:54:00.921Z</time></trkpt><trkpt lat="45.6605897" lon="10.1244505"><ele>565.0</ele><time>2026-04-25T14:54:01.968Z</time></trkpt><trkpt lat="45.6606587" lon="10.124408"><ele>565.0</ele><time>2026-04-25T14:54:02.953Z</time></trkpt><trkpt lat="45.660733" lon="10.1243538"><ele>565.0</ele><time>2026-04-25T14:54:03.955Z</time></trkpt><trkpt lat="45.6608041" lon="10.1242912"><ele>565.0</ele><time>2026-04-25T14:54:04.956Z</time></trkpt><trkpt lat="45.6608685" lon="10.1242179"><ele>565.0</ele><time>2026-04-25T14:54:05.958Z</time></trkpt><trkpt lat="45.6609273" lon="10.1241455"><ele>565.0</ele><time>2026-04-25T14:54:06.931Z</time></trkpt><trkpt lat="45.6609919" lon="10.1240392"><ele>564.0</ele><time>2026-04-25T14:54:07.968Z</time></trkpt><trkpt lat="45.661057" lon="10.123929"><ele>563.0</ele><time>2026-04-25T14:54:08.922Z</time></trkpt><trkpt lat="45.6611198" lon="10.1237812"><ele>562.0</ele><time>2026-04-25T14:54:09.963Z</time></trkpt><trkpt lat="45.661161" lon="10.1236154"><ele>561.0</ele><time>2026-04-25T14:54:10.955Z</time></trkpt><trkpt lat="45.6611949" lon="10.1234465"><ele>566.75</ele><time>2026-04-25T14:54:11.927Z</time></trkpt><trkpt lat="45.6612218" lon="10.1232609"><ele>572.5</ele><time>2026-04-25T14:54:12.957Z</time></trkpt><trkpt lat="45.6612299" lon="10.1230416"><ele>578.25</ele><time>2026-04-25T14:54:13.968Z</time></trkpt><trkpt lat="45.6612437" lon="10.1228193"><ele>584.0</ele><time>2026-04-25T14:54:14.959Z</time></trkpt><trkpt lat="45.6612721" lon="10.1225453"><ele>583.6666666666666</ele><time>2026-04-25T14:54:16.332Z</time></trkpt><trkpt lat="45.6613272" lon="10.1222599"><ele>583.3333333333334</ele><time>2026-04-25T14:54:18.009Z</time></trkpt><trkpt lat="45.6613736" lon="10.1220853"><ele>583.0</ele><time>2026-04-25T14:54:19.001Z</time></trkpt><trkpt lat="45.6614311" lon="10.1219069"><ele>583.0</ele><time>2026-04-25T14:54:20.005Z</time></trkpt><trkpt lat="45.6614945" lon="10.1217269"><ele>583.0</ele><time>2026-04-25T14:54:21.005Z</time></trkpt><trkpt lat="45.6615616" lon="10.1215517"><ele>583.0</ele><time>2026-04-25T14:54:21.972Z</time></trkpt><trkpt lat="45.6616375" lon="10.121357"><ele>583.0</ele><time>2026-04-25T14:54:23.02Z</time></trkpt><trkpt lat="45.6617071" lon="10.1211748"><ele>581.3333333333334</ele><time>2026-04-25T14:54:23.988Z</time></trkpt><trkpt lat="45.6617775" lon="10.1209792"><ele>579.6666666666666</ele><time>2026-04-25T14:54:25.016Z</time></trkpt><trkpt lat="45.6618471" lon="10.1207854"><ele>578.0</ele><time>2026-04-25T14:54:26.029Z</time></trkpt><trkpt lat="45.6619172" lon="10.1205955"><ele>584.3333333333333</ele><time>2026-04-25T14:54:27.012Z</time></trkpt><trkpt lat="45.6619929" lon="10.1203988"><ele>590.6666666666666</ele><time>2026-04-25T14:54:28.016Z</time></trkpt><trkpt lat="45.662067" lon="10.1202078"><ele>597.0</ele><time>2026-04-25T14:54:28.981Z</time></trkpt><trkpt lat="45.662144" lon="10.1199958"><ele>596.0</ele><time>2026-04-25T14:54:30.026Z</time></trkpt><trkpt lat="45.6622162" lon="10.1197934"><ele>595.0</ele><time>2026-04-25T14:54:31.007Z</time></trkpt><trkpt lat="45.6622938" lon="10.1195855"><ele>594.0</ele><time>2026-04-25T14:54:32.022Z</time></trkpt><trkpt lat="45.6623686" lon="10.1193933"><ele>594.0</ele><time>2026-04-25T14:54:32.981Z</time></trkpt><trkpt lat="45.6624367" lon="10.1192002"><ele>594.0</ele><time>2026-04-25T14:54:33.97Z</time></trkpt><trkpt lat="45.6624842" lon="10.1190033"><ele>594.0</ele><time>2026-04-25T14:54:35.01Z</time></trkpt><trkpt lat="45.6625051" lon="10.1188106"><ele>594.0</ele><time>2026-04-25T14:54:36.007Z</time></trkpt><trkpt lat="45.6625062" lon="10.1186153"><ele>594.5</ele><time>2026-04-25T14:54:37.011Z</time></trkpt><trkpt lat="45.6624933" lon="10.1184245"><ele>595.0</ele><time>2026-04-25T14:54:38.008Z</time></trkpt><trkpt lat="45.6624689" lon="10.1182382"><ele>595.5</ele><time>2026-04-25T14:54:39.021Z</time></trkpt><trkpt lat="45.6624489" lon="10.1180708"><ele>596.0</ele><time>2026-04-25T14:54:39.98Z</time></trkpt><trkpt lat="45.6624367" lon="10.1179139"><ele>597.6666666666666</ele><time>2026-04-25T14:54:41.018Z</time></trkpt><trkpt lat="45.6624266" lon="10.117777"><ele>599.3333333333333</ele><time>2026-04-25T14:54:42.029Z</time></trkpt><trkpt lat="45.6624164" lon="10.1176665"><ele>601.0</ele><time>2026-04-25T14:54:42.977Z</time></trkpt><trkpt lat="45.6623913" lon="10.1175653"><ele>602.6666666666666</ele><time>2026-04-25T14:54:43.954Z</time></trkpt><trkpt lat="45.6623446" lon="10.1174874"><ele>604.3333333333334</ele><time>2026-04-25T14:54:44.967Z</time></trkpt><trkpt lat="45.6622766" lon="10.1174348"><ele>606.0</ele><time>2026-04-25T14:54:45.93Z</time></trkpt><trkpt lat="45.6621865" lon="10.1174113"><ele>606.0</ele><time>2026-04-25T14:54:46.928Z</time></trkpt><trkpt lat="45.6620877" lon="10.1174453"><ele>606.0</ele><time>2026-04-25T14:54:47.941Z</time></trkpt><trkpt lat="45.6619637" lon="10.1175253"><ele>606.0</ele><time>2026-04-25T14:54:48.93Z</time></trkpt><trkpt lat="45.6618441" lon="10.1175884"><ele>606.0</ele><time>2026-04-25T14:54:49.96Z</time></trkpt><trkpt lat="45.6617352" lon="10.1176154"><ele>605.5</ele><time>2026-04-25T14:54:50.95Z</time></trkpt><trkpt lat="45.6616282" lon="10.1176028"><ele>605.0</ele><time>2026-04-25T14:54:51.957Z</time></trkpt><trkpt lat="45.6615261" lon="10.1175543"><ele>604.5</ele><time>2026-04-25T14:54:52.958Z</time></trkpt><trkpt lat="45.6614265" lon="10.117484"><ele>604.0</ele><time>2026-04-25T14:54:53.927Z</time></trkpt><trkpt lat="45.6613131" lon="10.117399"><ele>604.6</ele><time>2026-04-25T14:54:54.965Z</time></trkpt><trkpt lat="45.6612119" lon="10.1173268"><ele>605.2</ele><time>2026-04-25T14:54:55.956Z</time></trkpt><trkpt lat="45.6611122" lon="10.1172536"><ele>605.8000000000001</ele><time>2026-04-25T14:54:56.959Z</time></trkpt><trkpt lat="45.6610161" lon="10.1171822"><ele>606.4</ele><time>2026-04-25T14:54:57.948Z</time></trkpt><trkpt lat="45.6609244" lon="10.117112"><ele>607.0</ele><time>2026-04-25T14:54:58.969Z</time></trkpt><trkpt lat="45.6608455" lon="10.1170504"><ele>607.0</ele><time>2026-04-25T14:54:59.926Z</time></trkpt><trkpt lat="45.6607782" lon="10.1169769"><ele>607.0</ele><time>2026-04-25T14:55:00.927Z</time></trkpt><trkpt lat="45.6607363" lon="10.116888"><ele>607.0</ele><time>2026-04-25T14:55:01.964Z</time></trkpt><trkpt lat="45.66073" lon="10.1167947"><ele>607.0</ele><time>2026-04-25T14:55:02.939Z</time></trkpt><trkpt lat="45.6607638" lon="10.1166999"><ele>607.0</ele><time>2026-04-25T14:55:03.944Z</time></trkpt><trkpt lat="45.6608427" lon="10.1166369"><ele>607.0</ele><time>2026-04-25T14:55:04.96Z</time></trkpt><trkpt lat="45.6609533" lon="10.1166291"><ele>607.0</ele><time>2026-04-25T14:55:05.961Z</time></trkpt><trkpt lat="45.6610891" lon="10.1166507"><ele>607.0</ele><time>2026-04-25T14:55:06.949Z</time></trkpt><trkpt lat="45.6612518" lon="10.1166746"><ele>607.0</ele><time>2026-04-25T14:55:07.959Z</time></trkpt><trkpt lat="45.6614074" lon="10.1166996"><ele>610.0</ele><time>2026-04-25T14:55:08.92Z</time></trkpt><trkpt lat="45.6615808" lon="10.1167217"><ele>613.0</ele><time>2026-04-25T14:55:09.963Z</time></trkpt><trkpt lat="45.6617255" lon="10.1167399"><ele>616.0</ele><time>2026-04-25T14:55:10.949Z</time></trkpt><trkpt lat="45.6618651" lon="10.1167604"><ele>617.5</ele><time>2026-04-25T14:55:11.93Z</time></trkpt><trkpt lat="45.6620033" lon="10.1167858"><ele>619.0</ele><time>2026-04-25T14:55:12.987Z</time></trkpt><trkpt lat="45.6621313" lon="10.1167955"><ele>620.5</ele><time>2026-04-25T14:55:13.954Z</time></trkpt><trkpt lat="45.6622603" lon="10.1167762"><ele>622.0</ele><time>2026-04-25T14:55:14.964Z</time></trkpt><trkpt lat="45.662366" lon="10.1167249"><ele>622.0</ele><time>2026-04-25T14:55:15.917Z</time></trkpt><trkpt lat="45.6624702" lon="10.1166465"><ele>622.0</ele><time>2026-04-25T14:55:16.973Z</time></trkpt><trkpt lat="45.6625502" lon="10.1165958"><ele>622.0</ele><time>2026-04-25T14:55:17.952Z</time></trkpt><trkpt lat="45.6626376" lon="10.1165942"><ele>622.0</ele><time>2026-04-25T14:55:18.952Z</time></trkpt><trkpt lat="45.6627199" lon="10.116631"><ele>622.0</ele><time>2026-04-25T14:55:19.95Z</time></trkpt><trkpt lat="45.6627974" lon="10.1167115"><ele>625.5</ele><time>2026-04-25T14:55:20.957Z</time></trkpt><trkpt lat="45.6628713" lon="10.1168053"><ele>629.0</ele><time>2026-04-25T14:55:21.961Z</time></trkpt><trkpt lat="45.6629353" lon="10.1168899"><ele>632.5</ele><time>2026-04-25T14:55:22.961Z</time></trkpt><trkpt lat="45.6629954" lon="10.1169468"><ele>636.0</ele><time>2026-04-25T14:55:23.964Z</time></trkpt><trkpt lat="45.6631193" lon="10.1169364"><ele>639.5</ele><time>2026-04-25T14:55:25.961Z</time></trkpt><trkpt lat="45.663169" lon="10.1168756"><ele>643.0</ele><time>2026-04-25T14:55:26.918Z</time></trkpt><trkpt lat="45.6632023" lon="10.1167687"><ele>643.0</ele><time>2026-04-25T14:55:27.955Z</time></trkpt><trkpt lat="45.6632016" lon="10.1166424"><ele>643.0</ele><time>2026-04-25T14:55:28.959Z</time></trkpt><trkpt lat="45.663177" lon="10.1165042"><ele>643.0</ele><time>2026-04-25T14:55:29.967Z</time></trkpt><trkpt lat="45.6631416" lon="10.116363"><ele>643.0</ele><time>2026-04-25T14:55:30.93Z</time></trkpt><trkpt lat="45.6631005" lon="10.1162233"><ele>643.0</ele><time>2026-04-25T14:55:31.966Z</time></trkpt><trkpt lat="45.6630551" lon="10.1161028"><ele>643.2</ele><time>2026-04-25T14:55:32.959Z</time></trkpt><trkpt lat="45.6629976" lon="10.1159988"><ele>643.4</ele><time>2026-04-25T14:55:33.922Z</time></trkpt><trkpt lat="45.6629143" lon="10.1159018"><ele>643.6</ele><time>2026-04-25T14:55:34.956Z</time></trkpt><trkpt lat="45.66281" lon="10.1158241"><ele>643.8000000000001</ele><time>2026-04-25T14:55:35.958Z</time></trkpt><trkpt lat="45.6627014" lon="10.1157586"><ele>644.0</ele><time>2026-04-25T14:55:36.947Z</time></trkpt><trkpt lat="45.6625861" lon="10.1156933"><ele>644.0</ele><time>2026-04-25T14:55:37.96Z</time></trkpt><trkpt lat="45.6624961" lon="10.1156269"><ele>644.0</ele><time>2026-04-25T14:55:38.928Z</time></trkpt><trkpt lat="45.6624201" lon="10.1155463"><ele>644.0</ele><time>2026-04-25T14:55:39.926Z</time></trkpt><trkpt lat="45.6623632" lon="10.1154365"><ele>644.0</ele><time>2026-04-25T14:55:40.963Z</time></trkpt><trkpt lat="45.6623264" lon="10.1152924"><ele>644.0</ele><time>2026-04-25T14:55:41.96Z</time></trkpt><trkpt lat="45.6623161" lon="10.115138"><ele>644.0</ele><time>2026-04-25T14:55:42.951Z</time></trkpt><trkpt lat="45.6623349" lon="10.1149706"><ele>644.0</ele><time>2026-04-25T14:55:43.967Z</time></trkpt><trkpt lat="45.6623489" lon="10.1148198"><ele>644.0</ele><time>2026-04-25T14:55:44.93Z</time></trkpt><trkpt lat="45.6623588" lon="10.1146768"><ele>644.0</ele><time>2026-04-25T14:55:45.925Z</time></trkpt><trkpt lat="45.6623443" lon="10.114551"><ele>644.0</ele><time>2026-04-25T14:55:46.953Z</time></trkpt><trkpt lat="45.6622967" lon="10.1144683"><ele>646.1666666666666</ele><time>2026-04-25T14:55:47.971Z</time></trkpt><trkpt lat="45.662222" lon="10.114431"><ele>648.3333333333333</ele><time>2026-04-25T14:55:48.973Z</time></trkpt><trkpt lat="45.6621363" lon="10.1144355"><ele>650.5</ele><time>2026-04-25T14:55:49.963Z</time></trkpt><trkpt lat="45.6620485" lon="10.1144614"><ele>652.6666666666666</ele><time>2026-04-25T14:55:50.94Z</time></trkpt><trkpt lat="45.661965" lon="10.1144892"><ele>654.8333333333334</ele><time>2026-04-25T14:55:51.949Z</time></trkpt><trkpt lat="45.6618848" lon="10.1145005"><ele>657.0</ele><time>2026-04-25T14:55:52.952Z</time></trkpt><trkpt lat="45.661798" lon="10.1144931"><ele>657.0</ele><time>2026-04-25T14:55:53.971Z</time></trkpt><trkpt lat="45.6617179" lon="10.1144582"><ele>657.0</ele><time>2026-04-25T14:55:54.961Z</time></trkpt><trkpt lat="45.6616398" lon="10.1143931"><ele>657.0</ele><time>2026-04-25T14:55:55.974Z</time></trkpt><trkpt lat="45.6615644" lon="10.1142869"><ele>657.0</ele><time>2026-04-25T14:55:56.946Z</time></trkpt><trkpt lat="45.6614836" lon="10.1141439"><ele>657.0</ele><time>2026-04-25T14:55:57.928Z</time></trkpt><trkpt lat="45.6614003" lon="10.1139722"><ele>662.6666666666666</ele><time>2026-04-25T14:55:58.956Z</time></trkpt><trkpt lat="45.6613219" lon="10.1137894"><ele>668.3333333333333</ele><time>2026-04-25T14:55:59.967Z</time></trkpt><trkpt lat="45.66124" lon="10.113619"><ele>674.0</ele><time>2026-04-25T14:56:00.922Z</time></trkpt><trkpt lat="45.6611381" lon="10.1134186"><ele>670.3333333333333</ele><time>2026-04-25T14:56:01.971Z</time></trkpt><trkpt lat="45.6610374" lon="10.1132292"><ele>666.6666666666666</ele><time>2026-04-25T14:56:02.964Z</time></trkpt><trkpt lat="45.6609387" lon="10.1130443"><ele>663.0</ele><time>2026-04-25T14:56:03.931Z</time></trkpt><trkpt lat="45.6608353" lon="10.1128563"><ele>663.0</ele><time>2026-04-25T14:56:04.951Z</time></trkpt><trkpt lat="45.6607375" lon="10.1126813"><ele>663.0</ele><time>2026-04-25T14:56:05.951Z</time></trkpt><trkpt lat="45.6606492" lon="10.1125155"><ele>663.0</ele><time>2026-04-25T14:56:06.925Z</time></trkpt><trkpt lat="45.6605601" lon="10.1123407"><ele>665.5</ele><time>2026-04-25T14:56:07.929Z</time></trkpt><trkpt lat="45.660485" lon="10.1121718"><ele>668.0</ele><time>2026-04-25T14:56:08.966Z</time></trkpt><trkpt lat="45.6604403" lon="10.1120082"><ele>670.5</ele><time>2026-04-25T14:56:09.947Z</time></trkpt><trkpt lat="45.6604317" lon="10.1118358"><ele>673.0</ele><time>2026-04-25T14:56:10.923Z</time></trkpt><trkpt lat="45.6604593" lon="10.1116482"><ele>671.3333333333334</ele><time>2026-04-25T14:56:11.968Z</time></trkpt><trkpt lat="45.6605223" lon="10.1114661"><ele>669.6666666666666</ele><time>2026-04-25T14:56:12.974Z</time></trkpt><trkpt lat="45.6606091" lon="10.111291"><ele>668.0</ele><time>2026-04-25T14:56:13.963Z</time></trkpt><trkpt lat="45.6607145" lon="10.1111162"><ele>668.0</ele><time>2026-04-25T14:56:14.968Z</time></trkpt><trkpt lat="45.660825" lon="10.110942"><ele>668.0</ele><time>2026-04-25T14:56:15.941Z</time></trkpt><trkpt lat="45.6609343" lon="10.1107595"><ele>668.0</ele><time>2026-04-25T14:56:16.956Z</time></trkpt><trkpt lat="45.661027" lon="10.110596"><ele>669.5</ele><time>2026-04-25T14:56:17.957Z</time></trkpt><trkpt lat="45.6610955" lon="10.1104475"><ele>671.0</ele><time>2026-04-25T14:56:18.964Z</time></trkpt><trkpt lat="45.6611242" lon="10.1103005"><ele>672.5</ele><time>2026-04-25T14:56:19.959Z</time></trkpt><trkpt lat="45.6611061" lon="10.1101318"><ele>674.0</ele><time>2026-04-25T14:56:20.958Z</time></trkpt><trkpt lat="45.6610563" lon="10.1099727"><ele>677.0</ele><time>2026-04-25T14:56:21.926Z</time></trkpt><trkpt lat="45.6609664" lon="10.1097789"><ele>680.0</ele><time>2026-04-25T14:56:22.957Z</time></trkpt><trkpt lat="45.6608731" lon="10.1095808"><ele>683.0</ele><time>2026-04-25T14:56:23.961Z</time></trkpt><trkpt lat="45.6608088" lon="10.1093724"><ele>683.0</ele><time>2026-04-25T14:56:24.953Z</time></trkpt><trkpt lat="45.6607718" lon="10.1091625"><ele>683.0</ele><time>2026-04-25T14:56:25.957Z</time></trkpt><trkpt lat="45.6607694" lon="10.108938"><ele>683.0</ele><time>2026-04-25T14:56:26.953Z</time></trkpt><trkpt lat="45.6608117" lon="10.1087184"><ele>682.6666666666666</ele><time>2026-04-25T14:56:27.967Z</time></trkpt><trkpt lat="45.6608825" lon="10.1085185"><ele>682.3333333333334</ele><time>2026-04-25T14:56:28.959Z</time></trkpt><trkpt lat="45.6609856" lon="10.1083392"><ele>682.0</ele><time>2026-04-25T14:56:29.952Z</time></trkpt><trkpt lat="45.6610864" lon="10.1081771"><ele>693.5</ele><time>2026-04-25T14:56:30.948Z</time></trkpt><trkpt lat="45.6611685" lon="10.10801"><ele>705.0</ele><time>2026-04-25T14:56:31.933Z</time></trkpt><trkpt lat="45.661214" lon="10.1078311"><ele>716.5</ele><time>2026-04-25T14:56:32.947Z</time></trkpt><trkpt lat="45.661213" lon="10.1076415"><ele>728.0</ele><time>2026-04-25T14:56:33.93Z</time></trkpt><trkpt lat="45.6611742" lon="10.1074573"><ele>714.3333333333333</ele><time>2026-04-25T14:56:34.928Z</time></trkpt><trkpt lat="45.6610984" lon="10.1072699"><ele>700.6666666666666</ele><time>2026-04-25T14:56:35.923Z</time></trkpt><trkpt lat="45.6610047" lon="10.1070699"><ele>687.0</ele><time>2026-04-25T14:56:36.971Z</time></trkpt><trkpt lat="45.660919" lon="10.1068803"><ele>687.0</ele><time>2026-04-25T14:56:37.971Z</time></trkpt><trkpt lat="45.6608422" lon="10.1067065"><ele>687.0</ele><time>2026-04-25T14:56:38.96Z</time></trkpt><trkpt lat="45.6607655" lon="10.1065506"><ele>687.0</ele><time>2026-04-25T14:56:39.929Z</time></trkpt><trkpt lat="45.660691" lon="10.1064018"><ele>687.0</ele><time>2026-04-25T14:56:40.967Z</time></trkpt><trkpt lat="45.6606328" lon="10.1062695"><ele>688.0</ele><time>2026-04-25T14:56:41.952Z</time></trkpt><trkpt lat="45.6606028" lon="10.106138"><ele>689.0</ele><time>2026-04-25T14:56:42.937Z</time></trkpt><trkpt lat="45.66061" lon="10.105999"><ele>690.0</ele><time>2026-04-25T14:56:43.965Z</time></trkpt><trkpt lat="45.6606404" lon="10.1058588"><ele>691.0</ele><time>2026-04-25T14:56:44.979Z</time></trkpt><trkpt lat="45.6606849" lon="10.1057248"><ele>692.0</ele><time>2026-04-25T14:56:45.92Z</time></trkpt><trkpt lat="45.6607403" lon="10.1055743"><ele>688.0</ele><time>2026-04-25T14:56:46.945Z</time></trkpt><trkpt lat="45.6607994" lon="10.1054166"><ele>684.0</ele><time>2026-04-25T14:56:47.949Z</time></trkpt><trkpt lat="45.6608605" lon="10.1052512"><ele>680.0</ele><time>2026-04-25T14:56:48.961Z</time></trkpt><trkpt lat="45.6609187" lon="10.1050866"><ele>676.0</ele><time>2026-04-25T14:56:49.963Z</time></trkpt><trkpt lat="45.6609721" lon="10.1049267"><ele>674.25</ele><time>2026-04-25T14:56:50.924Z</time></trkpt><trkpt lat="45.6610175" lon="10.1047561"><ele>672.5</ele><time>2026-04-25T14:56:51.95Z</time></trkpt><trkpt lat="45.6610351" lon="10.1045836"><ele>670.75</ele><time>2026-04-25T14:56:52.961Z</time></trkpt><trkpt lat="45.6610371" lon="10.1043811"><ele>669.0</ele><time>2026-04-25T14:56:53.956Z</time></trkpt><trkpt lat="45.6610142" lon="10.1041766"><ele>669.6666666666666</ele><time>2026-04-25T14:56:54.958Z</time></trkpt><trkpt lat="45.6609734" lon="10.1039623"><ele>670.3333333333333</ele><time>2026-04-25T14:56:55.969Z</time></trkpt><trkpt lat="45.6609342" lon="10.1037541"><ele>671.0</ele><time>2026-04-25T14:56:56.957Z</time></trkpt><trkpt lat="45.6608981" lon="10.103543"><ele>671.0</ele><time>2026-04-25T14:56:57.945Z</time></trkpt><trkpt lat="45.6608715" lon="10.1033332"><ele>671.0</ele><time>2026-04-25T14:56:58.947Z</time></trkpt><trkpt lat="45.6608558" lon="10.103118"><ele>671.0</ele><time>2026-04-25T14:56:59.97Z</time></trkpt><trkpt lat="45.6608493" lon="10.1029176"><ele>671.0</ele><time>2026-04-25T14:57:00.922Z</time></trkpt><trkpt lat="45.660842" lon="10.1026893"><ele>672.0</ele><time>2026-04-25T14:57:01.962Z</time></trkpt><trkpt lat="45.6608335" lon="10.1024629"><ele>673.0</ele><time>2026-04-25T14:57:02.962Z</time></trkpt><trkpt lat="45.6608162" lon="10.1022452"><ele>674.0</ele><time>2026-04-25T14:57:03.93Z</time></trkpt><trkpt lat="45.660797" lon="10.1020139"><ele>674.0</ele><time>2026-04-25T14:57:04.958Z</time></trkpt><trkpt lat="45.6607822" lon="10.101796"><ele>674.0</ele><time>2026-04-25T14:57:05.942Z</time></trkpt><trkpt lat="45.6607699" lon="10.1015752"><ele>674.0</ele><time>2026-04-25T14:57:06.955Z</time></trkpt><trkpt lat="45.6607604" lon="10.1013691"><ele>673.0</ele><time>2026-04-25T14:57:07.93Z</time></trkpt><trkpt lat="45.6607549" lon="10.1011515"><ele>672.0</ele><time>2026-04-25T14:57:08.953Z</time></trkpt><trkpt lat="45.6607592" lon="10.1009402"><ele>671.0</ele><time>2026-04-25T14:57:09.949Z</time></trkpt><trkpt lat="45.6607724" lon="10.1007291"><ele>670.0</ele><time>2026-04-25T14:57:10.962Z</time></trkpt><trkpt lat="45.6607838" lon="10.1005312"><ele>668.25</ele><time>2026-04-25T14:57:11.961Z</time></trkpt><trkpt lat="45.6607861" lon="10.1003336"><ele>666.5</ele><time>2026-04-25T14:57:12.928Z</time></trkpt><trkpt lat="45.6607783" lon="10.1001288"><ele>664.75</ele><time>2026-04-25T14:57:13.936Z</time></trkpt><trkpt lat="45.6607559" lon="10.099924"><ele>663.0</ele><time>2026-04-25T14:57:14.927Z</time></trkpt><trkpt lat="45.6607269" lon="10.0997097"><ele>663.0</ele><time>2026-04-25T14:57:15.952Z</time></trkpt><trkpt lat="45.6607023" lon="10.0995011"><ele>663.0</ele><time>2026-04-25T14:57:16.924Z</time></trkpt><trkpt lat="45.6606785" lon="10.0992675"><ele>663.0</ele><time>2026-04-25T14:57:17.967Z</time></trkpt><trkpt lat="45.660664" lon="10.0990478"><ele>663.6666666666666</ele><time>2026-04-25T14:57:18.934Z</time></trkpt><trkpt lat="45.6606567" lon="10.0988154"><ele>664.3333333333333</ele><time>2026-04-25T14:57:19.931Z</time></trkpt><trkpt lat="45.660652" lon="10.0985743"><ele>665.0</ele><time>2026-04-25T14:57:20.941Z</time></trkpt><trkpt lat="45.6606485" lon="10.0983373"><ele>663.3333333333333</ele><time>2026-04-25T14:57:21.931Z</time></trkpt><trkpt lat="45.6606388" lon="10.0980905"><ele>661.6666666666666</ele><time>2026-04-25T14:57:22.928Z</time></trkpt><trkpt lat="45.6606276" lon="10.0978334"><ele>660.0</ele><time>2026-04-25T14:57:23.937Z</time></trkpt><trkpt lat="45.6606159" lon="10.097578"><ele>660.0</ele><time>2026-04-25T14:57:24.931Z</time></trkpt><trkpt lat="45.6606107" lon="10.0973151"><ele>660.0</ele><time>2026-04-25T14:57:25.963Z</time></trkpt><trkpt lat="45.6606046" lon="10.0970736"><ele>660.0</ele><time>2026-04-25T14:57:26.954Z</time></trkpt><trkpt lat="45.6605961" lon="10.0968387"><ele>660.0</ele><time>2026-04-25T14:57:27.961Z</time></trkpt><trkpt lat="45.6605863" lon="10.0966223"><ele>660.0</ele><time>2026-04-25T14:57:28.937Z</time></trkpt><trkpt lat="45.6605754" lon="10.0964069"><ele>660.0</ele><time>2026-04-25T14:57:29.97Z</time></trkpt><trkpt lat="45.6605701" lon="10.0962134"><ele>660.0</ele><time>2026-04-25T14:57:30.968Z</time></trkpt><trkpt lat="45.660563" lon="10.0960355"><ele>658.75</ele><time>2026-04-25T14:57:31.945Z</time></trkpt><trkpt lat="45.6605545" lon="10.0958521"><ele>657.5</ele><time>2026-04-25T14:57:33.001Z</time></trkpt><trkpt lat="45.6605524" lon="10.0956891"><ele>656.25</ele><time>2026-04-25T14:57:33.931Z</time></trkpt><trkpt lat="45.660571" lon="10.095502"><ele>655.0</ele><time>2026-04-25T14:57:34.961Z</time></trkpt><trkpt lat="45.6606142" lon="10.0953218"><ele>653.25</ele><time>2026-04-25T14:57:35.925Z</time></trkpt><trkpt lat="45.6606749" lon="10.09514"><ele>651.5</ele><time>2026-04-25T14:57:36.927Z</time></trkpt><trkpt lat="45.6607422" lon="10.094967"><ele>649.75</ele><time>2026-04-25T14:57:37.929Z</time></trkpt><trkpt lat="45.6608124" lon="10.0947913"><ele>648.0</ele><time>2026-04-25T14:57:38.966Z</time></trkpt><trkpt lat="45.6608527" lon="10.0946309"><ele>645.3333333333334</ele><time>2026-04-25T14:57:39.925Z</time></trkpt><trkpt lat="45.6608702" lon="10.0944479"><ele>642.6666666666667</ele><time>2026-04-25T14:57:40.935Z</time></trkpt><trkpt lat="45.6609104" lon="10.0941993"><ele>640.0</ele><time>2026-04-25T14:57:42.318Z</time></trkpt><trkpt lat="45.6609787" lon="10.0938361"><ele>645.0</ele><time>2026-04-25T14:57:43.974Z</time></trkpt><trkpt lat="45.6610587" lon="10.0936482"><ele>650.0</ele><time>2026-04-25T14:57:45.002Z</time></trkpt><trkpt lat="45.6611505" lon="10.0934874"><ele>655.0</ele><time>2026-04-25T14:57:45.99Z</time></trkpt><trkpt lat="45.6612552" lon="10.0933317"><ele>650.5</ele><time>2026-04-25T14:57:47.032Z</time></trkpt><trkpt lat="45.6613334" lon="10.0931681"><ele>646.0</ele><time>2026-04-25T14:57:48.01Z</time></trkpt><trkpt lat="45.6613871" lon="10.0929883"><ele>641.5</ele><time>2026-04-25T14:57:48.976Z</time></trkpt><trkpt lat="45.6614187" lon="10.0927906"><ele>637.0</ele><time>2026-04-25T14:57:49.993Z</time></trkpt><trkpt lat="45.6614403" lon="10.092598"><ele>632.25</ele><time>2026-04-25T14:57:50.984Z</time></trkpt><trkpt lat="45.6614849" lon="10.0924153"><ele>627.5</ele><time>2026-04-25T14:57:52.003Z</time></trkpt><trkpt lat="45.6615628" lon="10.0922494"><ele>622.75</ele><time>2026-04-25T14:57:53.002Z</time></trkpt><trkpt lat="45.6616628" lon="10.0920974"><ele>618.0</ele><time>2026-04-25T14:57:53.981Z</time></trkpt><trkpt lat="45.6617819" lon="10.0919412"><ele>618.0</ele><time>2026-04-25T14:57:55.004Z</time></trkpt><trkpt lat="45.6618848" lon="10.091782"><ele>618.0</ele><time>2026-04-25T14:57:55.994Z</time></trkpt><trkpt lat="45.6619786" lon="10.0916114"><ele>618.0</ele><time>2026-04-25T14:57:57.008Z</time></trkpt><trkpt lat="45.6620539" lon="10.0914539"><ele>618.0</ele><time>2026-04-25T14:57:57.981Z</time></trkpt><trkpt lat="45.6621274" lon="10.0912882"><ele>617.0</ele><time>2026-04-25T14:57:59.007Z</time></trkpt><trkpt lat="45.6621886" lon="10.0911274"><ele>616.0</ele><time>2026-04-25T14:57:59.977Z</time></trkpt><trkpt lat="45.6622479" lon="10.0909604"><ele>615.0</ele><time>2026-04-25T14:58:00.981Z</time></trkpt><trkpt lat="45.6623086" lon="10.0907926"><ele>614.0</ele><time>2026-04-25T14:58:02.01Z</time></trkpt><trkpt lat="45.6623691" lon="10.0906266"><ele>614.0</ele><time>2026-04-25T14:58:03.015Z</time></trkpt><trkpt lat="45.6624262" lon="10.0904633"><ele>614.0</ele><time>2026-04-25T14:58:03.979Z</time></trkpt><trkpt lat="45.6624877" lon="10.0902899"><ele>614.0</ele><time>2026-04-25T14:58:04.979Z</time></trkpt><trkpt lat="45.6625581" lon="10.0901036"><ele>614.0</ele><time>2026-04-25T14:58:06.005Z</time></trkpt><trkpt lat="45.6626297" lon="10.0899168"><ele>609.5</ele><time>2026-04-25T14:58:07.005Z</time></trkpt><trkpt lat="45.6626997" lon="10.0897229"><ele>605.0</ele><time>2026-04-25T14:58:08.013Z</time></trkpt><trkpt lat="45.6627662" lon="10.0895354"><ele>600.5</ele><time>2026-04-25T14:58:09.008Z</time></trkpt><trkpt lat="45.6628325" lon="10.0893505"><ele>596.0</ele><time>2026-04-25T14:58:10.014Z</time></trkpt><trkpt lat="45.6628959" lon="10.0891748"><ele>601.25</ele><time>2026-04-25T14:58:11.001Z</time></trkpt><trkpt lat="45.6629561" lon="10.0890002"><ele>606.5</ele><time>2026-04-25T14:58:11.993Z</time></trkpt><trkpt lat="45.6630141" lon="10.088824"><ele>611.75</ele><time>2026-04-25T14:58:13.004Z</time></trkpt><trkpt lat="45.6630663" lon="10.0886497"><ele>617.0</ele><time>2026-04-25T14:58:13.997Z</time></trkpt><trkpt lat="45.6631135" lon="10.0884678"><ele>617.0</ele><time>2026-04-25T14:58:15.012Z</time></trkpt><trkpt lat="45.6631564" lon="10.0882865"><ele>617.0</ele><time>2026-04-25T14:58:15.993Z</time></trkpt><trkpt lat="45.6631981" lon="10.0881025"><ele>617.0</ele><time>2026-04-25T14:58:16.979Z</time></trkpt><trkpt lat="45.663236" lon="10.0879107"><ele>617.0</ele><time>2026-04-25T14:58:17.992Z</time></trkpt><trkpt lat="45.6632714" lon="10.0877234"><ele>612.75</ele><time>2026-04-25T14:58:19.005Z</time></trkpt><trkpt lat="45.6633044" lon="10.0875526"><ele>608.5</ele><time>2026-04-25T14:58:19.951Z</time></trkpt><trkpt lat="45.6633415" lon="10.0873742"><ele>604.25</ele><time>2026-04-25T14:58:20.959Z</time></trkpt><trkpt lat="45.6633747" lon="10.087191"><ele>600.0</ele><time>2026-04-25T14:58:21.956Z</time></trkpt><trkpt lat="45.6634088" lon="10.0870016"><ele>597.25</ele><time>2026-04-25T14:58:22.963Z</time></trkpt><trkpt lat="45.6634427" lon="10.0868264"><ele>594.5</ele><time>2026-04-25T14:58:23.927Z</time></trkpt><trkpt lat="45.6634786" lon="10.0866431"><ele>591.75</ele><time>2026-04-25T14:58:24.945Z</time></trkpt><trkpt lat="45.6635136" lon="10.0864757"><ele>589.0</ele><time>2026-04-25T14:58:25.925Z</time></trkpt><trkpt lat="45.6635475" lon="10.0863019"><ele>586.5</ele><time>2026-04-25T14:58:26.932Z</time></trkpt><trkpt lat="45.6635826" lon="10.0861206"><ele>584.0</ele><time>2026-04-25T14:58:27.959Z</time></trkpt><trkpt lat="45.6636113" lon="10.085945"><ele>581.5</ele><time>2026-04-25T14:58:28.93Z</time></trkpt><trkpt lat="45.6636314" lon="10.0857655"><ele>579.0</ele><time>2026-04-25T14:58:29.929Z</time></trkpt><trkpt lat="45.6636427" lon="10.0855819"><ele>584.5</ele><time>2026-04-25T14:58:30.948Z</time></trkpt><trkpt lat="45.6636453" lon="10.0853935"><ele>590.0</ele><time>2026-04-25T14:58:31.956Z</time></trkpt><trkpt lat="45.6636456" lon="10.0852092"><ele>595.5</ele><time>2026-04-25T14:58:32.928Z</time></trkpt><trkpt lat="45.6636467" lon="10.0850063"><ele>601.0</ele><time>2026-04-25T14:58:33.951Z</time></trkpt><trkpt lat="45.6636632" lon="10.0848171"><ele>601.0</ele><time>2026-04-25T14:58:34.923Z</time></trkpt><trkpt lat="45.6636906" lon="10.0846256"><ele>601.0</ele><time>2026-04-25T14:58:35.924Z</time></trkpt><trkpt lat="45.6637251" lon="10.0844394"><ele>601.0</ele><time>2026-04-25T14:58:36.934Z</time></trkpt><trkpt lat="45.6637592" lon="10.084257"><ele>601.0</ele><time>2026-04-25T14:58:37.927Z</time></trkpt><trkpt lat="45.6637967" lon="10.0840794"><ele>598.0</ele><time>2026-04-25T14:58:38.946Z</time></trkpt><trkpt lat="45.6638315" lon="10.0839012"><ele>595.0</ele><time>2026-04-25T14:58:39.964Z</time></trkpt><trkpt lat="45.6638638" lon="10.0837365"><ele>592.0</ele><time>2026-04-25T14:58:40.933Z</time></trkpt><trkpt lat="45.6638974" lon="10.08356"><ele>589.0</ele><time>2026-04-25T14:58:41.959Z</time></trkpt><trkpt lat="45.6639311" lon="10.0833912"><ele>587.5</ele><time>2026-04-25T14:58:42.957Z</time></trkpt><trkpt lat="45.6639609" lon="10.0832298"><ele>586.0</ele><time>2026-04-25T14:58:43.921Z</time></trkpt><trkpt lat="45.6639854" lon="10.0830587"><ele>584.5</ele><time>2026-04-25T14:58:44.944Z</time></trkpt><trkpt lat="45.6639972" lon="10.0828812"><ele>583.0</ele><time>2026-04-25T14:58:45.958Z</time></trkpt><trkpt lat="45.6640008" lon="10.0827017"><ele>583.0</ele><time>2026-04-25T14:58:46.956Z</time></trkpt><trkpt lat="45.6639893" lon="10.0825247"><ele>583.0</ele><time>2026-04-25T14:58:47.932Z</time></trkpt><trkpt lat="45.6639585" lon="10.0823526"><ele>583.0</ele><time>2026-04-25T14:58:48.924Z</time></trkpt><trkpt lat="45.6639168" lon="10.0821745"><ele>583.0</ele><time>2026-04-25T14:58:49.956Z</time></trkpt><trkpt lat="45.6638659" lon="10.0820018"><ele>582.0</ele><time>2026-04-25T14:58:50.944Z</time></trkpt><trkpt lat="45.6638047" lon="10.0818239"><ele>581.0</ele><time>2026-04-25T14:58:51.946Z</time></trkpt><trkpt lat="45.6637458" lon="10.0816516"><ele>580.0</ele><time>2026-04-25T14:58:52.93Z</time></trkpt><trkpt lat="45.6636858" lon="10.0814766"><ele>579.0</ele><time>2026-04-25T14:58:53.928Z</time></trkpt><trkpt lat="45.6636273" lon="10.0812996"><ele>575.5</ele><time>2026-04-25T14:58:54.958Z</time></trkpt><trkpt lat="45.6635732" lon="10.0811376"><ele>572.0</ele><time>2026-04-25T14:58:55.932Z</time></trkpt><trkpt lat="45.6635211" lon="10.0809691"><ele>568.5</ele><time>2026-04-25T14:58:56.955Z</time></trkpt><trkpt lat="45.6634762" lon="10.0808055"><ele>565.0</ele><time>2026-04-25T14:58:57.932Z</time></trkpt><trkpt lat="45.6634319" lon="10.0806361"><ele>563.25</ele><time>2026-04-25T14:58:58.94Z</time></trkpt><trkpt lat="45.663383" lon="10.0804695"><ele>561.5</ele><time>2026-04-25T14:58:59.953Z</time></trkpt><trkpt lat="45.6633337" lon="10.0803093"><ele>559.75</ele><time>2026-04-25T14:59:00.927Z</time></trkpt><trkpt lat="45.6632794" lon="10.0801428"><ele>558.0</ele><time>2026-04-25T14:59:01.951Z</time></trkpt><trkpt lat="45.6632319" lon="10.0799732"><ele>556.0</ele><time>2026-04-25T14:59:02.943Z</time></trkpt><trkpt lat="45.6631908" lon="10.0797966"><ele>554.0</ele><time>2026-04-25T14:59:03.925Z</time></trkpt><trkpt lat="45.6631569" lon="10.0796024"><ele>552.0</ele><time>2026-04-25T14:59:04.959Z</time></trkpt><trkpt lat="45.6631286" lon="10.0794169"><ele>550.0</ele><time>2026-04-25T14:59:05.945Z</time></trkpt><trkpt lat="45.6630988" lon="10.079266"><ele>550.0</ele><time>2026-04-25T14:59:06.926Z</time></trkpt><trkpt lat="45.6630535" lon="10.0791306"><ele>550.0</ele><time>2026-04-25T14:59:07.946Z</time></trkpt><trkpt lat="45.6629881" lon="10.079033"><ele>550.0</ele><time>2026-04-25T14:59:08.934Z</time></trkpt><trkpt lat="45.6628823" lon="10.0789582"><ele>550.0</ele><time>2026-04-25T14:59:09.925Z</time></trkpt><trkpt lat="45.6627425" lon="10.0789024"><ele>547.0</ele><time>2026-04-25T14:59:10.957Z</time></trkpt><trkpt lat="45.6625933" lon="10.078838"><ele>544.0</ele><time>2026-04-25T14:59:11.933Z</time></trkpt><trkpt lat="45.6624321" lon="10.0787792"><ele>541.0</ele><time>2026-04-25T14:59:12.94Z</time></trkpt><trkpt lat="45.6622753" lon="10.0787209"><ele>541.0</ele><time>2026-04-25T14:59:13.931Z</time></trkpt><trkpt lat="45.6621226" lon="10.0786557"><ele>541.0</ele><time>2026-04-25T14:59:14.956Z</time></trkpt><trkpt lat="45.6619876" lon="10.0785914"><ele>541.0</ele><time>2026-04-25T14:59:15.963Z</time></trkpt><trkpt lat="45.6618709" lon="10.078533"><ele>541.0</ele><time>2026-04-25T14:59:16.932Z</time></trkpt><trkpt lat="45.6617573" lon="10.0784923"><ele>540.0</ele><time>2026-04-25T14:59:17.942Z</time></trkpt><trkpt lat="45.6616463" lon="10.0784641"><ele>539.0</ele><time>2026-04-25T14:59:18.934Z</time></trkpt><trkpt lat="45.661508" lon="10.0784416"><ele>538.0</ele><time>2026-04-25T14:59:19.926Z</time></trkpt><trkpt lat="45.6613706" lon="10.0784249"><ele>537.0</ele><time>2026-04-25T14:59:20.95Z</time></trkpt><trkpt lat="45.6612446" lon="10.0784275"><ele>536.75</ele><time>2026-04-25T14:59:21.932Z</time></trkpt><trkpt lat="45.6611156" lon="10.0784445"><ele>536.5</ele><time>2026-04-25T14:59:22.947Z</time></trkpt><trkpt lat="45.6609857" lon="10.0784703"><ele>536.25</ele><time>2026-04-25T14:59:23.932Z</time></trkpt><trkpt lat="45.6608551" lon="10.0785111"><ele>536.0</ele><time>2026-04-25T14:59:24.93Z</time></trkpt><trkpt lat="45.6607153" lon="10.0785698"><ele>536.0</ele><time>2026-04-25T14:59:25.939Z</time></trkpt><trkpt lat="45.6605749" lon="10.0786263"><ele>536.0</ele><time>2026-04-25T14:59:26.937Z</time></trkpt><trkpt lat="45.6604272" lon="10.0786502"><ele>536.0</ele><time>2026-04-25T14:59:27.954Z</time></trkpt><trkpt lat="45.6602807" lon="10.07865"><ele>536.0</ele><time>2026-04-25T14:59:28.95Z</time></trkpt><trkpt lat="45.6601449" lon="10.0786491"><ele>535.3333333333333</ele><time>2026-04-25T14:59:29.928Z</time></trkpt><trkpt lat="45.6600002" lon="10.0786765"><ele>534.6666666666666</ele><time>2026-04-25T14:59:30.921Z</time></trkpt><trkpt lat="45.659839" lon="10.0787209"><ele>534.0</ele><time>2026-04-25T14:59:31.957Z</time></trkpt><trkpt lat="45.6596919" lon="10.0787693"><ele>534.0</ele><time>2026-04-25T14:59:32.934Z</time></trkpt><trkpt lat="45.659545" lon="10.0788167"><ele>534.0</ele><time>2026-04-25T14:59:33.943Z</time></trkpt><trkpt lat="45.6594021" lon="10.0788696"><ele>534.0</ele><time>2026-04-25T14:59:34.955Z</time></trkpt><trkpt lat="45.659273" lon="10.0789213"><ele>534.0</ele><time>2026-04-25T14:59:35.945Z</time></trkpt><trkpt lat="45.6591529" lon="10.0789607"><ele>532.0</ele><time>2026-04-25T14:59:36.941Z</time></trkpt><trkpt lat="45.6590349" lon="10.0789718"><ele>530.0</ele><time>2026-04-25T14:59:37.931Z</time></trkpt><trkpt lat="45.6589235" lon="10.0789391"><ele>528.0</ele><time>2026-04-25T14:59:38.953Z</time></trkpt><trkpt lat="45.6588171" lon="10.0788628"><ele>526.0</ele><time>2026-04-25T14:59:39.946Z</time></trkpt><trkpt lat="45.6587071" lon="10.0787552"><ele>523.5</ele><time>2026-04-25T14:59:40.967Z</time></trkpt><trkpt lat="45.6586007" lon="10.0786387"><ele>521.0</ele><time>2026-04-25T14:59:41.958Z</time></trkpt><trkpt lat="45.6584877" lon="10.0785197"><ele>518.5</ele><time>2026-04-25T14:59:42.947Z</time></trkpt><trkpt lat="45.6583663" lon="10.0783966"><ele>516.0</ele><time>2026-04-25T14:59:43.957Z</time></trkpt><trkpt lat="45.6582502" lon="10.0782692"><ele>515.75</ele><time>2026-04-25T14:59:44.963Z</time></trkpt><trkpt lat="45.6581331" lon="10.0781419"><ele>515.5</ele><time>2026-04-25T14:59:45.961Z</time></trkpt><trkpt lat="45.6580188" lon="10.0780228"><ele>515.25</ele><time>2026-04-25T14:59:46.933Z</time></trkpt><trkpt lat="45.6579012" lon="10.0779092"><ele>515.0</ele><time>2026-04-25T14:59:47.961Z</time></trkpt><trkpt lat="45.6577932" lon="10.0778103"><ele>513.5</ele><time>2026-04-25T14:59:48.957Z</time></trkpt><trkpt lat="45.6576937" lon="10.0777003"><ele>512.0</ele><time>2026-04-25T14:59:49.961Z</time></trkpt><trkpt lat="45.6576142" lon="10.077566"><ele>510.5</ele><time>2026-04-25T14:59:50.938Z</time></trkpt><trkpt lat="45.6575508" lon="10.0774054"><ele>509.0</ele><time>2026-04-25T14:59:51.95Z</time></trkpt><trkpt lat="45.6574825" lon="10.0772542"><ele>507.25</ele><time>2026-04-25T14:59:52.961Z</time></trkpt><trkpt lat="45.6573995" lon="10.0771345"><ele>505.5</ele><time>2026-04-25T14:59:53.928Z</time></trkpt><trkpt lat="45.6572998" lon="10.0770265"><ele>503.75</ele><time>2026-04-25T14:59:54.959Z</time></trkpt><trkpt lat="45.6571931" lon="10.0769244"><ele>502.0</ele><time>2026-04-25T14:59:55.966Z</time></trkpt><trkpt lat="45.6570846" lon="10.0768104"><ele>502.0</ele><time>2026-04-25T14:59:56.971Z</time></trkpt><trkpt lat="45.6569941" lon="10.0766716"><ele>502.0</ele><time>2026-04-25T14:59:57.964Z</time></trkpt><trkpt lat="45.6569194" lon="10.0765088"><ele>502.0</ele><time>2026-04-25T14:59:58.96Z</time></trkpt><trkpt lat="45.6568518" lon="10.076334"><ele>502.0</ele><time>2026-04-25T14:59:59.92Z</time></trkpt><trkpt lat="45.656776" lon="10.0761402"><ele>500.0</ele><time>2026-04-25T15:00:00.94Z</time></trkpt><trkpt lat="45.6566918" lon="10.075949"><ele>498.0</ele><time>2026-04-25T15:00:01.958Z</time></trkpt><trkpt lat="45.6566086" lon="10.0757516"><ele>496.0</ele><time>2026-04-25T15:00:02.934Z</time></trkpt><trkpt lat="45.6565203" lon="10.0755369"><ele>495.0</ele><time>2026-04-25T15:00:03.96Z</time></trkpt><trkpt lat="45.6564377" lon="10.0753343"><ele>494.0</ele><time>2026-04-25T15:00:04.958Z</time></trkpt><trkpt lat="45.6563647" lon="10.0751359"><ele>493.0</ele><time>2026-04-25T15:00:05.949Z</time></trkpt><trkpt lat="45.6562991" lon="10.0749433"><ele>492.0</ele><time>2026-04-25T15:00:06.926Z</time></trkpt><trkpt lat="45.6562265" lon="10.0747537"><ele>491.0</ele><time>2026-04-25T15:00:07.959Z</time></trkpt><trkpt lat="45.6561454" lon="10.0745959"><ele>490.0</ele><time>2026-04-25T15:00:08.956Z</time></trkpt><trkpt lat="45.6560357" lon="10.0744633"><ele>489.0</ele><time>2026-04-25T15:00:09.95Z</time></trkpt><trkpt lat="45.6559146" lon="10.0743153"><ele>489.0</ele><time>2026-04-25T15:00:10.971Z</time></trkpt><trkpt lat="45.6557988" lon="10.0741601"><ele>489.0</ele><time>2026-04-25T15:00:11.93Z</time></trkpt><trkpt lat="45.6556823" lon="10.0740021"><ele>489.0</ele><time>2026-04-25T15:00:12.928Z</time></trkpt><trkpt lat="45.6555615" lon="10.0738503"><ele>488.0</ele><time>2026-04-25T15:00:13.965Z</time></trkpt><trkpt lat="45.6554411" lon="10.0737319"><ele>487.0</ele><time>2026-04-25T15:00:14.96Z</time></trkpt><trkpt lat="45.6553175" lon="10.0736227"><ele>486.0</ele><time>2026-04-25T15:00:15.96Z</time></trkpt><trkpt lat="45.6551942" lon="10.0735164"><ele>485.0</ele><time>2026-04-25T15:00:16.958Z</time></trkpt><trkpt lat="45.6550763" lon="10.0734274"><ele>485.0</ele><time>2026-04-25T15:00:17.928Z</time></trkpt><trkpt lat="45.654958" lon="10.0733555"><ele>485.0</ele><time>2026-04-25T15:00:18.926Z</time></trkpt><trkpt lat="45.654837" lon="10.0732905"><ele>485.0</ele><time>2026-04-25T15:00:19.932Z</time></trkpt><trkpt lat="45.6547124" lon="10.0732104"><ele>485.0</ele><time>2026-04-25T15:00:20.942Z</time></trkpt><trkpt lat="45.6545975" lon="10.0731084"><ele>484.5</ele><time>2026-04-25T15:00:21.96Z</time></trkpt><trkpt lat="45.654493" lon="10.0729843"><ele>484.0</ele><time>2026-04-25T15:00:22.958Z</time></trkpt><trkpt lat="45.6544028" lon="10.0728568"><ele>483.5</ele><time>2026-04-25T15:00:23.961Z</time></trkpt><trkpt lat="45.6543281" lon="10.0727426"><ele>483.0</ele><time>2026-04-25T15:00:24.935Z</time></trkpt><trkpt lat="45.6542829" lon="10.0726147"><ele>481.0</ele><time>2026-04-25T15:00:25.943Z</time></trkpt><trkpt lat="45.6542816" lon="10.0725079"><ele>478.99999999999994</ele><time>2026-04-25T15:00:26.933Z</time></trkpt><trkpt lat="45.6543181" lon="10.0724055"><ele>476.99999999999994</ele><time>2026-04-25T15:00:27.947Z</time></trkpt><trkpt lat="45.6544043" lon="10.0723319"><ele>475.0</ele><time>2026-04-25T15:00:28.952Z</time></trkpt><trkpt lat="45.6545269" lon="10.0722999"><ele>473.0</ele><time>2026-04-25T15:00:29.968Z</time></trkpt><trkpt lat="45.6546606" lon="10.0723142"><ele>468.3333333333333</ele><time>2026-04-25T15:00:30.935Z</time></trkpt><trkpt lat="45.6548201" lon="10.0722986"><ele>463.66666666666663</ele><time>2026-04-25T15:00:31.928Z</time></trkpt><trkpt lat="45.6549778" lon="10.0722976"><ele>459.0</ele><time>2026-04-25T15:00:32.95Z</time></trkpt><trkpt lat="45.6551209" lon="10.0723118"><ele>459.0</ele><time>2026-04-25T15:00:33.969Z</time></trkpt><trkpt lat="45.655246" lon="10.0723371"><ele>459.0</ele><time>2026-04-25T15:00:34.968Z</time></trkpt><trkpt lat="45.6553462" lon="10.0723562"><ele>459.0</ele><time>2026-04-25T15:00:35.958Z</time></trkpt><trkpt lat="45.655426" lon="10.072341"><ele>459.0</ele><time>2026-04-25T15:00:36.934Z</time></trkpt><trkpt lat="45.6555014" lon="10.0722803"><ele>459.0</ele><time>2026-04-25T15:00:37.929Z</time></trkpt><trkpt lat="45.6555676" lon="10.072175"><ele>458.6</ele><time>2026-04-25T15:00:38.961Z</time></trkpt><trkpt lat="45.6556096" lon="10.0720487"><ele>458.2</ele><time>2026-04-25T15:00:39.936Z</time></trkpt><trkpt lat="45.6556468" lon="10.0718984"><ele>457.80000000000007</ele><time>2026-04-25T15:00:40.954Z</time></trkpt><trkpt lat="45.6556883" lon="10.0717575"><ele>457.40000000000003</ele><time>2026-04-25T15:00:41.958Z</time></trkpt><trkpt lat="45.6557282" lon="10.0716265"><ele>457.0</ele><time>2026-04-25T15:00:42.962Z</time></trkpt><trkpt lat="45.6557511" lon="10.0715067"><ele>457.00000000000006</ele><time>2026-04-25T15:00:43.965Z</time></trkpt><trkpt lat="45.6557569" lon="10.0713918"><ele>457.0</ele><time>2026-04-25T15:00:44.957Z</time></trkpt><trkpt lat="45.6557537" lon="10.0712908"><ele>457.0</ele><time>2026-04-25T15:00:45.93Z</time></trkpt><trkpt lat="45.6557573" lon="10.0711961"><ele>457.0</ele><time>2026-04-25T15:00:46.932Z</time></trkpt><trkpt lat="45.6558305" lon="10.0710936"><ele>457.00000000000006</ele><time>2026-04-25T15:00:48.956Z</time></trkpt><trkpt lat="45.6558976" lon="10.0710939"><ele>457.0</ele><time>2026-04-25T15:00:49.929Z</time></trkpt><trkpt lat="45.6559622" lon="10.0711381"><ele>457.0</ele><time>2026-04-25T15:00:50.925Z</time></trkpt><trkpt lat="45.6560502" lon="10.0712246"><ele>457.0</ele><time>2026-04-25T15:00:51.939Z</time></trkpt><trkpt lat="45.6561433" lon="10.0713207"><ele>457.0</ele><time>2026-04-25T15:00:52.951Z</time></trkpt><trkpt lat="45.656245" lon="10.0714011"><ele>457.0</ele><time>2026-04-25T15:00:53.954Z</time></trkpt><trkpt lat="45.6563729" lon="10.0714794"><ele>455.0</ele><time>2026-04-25T15:00:54.972Z</time></trkpt><trkpt lat="45.6565304" lon="10.0715637"><ele>453.0</ele><time>2026-04-25T15:00:55.956Z</time></trkpt><trkpt lat="45.6566995" lon="10.0716652"><ele>451.0</ele><time>2026-04-25T15:00:56.975Z</time></trkpt><trkpt lat="45.6568723" lon="10.0717524"><ele>455.6666666666667</ele><time>2026-04-25T15:00:57.955Z</time></trkpt><trkpt lat="45.6570438" lon="10.0718253"><ele>460.33333333333337</ele><time>2026-04-25T15:00:58.927Z</time></trkpt><trkpt lat="45.6572256" lon="10.0718758"><ele>465.0</ele><time>2026-04-25T15:00:59.955Z</time></trkpt><trkpt lat="45.6573848" lon="10.0719055"><ele>465.0</ele><time>2026-04-25T15:01:00.924Z</time></trkpt><trkpt lat="45.6575484" lon="10.071919"><ele>465.0</ele><time>2026-04-25T15:01:01.958Z</time></trkpt><trkpt lat="45.6576935" lon="10.0719413"><ele>465.0</ele><time>2026-04-25T15:01:02.955Z</time></trkpt><trkpt lat="45.6578233" lon="10.0719738"><ele>465.0</ele><time>2026-04-25T15:01:03.939Z</time></trkpt><trkpt lat="45.6579459" lon="10.0720183"><ele>461.4</ele><time>2026-04-25T15:01:04.97Z</time></trkpt><trkpt lat="45.6580558" lon="10.0720519"><ele>457.8</ele><time>2026-04-25T15:01:05.938Z</time></trkpt><trkpt lat="45.6581683" lon="10.0721038"><ele>454.20000000000005</ele><time>2026-04-25T15:01:06.962Z</time></trkpt><trkpt lat="45.6582291" lon="10.0721829"><ele>450.6</ele><time>2026-04-25T15:01:07.964Z</time></trkpt><trkpt lat="45.6583149" lon="10.0722874"><ele>447.0</ele><time>2026-04-25T15:01:08.958Z</time></trkpt><trkpt lat="45.658395" lon="10.0723832"><ele>447.25</ele><time>2026-04-25T15:01:09.933Z</time></trkpt><trkpt lat="45.6584893" lon="10.0724936"><ele>447.5</ele><time>2026-04-25T15:01:10.957Z</time></trkpt><trkpt lat="45.6585955" lon="10.0725859"><ele>447.75</ele><time>2026-04-25T15:01:11.932Z</time></trkpt><trkpt lat="45.6587064" lon="10.0726558"><ele>448.0</ele><time>2026-04-25T15:01:12.942Z</time></trkpt><trkpt lat="45.6588142" lon="10.0727083"><ele>448.0</ele><time>2026-04-25T15:01:13.957Z</time></trkpt><trkpt lat="45.6589288" lon="10.072759"><ele>448.0</ele><time>2026-04-25T15:01:14.947Z</time></trkpt><trkpt lat="45.6590514" lon="10.072816"><ele>448.0</ele><time>2026-04-25T15:01:15.948Z</time></trkpt><trkpt lat="45.6591666" lon="10.0728705"><ele>448.0</ele><time>2026-04-25T15:01:16.968Z</time></trkpt><trkpt lat="45.6592861" lon="10.0729097"><ele>448.0</ele><time>2026-04-25T15:01:17.948Z</time></trkpt><trkpt lat="45.6594142" lon="10.0729544"><ele>448.0</ele><time>2026-04-25T15:01:18.955Z</time></trkpt><trkpt lat="45.6595339" lon="10.0730122"><ele>448.0</ele><time>2026-04-25T15:01:19.969Z</time></trkpt><trkpt lat="45.6596411" lon="10.0730849"><ele>448.0</ele><time>2026-04-25T15:01:20.936Z</time></trkpt><trkpt lat="45.6597488" lon="10.0731543"><ele>444.4</ele><time>2026-04-25T15:01:21.96Z</time></trkpt><trkpt lat="45.6598498" lon="10.0732061"><ele>440.79999999999995</ele><time>2026-04-25T15:01:22.948Z</time></trkpt><trkpt lat="45.6599548" lon="10.0732471"><ele>437.2</ele><time>2026-04-25T15:01:23.93Z</time></trkpt><trkpt lat="45.6600643" lon="10.0732568"><ele>433.6</ele><time>2026-04-25T15:01:24.97Z</time></trkpt><trkpt lat="45.660172" lon="10.0732189"><ele>430.0</ele><time>2026-04-25T15:01:25.947Z</time></trkpt><trkpt lat="45.6602922" lon="10.0731511"><ele>429.0</ele><time>2026-04-25T15:01:26.946Z</time></trkpt><trkpt lat="45.6604093" lon="10.073065"><ele>428.0</ele><time>2026-04-25T15:01:27.935Z</time></trkpt><trkpt lat="45.6605133" lon="10.0729776"><ele>427.0</ele><time>2026-04-25T15:01:28.946Z</time></trkpt><trkpt lat="45.6606179" lon="10.0728898"><ele>426.0</ele><time>2026-04-25T15:01:29.937Z</time></trkpt><trkpt lat="45.6607073" lon="10.0728222"><ele>426.0</ele><time>2026-04-25T15:01:30.967Z</time></trkpt><trkpt lat="45.6608146" lon="10.0727905"><ele>426.0</ele><time>2026-04-25T15:01:31.934Z</time></trkpt><trkpt lat="45.6609377" lon="10.0728064"><ele>426.0</ele><time>2026-04-25T15:01:32.949Z</time></trkpt><trkpt lat="45.6610574" lon="10.07284"><ele>426.0</ele><time>2026-04-25T15:01:33.926Z</time></trkpt><trkpt lat="45.6611803" lon="10.0728686"><ele>424.0</ele><time>2026-04-25T15:01:34.94Z</time></trkpt><trkpt lat="45.6612933" lon="10.0728973"><ele>422.0</ele><time>2026-04-25T15:01:35.957Z</time></trkpt><trkpt lat="45.6614086" lon="10.0729382"><ele>420.0</ele><time>2026-04-25T15:01:36.971Z</time></trkpt><trkpt lat="45.6615116" lon="10.0729895"><ele>418.0</ele><time>2026-04-25T15:01:37.959Z</time></trkpt><trkpt lat="45.6615998" lon="10.0730561"><ele>416.0</ele><time>2026-04-25T15:01:38.927Z</time></trkpt><trkpt lat="45.6616747" lon="10.073164"><ele>420.0</ele><time>2026-04-25T15:01:39.95Z</time></trkpt><trkpt lat="45.6617141" lon="10.0733083"><ele>424.0</ele><time>2026-04-25T15:01:40.951Z</time></trkpt><trkpt lat="45.6617293" lon="10.0734525"><ele>428.0</ele><time>2026-04-25T15:01:41.955Z</time></trkpt><trkpt lat="45.6617397" lon="10.0736032"><ele>432.0</ele><time>2026-04-25T15:01:42.954Z</time></trkpt><trkpt lat="45.6617474" lon="10.0737157"><ele>436.0</ele><time>2026-04-25T15:01:43.956Z</time></trkpt><trkpt lat="45.6618089" lon="10.0738548"><ele>436.0</ele><time>2026-04-25T15:01:45.953Z</time></trkpt><trkpt lat="45.6619063" lon="10.0738556"><ele>436.0</ele><time>2026-04-25T15:01:47.965Z</time></trkpt><trkpt lat="45.6619871" lon="10.0737822"><ele>436.0</ele><time>2026-04-25T15:01:48.929Z</time></trkpt><trkpt lat="45.662014" lon="10.0736766"><ele>436.0</ele><time>2026-04-25T15:01:49.963Z</time></trkpt><trkpt lat="45.6619877" lon="10.0735312"><ele>436.0</ele><time>2026-04-25T15:01:51.279Z</time></trkpt><trkpt lat="45.6618728" lon="10.0732733"><ele>431.0</ele><time>2026-04-25T15:01:53.005Z</time></trkpt><trkpt lat="45.6618247" lon="10.0731077"><ele>426.0</ele><time>2026-04-25T15:01:54.005Z</time></trkpt><trkpt lat="45.6617683" lon="10.0729614"><ele>421.0</ele><time>2026-04-25T15:01:55.029Z</time></trkpt><trkpt lat="45.6617006" lon="10.0728281"><ele>416.0</ele><time>2026-04-25T15:01:56.017Z</time></trkpt><trkpt lat="45.6616027" lon="10.072706"><ele>416.0</ele><time>2026-04-25T15:01:56.993Z</time></trkpt><trkpt lat="45.6614979" lon="10.0725926"><ele>416.0</ele><time>2026-04-25T15:01:58.012Z</time></trkpt><trkpt lat="45.66139" lon="10.0724911"><ele>416.0</ele><time>2026-04-25T15:01:59Z</time></trkpt><trkpt lat="45.6612774" lon="10.0723995"><ele>416.0</ele><time>2026-04-25T15:02:00.021Z</time></trkpt><trkpt lat="45.6611711" lon="10.0723238"><ele>412.75</ele><time>2026-04-25T15:02:00.98Z</time></trkpt><trkpt lat="45.6610531" lon="10.0722675"><ele>409.5</ele><time>2026-04-25T15:02:01.983Z</time></trkpt><trkpt lat="45.6609226" lon="10.0722219"><ele>406.25</ele><time>2026-04-25T15:02:02.997Z</time></trkpt><trkpt lat="45.66079" lon="10.0721794"><ele>403.0</ele><time>2026-04-25T15:02:03.983Z</time></trkpt><trkpt lat="45.6606533" lon="10.0721201"><ele>403.0</ele><time>2026-04-25T15:02:05.028Z</time></trkpt><trkpt lat="45.6605348" lon="10.0720418"><ele>403.0</ele><time>2026-04-25T15:02:06.002Z</time></trkpt><trkpt lat="45.6604208" lon="10.0719465"><ele>403.0</ele><time>2026-04-25T15:02:06.988Z</time></trkpt><trkpt lat="45.660306" lon="10.071838"><ele>403.0</ele><time>2026-04-25T15:02:08.028Z</time></trkpt><trkpt lat="45.6602074" lon="10.0717265"><ele>401.5</ele><time>2026-04-25T15:02:08.99Z</time></trkpt><trkpt lat="45.6601193" lon="10.0715911"><ele>400.0</ele><time>2026-04-25T15:02:09.989Z</time></trkpt><trkpt lat="45.6600503" lon="10.0714395"><ele>398.5</ele><time>2026-04-25T15:02:10.987Z</time></trkpt><trkpt lat="45.6599897" lon="10.0712869"><ele>397.0</ele><time>2026-04-25T15:02:11.992Z</time></trkpt><trkpt lat="45.6599307" lon="10.0711393"><ele>397.0</ele><time>2026-04-25T15:02:12.985Z</time></trkpt><trkpt lat="45.6598753" lon="10.0709915"><ele>397.0</ele><time>2026-04-25T15:02:13.983Z</time></trkpt><trkpt lat="45.6598318" lon="10.0708351"><ele>397.0</ele><time>2026-04-25T15:02:15.009Z</time></trkpt><trkpt lat="45.6598066" lon="10.0706785"><ele>397.0</ele><time>2026-04-25T15:02:15.979Z</time></trkpt><trkpt lat="45.6597801" lon="10.0705062"><ele>393.5</ele><time>2026-04-25T15:02:17.006Z</time></trkpt><trkpt lat="45.6597413" lon="10.0703411"><ele>390.0</ele><time>2026-04-25T15:02:17.994Z</time></trkpt><trkpt lat="45.6596902" lon="10.0701819"><ele>386.5</ele><time>2026-04-25T15:02:18.988Z</time></trkpt><trkpt lat="45.6596363" lon="10.0700305"><ele>383.0</ele><time>2026-04-25T15:02:19.977Z</time></trkpt><trkpt lat="45.6595841" lon="10.0698818"><ele>383.59999999999997</ele><time>2026-04-25T15:02:20.989Z</time></trkpt><trkpt lat="45.6595303" lon="10.069736"><ele>384.2</ele><time>2026-04-25T15:02:22.007Z</time></trkpt><trkpt lat="45.6594743" lon="10.0696013"><ele>384.8</ele><time>2026-04-25T15:02:22.992Z</time></trkpt><trkpt lat="45.6594083" lon="10.0694776"><ele>385.4</ele><time>2026-04-25T15:02:23.984Z</time></trkpt><trkpt lat="45.6593375" lon="10.069358"><ele>386.0</ele><time>2026-04-25T15:02:24.984Z</time></trkpt><trkpt lat="45.6592702" lon="10.0692425"><ele>385.99999999999994</ele><time>2026-04-25T15:02:26.023Z</time></trkpt><trkpt lat="45.6592098" lon="10.0691378"><ele>386.0</ele><time>2026-04-25T15:02:27.017Z</time></trkpt><trkpt lat="45.6591579" lon="10.0690419"><ele>386.0</ele><time>2026-04-25T15:02:27.985Z</time></trkpt><trkpt lat="45.659111" lon="10.0689402"><ele>386.0</ele><time>2026-04-25T15:02:29.015Z</time></trkpt><trkpt lat="45.6590883" lon="10.0688426"><ele>385.99999999999994</ele><time>2026-04-25T15:02:29.983Z</time></trkpt><trkpt lat="45.6590985" lon="10.0687463"><ele>386.0</ele><time>2026-04-25T15:02:31.004Z</time></trkpt><trkpt lat="45.6592029" lon="10.0686671"><ele>385.99999999999994</ele><time>2026-04-25T15:02:32.988Z</time></trkpt><trkpt lat="45.6592666" lon="10.068694"><ele>386.0</ele><time>2026-04-25T15:02:33.983Z</time></trkpt><trkpt lat="45.6593096" lon="10.0687677"><ele>386.0</ele><time>2026-04-25T15:02:34.985Z</time></trkpt><trkpt lat="45.659322" lon="10.0688774"><ele>386.0</ele><time>2026-04-25T15:02:35.999Z</time></trkpt><trkpt lat="45.6593222" lon="10.0689962"><ele>385.99999999999994</ele><time>2026-04-25T15:02:36.989Z</time></trkpt><trkpt lat="45.6593427" lon="10.069115"><ele>386.0</ele><time>2026-04-25T15:02:38.021Z</time></trkpt><trkpt lat="45.6593891" lon="10.0692184"><ele>383.20000000000005</ele><time>2026-04-25T15:02:39.018Z</time></trkpt><trkpt lat="45.6594577" lon="10.0693106"><ele>380.40000000000003</ele><time>2026-04-25T15:02:39.989Z</time></trkpt><trkpt lat="45.6595437" lon="10.0693973"><ele>377.6</ele><time>2026-04-25T15:02:40.995Z</time></trkpt><trkpt lat="45.6596378" lon="10.0694728"><ele>374.8</ele><time>2026-04-25T15:02:41.991Z</time></trkpt><trkpt lat="45.6597382" lon="10.0695512"><ele>372.0</ele><time>2026-04-25T15:02:42.996Z</time></trkpt><trkpt lat="45.6598394" lon="10.0696303"><ele>372.0</ele><time>2026-04-25T15:02:43.981Z</time></trkpt><trkpt lat="45.6599428" lon="10.0697131"><ele>372.0</ele><time>2026-04-25T15:02:44.988Z</time></trkpt><trkpt lat="45.6600466" lon="10.0697958"><ele>372.0</ele><time>2026-04-25T15:02:46.007Z</time></trkpt><trkpt lat="45.6601469" lon="10.0698745"><ele>372.0</ele><time>2026-04-25T15:02:47.012Z</time></trkpt><trkpt lat="45.6602441" lon="10.0699511"><ele>370.8</ele><time>2026-04-25T15:02:48.016Z</time></trkpt><trkpt lat="45.6603331" lon="10.0700179"><ele>369.6</ele><time>2026-04-25T15:02:48.989Z</time></trkpt><trkpt lat="45.6604151" lon="10.0700952"><ele>368.40000000000003</ele><time>2026-04-25T15:02:50.01Z</time></trkpt><trkpt lat="45.6604728" lon="10.0702029"><ele>367.20000000000005</ele><time>2026-04-25T15:02:51.045Z</time></trkpt><trkpt lat="45.6605084" lon="10.0703159"><ele>366.0</ele><time>2026-04-25T15:02:52.014Z</time></trkpt><trkpt lat="45.6605483" lon="10.0704233"><ele>366.0</ele><time>2026-04-25T15:02:52.988Z</time></trkpt><trkpt lat="45.6606093" lon="10.0705034"><ele>366.0</ele><time>2026-04-25T15:02:53.989Z</time></trkpt><trkpt lat="45.6606889" lon="10.0705296"><ele>366.0</ele><time>2026-04-25T15:02:54.987Z</time></trkpt><trkpt lat="45.6607776" lon="10.0705061"><ele>366.0</ele><time>2026-04-25T15:02:55.989Z</time></trkpt><trkpt lat="45.6608654" lon="10.0704313"><ele>366.0</ele><time>2026-04-25T15:02:57.004Z</time></trkpt><trkpt lat="45.660945" lon="10.0703234"><ele>366.0</ele><time>2026-04-25T15:02:57.985Z</time></trkpt><trkpt lat="45.661028" lon="10.0701891"><ele>366.0</ele><time>2026-04-25T15:02:59.017Z</time></trkpt><trkpt lat="45.6611038" lon="10.0700494"><ele>366.0</ele><time>2026-04-25T15:02:59.988Z</time></trkpt><trkpt lat="45.661176" lon="10.0698988"><ele>366.0</ele><time>2026-04-25T15:03:01.023Z</time></trkpt><trkpt lat="45.6612433" lon="10.0697585"><ele>363.20000000000005</ele><time>2026-04-25T15:03:02.018Z</time></trkpt><trkpt lat="45.6613082" lon="10.0696277"><ele>360.40000000000003</ele><time>2026-04-25T15:03:03.026Z</time></trkpt><trkpt lat="45.661366" lon="10.0695113"><ele>357.6</ele><time>2026-04-25T15:03:03.986Z</time></trkpt><trkpt lat="45.6614252" lon="10.069389"><ele>354.8</ele><time>2026-04-25T15:03:04.99Z</time></trkpt><trkpt lat="45.6614843" lon="10.0692685"><ele>352.0</ele><time>2026-04-25T15:03:06.009Z</time></trkpt><trkpt lat="45.6615394" lon="10.0691606"><ele>349.0</ele><time>2026-04-25T15:03:06.987Z</time></trkpt><trkpt lat="45.6615952" lon="10.0690537"><ele>346.0</ele><time>2026-04-25T15:03:08.016Z</time></trkpt><trkpt lat="45.661652" lon="10.0689657"><ele>343.0</ele><time>2026-04-25T15:03:09.012Z</time></trkpt><trkpt lat="45.661718" lon="10.068916"><ele>340.0</ele><time>2026-04-25T15:03:10.016Z</time></trkpt><trkpt lat="45.6617897" lon="10.0689173"><ele>337.0</ele><time>2026-04-25T15:03:10.989Z</time></trkpt><trkpt lat="45.6618576" lon="10.0689724"><ele>334.0</ele><time>2026-04-25T15:03:11.986Z</time></trkpt><trkpt lat="45.6619033" lon="10.0690811"><ele>336.79999999999995</ele><time>2026-04-25T15:03:13.011Z</time></trkpt><trkpt lat="45.6619482" lon="10.0691978"><ele>339.59999999999997</ele><time>2026-04-25T15:03:13.982Z</time></trkpt><trkpt lat="45.6620235" lon="10.0692873"><ele>342.4</ele><time>2026-04-25T15:03:15.008Z</time></trkpt><trkpt lat="45.6621177" lon="10.0693423"><ele>345.2</ele><time>2026-04-25T15:03:15.992Z</time></trkpt><trkpt lat="45.6622161" lon="10.0693908"><ele>348.0</ele><time>2026-04-25T15:03:17.03Z</time></trkpt><trkpt lat="45.6622996" lon="10.0694384"><ele>348.0</ele><time>2026-04-25T15:03:18.008Z</time></trkpt><trkpt lat="45.6623881" lon="10.0694691"><ele>348.0</ele><time>2026-04-25T15:03:19.019Z</time></trkpt><trkpt lat="45.6624771" lon="10.0694812"><ele>348.0</ele><time>2026-04-25T15:03:20.037Z</time></trkpt><trkpt lat="45.6625522" lon="10.0694912"><ele>348.0</ele><time>2026-04-25T15:03:21.012Z</time></trkpt><trkpt lat="45.6626247" lon="10.0695027"><ele>348.0</ele><time>2026-04-25T15:03:22.017Z</time></trkpt><trkpt lat="45.6626923" lon="10.0695283"><ele>348.0</ele><time>2026-04-25T15:03:22.997Z</time></trkpt><trkpt lat="45.6627558" lon="10.0695795"><ele>347.8333333333333</ele><time>2026-04-25T15:03:23.989Z</time></trkpt><trkpt lat="45.6628121" lon="10.069655"><ele>347.6666666666667</ele><time>2026-04-25T15:03:25.021Z</time></trkpt><trkpt lat="45.6628618" lon="10.0697449"><ele>347.5</ele><time>2026-04-25T15:03:26.016Z</time></trkpt><trkpt lat="45.6629117" lon="10.0698424"><ele>347.33333333333337</ele><time>2026-04-25T15:03:27.023Z</time></trkpt><trkpt lat="45.6629604" lon="10.0699373"><ele>347.1666666666667</ele><time>2026-04-25T15:03:28.024Z</time></trkpt><trkpt lat="45.6630133" lon="10.070017"><ele>347.0</ele><time>2026-04-25T15:03:28.992Z</time></trkpt><trkpt lat="45.6630807" lon="10.0700704"><ele>347.0</ele><time>2026-04-25T15:03:29.997Z</time></trkpt><trkpt lat="45.6631578" lon="10.0700829"><ele>347.0</ele><time>2026-04-25T15:03:31.018Z</time></trkpt><trkpt lat="45.6632284" lon="10.0700476"><ele>347.0</ele><time>2026-04-25T15:03:32.02Z</time></trkpt><trkpt lat="45.6632838" lon="10.0699711"><ele>347.0</ele><time>2026-04-25T15:03:33.004Z</time></trkpt><trkpt lat="45.6633221" lon="10.0698598"><ele>347.0</ele><time>2026-04-25T15:03:33.997Z</time></trkpt><trkpt lat="45.6633528" lon="10.0697198"><ele>347.0</ele><time>2026-04-25T15:03:35.019Z</time></trkpt><trkpt lat="45.6633895" lon="10.0695901"><ele>347.0</ele><time>2026-04-25T15:03:36.01Z</time></trkpt><trkpt lat="45.6634367" lon="10.0694708"><ele>347.0</ele><time>2026-04-25T15:03:36.989Z</time></trkpt><trkpt lat="45.6634932" lon="10.0693605"><ele>347.0</ele><time>2026-04-25T15:03:37.988Z</time></trkpt><trkpt lat="45.6635506" lon="10.0692587"><ele>347.0</ele><time>2026-04-25T15:03:39.01Z</time></trkpt><trkpt lat="45.663595" lon="10.0691576"><ele>347.0</ele><time>2026-04-25T15:03:39.991Z</time></trkpt><trkpt lat="45.6636226" lon="10.0690447"><ele>346.6666666666667</ele><time>2026-04-25T15:03:40.987Z</time></trkpt><trkpt lat="45.6636246" lon="10.0689251"><ele>346.33333333333337</ele><time>2026-04-25T15:03:42.002Z</time></trkpt><trkpt lat="45.6635974" lon="10.0688222"><ele>346.0</ele><time>2026-04-25T15:03:42.982Z</time></trkpt><trkpt lat="45.6635453" lon="10.0687401"><ele>345.6666666666667</ele><time>2026-04-25T15:03:43.996Z</time></trkpt><trkpt lat="45.663477" lon="10.0686959"><ele>345.3333333333333</ele><time>2026-04-25T15:03:44.988Z</time></trkpt><trkpt lat="45.6633984" lon="10.068691"><ele>345.0</ele><time>2026-04-25T15:03:45.996Z</time></trkpt><trkpt lat="45.6633191" lon="10.0687283"><ele>345.0</ele><time>2026-04-25T15:03:47.006Z</time></trkpt><trkpt lat="45.66324" lon="10.0687985"><ele>345.0</ele><time>2026-04-25T15:03:48.006Z</time></trkpt><trkpt lat="45.6631652" lon="10.0688806"><ele>345.0</ele><time>2026-04-25T15:03:49.01Z</time></trkpt><trkpt lat="45.6630884" lon="10.068955"><ele>345.0</ele><time>2026-04-25T15:03:49.993Z</time></trkpt><trkpt lat="45.6629932" lon="10.0690174"><ele>345.0</ele><time>2026-04-25T15:03:51.009Z</time></trkpt><trkpt lat="45.6628876" lon="10.0690367"><ele>342.6</ele><time>2026-04-25T15:03:52.008Z</time></trkpt><trkpt lat="45.6627803" lon="10.0690097"><ele>340.2</ele><time>2026-04-25T15:03:53.018Z</time></trkpt><trkpt lat="45.6626855" lon="10.0689413"><ele>337.79999999999995</ele><time>2026-04-25T15:03:53.996Z</time></trkpt><trkpt lat="45.6625985" lon="10.068847"><ele>335.4</ele><time>2026-04-25T15:03:54.989Z</time></trkpt><trkpt lat="45.6625139" lon="10.0687343"><ele>333.0</ele><time>2026-04-25T15:03:56.01Z</time></trkpt><trkpt lat="45.6624333" lon="10.0686122"><ele>333.0</ele><time>2026-04-25T15:03:57.019Z</time></trkpt><trkpt lat="45.6623499" lon="10.0684819"><ele>333.0</ele><time>2026-04-25T15:03:58.014Z</time></trkpt><trkpt lat="45.6622638" lon="10.0683542"><ele>333.0</ele><time>2026-04-25T15:03:58.989Z</time></trkpt><trkpt lat="45.6621722" lon="10.0682263"><ele>333.0</ele><time>2026-04-25T15:04:00.026Z</time></trkpt><trkpt lat="45.6620826" lon="10.0681249"><ele>330.59999999999997</ele><time>2026-04-25T15:04:00.992Z</time></trkpt><trkpt lat="45.6619842" lon="10.0680473"><ele>328.2</ele><time>2026-04-25T15:04:01.986Z</time></trkpt><trkpt lat="45.6618753" lon="10.0680063"><ele>325.8</ele><time>2026-04-25T15:04:03.009Z</time></trkpt><trkpt lat="45.6617652" lon="10.0680019"><ele>323.4</ele><time>2026-04-25T15:04:04Z</time></trkpt><trkpt lat="45.6616614" lon="10.0680142"><ele>321.0</ele><time>2026-04-25T15:04:04.996Z</time></trkpt><trkpt lat="45.661565" lon="10.0680443"><ele>319.40000000000003</ele><time>2026-04-25T15:04:06.008Z</time></trkpt><trkpt lat="45.6614832" lon="10.0680987"><ele>317.8</ele><time>2026-04-25T15:04:06.97Z</time></trkpt><trkpt lat="45.6614119" lon="10.0681885"><ele>316.20000000000005</ele><time>2026-04-25T15:04:08.001Z</time></trkpt><trkpt lat="45.6613611" lon="10.0683109"><ele>314.6</ele><time>2026-04-25T15:04:09.006Z</time></trkpt><trkpt lat="45.6613276" lon="10.0684382"><ele>313.0</ele><time>2026-04-25T15:04:09.987Z</time></trkpt><trkpt lat="45.6612998" lon="10.0685626"><ele>315.57142857142856</ele><time>2026-04-25T15:04:11.024Z</time></trkpt><trkpt lat="45.6612755" lon="10.0686733"><ele>318.14285714285717</ele><time>2026-04-25T15:04:12.013Z</time></trkpt><trkpt lat="45.6612483" lon="10.0687725"><ele>320.7142857142857</ele><time>2026-04-25T15:04:13.021Z</time></trkpt><trkpt lat="45.6612142" lon="10.06886"><ele>323.2857142857143</ele><time>2026-04-25T15:04:14.011Z</time></trkpt><trkpt lat="45.6611678" lon="10.0689328"><ele>325.85714285714283</ele><time>2026-04-25T15:04:14.987Z</time></trkpt><trkpt lat="45.6611087" lon="10.0689833"><ele>328.42857142857144</ele><time>2026-04-25T15:04:15.992Z</time></trkpt><trkpt lat="45.6610415" lon="10.0689983"><ele>331.0</ele><time>2026-04-25T15:04:17.007Z</time></trkpt><trkpt lat="45.6609784" lon="10.0689656"><ele>331.0</ele><time>2026-04-25T15:04:18.011Z</time></trkpt><trkpt lat="45.6609405" lon="10.0688875"><ele>331.0</ele><time>2026-04-25T15:04:19.014Z</time></trkpt><trkpt lat="45.6609209" lon="10.0687859"><ele>331.0</ele><time>2026-04-25T15:04:19.988Z</time></trkpt><trkpt lat="45.6609122" lon="10.0686582"><ele>331.0</ele><time>2026-04-25T15:04:21.011Z</time></trkpt><trkpt lat="45.6609059" lon="10.0685194"><ele>331.0</ele><time>2026-04-25T15:04:21.987Z</time></trkpt><trkpt lat="45.6608939" lon="10.0683769"><ele>331.0</ele><time>2026-04-25T15:04:22.987Z</time></trkpt><trkpt lat="45.6608686" lon="10.0682392"><ele>326.5</ele><time>2026-04-25T15:04:24.006Z</time></trkpt><trkpt lat="45.6608345" lon="10.0681064"><ele>322.0</ele><time>2026-04-25T15:04:24.985Z</time></trkpt><trkpt lat="45.6607909" lon="10.06796"><ele>317.5</ele><time>2026-04-25T15:04:25.989Z</time></trkpt><trkpt lat="45.6607346" lon="10.0678055"><ele>313.0</ele><time>2026-04-25T15:04:27Z</time></trkpt><trkpt lat="45.6606717" lon="10.0676472"><ele>313.0</ele><time>2026-04-25T15:04:27.986Z</time></trkpt><trkpt lat="45.6606047" lon="10.0674816"><ele>313.0</ele><time>2026-04-25T15:04:29.02Z</time></trkpt><trkpt lat="45.6605427" lon="10.067333"><ele>313.0</ele><time>2026-04-25T15:04:30.023Z</time></trkpt><trkpt lat="45.6604803" lon="10.0671894"><ele>313.0</ele><time>2026-04-25T15:04:31.028Z</time></trkpt><trkpt lat="45.6604193" lon="10.0670494"><ele>311.5</ele><time>2026-04-25T15:04:32.013Z</time></trkpt><trkpt lat="45.6603582" lon="10.0669084"><ele>310.0</ele><time>2026-04-25T15:04:33.011Z</time></trkpt><trkpt lat="45.6602977" lon="10.0667711"><ele>308.5</ele><time>2026-04-25T15:04:34.003Z</time></trkpt><trkpt lat="45.6602382" lon="10.066633"><ele>307.0</ele><time>2026-04-25T15:04:35.006Z</time></trkpt><trkpt lat="45.6601795" lon="10.0664955"><ele>307.0</ele><time>2026-04-25T15:04:36.02Z</time></trkpt><trkpt lat="45.660123" lon="10.0663617"><ele>307.0</ele><time>2026-04-25T15:04:37.014Z</time></trkpt><trkpt lat="45.6600665" lon="10.0662293"><ele>307.0</ele><time>2026-04-25T15:04:38.015Z</time></trkpt><trkpt lat="45.6600111" lon="10.0661025"><ele>307.0</ele><time>2026-04-25T15:04:38.989Z</time></trkpt><trkpt lat="45.6599482" lon="10.0659662"><ele>307.0</ele><time>2026-04-25T15:04:39.993Z</time></trkpt><trkpt lat="45.6598725" lon="10.0658238"><ele>300.75</ele><time>2026-04-25T15:04:41.021Z</time></trkpt><trkpt lat="45.6597863" lon="10.0656911"><ele>294.5</ele><time>2026-04-25T15:04:41.991Z</time></trkpt><trkpt lat="45.659692" lon="10.0655566"><ele>288.25</ele><time>2026-04-25T15:04:42.994Z</time></trkpt><trkpt lat="45.6595977" lon="10.0654292"><ele>282.0</ele><time>2026-04-25T15:04:43.985Z</time></trkpt><trkpt lat="45.6594943" lon="10.0652965"><ele>280.5</ele><time>2026-04-25T15:04:45.011Z</time></trkpt><trkpt lat="45.6593948" lon="10.0651675"><ele>279.0</ele><time>2026-04-25T15:04:45.998Z</time></trkpt><trkpt lat="45.6592994" lon="10.0650404"><ele>277.5</ele><time>2026-04-25T15:04:46.988Z</time></trkpt><trkpt lat="45.6592066" lon="10.0649159"><ele>276.0</ele><time>2026-04-25T15:04:47.991Z</time></trkpt><trkpt lat="45.6591147" lon="10.0647977"><ele>276.0</ele><time>2026-04-25T15:04:48.986Z</time></trkpt><trkpt lat="45.6590172" lon="10.0646847"><ele>276.0</ele><time>2026-04-25T15:04:50.016Z</time></trkpt><trkpt lat="45.6589197" lon="10.0645938"><ele>276.0</ele><time>2026-04-25T15:04:50.992Z</time></trkpt><trkpt lat="45.6588093" lon="10.064515"><ele>276.0</ele><time>2026-04-25T15:04:52.026Z</time></trkpt><trkpt lat="45.6586927" lon="10.0644536"><ele>278.75</ele><time>2026-04-25T15:04:53.024Z</time></trkpt><trkpt lat="45.6585674" lon="10.0644143"><ele>281.5</ele><time>2026-04-25T15:04:54.013Z</time></trkpt><trkpt lat="45.6584394" lon="10.0643827"><ele>284.25</ele><time>2026-04-25T15:04:55.032Z</time></trkpt><trkpt lat="45.658321" lon="10.0643556"><ele>287.0</ele><time>2026-04-25T15:04:55.989Z</time></trkpt><trkpt lat="45.6581986" lon="10.0643307"><ele>287.0</ele><time>2026-04-25T15:04:56.994Z</time></trkpt><trkpt lat="45.6580749" lon="10.0643061"><ele>287.0</ele><time>2026-04-25T15:04:58.023Z</time></trkpt><trkpt lat="45.657962" lon="10.0642821"><ele>287.0</ele><time>2026-04-25T15:04:58.985Z</time></trkpt><trkpt lat="45.6578439" lon="10.0642583"><ele>287.0</ele><time>2026-04-25T15:05:00.029Z</time></trkpt><trkpt lat="45.6577435" lon="10.0642402"><ele>287.83333333333337</ele><time>2026-04-25T15:05:01.015Z</time></trkpt><trkpt lat="45.657649" lon="10.064223"><ele>288.6666666666667</ele><time>2026-04-25T15:05:02.019Z</time></trkpt><trkpt lat="45.6575659" lon="10.064204"><ele>289.5</ele><time>2026-04-25T15:05:03Z</time></trkpt><trkpt lat="45.6574913" lon="10.0641794"><ele>290.3333333333333</ele><time>2026-04-25T15:05:03.985Z</time></trkpt><trkpt lat="45.6574237" lon="10.0641371"><ele>291.16666666666663</ele><time>2026-04-25T15:05:05.007Z</time></trkpt><trkpt lat="45.6573768" lon="10.064076"><ele>292.0</ele><time>2026-04-25T15:05:05.985Z</time></trkpt><trkpt lat="45.6573506" lon="10.0639883"><ele>288.66666666666663</ele><time>2026-04-25T15:05:07.006Z</time></trkpt><trkpt lat="45.6573545" lon="10.0638904"><ele>285.3333333333333</ele><time>2026-04-25T15:05:08.017Z</time></trkpt><trkpt lat="45.6573922" lon="10.0638081"><ele>282.0</ele><time>2026-04-25T15:05:09.012Z</time></trkpt><trkpt lat="45.6574587" lon="10.0637596"><ele>278.6666666666667</ele><time>2026-04-25T15:05:10.023Z</time></trkpt><trkpt lat="45.6575352" lon="10.0637683"><ele>275.33333333333337</ele><time>2026-04-25T15:05:11.006Z</time></trkpt><trkpt lat="45.6576196" lon="10.0638297"><ele>272.0</ele><time>2026-04-25T15:05:11.996Z</time></trkpt><trkpt lat="45.6577003" lon="10.0639072"><ele>272.0</ele><time>2026-04-25T15:05:12.998Z</time></trkpt><trkpt lat="45.6577827" lon="10.0639698"><ele>272.0</ele><time>2026-04-25T15:05:14.012Z</time></trkpt><trkpt lat="45.6578832" lon="10.0639979"><ele>272.0</ele><time>2026-04-25T15:05:15.014Z</time></trkpt><trkpt lat="45.6579952" lon="10.0639947"><ele>272.0</ele><time>2026-04-25T15:05:15.995Z</time></trkpt><trkpt lat="45.6581127" lon="10.0639694"><ele>272.0</ele><time>2026-04-25T15:05:17.022Z</time></trkpt><trkpt lat="45.6582296" lon="10.0639376"><ele>270.2</ele><time>2026-04-25T15:05:18.006Z</time></trkpt><trkpt lat="45.6583487" lon="10.06391"><ele>268.4</ele><time>2026-04-25T15:05:19.022Z</time></trkpt><trkpt lat="45.6584616" lon="10.0638904"><ele>266.6</ele><time>2026-04-25T15:05:19.99Z</time></trkpt><trkpt lat="45.6585672" lon="10.0638843"><ele>264.8</ele><time>2026-04-25T15:05:20.994Z</time></trkpt><trkpt lat="45.6586747" lon="10.0638754"><ele>263.0</ele><time>2026-04-25T15:05:21.993Z</time></trkpt><trkpt lat="45.6587837" lon="10.063864"><ele>260.0</ele><time>2026-04-25T15:05:23.008Z</time></trkpt><trkpt lat="45.6589033" lon="10.0638837"><ele>257.0</ele><time>2026-04-25T15:05:24.004Z</time></trkpt><trkpt lat="45.6590122" lon="10.0639423"><ele>254.0</ele><time>2026-04-25T15:05:25.012Z</time></trkpt><trkpt lat="45.6591288" lon="10.0639919"><ele>251.0</ele><time>2026-04-25T15:05:25.986Z</time></trkpt><trkpt lat="45.6592658" lon="10.0640446"><ele>251.0</ele><time>2026-04-25T15:05:27.008Z</time></trkpt><trkpt lat="45.6593981" lon="10.0641005"><ele>251.0</ele><time>2026-04-25T15:05:28.037Z</time></trkpt><trkpt lat="45.6595225" lon="10.0641552"><ele>251.0</ele><time>2026-04-25T15:05:29.016Z</time></trkpt><trkpt lat="45.6596524" lon="10.0642022"><ele>251.0</ele><time>2026-04-25T15:05:30.002Z</time></trkpt><trkpt lat="45.6597854" lon="10.0642548"><ele>252.5</ele><time>2026-04-25T15:05:30.993Z</time></trkpt><trkpt lat="45.6599263" lon="10.0643082"><ele>254.0</ele><time>2026-04-25T15:05:32.026Z</time></trkpt><trkpt lat="45.660061" lon="10.0643629"><ele>255.5</ele><time>2026-04-25T15:05:33.007Z</time></trkpt><trkpt lat="45.660191" lon="10.0644273"><ele>257.0</ele><time>2026-04-25T15:05:33.984Z</time></trkpt><trkpt lat="45.6603264" lon="10.0645039"><ele>253.5</ele><time>2026-04-25T15:05:35.029Z</time></trkpt><trkpt lat="45.6604532" lon="10.0645687"><ele>250.0</ele><time>2026-04-25T15:05:36.009Z</time></trkpt><trkpt lat="45.6605876" lon="10.0646162"><ele>246.5</ele><time>2026-04-25T15:05:37.014Z</time></trkpt><trkpt lat="45.6607206" lon="10.0646479"><ele>243.0</ele><time>2026-04-25T15:05:38.003Z</time></trkpt><trkpt lat="45.6608545" lon="10.0646696"><ele>243.0</ele><time>2026-04-25T15:05:38.993Z</time></trkpt><trkpt lat="45.6609871" lon="10.0646945"><ele>243.0</ele><time>2026-04-25T15:05:40.023Z</time></trkpt><trkpt lat="45.6611062" lon="10.0647256"><ele>243.0</ele><time>2026-04-25T15:05:41.014Z</time></trkpt><trkpt lat="45.6612161" lon="10.0647611"><ele>243.0</ele><time>2026-04-25T15:05:41.992Z</time></trkpt><trkpt lat="45.6613171" lon="10.0648017"><ele>242.33333333333334</ele><time>2026-04-25T15:05:42.989Z</time></trkpt><trkpt lat="45.6614144" lon="10.0648272"><ele>241.66666666666669</ele><time>2026-04-25T15:05:44.027Z</time></trkpt><trkpt lat="45.6614958" lon="10.0648103"><ele>241.0</ele><time>2026-04-25T15:05:44.991Z</time></trkpt><trkpt lat="45.6615604" lon="10.0647513"><ele>240.33333333333334</ele><time>2026-04-25T15:05:45.984Z</time></trkpt><trkpt lat="45.6615919" lon="10.0646592"><ele>239.66666666666669</ele><time>2026-04-25T15:05:47.021Z</time></trkpt><trkpt lat="45.6615791" lon="10.064567"><ele>239.0</ele><time>2026-04-25T15:05:48.009Z</time></trkpt><trkpt lat="45.661531" lon="10.0644941"><ele>239.00000000000003</ele><time>2026-04-25T15:05:49.01Z</time></trkpt><trkpt lat="45.6614637" lon="10.0644555"><ele>239.0</ele><time>2026-04-25T15:05:50.011Z</time></trkpt><trkpt lat="45.6613807" lon="10.0644534"><ele>239.0</ele><time>2026-04-25T15:05:51.02Z</time></trkpt><trkpt lat="45.6612921" lon="10.0644422"><ele>239.0</ele><time>2026-04-25T15:05:52.009Z</time></trkpt><trkpt lat="45.661195" lon="10.0644135"><ele>239.00000000000003</ele><time>2026-04-25T15:05:53.008Z</time></trkpt><trkpt lat="45.661096" lon="10.0643699"><ele>239.0</ele><time>2026-04-25T15:05:53.984Z</time></trkpt><trkpt lat="45.6609965" lon="10.0643206"><ele>239.79999999999998</ele><time>2026-04-25T15:05:55.017Z</time></trkpt><trkpt lat="45.6609049" lon="10.0642742"><ele>240.59999999999997</ele><time>2026-04-25T15:05:56.018Z</time></trkpt><trkpt lat="45.6608175" lon="10.0642281"><ele>241.4</ele><time>2026-04-25T15:05:56.996Z</time></trkpt><trkpt lat="45.6607322" lon="10.0641813"><ele>242.2</ele><time>2026-04-25T15:05:58.022Z</time></trkpt><trkpt lat="45.6606545" lon="10.0641346"><ele>243.0</ele><time>2026-04-25T15:05:59.015Z</time></trkpt><trkpt lat="45.6605803" lon="10.0640785"><ele>241.5</ele><time>2026-04-25T15:05:59.996Z</time></trkpt><trkpt lat="45.6605103" lon="10.0640088"><ele>240.0</ele><time>2026-04-25T15:06:00.988Z</time></trkpt><trkpt lat="45.660445" lon="10.0639215"><ele>238.5</ele><time>2026-04-25T15:06:02.008Z</time></trkpt><trkpt lat="45.660389" lon="10.0638242"><ele>237.0</ele><time>2026-04-25T15:06:03.021Z</time></trkpt><trkpt lat="45.660347" lon="10.063722"><ele>235.5</ele><time>2026-04-25T15:06:04.019Z</time></trkpt><trkpt lat="45.6603155" lon="10.0636134"><ele>234.0</ele><time>2026-04-25T15:06:05.016Z</time></trkpt><trkpt lat="45.6602919" lon="10.0635044"><ele>234.5</ele><time>2026-04-25T15:06:05.994Z</time></trkpt><trkpt lat="45.660272" lon="10.0633904"><ele>235.0</ele><time>2026-04-25T15:06:06.993Z</time></trkpt><trkpt lat="45.6602554" lon="10.0632708"><ele>235.5</ele><time>2026-04-25T15:06:08.021Z</time></trkpt><trkpt lat="45.6602429" lon="10.0631595"><ele>236.0</ele><time>2026-04-25T15:06:09.036Z</time></trkpt><trkpt lat="45.6602346" lon="10.0630627"><ele>236.5</ele><time>2026-04-25T15:06:10.027Z</time></trkpt><trkpt lat="45.6602198" lon="10.0628866"><ele>237.0</ele><time>2026-04-25T15:06:12.018Z</time></trkpt><trkpt lat="45.6602119" lon="10.0627182"><ele>235.8</ele><time>2026-04-25T15:06:14.01Z</time></trkpt><trkpt lat="45.6602579" lon="10.0625898"><ele>234.6</ele><time>2026-04-25T15:06:16.018Z</time></trkpt><trkpt lat="45.6603574" lon="10.0624703"><ele>233.40000000000003</ele><time>2026-04-25T15:06:18.01Z</time></trkpt><trkpt lat="45.6604146" lon="10.0624169"><ele>232.20000000000002</ele><time>2026-04-25T15:06:19.028Z</time></trkpt><trkpt lat="45.660522" lon="10.0623864"><ele>231.0</ele><time>2026-04-25T15:06:20.998Z</time></trkpt><trkpt lat="45.660615" lon="10.0624828"><ele>231.0</ele><time>2026-04-25T15:06:23.023Z</time></trkpt><trkpt lat="45.6606207" lon="10.0626524"><ele>231.00000000000003</ele><time>2026-04-25T15:06:25.025Z</time></trkpt><trkpt lat="45.6605195" lon="10.0627546"><ele>231.00000000000003</ele><time>2026-04-25T15:06:27.015Z</time></trkpt><trkpt lat="45.6604444" lon="10.0627703"><ele>231.0</ele><time>2026-04-25T15:06:27.989Z</time></trkpt><trkpt lat="45.6603589" lon="10.062779"><ele>231.0</ele><time>2026-04-25T15:06:28.987Z</time></trkpt><trkpt lat="45.6602616" lon="10.0627867"><ele>231.0</ele><time>2026-04-25T15:06:30.009Z</time></trkpt><trkpt lat="45.6601571" lon="10.0627925"><ele>231.00000000000003</ele><time>2026-04-25T15:06:30.996Z</time></trkpt><trkpt lat="45.6600525" lon="10.0628011"><ele>231.00000000000003</ele><time>2026-04-25T15:06:31.996Z</time></trkpt><trkpt lat="45.6599442" lon="10.0628122"><ele>231.0</ele><time>2026-04-25T15:06:33.002Z</time></trkpt><trkpt lat="45.6598355" lon="10.0628216"><ele>231.0</ele><time>2026-04-25T15:06:33.992Z</time></trkpt><trkpt lat="45.6597209" lon="10.0628296"><ele>231.0</ele><time>2026-04-25T15:06:35.009Z</time></trkpt><trkpt lat="45.6596042" lon="10.0628356"><ele>231.0</ele><time>2026-04-25T15:06:36.019Z</time></trkpt><trkpt lat="45.6594863" lon="10.0628402"><ele>231.0</ele><time>2026-04-25T15:06:37.019Z</time></trkpt><trkpt lat="45.6593659" lon="10.0628453"><ele>231.0</ele><time>2026-04-25T15:06:38.017Z</time></trkpt><trkpt lat="45.6592434" lon="10.0628488"><ele>233.25</ele><time>2026-04-25T15:06:39.006Z</time></trkpt><trkpt lat="45.6591142" lon="10.0628543"><ele>235.5</ele><time>2026-04-25T15:06:40.028Z</time></trkpt><trkpt lat="45.6589857" lon="10.0628613"><ele>237.75</ele><time>2026-04-25T15:06:41.02Z</time></trkpt><trkpt lat="45.6588578" lon="10.0628677"><ele>240.0</ele><time>2026-04-25T15:06:41.997Z</time></trkpt><trkpt lat="45.6587244" lon="10.0628731"><ele>243.25</ele><time>2026-04-25T15:06:42.997Z</time></trkpt><trkpt lat="45.6585899" lon="10.0628778"><ele>246.5</ele><time>2026-04-25T15:06:43.994Z</time></trkpt><trkpt lat="45.6584539" lon="10.0628788"><ele>249.75</ele><time>2026-04-25T15:06:44.983Z</time></trkpt><trkpt lat="45.6583095" lon="10.0628724"><ele>253.0</ele><time>2026-04-25T15:06:46.007Z</time></trkpt><trkpt lat="45.6581567" lon="10.0628555"><ele>253.0</ele><time>2026-04-25T15:06:46.997Z</time></trkpt><trkpt lat="45.6580032" lon="10.0628254"><ele>253.0</ele><time>2026-04-25T15:06:47.993Z</time></trkpt><trkpt lat="45.6578531" lon="10.0627844"><ele>253.0</ele><time>2026-04-25T15:06:49.002Z</time></trkpt><trkpt lat="45.6577193" lon="10.0627388"><ele>253.0</ele><time>2026-04-25T15:06:49.993Z</time></trkpt><trkpt lat="45.6575976" lon="10.0626897"><ele>253.4</ele><time>2026-04-25T15:06:50.987Z</time></trkpt><trkpt lat="45.6574877" lon="10.0626388"><ele>253.8</ele><time>2026-04-25T15:06:51.984Z</time></trkpt><trkpt lat="45.6573866" lon="10.0625963"><ele>254.2</ele><time>2026-04-25T15:06:52.992Z</time></trkpt><trkpt lat="45.6572912" lon="10.0625474"><ele>254.6</ele><time>2026-04-25T15:06:54.006Z</time></trkpt><trkpt lat="45.6572064" lon="10.062493"><ele>255.0</ele><time>2026-04-25T15:06:54.99Z</time></trkpt><trkpt lat="45.6571153" lon="10.0624361"><ele>255.0</ele><time>2026-04-25T15:06:56.014Z</time></trkpt><trkpt lat="45.6570173" lon="10.0623728"><ele>255.0</ele><time>2026-04-25T15:06:57.009Z</time></trkpt><trkpt lat="45.6569061" lon="10.0622971"><ele>255.0</ele><time>2026-04-25T15:06:58.02Z</time></trkpt><trkpt lat="45.6568146" lon="10.0622291"><ele>255.0</ele><time>2026-04-25T15:06:59.016Z</time></trkpt><trkpt lat="45.6567288" lon="10.062167"><ele>255.0</ele><time>2026-04-25T15:07:00.027Z</time></trkpt><trkpt lat="45.6566623" lon="10.0621122"><ele>255.0</ele><time>2026-04-25T15:07:01Z</time></trkpt><trkpt lat="45.656604" lon="10.0620622"><ele>255.00000000000003</ele><time>2026-04-25T15:07:01.987Z</time></trkpt><trkpt lat="45.6565488" lon="10.0620188"><ele>255.0</ele><time>2026-04-25T15:07:02.989Z</time></trkpt><trkpt lat="45.6564868" lon="10.0619719"><ele>255.0</ele><time>2026-04-25T15:07:04.014Z</time></trkpt><trkpt lat="45.6564215" lon="10.0619158"><ele>255.00000000000003</ele><time>2026-04-25T15:07:05.014Z</time></trkpt><trkpt lat="45.6563636" lon="10.0618614"><ele>255.0</ele><time>2026-04-25T15:07:06.002Z</time></trkpt><trkpt lat="45.6563102" lon="10.0618094"><ele>255.0</ele><time>2026-04-25T15:07:06.984Z</time></trkpt><trkpt lat="45.6562586" lon="10.061757"><ele>255.0</ele><time>2026-04-25T15:07:07.988Z</time></trkpt><trkpt lat="45.6561659" lon="10.0616695"><ele>255.0</ele><time>2026-04-25T15:07:09.986Z</time></trkpt><trkpt lat="45.6560713" lon="10.0616533"><ele>255.0</ele><time>2026-04-25T15:07:12.021Z</time></trkpt><trkpt lat="45.6560077" lon="10.0617372"><ele>255.0</ele><time>2026-04-25T15:07:13.994Z</time></trkpt><trkpt lat="45.6560196" lon="10.0618952"><ele>255.0</ele><time>2026-04-25T15:07:15.996Z</time></trkpt><trkpt lat="45.6560571" lon="10.0620032"><ele>255.0</ele><time>2026-04-25T15:07:16.995Z</time></trkpt><trkpt lat="45.6561026" lon="10.0621434"><ele>255.0</ele><time>2026-04-25T15:07:18.02Z</time></trkpt><trkpt lat="45.6561452" lon="10.0623096"><ele>255.0</ele><time>2026-04-25T15:07:19.023Z</time></trkpt><trkpt lat="45.6561901" lon="10.0624799"><ele>255.0</ele><time>2026-04-25T15:07:19.985Z</time></trkpt><trkpt lat="45.6562357" lon="10.0626878"><ele>258.3333333333333</ele><time>2026-04-25T15:07:21.012Z</time></trkpt><trkpt lat="45.6562712" lon="10.0628977"><ele>261.66666666666663</ele><time>2026-04-25T15:07:21.998Z</time></trkpt><trkpt lat="45.656306" lon="10.0631215"><ele>265.0</ele><time>2026-04-25T15:07:23.022Z</time></trkpt><trkpt lat="45.6563406" lon="10.0633345"><ele>266.25</ele><time>2026-04-25T15:07:24.026Z</time></trkpt><trkpt lat="45.6563756" lon="10.0635362"><ele>267.5</ele><time>2026-04-25T15:07:25.038Z</time></trkpt><trkpt lat="45.6564184" lon="10.0637235"><ele>268.75</ele><time>2026-04-25T15:07:26.01Z</time></trkpt><trkpt lat="45.6564635" lon="10.0638782"><ele>270.0</ele><time>2026-04-25T15:07:27.001Z</time></trkpt><trkpt lat="45.6565267" lon="10.0639898"><ele>275.0</ele><time>2026-04-25T15:07:28Z</time></trkpt><trkpt lat="45.6565868" lon="10.064124"><ele>280.0</ele><time>2026-04-25T15:07:29.004Z</time></trkpt><trkpt lat="45.6566371" lon="10.0642596"><ele>285.0</ele><time>2026-04-25T15:07:29.997Z</time></trkpt><trkpt lat="45.6566864" lon="10.0643969"><ele>290.0</ele><time>2026-04-25T15:07:30.999Z</time></trkpt><trkpt lat="45.6567542" lon="10.0645256"><ele>295.0</ele><time>2026-04-25T15:07:32.019Z</time></trkpt><trkpt lat="45.6568187" lon="10.0645708"><ele>295.0</ele><time>2026-04-25T15:07:32.996Z</time></trkpt><trkpt lat="45.6568993" lon="10.0645584"><ele>295.0</ele><time>2026-04-25T15:07:33.993Z</time></trkpt><trkpt lat="45.6569973" lon="10.0644304"><ele>295.0</ele><time>2026-04-25T15:07:34.983Z</time></trkpt><trkpt lat="45.6569254" lon="10.0650749"><ele>294.25</ele><time>2026-04-25T15:07:36.013Z</time></trkpt><trkpt lat="45.6570736" lon="10.0651123"><ele>293.5</ele><time>2026-04-25T15:07:36.98Z</time></trkpt><trkpt lat="45.6571844" lon="10.0651566"><ele>292.75</ele><time>2026-04-25T15:07:37.995Z</time></trkpt><trkpt lat="45.6573084" lon="10.0652148"><ele>292.0</ele><time>2026-04-25T15:07:38.98Z</time></trkpt><trkpt lat="45.6574504" lon="10.0649234"><ele>292.0</ele><time>2026-04-25T15:07:39.985Z</time></trkpt><trkpt lat="45.6575526" lon="10.0648532"><ele>292.0</ele><time>2026-04-25T15:07:41.017Z</time></trkpt><trkpt lat="45.6576741" lon="10.0648304"><ele>292.0</ele><time>2026-04-25T15:07:42.005Z</time></trkpt><trkpt lat="45.6577996" lon="10.0648413"><ele>292.0</ele><time>2026-04-25T15:07:43.004Z</time></trkpt><trkpt lat="45.6579388" lon="10.0648644"><ele>290.3333333333333</ele><time>2026-04-25T15:07:44.021Z</time></trkpt><trkpt lat="45.6580908" lon="10.0649177"><ele>288.6666666666667</ele><time>2026-04-25T15:07:45.008Z</time></trkpt><trkpt lat="45.6582557" lon="10.0649862"><ele>287.0</ele><time>2026-04-25T15:07:46.02Z</time></trkpt><trkpt lat="45.6584216" lon="10.0650813"><ele>293.33333333333337</ele><time>2026-04-25T15:07:47.005Z</time></trkpt><trkpt lat="45.658594" lon="10.0651951"><ele>299.6666666666667</ele><time>2026-04-25T15:07:47.988Z</time></trkpt><trkpt lat="45.6587948" lon="10.065286"><ele>306.0</ele><time>2026-04-25T15:07:48.99Z</time></trkpt><trkpt lat="45.6588988" lon="10.0653647"><ele>306.0</ele><time>2026-04-25T15:07:50.02Z</time></trkpt><trkpt lat="45.6590719" lon="10.0655157"><ele>306.0</ele><time>2026-04-25T15:07:51.016Z</time></trkpt><trkpt lat="45.6592545" lon="10.0656794"><ele>306.0</ele><time>2026-04-25T15:07:51.986Z</time></trkpt><trkpt lat="45.6594477" lon="10.0658609"><ele>306.5</ele><time>2026-04-25T15:07:52.991Z</time></trkpt><trkpt lat="45.6596491" lon="10.0660531"><ele>307.0</ele><time>2026-04-25T15:07:54.019Z</time></trkpt><trkpt lat="45.659847" lon="10.0662395"><ele>307.0</ele><time>2026-04-25T15:07:54.991Z</time></trkpt><trkpt lat="45.6600467" lon="10.0664259"><ele>307.0</ele><time>2026-04-25T15:07:56.008Z</time></trkpt><trkpt lat="45.6602351" lon="10.0665724"><ele>304.0</ele><time>2026-04-25T15:07:57.021Z</time></trkpt><trkpt lat="45.6604192" lon="10.0667168"><ele>301.0</ele><time>2026-04-25T15:07:57.988Z</time></trkpt><trkpt lat="45.6605898" lon="10.0668432"><ele>298.0</ele><time>2026-04-25T15:07:58.988Z</time></trkpt><trkpt lat="45.6607549" lon="10.0669707"><ele>298.0</ele><time>2026-04-25T15:08:00Z</time></trkpt><trkpt lat="45.6609193" lon="10.0670994"><ele>298.0</ele><time>2026-04-25T15:08:00.985Z</time></trkpt><trkpt lat="45.6610805" lon="10.067221"><ele>298.0</ele><time>2026-04-25T15:08:01.995Z</time></trkpt><trkpt lat="45.6612168" lon="10.0673213"><ele>297.4</ele><time>2026-04-25T15:08:02.989Z</time></trkpt><trkpt lat="45.6613384" lon="10.0674145"><ele>296.8</ele><time>2026-04-25T15:08:04.009Z</time></trkpt><trkpt lat="45.6614591" lon="10.0674687"><ele>296.2</ele><time>2026-04-25T15:08:05.015Z</time></trkpt><trkpt lat="45.6614692" lon="10.0673256"><ele>295.6</ele><time>2026-04-25T15:08:05.983Z</time></trkpt><trkpt lat="45.6615065" lon="10.0672295"><ele>295.0</ele><time>2026-04-25T15:08:06.986Z</time></trkpt><trkpt lat="45.661694" lon="10.0672026"><ele>295.0</ele><time>2026-04-25T15:08:07.985Z</time></trkpt><trkpt lat="45.6619225" lon="10.0672252"><ele>295.0</ele><time>2026-04-25T15:08:08.982Z</time></trkpt><trkpt lat="45.6621757" lon="10.0673171"><ele>303.66666666666663</ele><time>2026-04-25T15:08:09.996Z</time></trkpt><trkpt lat="45.6623378" lon="10.0674715"><ele>312.3333333333333</ele><time>2026-04-25T15:08:11.009Z</time></trkpt><trkpt lat="45.6624862" lon="10.0676268"><ele>321.0</ele><time>2026-04-25T15:08:11.987Z</time></trkpt><trkpt lat="45.6625611" lon="10.0678182"><ele>321.0</ele><time>2026-04-25T15:08:12.999Z</time></trkpt><trkpt lat="45.6626748" lon="10.0679962"><ele>321.0</ele><time>2026-04-25T15:08:14.016Z</time></trkpt><trkpt lat="45.6627821" lon="10.0681568"><ele>321.0</ele><time>2026-04-25T15:08:15.01Z</time></trkpt><trkpt lat="45.6628666" lon="10.0682574"><ele>321.0</ele><time>2026-04-25T15:08:15.971Z</time></trkpt><trkpt lat="45.6619727" lon="10.0672031"><ele>268.0</ele><time>2026-04-25T15:09:00.219Z</time></trkpt><trkpt lat="45.6764858" lon="10.0901984"><ele>268.0</ele><time>2026-04-25T15:10:18.806Z</time></trkpt><trkpt lat="45.6766256" lon="10.0903378"><ele>268.0</ele><time>2026-04-25T15:10:19.805Z</time></trkpt><trkpt lat="45.6767547" lon="10.0904989"><ele>268.0</ele><time>2026-04-25T15:10:20.806Z</time></trkpt><trkpt lat="45.6770042" lon="10.0907746"><ele>269.0</ele><time>2026-04-25T15:10:23.032Z</time></trkpt><trkpt lat="45.6772007" lon="10.0909893"><ele>270.0</ele><time>2026-04-25T15:10:24.031Z</time></trkpt><trkpt lat="45.6773818" lon="10.0911825"><ele>270.0</ele><time>2026-04-25T15:10:25Z</time></trkpt><trkpt lat="45.6775243" lon="10.0913429"><ele>270.0</ele><time>2026-04-25T15:10:26.019Z</time></trkpt><trkpt lat="45.6776626" lon="10.091492"><ele>270.0</ele><time>2026-04-25T15:10:27.029Z</time></trkpt><trkpt lat="45.6777973" lon="10.0916414"><ele>268.6666666666667</ele><time>2026-04-25T15:10:28.028Z</time></trkpt><trkpt lat="45.6779347" lon="10.0917896"><ele>267.33333333333337</ele><time>2026-04-25T15:10:29.019Z</time></trkpt><trkpt lat="45.6780751" lon="10.0919434"><ele>266.0</ele><time>2026-04-25T15:10:30.018Z</time></trkpt><trkpt lat="45.6782153" lon="10.0921001"><ele>266.0</ele><time>2026-04-25T15:10:30.997Z</time></trkpt><trkpt lat="45.6783626" lon="10.0922626"><ele>266.0</ele><time>2026-04-25T15:10:31.994Z</time></trkpt><trkpt lat="45.6785187" lon="10.092436"><ele>266.0</ele><time>2026-04-25T15:10:33.034Z</time></trkpt><trkpt lat="45.6786718" lon="10.0926101"><ele>266.33333333333337</ele><time>2026-04-25T15:10:34.017Z</time></trkpt><trkpt lat="45.6788405" lon="10.0928064"><ele>266.6666666666667</ele><time>2026-04-25T15:10:35.027Z</time></trkpt><trkpt lat="45.6790138" lon="10.0930188"><ele>267.0</ele><time>2026-04-25T15:10:36.028Z</time></trkpt><trkpt lat="45.6791782" lon="10.0932335"><ele>267.3333333333333</ele><time>2026-04-25T15:10:37.012Z</time></trkpt><trkpt lat="45.6793287" lon="10.093452"><ele>267.66666666666663</ele><time>2026-04-25T15:10:37.999Z</time></trkpt><trkpt lat="45.6794942" lon="10.093681"><ele>268.0</ele><time>2026-04-25T15:10:39.025Z</time></trkpt><trkpt lat="45.6796603" lon="10.0939028"><ele>281.66666666666663</ele><time>2026-04-25T15:10:40.012Z</time></trkpt><trkpt lat="45.6798037" lon="10.0941454"><ele>295.3333333333333</ele><time>2026-04-25T15:10:41.013Z</time></trkpt><trkpt lat="45.6799345" lon="10.0943834"><ele>309.0</ele><time>2026-04-25T15:10:42.014Z</time></trkpt><trkpt lat="45.6800582" lon="10.0946001"><ele>309.0</ele><time>2026-04-25T15:10:42.991Z</time></trkpt><trkpt lat="45.6801573" lon="10.0948286"><ele>309.0</ele><time>2026-04-25T15:10:44.02Z</time></trkpt><trkpt lat="45.6802565" lon="10.0950349"><ele>309.0</ele><time>2026-04-25T15:10:44.986Z</time></trkpt><trkpt lat="45.6803913" lon="10.0952767"><ele>312.3333333333333</ele><time>2026-04-25T15:10:45.993Z</time></trkpt><trkpt lat="45.6804987" lon="10.0954939"><ele>315.66666666666663</ele><time>2026-04-25T15:10:47.007Z</time></trkpt><trkpt lat="45.680604" lon="10.095711"><ele>319.0</ele><time>2026-04-25T15:10:47.994Z</time></trkpt><trkpt lat="45.6807085" lon="10.0959204"><ele>319.0</ele><time>2026-04-25T15:10:48.995Z</time></trkpt><trkpt lat="45.6809087" lon="10.0962222"><ele>319.0</ele><time>2026-04-25T15:10:50.882Z</time></trkpt><trkpt lat="45.6810063" lon="10.0964055"><ele>313.3333333333333</ele><time>2026-04-25T15:10:51.858Z</time></trkpt><trkpt lat="45.6811162" lon="10.0966026"><ele>307.6666666666667</ele><time>2026-04-25T15:10:52.848Z</time></trkpt><trkpt lat="45.6812256" lon="10.0968191"><ele>302.0</ele><time>2026-04-25T15:10:53.851Z</time></trkpt><trkpt lat="45.67943" lon="10.0936263"><ele>301.0</ele><time>2026-04-25T15:10:54.813Z</time></trkpt><trkpt lat="45.6836882" lon="10.1032786"><ele>301.0</ele><time>2026-04-25T15:11:23.807Z</time></trkpt><trkpt lat="45.6837635" lon="10.1034797"><ele>301.0</ele><time>2026-04-25T15:11:24.807Z</time></trkpt><trkpt lat="45.6838801" lon="10.1037021"><ele>301.0</ele><time>2026-04-25T15:11:25.808Z</time></trkpt><trkpt lat="45.6840813" lon="10.1041074"><ele>309.5</ele><time>2026-04-25T15:11:27.996Z</time></trkpt><trkpt lat="45.6842448" lon="10.1044412"><ele>318.0</ele><time>2026-04-25T15:11:28.996Z</time></trkpt><trkpt lat="45.6844027" lon="10.1047731"><ele>319.3333333333333</ele><time>2026-04-25T15:11:30.014Z</time></trkpt><trkpt lat="45.6845242" lon="10.1050399"><ele>320.66666666666663</ele><time>2026-04-25T15:11:31.021Z</time></trkpt><trkpt lat="45.6846457" lon="10.1052939"><ele>322.0</ele><time>2026-04-25T15:11:32.012Z</time></trkpt><trkpt lat="45.6847695" lon="10.1055308"><ele>321.0</ele><time>2026-04-25T15:11:33.016Z</time></trkpt><trkpt lat="45.6848919" lon="10.1057579"><ele>320.0</ele><time>2026-04-25T15:11:34.014Z</time></trkpt><trkpt lat="45.6850342" lon="10.1059979"><ele>319.0</ele><time>2026-04-25T15:11:35.02Z</time></trkpt><trkpt lat="45.685187" lon="10.1062215"><ele>311.0</ele><time>2026-04-25T15:11:35.987Z</time></trkpt><trkpt lat="45.6853397" lon="10.1064315"><ele>303.0</ele><time>2026-04-25T15:11:36.994Z</time></trkpt><trkpt lat="45.6855096" lon="10.1066418"><ele>295.0</ele><time>2026-04-25T15:11:38.044Z</time></trkpt><trkpt lat="45.6856727" lon="10.1068232"><ele>294.3333333333333</ele><time>2026-04-25T15:11:39.004Z</time></trkpt><trkpt lat="45.6858516" lon="10.1070047"><ele>293.6666666666667</ele><time>2026-04-25T15:11:40.02Z</time></trkpt><trkpt lat="45.6860285" lon="10.1071659"><ele>293.0</ele><time>2026-04-25T15:11:40.993Z</time></trkpt><trkpt lat="45.6862245" lon="10.1073296"><ele>301.0</ele><time>2026-04-25T15:11:42.029Z</time></trkpt><trkpt lat="45.686417" lon="10.1074818"><ele>309.0</ele><time>2026-04-25T15:11:43.013Z</time></trkpt><trkpt lat="45.6866243" lon="10.1076369"><ele>309.0</ele><time>2026-04-25T15:11:44.031Z</time></trkpt><trkpt lat="45.6868274" lon="10.1077804"><ele>309.0</ele><time>2026-04-25T15:11:44.991Z</time></trkpt><trkpt lat="45.6870448" lon="10.1079309"><ele>308.5</ele><time>2026-04-25T15:11:45.994Z</time></trkpt><trkpt lat="45.6872664" lon="10.108085"><ele>308.0</ele><time>2026-04-25T15:11:46.99Z</time></trkpt><trkpt lat="45.6875042" lon="10.1082481"><ele>315.0</ele><time>2026-04-25T15:11:48.024Z</time></trkpt><trkpt lat="45.6877482" lon="10.1084099"><ele>322.0</ele><time>2026-04-25T15:11:49.028Z</time></trkpt><trkpt lat="45.6879949" lon="10.1085754"><ele>322.0</ele><time>2026-04-25T15:11:49.995Z</time></trkpt><trkpt lat="45.6882605" lon="10.1087599"><ele>322.0</ele><time>2026-04-25T15:11:50.997Z</time></trkpt><trkpt lat="45.6885392" lon="10.1089593"><ele>325.0</ele><time>2026-04-25T15:11:52.014Z</time></trkpt><trkpt lat="45.6888147" lon="10.1091604"><ele>328.0</ele><time>2026-04-25T15:11:53.024Z</time></trkpt><trkpt lat="45.6890683" lon="10.1093427"><ele>328.0</ele><time>2026-04-25T15:11:54.006Z</time></trkpt><trkpt lat="45.689313" lon="10.1095145"><ele>328.0</ele><time>2026-04-25T15:11:54.995Z</time></trkpt><trkpt lat="45.6895622" lon="10.1096903"><ele>330.0</ele><time>2026-04-25T15:11:56.016Z</time></trkpt><trkpt lat="45.6897947" lon="10.1098567"><ele>332.0</ele><time>2026-04-25T15:11:56.996Z</time></trkpt><trkpt lat="45.6900233" lon="10.1100217"><ele>332.0</ele><time>2026-04-25T15:11:58Z</time></trkpt><trkpt lat="45.6902397" lon="10.1101839"><ele>332.0</ele><time>2026-04-25T15:11:58.996Z</time></trkpt><trkpt lat="45.690453" lon="10.1103532"><ele>328.5</ele><time>2026-04-25T15:11:59.993Z</time></trkpt><trkpt lat="45.6906648" lon="10.1105298"><ele>325.0</ele><time>2026-04-25T15:12:00.985Z</time></trkpt><trkpt lat="45.6908718" lon="10.1107097"><ele>326.0</ele><time>2026-04-25T15:12:02.01Z</time></trkpt><trkpt lat="45.6910594" lon="10.1108807"><ele>327.0</ele><time>2026-04-25T15:12:02.983Z</time></trkpt><trkpt lat="45.691258" lon="10.1110699"><ele>327.0</ele><time>2026-04-25T15:12:04.029Z</time></trkpt><trkpt lat="45.6914459" lon="10.1112467"><ele>327.0</ele><time>2026-04-25T15:12:04.994Z</time></trkpt><trkpt lat="45.6916602" lon="10.1114443"><ele>328.5</ele><time>2026-04-25T15:12:06.02Z</time></trkpt><trkpt lat="45.6918796" lon="10.1116541"><ele>330.0</ele><time>2026-04-25T15:12:07.024Z</time></trkpt><trkpt lat="45.6921075" lon="10.1118803"><ele>330.0</ele><time>2026-04-25T15:12:08.036Z</time></trkpt><trkpt lat="45.6923245" lon="10.1120974"><ele>330.0</ele><time>2026-04-25T15:12:09.035Z</time></trkpt><trkpt lat="45.6925238" lon="10.1122953"><ele>334.0</ele><time>2026-04-25T15:12:10.006Z</time></trkpt><trkpt lat="45.692718" lon="10.1124838"><ele>338.0</ele><time>2026-04-25T15:12:10.982Z</time></trkpt><trkpt lat="45.6929237" lon="10.1126708"><ele>338.0</ele><time>2026-04-25T15:12:12.002Z</time></trkpt><trkpt lat="45.6931353" lon="10.1128474"><ele>338.0</ele><time>2026-04-25T15:12:13.035Z</time></trkpt><trkpt lat="45.6933356" lon="10.1129953"><ele>338.0</ele><time>2026-04-25T15:12:13.993Z</time></trkpt><trkpt lat="45.6935494" lon="10.1131365"><ele>338.0</ele><time>2026-04-25T15:12:15.014Z</time></trkpt><trkpt lat="45.6937553" lon="10.1132578"><ele>340.33333333333337</ele><time>2026-04-25T15:12:16.024Z</time></trkpt><trkpt lat="45.6939425" lon="10.1133633"><ele>342.6666666666667</ele><time>2026-04-25T15:12:16.989Z</time></trkpt><trkpt lat="45.6941362" lon="10.1134676"><ele>345.0</ele><time>2026-04-25T15:12:18.013Z</time></trkpt><trkpt lat="45.6943256" lon="10.113565"><ele>340.6666666666667</ele><time>2026-04-25T15:12:19.012Z</time></trkpt><trkpt lat="45.6945122" lon="10.1136601"><ele>336.33333333333337</ele><time>2026-04-25T15:12:19.995Z</time></trkpt><trkpt lat="45.6947098" lon="10.1137654"><ele>332.0</ele><time>2026-04-25T15:12:21.039Z</time></trkpt><trkpt lat="45.69489" lon="10.1138714"><ele>332.0</ele><time>2026-04-25T15:12:22.031Z</time></trkpt><trkpt lat="45.6950579" lon="10.1139752"><ele>332.0</ele><time>2026-04-25T15:12:22.992Z</time></trkpt><trkpt lat="45.6952339" lon="10.1140766"><ele>332.0</ele><time>2026-04-25T15:12:23.999Z</time></trkpt><trkpt lat="45.6954133" lon="10.1141727"><ele>334.6666666666667</ele><time>2026-04-25T15:12:24.992Z</time></trkpt><trkpt lat="45.6955888" lon="10.1142634"><ele>337.3333333333333</ele><time>2026-04-25T15:12:25.952Z</time></trkpt><trkpt lat="45.6957742" lon="10.1143626"><ele>340.0</ele><time>2026-04-25T15:12:26.946Z</time></trkpt><trkpt lat="45.6959657" lon="10.1144672"><ele>335.66666666666663</ele><time>2026-04-25T15:12:27.971Z</time></trkpt><trkpt lat="45.6961511" lon="10.1145766"><ele>331.3333333333333</ele><time>2026-04-25T15:12:28.946Z</time></trkpt><trkpt lat="45.6963449" lon="10.1146973"><ele>327.0</ele><time>2026-04-25T15:12:29.962Z</time></trkpt><trkpt lat="45.6965388" lon="10.1148308"><ele>328.3333333333333</ele><time>2026-04-25T15:12:30.976Z</time></trkpt><trkpt lat="45.6967263" lon="10.1149671"><ele>329.66666666666663</ele><time>2026-04-25T15:12:31.96Z</time></trkpt><trkpt lat="45.6969175" lon="10.1151068"><ele>331.0</ele><time>2026-04-25T15:12:32.974Z</time></trkpt><trkpt lat="45.6971031" lon="10.1152484"><ele>331.0</ele><time>2026-04-25T15:12:33.955Z</time></trkpt><trkpt lat="45.6972959" lon="10.1153942"><ele>331.0</ele><time>2026-04-25T15:12:34.957Z</time></trkpt><trkpt lat="45.6974913" lon="10.1155411"><ele>331.0</ele><time>2026-04-25T15:12:35.97Z</time></trkpt><trkpt lat="45.6976838" lon="10.1156838"><ele>332.0</ele><time>2026-04-25T15:12:36.964Z</time></trkpt><trkpt lat="45.6978771" lon="10.1158281"><ele>333.0</ele><time>2026-04-25T15:12:37.959Z</time></trkpt><trkpt lat="45.6980697" lon="10.1159759"><ele>334.0</ele><time>2026-04-25T15:12:38.946Z</time></trkpt><trkpt lat="45.6982642" lon="10.1161238"><ele>334.0</ele><time>2026-04-25T15:12:39.939Z</time></trkpt><trkpt lat="45.69847" lon="10.1162817"><ele>334.0</ele><time>2026-04-25T15:12:40.982Z</time></trkpt><trkpt lat="45.6986636" lon="10.1164299"><ele>336.0</ele><time>2026-04-25T15:12:41.963Z</time></trkpt><trkpt lat="45.6988564" lon="10.1165834"><ele>338.0</ele><time>2026-04-25T15:12:42.952Z</time></trkpt><trkpt lat="45.6990558" lon="10.1167437"><ele>340.0</ele><time>2026-04-25T15:12:43.968Z</time></trkpt><trkpt lat="45.6992548" lon="10.1169013"><ele>334.5</ele><time>2026-04-25T15:12:44.969Z</time></trkpt><trkpt lat="45.6994588" lon="10.1170641"><ele>329.0</ele><time>2026-04-25T15:12:45.981Z</time></trkpt><trkpt lat="45.699653" lon="10.1172226"><ele>329.0</ele><time>2026-04-25T15:12:46.957Z</time></trkpt><trkpt lat="45.6998475" lon="10.1173825"><ele>329.0</ele><time>2026-04-25T15:12:47.946Z</time></trkpt><trkpt lat="45.7000464" lon="10.1175522"><ele>326.0</ele><time>2026-04-25T15:12:48.965Z</time></trkpt><trkpt lat="45.7002448" lon="10.1177235"><ele>323.0</ele><time>2026-04-25T15:12:49.966Z</time></trkpt><trkpt lat="45.7004364" lon="10.1178959"><ele>323.0</ele><time>2026-04-25T15:12:50.947Z</time></trkpt><trkpt lat="45.7006288" lon="10.1180755"><ele>323.0</ele><time>2026-04-25T15:12:51.946Z</time></trkpt><trkpt lat="45.7008285" lon="10.1182606"><ele>326.5</ele><time>2026-04-25T15:12:52.974Z</time></trkpt><trkpt lat="45.701021" lon="10.1184413"><ele>330.0</ele><time>2026-04-25T15:12:53.976Z</time></trkpt><trkpt lat="45.7012074" lon="10.1186122"><ele>330.0</ele><time>2026-04-25T15:12:54.929Z</time></trkpt><trkpt lat="45.701408" lon="10.1187991"><ele>330.0</ele><time>2026-04-25T15:12:55.97Z</time></trkpt><trkpt lat="45.7016047" lon="10.1189751"><ele>331.0</ele><time>2026-04-25T15:12:56.966Z</time></trkpt><trkpt lat="45.7018028" lon="10.1191516"><ele>332.0</ele><time>2026-04-25T15:12:57.969Z</time></trkpt><trkpt lat="45.702001" lon="10.1193292"><ele>332.0</ele><time>2026-04-25T15:12:58.972Z</time></trkpt><trkpt lat="45.7022016" lon="10.119499"><ele>332.0</ele><time>2026-04-25T15:12:59.955Z</time></trkpt><trkpt lat="45.70241" lon="10.1196687"><ele>332.0</ele><time>2026-04-25T15:13:00.965Z</time></trkpt><trkpt lat="45.7026214" lon="10.1198183"><ele>332.0</ele><time>2026-04-25T15:13:01.963Z</time></trkpt><trkpt lat="45.7028376" lon="10.1199618"><ele>336.0</ele><time>2026-04-25T15:13:02.979Z</time></trkpt><trkpt lat="45.7030502" lon="10.1200989"><ele>340.0</ele><time>2026-04-25T15:13:03.965Z</time></trkpt><trkpt lat="45.7032681" lon="10.1202342"><ele>340.0</ele><time>2026-04-25T15:13:04.964Z</time></trkpt><trkpt lat="45.7034775" lon="10.1203641"><ele>340.0</ele><time>2026-04-25T15:13:05.935Z</time></trkpt><trkpt lat="45.703695" lon="10.1204997"><ele>343.5</ele><time>2026-04-25T15:13:06.973Z</time></trkpt><trkpt lat="45.703907" lon="10.120629"><ele>347.0</ele><time>2026-04-25T15:13:07.967Z</time></trkpt><trkpt lat="45.7041168" lon="10.1207598"><ele>347.0</ele><time>2026-04-25T15:13:08.965Z</time></trkpt><trkpt lat="45.7043208" lon="10.1208875"><ele>347.0</ele><time>2026-04-25T15:13:09.967Z</time></trkpt><trkpt lat="45.7045197" lon="10.1210096"><ele>347.0</ele><time>2026-04-25T15:13:10.931Z</time></trkpt><trkpt lat="45.7047307" lon="10.1211267"><ele>342.0</ele><time>2026-04-25T15:13:11.959Z</time></trkpt><trkpt lat="45.7049404" lon="10.1212289"><ele>337.0</ele><time>2026-04-25T15:13:12.946Z</time></trkpt><trkpt lat="45.7051654" lon="10.1213194"><ele>336.66666666666663</ele><time>2026-04-25T15:13:13.969Z</time></trkpt><trkpt lat="45.7053846" lon="10.1213915"><ele>336.3333333333333</ele><time>2026-04-25T15:13:14.966Z</time></trkpt><trkpt lat="45.7056033" lon="10.1214482"><ele>336.0</ele><time>2026-04-25T15:13:15.964Z</time></trkpt><trkpt lat="45.7058153" lon="10.1214894"><ele>336.0</ele><time>2026-04-25T15:13:16.939Z</time></trkpt><trkpt lat="45.7060418" lon="10.1215174"><ele>336.0</ele><time>2026-04-25T15:13:17.964Z</time></trkpt><trkpt lat="45.7062641" lon="10.1215362"><ele>338.3333333333333</ele><time>2026-04-25T15:13:18.966Z</time></trkpt><trkpt lat="45.7064793" lon="10.1215461"><ele>340.66666666666663</ele><time>2026-04-25T15:13:19.946Z</time></trkpt><trkpt lat="45.7066957" lon="10.1215477"><ele>343.0</ele><time>2026-04-25T15:13:20.936Z</time></trkpt><trkpt lat="45.7069238" lon="10.1215466"><ele>343.3333333333333</ele><time>2026-04-25T15:13:21.967Z</time></trkpt><trkpt lat="45.7071455" lon="10.1215419"><ele>343.6666666666667</ele><time>2026-04-25T15:13:22.964Z</time></trkpt><trkpt lat="45.7073651" lon="10.1215445"><ele>344.0</ele><time>2026-04-25T15:13:23.95Z</time></trkpt><trkpt lat="45.7075862" lon="10.1215551"><ele>348.0</ele><time>2026-04-25T15:13:24.947Z</time></trkpt><trkpt lat="45.7078112" lon="10.1215761"><ele>352.0</ele><time>2026-04-25T15:13:25.963Z</time></trkpt><trkpt lat="45.7080251" lon="10.121609"><ele>356.0</ele><time>2026-04-25T15:13:26.936Z</time></trkpt><trkpt lat="45.7082445" lon="10.1216517"><ele>356.0</ele><time>2026-04-25T15:13:27.946Z</time></trkpt><trkpt lat="45.7084625" lon="10.1216942"><ele>356.0</ele><time>2026-04-25T15:13:28.964Z</time></trkpt><trkpt lat="45.7086784" lon="10.1217374"><ele>356.0</ele><time>2026-04-25T15:13:29.974Z</time></trkpt><trkpt lat="45.7088848" lon="10.1217864"><ele>356.0</ele><time>2026-04-25T15:13:30.938Z</time></trkpt><trkpt lat="45.7091024" lon="10.1218384"><ele>356.0</ele><time>2026-04-25T15:13:31.954Z</time></trkpt><trkpt lat="45.7093269" lon="10.1218905"><ele>356.0</ele><time>2026-04-25T15:13:32.978Z</time></trkpt><trkpt lat="45.7095465" lon="10.1219403"><ele>356.6666666666667</ele><time>2026-04-25T15:13:33.975Z</time></trkpt><trkpt lat="45.7097667" lon="10.1219868"><ele>357.3333333333333</ele><time>2026-04-25T15:13:34.965Z</time></trkpt><trkpt lat="45.7099859" lon="10.1220361"><ele>358.0</ele><time>2026-04-25T15:13:35.942Z</time></trkpt><trkpt lat="45.7102114" lon="10.1220875"><ele>360.5</ele><time>2026-04-25T15:13:36.949Z</time></trkpt><trkpt lat="45.7104378" lon="10.1221387"><ele>363.0</ele><time>2026-04-25T15:13:37.951Z</time></trkpt><trkpt lat="45.7106737" lon="10.1221867"><ele>363.0</ele><time>2026-04-25T15:13:38.976Z</time></trkpt><trkpt lat="45.7109016" lon="10.1222218"><ele>363.0</ele><time>2026-04-25T15:13:39.985Z</time></trkpt><trkpt lat="45.7111225" lon="10.1222449"><ele>365.5</ele><time>2026-04-25T15:13:40.97Z</time></trkpt><trkpt lat="45.7113442" lon="10.1222522"><ele>368.0</ele><time>2026-04-25T15:13:41.958Z</time></trkpt><trkpt lat="45.7115743" lon="10.1222353"><ele>368.0</ele><time>2026-04-25T15:13:42.964Z</time></trkpt><trkpt lat="45.7118002" lon="10.1222052"><ele>368.0</ele><time>2026-04-25T15:13:43.951Z</time></trkpt><trkpt lat="45.7120246" lon="10.1221539"><ele>368.33333333333337</ele><time>2026-04-25T15:13:44.972Z</time></trkpt><trkpt lat="45.7122326" lon="10.1220784"><ele>368.6666666666667</ele><time>2026-04-25T15:13:45.95Z</time></trkpt><trkpt lat="45.7124429" lon="10.1219902"><ele>369.0</ele><time>2026-04-25T15:13:46.946Z</time></trkpt><trkpt lat="45.7126534" lon="10.1218931"><ele>374.0</ele><time>2026-04-25T15:13:47.944Z</time></trkpt><trkpt lat="45.7128709" lon="10.1217843"><ele>379.0</ele><time>2026-04-25T15:13:48.975Z</time></trkpt><trkpt lat="45.7130788" lon="10.1216732"><ele>379.0</ele><time>2026-04-25T15:13:49.965Z</time></trkpt><trkpt lat="45.713286" lon="10.1215598"><ele>379.0</ele><time>2026-04-25T15:13:50.968Z</time></trkpt><trkpt lat="45.7134964" lon="10.1214472"><ele>379.0</ele><time>2026-04-25T15:13:51.969Z</time></trkpt><trkpt lat="45.7137042" lon="10.1213343"><ele>379.0</ele><time>2026-04-25T15:13:52.97Z</time></trkpt><trkpt lat="45.7139102" lon="10.1212204"><ele>379.0</ele><time>2026-04-25T15:13:53.965Z</time></trkpt><trkpt lat="45.7141101" lon="10.1211059"><ele>379.0</ele><time>2026-04-25T15:13:54.941Z</time></trkpt><trkpt lat="45.7143221" lon="10.1209861"><ele>379.0</ele><time>2026-04-25T15:13:55.972Z</time></trkpt><trkpt lat="45.7145225" lon="10.1208773"><ele>379.0</ele><time>2026-04-25T15:13:56.942Z</time></trkpt><trkpt lat="45.714732" lon="10.1207668"><ele>379.0</ele><time>2026-04-25T15:13:57.977Z</time></trkpt><trkpt lat="45.7149261" lon="10.1206605"><ele>379.0</ele><time>2026-04-25T15:13:58.976Z</time></trkpt><trkpt lat="45.7151129" lon="10.1205548"><ele>379.0</ele><time>2026-04-25T15:13:59.938Z</time></trkpt><trkpt lat="45.7153086" lon="10.1204428"><ele>379.0</ele><time>2026-04-25T15:14:00.936Z</time></trkpt><trkpt lat="45.7155155" lon="10.1203311"><ele>379.3333333333333</ele><time>2026-04-25T15:14:01.964Z</time></trkpt><trkpt lat="45.7157135" lon="10.120225"><ele>379.6666666666667</ele><time>2026-04-25T15:14:02.945Z</time></trkpt><trkpt lat="45.7159138" lon="10.1201161"><ele>380.0</ele><time>2026-04-25T15:14:03.945Z</time></trkpt><trkpt lat="45.7161194" lon="10.1200023"><ele>381.0</ele><time>2026-04-25T15:14:04.962Z</time></trkpt><trkpt lat="45.7163303" lon="10.1198875"><ele>382.0</ele><time>2026-04-25T15:14:05.992Z</time></trkpt><trkpt lat="45.7165227" lon="10.1197782"><ele>383.0</ele><time>2026-04-25T15:14:06.941Z</time></trkpt><trkpt lat="45.716793" lon="10.1196181"><ele>380.0</ele><time>2026-04-25T15:14:08.286Z</time></trkpt><trkpt lat="45.7169376" lon="10.1195296"><ele>377.0</ele><time>2026-04-25T15:14:08.997Z</time></trkpt><trkpt lat="45.7171551" lon="10.1193975"><ele>374.0</ele><time>2026-04-25T15:14:10.021Z</time></trkpt><trkpt lat="45.7173656" lon="10.1192684"><ele>374.0</ele><time>2026-04-25T15:14:11.039Z</time></trkpt><trkpt lat="45.717563" lon="10.1191486"><ele>374.0</ele><time>2026-04-25T15:14:11.999Z</time></trkpt><trkpt lat="45.7177657" lon="10.1190262"><ele>374.0</ele><time>2026-04-25T15:14:12.991Z</time></trkpt><trkpt lat="45.7179722" lon="10.1189062"><ele>380.6666666666667</ele><time>2026-04-25T15:14:13.989Z</time></trkpt><trkpt lat="45.7181814" lon="10.1187803"><ele>387.33333333333337</ele><time>2026-04-25T15:14:15.021Z</time></trkpt><trkpt lat="45.7183802" lon="10.1186653"><ele>394.0</ele><time>2026-04-25T15:14:16.008Z</time></trkpt><trkpt lat="45.7185785" lon="10.1185554"><ele>396.33333333333337</ele><time>2026-04-25T15:14:16.988Z</time></trkpt><trkpt lat="45.7187811" lon="10.1184381"><ele>398.66666666666663</ele><time>2026-04-25T15:14:17.998Z</time></trkpt><trkpt lat="45.7189895" lon="10.1183252"><ele>401.0</ele><time>2026-04-25T15:14:19.018Z</time></trkpt><trkpt lat="45.7191937" lon="10.1182174"><ele>397.66666666666663</ele><time>2026-04-25T15:14:19.995Z</time></trkpt><trkpt lat="45.7193993" lon="10.1181223"><ele>394.33333333333337</ele><time>2026-04-25T15:14:20.993Z</time></trkpt><trkpt lat="45.71959" lon="10.1180278"><ele>391.0</ele><time>2026-04-25T15:14:22.004Z</time></trkpt><trkpt lat="45.7197838" lon="10.1179233"><ele>391.0</ele><time>2026-04-25T15:14:22.991Z</time></trkpt><trkpt lat="45.7199722" lon="10.1178228"><ele>391.0</ele><time>2026-04-25T15:14:23.996Z</time></trkpt><trkpt lat="45.7201601" lon="10.1177173"><ele>391.0</ele><time>2026-04-25T15:14:24.938Z</time></trkpt><trkpt lat="45.7203407" lon="10.1176158"><ele>395.0</ele><time>2026-04-25T15:14:25.895Z</time></trkpt><trkpt lat="45.7205443" lon="10.1175073"><ele>399.0</ele><time>2026-04-25T15:14:26.88Z</time></trkpt><trkpt lat="45.7207444" lon="10.1174076"><ele>403.0</ele><time>2026-04-25T15:14:27.866Z</time></trkpt><trkpt lat="45.7209042" lon="10.1173228"><ele>394.0</ele><time>2026-04-25T15:14:28.88Z</time></trkpt><trkpt lat="45.7179246" lon="10.1189318"><ele>321.0</ele><time>2026-04-25T15:14:29.841Z</time></trkpt><trkpt lat="45.7355381" lon="10.1049105"><ele>321.0</ele><time>2026-04-25T15:16:09.812Z</time></trkpt><trkpt lat="45.7356453" lon="10.1047139"><ele>321.0</ele><time>2026-04-25T15:16:10.812Z</time></trkpt><trkpt lat="45.7357469" lon="10.1045184"><ele>321.0</ele><time>2026-04-25T15:16:11.811Z</time></trkpt><trkpt lat="45.7354315" lon="10.1076131"><ele>352.0</ele><time>2026-04-25T15:16:14Z</time></trkpt><trkpt lat="45.7345635" lon="10.1051061"><ele>352.0</ele><time>2026-04-25T15:16:15.036Z</time></trkpt><trkpt lat="45.7343414" lon="10.1051573"><ele>352.0</ele><time>2026-04-25T15:16:16.043Z</time></trkpt><trkpt lat="45.7344431" lon="10.1049958"><ele>352.0</ele><time>2026-04-25T15:16:16.966Z</time></trkpt><trkpt lat="45.7345868" lon="10.1047642"><ele>333.0</ele><time>2026-04-25T15:16:18.303Z</time></trkpt><trkpt lat="45.7349651" lon="10.1043916"><ele>333.0</ele><time>2026-04-25T15:16:19.997Z</time></trkpt><trkpt lat="45.73512" lon="10.1042322"><ele>333.0</ele><time>2026-04-25T15:16:20.986Z</time></trkpt><trkpt lat="45.7352834" lon="10.1040797"><ele>333.0</ele><time>2026-04-25T15:16:22.021Z</time></trkpt><trkpt lat="45.7354465" lon="10.1039368"><ele>325.6666666666667</ele><time>2026-04-25T15:16:23.024Z</time></trkpt><trkpt lat="45.735609" lon="10.103811"><ele>318.33333333333337</ele><time>2026-04-25T15:16:23.997Z</time></trkpt><trkpt lat="45.7357813" lon="10.1036945"><ele>311.0</ele><time>2026-04-25T15:16:24.995Z</time></trkpt><trkpt lat="45.7359518" lon="10.1035944"><ele>313.0</ele><time>2026-04-25T15:16:26.032Z</time></trkpt><trkpt lat="45.736229" lon="10.103424"><ele>315.0</ele><time>2026-04-25T15:16:27.015Z</time></trkpt><trkpt lat="45.7367262" lon="10.1031167"><ele>330.0</ele><time>2026-04-25T15:16:28.003Z</time></trkpt><trkpt lat="45.7377008" lon="10.1024479"><ele>333.0</ele><time>2026-04-25T15:16:29.008Z</time></trkpt><trkpt lat="45.7384353" lon="10.1019017"><ele>336.0</ele><time>2026-04-25T15:16:30.022Z</time></trkpt><trkpt lat="45.7387678" lon="10.1015771"><ele>339.0</ele><time>2026-04-25T15:16:31.009Z</time></trkpt><trkpt lat="45.7388312" lon="10.1015745"><ele>339.0</ele><time>2026-04-25T15:16:32.018Z</time></trkpt><trkpt lat="45.7389086" lon="10.101525"><ele>339.0</ele><time>2026-04-25T15:16:34Z</time></trkpt><trkpt lat="45.7390606" lon="10.1014102"><ele>339.0</ele><time>2026-04-25T15:16:34.973Z</time></trkpt><trkpt lat="45.7391938" lon="10.1012603"><ele>339.0</ele><time>2026-04-25T15:16:35.985Z</time></trkpt><trkpt lat="45.7393426" lon="10.1010399"><ele>197.0</ele><time>2026-04-25T15:16:36.995Z</time></trkpt><trkpt lat="45.7574025" lon="10.0790926"><ele>197.0</ele><time>2026-04-25T15:18:50.813Z</time></trkpt><trkpt lat="45.7575548" lon="10.0789219"><ele>197.0</ele><time>2026-04-25T15:18:51.813Z</time></trkpt><trkpt lat="45.757704" lon="10.0787328"><ele>197.0</ele><time>2026-04-25T15:18:52.817Z</time></trkpt><trkpt lat="45.757844" lon="10.0785351"><ele>203.5</ele><time>2026-04-25T15:18:53.814Z</time></trkpt><trkpt lat="45.758118" lon="10.078204"><ele>210.0</ele><time>2026-04-25T15:18:56.029Z</time></trkpt><trkpt lat="45.7583408" lon="10.0779354"><ele>210.0</ele><time>2026-04-25T15:18:57.04Z</time></trkpt><trkpt lat="45.7585296" lon="10.0776809"><ele>210.0</ele><time>2026-04-25T15:18:58.012Z</time></trkpt><trkpt lat="45.758662" lon="10.0774556"><ele>220.33333333333331</ele><time>2026-04-25T15:18:59.005Z</time></trkpt><trkpt lat="45.7587818" lon="10.0772065"><ele>230.66666666666666</ele><time>2026-04-25T15:19:00.027Z</time></trkpt><trkpt lat="45.7589028" lon="10.0769278"><ele>241.0</ele><time>2026-04-25T15:19:01.004Z</time></trkpt><trkpt lat="45.759004" lon="10.0766765"><ele>231.66666666666666</ele><time>2026-04-25T15:19:02.004Z</time></trkpt><trkpt lat="45.7591027" lon="10.0764198"><ele>222.33333333333331</ele><time>2026-04-25T15:19:03.028Z</time></trkpt><trkpt lat="45.7591959" lon="10.0761492"><ele>213.0</ele><time>2026-04-25T15:19:04.001Z</time></trkpt><trkpt lat="45.7592879" lon="10.0758789"><ele>208.66666666666669</ele><time>2026-04-25T15:19:05.005Z</time></trkpt><trkpt lat="45.7593994" lon="10.0756522"><ele>204.33333333333334</ele><time>2026-04-25T15:19:05.991Z</time></trkpt><trkpt lat="45.7595218" lon="10.0756387"><ele>200.0</ele><time>2026-04-25T15:19:06.999Z</time></trkpt><trkpt lat="45.759675" lon="10.0755735"><ele>200.0</ele><time>2026-04-25T15:19:08.002Z</time></trkpt><trkpt lat="45.7597712" lon="10.0754882"><ele>200.0</ele><time>2026-04-25T15:19:08.99Z</time></trkpt><trkpt lat="45.7598688" lon="10.0753784"><ele>200.0</ele><time>2026-04-25T15:19:09.978Z</time></trkpt><trkpt lat="45.7599731" lon="10.0752254"><ele>200.0</ele><time>2026-04-25T15:19:10.981Z</time></trkpt><trkpt lat="45.7603114" lon="10.0746991"><ele>187.0</ele><time>2026-04-25T15:19:11.979Z</time></trkpt><trkpt lat="45.7607792" lon="10.074766"><ele>199.33333333333334</ele><time>2026-04-25T15:19:12.977Z</time></trkpt><trkpt lat="45.7609741" lon="10.074964"><ele>211.66666666666669</ele><time>2026-04-25T15:19:14.005Z</time></trkpt><trkpt lat="45.7611627" lon="10.0749747"><ele>224.0</ele><time>2026-04-25T15:19:15.027Z</time></trkpt><trkpt lat="45.7612817" lon="10.0749508"><ele>219.66666666666669</ele><time>2026-04-25T15:19:15.976Z</time></trkpt><trkpt lat="45.7613965" lon="10.0748159"><ele>215.33333333333331</ele><time>2026-04-25T15:19:16.992Z</time></trkpt><trkpt lat="45.7616491" lon="10.0747018"><ele>211.0</ele><time>2026-04-25T15:19:18.006Z</time></trkpt><trkpt lat="45.7619588" lon="10.0746072"><ele>224.0</ele><time>2026-04-25T15:19:19.022Z</time></trkpt><trkpt lat="45.7606004" lon="10.0750189"><ele>240.0</ele><time>2026-04-25T15:19:19.924Z</time></trkpt><trkpt lat="45.7629769" lon="10.0742505"><ele>240.0</ele><time>2026-04-25T15:19:22.815Z</time></trkpt><trkpt lat="45.7631552" lon="10.0741607"><ele>240.0</ele><time>2026-04-25T15:19:23.815Z</time></trkpt><trkpt lat="45.7633358" lon="10.0740801"><ele>240.0</ele><time>2026-04-25T15:19:24.815Z</time></trkpt><trkpt lat="45.7636144" lon="10.0739554"><ele>242.0</ele><time>2026-04-25T15:19:27.005Z</time></trkpt><trkpt lat="45.7638516" lon="10.0738385"><ele>244.0</ele><time>2026-04-25T15:19:28.007Z</time></trkpt><trkpt lat="45.7640003" lon="10.0737742"><ele>246.0</ele><time>2026-04-25T15:19:28.992Z</time></trkpt><trkpt lat="45.7641117" lon="10.0737241"><ele>246.0</ele><time>2026-04-25T15:19:29.981Z</time></trkpt><trkpt lat="45.7642317" lon="10.0736677"><ele>246.0</ele><time>2026-04-25T15:19:30.999Z</time></trkpt><trkpt lat="45.76438" lon="10.0736652"><ele>246.0</ele><time>2026-04-25T15:19:32.021Z</time></trkpt><trkpt lat="45.7645209" lon="10.0736838"><ele>246.0</ele><time>2026-04-25T15:19:33.039Z</time></trkpt><trkpt lat="45.7646479" lon="10.0736765"><ele>235.5</ele><time>2026-04-25T15:19:34.034Z</time></trkpt><trkpt lat="45.7647644" lon="10.0736601"><ele>225.0</ele><time>2026-04-25T15:19:34.996Z</time></trkpt><trkpt lat="45.7649111" lon="10.0736629"><ele>214.5</ele><time>2026-04-25T15:19:36.002Z</time></trkpt><trkpt lat="45.7650305" lon="10.0736752"><ele>204.0</ele><time>2026-04-25T15:19:37Z</time></trkpt><trkpt lat="45.7635022" lon="10.0740101"><ele>252.0</ele><time>2026-04-25T15:19:38.844Z</time></trkpt><trkpt lat="45.7686475" lon="10.0697778"><ele>252.0</ele><time>2026-04-25T15:20:06.816Z</time></trkpt><trkpt lat="45.7687085" lon="10.0696234"><ele>252.0</ele><time>2026-04-25T15:20:07.815Z</time></trkpt><trkpt lat="45.7687923" lon="10.0694918"><ele>252.0</ele><time>2026-04-25T15:20:08.816Z</time></trkpt><trkpt lat="45.7688883" lon="10.0693813"><ele>252.0</ele><time>2026-04-25T15:20:09.815Z</time></trkpt><trkpt lat="45.7690724" lon="10.0692194"><ele>252.0</ele><time>2026-04-25T15:20:11.991Z</time></trkpt><trkpt lat="45.7692178" lon="10.0691139"><ele>252.0</ele><time>2026-04-25T15:20:13Z</time></trkpt><trkpt lat="45.7693541" lon="10.0690308"><ele>252.0</ele><time>2026-04-25T15:20:14.002Z</time></trkpt><trkpt lat="45.7694653" lon="10.0689754"><ele>252.0</ele><time>2026-04-25T15:20:14.995Z</time></trkpt><trkpt lat="45.7695868" lon="10.0689249"><ele>248.0</ele><time>2026-04-25T15:20:16.035Z</time></trkpt><trkpt lat="45.7697098" lon="10.0688837"><ele>244.0</ele><time>2026-04-25T15:20:17.032Z</time></trkpt><trkpt lat="45.7698265" lon="10.0688461"><ele>240.0</ele><time>2026-04-25T15:20:18.009Z</time></trkpt><trkpt lat="45.7699438" lon="10.0688051"><ele>236.0</ele><time>2026-04-25T15:20:19.026Z</time></trkpt><trkpt lat="45.7700609" lon="10.0687661"><ele>236.0</ele><time>2026-04-25T15:20:20.047Z</time></trkpt><trkpt lat="45.7701715" lon="10.0687357"><ele>236.0</ele><time>2026-04-25T15:20:21.005Z</time></trkpt><trkpt lat="45.7702894" lon="10.0687071"><ele>236.0</ele><time>2026-04-25T15:20:22.016Z</time></trkpt><trkpt lat="45.7704079" lon="10.0686818"><ele>236.0</ele><time>2026-04-25T15:20:23.015Z</time></trkpt><trkpt lat="45.7705292" lon="10.0686595"><ele>236.5</ele><time>2026-04-25T15:20:24.033Z</time></trkpt><trkpt lat="45.7706467" lon="10.0686443"><ele>237.0</ele><time>2026-04-25T15:20:25.001Z</time></trkpt><trkpt lat="45.7707726" lon="10.0686365"><ele>237.5</ele><time>2026-04-25T15:20:26.028Z</time></trkpt><trkpt lat="45.7708959" lon="10.0686354"><ele>238.0</ele><time>2026-04-25T15:20:27.014Z</time></trkpt><trkpt lat="45.771027" lon="10.0686401"><ele>239.75</ele><time>2026-04-25T15:20:28.044Z</time></trkpt><trkpt lat="45.7711542" lon="10.0686495"><ele>241.5</ele><time>2026-04-25T15:20:29.029Z</time></trkpt><trkpt lat="45.7712915" lon="10.0686668"><ele>243.25</ele><time>2026-04-25T15:20:30.059Z</time></trkpt><trkpt lat="45.7714228" lon="10.0686894"><ele>245.0</ele><time>2026-04-25T15:20:31.031Z</time></trkpt><trkpt lat="45.7715596" lon="10.0687186"><ele>245.0</ele><time>2026-04-25T15:20:32.033Z</time></trkpt><trkpt lat="45.77169" lon="10.0687495"><ele>245.0</ele><time>2026-04-25T15:20:32.996Z</time></trkpt><trkpt lat="45.77182" lon="10.0687834"><ele>245.0</ele><time>2026-04-25T15:20:34.014Z</time></trkpt><trkpt lat="45.771951" lon="10.0688221"><ele>245.0</ele><time>2026-04-25T15:20:35.017Z</time></trkpt><trkpt lat="45.7720818" lon="10.0688686"><ele>251.33333333333334</ele><time>2026-04-25T15:20:36.005Z</time></trkpt><trkpt lat="45.7722709" lon="10.0689243"><ele>257.6666666666667</ele><time>2026-04-25T15:20:37.012Z</time></trkpt><trkpt lat="45.7724032" lon="10.0689496"><ele>264.0</ele><time>2026-04-25T15:20:38.009Z</time></trkpt><trkpt lat="45.772579" lon="10.0689496"><ele>249.0</ele><time>2026-04-25T15:20:39.006Z</time></trkpt><trkpt lat="45.7727341" lon="10.0689822"><ele>234.0</ele><time>2026-04-25T15:20:39.995Z</time></trkpt><trkpt lat="45.7728918" lon="10.0690178"><ele>219.0</ele><time>2026-04-25T15:20:41.007Z</time></trkpt><trkpt lat="45.7730436" lon="10.0690821"><ele>245.0</ele><time>2026-04-25T15:20:42.016Z</time></trkpt><trkpt lat="45.7731871" lon="10.0691374"><ele>271.0</ele><time>2026-04-25T15:20:43.015Z</time></trkpt><trkpt lat="45.7733428" lon="10.0691771"><ele>297.0</ele><time>2026-04-25T15:20:44.014Z</time></trkpt><trkpt lat="45.7735076" lon="10.0692358"><ele>288.3333333333333</ele><time>2026-04-25T15:20:45.013Z</time></trkpt><trkpt lat="45.7736726" lon="10.0692683"><ele>279.66666666666663</ele><time>2026-04-25T15:20:46.014Z</time></trkpt><trkpt lat="45.7738384" lon="10.0692761"><ele>271.0</ele><time>2026-04-25T15:20:47.029Z</time></trkpt><trkpt lat="45.7740274" lon="10.0693165"><ele>271.0</ele><time>2026-04-25T15:20:48.033Z</time></trkpt><trkpt lat="45.774158" lon="10.069343"><ele>271.0</ele><time>2026-04-25T15:20:49.001Z</time></trkpt><trkpt lat="45.774313" lon="10.0693686"><ele>271.0</ele><time>2026-04-25T15:20:49.999Z</time></trkpt><trkpt lat="45.7747158" lon="10.0693617"><ele>219.0</ele><time>2026-04-25T15:20:52.91Z</time></trkpt><trkpt lat="45.7731743" lon="10.0690965"><ele>195.0</ele><time>2026-04-25T15:20:53.839Z</time></trkpt><trkpt lat="45.7837104" lon="10.0794325"><ele>195.0</ele><time>2026-04-25T15:22:08.818Z</time></trkpt><trkpt lat="45.7837268" lon="10.0796507"><ele>195.0</ele><time>2026-04-25T15:22:09.817Z</time></trkpt><trkpt lat="45.7837574" lon="10.0798587"><ele>195.0</ele><time>2026-04-25T15:22:10.818Z</time></trkpt><trkpt lat="45.7838043" lon="10.0802093"><ele>194.66666666666669</ele><time>2026-04-25T15:22:13.028Z</time></trkpt><trkpt lat="45.7838762" lon="10.0804683"><ele>194.33333333333334</ele><time>2026-04-25T15:22:14.039Z</time></trkpt><trkpt lat="45.7839657" lon="10.0806999"><ele>194.0</ele><time>2026-04-25T15:22:15.029Z</time></trkpt><trkpt lat="45.7840574" lon="10.0808828"><ele>194.0</ele><time>2026-04-25T15:22:16.038Z</time></trkpt><trkpt lat="45.7841569" lon="10.0810569"><ele>194.0</ele><time>2026-04-25T15:22:17.018Z</time></trkpt><trkpt lat="45.7842627" lon="10.081234"><ele>194.0</ele><time>2026-04-25T15:22:18.046Z</time></trkpt><trkpt lat="45.7843622" lon="10.0813992"><ele>191.75</ele><time>2026-04-25T15:22:19.036Z</time></trkpt><trkpt lat="45.7844587" lon="10.0815627"><ele>189.5</ele><time>2026-04-25T15:22:20.035Z</time></trkpt><trkpt lat="45.7845496" lon="10.081719"><ele>187.25</ele><time>2026-04-25T15:22:21.008Z</time></trkpt><trkpt lat="45.7846339" lon="10.0818789"><ele>185.0</ele><time>2026-04-25T15:22:22.003Z</time></trkpt><trkpt lat="45.7847124" lon="10.082045"><ele>185.0</ele><time>2026-04-25T15:22:23.004Z</time></trkpt><trkpt lat="45.7847853" lon="10.082219"><ele>185.0</ele><time>2026-04-25T15:22:24.014Z</time></trkpt><trkpt lat="45.7848528" lon="10.0824024"><ele>185.0</ele><time>2026-04-25T15:22:25.016Z</time></trkpt><trkpt lat="45.7849148" lon="10.0825942"><ele>185.0</ele><time>2026-04-25T15:22:26.01Z</time></trkpt><trkpt lat="45.7849747" lon="10.0827991"><ele>186.66666666666666</ele><time>2026-04-25T15:22:27.011Z</time></trkpt><trkpt lat="45.7850281" lon="10.0830154"><ele>188.33333333333334</ele><time>2026-04-25T15:22:28.021Z</time></trkpt><trkpt lat="45.7850808" lon="10.0832366"><ele>190.0</ele><time>2026-04-25T15:22:29.027Z</time></trkpt><trkpt lat="45.7851316" lon="10.0834528"><ele>187.33333333333334</ele><time>2026-04-25T15:22:30.017Z</time></trkpt><trkpt lat="45.7851891" lon="10.0836592"><ele>184.66666666666666</ele><time>2026-04-25T15:22:31.007Z</time></trkpt><trkpt lat="45.7852583" lon="10.083858"><ele>182.0</ele><time>2026-04-25T15:22:32.019Z</time></trkpt><trkpt lat="45.7853368" lon="10.0840485"><ele>182.25</ele><time>2026-04-25T15:22:33.033Z</time></trkpt><trkpt lat="45.7854208" lon="10.0842313"><ele>182.5</ele><time>2026-04-25T15:22:34.023Z</time></trkpt><trkpt lat="45.7855054" lon="10.0844052"><ele>182.75</ele><time>2026-04-25T15:22:35.005Z</time></trkpt><trkpt lat="45.7855888" lon="10.0845775"><ele>183.0</ele><time>2026-04-25T15:22:36.029Z</time></trkpt><trkpt lat="45.7856614" lon="10.0847455"><ele>185.0</ele><time>2026-04-25T15:22:37.006Z</time></trkpt><trkpt lat="45.7857276" lon="10.0849317"><ele>187.0</ele><time>2026-04-25T15:22:38.011Z</time></trkpt><trkpt lat="45.7857884" lon="10.0851346"><ele>189.0</ele><time>2026-04-25T15:22:39.037Z</time></trkpt><trkpt lat="45.7858389" lon="10.0853421"><ele>189.0</ele><time>2026-04-25T15:22:40.028Z</time></trkpt><trkpt lat="45.78588" lon="10.0855601"><ele>189.0</ele><time>2026-04-25T15:22:41.015Z</time></trkpt><trkpt lat="45.7859364" lon="10.0857991"><ele>189.0</ele><time>2026-04-25T15:22:42.013Z</time></trkpt><trkpt lat="45.7859549" lon="10.0860364"><ele>191.33333333333331</ele><time>2026-04-25T15:22:43.004Z</time></trkpt><trkpt lat="45.7859699" lon="10.0862907"><ele>193.66666666666666</ele><time>2026-04-25T15:22:44.012Z</time></trkpt><trkpt lat="45.7859929" lon="10.0865318"><ele>196.0</ele><time>2026-04-25T15:22:45.035Z</time></trkpt><trkpt lat="45.7860098" lon="10.0867669"><ele>196.33333333333331</ele><time>2026-04-25T15:22:46.035Z</time></trkpt><trkpt lat="45.7860273" lon="10.0870046"><ele>196.66666666666669</ele><time>2026-04-25T15:22:47.029Z</time></trkpt><trkpt lat="45.7860462" lon="10.0872286"><ele>197.0</ele><time>2026-04-25T15:22:48.022Z</time></trkpt><trkpt lat="45.7860535" lon="10.0874484"><ele>197.0</ele><time>2026-04-25T15:22:49.034Z</time></trkpt><trkpt lat="45.7860734" lon="10.0876766"><ele>197.0</ele><time>2026-04-25T15:22:50Z</time></trkpt><trkpt lat="45.7860994" lon="10.0879199"><ele>197.0</ele><time>2026-04-25T15:22:51.025Z</time></trkpt><trkpt lat="45.7861276" lon="10.088163"><ele>199.75</ele><time>2026-04-25T15:22:52.002Z</time></trkpt><trkpt lat="45.7861561" lon="10.088386"><ele>202.5</ele><time>2026-04-25T15:22:52.986Z</time></trkpt><trkpt lat="45.7861847" lon="10.0886004"><ele>205.25</ele><time>2026-04-25T15:22:54.004Z</time></trkpt><trkpt lat="45.7862176" lon="10.0887886"><ele>208.0</ele><time>2026-04-25T15:22:54.999Z</time></trkpt><trkpt lat="45.7862532" lon="10.0890054"><ele>210.66666666666666</ele><time>2026-04-25T15:22:55.99Z</time></trkpt><trkpt lat="45.7862988" lon="10.089221"><ele>213.33333333333331</ele><time>2026-04-25T15:22:56.981Z</time></trkpt><trkpt lat="45.786346" lon="10.089419"><ele>216.0</ele><time>2026-04-25T15:22:57.995Z</time></trkpt><trkpt lat="45.7864091" lon="10.0896706"><ele>216.0</ele><time>2026-04-25T15:22:58.917Z</time></trkpt><trkpt lat="45.7864649" lon="10.0898718"><ele>216.0</ele><time>2026-04-25T15:22:59.877Z</time></trkpt><trkpt lat="45.7860369" lon="10.0871676"><ele>199.0</ele><time>2026-04-25T15:23:00.83Z</time></trkpt><trkpt lat="45.8170335" lon="10.1215037"><ele>199.0</ele><time>2026-04-25T15:26:39.821Z</time></trkpt><trkpt lat="45.8172023" lon="10.1214678"><ele>199.0</ele><time>2026-04-25T15:26:40.822Z</time></trkpt><trkpt lat="45.8173698" lon="10.1214199"><ele>199.0</ele><time>2026-04-25T15:26:41.822Z</time></trkpt><trkpt lat="45.8176465" lon="10.1213667"><ele>197.33333333333331</ele><time>2026-04-25T15:26:44.041Z</time></trkpt><trkpt lat="45.817865" lon="10.1213245"><ele>195.66666666666669</ele><time>2026-04-25T15:26:45.044Z</time></trkpt><trkpt lat="45.8180794" lon="10.1212831"><ele>194.0</ele><time>2026-04-25T15:26:46.036Z</time></trkpt><trkpt lat="45.8182581" lon="10.1212426"><ele>194.0</ele><time>2026-04-25T15:26:47.027Z</time></trkpt><trkpt lat="45.818443" lon="10.1211965"><ele>194.0</ele><time>2026-04-25T15:26:48.023Z</time></trkpt><trkpt lat="45.8186337" lon="10.121151"><ele>194.0</ele><time>2026-04-25T15:26:49.033Z</time></trkpt><trkpt lat="45.8188314" lon="10.1211086"><ele>193.66666666666669</ele><time>2026-04-25T15:26:50.055Z</time></trkpt><trkpt lat="45.8190187" lon="10.121068"><ele>193.33333333333331</ele><time>2026-04-25T15:26:51.01Z</time></trkpt><trkpt lat="45.8192235" lon="10.1210248"><ele>193.0</ele><time>2026-04-25T15:26:52.034Z</time></trkpt><trkpt lat="45.819421" lon="10.1209834"><ele>192.66666666666666</ele><time>2026-04-25T15:26:53.019Z</time></trkpt><trkpt lat="45.8196296" lon="10.1209362"><ele>192.33333333333331</ele><time>2026-04-25T15:26:54.034Z</time></trkpt><trkpt lat="45.8198437" lon="10.120884"><ele>192.0</ele><time>2026-04-25T15:26:55.043Z</time></trkpt><trkpt lat="45.8200622" lon="10.1208332"><ele>191.0</ele><time>2026-04-25T15:26:56.053Z</time></trkpt><trkpt lat="45.8202774" lon="10.1207842"><ele>190.0</ele><time>2026-04-25T15:26:57.018Z</time></trkpt><trkpt lat="45.8205102" lon="10.1207312"><ele>190.0</ele><time>2026-04-25T15:26:58.045Z</time></trkpt><trkpt lat="45.82074" lon="10.1206811"><ele>190.0</ele><time>2026-04-25T15:26:59.053Z</time></trkpt><trkpt lat="45.8209542" lon="10.1206326"><ele>190.0</ele><time>2026-04-25T15:27:00.034Z</time></trkpt><trkpt lat="45.8211623" lon="10.1205859"><ele>190.0</ele><time>2026-04-25T15:27:01.031Z</time></trkpt><trkpt lat="45.8213627" lon="10.1205441"><ele>190.0</ele><time>2026-04-25T15:27:02.016Z</time></trkpt><trkpt lat="45.8215655" lon="10.1205011"><ele>190.0</ele><time>2026-04-25T15:27:03.012Z</time></trkpt><trkpt lat="45.8217707" lon="10.1204556"><ele>189.33333333333334</ele><time>2026-04-25T15:27:04.012Z</time></trkpt><trkpt lat="45.8219774" lon="10.1204079"><ele>188.66666666666666</ele><time>2026-04-25T15:27:05.018Z</time></trkpt><trkpt lat="45.8221734" lon="10.120361"><ele>188.0</ele><time>2026-04-25T15:27:06.003Z</time></trkpt><trkpt lat="45.822369" lon="10.1203159"><ele>188.0</ele><time>2026-04-25T15:27:07.017Z</time></trkpt><trkpt lat="45.822558" lon="10.1202756"><ele>188.0</ele><time>2026-04-25T15:27:08.034Z</time></trkpt><trkpt lat="45.82274" lon="10.1202379"><ele>188.0</ele><time>2026-04-25T15:27:09.016Z</time></trkpt><trkpt lat="45.8229259" lon="10.1201964"><ele>188.66666666666666</ele><time>2026-04-25T15:27:10.013Z</time></trkpt><trkpt lat="45.8231157" lon="10.1201518"><ele>189.33333333333334</ele><time>2026-04-25T15:27:11.025Z</time></trkpt><trkpt lat="45.8233001" lon="10.1201099"><ele>190.0</ele><time>2026-04-25T15:27:11.996Z</time></trkpt><trkpt lat="45.8234926" lon="10.1200682"><ele>190.0</ele><time>2026-04-25T15:27:13.013Z</time></trkpt><trkpt lat="45.8236808" lon="10.1200344"><ele>190.0</ele><time>2026-04-25T15:27:14.013Z</time></trkpt><trkpt lat="45.8238704" lon="10.12001"><ele>190.0</ele><time>2026-04-25T15:27:15.02Z</time></trkpt><trkpt lat="45.8240564" lon="10.1199983"><ele>190.0</ele><time>2026-04-25T15:27:16.007Z</time></trkpt><trkpt lat="45.8242472" lon="10.1199989"><ele>190.0</ele><time>2026-04-25T15:27:17.012Z</time></trkpt><trkpt lat="45.824438" lon="10.1200113"><ele>190.0</ele><time>2026-04-25T15:27:18.013Z</time></trkpt><trkpt lat="45.8246347" lon="10.1200334"><ele>190.0</ele><time>2026-04-25T15:27:19.036Z</time></trkpt><trkpt lat="45.8248241" lon="10.1200637"><ele>190.0</ele><time>2026-04-25T15:27:20.013Z</time></trkpt><trkpt lat="45.8250191" lon="10.1201039"><ele>190.0</ele><time>2026-04-25T15:27:21.016Z</time></trkpt><trkpt lat="45.825221" lon="10.1201552"><ele>190.66666666666669</ele><time>2026-04-25T15:27:22.043Z</time></trkpt><trkpt lat="45.8254089" lon="10.1202152"><ele>191.33333333333334</ele><time>2026-04-25T15:27:22.995Z</time></trkpt><trkpt lat="45.825616" lon="10.1202933"><ele>192.0</ele><time>2026-04-25T15:27:24.035Z</time></trkpt><trkpt lat="45.8258164" lon="10.1203738"><ele>192.0</ele><time>2026-04-25T15:27:25.035Z</time></trkpt><trkpt lat="45.8260132" lon="10.1204593"><ele>192.0</ele><time>2026-04-25T15:27:26.012Z</time></trkpt><trkpt lat="45.8262132" lon="10.1205487"><ele>192.0</ele><time>2026-04-25T15:27:27.026Z</time></trkpt><trkpt lat="45.8263971" lon="10.1206322"><ele>192.0</ele><time>2026-04-25T15:27:28.007Z</time></trkpt><trkpt lat="45.8265781" lon="10.1207149"><ele>192.0</ele><time>2026-04-25T15:27:29.009Z</time></trkpt><trkpt lat="45.8267579" lon="10.1207962"><ele>192.0</ele><time>2026-04-25T15:27:30.009Z</time></trkpt><trkpt lat="45.8269459" lon="10.1208817"><ele>192.0</ele><time>2026-04-25T15:27:31.047Z</time></trkpt><trkpt lat="45.8271194" lon="10.12096"><ele>192.0</ele><time>2026-04-25T15:27:32.03Z</time></trkpt><trkpt lat="45.8272919" lon="10.1210375"><ele>192.0</ele><time>2026-04-25T15:27:33.006Z</time></trkpt><trkpt lat="45.8274743" lon="10.1211213"><ele>191.0</ele><time>2026-04-25T15:27:34.03Z</time></trkpt><trkpt lat="45.8276485" lon="10.1211992"><ele>190.0</ele><time>2026-04-25T15:27:35Z</time></trkpt><trkpt lat="45.8278294" lon="10.1212782"><ele>189.0</ele><time>2026-04-25T15:27:36.009Z</time></trkpt><trkpt lat="45.8280159" lon="10.1213604"><ele>189.0</ele><time>2026-04-25T15:27:37.039Z</time></trkpt><trkpt lat="45.8281943" lon="10.1214389"><ele>189.0</ele><time>2026-04-25T15:27:38.047Z</time></trkpt><trkpt lat="45.8283716" lon="10.1215162"><ele>189.0</ele><time>2026-04-25T15:27:39.045Z</time></trkpt><trkpt lat="45.828543" lon="10.1215929"><ele>189.0</ele><time>2026-04-25T15:27:40.02Z</time></trkpt><trkpt lat="45.8287217" lon="10.1216742"><ele>189.0</ele><time>2026-04-25T15:27:41.028Z</time></trkpt><trkpt lat="45.8289036" lon="10.1217567"><ele>189.0</ele><time>2026-04-25T15:27:42.04Z</time></trkpt><trkpt lat="45.8290874" lon="10.1218407"><ele>189.0</ele><time>2026-04-25T15:27:43.049Z</time></trkpt><trkpt lat="45.8292703" lon="10.1219228"><ele>189.0</ele><time>2026-04-25T15:27:44.032Z</time></trkpt><trkpt lat="45.8294584" lon="10.1220078"><ele>189.0</ele><time>2026-04-25T15:27:45.03Z</time></trkpt><trkpt lat="45.8296445" lon="10.1220952"><ele>190.0</ele><time>2026-04-25T15:27:46.008Z</time></trkpt><trkpt lat="45.8298438" lon="10.1221879"><ele>191.0</ele><time>2026-04-25T15:27:47.038Z</time></trkpt><trkpt lat="45.8300395" lon="10.1222763"><ele>192.0</ele><time>2026-04-25T15:27:48.032Z</time></trkpt><trkpt lat="45.8302297" lon="10.122361"><ele>192.33333333333331</ele><time>2026-04-25T15:27:48.988Z</time></trkpt><trkpt lat="45.8304247" lon="10.1224487"><ele>192.66666666666666</ele><time>2026-04-25T15:27:49.954Z</time></trkpt><trkpt lat="45.8306276" lon="10.122536"><ele>193.0</ele><time>2026-04-25T15:27:50.96Z</time></trkpt><trkpt lat="45.8308253" lon="10.1226212"><ele>193.0</ele><time>2026-04-25T15:27:51.949Z</time></trkpt><trkpt lat="45.8310264" lon="10.1227075"><ele>193.0</ele><time>2026-04-25T15:27:52.952Z</time></trkpt><trkpt lat="45.8312368" lon="10.122799"><ele>193.0</ele><time>2026-04-25T15:27:53.984Z</time></trkpt><trkpt lat="45.8314377" lon="10.1228893"><ele>193.0</ele><time>2026-04-25T15:27:54.994Z</time></trkpt><trkpt lat="45.8316311" lon="10.1229772"><ele>193.0</ele><time>2026-04-25T15:27:55.988Z</time></trkpt><trkpt lat="45.8318167" lon="10.1230581"><ele>193.0</ele><time>2026-04-25T15:27:56.953Z</time></trkpt><trkpt lat="45.8320087" lon="10.1231433"><ele>193.0</ele><time>2026-04-25T15:27:57.957Z</time></trkpt><trkpt lat="45.8322009" lon="10.123227"><ele>193.0</ele><time>2026-04-25T15:27:58.973Z</time></trkpt><trkpt lat="45.8323829" lon="10.1233119"><ele>193.0</ele><time>2026-04-25T15:27:59.963Z</time></trkpt><trkpt lat="45.8325596" lon="10.1233931"><ele>193.0</ele><time>2026-04-25T15:28:00.953Z</time></trkpt><trkpt lat="45.8327402" lon="10.1234762"><ele>193.0</ele><time>2026-04-25T15:28:01.96Z</time></trkpt><trkpt lat="45.8329246" lon="10.1235595"><ele>193.0</ele><time>2026-04-25T15:28:02.969Z</time></trkpt><trkpt lat="45.8331122" lon="10.1236441"><ele>193.0</ele><time>2026-04-25T15:28:03.981Z</time></trkpt><trkpt lat="45.8332948" lon="10.1237252"><ele>193.0</ele><time>2026-04-25T15:28:04.971Z</time></trkpt><trkpt lat="45.833479" lon="10.1238091"><ele>193.0</ele><time>2026-04-25T15:28:05.98Z</time></trkpt><trkpt lat="45.8336549" lon="10.1238884"><ele>193.0</ele><time>2026-04-25T15:28:06.953Z</time></trkpt><trkpt lat="45.8338356" lon="10.1239658"><ele>193.0</ele><time>2026-04-25T15:28:07.938Z</time></trkpt><trkpt lat="45.8340228" lon="10.1240479"><ele>193.0</ele><time>2026-04-25T15:28:08.962Z</time></trkpt><trkpt lat="45.8342042" lon="10.1241282"><ele>192.33333333333331</ele><time>2026-04-25T15:28:09.975Z</time></trkpt><trkpt lat="45.834381" lon="10.124208"><ele>191.66666666666666</ele><time>2026-04-25T15:28:10.982Z</time></trkpt><trkpt lat="45.8345543" lon="10.1242856"><ele>191.0</ele><time>2026-04-25T15:28:11.968Z</time></trkpt><trkpt lat="45.8347337" lon="10.1243681"><ele>191.0</ele><time>2026-04-25T15:28:12.976Z</time></trkpt><trkpt lat="45.8349207" lon="10.1244504"><ele>191.0</ele><time>2026-04-25T15:28:13.987Z</time></trkpt><trkpt lat="45.8350994" lon="10.1245298"><ele>191.0</ele><time>2026-04-25T15:28:14.956Z</time></trkpt><trkpt lat="45.8352827" lon="10.1246186"><ele>191.33333333333331</ele><time>2026-04-25T15:28:15.983Z</time></trkpt><trkpt lat="45.8354556" lon="10.1246977"><ele>191.66666666666666</ele><time>2026-04-25T15:28:16.973Z</time></trkpt><trkpt lat="45.8356327" lon="10.1247772"><ele>192.0</ele><time>2026-04-25T15:28:17.972Z</time></trkpt><trkpt lat="45.8358114" lon="10.124864"><ele>193.66666666666669</ele><time>2026-04-25T15:28:18.985Z</time></trkpt><trkpt lat="45.8359894" lon="10.1249516"><ele>195.33333333333334</ele><time>2026-04-25T15:28:19.979Z</time></trkpt><trkpt lat="45.8361683" lon="10.1250455"><ele>197.0</ele><time>2026-04-25T15:28:20.981Z</time></trkpt><trkpt lat="45.8363472" lon="10.1251393"><ele>197.0</ele><time>2026-04-25T15:28:21.987Z</time></trkpt><trkpt lat="45.8365145" lon="10.1252302"><ele>197.0</ele><time>2026-04-25T15:28:22.957Z</time></trkpt><trkpt lat="45.8366877" lon="10.1253279"><ele>197.0</ele><time>2026-04-25T15:28:23.983Z</time></trkpt><trkpt lat="45.8368461" lon="10.1254268"><ele>197.0</ele><time>2026-04-25T15:28:24.958Z</time></trkpt><trkpt lat="45.8370036" lon="10.1255426"><ele>197.0</ele><time>2026-04-25T15:28:25.978Z</time></trkpt><trkpt lat="45.8371462" lon="10.1256604"><ele>197.0</ele><time>2026-04-25T15:28:26.966Z</time></trkpt><trkpt lat="45.8372971" lon="10.125787"><ele>197.0</ele><time>2026-04-25T15:28:27.975Z</time></trkpt><trkpt lat="45.8374471" lon="10.1259227"><ele>197.0</ele><time>2026-04-25T15:28:28.982Z</time></trkpt><trkpt lat="45.8375918" lon="10.1260671"><ele>197.0</ele><time>2026-04-25T15:28:29.96Z</time></trkpt><trkpt lat="45.8377333" lon="10.1262207"><ele>196.33333333333334</ele><time>2026-04-25T15:28:30.987Z</time></trkpt><trkpt lat="45.8378549" lon="10.1263666"><ele>195.66666666666669</ele><time>2026-04-25T15:28:31.952Z</time></trkpt><trkpt lat="45.837975" lon="10.126527"><ele>195.0</ele><time>2026-04-25T15:28:32.985Z</time></trkpt><trkpt lat="45.838079" lon="10.126672"><ele>195.0</ele><time>2026-04-25T15:28:33.972Z</time></trkpt><trkpt lat="45.8381768" lon="10.1268138"><ele>195.0</ele><time>2026-04-25T15:28:34.952Z</time></trkpt><trkpt lat="45.8382785" lon="10.1269701"><ele>195.0</ele><time>2026-04-25T15:28:35.959Z</time></trkpt><trkpt lat="45.8383855" lon="10.1271461"><ele>195.0</ele><time>2026-04-25T15:28:36.983Z</time></trkpt><trkpt lat="45.8384954" lon="10.1273414"><ele>195.0</ele><time>2026-04-25T15:28:37.994Z</time></trkpt><trkpt lat="45.8386061" lon="10.1275512"><ele>195.0</ele><time>2026-04-25T15:28:38.992Z</time></trkpt><trkpt lat="45.8387172" lon="10.1277612"><ele>195.0</ele><time>2026-04-25T15:28:39.96Z</time></trkpt><trkpt lat="45.83883" lon="10.1279844"><ele>195.0</ele><time>2026-04-25T15:28:40.952Z</time></trkpt><trkpt lat="45.8389488" lon="10.1282125"><ele>195.0</ele><time>2026-04-25T15:28:41.982Z</time></trkpt><trkpt lat="45.8390609" lon="10.1284393"><ele>195.33333333333331</ele><time>2026-04-25T15:28:42.987Z</time></trkpt><trkpt lat="45.8391751" lon="10.128674"><ele>195.66666666666666</ele><time>2026-04-25T15:28:43.99Z</time></trkpt><trkpt lat="45.839293" lon="10.1289072"><ele>196.0</ele><time>2026-04-25T15:28:44.981Z</time></trkpt><trkpt lat="45.8394121" lon="10.1291432"><ele>196.33333333333331</ele><time>2026-04-25T15:28:45.972Z</time></trkpt><trkpt lat="45.8395261" lon="10.1293809"><ele>196.66666666666669</ele><time>2026-04-25T15:28:46.961Z</time></trkpt><trkpt lat="45.8396401" lon="10.1296235"><ele>197.0</ele><time>2026-04-25T15:28:47.987Z</time></trkpt><trkpt lat="45.8397488" lon="10.1298485"><ele>197.0</ele><time>2026-04-25T15:28:48.953Z</time></trkpt><trkpt lat="45.839861" lon="10.1300789"><ele>197.0</ele><time>2026-04-25T15:28:49.96Z</time></trkpt><trkpt lat="45.8399741" lon="10.1303102"><ele>197.0</ele><time>2026-04-25T15:28:50.956Z</time></trkpt><trkpt lat="45.8400847" lon="10.1305419"><ele>197.0</ele><time>2026-04-25T15:28:51.955Z</time></trkpt><trkpt lat="45.8401967" lon="10.1307774"><ele>197.0</ele><time>2026-04-25T15:28:52.991Z</time></trkpt><trkpt lat="45.8403123" lon="10.130998"><ele>197.0</ele><time>2026-04-25T15:28:53.982Z</time></trkpt><trkpt lat="45.8404242" lon="10.1312138"><ele>197.0</ele><time>2026-04-25T15:28:54.96Z</time></trkpt><trkpt lat="45.8405456" lon="10.1314272"><ele>197.0</ele><time>2026-04-25T15:28:55.979Z</time></trkpt><trkpt lat="45.8406721" lon="10.131627"><ele>197.0</ele><time>2026-04-25T15:28:56.975Z</time></trkpt><trkpt lat="45.8408092" lon="10.1318208"><ele>197.0</ele><time>2026-04-25T15:28:57.983Z</time></trkpt><trkpt lat="45.8409471" lon="10.1320009"><ele>197.0</ele><time>2026-04-25T15:28:58.966Z</time></trkpt><trkpt lat="45.8410969" lon="10.1321812"><ele>197.0</ele><time>2026-04-25T15:28:59.988Z</time></trkpt><trkpt lat="45.8412525" lon="10.1323471"><ele>197.33333333333334</ele><time>2026-04-25T15:29:00.983Z</time></trkpt><trkpt lat="45.8414165" lon="10.1325095"><ele>197.66666666666669</ele><time>2026-04-25T15:29:01.982Z</time></trkpt><trkpt lat="45.8415807" lon="10.1326618"><ele>198.0</ele><time>2026-04-25T15:29:02.957Z</time></trkpt><trkpt lat="45.841752" lon="10.1328169"><ele>198.0</ele><time>2026-04-25T15:29:03.967Z</time></trkpt><trkpt lat="45.8419227" lon="10.1329613"><ele>198.0</ele><time>2026-04-25T15:29:04.989Z</time></trkpt><trkpt lat="45.8420848" lon="10.1331027"><ele>198.0</ele><time>2026-04-25T15:29:05.991Z</time></trkpt><trkpt lat="45.8422414" lon="10.1332403"><ele>198.0</ele><time>2026-04-25T15:29:06.976Z</time></trkpt><trkpt lat="45.8423985" lon="10.1333763"><ele>198.0</ele><time>2026-04-25T15:29:07.987Z</time></trkpt><trkpt lat="45.8425487" lon="10.1335079"><ele>198.0</ele><time>2026-04-25T15:29:08.963Z</time></trkpt><trkpt lat="45.8427059" lon="10.1336411"><ele>197.0</ele><time>2026-04-25T15:29:09.98Z</time></trkpt><trkpt lat="45.8428537" lon="10.1337713"><ele>196.0</ele><time>2026-04-25T15:29:10.963Z</time></trkpt><trkpt lat="45.8430038" lon="10.1339039"><ele>195.0</ele><time>2026-04-25T15:29:11.967Z</time></trkpt><trkpt lat="45.843159" lon="10.1340426"><ele>195.0</ele><time>2026-04-25T15:29:12.982Z</time></trkpt><trkpt lat="45.8433153" lon="10.1341817"><ele>195.0</ele><time>2026-04-25T15:29:13.974Z</time></trkpt><trkpt lat="45.8434825" lon="10.1343292"><ele>195.0</ele><time>2026-04-25T15:29:14.99Z</time></trkpt><trkpt lat="45.8436488" lon="10.1344769"><ele>195.0</ele><time>2026-04-25T15:29:15.985Z</time></trkpt><trkpt lat="45.8438188" lon="10.1346257"><ele>195.0</ele><time>2026-04-25T15:29:16.992Z</time></trkpt><trkpt lat="45.8439921" lon="10.1347759"><ele>195.0</ele><time>2026-04-25T15:29:17.98Z</time></trkpt><trkpt lat="45.8441678" lon="10.1349282"><ele>195.66666666666669</ele><time>2026-04-25T15:29:18.982Z</time></trkpt><trkpt lat="45.8443482" lon="10.135086"><ele>196.33333333333334</ele><time>2026-04-25T15:29:19.983Z</time></trkpt><trkpt lat="45.8445339" lon="10.1352524"><ele>197.0</ele><time>2026-04-25T15:29:20.977Z</time></trkpt><trkpt lat="45.8447282" lon="10.1354279"><ele>197.0</ele><time>2026-04-25T15:29:21.995Z</time></trkpt><trkpt lat="45.8449197" lon="10.1355941"><ele>197.0</ele><time>2026-04-25T15:29:22.986Z</time></trkpt><trkpt lat="45.8451118" lon="10.1357649"><ele>198.5</ele><time>2026-04-25T15:29:23.979Z</time></trkpt><trkpt lat="45.8453082" lon="10.1359356"><ele>200.0</ele><time>2026-04-25T15:29:24.981Z</time></trkpt><trkpt lat="45.8455093" lon="10.1361058"><ele>200.0</ele><time>2026-04-25T15:29:25.989Z</time></trkpt><trkpt lat="45.8457063" lon="10.1362785"><ele>200.0</ele><time>2026-04-25T15:29:26.975Z</time></trkpt><trkpt lat="45.8459098" lon="10.1364572"><ele>200.5</ele><time>2026-04-25T15:29:27.986Z</time></trkpt><trkpt lat="45.8461067" lon="10.1366326"><ele>201.0</ele><time>2026-04-25T15:29:28.959Z</time></trkpt><trkpt lat="45.8463141" lon="10.1368204"><ele>201.0</ele><time>2026-04-25T15:29:29.986Z</time></trkpt><trkpt lat="45.8465147" lon="10.1369968"><ele>201.0</ele><time>2026-04-25T15:29:30.961Z</time></trkpt><trkpt lat="45.846723" lon="10.137181"><ele>200.0</ele><time>2026-04-25T15:29:31.974Z</time></trkpt><trkpt lat="45.8469334" lon="10.1373714"><ele>199.0</ele><time>2026-04-25T15:29:32.983Z</time></trkpt><trkpt lat="45.8471392" lon="10.1375588"><ele>199.0</ele><time>2026-04-25T15:29:33.982Z</time></trkpt><trkpt lat="45.8473533" lon="10.1377527"><ele>199.0</ele><time>2026-04-25T15:29:34.995Z</time></trkpt><trkpt lat="45.8475591" lon="10.1379477"><ele>198.5</ele><time>2026-04-25T15:29:35.991Z</time></trkpt><trkpt lat="45.8477625" lon="10.1381484"><ele>198.0</ele><time>2026-04-25T15:29:36.978Z</time></trkpt><trkpt lat="45.8479665" lon="10.1383584"><ele>198.0</ele><time>2026-04-25T15:29:37.986Z</time></trkpt><trkpt lat="45.8481587" lon="10.1385603"><ele>198.0</ele><time>2026-04-25T15:29:38.963Z</time></trkpt><trkpt lat="45.8483564" lon="10.1387786"><ele>198.0</ele><time>2026-04-25T15:29:39.981Z</time></trkpt><trkpt lat="45.8485489" lon="10.1389978"><ele>198.0</ele><time>2026-04-25T15:29:40.979Z</time></trkpt><trkpt lat="45.8487405" lon="10.1392308"><ele>198.0</ele><time>2026-04-25T15:29:41.981Z</time></trkpt><trkpt lat="45.8489313" lon="10.1394643"><ele>198.0</ele><time>2026-04-25T15:29:42.97Z</time></trkpt><trkpt lat="45.8491295" lon="10.1397071"><ele>198.5</ele><time>2026-04-25T15:29:43.963Z</time></trkpt><trkpt lat="45.8493373" lon="10.1399654"><ele>199.0</ele><time>2026-04-25T15:29:44.987Z</time></trkpt><trkpt lat="45.8495497" lon="10.1402202"><ele>199.0</ele><time>2026-04-25T15:29:45.955Z</time></trkpt><trkpt lat="45.8497867" lon="10.140502"><ele>199.0</ele><time>2026-04-25T15:29:46.989Z</time></trkpt><trkpt lat="45.8500196" lon="10.1407941"><ele>198.5</ele><time>2026-04-25T15:29:47.99Z</time></trkpt><trkpt lat="45.8502516" lon="10.1410991"><ele>198.0</ele><time>2026-04-25T15:29:48.999Z</time></trkpt><trkpt lat="45.8504836" lon="10.1414003"><ele>199.5</ele><time>2026-04-25T15:29:49.995Z</time></trkpt><trkpt lat="45.8507089" lon="10.1416912"><ele>201.0</ele><time>2026-04-25T15:29:50.979Z</time></trkpt><trkpt lat="45.8509376" lon="10.1419848"><ele>201.5</ele><time>2026-04-25T15:29:51.989Z</time></trkpt><trkpt lat="45.8511622" lon="10.1422744"><ele>202.0</ele><time>2026-04-25T15:29:52.985Z</time></trkpt><trkpt lat="45.8513881" lon="10.1425596"><ele>202.0</ele><time>2026-04-25T15:29:53.985Z</time></trkpt><trkpt lat="45.8516106" lon="10.1428403"><ele>202.0</ele><time>2026-04-25T15:29:54.991Z</time></trkpt><trkpt lat="45.8518327" lon="10.1431137"><ele>201.5</ele><time>2026-04-25T15:29:55.985Z</time></trkpt><trkpt lat="45.8520535" lon="10.143393"><ele>201.0</ele><time>2026-04-25T15:29:56.989Z</time></trkpt><trkpt lat="45.8522632" lon="10.1436611"><ele>201.0</ele><time>2026-04-25T15:29:57.96Z</time></trkpt><trkpt lat="45.852486" lon="10.1439429"><ele>201.0</ele><time>2026-04-25T15:29:58.984Z</time></trkpt><trkpt lat="45.8527036" lon="10.1442175"><ele>202.5</ele><time>2026-04-25T15:29:59.999Z</time></trkpt><trkpt lat="45.8529027" lon="10.1444725"><ele>204.0</ele><time>2026-04-25T15:30:00.951Z</time></trkpt><trkpt lat="45.8531146" lon="10.1447408"><ele>204.5</ele><time>2026-04-25T15:30:01.962Z</time></trkpt><trkpt lat="45.8533209" lon="10.1450027"><ele>205.0</ele><time>2026-04-25T15:30:02.963Z</time></trkpt><trkpt lat="45.8535293" lon="10.1452608"><ele>203.5</ele><time>2026-04-25T15:30:03.964Z</time></trkpt><trkpt lat="45.8537358" lon="10.1455216"><ele>202.0</ele><time>2026-04-25T15:30:04.975Z</time></trkpt><trkpt lat="45.8539403" lon="10.1457773"><ele>202.0</ele><time>2026-04-25T15:30:05.988Z</time></trkpt><trkpt lat="45.8541374" lon="10.1460243"><ele>202.0</ele><time>2026-04-25T15:30:06.985Z</time></trkpt><trkpt lat="45.8543326" lon="10.146269"><ele>202.0</ele><time>2026-04-25T15:30:07.974Z</time></trkpt><trkpt lat="45.8545322" lon="10.1465205"><ele>202.0</ele><time>2026-04-25T15:30:08.99Z</time></trkpt><trkpt lat="45.8547254" lon="10.1467633"><ele>203.0</ele><time>2026-04-25T15:30:09.971Z</time></trkpt><trkpt lat="45.8549155" lon="10.1470126"><ele>204.0</ele><time>2026-04-25T15:30:10.96Z</time></trkpt><trkpt lat="45.855111" lon="10.14726"><ele>204.0</ele><time>2026-04-25T15:30:11.956Z</time></trkpt><trkpt lat="45.8553108" lon="10.1475132"><ele>204.0</ele><time>2026-04-25T15:30:12.981Z</time></trkpt><trkpt lat="45.8555012" lon="10.1477528"><ele>204.0</ele><time>2026-04-25T15:30:13.957Z</time></trkpt><trkpt lat="45.8556971" lon="10.1479966"><ele>204.0</ele><time>2026-04-25T15:30:14.963Z</time></trkpt><trkpt lat="45.8558882" lon="10.1482431"><ele>203.5</ele><time>2026-04-25T15:30:15.964Z</time></trkpt><trkpt lat="45.8560749" lon="10.1484765"><ele>203.0</ele><time>2026-04-25T15:30:16.95Z</time></trkpt><trkpt lat="45.8562615" lon="10.1487064"><ele>203.0</ele><time>2026-04-25T15:30:17.98Z</time></trkpt><trkpt lat="45.8564361" lon="10.1489193"><ele>203.0</ele><time>2026-04-25T15:30:18.987Z</time></trkpt><trkpt lat="45.8565955" lon="10.1491184"><ele>203.0</ele><time>2026-04-25T15:30:19.955Z</time></trkpt><trkpt lat="45.856763" lon="10.1493282"><ele>202.66666666666669</ele><time>2026-04-25T15:30:20.983Z</time></trkpt><trkpt lat="45.856926" lon="10.1495388"><ele>202.33333333333331</ele><time>2026-04-25T15:30:21.99Z</time></trkpt><trkpt lat="45.8570814" lon="10.1497407"><ele>202.0</ele><time>2026-04-25T15:30:22.976Z</time></trkpt><trkpt lat="45.8572414" lon="10.1499453"><ele>202.0</ele><time>2026-04-25T15:30:24.003Z</time></trkpt><trkpt lat="45.8573838" lon="10.1501195"><ele>202.0</ele><time>2026-04-25T15:30:24.949Z</time></trkpt><trkpt lat="45.8575318" lon="10.1503039"><ele>202.0</ele><time>2026-04-25T15:30:25.964Z</time></trkpt><trkpt lat="45.8576736" lon="10.1504905"><ele>202.0</ele><time>2026-04-25T15:30:26.991Z</time></trkpt><trkpt lat="45.8578133" lon="10.1506703"><ele>202.0</ele><time>2026-04-25T15:30:27.982Z</time></trkpt><trkpt lat="45.8579598" lon="10.1508504"><ele>202.0</ele><time>2026-04-25T15:30:28.982Z</time></trkpt><trkpt lat="45.858107" lon="10.1510308"><ele>202.33333333333331</ele><time>2026-04-25T15:30:29.964Z</time></trkpt><trkpt lat="45.8582605" lon="10.1512236"><ele>202.66666666666669</ele><time>2026-04-25T15:30:30.982Z</time></trkpt><trkpt lat="45.8584123" lon="10.1514138"><ele>203.0</ele><time>2026-04-25T15:30:31.982Z</time></trkpt><trkpt lat="45.8585604" lon="10.1516022"><ele>203.0</ele><time>2026-04-25T15:30:32.961Z</time></trkpt><trkpt lat="45.8587115" lon="10.1517989"><ele>203.0</ele><time>2026-04-25T15:30:33.978Z</time></trkpt><trkpt lat="45.8588641" lon="10.1519928"><ele>203.0</ele><time>2026-04-25T15:30:34.985Z</time></trkpt><trkpt lat="45.8590165" lon="10.1521843"><ele>203.33333333333334</ele><time>2026-04-25T15:30:35.981Z</time></trkpt><trkpt lat="45.859169" lon="10.1523789"><ele>203.66666666666669</ele><time>2026-04-25T15:30:36.987Z</time></trkpt><trkpt lat="45.8593198" lon="10.1525694"><ele>204.0</ele><time>2026-04-25T15:30:37.989Z</time></trkpt><trkpt lat="45.8594691" lon="10.1527546"><ele>204.0</ele><time>2026-04-25T15:30:38.979Z</time></trkpt><trkpt lat="45.8596178" lon="10.1529387"><ele>204.0</ele><time>2026-04-25T15:30:39.958Z</time></trkpt><trkpt lat="45.8597687" lon="10.1531247"><ele>204.0</ele><time>2026-04-25T15:30:40.959Z</time></trkpt><trkpt lat="45.85992" lon="10.1533104"><ele>204.33333333333331</ele><time>2026-04-25T15:30:41.956Z</time></trkpt><trkpt lat="45.8600795" lon="10.1534937"><ele>204.66666666666666</ele><time>2026-04-25T15:30:42.981Z</time></trkpt><trkpt lat="45.8602435" lon="10.1536771"><ele>205.0</ele><time>2026-04-25T15:30:43.999Z</time></trkpt><trkpt lat="45.8604054" lon="10.1538529"><ele>205.33333333333331</ele><time>2026-04-25T15:30:44.965Z</time></trkpt><trkpt lat="45.8605825" lon="10.1540386"><ele>205.66666666666669</ele><time>2026-04-25T15:30:45.995Z</time></trkpt><trkpt lat="45.8607583" lon="10.1542158"><ele>206.0</ele><time>2026-04-25T15:30:46.985Z</time></trkpt><trkpt lat="45.8609354" lon="10.1543908"><ele>205.5</ele><time>2026-04-25T15:30:47.963Z</time></trkpt><trkpt lat="45.8611275" lon="10.1545657"><ele>205.0</ele><time>2026-04-25T15:30:48.987Z</time></trkpt><trkpt lat="45.8613202" lon="10.1547387"><ele>205.0</ele><time>2026-04-25T15:30:49.993Z</time></trkpt><trkpt lat="45.8615138" lon="10.1549016"><ele>205.0</ele><time>2026-04-25T15:30:50.986Z</time></trkpt><trkpt lat="45.8617102" lon="10.1550642"><ele>204.66666666666666</ele><time>2026-04-25T15:30:51.982Z</time></trkpt><trkpt lat="45.8619005" lon="10.1552133"><ele>204.33333333333331</ele><time>2026-04-25T15:30:52.941Z</time></trkpt><trkpt lat="45.8621032" lon="10.1553681"><ele>204.0</ele><time>2026-04-25T15:30:53.959Z</time></trkpt><trkpt lat="45.8623127" lon="10.1555246"><ele>204.0</ele><time>2026-04-25T15:30:54.98Z</time></trkpt><trkpt lat="45.8625269" lon="10.1556758"><ele>204.0</ele><time>2026-04-25T15:30:55.985Z</time></trkpt><trkpt lat="45.8627472" lon="10.1558197"><ele>204.0</ele><time>2026-04-25T15:30:56.998Z</time></trkpt><trkpt lat="45.8629616" lon="10.1559554"><ele>204.0</ele><time>2026-04-25T15:30:57.986Z</time></trkpt><trkpt lat="45.863173" lon="10.156091"><ele>204.0</ele><time>2026-04-25T15:30:58.984Z</time></trkpt><trkpt lat="45.8633787" lon="10.1562195"><ele>204.0</ele><time>2026-04-25T15:30:59.996Z</time></trkpt><trkpt lat="45.8635628" lon="10.1563364"><ele>204.0</ele><time>2026-04-25T15:31:00.952Z</time></trkpt><trkpt lat="45.8637519" lon="10.1564571"><ele>204.66666666666669</ele><time>2026-04-25T15:31:01.968Z</time></trkpt><trkpt lat="45.8639334" lon="10.1565751"><ele>205.33333333333334</ele><time>2026-04-25T15:31:02.99Z</time></trkpt><trkpt lat="45.864108" lon="10.1566903"><ele>206.0</ele><time>2026-04-25T15:31:03.984Z</time></trkpt><trkpt lat="45.8642793" lon="10.1568047"><ele>205.33333333333334</ele><time>2026-04-25T15:31:04.965Z</time></trkpt><trkpt lat="45.8644602" lon="10.1569283"><ele>204.66666666666669</ele><time>2026-04-25T15:31:05.941Z</time></trkpt><trkpt lat="45.8646603" lon="10.1570572"><ele>204.0</ele><time>2026-04-25T15:31:06.982Z</time></trkpt><trkpt lat="45.8648575" lon="10.1571891"><ele>204.0</ele><time>2026-04-25T15:31:07.98Z</time></trkpt><trkpt lat="45.8650563" lon="10.1573209"><ele>204.0</ele><time>2026-04-25T15:31:08.982Z</time></trkpt><trkpt lat="45.8652583" lon="10.1574511"><ele>204.0</ele><time>2026-04-25T15:31:09.975Z</time></trkpt><trkpt lat="45.8654709" lon="10.1575855"><ele>206.0</ele><time>2026-04-25T15:31:10.994Z</time></trkpt><trkpt lat="45.86568" lon="10.1577235"><ele>208.0</ele><time>2026-04-25T15:31:11.998Z</time></trkpt><trkpt lat="45.8658827" lon="10.1578566"><ele>208.0</ele><time>2026-04-25T15:31:12.988Z</time></trkpt><trkpt lat="45.8660797" lon="10.1579872"><ele>208.0</ele><time>2026-04-25T15:31:13.971Z</time></trkpt><trkpt lat="45.8662788" lon="10.1581141"><ele>208.0</ele><time>2026-04-25T15:31:14.983Z</time></trkpt><trkpt lat="45.8664716" lon="10.1582383"><ele>208.0</ele><time>2026-04-25T15:31:15.957Z</time></trkpt><trkpt lat="45.866676" lon="10.1583685"><ele>208.0</ele><time>2026-04-25T15:31:16.981Z</time></trkpt><trkpt lat="45.8668721" lon="10.1584995"><ele>208.0</ele><time>2026-04-25T15:31:17.958Z</time></trkpt><trkpt lat="45.8670821" lon="10.15864"><ele>206.5</ele><time>2026-04-25T15:31:18.985Z</time></trkpt><trkpt lat="45.867286" lon="10.1587709"><ele>205.0</ele><time>2026-04-25T15:31:19.962Z</time></trkpt><trkpt lat="45.8674921" lon="10.1589054"><ele>205.33333333333331</ele><time>2026-04-25T15:31:20.965Z</time></trkpt><trkpt lat="45.8676946" lon="10.1590356"><ele>205.66666666666669</ele><time>2026-04-25T15:31:21.982Z</time></trkpt><trkpt lat="45.8678912" lon="10.1591626"><ele>206.0</ele><time>2026-04-25T15:31:22.995Z</time></trkpt><trkpt lat="45.8680805" lon="10.1592827"><ele>206.0</ele><time>2026-04-25T15:31:23.976Z</time></trkpt><trkpt lat="45.8682736" lon="10.1594106"><ele>206.0</ele><time>2026-04-25T15:31:24.974Z</time></trkpt><trkpt lat="45.8684702" lon="10.1595368"><ele>206.0</ele><time>2026-04-25T15:31:25.979Z</time></trkpt><trkpt lat="45.8686728" lon="10.1596704"><ele>206.0</ele><time>2026-04-25T15:31:26.992Z</time></trkpt><trkpt lat="45.8688684" lon="10.1597997"><ele>206.0</ele><time>2026-04-25T15:31:27.975Z</time></trkpt><trkpt lat="45.8690729" lon="10.1599301"><ele>206.0</ele><time>2026-04-25T15:31:28.986Z</time></trkpt><trkpt lat="45.8692701" lon="10.1600603"><ele>205.66666666666669</ele><time>2026-04-25T15:31:29.99Z</time></trkpt><trkpt lat="45.8694537" lon="10.1601803"><ele>205.33333333333331</ele><time>2026-04-25T15:31:30.977Z</time></trkpt><trkpt lat="45.869636" lon="10.1602962"><ele>205.0</ele><time>2026-04-25T15:31:31.987Z</time></trkpt><trkpt lat="45.8698092" lon="10.1604085"><ele>205.0</ele><time>2026-04-25T15:31:32.956Z</time></trkpt><trkpt lat="45.8699957" lon="10.1605313"><ele>205.0</ele><time>2026-04-25T15:31:33.994Z</time></trkpt><trkpt lat="45.8701653" lon="10.1606561"><ele>205.0</ele><time>2026-04-25T15:31:34.939Z</time></trkpt><trkpt lat="45.8703445" lon="10.1607973"><ele>205.33333333333331</ele><time>2026-04-25T15:31:35.939Z</time></trkpt><trkpt lat="45.8705195" lon="10.1609608"><ele>205.66666666666669</ele><time>2026-04-25T15:31:36.943Z</time></trkpt><trkpt lat="45.8706866" lon="10.1611353"><ele>206.0</ele><time>2026-04-25T15:31:37.936Z</time></trkpt><trkpt lat="45.8708501" lon="10.1613273"><ele>206.66666666666669</ele><time>2026-04-25T15:31:38.946Z</time></trkpt><trkpt lat="45.8710078" lon="10.1615285"><ele>207.33333333333331</ele><time>2026-04-25T15:31:39.938Z</time></trkpt><trkpt lat="45.8711612" lon="10.1617408"><ele>208.0</ele><time>2026-04-25T15:31:40.955Z</time></trkpt><trkpt lat="45.8713007" lon="10.1619493"><ele>208.0</ele><time>2026-04-25T15:31:41.941Z</time></trkpt><trkpt lat="45.8714273" lon="10.1621671"><ele>208.0</ele><time>2026-04-25T15:31:42.943Z</time></trkpt><trkpt lat="45.8715434" lon="10.1623896"><ele>208.0</ele><time>2026-04-25T15:31:43.963Z</time></trkpt><trkpt lat="45.8716405" lon="10.1626036"><ele>207.66666666666666</ele><time>2026-04-25T15:31:44.946Z</time></trkpt><trkpt lat="45.87173" lon="10.1628226"><ele>207.33333333333331</ele><time>2026-04-25T15:31:45.946Z</time></trkpt><trkpt lat="45.8718188" lon="10.1630541"><ele>207.0</ele><time>2026-04-25T15:31:46.96Z</time></trkpt><trkpt lat="45.8719028" lon="10.1632958"><ele>207.33333333333331</ele><time>2026-04-25T15:31:47.959Z</time></trkpt><trkpt lat="45.8719785" lon="10.1635529"><ele>207.66666666666666</ele><time>2026-04-25T15:31:48.974Z</time></trkpt><trkpt lat="45.8720463" lon="10.1638148"><ele>208.0</ele><time>2026-04-25T15:31:49.975Z</time></trkpt><trkpt lat="45.8721087" lon="10.1640866"><ele>208.0</ele><time>2026-04-25T15:31:50.982Z</time></trkpt><trkpt lat="45.8721619" lon="10.1643601"><ele>208.0</ele><time>2026-04-25T15:31:51.959Z</time></trkpt><trkpt lat="45.8722064" lon="10.1646386"><ele>208.0</ele><time>2026-04-25T15:31:52.956Z</time></trkpt><trkpt lat="45.8722416" lon="10.1649385"><ele>208.66666666666666</ele><time>2026-04-25T15:31:53.99Z</time></trkpt><trkpt lat="45.872262" lon="10.165221"><ele>209.33333333333331</ele><time>2026-04-25T15:31:54.956Z</time></trkpt><trkpt lat="45.8722756" lon="10.1655225"><ele>210.0</ele><time>2026-04-25T15:31:55.969Z</time></trkpt><trkpt lat="45.87228" lon="10.1658126"><ele>210.0</ele><time>2026-04-25T15:31:56.965Z</time></trkpt><trkpt lat="45.8722815" lon="10.1661093"><ele>210.0</ele><time>2026-04-25T15:31:57.964Z</time></trkpt><trkpt lat="45.8722756" lon="10.1664098"><ele>210.0</ele><time>2026-04-25T15:31:58.992Z</time></trkpt><trkpt lat="45.8722673" lon="10.1666875"><ele>210.0</ele><time>2026-04-25T15:31:59.992Z</time></trkpt><trkpt lat="45.8722549" lon="10.1669572"><ele>210.0</ele><time>2026-04-25T15:32:00.966Z</time></trkpt><trkpt lat="45.8722394" lon="10.1672374"><ele>210.0</ele><time>2026-04-25T15:32:01.963Z</time></trkpt><trkpt lat="45.8722244" lon="10.1675289"><ele>210.33333333333331</ele><time>2026-04-25T15:32:02.986Z</time></trkpt><trkpt lat="45.8722126" lon="10.1678228"><ele>210.66666666666666</ele><time>2026-04-25T15:32:03.988Z</time></trkpt><trkpt lat="45.8721982" lon="10.1681206"><ele>211.0</ele><time>2026-04-25T15:32:04.986Z</time></trkpt><trkpt lat="45.8721796" lon="10.1684171"><ele>212.0</ele><time>2026-04-25T15:32:05.956Z</time></trkpt><trkpt lat="45.8721533" lon="10.1687386"><ele>213.0</ele><time>2026-04-25T15:32:06.986Z</time></trkpt><trkpt lat="45.8721271" lon="10.1690484"><ele>214.0</ele><time>2026-04-25T15:32:07.959Z</time></trkpt><trkpt lat="45.8721034" lon="10.1693689"><ele>214.0</ele><time>2026-04-25T15:32:08.963Z</time></trkpt><trkpt lat="45.8720813" lon="10.1696985"><ele>214.0</ele><time>2026-04-25T15:32:09.965Z</time></trkpt><trkpt lat="45.8720563" lon="10.170023"><ele>214.0</ele><time>2026-04-25T15:32:10.975Z</time></trkpt><trkpt lat="45.8720385" lon="10.1703375"><ele>214.0</ele><time>2026-04-25T15:32:11.985Z</time></trkpt><trkpt lat="45.8720199" lon="10.1706382"><ele>214.0</ele><time>2026-04-25T15:32:12.996Z</time></trkpt><trkpt lat="45.8720037" lon="10.1709304"><ele>214.0</ele><time>2026-04-25T15:32:13.979Z</time></trkpt><trkpt lat="45.8719824" lon="10.1712282"><ele>214.0</ele><time>2026-04-25T15:32:14.984Z</time></trkpt><trkpt lat="45.8719631" lon="10.1715183"><ele>214.0</ele><time>2026-04-25T15:32:15.966Z</time></trkpt><trkpt lat="45.8719471" lon="10.1718229"><ele>214.0</ele><time>2026-04-25T15:32:16.981Z</time></trkpt><trkpt lat="45.8719319" lon="10.172126"><ele>214.0</ele><time>2026-04-25T15:32:17.982Z</time></trkpt><trkpt lat="45.8719112" lon="10.1724368"><ele>214.0</ele><time>2026-04-25T15:32:18.988Z</time></trkpt><trkpt lat="45.871889" lon="10.1727393"><ele>215.33333333333331</ele><time>2026-04-25T15:32:19.974Z</time></trkpt><trkpt lat="45.8718708" lon="10.1730519"><ele>216.66666666666669</ele><time>2026-04-25T15:32:20.985Z</time></trkpt><trkpt lat="45.8718527" lon="10.173363"><ele>218.0</ele><time>2026-04-25T15:32:21.983Z</time></trkpt><trkpt lat="45.8718315" lon="10.173677"><ele>218.66666666666669</ele><time>2026-04-25T15:32:22.998Z</time></trkpt><trkpt lat="45.8718119" lon="10.1739789"><ele>219.33333333333331</ele><time>2026-04-25T15:32:23.995Z</time></trkpt><trkpt lat="45.8717925" lon="10.1742761"><ele>220.0</ele><time>2026-04-25T15:32:24.99Z</time></trkpt><trkpt lat="45.871775" lon="10.1745591"><ele>221.33333333333331</ele><time>2026-04-25T15:32:25.963Z</time></trkpt><trkpt lat="45.8717615" lon="10.1748499"><ele>222.66666666666669</ele><time>2026-04-25T15:32:26.969Z</time></trkpt><trkpt lat="45.8717549" lon="10.1751333"><ele>224.0</ele><time>2026-04-25T15:32:27.958Z</time></trkpt><trkpt lat="45.8717541" lon="10.1754298"><ele>225.0</ele><time>2026-04-25T15:32:29Z</time></trkpt><trkpt lat="45.871763" lon="10.1757134"><ele>226.0</ele><time>2026-04-25T15:32:29.991Z</time></trkpt><trkpt lat="45.871782" lon="10.1759927"><ele>227.0</ele><time>2026-04-25T15:32:30.962Z</time></trkpt><trkpt lat="45.8718109" lon="10.1762886"><ele>228.33333333333334</ele><time>2026-04-25T15:32:31.994Z</time></trkpt><trkpt lat="45.8718481" lon="10.1765754"><ele>229.66666666666669</ele><time>2026-04-25T15:32:32.983Z</time></trkpt><trkpt lat="45.8718954" lon="10.1768572"><ele>231.0</ele><time>2026-04-25T15:32:33.961Z</time></trkpt><trkpt lat="45.8719523" lon="10.177143"><ele>232.33333333333331</ele><time>2026-04-25T15:32:34.96Z</time></trkpt><trkpt lat="45.8720214" lon="10.1774228"><ele>233.66666666666666</ele><time>2026-04-25T15:32:35.958Z</time></trkpt><trkpt lat="45.8721016" lon="10.1777075"><ele>235.0</ele><time>2026-04-25T15:32:36.969Z</time></trkpt><trkpt lat="45.8721912" lon="10.1779952"><ele>235.0</ele><time>2026-04-25T15:32:37.978Z</time></trkpt><trkpt lat="45.872293" lon="10.1782689"><ele>235.0</ele><time>2026-04-25T15:32:38.959Z</time></trkpt><trkpt lat="45.8724047" lon="10.1785473"><ele>235.0</ele><time>2026-04-25T15:32:39.98Z</time></trkpt><trkpt lat="45.8725206" lon="10.1788091"><ele>235.66666666666666</ele><time>2026-04-25T15:32:40.976Z</time></trkpt><trkpt lat="45.8726401" lon="10.1790559"><ele>236.33333333333331</ele><time>2026-04-25T15:32:41.958Z</time></trkpt><trkpt lat="45.8727676" lon="10.179291"><ele>237.0</ele><time>2026-04-25T15:32:42.964Z</time></trkpt><trkpt lat="45.8729093" lon="10.1795264"><ele>237.0</ele><time>2026-04-25T15:32:43.993Z</time></trkpt><trkpt lat="45.8730517" lon="10.1797498"><ele>237.0</ele><time>2026-04-25T15:32:44.99Z</time></trkpt><trkpt lat="45.8731976" lon="10.179974"><ele>237.0</ele><time>2026-04-25T15:32:45.982Z</time></trkpt><trkpt lat="45.8733522" lon="10.180201"><ele>237.33333333333331</ele><time>2026-04-25T15:32:46.983Z</time></trkpt><trkpt lat="45.8735022" lon="10.1804281"><ele>237.66666666666666</ele><time>2026-04-25T15:32:47.997Z</time></trkpt><trkpt lat="45.8736367" lon="10.1806339"><ele>238.0</ele><time>2026-04-25T15:32:48.968Z</time></trkpt><trkpt lat="45.8737736" lon="10.1808462"><ele>239.0</ele><time>2026-04-25T15:32:50Z</time></trkpt><trkpt lat="45.8738985" lon="10.1810367"><ele>240.0</ele><time>2026-04-25T15:32:50.982Z</time></trkpt><trkpt lat="45.8740214" lon="10.1812296"><ele>241.0</ele><time>2026-04-25T15:32:51.96Z</time></trkpt><trkpt lat="45.8741489" lon="10.1814173"><ele>240.0</ele><time>2026-04-25T15:32:52.966Z</time></trkpt><trkpt lat="45.8742795" lon="10.1816101"><ele>239.0</ele><time>2026-04-25T15:32:53.989Z</time></trkpt><trkpt lat="45.8744031" lon="10.1818042"><ele>238.0</ele><time>2026-04-25T15:32:54.989Z</time></trkpt><trkpt lat="45.8745239" lon="10.1819935"><ele>238.0</ele><time>2026-04-25T15:32:55.954Z</time></trkpt><trkpt lat="45.8746556" lon="10.1821983"><ele>238.0</ele><time>2026-04-25T15:32:56.967Z</time></trkpt><trkpt lat="45.8747894" lon="10.1824071"><ele>238.0</ele><time>2026-04-25T15:32:57.988Z</time></trkpt><trkpt lat="45.8749245" lon="10.1826154"><ele>237.66666666666666</ele><time>2026-04-25T15:32:58.994Z</time></trkpt><trkpt lat="45.8750559" lon="10.1828201"><ele>237.33333333333331</ele><time>2026-04-25T15:32:59.96Z</time></trkpt><trkpt lat="45.8751985" lon="10.1830446"><ele>237.0</ele><time>2026-04-25T15:33:00.991Z</time></trkpt><trkpt lat="45.8753352" lon="10.1832657"><ele>238.0</ele><time>2026-04-25T15:33:01.98Z</time></trkpt><trkpt lat="45.8754695" lon="10.1834838"><ele>239.0</ele><time>2026-04-25T15:33:02.978Z</time></trkpt><trkpt lat="45.8755965" lon="10.1836828"><ele>240.0</ele><time>2026-04-25T15:33:03.959Z</time></trkpt><trkpt lat="45.8757253" lon="10.1838908"><ele>240.0</ele><time>2026-04-25T15:33:04.997Z</time></trkpt><trkpt lat="45.8758482" lon="10.1840899"><ele>240.0</ele><time>2026-04-25T15:33:05.971Z</time></trkpt><trkpt lat="45.8759787" lon="10.1842978"><ele>240.0</ele><time>2026-04-25T15:33:06.977Z</time></trkpt><trkpt lat="45.8761112" lon="10.1845067"><ele>240.0</ele><time>2026-04-25T15:33:07.984Z</time></trkpt><trkpt lat="45.8762455" lon="10.184711"><ele>240.0</ele><time>2026-04-25T15:33:08.962Z</time></trkpt><trkpt lat="45.8763876" lon="10.1849292"><ele>240.0</ele><time>2026-04-25T15:33:09.995Z</time></trkpt><trkpt lat="45.876519" lon="10.1851351"><ele>240.66666666666669</ele><time>2026-04-25T15:33:10.988Z</time></trkpt><trkpt lat="45.876645" lon="10.1853352"><ele>241.33333333333334</ele><time>2026-04-25T15:33:11.981Z</time></trkpt><trkpt lat="45.8767744" lon="10.185534"><ele>242.0</ele><time>2026-04-25T15:33:12.979Z</time></trkpt><trkpt lat="45.8769049" lon="10.1857391"><ele>242.0</ele><time>2026-04-25T15:33:13.978Z</time></trkpt><trkpt lat="45.8770352" lon="10.1859437"><ele>242.0</ele><time>2026-04-25T15:33:14.96Z</time></trkpt><trkpt lat="45.8771741" lon="10.1861622"><ele>242.0</ele><time>2026-04-25T15:33:15.996Z</time></trkpt><trkpt lat="45.8773022" lon="10.186365"><ele>242.0</ele><time>2026-04-25T15:33:16.961Z</time></trkpt><trkpt lat="45.8774395" lon="10.1865804"><ele>242.0</ele><time>2026-04-25T15:33:17.99Z</time></trkpt><trkpt lat="45.8775713" lon="10.186782"><ele>242.0</ele><time>2026-04-25T15:33:18.996Z</time></trkpt><trkpt lat="45.8776947" lon="10.1869671"><ele>242.0</ele><time>2026-04-25T15:33:19.962Z</time></trkpt><trkpt lat="45.8778249" lon="10.1871593"><ele>242.0</ele><time>2026-04-25T15:33:20.987Z</time></trkpt><trkpt lat="45.8779606" lon="10.1873464"><ele>242.0</ele><time>2026-04-25T15:33:21.985Z</time></trkpt><trkpt lat="45.8781009" lon="10.1875339"><ele>242.66666666666669</ele><time>2026-04-25T15:33:22.983Z</time></trkpt><trkpt lat="45.8782503" lon="10.1877203"><ele>243.33333333333331</ele><time>2026-04-25T15:33:23.996Z</time></trkpt><trkpt lat="45.8784005" lon="10.1879"><ele>244.0</ele><time>2026-04-25T15:33:24.985Z</time></trkpt><trkpt lat="45.8785531" lon="10.1880749"><ele>243.0</ele><time>2026-04-25T15:33:25.965Z</time></trkpt><trkpt lat="45.8787208" lon="10.1882542"><ele>242.0</ele><time>2026-04-25T15:33:26.995Z</time></trkpt><trkpt lat="45.8788815" lon="10.1884214"><ele>241.0</ele><time>2026-04-25T15:33:27.953Z</time></trkpt><trkpt lat="45.8790531" lon="10.1886008"><ele>241.0</ele><time>2026-04-25T15:33:28.967Z</time></trkpt><trkpt lat="45.8792259" lon="10.188776"><ele>241.0</ele><time>2026-04-25T15:33:29.961Z</time></trkpt><trkpt lat="45.8794042" lon="10.1889567"><ele>241.0</ele><time>2026-04-25T15:33:30.987Z</time></trkpt><trkpt lat="45.8795811" lon="10.1891404"><ele>241.33333333333331</ele><time>2026-04-25T15:33:31.987Z</time></trkpt><trkpt lat="45.8797606" lon="10.1893208"><ele>241.66666666666669</ele><time>2026-04-25T15:33:32.984Z</time></trkpt><trkpt lat="45.8799441" lon="10.1895072"><ele>242.0</ele><time>2026-04-25T15:33:33.99Z</time></trkpt><trkpt lat="45.8801269" lon="10.1896906"><ele>241.66666666666669</ele><time>2026-04-25T15:33:34.99Z</time></trkpt><trkpt lat="45.8803126" lon="10.1898705"><ele>241.33333333333331</ele><time>2026-04-25T15:33:35.984Z</time></trkpt><trkpt lat="45.8804981" lon="10.1900527"><ele>241.0</ele><time>2026-04-25T15:33:36.974Z</time></trkpt><trkpt lat="45.8806872" lon="10.1902415"><ele>241.0</ele><time>2026-04-25T15:33:37.96Z</time></trkpt><trkpt lat="45.8808838" lon="10.1904349"><ele>241.0</ele><time>2026-04-25T15:33:38.987Z</time></trkpt><trkpt lat="45.8810679" lon="10.1906221"><ele>241.0</ele><time>2026-04-25T15:33:39.988Z</time></trkpt><trkpt lat="45.8812346" lon="10.1907976"><ele>241.0</ele><time>2026-04-25T15:33:40.956Z</time></trkpt><trkpt lat="45.8814072" lon="10.1909742"><ele>241.0</ele><time>2026-04-25T15:33:41.982Z</time></trkpt><trkpt lat="45.8815732" lon="10.1911446"><ele>241.0</ele><time>2026-04-25T15:33:42.991Z</time></trkpt><trkpt lat="45.8817442" lon="10.1913184"><ele>241.0</ele><time>2026-04-25T15:33:44.005Z</time></trkpt><trkpt lat="45.8819065" lon="10.1914884"><ele>241.0</ele><time>2026-04-25T15:33:44.978Z</time></trkpt><trkpt lat="45.8820675" lon="10.191667"><ele>240.0</ele><time>2026-04-25T15:33:45.957Z</time></trkpt><trkpt lat="45.8822323" lon="10.1918591"><ele>239.0</ele><time>2026-04-25T15:33:46.983Z</time></trkpt><trkpt lat="45.8823821" lon="10.19206"><ele>238.0</ele><time>2026-04-25T15:33:47.985Z</time></trkpt><trkpt lat="45.8825253" lon="10.1922741"><ele>237.33333333333331</ele><time>2026-04-25T15:33:48.988Z</time></trkpt><trkpt lat="45.8826597" lon="10.1924917"><ele>236.66666666666669</ele><time>2026-04-25T15:33:49.961Z</time></trkpt><trkpt lat="45.8827987" lon="10.1927395"><ele>236.0</ele><time>2026-04-25T15:33:50.999Z</time></trkpt><trkpt lat="45.8829221" lon="10.1929807"><ele>237.66666666666669</ele><time>2026-04-25T15:33:51.971Z</time></trkpt><trkpt lat="45.8830431" lon="10.1932429"><ele>239.33333333333331</ele><time>2026-04-25T15:33:52.99Z</time></trkpt><trkpt lat="45.8831606" lon="10.1935048"><ele>241.0</ele><time>2026-04-25T15:33:53.994Z</time></trkpt><trkpt lat="45.883274" lon="10.1937663"><ele>241.66666666666666</ele><time>2026-04-25T15:33:54.981Z</time></trkpt><trkpt lat="45.8833846" lon="10.1940222"><ele>242.33333333333331</ele><time>2026-04-25T15:33:55.959Z</time></trkpt><trkpt lat="45.8834962" lon="10.1942798"><ele>243.0</ele><time>2026-04-25T15:33:56.98Z</time></trkpt><trkpt lat="45.8836033" lon="10.1945311"><ele>242.0</ele><time>2026-04-25T15:33:57.988Z</time></trkpt><trkpt lat="45.8837073" lon="10.1947731"><ele>241.0</ele><time>2026-04-25T15:33:58.961Z</time></trkpt><trkpt lat="45.8838136" lon="10.1950195"><ele>240.0</ele><time>2026-04-25T15:33:59.965Z</time></trkpt><trkpt lat="45.8839224" lon="10.1952765"><ele>240.0</ele><time>2026-04-25T15:34:00.996Z</time></trkpt><trkpt lat="45.8840221" lon="10.1955201"><ele>240.0</ele><time>2026-04-25T15:34:01.968Z</time></trkpt><trkpt lat="45.8841316" lon="10.1957646"><ele>240.0</ele><time>2026-04-25T15:34:02.986Z</time></trkpt><trkpt lat="45.8842447" lon="10.1959983"><ele>238.33333333333331</ele><time>2026-04-25T15:34:03.993Z</time></trkpt><trkpt lat="45.8843632" lon="10.196212"><ele>236.66666666666666</ele><time>2026-04-25T15:34:04.985Z</time></trkpt><trkpt lat="45.8844898" lon="10.1964061"><ele>235.0</ele><time>2026-04-25T15:34:05.995Z</time></trkpt><trkpt lat="45.8846165" lon="10.1965791"><ele>235.0</ele><time>2026-04-25T15:34:06.967Z</time></trkpt><trkpt lat="45.8847451" lon="10.1967431"><ele>235.0</ele><time>2026-04-25T15:34:07.967Z</time></trkpt><trkpt lat="45.8848828" lon="10.1969047"><ele>235.0</ele><time>2026-04-25T15:34:08.988Z</time></trkpt><trkpt lat="45.885027" lon="10.1970504"><ele>232.33333333333331</ele><time>2026-04-25T15:34:09.981Z</time></trkpt><trkpt lat="45.885184" lon="10.1971924"><ele>229.66666666666669</ele><time>2026-04-25T15:34:10.977Z</time></trkpt><trkpt lat="45.8853498" lon="10.1973266"><ele>227.0</ele><time>2026-04-25T15:34:11.982Z</time></trkpt><trkpt lat="45.8855297" lon="10.1974482"><ele>226.66666666666669</ele><time>2026-04-25T15:34:12.982Z</time></trkpt><trkpt lat="45.8857104" lon="10.1975566"><ele>226.33333333333331</ele><time>2026-04-25T15:34:13.961Z</time></trkpt><trkpt lat="45.8859125" lon="10.1976663"><ele>226.0</ele><time>2026-04-25T15:34:14.999Z</time></trkpt><trkpt lat="45.8861039" lon="10.1977707"><ele>224.66666666666666</ele><time>2026-04-25T15:34:15.981Z</time></trkpt><trkpt lat="45.8862948" lon="10.1978724"><ele>223.33333333333331</ele><time>2026-04-25T15:34:16.964Z</time></trkpt><trkpt lat="45.8864918" lon="10.197982"><ele>222.0</ele><time>2026-04-25T15:34:17.991Z</time></trkpt><trkpt lat="45.8866744" lon="10.1980819"><ele>221.66666666666669</ele><time>2026-04-25T15:34:18.952Z</time></trkpt><trkpt lat="45.8868639" lon="10.1981836"><ele>221.33333333333334</ele><time>2026-04-25T15:34:19.98Z</time></trkpt><trkpt lat="45.8870505" lon="10.198281"><ele>221.0</ele><time>2026-04-25T15:34:20.997Z</time></trkpt><trkpt lat="45.8872308" lon="10.1983757"><ele>221.0</ele><time>2026-04-25T15:34:21.998Z</time></trkpt><trkpt lat="45.8874143" lon="10.1984724"><ele>221.0</ele><time>2026-04-25T15:34:22.99Z</time></trkpt><trkpt lat="45.8876" lon="10.1985695"><ele>221.0</ele><time>2026-04-25T15:34:23.992Z</time></trkpt><trkpt lat="45.887781" lon="10.1986678"><ele>221.0</ele><time>2026-04-25T15:34:24.979Z</time></trkpt><trkpt lat="45.8879662" lon="10.1987654"><ele>221.0</ele><time>2026-04-25T15:34:25.989Z</time></trkpt><trkpt lat="45.8881488" lon="10.1988659"><ele>221.0</ele><time>2026-04-25T15:34:26.978Z</time></trkpt><trkpt lat="45.8883369" lon="10.1989684"><ele>221.33333333333334</ele><time>2026-04-25T15:34:27.985Z</time></trkpt><trkpt lat="45.8885207" lon="10.19907"><ele>221.66666666666669</ele><time>2026-04-25T15:34:28.964Z</time></trkpt><trkpt lat="45.8887193" lon="10.1991732"><ele>222.0</ele><time>2026-04-25T15:34:29.993Z</time></trkpt><trkpt lat="45.8889066" lon="10.1992763"><ele>222.0</ele><time>2026-04-25T15:34:30.962Z</time></trkpt><trkpt lat="45.8891003" lon="10.1993842"><ele>222.0</ele><time>2026-04-25T15:34:31.99Z</time></trkpt><trkpt lat="45.8892807" lon="10.1994796"><ele>222.0</ele><time>2026-04-25T15:34:32.96Z</time></trkpt><trkpt lat="45.8894605" lon="10.1995814"><ele>222.66666666666669</ele><time>2026-04-25T15:34:33.987Z</time></trkpt><trkpt lat="45.8896298" lon="10.1996804"><ele>223.33333333333334</ele><time>2026-04-25T15:34:34.967Z</time></trkpt><trkpt lat="45.8898096" lon="10.1997896"><ele>224.0</ele><time>2026-04-25T15:34:35.996Z</time></trkpt><trkpt lat="45.8899805" lon="10.1999071"><ele>223.66666666666669</ele><time>2026-04-25T15:34:36.989Z</time></trkpt><trkpt lat="45.8901535" lon="10.2000362"><ele>223.33333333333331</ele><time>2026-04-25T15:34:37.995Z</time></trkpt><trkpt lat="45.8903254" lon="10.2001695"><ele>223.0</ele><time>2026-04-25T15:34:38.99Z</time></trkpt><trkpt lat="45.8904926" lon="10.2003111"><ele>223.0</ele><time>2026-04-25T15:34:39.975Z</time></trkpt><trkpt lat="45.8906637" lon="10.2004664"><ele>223.0</ele><time>2026-04-25T15:34:40.968Z</time></trkpt><trkpt lat="45.8908358" lon="10.2006293"><ele>223.0</ele><time>2026-04-25T15:34:41.964Z</time></trkpt><trkpt lat="45.8910107" lon="10.2008061"><ele>222.66666666666666</ele><time>2026-04-25T15:34:42.994Z</time></trkpt><trkpt lat="45.8911775" lon="10.2009822"><ele>222.33333333333331</ele><time>2026-04-25T15:34:43.967Z</time></trkpt><trkpt lat="45.8913509" lon="10.2011646"><ele>222.0</ele><time>2026-04-25T15:34:44.972Z</time></trkpt><trkpt lat="45.8915263" lon="10.2013538"><ele>222.5</ele><time>2026-04-25T15:34:45.968Z</time></trkpt><trkpt lat="45.8916988" lon="10.2015495"><ele>223.0</ele><time>2026-04-25T15:34:46.959Z</time></trkpt><trkpt lat="45.8918738" lon="10.2017643"><ele>225.0</ele><time>2026-04-25T15:34:47.987Z</time></trkpt><trkpt lat="45.8920484" lon="10.2019868"><ele>227.0</ele><time>2026-04-25T15:34:48.989Z</time></trkpt><trkpt lat="45.8922225" lon="10.2022175"><ele>225.5</ele><time>2026-04-25T15:34:49.995Z</time></trkpt><trkpt lat="45.8923989" lon="10.2024393"><ele>224.0</ele><time>2026-04-25T15:34:50.997Z</time></trkpt><trkpt lat="45.8925703" lon="10.2026568"><ele>224.33333333333334</ele><time>2026-04-25T15:34:51.991Z</time></trkpt><trkpt lat="45.8927366" lon="10.2028627"><ele>224.66666666666669</ele><time>2026-04-25T15:34:52.981Z</time></trkpt><trkpt lat="45.8928965" lon="10.2030592"><ele>225.0</ele><time>2026-04-25T15:34:53.968Z</time></trkpt><trkpt lat="45.8930584" lon="10.2032607"><ele>225.0</ele><time>2026-04-25T15:34:54.998Z</time></trkpt><trkpt lat="45.8932107" lon="10.2034575"><ele>225.0</ele><time>2026-04-25T15:34:55.98Z</time></trkpt><trkpt lat="45.8933705" lon="10.2036538"><ele>225.0</ele><time>2026-04-25T15:34:56.992Z</time></trkpt><trkpt lat="45.8935282" lon="10.2038518"><ele>224.66666666666669</ele><time>2026-04-25T15:34:57.986Z</time></trkpt><trkpt lat="45.8936896" lon="10.2040562"><ele>224.33333333333334</ele><time>2026-04-25T15:34:59.004Z</time></trkpt><trkpt lat="45.8938433" lon="10.2042576"><ele>224.0</ele><time>2026-04-25T15:34:59.982Z</time></trkpt><trkpt lat="45.894006" lon="10.2044646"><ele>224.0</ele><time>2026-04-25T15:35:00.999Z</time></trkpt><trkpt lat="45.894166" lon="10.2046707"><ele>224.0</ele><time>2026-04-25T15:35:01.983Z</time></trkpt><trkpt lat="45.8943351" lon="10.2048843"><ele>224.0</ele><time>2026-04-25T15:35:02.993Z</time></trkpt><trkpt lat="45.8944983" lon="10.2050962"><ele>224.0</ele><time>2026-04-25T15:35:03.968Z</time></trkpt><trkpt lat="45.8946704" lon="10.2053165"><ele>224.0</ele><time>2026-04-25T15:35:04.971Z</time></trkpt><trkpt lat="45.8948429" lon="10.2055349"><ele>224.0</ele><time>2026-04-25T15:35:05.962Z</time></trkpt><trkpt lat="45.8950213" lon="10.2057614"><ele>224.0</ele><time>2026-04-25T15:35:06.985Z</time></trkpt><trkpt lat="45.8951935" lon="10.2059817"><ele>230.5</ele><time>2026-04-25T15:35:07.984Z</time></trkpt><trkpt lat="45.8953683" lon="10.2062072"><ele>237.0</ele><time>2026-04-25T15:35:08.997Z</time></trkpt><trkpt lat="45.8955345" lon="10.2064331"><ele>230.0</ele><time>2026-04-25T15:35:09.986Z</time></trkpt><trkpt lat="45.895701" lon="10.2066733"><ele>223.0</ele><time>2026-04-25T15:35:10.992Z</time></trkpt><trkpt lat="45.8958655" lon="10.2069119"><ele>228.0</ele><time>2026-04-25T15:35:11.981Z</time></trkpt><trkpt lat="45.8960299" lon="10.2071511"><ele>233.0</ele><time>2026-04-25T15:35:12.987Z</time></trkpt><trkpt lat="45.8961866" lon="10.2073848"><ele>233.0</ele><time>2026-04-25T15:35:13.978Z</time></trkpt><trkpt lat="45.8963381" lon="10.2076179"><ele>233.0</ele><time>2026-04-25T15:35:14.99Z</time></trkpt><trkpt lat="45.8964775" lon="10.2078369"><ele>233.0</ele><time>2026-04-25T15:35:15.954Z</time></trkpt><trkpt lat="45.8966214" lon="10.2080697"><ele>235.66666666666669</ele><time>2026-04-25T15:35:16.985Z</time></trkpt><trkpt lat="45.8967583" lon="10.2082972"><ele>238.33333333333331</ele><time>2026-04-25T15:35:17.985Z</time></trkpt><trkpt lat="45.8968971" lon="10.2085295"><ele>241.0</ele><time>2026-04-25T15:35:18.991Z</time></trkpt><trkpt lat="45.8970378" lon="10.2087562"><ele>241.0</ele><time>2026-04-25T15:35:19.989Z</time></trkpt><trkpt lat="45.8971794" lon="10.2089874"><ele>241.0</ele><time>2026-04-25T15:35:20.999Z</time></trkpt><trkpt lat="45.8973147" lon="10.2092094"><ele>241.0</ele><time>2026-04-25T15:35:21.966Z</time></trkpt><trkpt lat="45.8974656" lon="10.209452"><ele>241.0</ele><time>2026-04-25T15:35:23.012Z</time></trkpt><trkpt lat="45.8976031" lon="10.2096722"><ele>241.0</ele><time>2026-04-25T15:35:23.973Z</time></trkpt><trkpt lat="45.8977486" lon="10.2099124"><ele>241.0</ele><time>2026-04-25T15:35:25.006Z</time></trkpt><trkpt lat="45.8978875" lon="10.2101426"><ele>236.66666666666666</ele><time>2026-04-25T15:35:26.001Z</time></trkpt><trkpt lat="45.8980236" lon="10.2103674"><ele>232.33333333333331</ele><time>2026-04-25T15:35:26.962Z</time></trkpt><trkpt lat="45.8981693" lon="10.2106086"><ele>228.0</ele><time>2026-04-25T15:35:27.993Z</time></trkpt><trkpt lat="45.8983126" lon="10.2108434"><ele>227.66666666666669</ele><time>2026-04-25T15:35:28.999Z</time></trkpt><trkpt lat="45.8984553" lon="10.2110786"><ele>227.33333333333334</ele><time>2026-04-25T15:35:29.992Z</time></trkpt><trkpt lat="45.8986007" lon="10.2113155"><ele>227.0</ele><time>2026-04-25T15:35:30.997Z</time></trkpt><trkpt lat="45.8987444" lon="10.2115517"><ele>227.0</ele><time>2026-04-25T15:35:32.001Z</time></trkpt><trkpt lat="45.8988907" lon="10.211791"><ele>227.0</ele><time>2026-04-25T15:35:33.002Z</time></trkpt><trkpt lat="45.8990371" lon="10.2120303"><ele>227.0</ele><time>2026-04-25T15:35:33.997Z</time></trkpt><trkpt lat="45.8991851" lon="10.2122774"><ele>227.0</ele><time>2026-04-25T15:35:35.003Z</time></trkpt><trkpt lat="45.8993278" lon="10.2125136"><ele>227.0</ele><time>2026-04-25T15:35:35.959Z</time></trkpt><trkpt lat="45.8994836" lon="10.2127686"><ele>227.0</ele><time>2026-04-25T15:35:37Z</time></trkpt><trkpt lat="45.8996286" lon="10.2130108"><ele>227.0</ele><time>2026-04-25T15:35:37.993Z</time></trkpt><trkpt lat="45.8997748" lon="10.2132496"><ele>227.0</ele><time>2026-04-25T15:35:38.985Z</time></trkpt><trkpt lat="45.8999179" lon="10.2134838"><ele>227.33333333333334</ele><time>2026-04-25T15:35:39.973Z</time></trkpt><trkpt lat="45.9000626" lon="10.2137134"><ele>227.66666666666669</ele><time>2026-04-25T15:35:40.97Z</time></trkpt><trkpt lat="45.9002097" lon="10.2139483"><ele>228.0</ele><time>2026-04-25T15:35:41.996Z</time></trkpt><trkpt lat="45.9003502" lon="10.2141804"><ele>228.0</ele><time>2026-04-25T15:35:43Z</time></trkpt><trkpt lat="45.9004916" lon="10.2144147"><ele>228.0</ele><time>2026-04-25T15:35:44.013Z</time></trkpt><trkpt lat="45.900628" lon="10.2146388"><ele>228.0</ele><time>2026-04-25T15:35:44.996Z</time></trkpt><trkpt lat="45.9007593" lon="10.2148537"><ele>228.0</ele><time>2026-04-25T15:35:45.967Z</time></trkpt><trkpt lat="45.9008922" lon="10.2150716"><ele>228.0</ele><time>2026-04-25T15:35:46.962Z</time></trkpt><trkpt lat="45.9010247" lon="10.2152894"><ele>228.0</ele><time>2026-04-25T15:35:47.999Z</time></trkpt><trkpt lat="45.9011513" lon="10.215494"><ele>228.66666666666669</ele><time>2026-04-25T15:35:48.975Z</time></trkpt><trkpt lat="45.9012856" lon="10.2157118"><ele>229.33333333333334</ele><time>2026-04-25T15:35:50.005Z</time></trkpt><trkpt lat="45.9014148" lon="10.2159199"><ele>230.0</ele><time>2026-04-25T15:35:51.007Z</time></trkpt><trkpt lat="45.9015444" lon="10.216129"><ele>230.0</ele><time>2026-04-25T15:35:52Z</time></trkpt><trkpt lat="45.9016719" lon="10.2163349"><ele>230.0</ele><time>2026-04-25T15:35:52.998Z</time></trkpt><trkpt lat="45.9017994" lon="10.2165485"><ele>230.0</ele><time>2026-04-25T15:35:53.996Z</time></trkpt><trkpt lat="45.9019302" lon="10.2167599"><ele>230.0</ele><time>2026-04-25T15:35:55Z</time></trkpt><trkpt lat="45.9020593" lon="10.2169674"><ele>230.0</ele><time>2026-04-25T15:35:55.97Z</time></trkpt><trkpt lat="45.9021896" lon="10.2171831"><ele>230.0</ele><time>2026-04-25T15:35:56.965Z</time></trkpt><trkpt lat="45.9023283" lon="10.2174146"><ele>230.0</ele><time>2026-04-25T15:35:58.014Z</time></trkpt><trkpt lat="45.9024602" lon="10.2176278"><ele>230.0</ele><time>2026-04-25T15:35:58.995Z</time></trkpt><trkpt lat="45.9025891" lon="10.2178446"><ele>230.0</ele><time>2026-04-25T15:35:59.989Z</time></trkpt><trkpt lat="45.902716" lon="10.2180601"><ele>231.33333333333334</ele><time>2026-04-25T15:36:00.959Z</time></trkpt><trkpt lat="45.9028501" lon="10.2182806"><ele>232.66666666666669</ele><time>2026-04-25T15:36:01.96Z</time></trkpt><trkpt lat="45.902989" lon="10.2185107"><ele>234.0</ele><time>2026-04-25T15:36:03.006Z</time></trkpt><trkpt lat="45.9031225" lon="10.2187288"><ele>234.0</ele><time>2026-04-25T15:36:03.996Z</time></trkpt><trkpt lat="45.9032524" lon="10.2189468"><ele>234.0</ele><time>2026-04-25T15:36:04.97Z</time></trkpt><trkpt lat="45.903389" lon="10.2191715"><ele>234.0</ele><time>2026-04-25T15:36:05.981Z</time></trkpt><trkpt lat="45.9035223" lon="10.2193815"><ele>233.33333333333331</ele><time>2026-04-25T15:36:06.958Z</time></trkpt><trkpt lat="45.9036623" lon="10.2196036"><ele>232.66666666666666</ele><time>2026-04-25T15:36:08.002Z</time></trkpt><trkpt lat="45.9037896" lon="10.2198169"><ele>232.0</ele><time>2026-04-25T15:36:08.995Z</time></trkpt><trkpt lat="45.9039147" lon="10.2200263"><ele>232.0</ele><time>2026-04-25T15:36:09.991Z</time></trkpt><trkpt lat="45.9040453" lon="10.220243"><ele>232.0</ele><time>2026-04-25T15:36:11.003Z</time></trkpt><trkpt lat="45.9041736" lon="10.2204486"><ele>232.0</ele><time>2026-04-25T15:36:11.985Z</time></trkpt><trkpt lat="45.9043035" lon="10.2206674"><ele>233.0</ele><time>2026-04-25T15:36:12.989Z</time></trkpt><trkpt lat="45.9044335" lon="10.2208812"><ele>234.0</ele><time>2026-04-25T15:36:13.968Z</time></trkpt><trkpt lat="45.9045697" lon="10.2211078"><ele>235.0</ele><time>2026-04-25T15:36:14.998Z</time></trkpt><trkpt lat="45.9047017" lon="10.2213267"><ele>234.33333333333331</ele><time>2026-04-25T15:36:15.986Z</time></trkpt><trkpt lat="45.9048402" lon="10.2215523"><ele>233.66666666666669</ele><time>2026-04-25T15:36:17.004Z</time></trkpt><trkpt lat="45.904973" lon="10.2217708"><ele>233.0</ele><time>2026-04-25T15:36:17.971Z</time></trkpt><trkpt lat="45.9051122" lon="10.2219889"><ele>233.0</ele><time>2026-04-25T15:36:18.963Z</time></trkpt><trkpt lat="45.9052581" lon="10.2222075"><ele>233.0</ele><time>2026-04-25T15:36:19.973Z</time></trkpt><trkpt lat="45.9054079" lon="10.2224115"><ele>233.0</ele><time>2026-04-25T15:36:20.999Z</time></trkpt><trkpt lat="45.905545" lon="10.2225956"><ele>233.0</ele><time>2026-04-25T15:36:21.97Z</time></trkpt><trkpt lat="45.9056906" lon="10.2227855"><ele>233.0</ele><time>2026-04-25T15:36:23.013Z</time></trkpt><trkpt lat="45.9058242" lon="10.2229584"><ele>233.0</ele><time>2026-04-25T15:36:23.985Z</time></trkpt><trkpt lat="45.9059664" lon="10.2231274"><ele>233.0</ele><time>2026-04-25T15:36:24.988Z</time></trkpt><trkpt lat="45.9061023" lon="10.2232874"><ele>233.0</ele><time>2026-04-25T15:36:25.958Z</time></trkpt><trkpt lat="45.9062419" lon="10.2234458"><ele>233.0</ele><time>2026-04-25T15:36:26.969Z</time></trkpt><trkpt lat="45.9063855" lon="10.2236029"><ele>233.0</ele><time>2026-04-25T15:36:27.993Z</time></trkpt><trkpt lat="45.9065249" lon="10.2237503"><ele>233.0</ele><time>2026-04-25T15:36:28.969Z</time></trkpt><trkpt lat="45.9066768" lon="10.223908"><ele>233.0</ele><time>2026-04-25T15:36:29.995Z</time></trkpt><trkpt lat="45.9068255" lon="10.2240616"><ele>233.66666666666669</ele><time>2026-04-25T15:36:31.007Z</time></trkpt><trkpt lat="45.9069729" lon="10.2242117"><ele>234.33333333333331</ele><time>2026-04-25T15:36:31.999Z</time></trkpt><trkpt lat="45.9071188" lon="10.2243585"><ele>235.0</ele><time>2026-04-25T15:36:32.964Z</time></trkpt><trkpt lat="45.9072712" lon="10.2245133"><ele>235.0</ele><time>2026-04-25T15:36:33.968Z</time></trkpt><trkpt lat="45.9074226" lon="10.2246688"><ele>235.0</ele><time>2026-04-25T15:36:34.973Z</time></trkpt><trkpt lat="45.9075765" lon="10.224828"><ele>235.0</ele><time>2026-04-25T15:36:35.974Z</time></trkpt><trkpt lat="45.9077367" lon="10.2249936"><ele>235.0</ele><time>2026-04-25T15:36:36.987Z</time></trkpt><trkpt lat="45.9078955" lon="10.2251586"><ele>235.0</ele><time>2026-04-25T15:36:37.998Z</time></trkpt><trkpt lat="45.9080478" lon="10.2253197"><ele>235.0</ele><time>2026-04-25T15:36:38.989Z</time></trkpt><trkpt lat="45.9082016" lon="10.2254796"><ele>235.0</ele><time>2026-04-25T15:36:39.997Z</time></trkpt><trkpt lat="45.9083477" lon="10.2256346"><ele>235.0</ele><time>2026-04-25T15:36:41.001Z</time></trkpt><trkpt lat="45.9084902" lon="10.2257848"><ele>235.0</ele><time>2026-04-25T15:36:41.99Z</time></trkpt><trkpt lat="45.908635" lon="10.2259352"><ele>235.66666666666666</ele><time>2026-04-25T15:36:42.998Z</time></trkpt><trkpt lat="45.908776" lon="10.2260759"><ele>236.33333333333331</ele><time>2026-04-25T15:36:43.966Z</time></trkpt><trkpt lat="45.9089246" lon="10.2262265"><ele>237.0</ele><time>2026-04-25T15:36:45.006Z</time></trkpt><trkpt lat="45.909065" lon="10.2263713"><ele>236.66666666666669</ele><time>2026-04-25T15:36:45.997Z</time></trkpt><trkpt lat="45.9092056" lon="10.2265187"><ele>236.33333333333334</ele><time>2026-04-25T15:36:46.997Z</time></trkpt><trkpt lat="45.9093479" lon="10.2266642"><ele>236.0</ele><time>2026-04-25T15:36:47.999Z</time></trkpt><trkpt lat="45.9094982" lon="10.2268129"><ele>236.66666666666669</ele><time>2026-04-25T15:36:49.011Z</time></trkpt><trkpt lat="45.909636" lon="10.2269584"><ele>237.33333333333331</ele><time>2026-04-25T15:36:49.964Z</time></trkpt><trkpt lat="45.9097883" lon="10.2271167"><ele>238.0</ele><time>2026-04-25T15:36:51.006Z</time></trkpt><trkpt lat="45.9099406" lon="10.2272723"><ele>237.33333333333331</ele><time>2026-04-25T15:36:52.008Z</time></trkpt><trkpt lat="45.9100901" lon="10.2274299"><ele>236.66666666666669</ele><time>2026-04-25T15:36:52.987Z</time></trkpt><trkpt lat="45.9102438" lon="10.2275921"><ele>236.0</ele><time>2026-04-25T15:36:54.001Z</time></trkpt><trkpt lat="45.9103995" lon="10.2277523"><ele>236.0</ele><time>2026-04-25T15:36:55.022Z</time></trkpt><trkpt lat="45.9105493" lon="10.227905"><ele>236.0</ele><time>2026-04-25T15:36:55.993Z</time></trkpt><trkpt lat="45.910699" lon="10.2280624"><ele>236.0</ele><time>2026-04-25T15:36:56.986Z</time></trkpt><trkpt lat="45.9108507" lon="10.2282173"><ele>236.66666666666669</ele><time>2026-04-25T15:36:58.006Z</time></trkpt><trkpt lat="45.9109977" lon="10.2283656"><ele>237.33333333333331</ele><time>2026-04-25T15:36:58.99Z</time></trkpt><trkpt lat="45.9111455" lon="10.2285207"><ele>238.0</ele><time>2026-04-25T15:36:59.995Z</time></trkpt><trkpt lat="45.9112904" lon="10.2286759"><ele>238.0</ele><time>2026-04-25T15:37:00.98Z</time></trkpt><trkpt lat="45.9114431" lon="10.2288313"><ele>238.0</ele><time>2026-04-25T15:37:02.004Z</time></trkpt><trkpt lat="45.9115924" lon="10.2289832"><ele>238.0</ele><time>2026-04-25T15:37:02.986Z</time></trkpt><trkpt lat="45.911745" lon="10.2291384"><ele>237.66666666666666</ele><time>2026-04-25T15:37:04.011Z</time></trkpt><trkpt lat="45.9118883" lon="10.2292843"><ele>237.33333333333331</ele><time>2026-04-25T15:37:04.975Z</time></trkpt><trkpt lat="45.9120404" lon="10.2294404"><ele>237.0</ele><time>2026-04-25T15:37:05.981Z</time></trkpt><trkpt lat="45.9121927" lon="10.2295966"><ele>237.0</ele><time>2026-04-25T15:37:06.971Z</time></trkpt><trkpt lat="45.9123502" lon="10.229761"><ele>237.0</ele><time>2026-04-25T15:37:08Z</time></trkpt><trkpt lat="45.9124988" lon="10.2299169"><ele>237.0</ele><time>2026-04-25T15:37:08.971Z</time></trkpt><trkpt lat="45.9126527" lon="10.2300778"><ele>237.33333333333331</ele><time>2026-04-25T15:37:09.999Z</time></trkpt><trkpt lat="45.9128005" lon="10.2302276"><ele>237.66666666666666</ele><time>2026-04-25T15:37:10.963Z</time></trkpt><trkpt lat="45.9129609" lon="10.2303928"><ele>238.0</ele><time>2026-04-25T15:37:12.004Z</time></trkpt><trkpt lat="45.9131144" lon="10.2305519"><ele>238.33333333333331</ele><time>2026-04-25T15:37:12.996Z</time></trkpt><trkpt lat="45.9132738" lon="10.230713"><ele>238.66666666666669</ele><time>2026-04-25T15:37:13.994Z</time></trkpt><trkpt lat="45.9134312" lon="10.2308764"><ele>239.0</ele><time>2026-04-25T15:37:14.985Z</time></trkpt><trkpt lat="45.9135948" lon="10.2310471"><ele>239.33333333333334</ele><time>2026-04-25T15:37:15.998Z</time></trkpt><trkpt lat="45.9137591" lon="10.2312166"><ele>239.66666666666669</ele><time>2026-04-25T15:37:16.999Z</time></trkpt><trkpt lat="45.9139194" lon="10.2313848"><ele>240.0</ele><time>2026-04-25T15:37:17.992Z</time></trkpt><trkpt lat="45.9140829" lon="10.2315557"><ele>240.33333333333331</ele><time>2026-04-25T15:37:19.003Z</time></trkpt><trkpt lat="45.9142415" lon="10.2317222"><ele>240.66666666666666</ele><time>2026-04-25T15:37:19.996Z</time></trkpt><trkpt lat="45.9144048" lon="10.2318911"><ele>241.0</ele><time>2026-04-25T15:37:21.012Z</time></trkpt><trkpt lat="45.914567" lon="10.2320518"><ele>241.0</ele><time>2026-04-25T15:37:21.99Z</time></trkpt><trkpt lat="45.9147321" lon="10.2322221"><ele>241.0</ele><time>2026-04-25T15:37:23.002Z</time></trkpt><trkpt lat="45.9148908" lon="10.2323827"><ele>241.0</ele><time>2026-04-25T15:37:23.969Z</time></trkpt><trkpt lat="45.9150582" lon="10.2325517"><ele>241.0</ele><time>2026-04-25T15:37:24.982Z</time></trkpt><trkpt lat="45.915227" lon="10.23272"><ele>241.0</ele><time>2026-04-25T15:37:25.996Z</time></trkpt><trkpt lat="45.9153897" lon="10.2328853"><ele>241.0</ele><time>2026-04-25T15:37:26.961Z</time></trkpt><trkpt lat="45.915558" lon="10.2330593"><ele>241.33333333333331</ele><time>2026-04-25T15:37:27.97Z</time></trkpt><trkpt lat="45.9157276" lon="10.2332392"><ele>241.66666666666669</ele><time>2026-04-25T15:37:28.986Z</time></trkpt><trkpt lat="45.9158924" lon="10.2334082"><ele>242.0</ele><time>2026-04-25T15:37:29.965Z</time></trkpt><trkpt lat="45.916064" lon="10.2335842"><ele>242.0</ele><time>2026-04-25T15:37:30.988Z</time></trkpt><trkpt lat="45.9162304" lon="10.2337582"><ele>242.0</ele><time>2026-04-25T15:37:31.994Z</time></trkpt><trkpt lat="45.9163951" lon="10.2339255"><ele>242.0</ele><time>2026-04-25T15:37:32.965Z</time></trkpt><trkpt lat="45.9165633" lon="10.2341067"><ele>241.66666666666669</ele><time>2026-04-25T15:37:34Z</time></trkpt><trkpt lat="45.9167301" lon="10.2342833"><ele>241.33333333333331</ele><time>2026-04-25T15:37:35.004Z</time></trkpt><trkpt lat="45.916897" lon="10.2344524"><ele>241.0</ele><time>2026-04-25T15:37:36.002Z</time></trkpt><trkpt lat="45.917059" lon="10.2346165"><ele>241.0</ele><time>2026-04-25T15:37:36.969Z</time></trkpt><trkpt lat="45.9172304" lon="10.2347894"><ele>241.0</ele><time>2026-04-25T15:37:37.997Z</time></trkpt><trkpt lat="45.9173924" lon="10.2349543"><ele>241.0</ele><time>2026-04-25T15:37:38.97Z</time></trkpt><trkpt lat="45.9175573" lon="10.235126"><ele>242.0</ele><time>2026-04-25T15:37:39.975Z</time></trkpt><trkpt lat="45.9177292" lon="10.2352988"><ele>243.0</ele><time>2026-04-25T15:37:40.995Z</time></trkpt><trkpt lat="45.9178975" lon="10.2354747"><ele>244.0</ele><time>2026-04-25T15:37:42.007Z</time></trkpt><trkpt lat="45.9180667" lon="10.2356447"><ele>244.0</ele><time>2026-04-25T15:37:42.991Z</time></trkpt><trkpt lat="45.9182407" lon="10.2358162"><ele>244.0</ele><time>2026-04-25T15:37:44.007Z</time></trkpt><trkpt lat="45.9184006" lon="10.2359828"><ele>244.0</ele><time>2026-04-25T15:37:44.966Z</time></trkpt><trkpt lat="45.9185774" lon="10.236164"><ele>244.33333333333331</ele><time>2026-04-25T15:37:46.006Z</time></trkpt><trkpt lat="45.9187447" lon="10.2363308"><ele>244.66666666666669</ele><time>2026-04-25T15:37:46.993Z</time></trkpt><trkpt lat="45.9189134" lon="10.236506"><ele>245.0</ele><time>2026-04-25T15:37:48.019Z</time></trkpt><trkpt lat="45.9190723" lon="10.236677"><ele>245.66666666666669</ele><time>2026-04-25T15:37:48.988Z</time></trkpt><trkpt lat="45.9192347" lon="10.2368518"><ele>246.33333333333331</ele><time>2026-04-25T15:37:49.986Z</time></trkpt><trkpt lat="45.9193993" lon="10.2370223"><ele>247.0</ele><time>2026-04-25T15:37:50.976Z</time></trkpt><trkpt lat="45.9195719" lon="10.237196"><ele>247.33333333333331</ele><time>2026-04-25T15:37:51.999Z</time></trkpt><trkpt lat="45.9197348" lon="10.2373634"><ele>247.66666666666669</ele><time>2026-04-25T15:37:52.966Z</time></trkpt><trkpt lat="45.9199044" lon="10.2375394"><ele>248.0</ele><time>2026-04-25T15:37:53.996Z</time></trkpt><trkpt lat="45.9200633" lon="10.2377086"><ele>248.0</ele><time>2026-04-25T15:37:54.981Z</time></trkpt><trkpt lat="45.9202299" lon="10.2378801"><ele>248.0</ele><time>2026-04-25T15:37:56.001Z</time></trkpt><trkpt lat="45.9203957" lon="10.2380461"><ele>248.0</ele><time>2026-04-25T15:37:56.996Z</time></trkpt><trkpt lat="45.9205631" lon="10.2382147"><ele>248.0</ele><time>2026-04-25T15:37:58.007Z</time></trkpt><trkpt lat="45.9207196" lon="10.2383814"><ele>248.0</ele><time>2026-04-25T15:37:58.972Z</time></trkpt><trkpt lat="45.9208873" lon="10.2385565"><ele>248.0</ele><time>2026-04-25T15:37:59.993Z</time></trkpt><trkpt lat="45.9210463" lon="10.238719"><ele>248.0</ele><time>2026-04-25T15:38:00.962Z</time></trkpt><trkpt lat="45.9212157" lon="10.2388928"><ele>248.0</ele><time>2026-04-25T15:38:02.014Z</time></trkpt><trkpt lat="45.9213681" lon="10.2390498"><ele>248.0</ele><time>2026-04-25T15:38:02.997Z</time></trkpt><trkpt lat="45.9215259" lon="10.2392053"><ele>248.33333333333334</ele><time>2026-04-25T15:38:04.01Z</time></trkpt><trkpt lat="45.921678" lon="10.239359"><ele>248.66666666666669</ele><time>2026-04-25T15:38:04.997Z</time></trkpt><trkpt lat="45.9218379" lon="10.2395142"><ele>249.0</ele><time>2026-04-25T15:38:06.008Z</time></trkpt><trkpt lat="45.9220007" lon="10.2396646"><ele>249.0</ele><time>2026-04-25T15:38:06.996Z</time></trkpt><trkpt lat="45.9221633" lon="10.2398087"><ele>249.0</ele><time>2026-04-25T15:38:07.974Z</time></trkpt><trkpt lat="45.9223392" lon="10.2399513"><ele>249.0</ele><time>2026-04-25T15:38:08.986Z</time></trkpt><trkpt lat="45.9225121" lon="10.2400865"><ele>249.33333333333331</ele><time>2026-04-25T15:38:09.983Z</time></trkpt><trkpt lat="45.9226919" lon="10.2402301"><ele>249.66666666666666</ele><time>2026-04-25T15:38:11Z</time></trkpt><trkpt lat="45.9228716" lon="10.2403774"><ele>250.0</ele><time>2026-04-25T15:38:12.012Z</time></trkpt><trkpt lat="45.9230504" lon="10.2405216"><ele>250.0</ele><time>2026-04-25T15:38:13.007Z</time></trkpt><trkpt lat="45.9232291" lon="10.2406612"><ele>250.0</ele><time>2026-04-25T15:38:13.996Z</time></trkpt><trkpt lat="45.9234032" lon="10.2408009"><ele>250.0</ele><time>2026-04-25T15:38:14.966Z</time></trkpt><trkpt lat="45.9235911" lon="10.240956"><ele>250.0</ele><time>2026-04-25T15:38:16.007Z</time></trkpt><trkpt lat="45.9237684" lon="10.2411012"><ele>250.0</ele><time>2026-04-25T15:38:16.982Z</time></trkpt><trkpt lat="45.9239506" lon="10.2412497"><ele>250.0</ele><time>2026-04-25T15:38:17.988Z</time></trkpt><trkpt lat="45.9241296" lon="10.2413966"><ele>250.33333333333331</ele><time>2026-04-25T15:38:18.975Z</time></trkpt><trkpt lat="45.9243092" lon="10.2415418"><ele>250.66666666666669</ele><time>2026-04-25T15:38:19.968Z</time></trkpt><trkpt lat="45.9244984" lon="10.2416976"><ele>251.0</ele><time>2026-04-25T15:38:21.009Z</time></trkpt><trkpt lat="45.9246812" lon="10.2418483"><ele>251.0</ele><time>2026-04-25T15:38:22.014Z</time></trkpt><trkpt lat="45.92486" lon="10.2419922"><ele>251.0</ele><time>2026-04-25T15:38:22.991Z</time></trkpt><trkpt lat="45.9250423" lon="10.2421404"><ele>251.0</ele><time>2026-04-25T15:38:23.966Z</time></trkpt><trkpt lat="45.9252322" lon="10.242292"><ele>251.66666666666669</ele><time>2026-04-25T15:38:24.992Z</time></trkpt><trkpt lat="45.9254142" lon="10.2424385"><ele>252.33333333333331</ele><time>2026-04-25T15:38:25.969Z</time></trkpt><trkpt lat="45.9256004" lon="10.2425884"><ele>253.0</ele><time>2026-04-25T15:38:26.979Z</time></trkpt><trkpt lat="45.9257855" lon="10.2427395"><ele>253.0</ele><time>2026-04-25T15:38:27.989Z</time></trkpt><trkpt lat="45.9259752" lon="10.242889"><ele>253.0</ele><time>2026-04-25T15:38:29.007Z</time></trkpt><trkpt lat="45.9261543" lon="10.2430372"><ele>253.0</ele><time>2026-04-25T15:38:30.003Z</time></trkpt><trkpt lat="45.9263427" lon="10.243187"><ele>253.33333333333331</ele><time>2026-04-25T15:38:31.018Z</time></trkpt><trkpt lat="45.926524" lon="10.2433333"><ele>253.66666666666669</ele><time>2026-04-25T15:38:31.996Z</time></trkpt><trkpt lat="45.9267064" lon="10.2434796"><ele>254.0</ele><time>2026-04-25T15:38:32.986Z</time></trkpt><trkpt lat="45.9268942" lon="10.2436325"><ele>254.0</ele><time>2026-04-25T15:38:34.014Z</time></trkpt><trkpt lat="45.9270672" lon="10.2437687"><ele>254.0</ele><time>2026-04-25T15:38:34.962Z</time></trkpt><trkpt lat="45.9272485" lon="10.2439156"><ele>254.0</ele><time>2026-04-25T15:38:35.968Z</time></trkpt><trkpt lat="45.927428" lon="10.2440628"><ele>254.0</ele><time>2026-04-25T15:38:36.97Z</time></trkpt><trkpt lat="45.9276055" lon="10.2442123"><ele>254.0</ele><time>2026-04-25T15:38:38.006Z</time></trkpt><trkpt lat="45.9277641" lon="10.2443471"><ele>254.0</ele><time>2026-04-25T15:38:38.981Z</time></trkpt><trkpt lat="45.9279284" lon="10.2444947"><ele>254.0</ele><time>2026-04-25T15:38:40.006Z</time></trkpt><trkpt lat="45.9280837" lon="10.244643"><ele>254.0</ele><time>2026-04-25T15:38:41.006Z</time></trkpt><trkpt lat="45.9282344" lon="10.2448022"><ele>254.0</ele><time>2026-04-25T15:38:41.995Z</time></trkpt><trkpt lat="45.9283838" lon="10.2449703"><ele>254.66666666666669</ele><time>2026-04-25T15:38:42.995Z</time></trkpt><trkpt lat="45.9285328" lon="10.2451452"><ele>255.33333333333331</ele><time>2026-04-25T15:38:43.993Z</time></trkpt><trkpt lat="45.9286717" lon="10.2453266"><ele>256.0</ele><time>2026-04-25T15:38:44.987Z</time></trkpt><trkpt lat="45.9288066" lon="10.2455181"><ele>257.0</ele><time>2026-04-25T15:38:45.968Z</time></trkpt><trkpt lat="45.9289441" lon="10.2457305"><ele>258.0</ele><time>2026-04-25T15:38:47.004Z</time></trkpt><trkpt lat="45.9290752" lon="10.2459395"><ele>259.0</ele><time>2026-04-25T15:38:48.005Z</time></trkpt><trkpt lat="45.9292001" lon="10.2461571"><ele>258.0</ele><time>2026-04-25T15:38:48.999Z</time></trkpt><trkpt lat="45.9293178" lon="10.2463816"><ele>257.0</ele><time>2026-04-25T15:38:49.976Z</time></trkpt><trkpt lat="45.9294319" lon="10.246615"><ele>256.0</ele><time>2026-04-25T15:38:50.972Z</time></trkpt><trkpt lat="45.9295487" lon="10.2468632"><ele>256.0</ele><time>2026-04-25T15:38:51.998Z</time></trkpt><trkpt lat="45.9296589" lon="10.2471065"><ele>256.0</ele><time>2026-04-25T15:38:53.007Z</time></trkpt><trkpt lat="45.9297642" lon="10.2473507"><ele>256.0</ele><time>2026-04-25T15:38:54.008Z</time></trkpt><trkpt lat="45.9298655" lon="10.2475952"><ele>256.0</ele><time>2026-04-25T15:38:54.999Z</time></trkpt><trkpt lat="45.9299645" lon="10.2478357"><ele>256.0</ele><time>2026-04-25T15:38:55.967Z</time></trkpt><trkpt lat="45.9300652" lon="10.2480883"><ele>256.0</ele><time>2026-04-25T15:38:56.979Z</time></trkpt><trkpt lat="45.9301701" lon="10.2483434"><ele>256.0</ele><time>2026-04-25T15:38:57.999Z</time></trkpt><trkpt lat="45.9302737" lon="10.2485985"><ele>256.0</ele><time>2026-04-25T15:38:59.009Z</time></trkpt><trkpt lat="45.9303826" lon="10.2488598"><ele>256.0</ele><time>2026-04-25T15:39:00.015Z</time></trkpt><trkpt lat="45.9304962" lon="10.2491307"><ele>256.5</ele><time>2026-04-25T15:39:01.002Z</time></trkpt><trkpt lat="45.9306167" lon="10.2494262"><ele>257.0</ele><time>2026-04-25T15:39:02.015Z</time></trkpt><trkpt lat="45.9307419" lon="10.249737"><ele>256.5</ele><time>2026-04-25T15:39:03.027Z</time></trkpt><trkpt lat="45.9308656" lon="10.2500461"><ele>256.0</ele><time>2026-04-25T15:39:03.997Z</time></trkpt><trkpt lat="45.9309929" lon="10.2503611"><ele>255.0</ele><time>2026-04-25T15:39:04.972Z</time></trkpt><trkpt lat="45.9311235" lon="10.2506854"><ele>254.0</ele><time>2026-04-25T15:39:05.975Z</time></trkpt><trkpt lat="45.9312466" lon="10.2509931"><ele>254.0</ele><time>2026-04-25T15:39:06.966Z</time></trkpt><trkpt lat="45.9313712" lon="10.2512921"><ele>254.0</ele><time>2026-04-25T15:39:07.985Z</time></trkpt><trkpt lat="45.9314869" lon="10.2515721"><ele>254.33333333333334</ele><time>2026-04-25T15:39:08.996Z</time></trkpt><trkpt lat="45.9315935" lon="10.2518375"><ele>254.66666666666669</ele><time>2026-04-25T15:39:09.996Z</time></trkpt><trkpt lat="45.9316945" lon="10.2520844"><ele>255.0</ele><time>2026-04-25T15:39:10.974Z</time></trkpt><trkpt lat="45.9317951" lon="10.2523322"><ele>253.33333333333331</ele><time>2026-04-25T15:39:11.976Z</time></trkpt><trkpt lat="45.9318991" lon="10.2525882"><ele>251.66666666666666</ele><time>2026-04-25T15:39:12.989Z</time></trkpt><trkpt lat="45.9320094" lon="10.2528481"><ele>250.0</ele><time>2026-04-25T15:39:13.998Z</time></trkpt><trkpt lat="45.9321195" lon="10.2531069"><ele>251.33333333333331</ele><time>2026-04-25T15:39:14.985Z</time></trkpt><trkpt lat="45.9322267" lon="10.2533638"><ele>252.66666666666669</ele><time>2026-04-25T15:39:15.965Z</time></trkpt><trkpt lat="45.9323351" lon="10.2536334"><ele>254.0</ele><time>2026-04-25T15:39:16.974Z</time></trkpt><trkpt lat="45.9324471" lon="10.2539059"><ele>253.66666666666669</ele><time>2026-04-25T15:39:18.01Z</time></trkpt><trkpt lat="45.9325498" lon="10.2541529"><ele>253.33333333333331</ele><time>2026-04-25T15:39:18.987Z</time></trkpt><trkpt lat="45.9326556" lon="10.2544042"><ele>253.0</ele><time>2026-04-25T15:39:20.003Z</time></trkpt><trkpt lat="45.9327565" lon="10.2546522"><ele>253.0</ele><time>2026-04-25T15:39:21.016Z</time></trkpt><trkpt lat="45.9328584" lon="10.2548964"><ele>253.0</ele><time>2026-04-25T15:39:22.009Z</time></trkpt><trkpt lat="45.9329552" lon="10.2551466"><ele>253.0</ele><time>2026-04-25T15:39:22.993Z</time></trkpt><trkpt lat="45.933057" lon="10.255405"><ele>252.66666666666666</ele><time>2026-04-25T15:39:24.01Z</time></trkpt><trkpt lat="45.9331513" lon="10.2556609"><ele>252.33333333333331</ele><time>2026-04-25T15:39:24.989Z</time></trkpt><trkpt lat="45.9332458" lon="10.255918"><ele>252.0</ele><time>2026-04-25T15:39:26.007Z</time></trkpt><trkpt lat="45.9333366" lon="10.2561711"><ele>252.66666666666669</ele><time>2026-04-25T15:39:26.995Z</time></trkpt><trkpt lat="45.9334275" lon="10.2564364"><ele>253.33333333333334</ele><time>2026-04-25T15:39:28.007Z</time></trkpt><trkpt lat="45.9335151" lon="10.2566968"><ele>254.0</ele><time>2026-04-25T15:39:28.992Z</time></trkpt><trkpt lat="45.9336035" lon="10.2569705"><ele>254.33333333333334</ele><time>2026-04-25T15:39:30.005Z</time></trkpt><trkpt lat="45.9336889" lon="10.2572462"><ele>254.66666666666669</ele><time>2026-04-25T15:39:31.004Z</time></trkpt><trkpt lat="45.9337707" lon="10.2575109"><ele>255.0</ele><time>2026-04-25T15:39:31.978Z</time></trkpt><trkpt lat="45.9338532" lon="10.2577918"><ele>255.0</ele><time>2026-04-25T15:39:33Z</time></trkpt><trkpt lat="45.9339361" lon="10.2580701"><ele>255.0</ele><time>2026-04-25T15:39:34.015Z</time></trkpt><trkpt lat="45.9340152" lon="10.2583302"><ele>255.0</ele><time>2026-04-25T15:39:35.001Z</time></trkpt><trkpt lat="45.9340913" lon="10.2585892"><ele>254.66666666666669</ele><time>2026-04-25T15:39:35.998Z</time></trkpt><trkpt lat="45.9341682" lon="10.2588499"><ele>254.33333333333334</ele><time>2026-04-25T15:39:37.025Z</time></trkpt><trkpt lat="45.9342416" lon="10.2590953"><ele>254.0</ele><time>2026-04-25T15:39:37.997Z</time></trkpt><trkpt lat="45.9343189" lon="10.2593546"><ele>254.0</ele><time>2026-04-25T15:39:38.999Z</time></trkpt><trkpt lat="45.9343982" lon="10.2596173"><ele>254.0</ele><time>2026-04-25T15:39:40.003Z</time></trkpt><trkpt lat="45.9344723" lon="10.2598769"><ele>254.0</ele><time>2026-04-25T15:39:40.999Z</time></trkpt><trkpt lat="45.9345452" lon="10.2601239"><ele>254.66666666666669</ele><time>2026-04-25T15:39:41.971Z</time></trkpt><trkpt lat="45.9346228" lon="10.2603877"><ele>255.33333333333331</ele><time>2026-04-25T15:39:43.003Z</time></trkpt><trkpt lat="45.9346957" lon="10.2606342"><ele>256.0</ele><time>2026-04-25T15:39:43.985Z</time></trkpt><trkpt lat="45.9347702" lon="10.2608856"><ele>256.0</ele><time>2026-04-25T15:39:44.978Z</time></trkpt><trkpt lat="45.9348476" lon="10.2611409"><ele>256.0</ele><time>2026-04-25T15:39:45.994Z</time></trkpt><trkpt lat="45.9349254" lon="10.2613939"><ele>256.0</ele><time>2026-04-25T15:39:46.997Z</time></trkpt><trkpt lat="45.9350026" lon="10.2616502"><ele>256.66666666666663</ele><time>2026-04-25T15:39:48.005Z</time></trkpt><trkpt lat="45.9350779" lon="10.2618953"><ele>257.3333333333333</ele><time>2026-04-25T15:39:48.999Z</time></trkpt><trkpt lat="45.9351472" lon="10.2621228"><ele>258.0</ele><time>2026-04-25T15:39:49.964Z</time></trkpt><trkpt lat="45.9352217" lon="10.2623745"><ele>258.0</ele><time>2026-04-25T15:39:51.016Z</time></trkpt><trkpt lat="45.9352934" lon="10.2626102"><ele>258.0</ele><time>2026-04-25T15:39:51.988Z</time></trkpt><trkpt lat="45.9353655" lon="10.2628528"><ele>258.0</ele><time>2026-04-25T15:39:53.021Z</time></trkpt><trkpt lat="45.9354296" lon="10.2630704"><ele>257.3333333333333</ele><time>2026-04-25T15:39:54.009Z</time></trkpt><trkpt lat="45.9354887" lon="10.2632772"><ele>256.66666666666663</ele><time>2026-04-25T15:39:55.002Z</time></trkpt><trkpt lat="45.9355513" lon="10.2634834"><ele>256.0</ele><time>2026-04-25T15:39:55.995Z</time></trkpt><trkpt lat="45.9356093" lon="10.2637028"><ele>256.0</ele><time>2026-04-25T15:39:57.003Z</time></trkpt><trkpt lat="45.935661" lon="10.2639098"><ele>256.0</ele><time>2026-04-25T15:39:57.966Z</time></trkpt><trkpt lat="45.9357178" lon="10.2641272"><ele>256.0</ele><time>2026-04-25T15:39:59.002Z</time></trkpt><trkpt lat="45.9357747" lon="10.2643234"><ele>256.75</ele><time>2026-04-25T15:40:00.001Z</time></trkpt><trkpt lat="45.9358281" lon="10.2645114"><ele>257.5</ele><time>2026-04-25T15:40:00.987Z</time></trkpt><trkpt lat="45.9358828" lon="10.2647012"><ele>258.25</ele><time>2026-04-25T15:40:01.996Z</time></trkpt><trkpt lat="45.9359348" lon="10.2648934"><ele>259.0</ele><time>2026-04-25T15:40:03.002Z</time></trkpt><trkpt lat="45.9359757" lon="10.2650774"><ele>259.0</ele><time>2026-04-25T15:40:03.972Z</time></trkpt><trkpt lat="45.9360086" lon="10.2652717"><ele>259.0</ele><time>2026-04-25T15:40:05.005Z</time></trkpt><trkpt lat="45.9360292" lon="10.2654653"><ele>259.0</ele><time>2026-04-25T15:40:06.011Z</time></trkpt><trkpt lat="45.9360402" lon="10.2656609"><ele>259.0</ele><time>2026-04-25T15:40:06.965Z</time></trkpt><trkpt lat="45.9360404" lon="10.2658825"><ele>259.25</ele><time>2026-04-25T15:40:08.007Z</time></trkpt><trkpt lat="45.9360336" lon="10.2660886"><ele>259.5</ele><time>2026-04-25T15:40:08.979Z</time></trkpt><trkpt lat="45.9360197" lon="10.2662982"><ele>259.75</ele><time>2026-04-25T15:40:09.995Z</time></trkpt><trkpt lat="45.9360007" lon="10.2664935"><ele>260.0</ele><time>2026-04-25T15:40:10.983Z</time></trkpt><trkpt lat="45.9359828" lon="10.2666828"><ele>260.25</ele><time>2026-04-25T15:40:11.987Z</time></trkpt><trkpt lat="45.9359646" lon="10.2668709"><ele>260.5</ele><time>2026-04-25T15:40:13.005Z</time></trkpt><trkpt lat="45.9359526" lon="10.2670475"><ele>260.75</ele><time>2026-04-25T15:40:13.993Z</time></trkpt><trkpt lat="45.9359478" lon="10.2672231"><ele>261.0</ele><time>2026-04-25T15:40:14.968Z</time></trkpt><trkpt lat="45.9359553" lon="10.2674093"><ele>261.5</ele><time>2026-04-25T15:40:15.974Z</time></trkpt><trkpt lat="45.9359716" lon="10.2675983"><ele>262.0</ele><time>2026-04-25T15:40:16.971Z</time></trkpt><trkpt lat="45.936005" lon="10.2677921"><ele>262.5</ele><time>2026-04-25T15:40:18.002Z</time></trkpt><trkpt lat="45.9360512" lon="10.2679727"><ele>263.0</ele><time>2026-04-25T15:40:18.987Z</time></trkpt><trkpt lat="45.9361121" lon="10.2681524"><ele>263.25</ele><time>2026-04-25T15:40:20.002Z</time></trkpt><trkpt lat="45.936186" lon="10.2683061"><ele>263.5</ele><time>2026-04-25T15:40:21.004Z</time></trkpt><trkpt lat="45.9362638" lon="10.2684503"><ele>263.75</ele><time>2026-04-25T15:40:21.989Z</time></trkpt><trkpt lat="45.936348" lon="10.2685836"><ele>264.0</ele><time>2026-04-25T15:40:23.009Z</time></trkpt><trkpt lat="45.9364371" lon="10.2686977"><ele>264.0</ele><time>2026-04-25T15:40:23.977Z</time></trkpt><trkpt lat="45.9365337" lon="10.2687976"><ele>264.0</ele><time>2026-04-25T15:40:24.97Z</time></trkpt><trkpt lat="45.9366405" lon="10.2688921"><ele>264.0</ele><time>2026-04-25T15:40:26.008Z</time></trkpt><trkpt lat="45.9367478" lon="10.2689691"><ele>264.0</ele><time>2026-04-25T15:40:26.968Z</time></trkpt><trkpt lat="45.9368686" lon="10.2690395"><ele>263.75</ele><time>2026-04-25T15:40:28.012Z</time></trkpt><trkpt lat="45.9369848" lon="10.2690823"><ele>263.5</ele><time>2026-04-25T15:40:28.995Z</time></trkpt><trkpt lat="45.9371086" lon="10.2691162"><ele>263.25</ele><time>2026-04-25T15:40:29.978Z</time></trkpt><trkpt lat="45.9372401" lon="10.2691363"><ele>263.0</ele><time>2026-04-25T15:40:30.973Z</time></trkpt><trkpt lat="45.9373875" lon="10.269152"><ele>263.0</ele><time>2026-04-25T15:40:32.011Z</time></trkpt><trkpt lat="45.9375324" lon="10.2691641"><ele>263.0</ele><time>2026-04-25T15:40:32.98Z</time></trkpt><trkpt lat="45.9376941" lon="10.2691868"><ele>263.0</ele><time>2026-04-25T15:40:34.007Z</time></trkpt><trkpt lat="45.9378697" lon="10.2692019"><ele>263.33333333333337</ele><time>2026-04-25T15:40:35.004Z</time></trkpt><trkpt lat="45.9380553" lon="10.2692189"><ele>263.6666666666667</ele><time>2026-04-25T15:40:35.996Z</time></trkpt><trkpt lat="45.9382596" lon="10.2692395"><ele>264.0</ele><time>2026-04-25T15:40:37.01Z</time></trkpt><trkpt lat="45.9384662" lon="10.2692701"><ele>265.0</ele><time>2026-04-25T15:40:38.022Z</time></trkpt><trkpt lat="45.9386701" lon="10.2693053"><ele>266.0</ele><time>2026-04-25T15:40:39.007Z</time></trkpt><trkpt lat="45.9388857" lon="10.2693374"><ele>267.0</ele><time>2026-04-25T15:40:40.016Z</time></trkpt><trkpt lat="45.9391037" lon="10.2693645"><ele>265.0</ele><time>2026-04-25T15:40:41.004Z</time></trkpt><trkpt lat="45.9393278" lon="10.2693899"><ele>263.0</ele><time>2026-04-25T15:40:41.996Z</time></trkpt><trkpt lat="45.9395602" lon="10.2694154"><ele>263.0</ele><time>2026-04-25T15:40:42.994Z</time></trkpt><trkpt lat="45.939801" lon="10.269431"><ele>263.0</ele><time>2026-04-25T15:40:43.989Z</time></trkpt><trkpt lat="45.9400345" lon="10.2694346"><ele>263.0</ele><time>2026-04-25T15:40:44.965Z</time></trkpt><trkpt lat="45.9402858" lon="10.2694192"><ele>263.0</ele><time>2026-04-25T15:40:46.001Z</time></trkpt><trkpt lat="45.940526" lon="10.2693896"><ele>263.0</ele><time>2026-04-25T15:40:46.99Z</time></trkpt><trkpt lat="45.9407751" lon="10.2693484"><ele>263.0</ele><time>2026-04-25T15:40:48Z</time></trkpt><trkpt lat="45.9410095" lon="10.2693089"><ele>263.33333333333337</ele><time>2026-04-25T15:40:48.995Z</time></trkpt><trkpt lat="45.9412369" lon="10.2692698"><ele>263.6666666666667</ele><time>2026-04-25T15:40:50.001Z</time></trkpt><trkpt lat="45.9414485" lon="10.2692363"><ele>264.0</ele><time>2026-04-25T15:40:51.009Z</time></trkpt><trkpt lat="45.9416525" lon="10.2692065"><ele>264.6666666666667</ele><time>2026-04-25T15:40:52.031Z</time></trkpt><trkpt lat="45.9418284" lon="10.2691838"><ele>265.33333333333337</ele><time>2026-04-25T15:40:52.972Z</time></trkpt><trkpt lat="45.9420007" lon="10.269161"><ele>266.0</ele><time>2026-04-25T15:40:53.973Z</time></trkpt><trkpt lat="45.942158" lon="10.2691359"><ele>266.0</ele><time>2026-04-25T15:40:54.998Z</time></trkpt><trkpt lat="45.9422937" lon="10.2691155"><ele>266.0</ele><time>2026-04-25T15:40:56.003Z</time></trkpt><trkpt lat="45.9424174" lon="10.2691021"><ele>266.0</ele><time>2026-04-25T15:40:57.004Z</time></trkpt><trkpt lat="45.9425186" lon="10.2690994"><ele>266.0</ele><time>2026-04-25T15:40:58.008Z</time></trkpt><trkpt lat="45.9426203" lon="10.2691144"><ele>265.8</ele><time>2026-04-25T15:40:59.006Z</time></trkpt><trkpt lat="45.9427201" lon="10.2691436"><ele>265.6</ele><time>2026-04-25T15:41:00.001Z</time></trkpt><trkpt lat="45.9428158" lon="10.2691648"><ele>265.4</ele><time>2026-04-25T15:41:00.967Z</time></trkpt><trkpt lat="45.9429127" lon="10.2691665"><ele>265.2</ele><time>2026-04-25T15:41:02.009Z</time></trkpt><trkpt lat="45.9430069" lon="10.2691817"><ele>265.0</ele><time>2026-04-25T15:41:02.984Z</time></trkpt><trkpt lat="45.943089" lon="10.2692333"><ele>265.0</ele><time>2026-04-25T15:41:03.972Z</time></trkpt><trkpt lat="45.9431585" lon="10.269327"><ele>265.0</ele><time>2026-04-25T15:41:04.973Z</time></trkpt><trkpt lat="45.9432096" lon="10.2694589"><ele>265.0</ele><time>2026-04-25T15:41:05.981Z</time></trkpt><trkpt lat="45.9432423" lon="10.2696089"><ele>265.0</ele><time>2026-04-25T15:41:06.969Z</time></trkpt><trkpt lat="45.9432649" lon="10.269774"><ele>265.0</ele><time>2026-04-25T15:41:07.973Z</time></trkpt><trkpt lat="45.9432878" lon="10.2699407"><ele>265.0</ele><time>2026-04-25T15:41:09.005Z</time></trkpt><trkpt lat="45.9433084" lon="10.2701083"><ele>265.0</ele><time>2026-04-25T15:41:10.001Z</time></trkpt><trkpt lat="45.9433317" lon="10.2702824"><ele>265.0</ele><time>2026-04-25T15:41:11.005Z</time></trkpt><trkpt lat="45.943354" lon="10.2704573"><ele>265.0</ele><time>2026-04-25T15:41:11.99Z</time></trkpt><trkpt lat="45.9433796" lon="10.2706291"><ele>266.0</ele><time>2026-04-25T15:41:12.995Z</time></trkpt><trkpt lat="45.9433957" lon="10.2707716"><ele>273.0</ele><time>2026-04-25T15:41:13.971Z</time></trkpt><trkpt lat="45.9434038" lon="10.2708733"><ele>273.0</ele><time>2026-04-25T15:41:14.999Z</time></trkpt><trkpt lat="45.9433924" lon="10.2710325"><ele>273.0</ele><time>2026-04-25T15:41:17.008Z</time></trkpt><trkpt lat="45.9433975" lon="10.2711552"><ele>273.0</ele><time>2026-04-25T15:41:19.961Z</time></trkpt></trkseg></trk></gpx>